<?xml version='1.0' encoding='UTF-8'?><gpx version="1.1" creator="JPX - https://github.com/jenetics/jpx" xmlns="http://www.topografix.com/GPX/1/1"><trk><trkseg><trkpt lat="44.0406358880602" lon="10.858764957043016"><ele>704.0</ele><time>2026-04-26T06:45:05Z</time></trkpt><trkpt lat="44.04055304272883" lon="10.85878307229018"><ele>704.0</ele><time>2026-04-26T06:45:07Z</time></trkpt><trkpt lat="44.04048540055876" lon="10.858799883549958"><ele>704.0</ele><time>2026-04-26T06:45:09Z</time></trkpt><trkpt lat="44.04041768760165" lon="10.858812679758108"><ele>704.0</ele><time>2026-04-26T06:45:11Z</time></trkpt><trkpt lat="44.040340018087846" lon="10.85882517108806"><ele>704.0</ele><time>2026-04-26T06:45:12Z</time></trkpt><trkpt lat="44.04025890120647" lon="10.858844729821948"><ele>704.0</ele><time>2026-04-26T06:45:13Z</time></trkpt><trkpt lat="44.040153284628175" lon="10.85886805504736"><ele>704.0</ele><time>2026-04-26T06:45:15Z</time></trkpt><trkpt lat="44.04004992240431" lon="10.858912653724333"><ele>704.0</ele><time>2026-04-26T06:45:17Z</time></trkpt><trkpt lat="44.03996663294826" lon="10.858961859158512"><ele>704.0</ele><time>2026-04-26T06:45:18Z</time></trkpt><trkpt lat="44.0399068732234" lon="10.859047164948676"><ele>704.0</ele><time>2026-04-26T06:45:19Z</time></trkpt><trkpt lat="44.03986152172032" lon="10.859176709386372"><ele>704.0</ele><time>2026-04-26T06:45:20Z</time></trkpt><trkpt lat="44.03982777548943" lon="10.859303344865147"><ele>702.2857142857143</ele><time>2026-04-26T06:45:21Z</time></trkpt><trkpt lat="44.03982905989182" lon="10.859413200169847"><ele>700.5714285714286</ele><time>2026-04-26T06:45:22Z</time></trkpt><trkpt lat="44.03982321276975" lon="10.859508258704112"><ele>698.8571428571429</ele><time>2026-04-26T06:45:23Z</time></trkpt><trkpt lat="44.03982081437891" lon="10.859599017432053"><ele>697.1428571428571</ele><time>2026-04-26T06:45:24Z</time></trkpt><trkpt lat="44.03981771005106" lon="10.85969921929431"><ele>695.4285714285714</ele><time>2026-04-26T06:45:25Z</time></trkpt><trkpt lat="44.039818662610635" lon="10.859805202232362"><ele>693.7142857142857</ele><time>2026-04-26T06:45:26Z</time></trkpt><trkpt lat="44.03981459344846" lon="10.859901327518436"><ele>692.0</ele><time>2026-04-26T06:45:27Z</time></trkpt><trkpt lat="44.03982558734503" lon="10.860000883011935"><ele>692.0</ele><time>2026-04-26T06:45:28Z</time></trkpt><trkpt lat="44.03980708529869" lon="10.860086006109828"><ele>692.0</ele><time>2026-04-26T06:45:29Z</time></trkpt><trkpt lat="44.03979481728967" lon="10.860182669701038"><ele>692.0</ele><time>2026-04-26T06:45:30Z</time></trkpt><trkpt lat="44.03977470244719" lon="10.860294549558525"><ele>692.0</ele><time>2026-04-26T06:45:31Z</time></trkpt><trkpt lat="44.039731653379256" lon="10.860369057876913"><ele>692.0</ele><time>2026-04-26T06:45:32Z</time></trkpt><trkpt lat="44.03969250112709" lon="10.860452491514966"><ele>692.0</ele><time>2026-04-26T06:45:33Z</time></trkpt><trkpt lat="44.03960134216181" lon="10.860570244025576"><ele>693.0</ele><time>2026-04-26T06:45:35Z</time></trkpt><trkpt lat="44.03954426056263" lon="10.860609651436569"><ele>694.0</ele><time>2026-04-26T06:45:36Z</time></trkpt><trkpt lat="44.03942763247044" lon="10.860689896224361"><ele>695.0</ele><time>2026-04-26T06:45:38Z</time></trkpt><trkpt lat="44.0393539572106" lon="10.860718476396954"><ele>696.0</ele><time>2026-04-26T06:45:39Z</time></trkpt><trkpt lat="44.03925622729254" lon="10.860766033099141"><ele>697.0</ele><time>2026-04-26T06:45:40Z</time></trkpt><trkpt lat="44.03915366381075" lon="10.860790658209732"><ele>696.3333333333334</ele><time>2026-04-26T06:45:41Z</time></trkpt><trkpt lat="44.039100352124905" lon="10.860841137783481"><ele>695.6666666666667</ele><time>2026-04-26T06:45:42Z</time></trkpt><trkpt lat="44.039025484699884" lon="10.860877760849394"><ele>695.0</ele><time>2026-04-26T06:45:44Z</time></trkpt><trkpt lat="44.038924487435615" lon="10.86091203508563"><ele>694.3333333333334</ele><time>2026-04-26T06:45:50Z</time></trkpt><trkpt lat="44.038870839928826" lon="10.860985252339626"><ele>693.6666666666666</ele><time>2026-04-26T06:45:51Z</time></trkpt><trkpt lat="44.03880897809085" lon="10.861102491609705"><ele>693.0</ele><time>2026-04-26T06:45:52Z</time></trkpt><trkpt lat="44.0387641600234" lon="10.861208867059146"><ele>693.0</ele><time>2026-04-26T06:45:53Z</time></trkpt><trkpt lat="44.038723985183914" lon="10.861307883681102"><ele>693.0</ele><time>2026-04-26T06:45:54Z</time></trkpt><trkpt lat="44.03870603905865" lon="10.86140768729109"><ele>693.0</ele><time>2026-04-26T06:45:55Z</time></trkpt><trkpt lat="44.0386733134534" lon="10.861511718924133"><ele>693.0</ele><time>2026-04-26T06:45:56Z</time></trkpt><trkpt lat="44.0386309678901" lon="10.861648746066214"><ele>693.0</ele><time>2026-04-26T06:45:57Z</time></trkpt><trkpt lat="44.03860394109884" lon="10.861778617081558"><ele>693.0</ele><time>2026-04-26T06:45:58Z</time></trkpt><trkpt lat="44.03858511600653" lon="10.861923528710461"><ele>693.25</ele><time>2026-04-26T06:45:59Z</time></trkpt><trkpt lat="44.03861646240725" lon="10.86207635910882"><ele>693.5</ele><time>2026-04-26T06:46:00Z</time></trkpt><trkpt lat="44.03863217429708" lon="10.862251697814207"><ele>693.75</ele><time>2026-04-26T06:46:01Z</time></trkpt><trkpt lat="44.0386746274896" lon="10.86243765076754"><ele>694.0</ele><time>2026-04-26T06:46:02Z</time></trkpt><trkpt lat="44.03870852082461" lon="10.862620008892367"><ele>694.5</ele><time>2026-04-26T06:46:03Z</time></trkpt><trkpt lat="44.03873626952291" lon="10.862813327711569"><ele>695.0</ele><time>2026-04-26T06:46:04Z</time></trkpt><trkpt lat="44.038753077081616" lon="10.862986247175723"><ele>695.5</ele><time>2026-04-26T06:46:05Z</time></trkpt><trkpt lat="44.038771742210514" lon="10.863142650516105"><ele>696.0</ele><time>2026-04-26T06:46:06Z</time></trkpt><trkpt lat="44.03878263682539" lon="10.86331604502169"><ele>696.5</ele><time>2026-04-26T06:46:07Z</time></trkpt><trkpt lat="44.03877564727202" lon="10.863495050494564"><ele>697.0</ele><time>2026-04-26T06:46:08Z</time></trkpt><trkpt lat="44.03875551161911" lon="10.863665034215355"><ele>697.5</ele><time>2026-04-26T06:46:09Z</time></trkpt><trkpt lat="44.038726350843106" lon="10.86383194685069"><ele>698.0</ele><time>2026-04-26T06:46:10Z</time></trkpt><trkpt lat="44.03871824005926" lon="10.86397216666182"><ele>698.0</ele><time>2026-04-26T06:46:11Z</time></trkpt><trkpt lat="44.03870852808114" lon="10.864103008362061"><ele>698.0</ele><time>2026-04-26T06:46:12Z</time></trkpt><trkpt lat="44.03867475589361" lon="10.864239141564807"><ele>698.0</ele><time>2026-04-26T06:46:13Z</time></trkpt><trkpt lat="44.03865939151559" lon="10.864410876424891"><ele>698.0</ele><time>2026-04-26T06:46:14Z</time></trkpt><trkpt lat="44.03864515779343" lon="10.86459930393821"><ele>698.0</ele><time>2026-04-26T06:46:15Z</time></trkpt><trkpt lat="44.03863067212459" lon="10.864784528877033"><ele>698.0</ele><time>2026-04-26T06:46:16Z</time></trkpt><trkpt lat="44.03860783941961" lon="10.864980735010503"><ele>698.0</ele><time>2026-04-26T06:46:17Z</time></trkpt><trkpt lat="44.03858800091465" lon="10.865176462294512"><ele>698.0</ele><time>2026-04-26T06:46:18Z</time></trkpt><trkpt lat="44.03855520742363" lon="10.86534646591995"><ele>698.0</ele><time>2026-04-26T06:46:19Z</time></trkpt><trkpt lat="44.038525953688136" lon="10.865518439672092"><ele>698.0</ele><time>2026-04-26T06:46:20Z</time></trkpt><trkpt lat="44.03849013107475" lon="10.86570945056298"><ele>698.0</ele><time>2026-04-26T06:46:21Z</time></trkpt><trkpt lat="44.038463443584185" lon="10.86590174838938"><ele>698.0</ele><time>2026-04-26T06:46:22Z</time></trkpt><trkpt lat="44.03845514248458" lon="10.866101276522189"><ele>698.25</ele><time>2026-04-26T06:46:23Z</time></trkpt><trkpt lat="44.03843918851245" lon="10.866275750303036"><ele>698.5</ele><time>2026-04-26T06:46:24Z</time></trkpt><trkpt lat="44.03841358350363" lon="10.866438438026945"><ele>698.75</ele><time>2026-04-26T06:46:25Z</time></trkpt><trkpt lat="44.03839330986985" lon="10.866615672103011"><ele>699.0</ele><time>2026-04-26T06:46:26Z</time></trkpt><trkpt lat="44.03836982327298" lon="10.866761347730515"><ele>699.0</ele><time>2026-04-26T06:46:27Z</time></trkpt><trkpt lat="44.038354464473336" lon="10.866907521265786"><ele>699.0</ele><time>2026-04-26T06:46:28Z</time></trkpt><trkpt lat="44.03833290972534" lon="10.867089704014903"><ele>699.0</ele><time>2026-04-26T06:46:29Z</time></trkpt><trkpt lat="44.03831250459302" lon="10.867270569969675"><ele>699.0</ele><time>2026-04-26T06:46:30Z</time></trkpt><trkpt lat="44.03828871666091" lon="10.86743620573278"><ele>696.75</ele><time>2026-04-26T06:46:31Z</time></trkpt><trkpt lat="44.03826105427502" lon="10.86763002737371"><ele>694.5</ele><time>2026-04-26T06:46:32Z</time></trkpt><trkpt lat="44.03823257778989" lon="10.867813329091492"><ele>692.25</ele><time>2026-04-26T06:46:33Z</time></trkpt><trkpt lat="44.038203802892546" lon="10.86800845597074"><ele>690.0</ele><time>2026-04-26T06:46:34Z</time></trkpt><trkpt lat="44.038184135285604" lon="10.868213667765316"><ele>690.0</ele><time>2026-04-26T06:46:35Z</time></trkpt><trkpt lat="44.03816758961551" lon="10.868383235397765"><ele>690.0</ele><time>2026-04-26T06:46:36Z</time></trkpt><trkpt lat="44.03814929141829" lon="10.868570599314722"><ele>690.0</ele><time>2026-04-26T06:46:37Z</time></trkpt><trkpt lat="44.03813778680607" lon="10.868729093692277"><ele>690.0</ele><time>2026-04-26T06:46:38Z</time></trkpt><trkpt lat="44.03812647151992" lon="10.868881589168632"><ele>689.0</ele><time>2026-04-26T06:46:39Z</time></trkpt><trkpt lat="44.0381060439377" lon="10.869076349873403"><ele>688.0</ele><time>2026-04-26T06:46:40Z</time></trkpt><trkpt lat="44.0380955358605" lon="10.869263794789369"><ele>687.0</ele><time>2026-04-26T06:46:41Z</time></trkpt><trkpt lat="44.03809992852553" lon="10.869460212061565"><ele>686.0</ele><time>2026-04-26T06:46:42Z</time></trkpt><trkpt lat="44.0381414438314" lon="10.869681234310713"><ele>685.0</ele><time>2026-04-26T06:46:43Z</time></trkpt><trkpt lat="44.038157267148804" lon="10.869890389716765"><ele>684.0</ele><time>2026-04-26T06:46:44Z</time></trkpt><trkpt lat="44.038159303625946" lon="10.87010236382108"><ele>683.0</ele><time>2026-04-26T06:46:45Z</time></trkpt><trkpt lat="44.03816098527055" lon="10.870335548910212"><ele>681.6666666666666</ele><time>2026-04-26T06:46:46Z</time></trkpt><trkpt lat="44.03814245145698" lon="10.870584646241095"><ele>680.3333333333334</ele><time>2026-04-26T06:46:47Z</time></trkpt><trkpt lat="44.03811676947004" lon="10.870814747033032"><ele>679.0</ele><time>2026-04-26T06:46:48Z</time></trkpt><trkpt lat="44.03808064917529" lon="10.871052823884172"><ele>678.6666666666667</ele><time>2026-04-26T06:46:49Z</time></trkpt><trkpt lat="44.03804938771789" lon="10.871290913826007"><ele>678.3333333333334</ele><time>2026-04-26T06:46:50Z</time></trkpt><trkpt lat="44.03802787352592" lon="10.871497787504042"><ele>678.0</ele><time>2026-04-26T06:46:51Z</time></trkpt><trkpt lat="44.03798479849649" lon="10.871703612963422"><ele>678.0</ele><time>2026-04-26T06:46:52Z</time></trkpt><trkpt lat="44.03796302725806" lon="10.8719155104039"><ele>678.0</ele><time>2026-04-26T06:46:53Z</time></trkpt><trkpt lat="44.03794204230772" lon="10.872138464747538"><ele>678.0</ele><time>2026-04-26T06:46:54Z</time></trkpt><trkpt lat="44.0379260609947" lon="10.872374705525734"><ele>677.3333333333334</ele><time>2026-04-26T06:46:55Z</time></trkpt><trkpt lat="44.03789978543893" lon="10.872607239221189"><ele>676.6666666666667</ele><time>2026-04-26T06:46:56Z</time></trkpt><trkpt lat="44.03787722599573" lon="10.872808710423932"><ele>676.0</ele><time>2026-04-26T06:46:57Z</time></trkpt><trkpt lat="44.03786479249405" lon="10.87301645515752"><ele>676.0</ele><time>2026-04-26T06:46:58Z</time></trkpt><trkpt lat="44.037858073653965" lon="10.873203780433888"><ele>676.0</ele><time>2026-04-26T06:46:59Z</time></trkpt><trkpt lat="44.037858514899575" lon="10.873416254603098"><ele>676.0</ele><time>2026-04-26T06:47:00Z</time></trkpt><trkpt lat="44.037865131237844" lon="10.873627616980524"><ele>676.0</ele><time>2026-04-26T06:47:01Z</time></trkpt><trkpt lat="44.037881677380376" lon="10.873838131666387"><ele>675.75</ele><time>2026-04-26T06:47:02Z</time></trkpt><trkpt lat="44.037897546353754" lon="10.874023033512549"><ele>675.5</ele><time>2026-04-26T06:47:03Z</time></trkpt><trkpt lat="44.037906572512185" lon="10.874191412092076"><ele>675.25</ele><time>2026-04-26T06:47:04Z</time></trkpt><trkpt lat="44.03792366793016" lon="10.874324685291164"><ele>675.0</ele><time>2026-04-26T06:47:05Z</time></trkpt><trkpt lat="44.0379547159906" lon="10.874461303325274"><ele>674.8</ele><time>2026-04-26T06:47:06Z</time></trkpt><trkpt lat="44.03799790836679" lon="10.874583488511266"><ele>674.6</ele><time>2026-04-26T06:47:07Z</time></trkpt><trkpt lat="44.03805911450248" lon="10.874700905189545"><ele>674.4000000000001</ele><time>2026-04-26T06:47:08Z</time></trkpt><trkpt lat="44.038129739658174" lon="10.874797027063249"><ele>674.2</ele><time>2026-04-26T06:47:09Z</time></trkpt><trkpt lat="44.038212215995124" lon="10.874855017258438"><ele>674.0</ele><time>2026-04-26T06:47:10Z</time></trkpt><trkpt lat="44.03832123902909" lon="10.874907776576618"><ele>674.0</ele><time>2026-04-26T06:47:11Z</time></trkpt><trkpt lat="44.03842530688961" lon="10.875013514337"><ele>674.0</ele><time>2026-04-26T06:47:12Z</time></trkpt><trkpt lat="44.038508841493474" lon="10.875155645384918"><ele>674.0</ele><time>2026-04-26T06:47:13Z</time></trkpt><trkpt lat="44.0385799881859" lon="10.875316017467465"><ele>674.0</ele><time>2026-04-26T06:47:14Z</time></trkpt><trkpt lat="44.038609313820224" lon="10.87548101106571"><ele>673.25</ele><time>2026-04-26T06:47:15Z</time></trkpt><trkpt lat="44.03860587027165" lon="10.875666374336125"><ele>672.5</ele><time>2026-04-26T06:47:16Z</time></trkpt><trkpt lat="44.03855581934238" lon="10.875845519608967"><ele>671.75</ele><time>2026-04-26T06:47:17Z</time></trkpt><trkpt lat="44.038446076602206" lon="10.875983905644306"><ele>671.0</ele><time>2026-04-26T06:47:18Z</time></trkpt><trkpt lat="44.038301273559874" lon="10.876056592244028"><ele>676.4</ele><time>2026-04-26T06:47:19Z</time></trkpt><trkpt lat="44.038192704695966" lon="10.876126165879752"><ele>681.8</ele><time>2026-04-26T06:47:20Z</time></trkpt><trkpt lat="44.03809807959559" lon="10.876214448304369"><ele>687.1999999999999</ele><time>2026-04-26T06:47:21Z</time></trkpt><trkpt lat="44.03800343086573" lon="10.876311393163054"><ele>692.5999999999999</ele><time>2026-04-26T06:47:22Z</time></trkpt><trkpt lat="44.03794854728241" lon="10.876419365201587"><ele>698.0</ele><time>2026-04-26T06:47:23Z</time></trkpt><trkpt lat="44.03790718372276" lon="10.876546290904168"><ele>698.0</ele><time>2026-04-26T06:47:24Z</time></trkpt><trkpt lat="44.03788701871914" lon="10.87671039839133"><ele>698.0</ele><time>2026-04-26T06:47:25Z</time></trkpt><trkpt lat="44.03787473396882" lon="10.876908950859155"><ele>698.0</ele><time>2026-04-26T06:47:26Z</time></trkpt><trkpt lat="44.03787335912865" lon="10.877118748221388"><ele>698.0</ele><time>2026-04-26T06:47:27Z</time></trkpt><trkpt lat="44.03785964445956" lon="10.877346483856938"><ele>697.6666666666666</ele><time>2026-04-26T06:47:28Z</time></trkpt><trkpt lat="44.037857714945225" lon="10.877580556420146"><ele>697.3333333333334</ele><time>2026-04-26T06:47:29Z</time></trkpt><trkpt lat="44.03784471713505" lon="10.877813771979731"><ele>697.0</ele><time>2026-04-26T06:47:30Z</time></trkpt><trkpt lat="44.03782938652827" lon="10.878043160479097"><ele>696.6666666666667</ele><time>2026-04-26T06:47:31Z</time></trkpt><trkpt lat="44.03781831831428" lon="10.87827440618043"><ele>696.3333333333334</ele><time>2026-04-26T06:47:32Z</time></trkpt><trkpt lat="44.03780581758778" lon="10.878498253350195"><ele>696.0</ele><time>2026-04-26T06:47:33Z</time></trkpt><trkpt lat="44.037782065639014" lon="10.878721314715945"><ele>695.0</ele><time>2026-04-26T06:47:34Z</time></trkpt><trkpt lat="44.037767325232274" lon="10.87895211526527"><ele>694.0</ele><time>2026-04-26T06:47:35Z</time></trkpt><trkpt lat="44.03776877848012" lon="10.879185398490858"><ele>693.0</ele><time>2026-04-26T06:47:36Z</time></trkpt><trkpt lat="44.03776167871155" lon="10.879420253631897"><ele>688.6666666666666</ele><time>2026-04-26T06:47:37Z</time></trkpt><trkpt lat="44.03776947724622" lon="10.879657767518317"><ele>684.3333333333333</ele><time>2026-04-26T06:47:38Z</time></trkpt><trkpt lat="44.03779156750016" lon="10.879901283795833"><ele>680.0</ele><time>2026-04-26T06:47:39Z</time></trkpt><trkpt lat="44.03780746579016" lon="10.880143468985016"><ele>679.6666666666666</ele><time>2026-04-26T06:47:40Z</time></trkpt><trkpt lat="44.03783321801566" lon="10.880382790218105"><ele>679.3333333333334</ele><time>2026-04-26T06:47:41Z</time></trkpt><trkpt lat="44.03786316599431" lon="10.88062248270847"><ele>679.0</ele><time>2026-04-26T06:47:42Z</time></trkpt><trkpt lat="44.03789716062581" lon="10.880870134336904"><ele>678.3333333333334</ele><time>2026-04-26T06:47:43Z</time></trkpt><trkpt lat="44.03792641177555" lon="10.88110659995646"><ele>677.6666666666666</ele><time>2026-04-26T06:47:44Z</time></trkpt><trkpt lat="44.03793798137805" lon="10.881314766469263"><ele>677.0</ele><time>2026-04-26T06:47:45Z</time></trkpt><trkpt lat="44.037957604801626" lon="10.88151418097136"><ele>677.0</ele><time>2026-04-26T06:47:46Z</time></trkpt><trkpt lat="44.03797064713605" lon="10.881696433237263"><ele>677.0</ele><time>2026-04-26T06:47:47Z</time></trkpt><trkpt lat="44.03799499597738" lon="10.88187329723269"><ele>677.0</ele><time>2026-04-26T06:47:48Z</time></trkpt><trkpt lat="44.03801239651506" lon="10.882037850217484"><ele>677.0</ele><time>2026-04-26T06:47:49Z</time></trkpt><trkpt lat="44.038035345541495" lon="10.88219357395573"><ele>674.8</ele><time>2026-04-26T06:47:50Z</time></trkpt><trkpt lat="44.0380484644376" lon="10.88231668093547"><ele>672.6</ele><time>2026-04-26T06:47:51Z</time></trkpt><trkpt lat="44.038066504189736" lon="10.88243777984852"><ele>670.4</ele><time>2026-04-26T06:47:52Z</time></trkpt><trkpt lat="44.03807378202812" lon="10.882526503771942"><ele>668.1999999999999</ele><time>2026-04-26T06:47:53Z</time></trkpt><trkpt lat="44.038090621576394" lon="10.882660864922599"><ele>666.0</ele><time>2026-04-26T06:47:55Z</time></trkpt><trkpt lat="44.03816978085619" lon="10.88279931265742"><ele>665.1999999999999</ele><time>2026-04-26T06:47:57Z</time></trkpt><trkpt lat="44.03820097752588" lon="10.88287586535981"><ele>664.4</ele><time>2026-04-26T06:47:58Z</time></trkpt><trkpt lat="44.03825137491792" lon="10.882973163418589"><ele>663.6</ele><time>2026-04-26T06:47:59Z</time></trkpt><trkpt lat="44.03835416660951" lon="10.883089096122756"><ele>662.8</ele><time>2026-04-26T06:48:00Z</time></trkpt><trkpt lat="44.03842827584441" lon="10.88320472699221"><ele>662.0</ele><time>2026-04-26T06:48:01Z</time></trkpt><trkpt lat="44.038524334167754" lon="10.883327653005367"><ele>661.5</ele><time>2026-04-26T06:48:02Z</time></trkpt><trkpt lat="44.03863187004666" lon="10.883470747699052"><ele>661.0</ele><time>2026-04-26T06:48:03Z</time></trkpt><trkpt lat="44.038718015967625" lon="10.883615451265204"><ele>660.5</ele><time>2026-04-26T06:48:04Z</time></trkpt><trkpt lat="44.03880438445927" lon="10.883761986853669"><ele>660.0</ele><time>2026-04-26T06:48:05Z</time></trkpt><trkpt lat="44.0389072287667" lon="10.883917576238437"><ele>660.0</ele><time>2026-04-26T06:48:06Z</time></trkpt><trkpt lat="44.03901152505446" lon="10.884078162023647"><ele>660.0</ele><time>2026-04-26T06:48:07Z</time></trkpt><trkpt lat="44.03911372840549" lon="10.884229191255198"><ele>660.0</ele><time>2026-04-26T06:48:08Z</time></trkpt><trkpt lat="44.03920233520014" lon="10.88437839643934"><ele>660.0</ele><time>2026-04-26T06:48:09Z</time></trkpt><trkpt lat="44.03928758028723" lon="10.884506317689432"><ele>659.75</ele><time>2026-04-26T06:48:10Z</time></trkpt><trkpt lat="44.03938666948846" lon="10.884602307985443"><ele>659.5</ele><time>2026-04-26T06:48:11Z</time></trkpt><trkpt lat="44.03947874952677" lon="10.884676853922667"><ele>659.25</ele><time>2026-04-26T06:48:12Z</time></trkpt><trkpt lat="44.039621125657966" lon="10.884706210384918"><ele>659.0</ele><time>2026-04-26T06:48:13Z</time></trkpt><trkpt lat="44.03976847032643" lon="10.88471124419296"><ele>659.0</ele><time>2026-04-26T06:48:14Z</time></trkpt><trkpt lat="44.0398982345696" lon="10.884692407330432"><ele>659.0</ele><time>2026-04-26T06:48:15Z</time></trkpt><trkpt lat="44.04000177724219" lon="10.884620156552877"><ele>659.0</ele><time>2026-04-26T06:48:16Z</time></trkpt><trkpt lat="44.04009216623112" lon="10.884580780729157"><ele>659.0</ele><time>2026-04-26T06:48:17Z</time></trkpt><trkpt lat="44.04016757015894" lon="10.884581094826054"><ele>659.0</ele><time>2026-04-26T06:48:18Z</time></trkpt><trkpt lat="44.04024676083601" lon="10.884599923833502"><ele>658.75</ele><time>2026-04-26T06:48:19Z</time></trkpt><trkpt lat="44.04029047839767" lon="10.884709238442746"><ele>658.5</ele><time>2026-04-26T06:48:20Z</time></trkpt><trkpt lat="44.040310038538315" lon="10.884874032403067"><ele>658.25</ele><time>2026-04-26T06:48:21Z</time></trkpt><trkpt lat="44.040321543941474" lon="10.885077321367653"><ele>658.0</ele><time>2026-04-26T06:48:22Z</time></trkpt><trkpt lat="44.04031097638122" lon="10.885252081471982"><ele>658.0</ele><time>2026-04-26T06:48:23Z</time></trkpt><trkpt lat="44.04030469318728" lon="10.885430444424925"><ele>658.0</ele><time>2026-04-26T06:48:24Z</time></trkpt><trkpt lat="44.0403337182002" lon="10.885592055158755"><ele>658.0</ele><time>2026-04-26T06:48:25Z</time></trkpt><trkpt lat="44.040394073259016" lon="10.885733095527268"><ele>658.0</ele><time>2026-04-26T06:48:26Z</time></trkpt><trkpt lat="44.04048133191099" lon="10.88583931821171"><ele>659.25</ele><time>2026-04-26T06:48:27Z</time></trkpt><trkpt lat="44.040577711236665" lon="10.885932080340222"><ele>660.5</ele><time>2026-04-26T06:48:28Z</time></trkpt><trkpt lat="44.04069563102975" lon="10.885996277639915"><ele>661.75</ele><time>2026-04-26T06:48:29Z</time></trkpt><trkpt lat="44.04084710205898" lon="10.88603888595131"><ele>663.0</ele><time>2026-04-26T06:48:30Z</time></trkpt><trkpt lat="44.04098593739705" lon="10.88611973069929"><ele>663.0</ele><time>2026-04-26T06:48:31Z</time></trkpt><trkpt lat="44.041131739733956" lon="10.886181706825823"><ele>663.0</ele><time>2026-04-26T06:48:32Z</time></trkpt><trkpt lat="44.041288707261145" lon="10.886257273171722"><ele>663.0</ele><time>2026-04-26T06:48:33Z</time></trkpt><trkpt lat="44.04142898090712" lon="10.886358715162904"><ele>663.0</ele><time>2026-04-26T06:48:34Z</time></trkpt><trkpt lat="44.04157321807766" lon="10.886512013259688"><ele>663.0</ele><time>2026-04-26T06:48:35Z</time></trkpt><trkpt lat="44.04169739743577" lon="10.88666065930168"><ele>663.0</ele><time>2026-04-26T06:48:36Z</time></trkpt><trkpt lat="44.041821582858134" lon="10.886827443087997"><ele>660.6666666666666</ele><time>2026-04-26T06:48:37Z</time></trkpt><trkpt lat="44.04193910084313" lon="10.887001864587733"><ele>658.3333333333333</ele><time>2026-04-26T06:48:38Z</time></trkpt><trkpt lat="44.04206693868122" lon="10.887221834381986"><ele>656.0</ele><time>2026-04-26T06:48:39Z</time></trkpt><trkpt lat="44.04219001935251" lon="10.887445294669183"><ele>655.3333333333333</ele><time>2026-04-26T06:48:40Z</time></trkpt><trkpt lat="44.04231167595626" lon="10.887676357610282"><ele>654.6666666666666</ele><time>2026-04-26T06:48:41Z</time></trkpt><trkpt lat="44.0424254145775" lon="10.88791514599228"><ele>654.0</ele><time>2026-04-26T06:48:42Z</time></trkpt><trkpt lat="44.04253822943201" lon="10.888125935873504"><ele>654.0</ele><time>2026-04-26T06:48:43Z</time></trkpt><trkpt lat="44.04263786147907" lon="10.888337363271656"><ele>654.0</ele><time>2026-04-26T06:48:44Z</time></trkpt><trkpt lat="44.04273166507367" lon="10.888570412072298"><ele>654.0</ele><time>2026-04-26T06:48:45Z</time></trkpt><trkpt lat="44.042802346175456" lon="10.888803358123454"><ele>653.3333333333334</ele><time>2026-04-26T06:48:46Z</time></trkpt><trkpt lat="44.042852591462555" lon="10.889067086872583"><ele>652.6666666666667</ele><time>2026-04-26T06:48:47Z</time></trkpt><trkpt lat="44.042859288213144" lon="10.889304145905152"><ele>652.0</ele><time>2026-04-26T06:48:48Z</time></trkpt><trkpt lat="44.04288689880881" lon="10.889502967127678"><ele>652.0</ele><time>2026-04-26T06:48:49Z</time></trkpt><trkpt lat="44.04289265085025" lon="10.889691803840755"><ele>652.0</ele><time>2026-04-26T06:48:50Z</time></trkpt><trkpt lat="44.04288719354519" lon="10.889869324014866"><ele>652.0</ele><time>2026-04-26T06:48:51Z</time></trkpt><trkpt lat="44.04285751661474" lon="10.890066888461298"><ele>652.0</ele><time>2026-04-26T06:48:52Z</time></trkpt><trkpt lat="44.042775485746766" lon="10.89022357504729"><ele>654.0</ele><time>2026-04-26T06:48:53Z</time></trkpt><trkpt lat="44.04269819981123" lon="10.890413892647707"><ele>656.0</ele><time>2026-04-26T06:48:54Z</time></trkpt><trkpt lat="44.04261243523293" lon="10.890606905231001"><ele>658.0</ele><time>2026-04-26T06:48:55Z</time></trkpt><trkpt lat="44.04251910826998" lon="10.8907760040373"><ele>655.75</ele><time>2026-04-26T06:48:56Z</time></trkpt><trkpt lat="44.04241719743237" lon="10.890920946028935"><ele>653.5</ele><time>2026-04-26T06:48:57Z</time></trkpt><trkpt lat="44.04234975567003" lon="10.891062526800528"><ele>651.25</ele><time>2026-04-26T06:48:58Z</time></trkpt><trkpt lat="44.04232867677959" lon="10.89120932019819"><ele>649.0</ele><time>2026-04-26T06:48:59Z</time></trkpt><trkpt lat="44.042328469839575" lon="10.891374815860464"><ele>649.3333333333334</ele><time>2026-04-26T06:49:00Z</time></trkpt><trkpt lat="44.04238707219458" lon="10.891575837306066"><ele>649.6666666666666</ele><time>2026-04-26T06:49:01Z</time></trkpt><trkpt lat="44.04245863991159" lon="10.891784138634819"><ele>650.0</ele><time>2026-04-26T06:49:02Z</time></trkpt><trkpt lat="44.04255344907985" lon="10.891952552635065"><ele>650.0</ele><time>2026-04-26T06:49:03Z</time></trkpt><trkpt lat="44.04267576780746" lon="10.892097036138864"><ele>650.0</ele><time>2026-04-26T06:49:04Z</time></trkpt><trkpt lat="44.042798756595076" lon="10.892272940025226"><ele>650.0</ele><time>2026-04-26T06:49:05Z</time></trkpt><trkpt lat="44.0429217673161" lon="10.892414044202985"><ele>650.0</ele><time>2026-04-26T06:49:06Z</time></trkpt><trkpt lat="44.04305680388213" lon="10.892584517251043"><ele>650.0</ele><time>2026-04-26T06:49:07Z</time></trkpt><trkpt lat="44.043173067408084" lon="10.892770334562368"><ele>650.0</ele><time>2026-04-26T06:49:08Z</time></trkpt><trkpt lat="44.043263282577136" lon="10.892936159903"><ele>649.6666666666666</ele><time>2026-04-26T06:49:09Z</time></trkpt><trkpt lat="44.0433901306044" lon="10.893168703281974"><ele>649.3333333333334</ele><time>2026-04-26T06:49:10Z</time></trkpt><trkpt lat="44.043492064815695" lon="10.893317685057806"><ele>649.0</ele><time>2026-04-26T06:49:11Z</time></trkpt><trkpt lat="44.04361229302336" lon="10.893466504833578"><ele>649.0</ele><time>2026-04-26T06:49:12Z</time></trkpt><trkpt lat="44.04377054478376" lon="10.893607843503924"><ele>649.0</ele><time>2026-04-26T06:49:13Z</time></trkpt><trkpt lat="44.043896803344275" lon="10.893759284474143"><ele>649.0</ele><time>2026-04-26T06:49:14Z</time></trkpt><trkpt lat="44.044042133332134" lon="10.893876676349487"><ele>648.3333333333334</ele><time>2026-04-26T06:49:15Z</time></trkpt><trkpt lat="44.044194629774445" lon="10.894029149395143"><ele>647.6666666666666</ele><time>2026-04-26T06:49:16Z</time></trkpt><trkpt lat="44.04433099043478" lon="10.894224449367076"><ele>647.0</ele><time>2026-04-26T06:49:17Z</time></trkpt><trkpt lat="44.04443903139282" lon="10.894374185434739"><ele>647.0</ele><time>2026-04-26T06:49:18Z</time></trkpt><trkpt lat="44.04453112783383" lon="10.894509200121448"><ele>647.0</ele><time>2026-04-26T06:49:19Z</time></trkpt><trkpt lat="44.0446327569641" lon="10.894649989555663"><ele>647.0</ele><time>2026-04-26T06:49:20Z</time></trkpt><trkpt lat="44.044719958532404" lon="10.89479157942693"><ele>647.0</ele><time>2026-04-26T06:49:21Z</time></trkpt><trkpt lat="44.04479815186275" lon="10.894981749865837"><ele>648.3333333333333</ele><time>2026-04-26T06:49:22Z</time></trkpt><trkpt lat="44.04487367107163" lon="10.8952280015572"><ele>649.6666666666666</ele><time>2026-04-26T06:49:23Z</time></trkpt><trkpt lat="44.044937894100045" lon="10.895440637096682"><ele>651.0</ele><time>2026-04-26T06:49:24Z</time></trkpt><trkpt lat="44.04500499155297" lon="10.895603033853433"><ele>651.0</ele><time>2026-04-26T06:49:25Z</time></trkpt><trkpt lat="44.04509317472815" lon="10.895733995102287"><ele>651.0</ele><time>2026-04-26T06:49:26Z</time></trkpt><trkpt lat="44.0452148311393" lon="10.895873758106712"><ele>651.0</ele><time>2026-04-26T06:49:27Z</time></trkpt><trkpt lat="44.04534470554514" lon="10.896003364192039"><ele>651.0</ele><time>2026-04-26T06:49:28Z</time></trkpt><trkpt lat="44.04549585633354" lon="10.896139050616762"><ele>650.3333333333334</ele><time>2026-04-26T06:49:29Z</time></trkpt><trkpt lat="44.045635144627006" lon="10.896253643977357"><ele>649.6666666666667</ele><time>2026-04-26T06:49:30Z</time></trkpt><trkpt lat="44.04576866005258" lon="10.896394118371026"><ele>649.0</ele><time>2026-04-26T06:49:31Z</time></trkpt><trkpt lat="44.04588462286616" lon="10.896573752856444"><ele>649.0</ele><time>2026-04-26T06:49:32Z</time></trkpt><trkpt lat="44.04600330442074" lon="10.89673158076297"><ele>649.0</ele><time>2026-04-26T06:49:33Z</time></trkpt><trkpt lat="44.04609832450807" lon="10.896909796741907"><ele>649.0</ele><time>2026-04-26T06:49:34Z</time></trkpt><trkpt lat="44.04618375719887" lon="10.897117718383425"><ele>646.6666666666667</ele><time>2026-04-26T06:49:35Z</time></trkpt><trkpt lat="44.046254425003724" lon="10.89733805318268"><ele>644.3333333333334</ele><time>2026-04-26T06:49:36Z</time></trkpt><trkpt lat="44.04631874538238" lon="10.89756595355925"><ele>642.0</ele><time>2026-04-26T06:49:37Z</time></trkpt><trkpt lat="44.04636219082968" lon="10.897809770514774"><ele>642.0</ele><time>2026-04-26T06:49:38Z</time></trkpt><trkpt lat="44.04636335582978" lon="10.898020353290176"><ele>642.0</ele><time>2026-04-26T06:49:39Z</time></trkpt><trkpt lat="44.04634763186373" lon="10.898240546892549"><ele>642.0</ele><time>2026-04-26T06:49:40Z</time></trkpt><trkpt lat="44.04632621428472" lon="10.898472736908873"><ele>643.5</ele><time>2026-04-26T06:49:41Z</time></trkpt><trkpt lat="44.046304824957105" lon="10.898699025791812"><ele>645.0</ele><time>2026-04-26T06:49:42Z</time></trkpt><trkpt lat="44.04629158234303" lon="10.898904242649918"><ele>646.5</ele><time>2026-04-26T06:49:43Z</time></trkpt><trkpt lat="44.04626934117485" lon="10.899086974752807"><ele>648.0</ele><time>2026-04-26T06:49:44Z</time></trkpt><trkpt lat="44.046283367069954" lon="10.899271803780744"><ele>650.5</ele><time>2026-04-26T06:49:45Z</time></trkpt><trkpt lat="44.046318284779645" lon="10.899437120561126"><ele>653.0</ele><time>2026-04-26T06:49:46Z</time></trkpt><trkpt lat="44.046375689641" lon="10.899581902106592"><ele>655.5</ele><time>2026-04-26T06:49:47Z</time></trkpt><trkpt lat="44.046445755794586" lon="10.899719957650927"><ele>658.0</ele><time>2026-04-26T06:49:48Z</time></trkpt><trkpt lat="44.046556060823725" lon="10.899847081152528"><ele>652.6666666666667</ele><time>2026-04-26T06:49:49Z</time></trkpt><trkpt lat="44.04668542426899" lon="10.899927737831467"><ele>647.3333333333334</ele><time>2026-04-26T06:49:50Z</time></trkpt><trkpt lat="44.04682269283559" lon="10.900015919699593"><ele>642.0</ele><time>2026-04-26T06:49:51Z</time></trkpt><trkpt lat="44.046980874250536" lon="10.900063102478654"><ele>640.0</ele><time>2026-04-26T06:49:52Z</time></trkpt><trkpt lat="44.04715557107998" lon="10.900100310207486"><ele>638.0</ele><time>2026-04-26T06:49:53Z</time></trkpt><trkpt lat="44.04731660905108" lon="10.900218329254809"><ele>636.0</ele><time>2026-04-26T06:49:54Z</time></trkpt><trkpt lat="44.04749486188168" lon="10.900289174490897"><ele>636.0</ele><time>2026-04-26T06:49:55Z</time></trkpt><trkpt lat="44.04767404971603" lon="10.90035426939693"><ele>636.0</ele><time>2026-04-26T06:49:56Z</time></trkpt><trkpt lat="44.04786562160849" lon="10.900414508469298"><ele>636.0</ele><time>2026-04-26T06:49:57Z</time></trkpt><trkpt lat="44.048052258098004" lon="10.900468979785632"><ele>636.0</ele><time>2026-04-26T06:49:58Z</time></trkpt><trkpt lat="44.04823622095629" lon="10.900530539015314"><ele>636.0</ele><time>2026-04-26T06:49:59Z</time></trkpt><trkpt lat="44.04841263821451" lon="10.900598065492835"><ele>636.0</ele><time>2026-04-26T06:50:00Z</time></trkpt><trkpt lat="44.04856433813985" lon="10.900689890859363"><ele>636.3333333333334</ele><time>2026-04-26T06:50:01Z</time></trkpt><trkpt lat="44.0487178977532" lon="10.900809148976322"><ele>636.6666666666667</ele><time>2026-04-26T06:50:02Z</time></trkpt><trkpt lat="44.048866241729115" lon="10.90093140318193"><ele>637.0</ele><time>2026-04-26T06:50:03Z</time></trkpt><trkpt lat="44.049015079303544" lon="10.901063396793887"><ele>634.3333333333334</ele><time>2026-04-26T06:50:04Z</time></trkpt><trkpt lat="44.049151261645314" lon="10.901202165278436"><ele>631.6666666666666</ele><time>2026-04-26T06:50:05Z</time></trkpt><trkpt lat="44.04928912899894" lon="10.901366321099522"><ele>629.0</ele><time>2026-04-26T06:50:06Z</time></trkpt><trkpt lat="44.04942034937969" lon="10.901536410032508"><ele>629.0</ele><time>2026-04-26T06:50:07Z</time></trkpt><trkpt lat="44.049547426928385" lon="10.90171090420885"><ele>629.0</ele><time>2026-04-26T06:50:08Z</time></trkpt><trkpt lat="44.049675168042135" lon="10.901893903299818"><ele>629.0</ele><time>2026-04-26T06:50:09Z</time></trkpt><trkpt lat="44.049803917725896" lon="10.902078263056316"><ele>629.3333333333333</ele><time>2026-04-26T06:50:10Z</time></trkpt><trkpt lat="44.049917688277645" lon="10.902249782702992"><ele>629.6666666666666</ele><time>2026-04-26T06:50:11Z</time></trkpt><trkpt lat="44.0500206188513" lon="10.902411665894327"><ele>630.0</ele><time>2026-04-26T06:50:12Z</time></trkpt><trkpt lat="44.05009498020949" lon="10.902565854145742"><ele>631.0</ele><time>2026-04-26T06:50:13Z</time></trkpt><trkpt lat="44.05017422872082" lon="10.902726628595753"><ele>632.0</ele><time>2026-04-26T06:50:14Z</time></trkpt><trkpt lat="44.050243496082146" lon="10.902874589757"><ele>633.0</ele><time>2026-04-26T06:50:15Z</time></trkpt><trkpt lat="44.050315538569954" lon="10.903011413031448"><ele>634.0</ele><time>2026-04-26T06:50:16Z</time></trkpt><trkpt lat="44.05039371417433" lon="10.903149412362936"><ele>634.0</ele><time>2026-04-26T06:50:17Z</time></trkpt><trkpt lat="44.050470976624126" lon="10.903242342903962"><ele>634.0</ele><time>2026-04-26T06:50:18Z</time></trkpt><trkpt lat="44.05057499489968" lon="10.903301518620683"><ele>634.0</ele><time>2026-04-26T06:50:19Z</time></trkpt><trkpt lat="44.050702092092415" lon="10.903357926438137"><ele>634.0</ele><time>2026-04-26T06:50:20Z</time></trkpt><trkpt lat="44.05082965926828" lon="10.903419295680468"><ele>634.6666666666667</ele><time>2026-04-26T06:50:21Z</time></trkpt><trkpt lat="44.05096802234006" lon="10.903491213943283"><ele>635.3333333333334</ele><time>2026-04-26T06:50:22Z</time></trkpt><trkpt lat="44.05112026943016" lon="10.903566689698382"><ele>636.0</ele><time>2026-04-26T06:50:23Z</time></trkpt><trkpt lat="44.051272938200384" lon="10.903643007096202"><ele>636.0</ele><time>2026-04-26T06:50:24Z</time></trkpt><trkpt lat="44.051446788747796" lon="10.903717101134115"><ele>636.0</ele><time>2026-04-26T06:50:25Z</time></trkpt><trkpt lat="44.05161707096682" lon="10.903784926167729"><ele>636.0</ele><time>2026-04-26T06:50:26Z</time></trkpt><trkpt lat="44.051787518295605" lon="10.903855392215235"><ele>632.6666666666666</ele><time>2026-04-26T06:50:27Z</time></trkpt><trkpt lat="44.05195763009017" lon="10.903910810788842"><ele>629.3333333333333</ele><time>2026-04-26T06:50:28Z</time></trkpt><trkpt lat="44.05215748971217" lon="10.903969591696859"><ele>626.0</ele><time>2026-04-26T06:50:29Z</time></trkpt><trkpt lat="44.05232368186012" lon="10.904023388050065"><ele>624.3333333333333</ele><time>2026-04-26T06:50:30Z</time></trkpt><trkpt lat="44.052495099454646" lon="10.904068118125933"><ele>622.6666666666666</ele><time>2026-04-26T06:50:31Z</time></trkpt><trkpt lat="44.05266246009857" lon="10.904103766429778"><ele>621.0</ele><time>2026-04-26T06:50:32Z</time></trkpt><trkpt lat="44.05284087302718" lon="10.904164347966539"><ele>621.0</ele><time>2026-04-26T06:50:33Z</time></trkpt><trkpt lat="44.05301131935402" lon="10.904235236328464"><ele>621.0</ele><time>2026-04-26T06:50:34Z</time></trkpt><trkpt lat="44.05315963565395" lon="10.904306958300321"><ele>621.0</ele><time>2026-04-26T06:50:35Z</time></trkpt><trkpt lat="44.053288138751256" lon="10.90438899158821"><ele>619.0</ele><time>2026-04-26T06:50:36Z</time></trkpt><trkpt lat="44.05342489253042" lon="10.904467069060079"><ele>617.0</ele><time>2026-04-26T06:50:37Z</time></trkpt><trkpt lat="44.053576862719666" lon="10.90456869392649"><ele>615.0</ele><time>2026-04-26T06:50:38Z</time></trkpt><trkpt lat="44.05372394404795" lon="10.904690513248797"><ele>615.0</ele><time>2026-04-26T06:50:39Z</time></trkpt><trkpt lat="44.05385935633597" lon="10.90482045121711"><ele>615.0</ele><time>2026-04-26T06:50:40Z</time></trkpt><trkpt lat="44.0540117743775" lon="10.90496832443658"><ele>615.0</ele><time>2026-04-26T06:50:41Z</time></trkpt><trkpt lat="44.05415259950751" lon="10.905119270149987"><ele>614.6666666666666</ele><time>2026-04-26T06:50:42Z</time></trkpt><trkpt lat="44.054282190380746" lon="10.905275925497495"><ele>614.3333333333333</ele><time>2026-04-26T06:50:43Z</time></trkpt><trkpt lat="44.0543968583488" lon="10.905418950513473"><ele>614.0</ele><time>2026-04-26T06:50:44Z</time></trkpt><trkpt lat="44.05449161645784" lon="10.905549964840631"><ele>614.0</ele><time>2026-04-26T06:50:45Z</time></trkpt><trkpt lat="44.05457915000193" lon="10.905686702647799"><ele>614.0</ele><time>2026-04-26T06:50:46Z</time></trkpt><trkpt lat="44.054687246833986" lon="10.905806065448871"><ele>614.0</ele><time>2026-04-26T06:50:47Z</time></trkpt><trkpt lat="44.05479892669674" lon="10.90589413288554"><ele>614.0</ele><time>2026-04-26T06:50:48Z</time></trkpt><trkpt lat="44.05493071842146" lon="10.905987289227856"><ele>614.25</ele><time>2026-04-26T06:50:49Z</time></trkpt><trkpt lat="44.05504975286986" lon="10.906086001062771"><ele>614.5</ele><time>2026-04-26T06:50:50Z</time></trkpt><trkpt lat="44.05515049319675" lon="10.906177865211072"><ele>614.75</ele><time>2026-04-26T06:50:51Z</time></trkpt><trkpt lat="44.05524394758351" lon="10.906251126766154"><ele>615.0</ele><time>2026-04-26T06:50:52Z</time></trkpt><trkpt lat="44.055360539403374" lon="10.906302337848937"><ele>615.0</ele><time>2026-04-26T06:50:54Z</time></trkpt><trkpt lat="44.0554193517849" lon="10.906393103392663"><ele>615.0</ele><time>2026-04-26T06:50:56Z</time></trkpt><trkpt lat="44.05536157949733" lon="10.906537810313703"><ele>615.0</ele><time>2026-04-26T06:50:58Z</time></trkpt><trkpt lat="44.055324384246795" lon="10.90664383766797"><ele>615.0</ele><time>2026-04-26T06:51:00Z</time></trkpt><trkpt lat="44.05536934212472" lon="10.906721588547184"><ele>615.0</ele><time>2026-04-26T06:51:01Z</time></trkpt><trkpt lat="44.05542843033999" lon="10.906775895475377"><ele>615.0</ele><time>2026-04-26T06:51:02Z</time></trkpt><trkpt lat="44.05548581393508" lon="10.90682041999052"><ele>615.1666666666666</ele><time>2026-04-26T06:51:03Z</time></trkpt><trkpt lat="44.05555334057636" lon="10.906866113982211"><ele>615.3333333333334</ele><time>2026-04-26T06:51:04Z</time></trkpt><trkpt lat="44.05561899347342" lon="10.906917053910925"><ele>615.5</ele><time>2026-04-26T06:51:05Z</time></trkpt><trkpt lat="44.05568895821409" lon="10.906968114510471"><ele>615.6666666666667</ele><time>2026-04-26T06:51:06Z</time></trkpt><trkpt lat="44.055770031222586" lon="10.90703202444212"><ele>615.8333333333334</ele><time>2026-04-26T06:51:07Z</time></trkpt><trkpt lat="44.05585984320767" lon="10.907129185379985"><ele>616.0</ele><time>2026-04-26T06:51:08Z</time></trkpt><trkpt lat="44.05597168927742" lon="10.907216501086959"><ele>615.5</ele><time>2026-04-26T06:51:09Z</time></trkpt><trkpt lat="44.05608602049643" lon="10.907308476278123"><ele>615.0</ele><time>2026-04-26T06:51:10Z</time></trkpt><trkpt lat="44.05620122197362" lon="10.907401999770116"><ele>614.5</ele><time>2026-04-26T06:51:11Z</time></trkpt><trkpt lat="44.05632453668971" lon="10.907501924002647"><ele>614.0</ele><time>2026-04-26T06:51:12Z</time></trkpt><trkpt lat="44.05645682206031" lon="10.907625060606819"><ele>614.0</ele><time>2026-04-26T06:51:13Z</time></trkpt><trkpt lat="44.056596847164016" lon="10.907766386450882"><ele>614.0</ele><time>2026-04-26T06:51:14Z</time></trkpt><trkpt lat="44.05672951690524" lon="10.907916105894962"><ele>614.0</ele><time>2026-04-26T06:51:15Z</time></trkpt><trkpt lat="44.05684795421348" lon="10.908063391750817"><ele>613.6666666666666</ele><time>2026-04-26T06:51:16Z</time></trkpt><trkpt lat="44.05697332628134" lon="10.90820224323489"><ele>613.3333333333334</ele><time>2026-04-26T06:51:17Z</time></trkpt><trkpt lat="44.05709044149132" lon="10.90833748261848"><ele>613.0</ele><time>2026-04-26T06:51:18Z</time></trkpt><trkpt lat="44.057208489788536" lon="10.908476662269935"><ele>613.3333333333334</ele><time>2026-04-26T06:51:19Z</time></trkpt><trkpt lat="44.05733091934394" lon="10.908625056393037"><ele>613.6666666666666</ele><time>2026-04-26T06:51:20Z</time></trkpt><trkpt lat="44.05744858379284" lon="10.90877552276231"><ele>614.0</ele><time>2026-04-26T06:51:21Z</time></trkpt><trkpt lat="44.05754973039963" lon="10.90890445685113"><ele>614.0</ele><time>2026-04-26T06:51:22Z</time></trkpt><trkpt lat="44.05765206091226" lon="10.909019147350032"><ele>614.0</ele><time>2026-04-26T06:51:23Z</time></trkpt><trkpt lat="44.057737886746494" lon="10.909139381417692"><ele>614.0</ele><time>2026-04-26T06:51:24Z</time></trkpt><trkpt lat="44.05783769076954" lon="10.909266777088394"><ele>614.0</ele><time>2026-04-26T06:51:25Z</time></trkpt><trkpt lat="44.05792500523277" lon="10.90940529050061"><ele>618.0</ele><time>2026-04-26T06:51:26Z</time></trkpt><trkpt lat="44.05799665762764" lon="10.909554736904205"><ele>622.0</ele><time>2026-04-26T06:51:27Z</time></trkpt><trkpt lat="44.058088704288636" lon="10.909735112209116"><ele>626.0</ele><time>2026-04-26T06:51:28Z</time></trkpt><trkpt lat="44.05816726690676" lon="10.909898839129255"><ele>630.0</ele><time>2026-04-26T06:51:29Z</time></trkpt><trkpt lat="44.05822750277115" lon="10.910044684670842"><ele>633.25</ele><time>2026-04-26T06:51:30Z</time></trkpt><trkpt lat="44.05828476178649" lon="10.910209372281571"><ele>636.5</ele><time>2026-04-26T06:51:31Z</time></trkpt><trkpt lat="44.05833705622026" lon="10.91038457618475"><ele>639.75</ele><time>2026-04-26T06:51:32Z</time></trkpt><trkpt lat="44.05839495315787" lon="10.910546509687762"><ele>643.0</ele><time>2026-04-26T06:51:33Z</time></trkpt><trkpt lat="44.05843643355971" lon="10.91068968775095"><ele>637.0</ele><time>2026-04-26T06:51:34Z</time></trkpt><trkpt lat="44.058487993950244" lon="10.910838585543228"><ele>631.0</ele><time>2026-04-26T06:51:35Z</time></trkpt><trkpt lat="44.05851923324972" lon="10.91095772131928"><ele>625.0</ele><time>2026-04-26T06:51:36Z</time></trkpt><trkpt lat="44.05855657559787" lon="10.911059185981498"><ele>619.0</ele><time>2026-04-26T06:51:37Z</time></trkpt><trkpt lat="44.05863271470861" lon="10.911184357793994"><ele>613.0</ele><time>2026-04-26T06:51:39Z</time></trkpt><trkpt lat="44.0587020982671" lon="10.911297006806699"><ele>613.0</ele><time>2026-04-26T06:51:41Z</time></trkpt><trkpt lat="44.05877699744124" lon="10.911349434007247"><ele>613.0</ele><time>2026-04-26T06:51:43Z</time></trkpt><trkpt lat="44.058854067618476" lon="10.91138088202584"><ele>613.0</ele><time>2026-04-26T06:51:46Z</time></trkpt><trkpt lat="44.0589168795297" lon="10.911406383406977"><ele>613.0</ele><time>2026-04-26T06:52:02Z</time></trkpt><trkpt lat="44.058979799532" lon="10.911402760313342"><ele>613.0</ele><time>2026-04-26T06:52:35Z</time></trkpt><trkpt lat="44.05905602539611" lon="10.911457137811011"><ele>613.0</ele><time>2026-04-26T06:52:39Z</time></trkpt><trkpt lat="44.05909936224329" lon="10.911558947418293"><ele>612.3333333333334</ele><time>2026-04-26T06:52:42Z</time></trkpt><trkpt lat="44.0591312660315" lon="10.911634616125097"><ele>611.6666666666667</ele><time>2026-04-26T06:52:43Z</time></trkpt><trkpt lat="44.05916502197631" lon="10.911726190634353"><ele>611.0</ele><time>2026-04-26T06:52:44Z</time></trkpt><trkpt lat="44.05922277842072" lon="10.911814211899024"><ele>610.3333333333334</ele><time>2026-04-26T06:52:45Z</time></trkpt><trkpt lat="44.0592297345591" lon="10.91195429019996"><ele>609.6666666666666</ele><time>2026-04-26T06:52:46Z</time></trkpt><trkpt lat="44.05923931734365" lon="10.912104854981818"><ele>609.0</ele><time>2026-04-26T06:52:47Z</time></trkpt><trkpt lat="44.059255719281936" lon="10.912258173493315"><ele>609.2</ele><time>2026-04-26T06:52:48Z</time></trkpt><trkpt lat="44.059248408478275" lon="10.912436310596586"><ele>609.4</ele><time>2026-04-26T06:52:49Z</time></trkpt><trkpt lat="44.05929276582185" lon="10.9125759878538"><ele>609.6</ele><time>2026-04-26T06:52:50Z</time></trkpt><trkpt lat="44.059326772576554" lon="10.912681386019639"><ele>609.8</ele><time>2026-04-26T06:52:51Z</time></trkpt><trkpt lat="44.05936460401022" lon="10.912793777445167"><ele>610.0</ele><time>2026-04-26T06:52:52Z</time></trkpt><trkpt lat="44.05940251358337" lon="10.912899276003209"><ele>610.0</ele><time>2026-04-26T06:52:53Z</time></trkpt><trkpt lat="44.059451482208665" lon="10.91301736926068"><ele>610.0</ele><time>2026-04-26T06:52:54Z</time></trkpt><trkpt lat="44.059501857050236" lon="10.913115054120942"><ele>610.0</ele><time>2026-04-26T06:52:55Z</time></trkpt><trkpt lat="44.05957294985936" lon="10.91322653285428"><ele>610.0</ele><time>2026-04-26T06:52:56Z</time></trkpt><trkpt lat="44.05965676106159" lon="10.913337634260413"><ele>610.0</ele><time>2026-04-26T06:52:57Z</time></trkpt><trkpt lat="44.05972932056107" lon="10.913495903759214"><ele>611.25</ele><time>2026-04-26T06:52:58Z</time></trkpt><trkpt lat="44.059817444856634" lon="10.913648333820403"><ele>612.5</ele><time>2026-04-26T06:52:59Z</time></trkpt><trkpt lat="44.05990802525188" lon="10.913808865403952"><ele>613.75</ele><time>2026-04-26T06:53:00Z</time></trkpt><trkpt lat="44.06000417234464" lon="10.91398378921166"><ele>615.0</ele><time>2026-04-26T06:53:01Z</time></trkpt><trkpt lat="44.060111654037165" lon="10.914162232633222"><ele>614.3333333333334</ele><time>2026-04-26T06:53:02Z</time></trkpt><trkpt lat="44.06020955057804" lon="10.914346487262847"><ele>613.6666666666667</ele><time>2026-04-26T06:53:03Z</time></trkpt><trkpt lat="44.06031316624062" lon="10.914531817808507"><ele>613.0</ele><time>2026-04-26T06:53:04Z</time></trkpt><trkpt lat="44.0603976931149" lon="10.91469938521736"><ele>613.0</ele><time>2026-04-26T06:53:05Z</time></trkpt><trkpt lat="44.06048994738614" lon="10.914851702883023"><ele>613.0</ele><time>2026-04-26T06:53:06Z</time></trkpt><trkpt lat="44.0605800238168" lon="10.914977732017492"><ele>613.0</ele><time>2026-04-26T06:53:07Z</time></trkpt><trkpt lat="44.06065299875194" lon="10.91511035724456"><ele>613.0</ele><time>2026-04-26T06:53:08Z</time></trkpt><trkpt lat="44.0607374949128" lon="10.915208671721853"><ele>615.25</ele><time>2026-04-26T06:53:09Z</time></trkpt><trkpt lat="44.060800396918566" lon="10.915354203383696"><ele>617.5</ele><time>2026-04-26T06:53:10Z</time></trkpt><trkpt lat="44.060838711450174" lon="10.915496461162443"><ele>619.75</ele><time>2026-04-26T06:53:11Z</time></trkpt><trkpt lat="44.06086663367765" lon="10.915646423013069"><ele>622.0</ele><time>2026-04-26T06:53:12Z</time></trkpt><trkpt lat="44.06087591335519" lon="10.915810960046034"><ele>619.8000000000001</ele><time>2026-04-26T06:53:13Z</time></trkpt><trkpt lat="44.06083628973975" lon="10.915967006691575"><ele>617.6</ele><time>2026-04-26T06:53:14Z</time></trkpt><trkpt lat="44.060816639131765" lon="10.916110630539064"><ele>615.4000000000001</ele><time>2026-04-26T06:53:15Z</time></trkpt><trkpt lat="44.0608163492279" lon="10.916227675114914"><ele>613.2</ele><time>2026-04-26T06:53:16Z</time></trkpt><trkpt lat="44.060823903786556" lon="10.916366041742965"><ele>611.0</ele><time>2026-04-26T06:53:17Z</time></trkpt><trkpt lat="44.06084709776357" lon="10.916459935487254"><ele>611.0</ele><time>2026-04-26T06:53:18Z</time></trkpt><trkpt lat="44.06088714529592" lon="10.916556667631896"><ele>611.0</ele><time>2026-04-26T06:53:19Z</time></trkpt><trkpt lat="44.06094305495825" lon="10.916659328108967"><ele>611.0</ele><time>2026-04-26T06:53:20Z</time></trkpt><trkpt lat="44.061002834630756" lon="10.916745567123815"><ele>611.0</ele><time>2026-04-26T06:53:21Z</time></trkpt><trkpt lat="44.061067681756406" lon="10.916803793339998"><ele>611.0</ele><time>2026-04-26T06:53:22Z</time></trkpt><trkpt lat="44.061143741933755" lon="10.916838716360408"><ele>611.0</ele><time>2026-04-26T06:53:23Z</time></trkpt><trkpt lat="44.06121286801194" lon="10.916854253005825"><ele>610.2</ele><time>2026-04-26T06:53:24Z</time></trkpt><trkpt lat="44.06130183427239" lon="10.916857810556191"><ele>609.4000000000001</ele><time>2026-04-26T06:53:25Z</time></trkpt><trkpt lat="44.061396763248695" lon="10.916863125048938"><ele>608.6</ele><time>2026-04-26T06:53:26Z</time></trkpt><trkpt lat="44.06150244090005" lon="10.9168733994367"><ele>607.8000000000001</ele><time>2026-04-26T06:53:27Z</time></trkpt><trkpt lat="44.06162217565782" lon="10.916898700540779"><ele>607.0</ele><time>2026-04-26T06:53:28Z</time></trkpt><trkpt lat="44.0617375821457" lon="10.916929182582589"><ele>607.0</ele><time>2026-04-26T06:53:29Z</time></trkpt><trkpt lat="44.06188745299958" lon="10.916935974076353"><ele>607.0</ele><time>2026-04-26T06:53:30Z</time></trkpt><trkpt lat="44.0620379023925" lon="10.916917948913758"><ele>607.0</ele><time>2026-04-26T06:53:31Z</time></trkpt><trkpt lat="44.06219836605814" lon="10.91691424671083"><ele>607.0</ele><time>2026-04-26T06:53:32Z</time></trkpt><trkpt lat="44.06235216685516" lon="10.916956124120007"><ele>607.0</ele><time>2026-04-26T06:53:33Z</time></trkpt><trkpt lat="44.06251334337379" lon="10.916967837479229"><ele>607.0</ele><time>2026-04-26T06:53:34Z</time></trkpt><trkpt lat="44.062659002592774" lon="10.916967929384327"><ele>606.25</ele><time>2026-04-26T06:53:35Z</time></trkpt><trkpt lat="44.062794024339006" lon="10.916932840302742"><ele>605.5</ele><time>2026-04-26T06:53:36Z</time></trkpt><trkpt lat="44.06291933547048" lon="10.916875053653975"><ele>604.75</ele><time>2026-04-26T06:53:37Z</time></trkpt><trkpt lat="44.06301420528873" lon="10.916828265651422"><ele>604.0</ele><time>2026-04-26T06:53:38Z</time></trkpt><trkpt lat="44.06310050266091" lon="10.916805086500164"><ele>604.0</ele><time>2026-04-26T06:53:39Z</time></trkpt><trkpt lat="44.06317744581774" lon="10.916832079413332"><ele>604.0</ele><time>2026-04-26T06:53:40Z</time></trkpt><trkpt lat="44.063248588719475" lon="10.91695415272559"><ele>604.0</ele><time>2026-04-26T06:53:41Z</time></trkpt><trkpt lat="44.063351014349" lon="10.917067766711842"><ele>604.0</ele><time>2026-04-26T06:53:42Z</time></trkpt><trkpt lat="44.06345471697621" lon="10.91720767626817"><ele>603.25</ele><time>2026-04-26T06:53:43Z</time></trkpt><trkpt lat="44.063563075259786" lon="10.917352563168139"><ele>602.5</ele><time>2026-04-26T06:53:44Z</time></trkpt><trkpt lat="44.06366278954039" lon="10.91749453226432"><ele>601.75</ele><time>2026-04-26T06:53:45Z</time></trkpt><trkpt lat="44.0637589113423" lon="10.917626140997443"><ele>601.0</ele><time>2026-04-26T06:53:46Z</time></trkpt><trkpt lat="44.063897820765895" lon="10.917708012191463"><ele>603.3333333333334</ele><time>2026-04-26T06:53:47Z</time></trkpt><trkpt lat="44.064044489152735" lon="10.917801946748733"><ele>605.6666666666666</ele><time>2026-04-26T06:53:48Z</time></trkpt><trkpt lat="44.06419464644505" lon="10.917903463877199"><ele>608.0</ele><time>2026-04-26T06:53:49Z</time></trkpt><trkpt lat="44.064335269709375" lon="10.918016550292053"><ele>603.3333333333333</ele><time>2026-04-26T06:53:50Z</time></trkpt><trkpt lat="44.06447916679978" lon="10.918127249959673"><ele>598.6666666666666</ele><time>2026-04-26T06:53:51Z</time></trkpt><trkpt lat="44.06463765959534" lon="10.918233721432307"><ele>594.0</ele><time>2026-04-26T06:53:52Z</time></trkpt><trkpt lat="44.06479493709054" lon="10.918287814110165"><ele>594.0</ele><time>2026-04-26T06:53:53Z</time></trkpt><trkpt lat="44.06493145087666" lon="10.918326266500475"><ele>594.0</ele><time>2026-04-26T06:53:54Z</time></trkpt><trkpt lat="44.06505682847033" lon="10.918404642565335"><ele>594.0</ele><time>2026-04-26T06:53:55Z</time></trkpt><trkpt lat="44.0651682866271" lon="10.918533401404147"><ele>594.0</ele><time>2026-04-26T06:53:56Z</time></trkpt><trkpt lat="44.065291303922415" lon="10.918657020938273"><ele>594.5</ele><time>2026-04-26T06:53:57Z</time></trkpt><trkpt lat="44.06543791051533" lon="10.918732442587828"><ele>595.0</ele><time>2026-04-26T06:53:58Z</time></trkpt><trkpt lat="44.06555000617008" lon="10.918834007915136"><ele>595.5</ele><time>2026-04-26T06:53:59Z</time></trkpt><trkpt lat="44.06567689977996" lon="10.918911575217066"><ele>596.0</ele><time>2026-04-26T06:54:00Z</time></trkpt><trkpt lat="44.065796499981616" lon="10.91897301642931"><ele>598.5</ele><time>2026-04-26T06:54:01Z</time></trkpt><trkpt lat="44.06589323558195" lon="10.919125237636296"><ele>601.0</ele><time>2026-04-26T06:54:02Z</time></trkpt><trkpt lat="44.065985992770514" lon="10.919275292751966"><ele>603.5</ele><time>2026-04-26T06:54:03Z</time></trkpt><trkpt lat="44.06608581146848" lon="10.919415811807266"><ele>606.0</ele><time>2026-04-26T06:54:04Z</time></trkpt><trkpt lat="44.06619767235363" lon="10.919536724202118"><ele>606.0</ele><time>2026-04-26T06:54:05Z</time></trkpt><trkpt lat="44.066327865162854" lon="10.91965130195394"><ele>606.0</ele><time>2026-04-26T06:54:06Z</time></trkpt><trkpt lat="44.06647381949689" lon="10.919756589226143"><ele>606.0</ele><time>2026-04-26T06:54:07Z</time></trkpt><trkpt lat="44.066622028761174" lon="10.919862396984405"><ele>601.6666666666666</ele><time>2026-04-26T06:54:08Z</time></trkpt><trkpt lat="44.06677743728068" lon="10.919915101010742"><ele>597.3333333333333</ele><time>2026-04-26T06:54:09Z</time></trkpt><trkpt lat="44.06692756892387" lon="10.919997621614456"><ele>593.0</ele><time>2026-04-26T06:54:10Z</time></trkpt><trkpt lat="44.067091957577965" lon="10.92003970143862"><ele>593.0</ele><time>2026-04-26T06:54:11Z</time></trkpt><trkpt lat="44.06726676903672" lon="10.920067809901543"><ele>593.0</ele><time>2026-04-26T06:54:12Z</time></trkpt><trkpt lat="44.0674458661774" lon="10.92009460603772"><ele>593.0</ele><time>2026-04-26T06:54:13Z</time></trkpt><trkpt lat="44.0676124739018" lon="10.920113186524896"><ele>593.0</ele><time>2026-04-26T06:54:14Z</time></trkpt><trkpt lat="44.06776303282519" lon="10.920140361171068"><ele>593.0</ele><time>2026-04-26T06:54:15Z</time></trkpt><trkpt lat="44.06789112279444" lon="10.920172019503527"><ele>593.0</ele><time>2026-04-26T06:54:16Z</time></trkpt><trkpt lat="44.068009873178646" lon="10.920252104043266"><ele>593.0</ele><time>2026-04-26T06:54:17Z</time></trkpt><trkpt lat="44.06812804033228" lon="10.920350511024179"><ele>593.0</ele><time>2026-04-26T06:54:18Z</time></trkpt><trkpt lat="44.068239433883186" lon="10.920481983962596"><ele>593.0</ele><time>2026-04-26T06:54:19Z</time></trkpt><trkpt lat="44.06835176150542" lon="10.920638977252057"><ele>593.0</ele><time>2026-04-26T06:54:20Z</time></trkpt><trkpt lat="44.068462751754566" lon="10.920794352817795"><ele>594.6666666666666</ele><time>2026-04-26T06:54:21Z</time></trkpt><trkpt lat="44.06859297602425" lon="10.920951077250432"><ele>596.3333333333334</ele><time>2026-04-26T06:54:22Z</time></trkpt><trkpt lat="44.06871851714983" lon="10.921084137123048"><ele>598.0</ele><time>2026-04-26T06:54:23Z</time></trkpt><trkpt lat="44.06883352727332" lon="10.921215289055404"><ele>598.0</ele><time>2026-04-26T06:54:24Z</time></trkpt><trkpt lat="44.068947488198845" lon="10.921357041422416"><ele>598.0</ele><time>2026-04-26T06:54:25Z</time></trkpt><trkpt lat="44.069044786383856" lon="10.921497426909534"><ele>598.0</ele><time>2026-04-26T06:54:26Z</time></trkpt><trkpt lat="44.069135562666254" lon="10.921647214835593"><ele>598.0</ele><time>2026-04-26T06:54:27Z</time></trkpt><trkpt lat="44.069227858670956" lon="10.921800375941713"><ele>595.6666666666667</ele><time>2026-04-26T06:54:28Z</time></trkpt><trkpt lat="44.06931606403417" lon="10.92196685050366"><ele>593.3333333333334</ele><time>2026-04-26T06:54:29Z</time></trkpt><trkpt lat="44.0694162892989" lon="10.922111372664046"><ele>591.0</ele><time>2026-04-26T06:54:30Z</time></trkpt><trkpt lat="44.06951285422826" lon="10.922293304508692"><ele>591.0</ele><time>2026-04-26T06:54:31Z</time></trkpt><trkpt lat="44.06965386703989" lon="10.922444237078778"><ele>591.0</ele><time>2026-04-26T06:54:32Z</time></trkpt><trkpt lat="44.069803188352296" lon="10.922578493453923"><ele>591.0</ele><time>2026-04-26T06:54:33Z</time></trkpt><trkpt lat="44.06996888278484" lon="10.922710189343357"><ele>591.0</ele><time>2026-04-26T06:54:34Z</time></trkpt><trkpt lat="44.070138843365605" lon="10.922832433004704"><ele>591.0</ele><time>2026-04-26T06:54:35Z</time></trkpt><trkpt lat="44.070315805334104" lon="10.922946469481873"><ele>591.0</ele><time>2026-04-26T06:54:36Z</time></trkpt><trkpt lat="44.07048840523454" lon="10.923050464549629"><ele>591.0</ele><time>2026-04-26T06:54:37Z</time></trkpt><trkpt lat="44.07065839128764" lon="10.923151321620194"><ele>591.0</ele><time>2026-04-26T06:54:38Z</time></trkpt><trkpt lat="44.07082641906301" lon="10.923251525190636"><ele>591.0</ele><time>2026-04-26T06:54:39Z</time></trkpt><trkpt lat="44.07099991420046" lon="10.923355488248417"><ele>594.3333333333334</ele><time>2026-04-26T06:54:40Z</time></trkpt><trkpt lat="44.07117678767999" lon="10.923463304981636"><ele>597.6666666666667</ele><time>2026-04-26T06:54:41Z</time></trkpt><trkpt lat="44.07134117448443" lon="10.923559931028466"><ele>601.0</ele><time>2026-04-26T06:54:42Z</time></trkpt><trkpt lat="44.07151517638312" lon="10.923662449552868"><ele>594.3333333333334</ele><time>2026-04-26T06:54:43Z</time></trkpt><trkpt lat="44.071685988403885" lon="10.923764340788031"><ele>587.6666666666666</ele><time>2026-04-26T06:54:44Z</time></trkpt><trkpt lat="44.07184875603886" lon="10.923868388410023"><ele>581.0</ele><time>2026-04-26T06:54:45Z</time></trkpt><trkpt lat="44.072010056682934" lon="10.923985805534475"><ele>581.0</ele><time>2026-04-26T06:54:46Z</time></trkpt><trkpt lat="44.07216511168587" lon="10.924124636988985"><ele>581.0</ele><time>2026-04-26T06:54:47Z</time></trkpt><trkpt lat="44.072322722613535" lon="10.9242784458832"><ele>581.0</ele><time>2026-04-26T06:54:48Z</time></trkpt><trkpt lat="44.072469529667565" lon="10.924423638553431"><ele>580.25</ele><time>2026-04-26T06:54:49Z</time></trkpt><trkpt lat="44.07259471134401" lon="10.924553049475952"><ele>579.5</ele><time>2026-04-26T06:54:50Z</time></trkpt><trkpt lat="44.072720762832624" lon="10.924687264447213"><ele>578.75</ele><time>2026-04-26T06:54:51Z</time></trkpt><trkpt lat="44.07281599866221" lon="10.924794596425668"><ele>578.0</ele><time>2026-04-26T06:54:52Z</time></trkpt><trkpt lat="44.07292331353055" lon="10.924922787362012"><ele>578.0</ele><time>2026-04-26T06:54:53Z</time></trkpt><trkpt lat="44.073026244773665" lon="10.92504168377499"><ele>578.0</ele><time>2026-04-26T06:54:54Z</time></trkpt><trkpt lat="44.0731391486935" lon="10.925153145849373"><ele>578.0</ele><time>2026-04-26T06:54:55Z</time></trkpt><trkpt lat="44.07323064496923" lon="10.925221133379475"><ele>578.0</ele><time>2026-04-26T06:54:56Z</time></trkpt><trkpt lat="44.07330030926215" lon="10.925315412680417"><ele>577.6</ele><time>2026-04-26T06:54:57Z</time></trkpt><trkpt lat="44.073346094818994" lon="10.925406037467425"><ele>577.1999999999999</ele><time>2026-04-26T06:54:58Z</time></trkpt><trkpt lat="44.07344839407193" lon="10.925493355249435"><ele>576.8</ele><time>2026-04-26T06:54:59Z</time></trkpt><trkpt lat="44.07356420147374" lon="10.925521980716152"><ele>576.4</ele><time>2026-04-26T06:55:00Z</time></trkpt><trkpt lat="44.07368796829956" lon="10.925494488925349"><ele>576.0</ele><time>2026-04-26T06:55:01Z</time></trkpt><trkpt lat="44.073804142937135" lon="10.92546818518221"><ele>576.0</ele><time>2026-04-26T06:55:02Z</time></trkpt><trkpt lat="44.07391479890835" lon="10.9255098360393"><ele>576.0</ele><time>2026-04-26T06:55:03Z</time></trkpt><trkpt lat="44.074063309052654" lon="10.92552974168088"><ele>576.0</ele><time>2026-04-26T06:55:04Z</time></trkpt><trkpt lat="44.07420591588629" lon="10.925540512546865"><ele>576.0</ele><time>2026-04-26T06:55:05Z</time></trkpt><trkpt lat="44.07435452776028" lon="10.925558290734452"><ele>576.25</ele><time>2026-04-26T06:55:06Z</time></trkpt><trkpt lat="44.074509280218805" lon="10.92556672812474"><ele>576.5</ele><time>2026-04-26T06:55:07Z</time></trkpt><trkpt lat="44.074629105256236" lon="10.92554479216459"><ele>576.75</ele><time>2026-04-26T06:55:08Z</time></trkpt><trkpt lat="44.07472948819919" lon="10.925571508650627"><ele>577.0</ele><time>2026-04-26T06:55:09Z</time></trkpt><trkpt lat="44.074818277972696" lon="10.925648420863377"><ele>577.0</ele><time>2026-04-26T06:55:10Z</time></trkpt><trkpt lat="44.07492797050819" lon="10.925699811359019"><ele>577.0</ele><time>2026-04-26T06:55:11Z</time></trkpt><trkpt lat="44.07504353222304" lon="10.925716798177726"><ele>577.0</ele><time>2026-04-26T06:55:12Z</time></trkpt><trkpt lat="44.075172637517966" lon="10.925705048452295"><ele>577.0</ele><time>2026-04-26T06:55:13Z</time></trkpt><trkpt lat="44.07529893649363" lon="10.92567082974783"><ele>576.5</ele><time>2026-04-26T06:55:14Z</time></trkpt><trkpt lat="44.07539614067233" lon="10.92565544239781"><ele>576.0</ele><time>2026-04-26T06:55:15Z</time></trkpt><trkpt lat="44.075482006803014" lon="10.92572485827567"><ele>575.5</ele><time>2026-04-26T06:55:16Z</time></trkpt><trkpt lat="44.07556997835806" lon="10.92584813986847"><ele>575.0</ele><time>2026-04-26T06:55:17Z</time></trkpt><trkpt lat="44.075699925954076" lon="10.925934849722314"><ele>575.4</ele><time>2026-04-26T06:55:18Z</time></trkpt><trkpt lat="44.075841121912504" lon="10.925990232019263"><ele>575.8</ele><time>2026-04-26T06:55:19Z</time></trkpt><trkpt lat="44.075960562880084" lon="10.926032010231324"><ele>576.2</ele><time>2026-04-26T06:55:20Z</time></trkpt><trkpt lat="44.076038557340155" lon="10.92606896857404"><ele>576.6</ele><time>2026-04-26T06:55:21Z</time></trkpt><trkpt lat="44.076096921820735" lon="10.926131065947226"><ele>577.0</ele><time>2026-04-26T06:55:22Z</time></trkpt><trkpt lat="44.07613188895481" lon="10.926248109748586"><ele>577.0</ele><time>2026-04-26T06:55:23Z</time></trkpt><trkpt lat="44.076168550214035" lon="10.926398071999348"><ele>577.0</ele><time>2026-04-26T06:55:24Z</time></trkpt><trkpt lat="44.07625814189503" lon="10.926526509968541"><ele>577.0</ele><time>2026-04-26T06:55:25Z</time></trkpt><trkpt lat="44.0763318352144" lon="10.926646302265567"><ele>577.0</ele><time>2026-04-26T06:55:26Z</time></trkpt><trkpt lat="44.07640951632301" lon="10.926709316627518"><ele>577.0</ele><time>2026-04-26T06:55:27Z</time></trkpt><trkpt lat="44.076472592767914" lon="10.926781595562913"><ele>578.0</ele><time>2026-04-26T06:55:28Z</time></trkpt><trkpt lat="44.0765664277349" lon="10.926788192144546"><ele>579.0</ele><time>2026-04-26T06:55:29Z</time></trkpt><trkpt lat="44.07667899634946" lon="10.926745090188959"><ele>580.0</ele><time>2026-04-26T06:55:30Z</time></trkpt><trkpt lat="44.07676452023039" lon="10.926775157303753"><ele>581.0</ele><time>2026-04-26T06:55:31Z</time></trkpt><trkpt lat="44.07685978981636" lon="10.926815891517936"><ele>582.0</ele><time>2026-04-26T06:55:32Z</time></trkpt><trkpt lat="44.07697733679511" lon="10.926793580437232"><ele>582.0</ele><time>2026-04-26T06:55:33Z</time></trkpt><trkpt lat="44.07708822104963" lon="10.926749463929173"><ele>582.0</ele><time>2026-04-26T06:55:34Z</time></trkpt><trkpt lat="44.077183161046975" lon="10.9267084195101"><ele>582.0</ele><time>2026-04-26T06:55:35Z</time></trkpt><trkpt lat="44.07726154837594" lon="10.926674810698753"><ele>582.0</ele><time>2026-04-26T06:55:36Z</time></trkpt><trkpt lat="44.0773870646703" lon="10.926675193670754"><ele>582.0</ele><time>2026-04-26T06:55:38Z</time></trkpt><trkpt lat="44.07744123024824" lon="10.92676359892478"><ele>582.0</ele><time>2026-04-26T06:55:39Z</time></trkpt><trkpt lat="44.07747040533736" lon="10.926851510344921"><ele>582.0</ele><time>2026-04-26T06:55:40Z</time></trkpt><trkpt lat="44.07747793209954" lon="10.92695505343275"><ele>582.0</ele><time>2026-04-26T06:55:41Z</time></trkpt><trkpt lat="44.077437340375674" lon="10.927078102024284"><ele>582.0</ele><time>2026-04-26T06:55:42Z</time></trkpt><trkpt lat="44.077356785340704" lon="10.927182305145083"><ele>582.0</ele><time>2026-04-26T06:55:43Z</time></trkpt><trkpt lat="44.077243920663335" lon="10.927276215129998"><ele>582.0</ele><time>2026-04-26T06:55:44Z</time></trkpt><trkpt lat="44.0771148372756" lon="10.927345061326005"><ele>582.0</ele><time>2026-04-26T06:55:45Z</time></trkpt><trkpt lat="44.076980207421094" lon="10.927408324597085"><ele>582.0</ele><time>2026-04-26T06:55:46Z</time></trkpt><trkpt lat="44.07687647325178" lon="10.927463250041718"><ele>582.0</ele><time>2026-04-26T06:55:47Z</time></trkpt><trkpt lat="44.076795169080306" lon="10.927533077459428"><ele>582.8000000000001</ele><time>2026-04-26T06:55:48Z</time></trkpt><trkpt lat="44.07673335828645" lon="10.927634709470082"><ele>583.6</ele><time>2026-04-26T06:55:49Z</time></trkpt><trkpt lat="44.07668170313291" lon="10.927743808148543"><ele>584.4000000000001</ele><time>2026-04-26T06:55:50Z</time></trkpt><trkpt lat="44.076673802183166" lon="10.92790214840059"><ele>585.2</ele><time>2026-04-26T06:55:51Z</time></trkpt><trkpt lat="44.076681433754636" lon="10.92807131794696"><ele>586.0</ele><time>2026-04-26T06:55:52Z</time></trkpt><trkpt lat="44.07668562286336" lon="10.928266196377963"><ele>586.0</ele><time>2026-04-26T06:55:53Z</time></trkpt><trkpt lat="44.07671342801113" lon="10.928482019754851"><ele>586.0</ele><time>2026-04-26T06:55:54Z</time></trkpt><trkpt lat="44.076758766212" lon="10.928692609971462"><ele>586.0</ele><time>2026-04-26T06:55:55Z</time></trkpt><trkpt lat="44.07680376680618" lon="10.928931574982686"><ele>586.0</ele><time>2026-04-26T06:55:56Z</time></trkpt><trkpt lat="44.07678918821963" lon="10.929174949992507"><ele>586.0</ele><time>2026-04-26T06:55:57Z</time></trkpt><trkpt lat="44.076785750347874" lon="10.929415262748206"><ele>586.0</ele><time>2026-04-26T06:55:58Z</time></trkpt><trkpt lat="44.0767904374572" lon="10.929656784093833"><ele>585.3333333333334</ele><time>2026-04-26T06:55:59Z</time></trkpt><trkpt lat="44.076796296371135" lon="10.929898142049844"><ele>584.6666666666666</ele><time>2026-04-26T06:56:00Z</time></trkpt><trkpt lat="44.07680232324589" lon="10.930125171922338"><ele>584.0</ele><time>2026-04-26T06:56:01Z</time></trkpt><trkpt lat="44.076806430207476" lon="10.930337728413303"><ele>582.3333333333333</ele><time>2026-04-26T06:56:02Z</time></trkpt><trkpt lat="44.07681292177714" lon="10.930544760485255"><ele>580.6666666666666</ele><time>2026-04-26T06:56:03Z</time></trkpt><trkpt lat="44.076840199129194" lon="10.9307443389782"><ele>579.0</ele><time>2026-04-26T06:56:04Z</time></trkpt><trkpt lat="44.076900201327135" lon="10.930943287766182"><ele>575.3333333333334</ele><time>2026-04-26T06:56:05Z</time></trkpt><trkpt lat="44.07696153363577" lon="10.931131975009013"><ele>571.6666666666667</ele><time>2026-04-26T06:56:06Z</time></trkpt><trkpt lat="44.07699305182046" lon="10.931344658605143"><ele>568.0</ele><time>2026-04-26T06:56:07Z</time></trkpt><trkpt lat="44.0770390350144" lon="10.93153630900711"><ele>568.0</ele><time>2026-04-26T06:56:08Z</time></trkpt><trkpt lat="44.077104246786924" lon="10.931703909183843"><ele>568.0</ele><time>2026-04-26T06:56:09Z</time></trkpt><trkpt lat="44.07716554449418" lon="10.931845240226858"><ele>568.0</ele><time>2026-04-26T06:56:10Z</time></trkpt><trkpt lat="44.07723463054934" lon="10.931964246404942"><ele>568.0</ele><time>2026-04-26T06:56:11Z</time></trkpt><trkpt lat="44.077318980281696" lon="10.932060292188162"><ele>569.0</ele><time>2026-04-26T06:56:12Z</time></trkpt><trkpt lat="44.077435005485505" lon="10.932106036680471"><ele>570.0</ele><time>2026-04-26T06:56:13Z</time></trkpt><trkpt lat="44.07755156776694" lon="10.932180811652586"><ele>571.0</ele><time>2026-04-26T06:56:14Z</time></trkpt><trkpt lat="44.077651641753505" lon="10.932267209464138"><ele>572.0</ele><time>2026-04-26T06:56:15Z</time></trkpt><trkpt lat="44.077713991371404" lon="10.932377001149158"><ele>572.8000000000001</ele><time>2026-04-26T06:56:16Z</time></trkpt><trkpt lat="44.07776119311457" lon="10.932514544138842"><ele>573.6</ele><time>2026-04-26T06:56:17Z</time></trkpt><trkpt lat="44.07783873880084" lon="10.932637158905754"><ele>574.4000000000001</ele><time>2026-04-26T06:56:18Z</time></trkpt><trkpt lat="44.07793477484319" lon="10.932697668619111"><ele>575.2</ele><time>2026-04-26T06:56:19Z</time></trkpt><trkpt lat="44.07802334406284" lon="10.932801217974601"><ele>576.0</ele><time>2026-04-26T06:56:20Z</time></trkpt><trkpt lat="44.07810175544468" lon="10.932961209026052"><ele>575.75</ele><time>2026-04-26T06:56:21Z</time></trkpt><trkpt lat="44.07815585197166" lon="10.933145378990467"><ele>575.5</ele><time>2026-04-26T06:56:22Z</time></trkpt><trkpt lat="44.078203995406334" lon="10.933330506465467"><ele>575.25</ele><time>2026-04-26T06:56:23Z</time></trkpt><trkpt lat="44.078246272889444" lon="10.933536452604597"><ele>575.0</ele><time>2026-04-26T06:56:24Z</time></trkpt><trkpt lat="44.078284621907606" lon="10.933744140081314"><ele>574.3333333333333</ele><time>2026-04-26T06:56:25Z</time></trkpt><trkpt lat="44.07831684436998" lon="10.933959557020787"><ele>573.6666666666666</ele><time>2026-04-26T06:56:26Z</time></trkpt><trkpt lat="44.07835569882612" lon="10.934156482977734"><ele>573.0</ele><time>2026-04-26T06:56:27Z</time></trkpt><trkpt lat="44.07841240967053" lon="10.934366658957007"><ele>569.0</ele><time>2026-04-26T06:56:28Z</time></trkpt><trkpt lat="44.07850434081436" lon="10.934602015795397"><ele>565.0</ele><time>2026-04-26T06:56:29Z</time></trkpt><trkpt lat="44.07858047802824" lon="10.934828970815635"><ele>561.0</ele><time>2026-04-26T06:56:30Z</time></trkpt><trkpt lat="44.07864512908332" lon="10.935011485588989"><ele>559.5</ele><time>2026-04-26T06:56:31Z</time></trkpt><trkpt lat="44.07870655980413" lon="10.935176676595038"><ele>558.0</ele><time>2026-04-26T06:56:32Z</time></trkpt><trkpt lat="44.07876367087365" lon="10.935322135887203"><ele>556.5</ele><time>2026-04-26T06:56:33Z</time></trkpt><trkpt lat="44.078831878412345" lon="10.935458097944812"><ele>555.0</ele><time>2026-04-26T06:56:34Z</time></trkpt><trkpt lat="44.078899169948166" lon="10.935543839834851"><ele>555.0</ele><time>2026-04-26T06:56:35Z</time></trkpt><trkpt lat="44.07897801354293" lon="10.935592778732534"><ele>555.0</ele><time>2026-04-26T06:56:36Z</time></trkpt><trkpt lat="44.07907529133313" lon="10.935602859176754"><ele>555.0</ele><time>2026-04-26T06:56:37Z</time></trkpt><trkpt lat="44.07920204526918" lon="10.93555563961515"><ele>555.0</ele><time>2026-04-26T06:56:38Z</time></trkpt><trkpt lat="44.07931171315859" lon="10.935487620635383"><ele>555.0</ele><time>2026-04-26T06:56:39Z</time></trkpt><trkpt lat="44.079397160165804" lon="10.935433362431018"><ele>555.4</ele><time>2026-04-26T06:56:40Z</time></trkpt><trkpt lat="44.079488602483586" lon="10.935459498877925"><ele>555.8</ele><time>2026-04-26T06:56:41Z</time></trkpt><trkpt lat="44.079563971858924" lon="10.9355415233359"><ele>556.2</ele><time>2026-04-26T06:56:42Z</time></trkpt><trkpt lat="44.07962340556513" lon="10.93565703020409"><ele>556.6</ele><time>2026-04-26T06:56:43Z</time></trkpt><trkpt lat="44.07964732688413" lon="10.935770702121479"><ele>557.0</ele><time>2026-04-26T06:56:44Z</time></trkpt><trkpt lat="44.079649734314266" lon="10.935916873972195"><ele>557.0</ele><time>2026-04-26T06:56:45Z</time></trkpt><trkpt lat="44.07958754357841" lon="10.93603405912761"><ele>557.0</ele><time>2026-04-26T06:56:46Z</time></trkpt><trkpt lat="44.079528761257386" lon="10.93616451658103"><ele>557.0</ele><time>2026-04-26T06:56:47Z</time></trkpt><trkpt lat="44.079480414123786" lon="10.936291347802847"><ele>557.0</ele><time>2026-04-26T06:56:48Z</time></trkpt><trkpt lat="44.07944423461208" lon="10.936405779877324"><ele>557.0</ele><time>2026-04-26T06:56:49Z</time></trkpt><trkpt lat="44.07944212812893" lon="10.93652526119556"><ele>557.0</ele><time>2026-04-26T06:56:50Z</time></trkpt><trkpt lat="44.07945816376243" lon="10.936639775497827"><ele>557.0</ele><time>2026-04-26T06:56:51Z</time></trkpt><trkpt lat="44.07950789588951" lon="10.936766992853146"><ele>557.0</ele><time>2026-04-26T06:56:52Z</time></trkpt><trkpt lat="44.0795898614457" lon="10.936895933978562"><ele>557.0</ele><time>2026-04-26T06:56:53Z</time></trkpt><trkpt lat="44.07966580233765" lon="10.937020317099234"><ele>557.0</ele><time>2026-04-26T06:56:54Z</time></trkpt><trkpt lat="44.07974081800624" lon="10.937163611402209"><ele>556.3333333333333</ele><time>2026-04-26T06:56:55Z</time></trkpt><trkpt lat="44.07982342332155" lon="10.9373450309939"><ele>555.6666666666666</ele><time>2026-04-26T06:56:56Z</time></trkpt><trkpt lat="44.07991851643156" lon="10.937536342575026"><ele>555.0</ele><time>2026-04-26T06:56:57Z</time></trkpt><trkpt lat="44.08002129662705" lon="10.937703415605935"><ele>555.0</ele><time>2026-04-26T06:56:58Z</time></trkpt><trkpt lat="44.08009864612226" lon="10.93783912715898"><ele>555.0</ele><time>2026-04-26T06:56:59Z</time></trkpt><trkpt lat="44.080188808942005" lon="10.937949373913508"><ele>555.0</ele><time>2026-04-26T06:57:00Z</time></trkpt><trkpt lat="44.080261337313125" lon="10.938071671632416"><ele>555.0</ele><time>2026-04-26T06:57:01Z</time></trkpt><trkpt lat="44.08035149919721" lon="10.938134293992544"><ele>555.0</ele><time>2026-04-26T06:57:02Z</time></trkpt><trkpt lat="44.080437886612756" lon="10.93820486673348"><ele>555.0</ele><time>2026-04-26T06:57:03Z</time></trkpt><trkpt lat="44.080502393929" lon="10.938301847017025"><ele>555.0</ele><time>2026-04-26T06:57:04Z</time></trkpt><trkpt lat="44.08052848857209" lon="10.938443496528144"><ele>555.0</ele><time>2026-04-26T06:57:05Z</time></trkpt><trkpt lat="44.08054627386166" lon="10.938606445141145"><ele>555.0</ele><time>2026-04-26T06:57:06Z</time></trkpt><trkpt lat="44.0805646329652" lon="10.93877531006614"><ele>553.6</ele><time>2026-04-26T06:57:07Z</time></trkpt><trkpt lat="44.08058035747923" lon="10.938914410436306"><ele>552.2</ele><time>2026-04-26T06:57:08Z</time></trkpt><trkpt lat="44.08058942883704" lon="10.939044866774351"><ele>550.8</ele><time>2026-04-26T06:57:09Z</time></trkpt><trkpt lat="44.08060022661995" lon="10.939183081086089"><ele>549.4</ele><time>2026-04-26T06:57:10Z</time></trkpt><trkpt lat="44.08054306551071" lon="10.939306707952019"><ele>548.0</ele><time>2026-04-26T06:57:11Z</time></trkpt><trkpt lat="44.080515299669365" lon="10.939419780516763"><ele>548.0</ele><time>2026-04-26T06:57:12Z</time></trkpt><trkpt lat="44.080516324156264" lon="10.939549408980465"><ele>548.0</ele><time>2026-04-26T06:57:13Z</time></trkpt><trkpt lat="44.080546038557074" lon="10.93970813302391"><ele>548.0</ele><time>2026-04-26T06:57:14Z</time></trkpt><trkpt lat="44.08057805509095" lon="10.939915702611303"><ele>548.0</ele><time>2026-04-26T06:57:15Z</time></trkpt><trkpt lat="44.0806052182282" lon="10.9401077302041"><ele>548.0</ele><time>2026-04-26T06:57:16Z</time></trkpt><trkpt lat="44.08062177489678" lon="10.9402903795508"><ele>548.0</ele><time>2026-04-26T06:57:17Z</time></trkpt><trkpt lat="44.080621340247674" lon="10.940486184130673"><ele>548.0</ele><time>2026-04-26T06:57:18Z</time></trkpt><trkpt lat="44.08060841266565" lon="10.940689776294864"><ele>548.0</ele><time>2026-04-26T06:57:19Z</time></trkpt><trkpt lat="44.08059392947858" lon="10.940903546148677"><ele>547.6</ele><time>2026-04-26T06:57:20Z</time></trkpt><trkpt lat="44.08058062718909" lon="10.941089065198929"><ele>547.1999999999999</ele><time>2026-04-26T06:57:21Z</time></trkpt><trkpt lat="44.08056752496737" lon="10.941239212936608"><ele>546.8</ele><time>2026-04-26T06:57:22Z</time></trkpt><trkpt lat="44.08055360703645" lon="10.941385731552462"><ele>546.4</ele><time>2026-04-26T06:57:23Z</time></trkpt><trkpt lat="44.080558442873325" lon="10.94152004728071"><ele>546.0</ele><time>2026-04-26T06:57:24Z</time></trkpt><trkpt lat="44.08061412789171" lon="10.941670090829216"><ele>547.0</ele><time>2026-04-26T06:57:25Z</time></trkpt><trkpt lat="44.080677176716584" lon="10.941850572037353"><ele>548.0</ele><time>2026-04-26T06:57:26Z</time></trkpt><trkpt lat="44.080741072459496" lon="10.942039615064887"><ele>549.0</ele><time>2026-04-26T06:57:27Z</time></trkpt><trkpt lat="44.08080481989692" lon="10.942189471739775"><ele>550.0</ele><time>2026-04-26T06:57:28Z</time></trkpt><trkpt lat="44.080887770284775" lon="10.942335899725872"><ele>551.0</ele><time>2026-04-26T06:57:29Z</time></trkpt><trkpt lat="44.08099448488941" lon="10.94248211522337"><ele>552.0</ele><time>2026-04-26T06:57:30Z</time></trkpt><trkpt lat="44.081102579786545" lon="10.942618346130894"><ele>553.0</ele><time>2026-04-26T06:57:31Z</time></trkpt><trkpt lat="44.0812264593311" lon="10.942746593721907"><ele>552.0</ele><time>2026-04-26T06:57:32Z</time></trkpt><trkpt lat="44.081340497664335" lon="10.942856500090977"><ele>551.0</ele><time>2026-04-26T06:57:33Z</time></trkpt><trkpt lat="44.08145813350129" lon="10.942972843404313"><ele>550.0</ele><time>2026-04-26T06:57:34Z</time></trkpt><trkpt lat="44.08154642375676" lon="10.94304892794678"><ele>549.0</ele><time>2026-04-26T06:57:35Z</time></trkpt><trkpt lat="44.081642359395616" lon="10.943116929849452"><ele>549.0</ele><time>2026-04-26T06:57:36Z</time></trkpt><trkpt lat="44.08173765959721" lon="10.943157706367542"><ele>549.0</ele><time>2026-04-26T06:57:37Z</time></trkpt><trkpt lat="44.08182843731599" lon="10.943142390307036"><ele>549.0</ele><time>2026-04-26T06:57:38Z</time></trkpt><trkpt lat="44.081930276981836" lon="10.943091933936405"><ele>549.0</ele><time>2026-04-26T06:57:39Z</time></trkpt><trkpt lat="44.082019636075316" lon="10.943083071805473"><ele>549.0</ele><time>2026-04-26T06:57:40Z</time></trkpt><trkpt lat="44.082091146206174" lon="10.943122999804029"><ele>549.0</ele><time>2026-04-26T06:57:41Z</time></trkpt><trkpt lat="44.082143947368515" lon="10.943224951318195"><ele>549.0</ele><time>2026-04-26T06:57:42Z</time></trkpt><trkpt lat="44.08220561064562" lon="10.943328206813048"><ele>549.0</ele><time>2026-04-26T06:57:43Z</time></trkpt><trkpt lat="44.08231038226328" lon="10.943428734355807"><ele>549.0</ele><time>2026-04-26T06:57:44Z</time></trkpt><trkpt lat="44.08243162258254" lon="10.943511138444457"><ele>549.0</ele><time>2026-04-26T06:57:45Z</time></trkpt><trkpt lat="44.08257189604439" lon="10.943602847811094"><ele>545.0</ele><time>2026-04-26T06:57:46Z</time></trkpt><trkpt lat="44.08271892269578" lon="10.943688134791168"><ele>541.0</ele><time>2026-04-26T06:57:47Z</time></trkpt><trkpt lat="44.082868224865834" lon="10.94376578056184"><ele>537.0</ele><time>2026-04-26T06:57:48Z</time></trkpt><trkpt lat="44.08300724042215" lon="10.943837822430304"><ele>537.0</ele><time>2026-04-26T06:57:49Z</time></trkpt><trkpt lat="44.08313370166658" lon="10.943878127390535"><ele>537.0</ele><time>2026-04-26T06:57:50Z</time></trkpt><trkpt lat="44.08325247579533" lon="10.94390965197323"><ele>537.0</ele><time>2026-04-26T06:57:51Z</time></trkpt><trkpt lat="44.08337541906507" lon="10.943967864632603"><ele>537.0</ele><time>2026-04-26T06:57:52Z</time></trkpt><trkpt lat="44.08347355470087" lon="10.944036795854002"><ele>536.5</ele><time>2026-04-26T06:57:53Z</time></trkpt><trkpt lat="44.08357163068129" lon="10.94413242238535"><ele>536.0</ele><time>2026-04-26T06:57:54Z</time></trkpt><trkpt lat="44.08365645106839" lon="10.944248176903702"><ele>535.5</ele><time>2026-04-26T06:57:55Z</time></trkpt><trkpt lat="44.08374897262768" lon="10.944375077120714"><ele>535.0</ele><time>2026-04-26T06:57:56Z</time></trkpt><trkpt lat="44.08385148311215" lon="10.944531154765023"><ele>535.0</ele><time>2026-04-26T06:57:57Z</time></trkpt><trkpt lat="44.083956836479096" lon="10.94467503043047"><ele>535.0</ele><time>2026-04-26T06:57:58Z</time></trkpt><trkpt lat="44.08406763588693" lon="10.944828833448582"><ele>535.0</ele><time>2026-04-26T06:57:59Z</time></trkpt><trkpt lat="44.084174469114494" lon="10.94497716540543"><ele>535.25</ele><time>2026-04-26T06:58:00Z</time></trkpt><trkpt lat="44.084267579227834" lon="10.945112169072575"><ele>535.5</ele><time>2026-04-26T06:58:01Z</time></trkpt><trkpt lat="44.08435349038747" lon="10.945238501387278"><ele>535.75</ele><time>2026-04-26T06:58:02Z</time></trkpt><trkpt lat="44.08442327471931" lon="10.945359650441988"><ele>536.0</ele><time>2026-04-26T06:58:03Z</time></trkpt><trkpt lat="44.08447666049064" lon="10.94552844984389"><ele>536.0</ele><time>2026-04-26T06:58:04Z</time></trkpt><trkpt lat="44.08451421021215" lon="10.945706388292939"><ele>536.0</ele><time>2026-04-26T06:58:05Z</time></trkpt><trkpt lat="44.084545653690945" lon="10.945863042983339"><ele>536.0</ele><time>2026-04-26T06:58:06Z</time></trkpt><trkpt lat="44.08456846265988" lon="10.94601639887599"><ele>536.0</ele><time>2026-04-26T06:58:07Z</time></trkpt><trkpt lat="44.08458806435672" lon="10.946122330648844"><ele>536.0</ele><time>2026-04-26T06:58:08Z</time></trkpt><trkpt lat="44.08463508516244" lon="10.946218671959953"><ele>536.0</ele><time>2026-04-26T06:58:09Z</time></trkpt><trkpt lat="44.084693712926665" lon="10.946291660296875"><ele>536.0</ele><time>2026-04-26T06:58:10Z</time></trkpt><trkpt lat="44.08476259555987" lon="10.946400148792263"><ele>536.0</ele><time>2026-04-26T06:58:11Z</time></trkpt><trkpt lat="44.08479993723858" lon="10.946501184733721"><ele>536.0</ele><time>2026-04-26T06:58:12Z</time></trkpt><trkpt lat="44.08481630447783" lon="10.946654076515737"><ele>536.0</ele><time>2026-04-26T06:58:13Z</time></trkpt><trkpt lat="44.084838425593446" lon="10.946811121786462"><ele>535.75</ele><time>2026-04-26T06:58:14Z</time></trkpt><trkpt lat="44.08489213381249" lon="10.946965497405142"><ele>535.5</ele><time>2026-04-26T06:58:15Z</time></trkpt><trkpt lat="44.08496521180941" lon="10.94710335446056"><ele>535.25</ele><time>2026-04-26T06:58:16Z</time></trkpt><trkpt lat="44.085063912168614" lon="10.947238214110381"><ele>535.0</ele><time>2026-04-26T06:58:17Z</time></trkpt><trkpt lat="44.08517103733192" lon="10.94737690667858"><ele>535.0</ele><time>2026-04-26T06:58:18Z</time></trkpt><trkpt lat="44.085278484724675" lon="10.947488398746971"><ele>535.0</ele><time>2026-04-26T06:58:19Z</time></trkpt><trkpt lat="44.08536468270351" lon="10.947608186379231"><ele>535.0</ele><time>2026-04-26T06:58:20Z</time></trkpt><trkpt lat="44.0854659582494" lon="10.947681617215492"><ele>535.0</ele><time>2026-04-26T06:58:21Z</time></trkpt><trkpt lat="44.08558078360467" lon="10.94769419665987"><ele>534.5</ele><time>2026-04-26T06:58:22Z</time></trkpt><trkpt lat="44.085709569300626" lon="10.947701352188686"><ele>534.0</ele><time>2026-04-26T06:58:23Z</time></trkpt><trkpt lat="44.085850053139666" lon="10.947730570103692"><ele>533.5</ele><time>2026-04-26T06:58:24Z</time></trkpt><trkpt lat="44.08600298302264" lon="10.947712445667939"><ele>533.0</ele><time>2026-04-26T06:58:25Z</time></trkpt><trkpt lat="44.08613717297245" lon="10.947678832336088"><ele>532.6</ele><time>2026-04-26T06:58:26Z</time></trkpt><trkpt lat="44.0862432624288" lon="10.947630303344448"><ele>532.1999999999999</ele><time>2026-04-26T06:58:27Z</time></trkpt><trkpt lat="44.08634276439798" lon="10.947618260399265"><ele>531.8</ele><time>2026-04-26T06:58:28Z</time></trkpt><trkpt lat="44.08644099108188" lon="10.947653767674792"><ele>531.4</ele><time>2026-04-26T06:58:29Z</time></trkpt><trkpt lat="44.08654948813558" lon="10.947755874231676"><ele>531.0</ele><time>2026-04-26T06:58:30Z</time></trkpt><trkpt lat="44.08665776633142" lon="10.947879051347723"><ele>531.0</ele><time>2026-04-26T06:58:31Z</time></trkpt><trkpt lat="44.08677434625218" lon="10.9479624736979"><ele>531.0</ele><time>2026-04-26T06:58:32Z</time></trkpt><trkpt lat="44.08687671330219" lon="10.94802243405767"><ele>531.0</ele><time>2026-04-26T06:58:33Z</time></trkpt><trkpt lat="44.086961659001176" lon="10.948083536915759"><ele>531.0</ele><time>2026-04-26T06:58:34Z</time></trkpt><trkpt lat="44.08702594955404" lon="10.948143802064628"><ele>531.0</ele><time>2026-04-26T06:58:35Z</time></trkpt><trkpt lat="44.08708863916809" lon="10.948233115582441"><ele>531.0</ele><time>2026-04-26T06:58:36Z</time></trkpt><trkpt lat="44.08713008210703" lon="10.948354838893982"><ele>531.0</ele><time>2026-04-26T06:58:37Z</time></trkpt><trkpt lat="44.08717483103975" lon="10.94852093696985"><ele>531.0</ele><time>2026-04-26T06:58:38Z</time></trkpt><trkpt lat="44.08725421080792" lon="10.948661532193487"><ele>531.0</ele><time>2026-04-26T06:58:39Z</time></trkpt><trkpt lat="44.087307750157535" lon="10.948800447210854"><ele>530.0</ele><time>2026-04-26T06:58:40Z</time></trkpt><trkpt lat="44.08734752427099" lon="10.94895012353107"><ele>529.0</ele><time>2026-04-26T06:58:41Z</time></trkpt><trkpt lat="44.08735951325768" lon="10.949097045644828"><ele>528.0</ele><time>2026-04-26T06:58:42Z</time></trkpt><trkpt lat="44.08734189810014" lon="10.949253458243806"><ele>527.0</ele><time>2026-04-26T06:58:43Z</time></trkpt><trkpt lat="44.08731308125937" lon="10.949388735617605"><ele>526.0</ele><time>2026-04-26T06:58:44Z</time></trkpt><trkpt lat="44.08733947169584" lon="10.949537212088035"><ele>525.2</ele><time>2026-04-26T06:58:45Z</time></trkpt><trkpt lat="44.08733899314992" lon="10.949647285434466"><ele>524.4000000000001</ele><time>2026-04-26T06:58:46Z</time></trkpt><trkpt lat="44.08737809589018" lon="10.94973611043482"><ele>523.6</ele><time>2026-04-26T06:58:47Z</time></trkpt><trkpt lat="44.087449876987435" lon="10.949789728844053"><ele>522.8000000000001</ele><time>2026-04-26T06:58:48Z</time></trkpt><trkpt lat="44.08754307734712" lon="10.94983222463027"><ele>522.0</ele><time>2026-04-26T06:58:49Z</time></trkpt><trkpt lat="44.08766140821622" lon="10.949873154638988"><ele>522.0</ele><time>2026-04-26T06:58:50Z</time></trkpt><trkpt lat="44.08781671760065" lon="10.949898183329315"><ele>522.0</ele><time>2026-04-26T06:58:51Z</time></trkpt><trkpt lat="44.08797533342619" lon="10.949905805468958"><ele>522.0</ele><time>2026-04-26T06:58:52Z</time></trkpt><trkpt lat="44.08811617052268" lon="10.949915600237288"><ele>522.0</ele><time>2026-04-26T06:58:53Z</time></trkpt><trkpt lat="44.088232745270474" lon="10.949976145319221"><ele>522.0</ele><time>2026-04-26T06:58:54Z</time></trkpt><trkpt lat="44.088354490541256" lon="10.950033808201745"><ele>522.0</ele><time>2026-04-26T06:58:55Z</time></trkpt><trkpt lat="44.088439870694785" lon="10.95017328025875"><ele>522.0</ele><time>2026-04-26T06:58:56Z</time></trkpt><trkpt lat="44.088540722039426" lon="10.950224495457501"><ele>521.4</ele><time>2026-04-26T06:58:57Z</time></trkpt><trkpt lat="44.08864723762428" lon="10.950277949890259"><ele>520.8000000000001</ele><time>2026-04-26T06:58:58Z</time></trkpt><trkpt lat="44.08874374370581" lon="10.95034382345132"><ele>520.2</ele><time>2026-04-26T06:58:59Z</time></trkpt><trkpt lat="44.088806760112284" lon="10.950427857776665"><ele>519.6</ele><time>2026-04-26T06:59:00Z</time></trkpt><trkpt lat="44.0888530866529" lon="10.950516335542744"><ele>519.0</ele><time>2026-04-26T06:59:01Z</time></trkpt><trkpt lat="44.088938318811195" lon="10.95060022181154"><ele>519.0</ele><time>2026-04-26T06:59:02Z</time></trkpt><trkpt lat="44.08901993986356" lon="10.950586172813384"><ele>519.0</ele><time>2026-04-26T06:59:03Z</time></trkpt><trkpt lat="44.08911202978464" lon="10.950565414720945"><ele>519.0</ele><time>2026-04-26T06:59:04Z</time></trkpt><trkpt lat="44.0892041269316" lon="10.950543485176434"><ele>519.0</ele><time>2026-04-26T06:59:05Z</time></trkpt><trkpt lat="44.08932086246314" lon="10.950599821242292"><ele>519.0</ele><time>2026-04-26T06:59:06Z</time></trkpt><trkpt lat="44.089405653975525" lon="10.950719626931248"><ele>518.6</ele><time>2026-04-26T06:59:07Z</time></trkpt><trkpt lat="44.089464958049504" lon="10.950841404097202"><ele>518.2</ele><time>2026-04-26T06:59:08Z</time></trkpt><trkpt lat="44.08951429155843" lon="10.950948426327743"><ele>517.8000000000001</ele><time>2026-04-26T06:59:09Z</time></trkpt><trkpt lat="44.08954463178201" lon="10.951114749315149"><ele>517.4</ele><time>2026-04-26T06:59:11Z</time></trkpt><trkpt lat="44.089514614223674" lon="10.951196246625544"><ele>517.0</ele><time>2026-04-26T06:59:12Z</time></trkpt><trkpt lat="44.089454583418096" lon="10.951244580702943"><ele>517.0</ele><time>2026-04-26T06:59:13Z</time></trkpt><trkpt lat="44.08936628754423" lon="10.951254193493712"><ele>517.0</ele><time>2026-04-26T06:59:14Z</time></trkpt><trkpt lat="44.0892843419446" lon="10.951318213263283"><ele>517.0</ele><time>2026-04-26T06:59:15Z</time></trkpt><trkpt lat="44.08922312255314" lon="10.951424458775872"><ele>517.0</ele><time>2026-04-26T06:59:16Z</time></trkpt><trkpt lat="44.089201545077216" lon="10.951570249797701"><ele>517.0</ele><time>2026-04-26T06:59:17Z</time></trkpt><trkpt lat="44.08918031271946" lon="10.951781011718555"><ele>517.5</ele><time>2026-04-26T06:59:18Z</time></trkpt><trkpt lat="44.08916549811175" lon="10.951980419907022"><ele>518.0</ele><time>2026-04-26T06:59:19Z</time></trkpt><trkpt lat="44.089152819918084" lon="10.952186205757217"><ele>518.5</ele><time>2026-04-26T06:59:20Z</time></trkpt><trkpt lat="44.089151824010465" lon="10.952390380875029"><ele>519.0</ele><time>2026-04-26T06:59:21Z</time></trkpt><trkpt lat="44.08916785518408" lon="10.95261041537962"><ele>519.0</ele><time>2026-04-26T06:59:22Z</time></trkpt><trkpt lat="44.08917752042598" lon="10.95281254240674"><ele>519.0</ele><time>2026-04-26T06:59:23Z</time></trkpt><trkpt lat="44.089211533237616" lon="10.95302948552337"><ele>519.0</ele><time>2026-04-26T06:59:24Z</time></trkpt><trkpt lat="44.089260833037635" lon="10.953238258096759"><ele>518.3333333333334</ele><time>2026-04-26T06:59:25Z</time></trkpt><trkpt lat="44.089318886708305" lon="10.953430455796369"><ele>517.6666666666667</ele><time>2026-04-26T06:59:26Z</time></trkpt><trkpt lat="44.08939738705096" lon="10.953627919457336"><ele>517.0</ele><time>2026-04-26T06:59:27Z</time></trkpt><trkpt lat="44.08946984446019" lon="10.953813968085399"><ele>517.0</ele><time>2026-04-26T06:59:28Z</time></trkpt><trkpt lat="44.08953913928323" lon="10.953974916408903"><ele>517.0</ele><time>2026-04-26T06:59:29Z</time></trkpt><trkpt lat="44.08962370016725" lon="10.954107666732103"><ele>517.0</ele><time>2026-04-26T06:59:30Z</time></trkpt><trkpt lat="44.08973698105033" lon="10.954235196551963"><ele>517.0</ele><time>2026-04-26T06:59:31Z</time></trkpt><trkpt lat="44.08987151416802" lon="10.9543594321015"><ele>516.3333333333334</ele><time>2026-04-26T06:59:32Z</time></trkpt><trkpt lat="44.09000728007641" lon="10.954484344695667"><ele>515.6666666666666</ele><time>2026-04-26T06:59:33Z</time></trkpt><trkpt lat="44.0901470681604" lon="10.954615061502775"><ele>515.0</ele><time>2026-04-26T06:59:34Z</time></trkpt><trkpt lat="44.090278055603" lon="10.954736509930939"><ele>515.0</ele><time>2026-04-26T06:59:35Z</time></trkpt><trkpt lat="44.09042757394127" lon="10.954844279655989"><ele>515.0</ele><time>2026-04-26T06:59:36Z</time></trkpt><trkpt lat="44.090589038819566" lon="10.954937061775171"><ele>515.0</ele><time>2026-04-26T06:59:37Z</time></trkpt><trkpt lat="44.09075238940939" lon="10.955011168866108"><ele>518.6666666666666</ele><time>2026-04-26T06:59:38Z</time></trkpt><trkpt lat="44.090909405031056" lon="10.955085590380165"><ele>522.3333333333334</ele><time>2026-04-26T06:59:39Z</time></trkpt><trkpt lat="44.09106982194991" lon="10.955120110355544"><ele>526.0</ele><time>2026-04-26T06:59:40Z</time></trkpt><trkpt lat="44.091218040488144" lon="10.955162658705829"><ele>526.0</ele><time>2026-04-26T06:59:41Z</time></trkpt><trkpt lat="44.091356022495496" lon="10.955183452179838"><ele>526.0</ele><time>2026-04-26T06:59:42Z</time></trkpt><trkpt lat="44.09149772551692" lon="10.955199630218216"><ele>526.0</ele><time>2026-04-26T06:59:43Z</time></trkpt><trkpt lat="44.09161715821195" lon="10.95521056476319"><ele>526.0</ele><time>2026-04-26T06:59:44Z</time></trkpt><trkpt lat="44.091759795608525" lon="10.955220670890506"><ele>522.3333333333334</ele><time>2026-04-26T06:59:45Z</time></trkpt><trkpt lat="44.09191131835724" lon="10.955191634230884"><ele>518.6666666666666</ele><time>2026-04-26T06:59:46Z</time></trkpt><trkpt lat="44.092070782826895" lon="10.955157724762069"><ele>515.0</ele><time>2026-04-26T06:59:47Z</time></trkpt><trkpt lat="44.092237358253925" lon="10.955125058584354"><ele>515.0</ele><time>2026-04-26T06:59:48Z</time></trkpt><trkpt lat="44.09240946205709" lon="10.95507627519626"><ele>515.0</ele><time>2026-04-26T06:59:49Z</time></trkpt><trkpt lat="44.092586430571544" lon="10.955077334741791"><ele>515.0</ele><time>2026-04-26T06:59:50Z</time></trkpt><trkpt lat="44.09275557084696" lon="10.955063931403302"><ele>514.75</ele><time>2026-04-26T06:59:51Z</time></trkpt><trkpt lat="44.09290709354372" lon="10.9550424905927"><ele>514.5</ele><time>2026-04-26T06:59:52Z</time></trkpt><trkpt lat="44.093043139892195" lon="10.955023845805549"><ele>514.25</ele><time>2026-04-26T06:59:53Z</time></trkpt><trkpt lat="44.09317324115143" lon="10.955050957336322"><ele>514.0</ele><time>2026-04-26T06:59:54Z</time></trkpt><trkpt lat="44.09332022454644" lon="10.955050874872253"><ele>512.25</ele><time>2026-04-26T06:59:55Z</time></trkpt><trkpt lat="44.09346694676321" lon="10.955081518346239"><ele>510.5</ele><time>2026-04-26T06:59:56Z</time></trkpt><trkpt lat="44.09360979172708" lon="10.955112137056336"><ele>508.75</ele><time>2026-04-26T06:59:57Z</time></trkpt><trkpt lat="44.09374297306089" lon="10.95515951941566"><ele>507.0</ele><time>2026-04-26T06:59:58Z</time></trkpt><trkpt lat="44.09387771204476" lon="10.95522333533937"><ele>507.0</ele><time>2026-04-26T06:59:59Z</time></trkpt><trkpt lat="44.0940126188826" lon="10.955329813405427"><ele>507.0</ele><time>2026-04-26T07:00:00Z</time></trkpt><trkpt lat="44.0941484127099" lon="10.955389881340952"><ele>507.0</ele><time>2026-04-26T07:00:01Z</time></trkpt><trkpt lat="44.094296259727344" lon="10.955499946743906"><ele>506.25</ele><time>2026-04-26T07:00:02Z</time></trkpt><trkpt lat="44.09442303253999" lon="10.955629075894494"><ele>505.5</ele><time>2026-04-26T07:00:03Z</time></trkpt><trkpt lat="44.09453476832834" lon="10.955737509865147"><ele>504.75</ele><time>2026-04-26T07:00:04Z</time></trkpt><trkpt lat="44.09464885074712" lon="10.95583156199098"><ele>504.0</ele><time>2026-04-26T07:00:05Z</time></trkpt><trkpt lat="44.09474184056693" lon="10.955933050741326"><ele>504.0</ele><time>2026-04-26T07:00:06Z</time></trkpt><trkpt lat="44.09482049792783" lon="10.956047149290526"><ele>504.0</ele><time>2026-04-26T07:00:07Z</time></trkpt><trkpt lat="44.09487559434052" lon="10.956200473804191"><ele>504.0</ele><time>2026-04-26T07:00:08Z</time></trkpt><trkpt lat="44.09492895030444" lon="10.956401756100428"><ele>504.0</ele><time>2026-04-26T07:00:09Z</time></trkpt><trkpt lat="44.094968551871986" lon="10.956611129851206"><ele>505.0</ele><time>2026-04-26T07:00:10Z</time></trkpt><trkpt lat="44.09497922445543" lon="10.956790829917813"><ele>506.0</ele><time>2026-04-26T07:00:11Z</time></trkpt><trkpt lat="44.09497415395062" lon="10.956951357586913"><ele>507.0</ele><time>2026-04-26T07:00:12Z</time></trkpt><trkpt lat="44.095011011808545" lon="10.957104915168966"><ele>508.0</ele><time>2026-04-26T07:00:13Z</time></trkpt><trkpt lat="44.09506963352998" lon="10.957255652121477"><ele>508.0</ele><time>2026-04-26T07:00:14Z</time></trkpt><trkpt lat="44.095138393174814" lon="10.957431403555892"><ele>508.0</ele><time>2026-04-26T07:00:15Z</time></trkpt><trkpt lat="44.09516032989643" lon="10.957585131669344"><ele>508.0</ele><time>2026-04-26T07:00:16Z</time></trkpt><trkpt lat="44.09516343337303" lon="10.957728553655349"><ele>508.0</ele><time>2026-04-26T07:00:17Z</time></trkpt><trkpt lat="44.095194430860815" lon="10.957887465915345"><ele>507.0</ele><time>2026-04-26T07:00:18Z</time></trkpt><trkpt lat="44.09525149735457" lon="10.958023553080785"><ele>506.0</ele><time>2026-04-26T07:00:19Z</time></trkpt><trkpt lat="44.09533500723359" lon="10.958160138767527"><ele>505.0</ele><time>2026-04-26T07:00:20Z</time></trkpt><trkpt lat="44.09544588475061" lon="10.958292200086245"><ele>504.0</ele><time>2026-04-26T07:00:21Z</time></trkpt><trkpt lat="44.09557808131986" lon="10.958429080071316"><ele>503.66666666666663</ele><time>2026-04-26T07:00:22Z</time></trkpt><trkpt lat="44.095716326249004" lon="10.95855685620639"><ele>503.3333333333333</ele><time>2026-04-26T07:00:23Z</time></trkpt><trkpt lat="44.095863308707784" lon="10.958687526212087"><ele>503.0</ele><time>2026-04-26T07:00:24Z</time></trkpt><trkpt lat="44.09601002491844" lon="10.958836700063527"><ele>503.0</ele><time>2026-04-26T07:00:25Z</time></trkpt><trkpt lat="44.09615225432846" lon="10.958978699178903"><ele>503.0</ele><time>2026-04-26T07:00:26Z</time></trkpt><trkpt lat="44.0963002815439" lon="10.959099486934168"><ele>503.0</ele><time>2026-04-26T07:00:27Z</time></trkpt><trkpt lat="44.09645676624166" lon="10.959216818779536"><ele>501.0</ele><time>2026-04-26T07:00:28Z</time></trkpt><trkpt lat="44.09662157402701" lon="10.959321844387222"><ele>499.0</ele><time>2026-04-26T07:00:29Z</time></trkpt><trkpt lat="44.096768679073" lon="10.959423099175124"><ele>497.0</ele><time>2026-04-26T07:00:30Z</time></trkpt><trkpt lat="44.09693884729949" lon="10.959510863476424"><ele>497.0</ele><time>2026-04-26T07:00:31Z</time></trkpt><trkpt lat="44.0970894485886" lon="10.959598826489408"><ele>497.0</ele><time>2026-04-26T07:00:32Z</time></trkpt><trkpt lat="44.097235033515574" lon="10.959673665174904"><ele>497.0</ele><time>2026-04-26T07:00:33Z</time></trkpt><trkpt lat="44.097374088254035" lon="10.959745827080127"><ele>497.5</ele><time>2026-04-26T07:00:34Z</time></trkpt><trkpt lat="44.097520518219774" lon="10.959820742609798"><ele>498.0</ele><time>2026-04-26T07:00:35Z</time></trkpt><trkpt lat="44.09766209353582" lon="10.959910245465903"><ele>498.5</ele><time>2026-04-26T07:00:36Z</time></trkpt><trkpt lat="44.09778614187685" lon="10.959991674480996"><ele>499.0</ele><time>2026-04-26T07:00:37Z</time></trkpt><trkpt lat="44.09790363396791" lon="10.96006538185329"><ele>499.5</ele><time>2026-04-26T07:00:38Z</time></trkpt><trkpt lat="44.09802641964842" lon="10.960135221373102"><ele>500.0</ele><time>2026-04-26T07:00:39Z</time></trkpt><trkpt lat="44.09814330928578" lon="10.960175892621699"><ele>500.5</ele><time>2026-04-26T07:00:40Z</time></trkpt><trkpt lat="44.09827021237908" lon="10.960201474321996"><ele>501.0</ele><time>2026-04-26T07:00:41Z</time></trkpt><trkpt lat="44.0983974200232" lon="10.960207071932015"><ele>499.25</ele><time>2026-04-26T07:00:42Z</time></trkpt><trkpt lat="44.09853988531961" lon="10.960195533373126"><ele>497.5</ele><time>2026-04-26T07:00:43Z</time></trkpt><trkpt lat="44.098676926066645" lon="10.960204499041755"><ele>495.75</ele><time>2026-04-26T07:00:44Z</time></trkpt><trkpt lat="44.09880857205148" lon="10.96022080305017"><ele>494.0</ele><time>2026-04-26T07:00:45Z</time></trkpt><trkpt lat="44.09893665198288" lon="10.960235955153331"><ele>494.0</ele><time>2026-04-26T07:00:46Z</time></trkpt><trkpt lat="44.09905507754526" lon="10.960265636007156"><ele>494.0</ele><time>2026-04-26T07:00:47Z</time></trkpt><trkpt lat="44.099184085772045" lon="10.960329986815992"><ele>494.0</ele><time>2026-04-26T07:00:48Z</time></trkpt><trkpt lat="44.09930122529777" lon="10.960391389456904"><ele>494.0</ele><time>2026-04-26T07:00:49Z</time></trkpt><trkpt lat="44.099438851307724" lon="10.960458258025172"><ele>493.75</ele><time>2026-04-26T07:00:50Z</time></trkpt><trkpt lat="44.09957140915354" lon="10.960519467604305"><ele>493.5</ele><time>2026-04-26T07:00:51Z</time></trkpt><trkpt lat="44.09969262229152" lon="10.960584672227514"><ele>493.25</ele><time>2026-04-26T07:00:52Z</time></trkpt><trkpt lat="44.099810408719094" lon="10.960661110308651"><ele>493.0</ele><time>2026-04-26T07:00:53Z</time></trkpt><trkpt lat="44.09992468888983" lon="10.960758403200076"><ele>491.75</ele><time>2026-04-26T07:00:54Z</time></trkpt><trkpt lat="44.1000501148698" lon="10.960834203405593"><ele>490.5</ele><time>2026-04-26T07:00:55Z</time></trkpt><trkpt lat="44.10016751181346" lon="10.960895402766326"><ele>489.25</ele><time>2026-04-26T07:00:56Z</time></trkpt><trkpt lat="44.10027080018859" lon="10.960972908159409"><ele>488.0</ele><time>2026-04-26T07:00:57Z</time></trkpt><trkpt lat="44.10036837231008" lon="10.961055000452896"><ele>488.0</ele><time>2026-04-26T07:00:58Z</time></trkpt><trkpt lat="44.10044681234267" lon="10.961178547883888"><ele>488.0</ele><time>2026-04-26T07:00:59Z</time></trkpt><trkpt lat="44.10055651669015" lon="10.961269700220916"><ele>488.0</ele><time>2026-04-26T07:01:00Z</time></trkpt><trkpt lat="44.10068446792503" lon="10.961357430226661"><ele>488.0</ele><time>2026-04-26T07:01:01Z</time></trkpt><trkpt lat="44.100837009678685" lon="10.961424066108338"><ele>490.0</ele><time>2026-04-26T07:01:02Z</time></trkpt><trkpt lat="44.10097771928259" lon="10.961525709924967"><ele>492.0</ele><time>2026-04-26T07:01:03Z</time></trkpt><trkpt lat="44.10111526194231" lon="10.961584851952471"><ele>494.0</ele><time>2026-04-26T07:01:04Z</time></trkpt><trkpt lat="44.10126797901284" lon="10.961663727792207"><ele>494.3333333333333</ele><time>2026-04-26T07:01:05Z</time></trkpt><trkpt lat="44.10140774313338" lon="10.9617727210206"><ele>494.66666666666663</ele><time>2026-04-26T07:01:06Z</time></trkpt><trkpt lat="44.101522351682235" lon="10.96193300164736"><ele>495.0</ele><time>2026-04-26T07:01:07Z</time></trkpt><trkpt lat="44.101644796647946" lon="10.96209109015675"><ele>495.0</ele><time>2026-04-26T07:01:08Z</time></trkpt><trkpt lat="44.10176292373022" lon="10.962250553077032"><ele>495.0</ele><time>2026-04-26T07:01:09Z</time></trkpt><trkpt lat="44.101880592111" lon="10.96242272256147"><ele>495.0</ele><time>2026-04-26T07:01:10Z</time></trkpt><trkpt lat="44.10199991740513" lon="10.962611007370109"><ele>492.33333333333337</ele><time>2026-04-26T07:01:11Z</time></trkpt><trkpt lat="44.10211494285788" lon="10.962801816452227"><ele>489.6666666666667</ele><time>2026-04-26T07:01:12Z</time></trkpt><trkpt lat="44.102217844681746" lon="10.96299389721123"><ele>487.0</ele><time>2026-04-26T07:01:13Z</time></trkpt><trkpt lat="44.10229800736126" lon="10.963176469192486"><ele>487.0</ele><time>2026-04-26T07:01:14Z</time></trkpt><trkpt lat="44.102375377460476" lon="10.963359942106388"><ele>487.0</ele><time>2026-04-26T07:01:15Z</time></trkpt><trkpt lat="44.10242815340138" lon="10.963556056621627"><ele>487.0</ele><time>2026-04-26T07:01:16Z</time></trkpt><trkpt lat="44.10247803260517" lon="10.963763238690664"><ele>488.33333333333337</ele><time>2026-04-26T07:01:17Z</time></trkpt><trkpt lat="44.102523535041435" lon="10.963978702205218"><ele>489.66666666666663</ele><time>2026-04-26T07:01:18Z</time></trkpt><trkpt lat="44.10257212697875" lon="10.964172099095194"><ele>491.0</ele><time>2026-04-26T07:01:19Z</time></trkpt><trkpt lat="44.10264075664908" lon="10.964371535390354"><ele>491.0</ele><time>2026-04-26T07:01:20Z</time></trkpt><trkpt lat="44.10271842082114" lon="10.964576307845741"><ele>491.0</ele><time>2026-04-26T07:01:21Z</time></trkpt><trkpt lat="44.10278914437505" lon="10.964763042840941"><ele>491.0</ele><time>2026-04-26T07:01:22Z</time></trkpt><trkpt lat="44.10286377250022" lon="10.96492358993059"><ele>491.6</ele><time>2026-04-26T07:01:23Z</time></trkpt><trkpt lat="44.10292001858637" lon="10.965077752222813"><ele>492.20000000000005</ele><time>2026-04-26T07:01:24Z</time></trkpt><trkpt lat="44.10298367232055" lon="10.965205275617281"><ele>492.79999999999995</ele><time>2026-04-26T07:01:25Z</time></trkpt><trkpt lat="44.103059918343305" lon="10.965297740013135"><ele>493.4</ele><time>2026-04-26T07:01:26Z</time></trkpt><trkpt lat="44.1031547736137" lon="10.96534559788804"><ele>494.0</ele><time>2026-04-26T07:01:27Z</time></trkpt><trkpt lat="44.10327689801382" lon="10.965370389934016"><ele>494.0</ele><time>2026-04-26T07:01:28Z</time></trkpt><trkpt lat="44.10340427830792" lon="10.965398747434195"><ele>494.0</ele><time>2026-04-26T07:01:29Z</time></trkpt><trkpt lat="44.103506119911955" lon="10.965443672603865"><ele>494.0</ele><time>2026-04-26T07:01:30Z</time></trkpt><trkpt lat="44.10358129024163" lon="10.965538588546025"><ele>494.0</ele><time>2026-04-26T07:01:31Z</time></trkpt><trkpt lat="44.103649315143066" lon="10.965619615543863"><ele>494.0</ele><time>2026-04-26T07:01:32Z</time></trkpt><trkpt lat="44.10367751023006" lon="10.965719608386497"><ele>494.0</ele><time>2026-04-26T07:01:33Z</time></trkpt><trkpt lat="44.103685771798496" lon="10.965829189907687"><ele>494.0</ele><time>2026-04-26T07:01:34Z</time></trkpt><trkpt lat="44.103701535480276" lon="10.965931297793876"><ele>494.0</ele><time>2026-04-26T07:01:35Z</time></trkpt><trkpt lat="44.103733050284035" lon="10.966026718671815"><ele>494.0</ele><time>2026-04-26T07:01:36Z</time></trkpt><trkpt lat="44.10381725367352" lon="10.96609822986287"><ele>494.0</ele><time>2026-04-26T07:01:37Z</time></trkpt><trkpt lat="44.10394010610945" lon="10.9660877697092"><ele>493.0</ele><time>2026-04-26T07:01:38Z</time></trkpt><trkpt lat="44.10406880300139" lon="10.966082475679135"><ele>492.0</ele><time>2026-04-26T07:01:39Z</time></trkpt><trkpt lat="44.1042146705604" lon="10.966075790085194"><ele>491.0</ele><time>2026-04-26T07:01:40Z</time></trkpt><trkpt lat="44.10436967353803" lon="10.966090619102724"><ele>490.0</ele><time>2026-04-26T07:01:41Z</time></trkpt><trkpt lat="44.104540814811585" lon="10.966094996454677"><ele>488.6666666666667</ele><time>2026-04-26T07:01:42Z</time></trkpt><trkpt lat="44.104701669191" lon="10.966087080262557"><ele>487.33333333333337</ele><time>2026-04-26T07:01:43Z</time></trkpt><trkpt lat="44.10487386594412" lon="10.966066514751189"><ele>486.0</ele><time>2026-04-26T07:01:44Z</time></trkpt><trkpt lat="44.10504045470778" lon="10.966038989624817"><ele>488.0</ele><time>2026-04-26T07:01:45Z</time></trkpt><trkpt lat="44.10518913363221" lon="10.966020802371926"><ele>490.0</ele><time>2026-04-26T07:01:46Z</time></trkpt><trkpt lat="44.1053311845964" lon="10.966015325928497"><ele>492.0</ele><time>2026-04-26T07:01:47Z</time></trkpt><trkpt lat="44.10547621969351" lon="10.966079332689013"><ele>494.0</ele><time>2026-04-26T07:01:48Z</time></trkpt><trkpt lat="44.10561190377507" lon="10.96606183703111"><ele>495.5</ele><time>2026-04-26T07:01:49Z</time></trkpt><trkpt lat="44.1057553455608" lon="10.966040440828865"><ele>497.0</ele><time>2026-04-26T07:01:50Z</time></trkpt><trkpt lat="44.10587254773274" lon="10.966042612640365"><ele>498.5</ele><time>2026-04-26T07:01:51Z</time></trkpt><trkpt lat="44.105985521981495" lon="10.966109760068248"><ele>500.0</ele><time>2026-04-26T07:01:52Z</time></trkpt><trkpt lat="44.10610469465626" lon="10.966206762842369"><ele>500.0</ele><time>2026-04-26T07:01:53Z</time></trkpt><trkpt lat="44.10622100133874" lon="10.966329553549816"><ele>500.0</ele><time>2026-04-26T07:01:54Z</time></trkpt><trkpt lat="44.10633627639286" lon="10.966426202273858"><ele>500.0</ele><time>2026-04-26T07:01:55Z</time></trkpt><trkpt lat="44.106452097264636" lon="10.966533769733736"><ele>500.0</ele><time>2026-04-26T07:01:56Z</time></trkpt><trkpt lat="44.106573418114316" lon="10.96666862579573"><ele>500.3333333333333</ele><time>2026-04-26T07:01:57Z</time></trkpt><trkpt lat="44.10668882655844" lon="10.966830624823992"><ele>500.66666666666663</ele><time>2026-04-26T07:01:58Z</time></trkpt><trkpt lat="44.106802421763156" lon="10.967014165521938"><ele>501.0</ele><time>2026-04-26T07:01:59Z</time></trkpt><trkpt lat="44.10688894214936" lon="10.967209497610025"><ele>501.0</ele><time>2026-04-26T07:02:00Z</time></trkpt><trkpt lat="44.106962874332154" lon="10.967428247627803"><ele>501.0</ele><time>2026-04-26T07:02:01Z</time></trkpt><trkpt lat="44.10703671365421" lon="10.967653064017192"><ele>501.0</ele><time>2026-04-26T07:02:02Z</time></trkpt><trkpt lat="44.107081654014635" lon="10.967868134684577"><ele>497.25</ele><time>2026-04-26T07:02:03Z</time></trkpt><trkpt lat="44.10713259851516" lon="10.96806327883644"><ele>493.5</ele><time>2026-04-26T07:02:04Z</time></trkpt><trkpt lat="44.10719846156847" lon="10.968207037291384"><ele>489.75</ele><time>2026-04-26T07:02:05Z</time></trkpt><trkpt lat="44.10723249009829" lon="10.968341768995312"><ele>486.0</ele><time>2026-04-26T07:02:06Z</time></trkpt><trkpt lat="44.10725995802186" lon="10.968469157792011"><ele>485.8</ele><time>2026-04-26T07:02:07Z</time></trkpt><trkpt lat="44.107324272259426" lon="10.968554730948075"><ele>485.6</ele><time>2026-04-26T07:02:08Z</time></trkpt><trkpt lat="44.107412864739736" lon="10.968580783284244"><ele>485.4</ele><time>2026-04-26T07:02:09Z</time></trkpt><trkpt lat="44.10751351269428" lon="10.968551908089628"><ele>485.2</ele><time>2026-04-26T07:02:10Z</time></trkpt><trkpt lat="44.107609594361065" lon="10.968442841160646"><ele>485.0</ele><time>2026-04-26T07:02:11Z</time></trkpt><trkpt lat="44.10768687768329" lon="10.968274105534883"><ele>493.0</ele><time>2026-04-26T07:02:12Z</time></trkpt><trkpt lat="44.10776928491051" lon="10.968053932838806"><ele>501.0</ele><time>2026-04-26T07:02:13Z</time></trkpt><trkpt lat="44.10783243897354" lon="10.967886150689704"><ele>509.0</ele><time>2026-04-26T07:02:14Z</time></trkpt><trkpt lat="44.107877380354275" lon="10.967687554078054"><ele>516.6666666666666</ele><time>2026-04-26T07:02:15Z</time></trkpt><trkpt lat="44.107909543554705" lon="10.96747675812731"><ele>524.3333333333334</ele><time>2026-04-26T07:02:16Z</time></trkpt><trkpt lat="44.107927662585844" lon="10.967267149506005"><ele>532.0</ele><time>2026-04-26T07:02:17Z</time></trkpt><trkpt lat="44.107979405613186" lon="10.967073896644857"><ele>532.0</ele><time>2026-04-26T07:02:18Z</time></trkpt><trkpt lat="44.10800814773824" lon="10.966890346689004"><ele>532.0</ele><time>2026-04-26T07:02:19Z</time></trkpt><trkpt lat="44.10805724373175" lon="10.966706119774788"><ele>532.0</ele><time>2026-04-26T07:02:20Z</time></trkpt><trkpt lat="44.10813948785178" lon="10.966530432014485"><ele>532.0</ele><time>2026-04-26T07:02:21Z</time></trkpt><trkpt lat="44.10821229550713" lon="10.966380968111203"><ele>528.75</ele><time>2026-04-26T07:02:22Z</time></trkpt><trkpt lat="44.10829778211656" lon="10.96623307157179"><ele>525.5</ele><time>2026-04-26T07:02:23Z</time></trkpt><trkpt lat="44.10836356927552" lon="10.96610361482893"><ele>522.25</ele><time>2026-04-26T07:02:24Z</time></trkpt><trkpt lat="44.10840278374954" lon="10.965946921778691"><ele>519.0</ele><time>2026-04-26T07:02:25Z</time></trkpt><trkpt lat="44.10845115759402" lon="10.96577478035652"><ele>523.6666666666666</ele><time>2026-04-26T07:02:26Z</time></trkpt><trkpt lat="44.1084578291742" lon="10.965610466868103"><ele>528.3333333333334</ele><time>2026-04-26T07:02:27Z</time></trkpt><trkpt lat="44.10846192008435" lon="10.965480030714941"><ele>533.0</ele><time>2026-04-26T07:02:28Z</time></trkpt><trkpt lat="44.10847272426223" lon="10.965387333280292"><ele>537.6666666666667</ele><time>2026-04-26T07:02:29Z</time></trkpt><trkpt lat="44.10854966054455" lon="10.965350105618022"><ele>542.3333333333334</ele><time>2026-04-26T07:02:30Z</time></trkpt><trkpt lat="44.10861935378703" lon="10.96533947452957"><ele>547.0</ele><time>2026-04-26T07:02:31Z</time></trkpt><trkpt lat="44.108683681864875" lon="10.965335748959504"><ele>547.0</ele><time>2026-04-26T07:02:32Z</time></trkpt><trkpt lat="44.1087510144456" lon="10.965405321183052"><ele>547.0</ele><time>2026-04-26T07:02:33Z</time></trkpt><trkpt lat="44.10880477642883" lon="10.965536237648017"><ele>547.0</ele><time>2026-04-26T07:02:34Z</time></trkpt><trkpt lat="44.1088381665875" lon="10.965702875996843"><ele>547.0</ele><time>2026-04-26T07:02:35Z</time></trkpt><trkpt lat="44.1088730892957" lon="10.965876668746148"><ele>547.0</ele><time>2026-04-26T07:02:36Z</time></trkpt><trkpt lat="44.108895343320555" lon="10.966060797936423"><ele>541.4</ele><time>2026-04-26T07:02:37Z</time></trkpt><trkpt lat="44.108919581128575" lon="10.966224031893265"><ele>535.8000000000001</ele><time>2026-04-26T07:02:38Z</time></trkpt><trkpt lat="44.10893156677221" lon="10.96636480985755"><ele>530.2</ele><time>2026-04-26T07:02:39Z</time></trkpt><trkpt lat="44.10895148309907" lon="10.966472084072347"><ele>524.6</ele><time>2026-04-26T07:02:40Z</time></trkpt><trkpt lat="44.108990245923444" lon="10.96655730265752"><ele>519.0</ele><time>2026-04-26T07:02:41Z</time></trkpt><trkpt lat="44.10905716907804" lon="10.966620668573174"><ele>515.75</ele><time>2026-04-26T07:02:42Z</time></trkpt><trkpt lat="44.10915610766409" lon="10.96660563897952"><ele>512.5</ele><time>2026-04-26T07:02:43Z</time></trkpt><trkpt lat="44.109259755845144" lon="10.966574695761233"><ele>509.25</ele><time>2026-04-26T07:02:44Z</time></trkpt><trkpt lat="44.10937693712485" lon="10.966532510906447"><ele>506.0</ele><time>2026-04-26T07:02:45Z</time></trkpt><trkpt lat="44.10948226086069" lon="10.966413263414921"><ele>506.0</ele><time>2026-04-26T07:02:46Z</time></trkpt><trkpt lat="44.10958263666647" lon="10.966360882910308"><ele>506.0</ele><time>2026-04-26T07:02:47Z</time></trkpt><trkpt lat="44.109682544827926" lon="10.96636381909248"><ele>506.0</ele><time>2026-04-26T07:02:48Z</time></trkpt><trkpt lat="44.109785169993344" lon="10.966406222655845"><ele>506.0</ele><time>2026-04-26T07:02:49Z</time></trkpt><trkpt lat="44.10988262652471" lon="10.96643712328964"><ele>506.0</ele><time>2026-04-26T07:02:50Z</time></trkpt><trkpt lat="44.110005215950146" lon="10.966485877403496"><ele>501.0</ele><time>2026-04-26T07:02:51Z</time></trkpt><trkpt lat="44.110092676641464" lon="10.966647492755293"><ele>496.0</ele><time>2026-04-26T07:02:52Z</time></trkpt><trkpt lat="44.110210895756715" lon="10.966746442609221"><ele>491.0</ele><time>2026-04-26T07:02:53Z</time></trkpt><trkpt lat="44.110332631758176" lon="10.966823775770612"><ele>486.0</ele><time>2026-04-26T07:02:54Z</time></trkpt><trkpt lat="44.110410069859945" lon="10.966910858426738"><ele>486.0</ele><time>2026-04-26T07:02:55Z</time></trkpt><trkpt lat="44.11046507576793" lon="10.967061726386477"><ele>486.0</ele><time>2026-04-26T07:02:56Z</time></trkpt><trkpt lat="44.110527178245604" lon="10.96724122794544"><ele>486.0</ele><time>2026-04-26T07:02:57Z</time></trkpt><trkpt lat="44.110593350820466" lon="10.967434580520765"><ele>486.0</ele><time>2026-04-26T07:02:58Z</time></trkpt><trkpt lat="44.110655968786986" lon="10.967627370768916"><ele>482.75</ele><time>2026-04-26T07:02:59Z</time></trkpt><trkpt lat="44.11072493013906" lon="10.967803458806936"><ele>479.5</ele><time>2026-04-26T07:03:00Z</time></trkpt><trkpt lat="44.1107944831207" lon="10.967952925008996"><ele>476.25</ele><time>2026-04-26T07:03:01Z</time></trkpt><trkpt lat="44.110856190615145" lon="10.968067998121862"><ele>473.0</ele><time>2026-04-26T07:03:02Z</time></trkpt><trkpt lat="44.11092767002878" lon="10.968173758561367"><ele>481.0</ele><time>2026-04-26T07:03:03Z</time></trkpt><trkpt lat="44.111001723625954" lon="10.968242978261106"><ele>488.99999999999994</ele><time>2026-04-26T07:03:04Z</time></trkpt><trkpt lat="44.11109215475395" lon="10.968268571341905"><ele>496.99999999999994</ele><time>2026-04-26T07:03:05Z</time></trkpt><trkpt lat="44.11117514311438" lon="10.968191240119857"><ele>505.0</ele><time>2026-04-26T07:03:06Z</time></trkpt><trkpt lat="44.1112382446698" lon="10.968098970365462"><ele>513.0</ele><time>2026-04-26T07:03:07Z</time></trkpt><trkpt lat="44.111299027155646" lon="10.967964179622133"><ele>513.0</ele><time>2026-04-26T07:03:08Z</time></trkpt><trkpt lat="44.11138365568625" lon="10.967803639948677"><ele>513.0</ele><time>2026-04-26T07:03:09.001Z</time></trkpt><trkpt lat="44.11146182960368" lon="10.967621860477244"><ele>513.0</ele><time>2026-04-26T07:03:10.001Z</time></trkpt><trkpt lat="44.111536094920346" lon="10.96745455325006"><ele>513.0</ele><time>2026-04-26T07:03:11.001Z</time></trkpt><trkpt lat="44.111631609024435" lon="10.967324061591691"><ele>516.0</ele><time>2026-04-26T07:03:12.001Z</time></trkpt><trkpt lat="44.111696157532606" lon="10.96720371625646"><ele>519.0</ele><time>2026-04-26T07:03:13.001Z</time></trkpt><trkpt lat="44.11175897413996" lon="10.967133300096267"><ele>522.0</ele><time>2026-04-26T07:03:14.001Z</time></trkpt><trkpt lat="44.11188721576563" lon="10.967217310876816"><ele>525.0</ele><time>2026-04-26T07:03:15.001Z</time></trkpt><trkpt lat="44.11202789738726" lon="10.967250058787794"><ele>525.0</ele><time>2026-04-26T07:03:16.001Z</time></trkpt><trkpt lat="44.11217537453821" lon="10.967278689093424"><ele>525.0</ele><time>2026-04-26T07:03:17.001Z</time></trkpt><trkpt lat="44.11231318783321" lon="10.96729424725652"><ele>525.0</ele><time>2026-04-26T07:03:18.001Z</time></trkpt><trkpt lat="44.112450262313885" lon="10.967278930319795"><ele>525.0</ele><time>2026-04-26T07:03:19.001Z</time></trkpt><trkpt lat="44.11257675382661" lon="10.967221712902532"><ele>523.5</ele><time>2026-04-26T07:03:20.001Z</time></trkpt><trkpt lat="44.112718262149365" lon="10.96717276051671"><ele>522.0</ele><time>2026-04-26T07:03:21.001Z</time></trkpt><trkpt lat="44.11285080042765" lon="10.967130348344256"><ele>520.5</ele><time>2026-04-26T07:03:22.001Z</time></trkpt><trkpt lat="44.1129999257215" lon="10.967119154736464"><ele>519.0</ele><time>2026-04-26T07:03:23.001Z</time></trkpt><trkpt lat="44.113143844503114" lon="10.967105589719061"><ele>518.8</ele><time>2026-04-26T07:03:24.001Z</time></trkpt><trkpt lat="44.11325644097571" lon="10.967098147970978"><ele>518.5999999999999</ele><time>2026-04-26T07:03:25.001Z</time></trkpt><trkpt lat="44.113356341781994" lon="10.967058572699116"><ele>518.4</ele><time>2026-04-26T07:03:26.001Z</time></trkpt><trkpt lat="44.113441894471954" lon="10.967002945209202"><ele>518.1999999999999</ele><time>2026-04-26T07:03:27.001Z</time></trkpt><trkpt lat="44.11351312411585" lon="10.96693905742903"><ele>518.0</ele><time>2026-04-26T07:03:28.001Z</time></trkpt><trkpt lat="44.113582628038664" lon="10.966848867885954"><ele>518.0</ele><time>2026-04-26T07:03:29.001Z</time></trkpt><trkpt lat="44.113636342108286" lon="10.966733557062732"><ele>518.0</ele><time>2026-04-26T07:03:30.001Z</time></trkpt><trkpt lat="44.11369445213203" lon="10.966579221867386"><ele>518.0</ele><time>2026-04-26T07:03:31.001Z</time></trkpt><trkpt lat="44.11379617662252" lon="10.966453899505117"><ele>518.0</ele><time>2026-04-26T07:03:32.001Z</time></trkpt><trkpt lat="44.11390120416505" lon="10.966374589311775"><ele>521.1666666666666</ele><time>2026-04-26T07:03:33.001Z</time></trkpt><trkpt lat="44.11396939976207" lon="10.966320668379256"><ele>524.3333333333333</ele><time>2026-04-26T07:03:34.001Z</time></trkpt><trkpt lat="44.114030599425675" lon="10.96625100508208"><ele>527.5</ele><time>2026-04-26T07:03:35.001Z</time></trkpt><trkpt lat="44.11409473039999" lon="10.966215588811503"><ele>530.6666666666666</ele><time>2026-04-26T07:03:36.001Z</time></trkpt><trkpt lat="44.114173002657076" lon="10.966238856651007"><ele>533.8333333333334</ele><time>2026-04-26T07:03:37.001Z</time></trkpt><trkpt lat="44.114235485077856" lon="10.96635403862935"><ele>537.0</ele><time>2026-04-26T07:03:38.001Z</time></trkpt><trkpt lat="44.1142612627616" lon="10.966511654984515"><ele>532.5</ele><time>2026-04-26T07:03:39.001Z</time></trkpt><trkpt lat="44.114261518518184" lon="10.966717047445256"><ele>528.0</ele><time>2026-04-26T07:03:40.001Z</time></trkpt><trkpt lat="44.1142770348233" lon="10.96689429925754"><ele>523.5</ele><time>2026-04-26T07:03:41.001Z</time></trkpt><trkpt lat="44.11432879002388" lon="10.967097654796024"><ele>519.0</ele><time>2026-04-26T07:03:42.001Z</time></trkpt><trkpt lat="44.11440161784511" lon="10.96730737728324"><ele>519.0</ele><time>2026-04-26T07:03:43.001Z</time></trkpt><trkpt lat="44.11446835017185" lon="10.967502320388204"><ele>519.0</ele><time>2026-04-26T07:03:44.001Z</time></trkpt><trkpt lat="44.114508306191276" lon="10.967687235150375"><ele>519.0</ele><time>2026-04-26T07:03:45.001Z</time></trkpt><trkpt lat="44.11454894406077" lon="10.967869258611577"><ele>519.0</ele><time>2026-04-26T07:03:46.001Z</time></trkpt><trkpt lat="44.1145547896487" lon="10.968030376587745"><ele>510.25</ele><time>2026-04-26T07:03:47.001Z</time></trkpt><trkpt lat="44.114552159801356" lon="10.968197005954503"><ele>501.5</ele><time>2026-04-26T07:03:48.001Z</time></trkpt><trkpt lat="44.11457256910194" lon="10.968367599719107"><ele>492.75</ele><time>2026-04-26T07:03:49.001Z</time></trkpt><trkpt lat="44.11463348225651" lon="10.968505097840302"><ele>484.0</ele><time>2026-04-26T07:03:50.001Z</time></trkpt><trkpt lat="44.11468469362633" lon="10.968637843375364"><ele>479.6</ele><time>2026-04-26T07:03:51.001Z</time></trkpt><trkpt lat="44.114744314552006" lon="10.968754684271186"><ele>475.2</ele><time>2026-04-26T07:03:52.001Z</time></trkpt><trkpt lat="44.11478299984435" lon="10.968879422017807"><ele>470.80000000000007</ele><time>2026-04-26T07:03:53.001Z</time></trkpt><trkpt lat="44.114795716524604" lon="10.969022137098008"><ele>466.40000000000003</ele><time>2026-04-26T07:03:54.001Z</time></trkpt><trkpt lat="44.114812238523676" lon="10.969132793803505"><ele>462.0</ele><time>2026-04-26T07:03:55.001Z</time></trkpt><trkpt lat="44.11484927291244" lon="10.969208250977248"><ele>462.25</ele><time>2026-04-26T07:03:56.001Z</time></trkpt><trkpt lat="44.11492485056184" lon="10.969203679983996"><ele>462.5</ele><time>2026-04-26T07:03:57.001Z</time></trkpt><trkpt lat="44.11503385937161" lon="10.96918140562001"><ele>462.75</ele><time>2026-04-26T07:03:58.001Z</time></trkpt><trkpt lat="44.115169105295244" lon="10.9691023429389"><ele>463.0</ele><time>2026-04-26T07:03:59.001Z</time></trkpt><trkpt lat="44.1153076575384" lon="10.968999033362175"><ele>470.75</ele><time>2026-04-26T07:04:00.001Z</time></trkpt><trkpt lat="44.11543882853775" lon="10.968906201413695"><ele>478.5</ele><time>2026-04-26T07:04:01.001Z</time></trkpt><trkpt lat="44.1155539080214" lon="10.968830986079377"><ele>486.25</ele><time>2026-04-26T07:04:02.001Z</time></trkpt><trkpt lat="44.115650250822746" lon="10.96875116780047"><ele>494.0</ele><time>2026-04-26T07:04:03.001Z</time></trkpt><trkpt lat="44.11572999341658" lon="10.968703207384062"><ele>490.6</ele><time>2026-04-26T07:04:04.001Z</time></trkpt><trkpt lat="44.11580610243727" lon="10.96875068025097"><ele>487.2</ele><time>2026-04-26T07:04:05.001Z</time></trkpt><trkpt lat="44.115860917915285" lon="10.968839246006286"><ele>483.80000000000007</ele><time>2026-04-26T07:04:06.001Z</time></trkpt><trkpt lat="44.1158687143183" lon="10.968945529351874"><ele>480.40000000000003</ele><time>2026-04-26T07:04:07.001Z</time></trkpt><trkpt lat="44.11591234132834" lon="10.969085902447148"><ele>477.0</ele><time>2026-04-26T07:04:08.001Z</time></trkpt><trkpt lat="44.11597722779201" lon="10.969200202388656"><ele>477.0</ele><time>2026-04-26T07:04:09.001Z</time></trkpt><trkpt lat="44.11608336003389" lon="10.969297432481994"><ele>477.0</ele><time>2026-04-26T07:04:10.001Z</time></trkpt><trkpt lat="44.116212175469336" lon="10.969374931399772"><ele>477.0</ele><time>2026-04-26T07:04:11.001Z</time></trkpt><trkpt lat="44.11638982313239" lon="10.96945777984812"><ele>477.0</ele><time>2026-04-26T07:04:12.001Z</time></trkpt><trkpt lat="44.11650955309119" lon="10.969561777275661"><ele>477.0</ele><time>2026-04-26T07:04:13.001Z</time></trkpt><trkpt lat="44.11663071487432" lon="10.96968986960189"><ele>477.0</ele><time>2026-04-26T07:04:14.001Z</time></trkpt><trkpt lat="44.11674738048658" lon="10.9698205633059"><ele>477.0</ele><time>2026-04-26T07:04:15.001Z</time></trkpt><trkpt lat="44.11684243519738" lon="10.969925229271478"><ele>479.0</ele><time>2026-04-26T07:04:16.001Z</time></trkpt><trkpt lat="44.116906730581015" lon="10.970076862926556"><ele>481.0</ele><time>2026-04-26T07:04:17.001Z</time></trkpt><trkpt lat="44.116972850534324" lon="10.970272484189545"><ele>483.0</ele><time>2026-04-26T07:04:18.001Z</time></trkpt><trkpt lat="44.11702311367025" lon="10.970490842456465"><ele>485.0</ele><time>2026-04-26T07:04:19.001Z</time></trkpt><trkpt lat="44.117080592586454" lon="10.970720667591351"><ele>481.66666666666663</ele><time>2026-04-26T07:04:20.001Z</time></trkpt><trkpt lat="44.11711452567742" lon="10.970966921214199"><ele>478.33333333333337</ele><time>2026-04-26T07:04:21.001Z</time></trkpt><trkpt lat="44.11713574340577" lon="10.971218516107228"><ele>475.0</ele><time>2026-04-26T07:04:22.001Z</time></trkpt><trkpt lat="44.117131799297425" lon="10.97143143591818"><ele>475.0</ele><time>2026-04-26T07:04:23.001Z</time></trkpt><trkpt lat="44.11714793014769" lon="10.971626623849247"><ele>475.0</ele><time>2026-04-26T07:04:24.001Z</time></trkpt><trkpt lat="44.11717091024091" lon="10.97179275800844"><ele>475.0</ele><time>2026-04-26T07:04:25.001Z</time></trkpt><trkpt lat="44.11720600035935" lon="10.971947939640415"><ele>475.0</ele><time>2026-04-26T07:04:26.001Z</time></trkpt><trkpt lat="44.11727085316871" lon="10.972100107446044"><ele>472.33333333333337</ele><time>2026-04-26T07:04:27.001Z</time></trkpt><trkpt lat="44.11737546954336" lon="10.97223624311102"><ele>469.66666666666663</ele><time>2026-04-26T07:04:28.001Z</time></trkpt><trkpt lat="44.11749505507095" lon="10.972343505875223"><ele>467.0</ele><time>2026-04-26T07:04:29.001Z</time></trkpt><trkpt lat="44.11763891355741" lon="10.972468183957025"><ele>465.66666666666663</ele><time>2026-04-26T07:04:30.001Z</time></trkpt><trkpt lat="44.11780419876691" lon="10.972565804733703"><ele>464.33333333333337</ele><time>2026-04-26T07:04:31.001Z</time></trkpt><trkpt lat="44.117969240120885" lon="10.972648795076118"><ele>463.0</ele><time>2026-04-26T07:04:32.001Z</time></trkpt><trkpt lat="44.118130082566196" lon="10.972719769836903"><ele>469.0</ele><time>2026-04-26T07:04:33.001Z</time></trkpt><trkpt lat="44.118277501093964" lon="10.97278704186952"><ele>475.0</ele><time>2026-04-26T07:04:34.001Z</time></trkpt><trkpt lat="44.11842752544983" lon="10.972829858138484"><ele>481.0</ele><time>2026-04-26T07:04:35.001Z</time></trkpt><trkpt lat="44.1185557749549" lon="10.972899099816956"><ele>487.0</ele><time>2026-04-26T07:04:36.001Z</time></trkpt><trkpt lat="44.118658018170116" lon="10.97296687581046"><ele>487.0</ele><time>2026-04-26T07:04:37.001Z</time></trkpt><trkpt lat="44.11874730114239" lon="10.973076171161093"><ele>487.0</ele><time>2026-04-26T07:04:38.001Z</time></trkpt><trkpt lat="44.118805308531556" lon="10.973227711532147"><ele>487.0</ele><time>2026-04-26T07:04:39.001Z</time></trkpt><trkpt lat="44.11884625498364" lon="10.973414526454581"><ele>487.0</ele><time>2026-04-26T07:04:40.001Z</time></trkpt><trkpt lat="44.118862252620865" lon="10.97361490435786"><ele>483.0</ele><time>2026-04-26T07:04:41.001Z</time></trkpt><trkpt lat="44.118881848494134" lon="10.973819231092891"><ele>479.0</ele><time>2026-04-26T07:04:42.001Z</time></trkpt><trkpt lat="44.11890071070519" lon="10.974005330900319"><ele>475.0</ele><time>2026-04-26T07:04:43.001Z</time></trkpt><trkpt lat="44.11892750621708" lon="10.97416970326598"><ele>471.0</ele><time>2026-04-26T07:04:44.001Z</time></trkpt><trkpt lat="44.11898081593637" lon="10.974314795056207"><ele>471.0</ele><time>2026-04-26T07:04:45.001Z</time></trkpt><trkpt lat="44.11907528490211" lon="10.974413745057763"><ele>471.0</ele><time>2026-04-26T07:04:46.001Z</time></trkpt><trkpt lat="44.119195054274336" lon="10.974465404870452"><ele>471.0</ele><time>2026-04-26T07:04:47.001Z</time></trkpt><trkpt lat="44.119339522336006" lon="10.974504486528135"><ele>471.0</ele><time>2026-04-26T07:04:48.001Z</time></trkpt><trkpt lat="44.119502489292024" lon="10.974532372552058"><ele>471.0</ele><time>2026-04-26T07:04:49.001Z</time></trkpt><trkpt lat="44.119676041326024" lon="10.97456165832326"><ele>471.0</ele><time>2026-04-26T07:04:50.001Z</time></trkpt><trkpt lat="44.119830892849585" lon="10.974601721269824"><ele>471.0</ele><time>2026-04-26T07:04:51.001Z</time></trkpt><trkpt lat="44.11996077031815" lon="10.974640439518238"><ele>473.8</ele><time>2026-04-26T07:04:52.001Z</time></trkpt><trkpt lat="44.12005873721261" lon="10.974658922984004"><ele>476.6</ele><time>2026-04-26T07:04:53.001Z</time></trkpt><trkpt lat="44.12014658130729" lon="10.974690939034296"><ele>479.4</ele><time>2026-04-26T07:04:54.001Z</time></trkpt><trkpt lat="44.12023583127944" lon="10.974716661122708"><ele>482.2</ele><time>2026-04-26T07:04:55.001Z</time></trkpt><trkpt lat="44.12032410966566" lon="10.97477285626486"><ele>485.0</ele><time>2026-04-26T07:04:56.001Z</time></trkpt><trkpt lat="44.120384145907295" lon="10.974927437479035"><ele>487.25</ele><time>2026-04-26T07:04:57.001Z</time></trkpt><trkpt lat="44.12047395445604" lon="10.975075428193952"><ele>489.5</ele><time>2026-04-26T07:04:58.001Z</time></trkpt><trkpt lat="44.120580638936545" lon="10.975186895597872"><ele>491.75</ele><time>2026-04-26T07:04:59.001Z</time></trkpt><trkpt lat="44.120682687122034" lon="10.975261647075024"><ele>494.0</ele><time>2026-04-26T07:05:00.001Z</time></trkpt><trkpt lat="44.12075015190167" lon="10.975344751000932"><ele>494.0</ele><time>2026-04-26T07:05:01.001Z</time></trkpt><trkpt lat="44.120784422783395" lon="10.975447768993591"><ele>494.0</ele><time>2026-04-26T07:05:02.001Z</time></trkpt><trkpt lat="44.120792705196244" lon="10.975591502953462"><ele>494.0</ele><time>2026-04-26T07:05:03.001Z</time></trkpt><trkpt lat="44.12077447130472" lon="10.975752719192478"><ele>494.0</ele><time>2026-04-26T07:05:04.001Z</time></trkpt><trkpt lat="44.120714887669656" lon="10.975915442385045"><ele>494.0</ele><time>2026-04-26T07:05:05.001Z</time></trkpt><trkpt lat="44.120678682064614" lon="10.976120436619413"><ele>486.25</ele><time>2026-04-26T07:05:06.001Z</time></trkpt><trkpt lat="44.12066254211085" lon="10.976304049312157"><ele>478.5</ele><time>2026-04-26T07:05:07.001Z</time></trkpt><trkpt lat="44.12067513154165" lon="10.976469155406733"><ele>470.75</ele><time>2026-04-26T07:05:08.001Z</time></trkpt><trkpt lat="44.12071479759901" lon="10.976624802769038"><ele>463.0</ele><time>2026-04-26T07:05:09.001Z</time></trkpt><trkpt lat="44.12078599075863" lon="10.976804308321597"><ele>463.0</ele><time>2026-04-26T07:05:10.001Z</time></trkpt><trkpt lat="44.12085419180427" lon="10.9769870263289"><ele>463.0</ele><time>2026-04-26T07:05:11.001Z</time></trkpt><trkpt lat="44.12091525431919" lon="10.97714426008781"><ele>463.0</ele><time>2026-04-26T07:05:12.001Z</time></trkpt><trkpt lat="44.12098942327324" lon="10.977291602361111"><ele>463.0</ele><time>2026-04-26T07:05:13.001Z</time></trkpt><trkpt lat="44.12106709525149" lon="10.977411869647238"><ele>458.2</ele><time>2026-04-26T07:05:14.001Z</time></trkpt><trkpt lat="44.12118786062608" lon="10.9775408405216"><ele>453.4</ele><time>2026-04-26T07:05:15.001Z</time></trkpt><trkpt lat="44.12128683647144" lon="10.977614689963545"><ele>448.59999999999997</ele><time>2026-04-26T07:05:16.001Z</time></trkpt><trkpt lat="44.12136469320887" lon="10.977674043940459"><ele>443.79999999999995</ele><time>2026-04-26T07:05:17.001Z</time></trkpt><trkpt lat="44.12143983423968" lon="10.977705253764995"><ele>439.0</ele><time>2026-04-26T07:05:18.001Z</time></trkpt><trkpt lat="44.121502187948415" lon="10.97768863606261"><ele>440.0</ele><time>2026-04-26T07:05:19.001Z</time></trkpt><trkpt lat="44.12160080171063" lon="10.977587404077532"><ele>441.0</ele><time>2026-04-26T07:05:20.001Z</time></trkpt><trkpt lat="44.12167633224979" lon="10.977436305840232"><ele>442.0</ele><time>2026-04-26T07:05:21.001Z</time></trkpt><trkpt lat="44.12177582886947" lon="10.977269796252122"><ele>443.0</ele><time>2026-04-26T07:05:22.001Z</time></trkpt><trkpt lat="44.12189491797564" lon="10.977127138304105"><ele>454.0</ele><time>2026-04-26T07:05:23.001Z</time></trkpt><trkpt lat="44.122017458622985" lon="10.976993830252507"><ele>465.0</ele><time>2026-04-26T07:05:24.001Z</time></trkpt><trkpt lat="44.1221202186167" lon="10.976818081013795"><ele>476.0</ele><time>2026-04-26T07:05:25.001Z</time></trkpt><trkpt lat="44.12224264333268" lon="10.976735706379861"><ele>480.5</ele><time>2026-04-26T07:05:26.001Z</time></trkpt><trkpt lat="44.12233950956398" lon="10.97668156548047"><ele>485.0</ele><time>2026-04-26T07:05:27.001Z</time></trkpt><trkpt lat="44.1224367981586" lon="10.976640040032454"><ele>489.5</ele><time>2026-04-26T07:05:28.001Z</time></trkpt><trkpt lat="44.1225897959876" lon="10.976633645774044"><ele>494.0</ele><time>2026-04-26T07:05:29.001Z</time></trkpt><trkpt lat="44.122737260393805" lon="10.976655041536587"><ele>494.0</ele><time>2026-04-26T07:05:30.001Z</time></trkpt><trkpt lat="44.12289437759381" lon="10.976679444137696"><ele>494.0</ele><time>2026-04-26T07:05:31.001Z</time></trkpt><trkpt lat="44.12305317778632" lon="10.97670496130788"><ele>494.0</ele><time>2026-04-26T07:05:32.001Z</time></trkpt><trkpt lat="44.12319748348448" lon="10.976765218099473"><ele>481.75</ele><time>2026-04-26T07:05:33.001Z</time></trkpt><trkpt lat="44.12333599822185" lon="10.976826446461876"><ele>469.5</ele><time>2026-04-26T07:05:34.001Z</time></trkpt><trkpt lat="44.12345330943586" lon="10.97689536171765"><ele>457.25</ele><time>2026-04-26T07:05:35.001Z</time></trkpt><trkpt lat="44.1235711305882" lon="10.976963767756315"><ele>445.0</ele><time>2026-04-26T07:05:36.001Z</time></trkpt><trkpt lat="44.12366490144105" lon="10.977026542676528"><ele>445.0</ele><time>2026-04-26T07:05:37.001Z</time></trkpt><trkpt lat="44.123736194386616" lon="10.977139492341777"><ele>445.0</ele><time>2026-04-26T07:05:38.001Z</time></trkpt><trkpt lat="44.12379952010821" lon="10.97721973203418"><ele>445.0</ele><time>2026-04-26T07:05:39.001Z</time></trkpt><trkpt lat="44.123878782280215" lon="10.977276587329879"><ele>445.0</ele><time>2026-04-26T07:05:40.001Z</time></trkpt><trkpt lat="44.123957873378686" lon="10.977257912633535"><ele>445.0</ele><time>2026-04-26T07:05:41.001Z</time></trkpt><trkpt lat="44.12404818644802" lon="10.977208213544694"><ele>451.0</ele><time>2026-04-26T07:05:42.001Z</time></trkpt><trkpt lat="44.1241342651569" lon="10.977144572870465"><ele>457.0</ele><time>2026-04-26T07:05:43.001Z</time></trkpt><trkpt lat="44.124220012628975" lon="10.97713502697432"><ele>463.0</ele><time>2026-04-26T07:05:44.001Z</time></trkpt><trkpt lat="44.124285318348285" lon="10.977198828964475"><ele>469.0</ele><time>2026-04-26T07:05:45.001Z</time></trkpt><trkpt lat="44.12430728001084" lon="10.977312344683478"><ele>475.0</ele><time>2026-04-26T07:05:46.001Z</time></trkpt><trkpt lat="44.124322978755956" lon="10.977462628846192"><ele>474.5</ele><time>2026-04-26T07:05:47.001Z</time></trkpt><trkpt lat="44.12429082278233" lon="10.977604034148714"><ele>474.0</ele><time>2026-04-26T07:05:48.001Z</time></trkpt><trkpt lat="44.12423985849311" lon="10.977745825280447"><ele>473.5</ele><time>2026-04-26T07:05:49.001Z</time></trkpt><trkpt lat="44.124197633099" lon="10.977911929746904"><ele>473.0</ele><time>2026-04-26T07:05:50.001Z</time></trkpt><trkpt lat="44.124123964130746" lon="10.978045054546577"><ele>464.2</ele><time>2026-04-26T07:05:51.001Z</time></trkpt><trkpt lat="44.124043700961295" lon="10.978131257384701"><ele>455.4</ele><time>2026-04-26T07:05:52.001Z</time></trkpt><trkpt lat="44.123955164220476" lon="10.978206096534418"><ele>446.59999999999997</ele><time>2026-04-26T07:05:53.001Z</time></trkpt><trkpt lat="44.12393030699089" lon="10.978297715109997"><ele>437.79999999999995</ele><time>2026-04-26T07:05:54.001Z</time></trkpt><trkpt lat="44.12393650183541" lon="10.978447607940515"><ele>429.0</ele><time>2026-04-26T07:05:55.001Z</time></trkpt><trkpt lat="44.123950224076374" lon="10.97866185022136"><ele>428.33333333333337</ele><time>2026-04-26T07:05:56.001Z</time></trkpt><trkpt lat="44.12396622560823" lon="10.97886358284583"><ele>427.6666666666667</ele><time>2026-04-26T07:05:57.001Z</time></trkpt><trkpt lat="44.12397529175253" lon="10.979077256678327"><ele>427.0</ele><time>2026-04-26T07:05:58.001Z</time></trkpt><trkpt lat="44.12398367192523" lon="10.979292770631178"><ele>426.6666666666667</ele><time>2026-04-26T07:05:59.001Z</time></trkpt><trkpt lat="44.1239901215548" lon="10.979527786106642"><ele>426.33333333333337</ele><time>2026-04-26T07:06:00.001Z</time></trkpt><trkpt lat="44.12398140665257" lon="10.979754029630007"><ele>426.0</ele><time>2026-04-26T07:06:01.001Z</time></trkpt><trkpt lat="44.123962875730996" lon="10.979965203115627"><ele>426.25</ele><time>2026-04-26T07:06:02.001Z</time></trkpt><trkpt lat="44.12393802181151" lon="10.980152838880546"><ele>426.5</ele><time>2026-04-26T07:06:03.001Z</time></trkpt><trkpt lat="44.12392679935559" lon="10.980364238243618"><ele>426.75</ele><time>2026-04-26T07:06:04.001Z</time></trkpt><trkpt lat="44.12389913768887" lon="10.980543536778658"><ele>427.0</ele><time>2026-04-26T07:06:05.001Z</time></trkpt><trkpt lat="44.123857632638426" lon="10.980712901858523"><ele>427.0</ele><time>2026-04-26T07:06:06.001Z</time></trkpt><trkpt lat="44.12379986070395" lon="10.980832955676005"><ele>427.00000000000006</ele><time>2026-04-26T07:06:07.001Z</time></trkpt><trkpt lat="44.12376737973574" lon="10.980944089936568"><ele>427.00000000000006</ele><time>2026-04-26T07:06:08.001Z</time></trkpt><trkpt lat="44.12373988618725" lon="10.981067305384832"><ele>427.0</ele><time>2026-04-26T07:06:09.001Z</time></trkpt><trkpt lat="44.12376940001237" lon="10.981192637166108"><ele>427.0</ele><time>2026-04-26T07:06:10.001Z</time></trkpt><trkpt lat="44.123842998207245" lon="10.981310090063914"><ele>426.5</ele><time>2026-04-26T07:06:11.001Z</time></trkpt><trkpt lat="44.12394461105931" lon="10.981414270768362"><ele>426.0</ele><time>2026-04-26T07:06:12.001Z</time></trkpt><trkpt lat="44.12406106396841" lon="10.981512541996606"><ele>425.5</ele><time>2026-04-26T07:06:13.001Z</time></trkpt><trkpt lat="44.124182000452876" lon="10.981612905421086"><ele>425.0</ele><time>2026-04-26T07:06:14.001Z</time></trkpt><trkpt lat="44.124302679229196" lon="10.981728515924704"><ele>423.0</ele><time>2026-04-26T07:06:15.001Z</time></trkpt><trkpt lat="44.12441920411193" lon="10.981829699572735"><ele>421.0</ele><time>2026-04-26T07:06:16.001Z</time></trkpt><trkpt lat="44.124557587796545" lon="10.98192362147065"><ele>419.0</ele><time>2026-04-26T07:06:17.001Z</time></trkpt><trkpt lat="44.12471946582083" lon="10.982019212209241"><ele>419.0</ele><time>2026-04-26T07:06:18.001Z</time></trkpt><trkpt lat="44.12486827854821" lon="10.982092779803654"><ele>419.0</ele><time>2026-04-26T07:06:19.001Z</time></trkpt><trkpt lat="44.12498519144636" lon="10.982172593957102"><ele>419.0</ele><time>2026-04-26T07:06:20.001Z</time></trkpt><trkpt lat="44.125063359439565" lon="10.982242424029412"><ele>419.0</ele><time>2026-04-26T07:06:21.001Z</time></trkpt><trkpt lat="44.12514257594798" lon="10.982345255827559"><ele>418.75</ele><time>2026-04-26T07:06:22.001Z</time></trkpt><trkpt lat="44.12520756664062" lon="10.982492589713042"><ele>418.5</ele><time>2026-04-26T07:06:23.001Z</time></trkpt><trkpt lat="44.1252527677721" lon="10.982685553229544"><ele>418.25</ele><time>2026-04-26T07:06:24.001Z</time></trkpt><trkpt lat="44.12529827125121" lon="10.98288247090592"><ele>418.0</ele><time>2026-04-26T07:06:25.001Z</time></trkpt><trkpt lat="44.1253451142792" lon="10.983068232811885"><ele>418.0</ele><time>2026-04-26T07:06:26.001Z</time></trkpt><trkpt lat="44.12537800954931" lon="10.98321833235929"><ele>418.0</ele><time>2026-04-26T07:06:27.001Z</time></trkpt><trkpt lat="44.12541048288186" lon="10.983332857891979"><ele>418.0</ele><time>2026-04-26T07:06:28.001Z</time></trkpt><trkpt lat="44.12544866528945" lon="10.983444049237397"><ele>418.0</ele><time>2026-04-26T07:06:29.001Z</time></trkpt><trkpt lat="44.12553776306469" lon="10.98354214045385"><ele>418.0</ele><time>2026-04-26T07:06:30.001Z</time></trkpt><trkpt lat="44.125639036168" lon="10.983615271106137"><ele>420.59999999999997</ele><time>2026-04-26T07:06:31.001Z</time></trkpt><trkpt lat="44.125698889824235" lon="10.983704746978258"><ele>423.2</ele><time>2026-04-26T07:06:32.001Z</time></trkpt><trkpt lat="44.1257196474011" lon="10.983850323305086"><ele>425.8</ele><time>2026-04-26T07:06:33.001Z</time></trkpt><trkpt lat="44.125719279512005" lon="10.984014370337496"><ele>428.4</ele><time>2026-04-26T07:06:34.001Z</time></trkpt><trkpt lat="44.1256943530212" lon="10.984186954791088"><ele>431.0</ele><time>2026-04-26T07:06:35.001Z</time></trkpt><trkpt lat="44.12568362021203" lon="10.984377912932331"><ele>426.66666666666663</ele><time>2026-04-26T07:06:36.001Z</time></trkpt><trkpt lat="44.12570025578773" lon="10.984595819411823"><ele>422.33333333333337</ele><time>2026-04-26T07:06:37.001Z</time></trkpt><trkpt lat="44.12571956938521" lon="10.98481661986192"><ele>418.0</ele><time>2026-04-26T07:06:38.001Z</time></trkpt><trkpt lat="44.125734441750744" lon="10.985033206337658"><ele>418.0</ele><time>2026-04-26T07:06:39.001Z</time></trkpt><trkpt lat="44.125744214888705" lon="10.985241731097307"><ele>418.0</ele><time>2026-04-26T07:06:40.001Z</time></trkpt><trkpt lat="44.125788232021144" lon="10.985441716301292"><ele>418.0</ele><time>2026-04-26T07:06:41.001Z</time></trkpt><trkpt lat="44.12584188090085" lon="10.985624204450273"><ele>418.0</ele><time>2026-04-26T07:06:42.001Z</time></trkpt><trkpt lat="44.12587729639056" lon="10.985784110525234"><ele>416.0</ele><time>2026-04-26T07:06:43.001Z</time></trkpt><trkpt lat="44.12593800619037" lon="10.985935169243549"><ele>414.0</ele><time>2026-04-26T07:06:44.001Z</time></trkpt><trkpt lat="44.12600180987186" lon="10.986053772763935"><ele>412.0</ele><time>2026-04-26T07:06:45.001Z</time></trkpt><trkpt lat="44.126095556654406" lon="10.986180297237809"><ele>410.0</ele><time>2026-04-26T07:06:46.001Z</time></trkpt><trkpt lat="44.12622048548292" lon="10.986309825105769"><ele>410.0</ele><time>2026-04-26T07:06:47.001Z</time></trkpt><trkpt lat="44.12637401829862" lon="10.986445321700836"><ele>410.0</ele><time>2026-04-26T07:06:48.001Z</time></trkpt><trkpt lat="44.126521166073424" lon="10.986576638246301"><ele>410.0</ele><time>2026-04-26T07:06:49.001Z</time></trkpt><trkpt lat="44.12665908542537" lon="10.986700239735306"><ele>408.5</ele><time>2026-04-26T07:06:50.001Z</time></trkpt><trkpt lat="44.126790979523776" lon="10.98681689658328"><ele>407.0</ele><time>2026-04-26T07:06:51.001Z</time></trkpt><trkpt lat="44.126900878234835" lon="10.986915308136801"><ele>405.5</ele><time>2026-04-26T07:06:52.001Z</time></trkpt><trkpt lat="44.12700022283858" lon="10.986979115488198"><ele>404.0</ele><time>2026-04-26T07:06:53.001Z</time></trkpt><trkpt lat="44.127091614026995" lon="10.987084038936423"><ele>404.0</ele><time>2026-04-26T07:06:54.001Z</time></trkpt><trkpt lat="44.12718092622125" lon="10.987208784194452"><ele>404.0</ele><time>2026-04-26T07:06:55.001Z</time></trkpt><trkpt lat="44.12726656848059" lon="10.98734153742278"><ele>404.0</ele><time>2026-04-26T07:06:56.001Z</time></trkpt><trkpt lat="44.12735255827411" lon="10.987477904834748"><ele>404.0</ele><time>2026-04-26T07:06:57.001Z</time></trkpt><trkpt lat="44.1274377731523" lon="10.987598992288849"><ele>403.0</ele><time>2026-04-26T07:06:58.001Z</time></trkpt><trkpt lat="44.1275188914881" lon="10.987720477671273"><ele>402.0</ele><time>2026-04-26T07:06:59.001Z</time></trkpt><trkpt lat="44.127604828071746" lon="10.98782071348457"><ele>401.0</ele><time>2026-04-26T07:07:00.001Z</time></trkpt><trkpt lat="44.12770117219875" lon="10.987891152543318"><ele>400.0</ele><time>2026-04-26T07:07:01.001Z</time></trkpt><trkpt lat="44.12781469395513" lon="10.987959062953456"><ele>400.0</ele><time>2026-04-26T07:07:02.001Z</time></trkpt><trkpt lat="44.12792914824283" lon="10.988057213065414"><ele>400.0</ele><time>2026-04-26T07:07:03.001Z</time></trkpt><trkpt lat="44.12802224741001" lon="10.988189948126175"><ele>400.0</ele><time>2026-04-26T07:07:04.001Z</time></trkpt><trkpt lat="44.1281085035947" lon="10.988357816423651"><ele>400.0</ele><time>2026-04-26T07:07:05.001Z</time></trkpt><trkpt lat="44.12818569616269" lon="10.988556152702673"><ele>400.33333333333337</ele><time>2026-04-26T07:07:06.001Z</time></trkpt><trkpt lat="44.12826972811845" lon="10.988759136831623"><ele>400.66666666666663</ele><time>2026-04-26T07:07:07.001Z</time></trkpt><trkpt lat="44.12834279723978" lon="10.988954330080825"><ele>401.0</ele><time>2026-04-26T07:07:08.001Z</time></trkpt><trkpt lat="44.128423569908655" lon="10.989162873088633"><ele>399.5</ele><time>2026-04-26T07:07:09.001Z</time></trkpt><trkpt lat="44.12851005975297" lon="10.989348256280051"><ele>398.0</ele><time>2026-04-26T07:07:10.001Z</time></trkpt><trkpt lat="44.12857548666051" lon="10.989513686643006"><ele>396.5</ele><time>2026-04-26T07:07:11.001Z</time></trkpt><trkpt lat="44.12863058475276" lon="10.989650555360456"><ele>395.0</ele><time>2026-04-26T07:07:12.001Z</time></trkpt><trkpt lat="44.128674351486346" lon="10.989765182987702"><ele>395.0</ele><time>2026-04-26T07:07:13.001Z</time></trkpt><trkpt lat="44.128729436473854" lon="10.989894182546866"><ele>395.0</ele><time>2026-04-26T07:07:14.001Z</time></trkpt><trkpt lat="44.12878381932447" lon="10.99001915997789"><ele>395.0</ele><time>2026-04-26T07:07:15.001Z</time></trkpt><trkpt lat="44.12883930015636" lon="10.990145533804219"><ele>395.0</ele><time>2026-04-26T07:07:16.001Z</time></trkpt><trkpt lat="44.12889333059648" lon="10.990286543703728"><ele>395.0</ele><time>2026-04-26T07:07:17.001Z</time></trkpt><trkpt lat="44.12894520021077" lon="10.990413299897586"><ele>395.25</ele><time>2026-04-26T07:07:18.001Z</time></trkpt><trkpt lat="44.12899383956945" lon="10.99054348292692"><ele>395.5</ele><time>2026-04-26T07:07:19.001Z</time></trkpt><trkpt lat="44.129053048953296" lon="10.990683606781959"><ele>395.75</ele><time>2026-04-26T07:07:20.001Z</time></trkpt><trkpt lat="44.129096396044034" lon="10.99084072680884"><ele>396.0</ele><time>2026-04-26T07:07:21.001Z</time></trkpt><trkpt lat="44.129127186983155" lon="10.990987893931147"><ele>396.5</ele><time>2026-04-26T07:07:22.001Z</time></trkpt><trkpt lat="44.12917090673237" lon="10.99112043654209"><ele>397.0</ele><time>2026-04-26T07:07:23.001Z</time></trkpt><trkpt lat="44.12919757603115" lon="10.991237903662462"><ele>397.5</ele><time>2026-04-26T07:07:24.001Z</time></trkpt><trkpt lat="44.129223360678694" lon="10.991325474168582"><ele>398.0</ele><time>2026-04-26T07:07:25.001Z</time></trkpt><trkpt lat="44.129234249123336" lon="10.991463531826033"><ele>398.5</ele><time>2026-04-26T07:07:27.001Z</time></trkpt><trkpt lat="44.129233353934374" lon="10.991561091373702"><ele>399.0</ele><time>2026-04-26T07:07:29.001Z</time></trkpt><trkpt lat="44.12912698272386" lon="10.991657528064719"><ele>399.6</ele><time>2026-04-26T07:07:31.001Z</time></trkpt><trkpt lat="44.129027389250986" lon="10.99168456265722"><ele>400.2</ele><time>2026-04-26T07:07:32.001Z</time></trkpt><trkpt lat="44.12893117279085" lon="10.99172386843205"><ele>400.8</ele><time>2026-04-26T07:07:33.001Z</time></trkpt><trkpt lat="44.128836293393555" lon="10.991762309194877"><ele>401.40000000000003</ele><time>2026-04-26T07:07:34.001Z</time></trkpt><trkpt lat="44.1287510412854" lon="10.991772852058935"><ele>402.0</ele><time>2026-04-26T07:07:35.001Z</time></trkpt><trkpt lat="44.128663841386455" lon="10.991789945796436"><ele>402.0</ele><time>2026-04-26T07:07:36.001Z</time></trkpt><trkpt lat="44.12858198124587" lon="10.991815051737353"><ele>402.0</ele><time>2026-04-26T07:07:37.001Z</time></trkpt><trkpt lat="44.128504772363115" lon="10.991818587058766"><ele>402.0</ele><time>2026-04-26T07:07:38.001Z</time></trkpt><trkpt lat="44.12843764320783" lon="10.991835361177136"><ele>402.0</ele><time>2026-04-26T07:07:39.001Z</time></trkpt><trkpt lat="44.128372687568245" lon="10.991850291588861"><ele>402.0</ele><time>2026-04-26T07:07:40.001Z</time></trkpt><trkpt lat="44.12830463391496" lon="10.991874833543822"><ele>402.0</ele><time>2026-04-26T07:07:41.001Z</time></trkpt><trkpt lat="44.12824447066381" lon="10.991911443699404"><ele>402.0</ele><time>2026-04-26T07:07:42.001Z</time></trkpt><trkpt lat="44.1281912972463" lon="10.991974453198052"><ele>405.1666666666667</ele><time>2026-04-26T07:07:43.001Z</time></trkpt><trkpt lat="44.12814897182903" lon="10.992059233881713"><ele>408.33333333333337</ele><time>2026-04-26T07:07:44.001Z</time></trkpt><trkpt lat="44.1281239325115" lon="10.992185044767162"><ele>411.5</ele><time>2026-04-26T07:07:45.001Z</time></trkpt><trkpt lat="44.128106956724906" lon="10.992301348257312"><ele>414.6666666666667</ele><time>2026-04-26T07:07:46.001Z</time></trkpt><trkpt lat="44.128111690125785" lon="10.992423009108299"><ele>417.83333333333337</ele><time>2026-04-26T07:07:47.001Z</time></trkpt><trkpt lat="44.12812530801216" lon="10.992536479097906"><ele>421.0</ele><time>2026-04-26T07:07:48.001Z</time></trkpt><trkpt lat="44.128136741054135" lon="10.992640892126255"><ele>421.00000000000006</ele><time>2026-04-26T07:07:49.001Z</time></trkpt><trkpt lat="44.128151470120834" lon="10.992734311406057"><ele>421.0</ele><time>2026-04-26T07:07:50.001Z</time></trkpt><trkpt lat="44.12815704378963" lon="10.992836475401575"><ele>421.0</ele><time>2026-04-26T07:07:51.001Z</time></trkpt><trkpt lat="44.128152217985715" lon="10.99294923658027"><ele>421.0</ele><time>2026-04-26T07:07:52.001Z</time></trkpt><trkpt lat="44.12812717094081" lon="10.993048402988448"><ele>421.00000000000006</ele><time>2026-04-26T07:07:53.001Z</time></trkpt><trkpt lat="44.128101233351124" lon="10.993161007561364"><ele>421.0</ele><time>2026-04-26T07:07:54.001Z</time></trkpt><trkpt lat="44.12806864785612" lon="10.993264986907942"><ele>422.4</ele><time>2026-04-26T07:07:55.001Z</time></trkpt><trkpt lat="44.12803700589187" lon="10.993349514719158"><ele>423.8</ele><time>2026-04-26T07:07:56.001Z</time></trkpt><trkpt lat="44.127982625958126" lon="10.993485878041348"><ele>425.19999999999993</ele><time>2026-04-26T07:07:58.001Z</time></trkpt><trkpt lat="44.12802237468039" lon="10.993629867192075"><ele>426.59999999999997</ele><time>2026-04-26T07:08:00.001Z</time></trkpt><trkpt lat="44.128057553961376" lon="10.993764336629727"><ele>428.0</ele><time>2026-04-26T07:08:02.001Z</time></trkpt><trkpt lat="44.12803491563364" lon="10.993877327069816"><ele>428.0</ele><time>2026-04-26T07:08:03.001Z</time></trkpt><trkpt lat="44.128019951515455" lon="10.993989350841435"><ele>427.99999999999994</ele><time>2026-04-26T07:08:04.001Z</time></trkpt><trkpt lat="44.12801088288755" lon="10.994127962520913"><ele>427.99999999999994</ele><time>2026-04-26T07:08:05.001Z</time></trkpt><trkpt lat="44.12801917770696" lon="10.994281574811366"><ele>428.0</ele><time>2026-04-26T07:08:06.001Z</time></trkpt><trkpt lat="44.12805858827599" lon="10.994429337256062"><ele>428.0</ele><time>2026-04-26T07:08:07.001Z</time></trkpt><trkpt lat="44.12811740259936" lon="10.99456422343343"><ele>430.0</ele><time>2026-04-26T07:08:08.001Z</time></trkpt><trkpt lat="44.128189811812504" lon="10.994696724976455"><ele>432.0</ele><time>2026-04-26T07:08:09.001Z</time></trkpt><trkpt lat="44.12827183433662" lon="10.994840850496317"><ele>434.0</ele><time>2026-04-26T07:08:10.001Z</time></trkpt><trkpt lat="44.1283335518075" lon="10.994983399090778"><ele>436.0</ele><time>2026-04-26T07:08:11.001Z</time></trkpt><trkpt lat="44.128409720821246" lon="10.995079780936422"><ele>430.8</ele><time>2026-04-26T07:08:12.001Z</time></trkpt><trkpt lat="44.128476005768036" lon="10.995168456631415"><ele>425.6</ele><time>2026-04-26T07:08:13.001Z</time></trkpt><trkpt lat="44.12852755759729" lon="10.995273729351617"><ele>420.4</ele><time>2026-04-26T07:08:14.001Z</time></trkpt><trkpt lat="44.12857497635989" lon="10.99541653923924"><ele>415.2</ele><time>2026-04-26T07:08:15.001Z</time></trkpt><trkpt lat="44.128614137939806" lon="10.995591450462511"><ele>410.0</ele><time>2026-04-26T07:08:16.001Z</time></trkpt><trkpt lat="44.12864623441498" lon="10.995770962627688"><ele>408.25</ele><time>2026-04-26T07:08:17.001Z</time></trkpt><trkpt lat="44.12867309598005" lon="10.995950649049844"><ele>406.5</ele><time>2026-04-26T07:08:18.001Z</time></trkpt><trkpt lat="44.12870388500359" lon="10.996127549474167"><ele>404.75</ele><time>2026-04-26T07:08:19.001Z</time></trkpt><trkpt lat="44.12870647332263" lon="10.996326862945775"><ele>403.0</ele><time>2026-04-26T07:08:20.001Z</time></trkpt><trkpt lat="44.128702769320455" lon="10.996522153120825"><ele>400.5</ele><time>2026-04-26T07:08:21.001Z</time></trkpt><trkpt lat="44.12868430756531" lon="10.996698001879018"><ele>398.0</ele><time>2026-04-26T07:08:22.001Z</time></trkpt><trkpt lat="44.128667651234764" lon="10.996866080792717"><ele>395.5</ele><time>2026-04-26T07:08:23.001Z</time></trkpt><trkpt lat="44.12862763644405" lon="10.997032692062517"><ele>393.0</ele><time>2026-04-26T07:08:24.001Z</time></trkpt><trkpt lat="44.128567197653304" lon="10.997195192013184"><ele>393.0</ele><time>2026-04-26T07:08:25.001Z</time></trkpt><trkpt lat="44.12849842556548" lon="10.9973476488932"><ele>393.0</ele><time>2026-04-26T07:08:26.001Z</time></trkpt><trkpt lat="44.1284528962678" lon="10.997468771965515"><ele>393.0</ele><time>2026-04-26T07:08:27.001Z</time></trkpt><trkpt lat="44.12844894456215" lon="10.997562146781208"><ele>393.0</ele><time>2026-04-26T07:08:28.001Z</time></trkpt><trkpt lat="44.12847360564062" lon="10.997646137110832"><ele>393.0</ele><time>2026-04-26T07:08:29.001Z</time></trkpt><trkpt lat="44.128538010455756" lon="10.997727458220668"><ele>393.0</ele><time>2026-04-26T07:08:30.001Z</time></trkpt><trkpt lat="44.128636507968" lon="10.997826562561714"><ele>393.0</ele><time>2026-04-26T07:08:31.001Z</time></trkpt><trkpt lat="44.12876207976448" lon="10.997923310932832"><ele>393.0</ele><time>2026-04-26T07:08:32.001Z</time></trkpt><trkpt lat="44.128889586945206" lon="10.998028330534238"><ele>393.0</ele><time>2026-04-26T07:08:33.001Z</time></trkpt><trkpt lat="44.12902791177345" lon="10.998120222243074"><ele>393.0</ele><time>2026-04-26T07:08:34.001Z</time></trkpt><trkpt lat="44.12915507858544" lon="10.998228475524256"><ele>394.25</ele><time>2026-04-26T07:08:35.001Z</time></trkpt><trkpt lat="44.12927387343123" lon="10.998309641706017"><ele>395.5</ele><time>2026-04-26T07:08:36.001Z</time></trkpt><trkpt lat="44.12938282229107" lon="10.99837061470503"><ele>396.75</ele><time>2026-04-26T07:08:37.001Z</time></trkpt><trkpt lat="44.1295175322563" lon="10.998356481839574"><ele>398.0</ele><time>2026-04-26T07:08:38.001Z</time></trkpt><trkpt lat="44.12964637500846" lon="10.998347959772504"><ele>400.75</ele><time>2026-04-26T07:08:39.001Z</time></trkpt><trkpt lat="44.12978120012949" lon="10.998354692255159"><ele>403.5</ele><time>2026-04-26T07:08:40.001Z</time></trkpt><trkpt lat="44.12991840301155" lon="10.998328998830013"><ele>406.25</ele><time>2026-04-26T07:08:41.001Z</time></trkpt><trkpt lat="44.130051514705734" lon="10.998277382256092"><ele>409.0</ele><time>2026-04-26T07:08:42.001Z</time></trkpt><trkpt lat="44.130184190845426" lon="10.99818384567135"><ele>409.0</ele><time>2026-04-26T07:08:43.001Z</time></trkpt><trkpt lat="44.130324330306074" lon="10.99809885675821"><ele>409.0</ele><time>2026-04-26T07:08:44.001Z</time></trkpt><trkpt lat="44.13046939161335" lon="10.998009879299055"><ele>409.0</ele><time>2026-04-26T07:08:45.001Z</time></trkpt><trkpt lat="44.130603312577094" lon="10.997928336730157"><ele>415.0</ele><time>2026-04-26T07:08:46.001Z</time></trkpt><trkpt lat="44.13074329582017" lon="10.997843704802778"><ele>421.0</ele><time>2026-04-26T07:08:47.001Z</time></trkpt><trkpt lat="44.13089100608956" lon="10.997760311517215"><ele>427.0</ele><time>2026-04-26T07:08:48.001Z</time></trkpt><trkpt lat="44.13102874266785" lon="10.997670605147263"><ele>427.0</ele><time>2026-04-26T07:08:49.001Z</time></trkpt><trkpt lat="44.13118133393745" lon="10.997591359300639"><ele>427.0</ele><time>2026-04-26T07:08:50.001Z</time></trkpt><trkpt lat="44.131318416006" lon="10.997491818693513"><ele>427.0</ele><time>2026-04-26T07:08:51.001Z</time></trkpt><trkpt lat="44.13145310223257" lon="10.997392319634995"><ele>427.5</ele><time>2026-04-26T07:08:52.001Z</time></trkpt><trkpt lat="44.13158105689953" lon="10.997298612273132"><ele>428.0</ele><time>2026-04-26T07:08:53.001Z</time></trkpt><trkpt lat="44.13171669490389" lon="10.997200617702356"><ele>428.5</ele><time>2026-04-26T07:08:54.001Z</time></trkpt><trkpt lat="44.13183979521039" lon="10.99711054222525"><ele>429.0</ele><time>2026-04-26T07:08:55.001Z</time></trkpt><trkpt lat="44.13195680678579" lon="10.996997956886478"><ele>429.0</ele><time>2026-04-26T07:08:56.001Z</time></trkpt><trkpt lat="44.132059707925414" lon="10.996933203384822"><ele>429.0</ele><time>2026-04-26T07:08:57.001Z</time></trkpt><trkpt lat="44.132168372332615" lon="10.996878300466417"><ele>429.0</ele><time>2026-04-26T07:08:58.001Z</time></trkpt><trkpt lat="44.13229882034876" lon="10.996865087999533"><ele>429.0</ele><time>2026-04-26T07:08:59.001Z</time></trkpt><trkpt lat="44.13242969101428" lon="10.996878368612427"><ele>431.75</ele><time>2026-04-26T07:09:00.001Z</time></trkpt><trkpt lat="44.13256303016055" lon="10.996935590473644"><ele>434.5</ele><time>2026-04-26T07:09:01.001Z</time></trkpt><trkpt lat="44.13269657530546" lon="10.996999491771398"><ele>437.25</ele><time>2026-04-26T07:09:02.001Z</time></trkpt><trkpt lat="44.13282989453344" lon="10.997060439375781"><ele>440.0</ele><time>2026-04-26T07:09:03.001Z</time></trkpt><trkpt lat="44.132970486231464" lon="10.99713418637527"><ele>440.0</ele><time>2026-04-26T07:09:04.001Z</time></trkpt><trkpt lat="44.13310079438825" lon="10.997198404272744"><ele>440.0</ele><time>2026-04-26T07:09:05.001Z</time></trkpt><trkpt lat="44.133214964683695" lon="10.997298503588294"><ele>440.0</ele><time>2026-04-26T07:09:06.001Z</time></trkpt><trkpt lat="44.13332884598468" lon="10.997413071770726"><ele>440.0</ele><time>2026-04-26T07:09:07.001Z</time></trkpt><trkpt lat="44.13343113940631" lon="10.997525097890417"><ele>440.5</ele><time>2026-04-26T07:09:08.001Z</time></trkpt><trkpt lat="44.13349715042845" lon="10.997648610356373"><ele>441.0</ele><time>2026-04-26T07:09:09.001Z</time></trkpt><trkpt lat="44.13353728032602" lon="10.997789985388236"><ele>441.5</ele><time>2026-04-26T07:09:10.001Z</time></trkpt><trkpt lat="44.13356282911237" lon="10.997959767733139"><ele>442.0</ele><time>2026-04-26T07:09:11.001Z</time></trkpt><trkpt lat="44.133560084073494" lon="10.998137874459314"><ele>445.0</ele><time>2026-04-26T07:09:12.001Z</time></trkpt><trkpt lat="44.13354098382908" lon="10.998341427802957"><ele>448.0</ele><time>2026-04-26T07:09:13.001Z</time></trkpt><trkpt lat="44.133523279985354" lon="10.99855255836066"><ele>451.0</ele><time>2026-04-26T07:09:14.001Z</time></trkpt><trkpt lat="44.13350495219971" lon="10.998770782923014"><ele>451.0</ele><time>2026-04-26T07:09:15.001Z</time></trkpt><trkpt lat="44.13348858019183" lon="10.999010508421204"><ele>451.0</ele><time>2026-04-26T07:09:16.001Z</time></trkpt><trkpt lat="44.1334730959135" lon="10.999249467329753"><ele>451.0</ele><time>2026-04-26T07:09:17.001Z</time></trkpt><trkpt lat="44.13347434132498" lon="10.99949651859549"><ele>452.33333333333337</ele><time>2026-04-26T07:09:18.001Z</time></trkpt><trkpt lat="44.1334681566289" lon="10.999732631439036"><ele>453.66666666666663</ele><time>2026-04-26T07:09:19.001Z</time></trkpt><trkpt lat="44.13348424807071" lon="10.999983315378449"><ele>455.0</ele><time>2026-04-26T07:09:20.001Z</time></trkpt><trkpt lat="44.13349542219632" lon="11.000219885218181"><ele>455.0</ele><time>2026-04-26T07:09:21.001Z</time></trkpt><trkpt lat="44.13352704324087" lon="11.000435901733614"><ele>455.0</ele><time>2026-04-26T07:09:22.001Z</time></trkpt><trkpt lat="44.13355966747834" lon="11.000625372919929"><ele>455.0</ele><time>2026-04-26T07:09:23.001Z</time></trkpt><trkpt lat="44.13359647708266" lon="11.000775352753864"><ele>455.0</ele><time>2026-04-26T07:09:24.001Z</time></trkpt><trkpt lat="44.13365378098146" lon="11.000882739463602"><ele>455.0</ele><time>2026-04-26T07:09:25.001Z</time></trkpt><trkpt lat="44.133731349197944" lon="11.000955192083714"><ele>455.0</ele><time>2026-04-26T07:09:26.001Z</time></trkpt><trkpt lat="44.13382542363084" lon="11.000961027536475"><ele>455.0</ele><time>2026-04-26T07:09:27.001Z</time></trkpt><trkpt lat="44.13393158816263" lon="11.00093185769412"><ele>455.0</ele><time>2026-04-26T07:09:28.001Z</time></trkpt><trkpt lat="44.1340349235197" lon="11.000854743914699"><ele>455.0</ele><time>2026-04-26T07:09:29.001Z</time></trkpt><trkpt lat="44.13413271593889" lon="11.000736542242977"><ele>455.0</ele><time>2026-04-26T07:09:30.001Z</time></trkpt><trkpt lat="44.134227702518494" lon="11.000615395191236"><ele>455.0</ele><time>2026-04-26T07:09:31.001Z</time></trkpt><trkpt lat="44.13430571188994" lon="11.000523621656951"><ele>455.0</ele><time>2026-04-26T07:09:32.001Z</time></trkpt><trkpt lat="44.13438128808626" lon="11.000480928374703"><ele>455.0</ele><time>2026-04-26T07:09:33.001Z</time></trkpt><trkpt lat="44.1344517839189" lon="11.000481284218237"><ele>455.0</ele><time>2026-04-26T07:09:34.001Z</time></trkpt><trkpt lat="44.13450744591194" lon="11.000539302209878"><ele>455.0</ele><time>2026-04-26T07:09:35.001Z</time></trkpt><trkpt lat="44.134533899057914" lon="11.000646288342757"><ele>455.0</ele><time>2026-04-26T07:09:36.001Z</time></trkpt><trkpt lat="44.134524991525105" lon="11.000775254424495"><ele>455.0</ele><time>2026-04-26T07:09:37.001Z</time></trkpt><trkpt lat="44.13450557533007" lon="11.00091952295043"><ele>455.0</ele><time>2026-04-26T07:09:38.001Z</time></trkpt><trkpt lat="44.134487457768024" lon="11.001075461841978"><ele>455.0</ele><time>2026-04-26T07:09:39.001Z</time></trkpt><trkpt lat="44.1344870282926" lon="11.001263370880917"><ele>457.5</ele><time>2026-04-26T07:09:40.001Z</time></trkpt><trkpt lat="44.134495561118825" lon="11.00145531563716"><ele>460.0</ele><time>2026-04-26T07:09:41.001Z</time></trkpt><trkpt lat="44.13452401766273" lon="11.001663921149843"><ele>462.5</ele><time>2026-04-26T07:09:42.001Z</time></trkpt><trkpt lat="44.13452277863815" lon="11.001869580452038"><ele>465.0</ele><time>2026-04-26T07:09:43.001Z</time></trkpt><trkpt lat="44.13451188623878" lon="11.002023247184004"><ele>466.6666666666667</ele><time>2026-04-26T07:09:44.001Z</time></trkpt><trkpt lat="44.13448102374925" lon="11.002147603301928"><ele>468.33333333333337</ele><time>2026-04-26T07:09:45.001Z</time></trkpt><trkpt lat="44.13442550263008" lon="11.002203204857045"><ele>470.0</ele><time>2026-04-26T07:09:46.001Z</time></trkpt><trkpt lat="44.13434889572226" lon="11.002218160055374"><ele>471.6666666666667</ele><time>2026-04-26T07:09:47.001Z</time></trkpt><trkpt lat="44.134248596426104" lon="11.002208381121667"><ele>473.33333333333337</ele><time>2026-04-26T07:09:48.001Z</time></trkpt><trkpt lat="44.13415269166633" lon="11.002208103975056"><ele>475.0</ele><time>2026-04-26T07:09:49.001Z</time></trkpt><trkpt lat="44.13405083736713" lon="11.002250515645926"><ele>476.5</ele><time>2026-04-26T07:09:50.001Z</time></trkpt><trkpt lat="44.133953679944895" lon="11.002338373345975"><ele>478.0</ele><time>2026-04-26T07:09:51.001Z</time></trkpt><trkpt lat="44.13385448266466" lon="11.002441725361278"><ele>479.5</ele><time>2026-04-26T07:09:52.001Z</time></trkpt><trkpt lat="44.13375795587081" lon="11.002521497628326"><ele>481.0</ele><time>2026-04-26T07:09:53.001Z</time></trkpt><trkpt lat="44.13365748010564" lon="11.002548916152536"><ele>481.0</ele><time>2026-04-26T07:09:54.001Z</time></trkpt><trkpt lat="44.133561523312714" lon="11.002500323192773"><ele>481.0</ele><time>2026-04-26T07:09:55.001Z</time></trkpt><trkpt lat="44.13347177953558" lon="11.002405437530195"><ele>481.0</ele><time>2026-04-26T07:09:56.001Z</time></trkpt><trkpt lat="44.133383724383144" lon="11.00229809074291"><ele>481.0</ele><time>2026-04-26T07:09:57.001Z</time></trkpt><trkpt lat="44.13328156487331" lon="11.002197581402749"><ele>483.25</ele><time>2026-04-26T07:09:58.001Z</time></trkpt><trkpt lat="44.13317623842292" lon="11.002079771371227"><ele>485.5</ele><time>2026-04-26T07:09:59.001Z</time></trkpt><trkpt lat="44.13307952028014" lon="11.001963916729771"><ele>487.75</ele><time>2026-04-26T07:10:00.001Z</time></trkpt><trkpt lat="44.13299767965769" lon="11.001861607450312"><ele>490.0</ele><time>2026-04-26T07:10:01.001Z</time></trkpt><trkpt lat="44.13291573928214" lon="11.001790834353246"><ele>490.0</ele><time>2026-04-26T07:10:02.001Z</time></trkpt><trkpt lat="44.132814845236744" lon="11.001752333656047"><ele>490.0</ele><time>2026-04-26T07:10:03.001Z</time></trkpt><trkpt lat="44.13270213847113" lon="11.001738316688078"><ele>490.0</ele><time>2026-04-26T07:10:04.001Z</time></trkpt><trkpt lat="44.13260075515985" lon="11.001753201833116"><ele>490.0</ele><time>2026-04-26T07:10:05.001Z</time></trkpt><trkpt lat="44.13252125063172" lon="11.001818260862603"><ele>490.0</ele><time>2026-04-26T07:10:06.001Z</time></trkpt><trkpt lat="44.13244135955741" lon="11.001914017078791"><ele>490.75</ele><time>2026-04-26T07:10:07.001Z</time></trkpt><trkpt lat="44.13237300037795" lon="11.0020471254748"><ele>491.5</ele><time>2026-04-26T07:10:08.001Z</time></trkpt><trkpt lat="44.132312065434164" lon="11.002188609823547"><ele>492.25</ele><time>2026-04-26T07:10:09.001Z</time></trkpt><trkpt lat="44.13224058220606" lon="11.0023449827137"><ele>493.0</ele><time>2026-04-26T07:10:10.001Z</time></trkpt><trkpt lat="44.13213862549639" lon="11.002499803108726"><ele>493.0</ele><time>2026-04-26T07:10:11.001Z</time></trkpt><trkpt lat="44.132024953809626" lon="11.002641341484535"><ele>493.0</ele><time>2026-04-26T07:10:12.001Z</time></trkpt><trkpt lat="44.1319019686109" lon="11.002752792037368"><ele>493.0</ele><time>2026-04-26T07:10:13.001Z</time></trkpt><trkpt lat="44.13179150147388" lon="11.002847147060617"><ele>493.0</ele><time>2026-04-26T07:10:14.001Z</time></trkpt><trkpt lat="44.131711956174826" lon="11.002922689042531"><ele>493.0</ele><time>2026-04-26T07:10:15.001Z</time></trkpt><trkpt lat="44.131678800862126" lon="11.003022660166232"><ele>492.99999999999994</ele><time>2026-04-26T07:10:16.001Z</time></trkpt><trkpt lat="44.131683495891686" lon="11.003140683651278"><ele>492.99999999999994</ele><time>2026-04-26T07:10:17.001Z</time></trkpt><trkpt lat="44.13173823876611" lon="11.003264854243696"><ele>493.0</ele><time>2026-04-26T07:10:18.001Z</time></trkpt><trkpt lat="44.1318147753486" lon="11.00339544906919"><ele>493.0</ele><time>2026-04-26T07:10:19.001Z</time></trkpt><trkpt lat="44.131893683645" lon="11.003529172232607"><ele>495.2</ele><time>2026-04-26T07:10:20.001Z</time></trkpt><trkpt lat="44.13197513918747" lon="11.003652371871741"><ele>497.4</ele><time>2026-04-26T07:10:21.001Z</time></trkpt><trkpt lat="44.132031036338965" lon="11.003756686665843"><ele>499.59999999999997</ele><time>2026-04-26T07:10:22.001Z</time></trkpt><trkpt lat="44.13207183684573" lon="11.003856900506243"><ele>501.79999999999995</ele><time>2026-04-26T07:10:23.001Z</time></trkpt><trkpt lat="44.132090371235016" lon="11.003996567769352"><ele>504.0</ele><time>2026-04-26T07:10:24.001Z</time></trkpt><trkpt lat="44.132056767458266" lon="11.004155143075263"><ele>504.25</ele><time>2026-04-26T07:10:25.001Z</time></trkpt><trkpt lat="44.132033115237746" lon="11.004332201254023"><ele>504.5</ele><time>2026-04-26T07:10:26.001Z</time></trkpt><trkpt lat="44.13202553676804" lon="11.004517329303422"><ele>504.75</ele><time>2026-04-26T07:10:27.001Z</time></trkpt><trkpt lat="44.13202857674656" lon="11.004708040377587"><ele>505.0</ele><time>2026-04-26T07:10:28.001Z</time></trkpt><trkpt lat="44.13205358179019" lon="11.004902000459499"><ele>506.5</ele><time>2026-04-26T07:10:29.001Z</time></trkpt><trkpt lat="44.132061159768085" lon="11.00510035947578"><ele>508.0</ele><time>2026-04-26T07:10:30.001Z</time></trkpt><trkpt lat="44.1320710476962" lon="11.005309163713237"><ele>509.5</ele><time>2026-04-26T07:10:31.001Z</time></trkpt><trkpt lat="44.13208334645871" lon="11.005521615023106"><ele>511.0</ele><time>2026-04-26T07:10:32.001Z</time></trkpt><trkpt lat="44.13209653327055" lon="11.005734257926571"><ele>511.5</ele><time>2026-04-26T07:10:33.001Z</time></trkpt><trkpt lat="44.13209269495292" lon="11.005922320881957"><ele>512.0</ele><time>2026-04-26T07:10:34.001Z</time></trkpt><trkpt lat="44.13212955366583" lon="11.006104366150065"><ele>512.5</ele><time>2026-04-26T07:10:35.001Z</time></trkpt><trkpt lat="44.132195962406655" lon="11.00628657490456"><ele>513.0</ele><time>2026-04-26T07:10:36.001Z</time></trkpt><trkpt lat="44.13227099691002" lon="11.006459328600641"><ele>513.0</ele><time>2026-04-26T07:10:37.001Z</time></trkpt><trkpt lat="44.13236520718113" lon="11.006621902606632"><ele>513.0</ele><time>2026-04-26T07:10:38.001Z</time></trkpt><trkpt lat="44.132438010662604" lon="11.0067935016339"><ele>513.0</ele><time>2026-04-26T07:10:39.001Z</time></trkpt><trkpt lat="44.132537165631796" lon="11.006963035072605"><ele>516.25</ele><time>2026-04-26T07:10:40.001Z</time></trkpt><trkpt lat="44.13261851829789" lon="11.0071195403823"><ele>519.5</ele><time>2026-04-26T07:10:41.001Z</time></trkpt><trkpt lat="44.13267603568867" lon="11.007286847938907"><ele>522.75</ele><time>2026-04-26T07:10:42.001Z</time></trkpt><trkpt lat="44.13270816574774" lon="11.007471686657816"><ele>526.0</ele><time>2026-04-26T07:10:43.001Z</time></trkpt><trkpt lat="44.13273829103423" lon="11.007645607059978"><ele>526.0</ele><time>2026-04-26T07:10:44.001Z</time></trkpt><trkpt lat="44.1328058587099" lon="11.00782588979525"><ele>526.0</ele><time>2026-04-26T07:10:45.001Z</time></trkpt><trkpt lat="44.13289517607489" lon="11.007994403950711"><ele>526.0</ele><time>2026-04-26T07:10:46.001Z</time></trkpt><trkpt lat="44.13296326650181" lon="11.008167946252208"><ele>526.0</ele><time>2026-04-26T07:10:47.001Z</time></trkpt><trkpt lat="44.133016943654766" lon="11.008369371646118"><ele>526.3333333333334</ele><time>2026-04-26T07:10:48.001Z</time></trkpt><trkpt lat="44.13303178174151" lon="11.008585606495465"><ele>526.6666666666666</ele><time>2026-04-26T07:10:49.001Z</time></trkpt><trkpt lat="44.13303277462207" lon="11.008800444345724"><ele>527.0</ele><time>2026-04-26T07:10:50.001Z</time></trkpt><trkpt lat="44.13299937662921" lon="11.009007542101665"><ele>529.0</ele><time>2026-04-26T07:10:51.001Z</time></trkpt><trkpt lat="44.13295790685279" lon="11.009193830102014"><ele>531.0</ele><time>2026-04-26T07:10:52.001Z</time></trkpt><trkpt lat="44.13290797208439" lon="11.009378269249638"><ele>533.0</ele><time>2026-04-26T07:10:53.001Z</time></trkpt><trkpt lat="44.132840739345134" lon="11.009549854077223"><ele>535.0</ele><time>2026-04-26T07:10:54.001Z</time></trkpt><trkpt lat="44.13277289246862" lon="11.009720518358495"><ele>535.0</ele><time>2026-04-26T07:10:55.001Z</time></trkpt><trkpt lat="44.132703474192354" lon="11.009895540209202"><ele>535.0</ele><time>2026-04-26T07:10:56.001Z</time></trkpt><trkpt lat="44.1326338240519" lon="11.01007146266113"><ele>535.0</ele><time>2026-04-26T07:10:57.001Z</time></trkpt><trkpt lat="44.132556100661176" lon="11.010227099369573"><ele>535.0</ele><time>2026-04-26T07:10:58.001Z</time></trkpt><trkpt lat="44.132475183065154" lon="11.010341617194403"><ele>537.25</ele><time>2026-04-26T07:10:59.001Z</time></trkpt><trkpt lat="44.13236893470403" lon="11.010379805465917"><ele>539.5</ele><time>2026-04-26T07:11:00.001Z</time></trkpt><trkpt lat="44.1322636448657" lon="11.010416146322182"><ele>541.75</ele><time>2026-04-26T07:11:01.001Z</time></trkpt><trkpt lat="44.13213290792095" lon="11.010448268230343"><ele>544.0</ele><time>2026-04-26T07:11:02.001Z</time></trkpt><trkpt lat="44.13199854236828" lon="11.010525885474797"><ele>544.0</ele><time>2026-04-26T07:11:03.001Z</time></trkpt><trkpt lat="44.131854508788194" lon="11.010581821241043"><ele>544.0</ele><time>2026-04-26T07:11:04.001Z</time></trkpt><trkpt lat="44.131721225472035" lon="11.010656815421644"><ele>544.0</ele><time>2026-04-26T07:11:05.001Z</time></trkpt><trkpt lat="44.131597571216695" lon="11.010722472098966"><ele>544.0</ele><time>2026-04-26T07:11:06.001Z</time></trkpt><trkpt lat="44.13149207172283" lon="11.010788521907783"><ele>544.75</ele><time>2026-04-26T07:11:07.001Z</time></trkpt><trkpt lat="44.131401070034514" lon="11.010876054774146"><ele>545.5</ele><time>2026-04-26T07:11:08.001Z</time></trkpt><trkpt lat="44.13132860655424" lon="11.011000187013689"><ele>546.25</ele><time>2026-04-26T07:11:09.001Z</time></trkpt><trkpt lat="44.13126431500942" lon="11.011158271152919"><ele>547.0</ele><time>2026-04-26T07:11:10.001Z</time></trkpt><trkpt lat="44.13119739959121" lon="11.011329400790947"><ele>547.0</ele><time>2026-04-26T07:11:11.001Z</time></trkpt><trkpt lat="44.13115157800623" lon="11.01149772873559"><ele>547.0</ele><time>2026-04-26T07:11:12.001Z</time></trkpt><trkpt lat="44.131130539140266" lon="11.011661849997699"><ele>547.0</ele><time>2026-04-26T07:11:13.001Z</time></trkpt><trkpt lat="44.131117988609994" lon="11.011812946372592"><ele>547.0</ele><time>2026-04-26T07:11:14.001Z</time></trkpt><trkpt lat="44.13113491230323" lon="11.011976779180547"><ele>548.5</ele><time>2026-04-26T07:11:15.001Z</time></trkpt><trkpt lat="44.131172856128906" lon="11.012153742280223"><ele>550.0</ele><time>2026-04-26T07:11:16.001Z</time></trkpt><trkpt lat="44.131212618841644" lon="11.012346256409716"><ele>551.5</ele><time>2026-04-26T07:11:17.001Z</time></trkpt><trkpt lat="44.131261051359765" lon="11.012552743297181"><ele>553.0</ele><time>2026-04-26T07:11:18.001Z</time></trkpt><trkpt lat="44.13131236815337" lon="11.012759929959575"><ele>554.6666666666667</ele><time>2026-04-26T07:11:19.001Z</time></trkpt><trkpt lat="44.131366371807154" lon="11.012970089540415"><ele>556.3333333333334</ele><time>2026-04-26T07:11:20.001Z</time></trkpt><trkpt lat="44.131412246127496" lon="11.013172072019922"><ele>558.0</ele><time>2026-04-26T07:11:21.001Z</time></trkpt><trkpt lat="44.13146271766009" lon="11.013381087504362"><ele>559.25</ele><time>2026-04-26T07:11:22.001Z</time></trkpt><trkpt lat="44.13148180123043" lon="11.013570078441019"><ele>560.5</ele><time>2026-04-26T07:11:23.001Z</time></trkpt><trkpt lat="44.13148401509384" lon="11.013753050750797"><ele>561.75</ele><time>2026-04-26T07:11:24.001Z</time></trkpt><trkpt lat="44.13145001879256" lon="11.013924204645694"><ele>563.0</ele><time>2026-04-26T07:11:25.001Z</time></trkpt><trkpt lat="44.131380169969184" lon="11.014078314704772"><ele>566.0</ele><time>2026-04-26T07:11:25.996Z</time></trkpt><trkpt lat="44.13126585829252" lon="11.014181006261763"><ele>569.0</ele><time>2026-04-26T07:11:26.996Z</time></trkpt><trkpt lat="44.13114825265783" lon="11.014294974020236"><ele>572.0</ele><time>2026-04-26T07:11:27.996Z</time></trkpt><trkpt lat="44.13101663352724" lon="11.014406071105238"><ele>575.0</ele><time>2026-04-26T07:11:28.996Z</time></trkpt><trkpt lat="44.130892742042654" lon="11.014517104288423"><ele>575.0</ele><time>2026-04-26T07:11:29.996Z</time></trkpt><trkpt lat="44.130801677609576" lon="11.014642180650224"><ele>575.0</ele><time>2026-04-26T07:11:30.996Z</time></trkpt><trkpt lat="44.13072827000708" lon="11.014755792392771"><ele>575.0</ele><time>2026-04-26T07:11:31.996Z</time></trkpt><trkpt lat="44.13066206130082" lon="11.0148991705563"><ele>575.0</ele><time>2026-04-26T07:11:32.996Z</time></trkpt><trkpt lat="44.13059577347066" lon="11.01507192699305"><ele>575.75</ele><time>2026-04-26T07:11:33.996Z</time></trkpt><trkpt lat="44.13051441128926" lon="11.015248960308142"><ele>576.5</ele><time>2026-04-26T07:11:34.996Z</time></trkpt><trkpt lat="44.1304258510326" lon="11.015413010406112"><ele>577.25</ele><time>2026-04-26T07:11:35.996Z</time></trkpt><trkpt lat="44.130318676986754" lon="11.015545752592802"><ele>578.0</ele><time>2026-04-26T07:11:36.996Z</time></trkpt><trkpt lat="44.130195366837825" lon="11.01566162653329"><ele>578.0</ele><time>2026-04-26T07:11:37.996Z</time></trkpt><trkpt lat="44.13006706388113" lon="11.015769453555702"><ele>578.0</ele><time>2026-04-26T07:11:38.996Z</time></trkpt><trkpt lat="44.1299422669766" lon="11.015859100149274"><ele>578.0</ele><time>2026-04-26T07:11:39.996Z</time></trkpt><trkpt lat="44.12982664057414" lon="11.015944432776706"><ele>578.0</ele><time>2026-04-26T07:11:40.996Z</time></trkpt><trkpt lat="44.129721743322854" lon="11.016015768155164"><ele>578.6</ele><time>2026-04-26T07:11:41.996Z</time></trkpt><trkpt lat="44.12963873358267" lon="11.016086608508669"><ele>579.1999999999999</ele><time>2026-04-26T07:11:42.996Z</time></trkpt><trkpt lat="44.129547023057064" lon="11.016184952247741"><ele>579.8</ele><time>2026-04-26T07:11:43.996Z</time></trkpt><trkpt lat="44.12947832016775" lon="11.016291893160455"><ele>580.4</ele><time>2026-04-26T07:11:44.996Z</time></trkpt><trkpt lat="44.12942005254226" lon="11.016413422635129"><ele>581.0</ele><time>2026-04-26T07:11:45.996Z</time></trkpt><trkpt lat="44.12934315320965" lon="11.016548820210028"><ele>583.0</ele><time>2026-04-26T07:11:46.996Z</time></trkpt><trkpt lat="44.129245324676376" lon="11.016704183439515"><ele>585.0</ele><time>2026-04-26T07:11:47.996Z</time></trkpt><trkpt lat="44.129139130401924" lon="11.016840107806532"><ele>587.0</ele><time>2026-04-26T07:11:48.996Z</time></trkpt><trkpt lat="44.129022595123864" lon="11.016940035844245"><ele>589.0</ele><time>2026-04-26T07:11:49.996Z</time></trkpt><trkpt lat="44.128909923817204" lon="11.017029721255819"><ele>589.0</ele><time>2026-04-26T07:11:50.996Z</time></trkpt><trkpt lat="44.1287884986375" lon="11.017114968711242"><ele>589.0</ele><time>2026-04-26T07:11:51.996Z</time></trkpt><trkpt lat="44.12865401526864" lon="11.017175832833312"><ele>589.0</ele><time>2026-04-26T07:11:52.996Z</time></trkpt><trkpt lat="44.12851596897712" lon="11.017239671080135"><ele>589.0</ele><time>2026-04-26T07:11:53.996Z</time></trkpt><trkpt lat="44.12837817056079" lon="11.017337400816357"><ele>588.6666666666667</ele><time>2026-04-26T07:11:54.996Z</time></trkpt><trkpt lat="44.1282162802099" lon="11.017480064532924"><ele>588.3333333333334</ele><time>2026-04-26T07:11:55.996Z</time></trkpt><trkpt lat="44.128058687150805" lon="11.017619185702099"><ele>588.0</ele><time>2026-04-26T07:11:56.996Z</time></trkpt><trkpt lat="44.12792329094464" lon="11.01774543591916"><ele>592.6666666666666</ele><time>2026-04-26T07:11:57.996Z</time></trkpt><trkpt lat="44.1277837902972" lon="11.017872186224155"><ele>597.3333333333333</ele><time>2026-04-26T07:11:58.996Z</time></trkpt><trkpt lat="44.127632691148584" lon="11.018010564843506"><ele>602.0</ele><time>2026-04-26T07:11:59.996Z</time></trkpt><trkpt lat="44.127511022508386" lon="11.018106485004981"><ele>602.0</ele><time>2026-04-26T07:12:00.996Z</time></trkpt><trkpt lat="44.12739652846625" lon="11.018139290819684"><ele>602.0</ele><time>2026-04-26T07:12:01.996Z</time></trkpt><trkpt lat="44.127286023694055" lon="11.018133906104682"><ele>602.0</ele><time>2026-04-26T07:12:02.996Z</time></trkpt><trkpt lat="44.12718359201337" lon="11.018055745047374"><ele>602.0</ele><time>2026-04-26T07:12:03.996Z</time></trkpt><trkpt lat="44.12707896080428" lon="11.01794261123206"><ele>603.25</ele><time>2026-04-26T07:12:04.996Z</time></trkpt><trkpt lat="44.12697075096133" lon="11.01785390958963"><ele>604.5</ele><time>2026-04-26T07:12:05.996Z</time></trkpt><trkpt lat="44.12686169601499" lon="11.017788439274637"><ele>605.75</ele><time>2026-04-26T07:12:06.996Z</time></trkpt><trkpt lat="44.126760789635156" lon="11.017780882723606"><ele>607.0</ele><time>2026-04-26T07:12:07.996Z</time></trkpt><trkpt lat="44.12665233828331" lon="11.017831822855674"><ele>605.25</ele><time>2026-04-26T07:12:08.996Z</time></trkpt><trkpt lat="44.126542195260086" lon="11.017909032005564"><ele>603.5</ele><time>2026-04-26T07:12:09.996Z</time></trkpt><trkpt lat="44.126426614356156" lon="11.017992540914525"><ele>601.75</ele><time>2026-04-26T07:12:10.996Z</time></trkpt><trkpt lat="44.12630284062757" lon="11.018090135272503"><ele>600.0</ele><time>2026-04-26T07:12:11.996Z</time></trkpt><trkpt lat="44.12617845338949" lon="11.018201454638978"><ele>604.6666666666666</ele><time>2026-04-26T07:12:12.996Z</time></trkpt><trkpt lat="44.12605501704081" lon="11.018320048755504"><ele>609.3333333333333</ele><time>2026-04-26T07:12:13.996Z</time></trkpt><trkpt lat="44.12594055674944" lon="11.018460361997123"><ele>614.0</ele><time>2026-04-26T07:12:14.996Z</time></trkpt><trkpt lat="44.1258283184528" lon="11.018617720263755"><ele>611.6666666666666</ele><time>2026-04-26T07:12:15.996Z</time></trkpt><trkpt lat="44.12572305427297" lon="11.018768402549108"><ele>609.3333333333334</ele><time>2026-04-26T07:12:16.996Z</time></trkpt><trkpt lat="44.1256126100966" lon="11.018932264944505"><ele>607.0</ele><time>2026-04-26T07:12:17.996Z</time></trkpt><trkpt lat="44.12551530427823" lon="11.019086131305619"><ele>611.0</ele><time>2026-04-26T07:12:18.996Z</time></trkpt><trkpt lat="44.12542633068273" lon="11.019206434619422"><ele>615.0</ele><time>2026-04-26T07:12:19.996Z</time></trkpt><trkpt lat="44.125334421971786" lon="11.019296355717685"><ele>619.0</ele><time>2026-04-26T07:12:20.996Z</time></trkpt><trkpt lat="44.12521823766989" lon="11.01935958671951"><ele>623.0</ele><time>2026-04-26T07:12:21.996Z</time></trkpt><trkpt lat="44.125117771663575" lon="11.019388444735513"><ele>623.0</ele><time>2026-04-26T07:12:22.996Z</time></trkpt><trkpt lat="44.125030367631794" lon="11.019422743935072"><ele>623.0</ele><time>2026-04-26T07:12:23.996Z</time></trkpt><trkpt lat="44.124936586806704" lon="11.019489349324548"><ele>623.0</ele><time>2026-04-26T07:12:24.996Z</time></trkpt><trkpt lat="44.124853287865065" lon="11.019606997031849"><ele>623.0</ele><time>2026-04-26T07:12:25.996Z</time></trkpt><trkpt lat="44.12477575522188" lon="11.019743844090726"><ele>623.0</ele><time>2026-04-26T07:12:26.996Z</time></trkpt><trkpt lat="44.124727437903736" lon="11.019855545428966"><ele>622.3333333333333</ele><time>2026-04-26T07:12:27.996Z</time></trkpt><trkpt lat="44.1246798450718" lon="11.019955803126951"><ele>621.6666666666666</ele><time>2026-04-26T07:12:29.996Z</time></trkpt><trkpt lat="44.12460428468128" lon="11.020027207630504"><ele>621.0</ele><time>2026-04-26T07:12:32.996Z</time></trkpt><trkpt lat="44.1245556813121" lon="11.020091529041705"><ele>620.3333333333334</ele><time>2026-04-26T07:12:33.996Z</time></trkpt><trkpt lat="44.12451859117497" lon="11.020164635131756"><ele>619.6666666666667</ele><time>2026-04-26T07:12:34.996Z</time></trkpt><trkpt lat="44.12448643806351" lon="11.020253860018004"><ele>619.0</ele><time>2026-04-26T07:12:35.996Z</time></trkpt><trkpt lat="44.124445285741466" lon="11.020349672103569"><ele>622.5</ele><time>2026-04-26T07:12:36.996Z</time></trkpt><trkpt lat="44.12434768939214" lon="11.020453136903807"><ele>626.0</ele><time>2026-04-26T07:12:37.996Z</time></trkpt><trkpt lat="44.12424248607896" lon="11.020550161468737"><ele>629.5</ele><time>2026-04-26T07:12:38.996Z</time></trkpt><trkpt lat="44.12413368986721" lon="11.020641107236138"><ele>633.0</ele><time>2026-04-26T07:12:39.996Z</time></trkpt><trkpt lat="44.12403502140585" lon="11.020728344489562"><ele>637.4</ele><time>2026-04-26T07:12:40.996Z</time></trkpt><trkpt lat="44.12394774671374" lon="11.020848781054031"><ele>641.8</ele><time>2026-04-26T07:12:41.996Z</time></trkpt><trkpt lat="44.12390169535597" lon="11.020976235142323"><ele>646.2</ele><time>2026-04-26T07:12:42.996Z</time></trkpt><trkpt lat="44.12387570879081" lon="11.021127957511194"><ele>650.6</ele><time>2026-04-26T07:12:43.996Z</time></trkpt><trkpt lat="44.12386984151047" lon="11.021281920408597"><ele>655.0</ele><time>2026-04-26T07:12:44.996Z</time></trkpt><trkpt lat="44.12388696484248" lon="11.02147168057434"><ele>653.5</ele><time>2026-04-26T07:12:45.996Z</time></trkpt><trkpt lat="44.123918858438884" lon="11.021658953158509"><ele>652.0</ele><time>2026-04-26T07:12:46.996Z</time></trkpt><trkpt lat="44.12394744934994" lon="11.021875390265837"><ele>650.5</ele><time>2026-04-26T07:12:47.996Z</time></trkpt><trkpt lat="44.12397469058503" lon="11.022056848916295"><ele>649.0</ele><time>2026-04-26T07:12:48.996Z</time></trkpt><trkpt lat="44.12401020404684" lon="11.022194603979324"><ele>649.0</ele><time>2026-04-26T07:12:49.996Z</time></trkpt><trkpt lat="44.12400807287637" lon="11.022302398453334"><ele>649.0</ele><time>2026-04-26T07:12:50.996Z</time></trkpt><trkpt lat="44.12398007129096" lon="11.022395113954731"><ele>649.0</ele><time>2026-04-26T07:12:51.996Z</time></trkpt><trkpt lat="44.12392123042778" lon="11.02245554471335"><ele>649.0</ele><time>2026-04-26T07:12:52.996Z</time></trkpt><trkpt lat="44.12382385839421" lon="11.022490567168854"><ele>649.0</ele><time>2026-04-26T07:12:53.996Z</time></trkpt><trkpt lat="44.12370531942042" lon="11.022516987027227"><ele>649.0</ele><time>2026-04-26T07:12:54.996Z</time></trkpt><trkpt lat="44.123589670532986" lon="11.022590157975483"><ele>649.0</ele><time>2026-04-26T07:12:55.996Z</time></trkpt><trkpt lat="44.12346208501415" lon="11.022687517733198"><ele>649.0</ele><time>2026-04-26T07:12:56.996Z</time></trkpt><trkpt lat="44.12335246593968" lon="11.022811273910921"><ele>649.0</ele><time>2026-04-26T07:12:57.996Z</time></trkpt><trkpt lat="44.123250669695196" lon="11.022935834069798"><ele>649.0</ele><time>2026-04-26T07:12:58.996Z</time></trkpt><trkpt lat="44.12314946811279" lon="11.023068438758806"><ele>649.0</ele><time>2026-04-26T07:12:59.996Z</time></trkpt><trkpt lat="44.12305514146914" lon="11.023201366680405"><ele>649.0</ele><time>2026-04-26T07:13:00.996Z</time></trkpt><trkpt lat="44.12297271149775" lon="11.02335206627507"><ele>649.0</ele><time>2026-04-26T07:13:01.996Z</time></trkpt><trkpt lat="44.12291582124249" lon="11.023501218031234"><ele>649.0</ele><time>2026-04-26T07:13:02.996Z</time></trkpt><trkpt lat="44.122861583021916" lon="11.023649698023439"><ele>647.4000000000001</ele><time>2026-04-26T07:13:03.996Z</time></trkpt><trkpt lat="44.122817087262526" lon="11.023798777360785"><ele>645.8</ele><time>2026-04-26T07:13:04.996Z</time></trkpt><trkpt lat="44.12278137471115" lon="11.023940204296979"><ele>644.2</ele><time>2026-04-26T07:13:05.996Z</time></trkpt><trkpt lat="44.1227383396109" lon="11.024077582986893"><ele>642.5999999999999</ele><time>2026-04-26T07:13:06.996Z</time></trkpt><trkpt lat="44.12269477232084" lon="11.024209508172111"><ele>641.0</ele><time>2026-04-26T07:13:07.996Z</time></trkpt><trkpt lat="44.12263257102561" lon="11.024330904764355"><ele>639.75</ele><time>2026-04-26T07:13:08.996Z</time></trkpt><trkpt lat="44.122558280835904" lon="11.02444700256714"><ele>638.5</ele><time>2026-04-26T07:13:09.996Z</time></trkpt><trkpt lat="44.12246441612356" lon="11.024545554044018"><ele>637.25</ele><time>2026-04-26T07:13:10.996Z</time></trkpt><trkpt lat="44.1223652989986" lon="11.024652498781332"><ele>636.0</ele><time>2026-04-26T07:13:11.996Z</time></trkpt><trkpt lat="44.122255214520884" lon="11.024739647569577"><ele>636.0</ele><time>2026-04-26T07:13:12.996Z</time></trkpt><trkpt lat="44.122159542479395" lon="11.024824404595284"><ele>636.0</ele><time>2026-04-26T07:13:13.996Z</time></trkpt><trkpt lat="44.12204910033235" lon="11.024903228359477"><ele>636.0</ele><time>2026-04-26T07:13:14.996Z</time></trkpt><trkpt lat="44.12192213069112" lon="11.024957906008716"><ele>636.0</ele><time>2026-04-26T07:13:15.996Z</time></trkpt><trkpt lat="44.12181459034762" lon="11.024988903967682"><ele>634.6666666666666</ele><time>2026-04-26T07:13:16.996Z</time></trkpt><trkpt lat="44.121732546776876" lon="11.025003928585559"><ele>633.3333333333334</ele><time>2026-04-26T07:13:17.996Z</time></trkpt><trkpt lat="44.121657265238944" lon="11.025044307338147"><ele>632.0</ele><time>2026-04-26T07:13:18.996Z</time></trkpt><trkpt lat="44.121590260803444" lon="11.025069544426822"><ele>630.6666666666667</ele><time>2026-04-26T07:13:19.996Z</time></trkpt><trkpt lat="44.12152243373908" lon="11.025091300777111"><ele>629.3333333333334</ele><time>2026-04-26T07:13:20.996Z</time></trkpt><trkpt lat="44.12145629114616" lon="11.02511703402385"><ele>628.0</ele><time>2026-04-26T07:13:21.996Z</time></trkpt><trkpt lat="44.121371748402765" lon="11.025174601173452"><ele>628.0</ele><time>2026-04-26T07:13:22.996Z</time></trkpt><trkpt lat="44.12127372081582" lon="11.025261798387396"><ele>628.0</ele><time>2026-04-26T07:13:23.996Z</time></trkpt><trkpt lat="44.12117309345086" lon="11.02535278581691"><ele>628.0</ele><time>2026-04-26T07:13:24.996Z</time></trkpt><trkpt lat="44.121073264959875" lon="11.025464691794506"><ele>628.0</ele><time>2026-04-26T07:13:25.996Z</time></trkpt><trkpt lat="44.120965992411676" lon="11.025593161700163"><ele>628.0</ele><time>2026-04-26T07:13:26.996Z</time></trkpt><trkpt lat="44.12084961835011" lon="11.025731922651763"><ele>628.0</ele><time>2026-04-26T07:13:27.996Z</time></trkpt><trkpt lat="44.12073634620349" lon="11.025865472845032"><ele>628.0</ele><time>2026-04-26T07:13:28.996Z</time></trkpt><trkpt lat="44.12062384624155" lon="11.025999433102816"><ele>628.5</ele><time>2026-04-26T07:13:29.996Z</time></trkpt><trkpt lat="44.120515464933575" lon="11.026124088859673"><ele>629.0</ele><time>2026-04-26T07:13:30.996Z</time></trkpt><trkpt lat="44.12040966694419" lon="11.02624433228434"><ele>629.5</ele><time>2026-04-26T07:13:31.996Z</time></trkpt><trkpt lat="44.120306041273594" lon="11.026358334424792"><ele>630.0</ele><time>2026-04-26T07:13:32.996Z</time></trkpt><trkpt lat="44.12021671267759" lon="11.026474328843827"><ele>630.0</ele><time>2026-04-26T07:13:33.996Z</time></trkpt><trkpt lat="44.12013291438797" lon="11.026582859776605"><ele>630.0</ele><time>2026-04-26T07:13:34.996Z</time></trkpt><trkpt lat="44.12005214536383" lon="11.026675660752028"><ele>630.0</ele><time>2026-04-26T07:13:35.996Z</time></trkpt><trkpt lat="44.11996667283159" lon="11.026774740675759"><ele>630.0</ele><time>2026-04-26T07:13:36.996Z</time></trkpt><trkpt lat="44.119889991057086" lon="11.02686731674992"><ele>630.0</ele><time>2026-04-26T07:13:37.996Z</time></trkpt><trkpt lat="44.1198066551089" lon="11.026955936120842"><ele>629.8333333333334</ele><time>2026-04-26T07:13:38.996Z</time></trkpt><trkpt lat="44.11972807178237" lon="11.027044308653583"><ele>629.6666666666666</ele><time>2026-04-26T07:13:39.996Z</time></trkpt><trkpt lat="44.1196578689465" lon="11.027128176114227"><ele>629.5</ele><time>2026-04-26T07:13:40.996Z</time></trkpt><trkpt lat="44.1195913901739" lon="11.02720440552778"><ele>629.3333333333333</ele><time>2026-04-26T07:13:41.996Z</time></trkpt><trkpt lat="44.11953604540281" lon="11.027285317075151"><ele>629.1666666666666</ele><time>2026-04-26T07:13:42.996Z</time></trkpt><trkpt lat="44.11949512405912" lon="11.027361885363524"><ele>629.0</ele><time>2026-04-26T07:13:44.996Z</time></trkpt><trkpt lat="44.11947476042641" lon="11.027509118493013"><ele>627.2</ele><time>2026-04-26T07:13:46.996Z</time></trkpt><trkpt lat="44.11941722288421" lon="11.027577077775524"><ele>625.4</ele><time>2026-04-26T07:13:47.996Z</time></trkpt><trkpt lat="44.11933540487843" lon="11.027658054000844"><ele>623.6</ele><time>2026-04-26T07:13:48.996Z</time></trkpt><trkpt lat="44.11924684602757" lon="11.027743203230829"><ele>621.8</ele><time>2026-04-26T07:13:49.996Z</time></trkpt><trkpt lat="44.11918255830297" lon="11.027874289571516"><ele>620.0</ele><time>2026-04-26T07:13:50.996Z</time></trkpt><trkpt lat="44.119115868538785" lon="11.0279580324649"><ele>620.0</ele><time>2026-04-26T07:13:51.996Z</time></trkpt><trkpt lat="44.11907586707652" lon="11.028048357115404"><ele>620.0</ele><time>2026-04-26T07:13:52.996Z</time></trkpt><trkpt lat="44.119050834451684" lon="11.028154090204831"><ele>620.0</ele><time>2026-04-26T07:13:53.996Z</time></trkpt><trkpt lat="44.119050295050116" lon="11.028269017915507"><ele>620.0</ele><time>2026-04-26T07:13:54.996Z</time></trkpt><trkpt lat="44.119069364377836" lon="11.028391993319634"><ele>620.0</ele><time>2026-04-26T07:13:55.996Z</time></trkpt><trkpt lat="44.11909819892902" lon="11.02850863553483"><ele>620.0</ele><time>2026-04-26T07:13:56.996Z</time></trkpt><trkpt lat="44.11913941647448" lon="11.028597453703341"><ele>618.8333333333333</ele><time>2026-04-26T07:13:57.996Z</time></trkpt><trkpt lat="44.11920191114882" lon="11.028663719866694"><ele>617.6666666666666</ele><time>2026-04-26T07:13:58.996Z</time></trkpt><trkpt lat="44.11926690709194" lon="11.028723899335883"><ele>616.5</ele><time>2026-04-26T07:13:59.996Z</time></trkpt><trkpt lat="44.11933679476583" lon="11.0287883074333"><ele>615.3333333333334</ele><time>2026-04-26T07:14:00.996Z</time></trkpt><trkpt lat="44.119404645716735" lon="11.028849697309415"><ele>614.1666666666667</ele><time>2026-04-26T07:14:01.996Z</time></trkpt><trkpt lat="44.11948794575615" lon="11.02888294492705"><ele>613.0</ele><time>2026-04-26T07:14:02.996Z</time></trkpt><trkpt lat="44.119582355195206" lon="11.0289001243856"><ele>613.0</ele><time>2026-04-26T07:14:03.996Z</time></trkpt><trkpt lat="44.119703503019196" lon="11.028894271362047"><ele>613.0</ele><time>2026-04-26T07:14:04.996Z</time></trkpt><trkpt lat="44.11984828217667" lon="11.028875395547436"><ele>613.0</ele><time>2026-04-26T07:14:05.996Z</time></trkpt><trkpt lat="44.11997938556212" lon="11.028863874654132"><ele>613.0</ele><time>2026-04-26T07:14:06.996Z</time></trkpt><trkpt lat="44.12010472465099" lon="11.028868061495649"><ele>611.1999999999999</ele><time>2026-04-26T07:14:07.996Z</time></trkpt><trkpt lat="44.120215477390374" lon="11.028868512031648"><ele>609.4</ele><time>2026-04-26T07:14:08.996Z</time></trkpt><trkpt lat="44.12031569372826" lon="11.028857115941372"><ele>607.5999999999999</ele><time>2026-04-26T07:14:09.996Z</time></trkpt><trkpt lat="44.120410194978376" lon="11.028850721536122"><ele>605.8</ele><time>2026-04-26T07:14:10.996Z</time></trkpt><trkpt lat="44.120508880090895" lon="11.028844321744637"><ele>604.0</ele><time>2026-04-26T07:14:11.996Z</time></trkpt><trkpt lat="44.12059851315809" lon="11.028874044668038"><ele>604.0</ele><time>2026-04-26T07:14:12.996Z</time></trkpt><trkpt lat="44.12068848812485" lon="11.028894278623536"><ele>604.0</ele><time>2026-04-26T07:14:13.996Z</time></trkpt><trkpt lat="44.120764117735625" lon="11.028953591640768"><ele>604.0</ele><time>2026-04-26T07:14:14.996Z</time></trkpt><trkpt lat="44.120804874686556" lon="11.02904848653543"><ele>604.0</ele><time>2026-04-26T07:14:15.996Z</time></trkpt><trkpt lat="44.120806861984285" lon="11.029173731698563"><ele>604.0</ele><time>2026-04-26T07:14:16.996Z</time></trkpt><trkpt lat="44.12076815782607" lon="11.02929051037848"><ele>604.0</ele><time>2026-04-26T07:14:17.996Z</time></trkpt><trkpt lat="44.120717841807654" lon="11.029423268904855"><ele>602.0</ele><time>2026-04-26T07:14:18.996Z</time></trkpt><trkpt lat="44.12066890065065" lon="11.029566147863033"><ele>600.0</ele><time>2026-04-26T07:14:19.996Z</time></trkpt><trkpt lat="44.12063464539252" lon="11.029720816256471"><ele>598.0</ele><time>2026-04-26T07:14:20.996Z</time></trkpt><trkpt lat="44.12058133706245" lon="11.029830998352725"><ele>596.0</ele><time>2026-04-26T07:14:21.996Z</time></trkpt><trkpt lat="44.12051343276175" lon="11.029951704027885"><ele>594.0</ele><time>2026-04-26T07:14:22.996Z</time></trkpt><trkpt lat="44.12042604536262" lon="11.030061804323784"><ele>591.0</ele><time>2026-04-26T07:14:23.996Z</time></trkpt><trkpt lat="44.12031371778566" lon="11.030204262025695"><ele>588.0</ele><time>2026-04-26T07:14:24.996Z</time></trkpt><trkpt lat="44.120199659124495" lon="11.030333606207956"><ele>585.0</ele><time>2026-04-26T07:14:25.996Z</time></trkpt><trkpt lat="44.120090779710495" lon="11.030458723542916"><ele>582.0</ele><time>2026-04-26T07:14:26.996Z</time></trkpt><trkpt lat="44.11999537132044" lon="11.030581847390252"><ele>582.0</ele><time>2026-04-26T07:14:27.996Z</time></trkpt><trkpt lat="44.119914484566664" lon="11.030717217206329"><ele>582.0</ele><time>2026-04-26T07:14:28.996Z</time></trkpt><trkpt lat="44.11984135345444" lon="11.030844828217466"><ele>582.0</ele><time>2026-04-26T07:14:29.996Z</time></trkpt><trkpt lat="44.11977816407466" lon="11.030975797614236"><ele>582.0</ele><time>2026-04-26T07:14:30.996Z</time></trkpt><trkpt lat="44.11971944138458" lon="11.031094452070294"><ele>582.75</ele><time>2026-04-26T07:14:31.996Z</time></trkpt><trkpt lat="44.11967703952446" lon="11.031210926955286"><ele>583.5</ele><time>2026-04-26T07:14:32.996Z</time></trkpt><trkpt lat="44.11962492115246" lon="11.031368778973329"><ele>584.25</ele><time>2026-04-26T07:14:33.996Z</time></trkpt><trkpt lat="44.11958411519999" lon="11.03154064272491"><ele>585.0</ele><time>2026-04-26T07:14:34.996Z</time></trkpt><trkpt lat="44.1195551776879" lon="11.031735361962978"><ele>585.0</ele><time>2026-04-26T07:14:35.996Z</time></trkpt><trkpt lat="44.11955107231505" lon="11.031928400196252"><ele>585.0</ele><time>2026-04-26T07:14:36.996Z</time></trkpt><trkpt lat="44.11955354902774" lon="11.03210871658234"><ele>585.0</ele><time>2026-04-26T07:14:37.996Z</time></trkpt><trkpt lat="44.119550154427074" lon="11.032288124004356"><ele>585.0</ele><time>2026-04-26T07:14:38.996Z</time></trkpt><trkpt lat="44.119547761973806" lon="11.032439188534045"><ele>583.1666666666666</ele><time>2026-04-26T07:14:39.996Z</time></trkpt><trkpt lat="44.11953936276132" lon="11.032562202025764"><ele>581.3333333333334</ele><time>2026-04-26T07:14:40.995Z</time></trkpt><trkpt lat="44.119531540532535" lon="11.032673379891339"><ele>579.5</ele><time>2026-04-26T07:14:41.995Z</time></trkpt><trkpt lat="44.119529045566324" lon="11.032808853996695"><ele>577.6666666666667</ele><time>2026-04-26T07:14:42.996Z</time></trkpt><trkpt lat="44.11950821526044" lon="11.032923028266024"><ele>575.8333333333334</ele><time>2026-04-26T07:14:43.996Z</time></trkpt><trkpt lat="44.11946888358692" lon="11.033032684447543"><ele>574.0</ele><time>2026-04-26T07:14:44.996Z</time></trkpt><trkpt lat="44.11938279606991" lon="11.033111517617753"><ele>574.0</ele><time>2026-04-26T07:14:45.996Z</time></trkpt><trkpt lat="44.119271516133026" lon="11.033161496124682"><ele>574.0</ele><time>2026-04-26T07:14:46.996Z</time></trkpt><trkpt lat="44.11915602124671" lon="11.033221699721992"><ele>574.0</ele><time>2026-04-26T07:14:47.996Z</time></trkpt><trkpt lat="44.1190261305334" lon="11.033278888721375"><ele>574.0</ele><time>2026-04-26T07:14:48.996Z</time></trkpt><trkpt lat="44.11889152691066" lon="11.033336160375114"><ele>572.0</ele><time>2026-04-26T07:14:49.996Z</time></trkpt><trkpt lat="44.11878520137492" lon="11.0333702767127"><ele>570.0</ele><time>2026-04-26T07:14:50.996Z</time></trkpt><trkpt lat="44.11870627800365" lon="11.033405929549065"><ele>568.0</ele><time>2026-04-26T07:14:51.996Z</time></trkpt><trkpt lat="44.11863958592533" lon="11.033429715919706"><ele>566.0</ele><time>2026-04-26T07:14:52.996Z</time></trkpt><trkpt lat="44.11855295481484" lon="11.033552785393038"><ele>564.0</ele><time>2026-04-26T07:14:54.996Z</time></trkpt><trkpt lat="44.11858102951793" lon="11.033743557546726"><ele>564.0</ele><time>2026-04-26T07:14:56.996Z</time></trkpt><trkpt lat="44.118632023555776" lon="11.033841802893432"><ele>564.0</ele><time>2026-04-26T07:14:57.996Z</time></trkpt><trkpt lat="44.118699653004036" lon="11.033930629976476"><ele>564.0</ele><time>2026-04-26T07:14:58.996Z</time></trkpt><trkpt lat="44.11878711310358" lon="11.034046753882105"><ele>564.0</ele><time>2026-04-26T07:14:59.996Z</time></trkpt><trkpt lat="44.118928853647525" lon="11.034152238990693"><ele>560.0</ele><time>2026-04-26T07:15:00.996Z</time></trkpt><trkpt lat="44.11908003522842" lon="11.034269474605237"><ele>556.0</ele><time>2026-04-26T07:15:01.996Z</time></trkpt><trkpt lat="44.11919861077876" lon="11.034377773180069"><ele>552.0</ele><time>2026-04-26T07:15:02.996Z</time></trkpt><trkpt lat="44.11928893196964" lon="11.03447329979589"><ele>548.0</ele><time>2026-04-26T07:15:03.996Z</time></trkpt><trkpt lat="44.11936589833979" lon="11.034567597483884"><ele>548.0</ele><time>2026-04-26T07:15:04.996Z</time></trkpt><trkpt lat="44.11942900529969" lon="11.034647131283862"><ele>548.0</ele><time>2026-04-26T07:15:05.996Z</time></trkpt><trkpt lat="44.119492915002475" lon="11.034730475267889"><ele>548.0</ele><time>2026-04-26T07:15:06.996Z</time></trkpt><trkpt lat="44.11952565153954" lon="11.03482518213988"><ele>548.0</ele><time>2026-04-26T07:15:07.996Z</time></trkpt><trkpt lat="44.11950206113049" lon="11.035008695130738"><ele>548.0</ele><time>2026-04-26T07:15:09.996Z</time></trkpt><trkpt lat="44.11945761201727" lon="11.035084103202239"><ele>548.1999999999999</ele><time>2026-04-26T07:15:10.996Z</time></trkpt><trkpt lat="44.119400089136185" lon="11.035125162416904"><ele>548.4</ele><time>2026-04-26T07:15:11.996Z</time></trkpt><trkpt lat="44.119318177829186" lon="11.035113312148837"><ele>548.5999999999999</ele><time>2026-04-26T07:15:12.996Z</time></trkpt><trkpt lat="44.11923407303769" lon="11.035066107479393"><ele>548.8</ele><time>2026-04-26T07:15:13.996Z</time></trkpt><trkpt lat="44.1191460818921" lon="11.034987939946996"><ele>549.0</ele><time>2026-04-26T07:15:14.996Z</time></trkpt><trkpt lat="44.119051670909506" lon="11.034893361230104"><ele>549.0</ele><time>2026-04-26T07:15:15.996Z</time></trkpt><trkpt lat="44.118939627490704" lon="11.034777075600573"><ele>549.0</ele><time>2026-04-26T07:15:16.996Z</time></trkpt><trkpt lat="44.11884719757326" lon="11.034663498363539"><ele>549.0</ele><time>2026-04-26T07:15:17.996Z</time></trkpt><trkpt lat="44.11876735914876" lon="11.034569349236971"><ele>549.0</ele><time>2026-04-26T07:15:18.996Z</time></trkpt><trkpt lat="44.11869581807785" lon="11.034500437961018"><ele>549.0</ele><time>2026-04-26T07:15:19.996Z</time></trkpt><trkpt lat="44.118636027559006" lon="11.034454671118048"><ele>549.0</ele><time>2026-04-26T07:15:20.996Z</time></trkpt><trkpt lat="44.11855942249147" lon="11.034438901001215"><ele>549.0</ele><time>2026-04-26T07:15:21.996Z</time></trkpt><trkpt lat="44.1184831813961" lon="11.034463314003133"><ele>549.0</ele><time>2026-04-26T07:15:22.996Z</time></trkpt><trkpt lat="44.118418309490686" lon="11.034542048640436"><ele>549.0</ele><time>2026-04-26T07:15:23.996Z</time></trkpt><trkpt lat="44.118390548859395" lon="11.03465649518124"><ele>549.0</ele><time>2026-04-26T07:15:24.996Z</time></trkpt><trkpt lat="44.11840731464894" lon="11.034802648723833"><ele>549.0</ele><time>2026-04-26T07:15:25.996Z</time></trkpt><trkpt lat="44.11846118464276" lon="11.034938325804768"><ele>549.0</ele><time>2026-04-26T07:15:26.996Z</time></trkpt><trkpt lat="44.11854217641196" lon="11.035069462595667"><ele>549.0</ele><time>2026-04-26T07:15:27.996Z</time></trkpt><trkpt lat="44.11864229261463" lon="11.03520446393471"><ele>549.0</ele><time>2026-04-26T07:15:28.996Z</time></trkpt><trkpt lat="44.118744176706116" lon="11.03536842201362"><ele>545.25</ele><time>2026-04-26T07:15:29.996Z</time></trkpt><trkpt lat="44.1188360305731" lon="11.035517218757235"><ele>541.5</ele><time>2026-04-26T07:15:30.996Z</time></trkpt><trkpt lat="44.11892069876338" lon="11.035669284111872"><ele>537.75</ele><time>2026-04-26T07:15:31.996Z</time></trkpt><trkpt lat="44.11899940416824" lon="11.035820742117595"><ele>534.0</ele><time>2026-04-26T07:15:32.996Z</time></trkpt><trkpt lat="44.119061736850504" lon="11.035944919637991"><ele>532.5</ele><time>2026-04-26T07:15:33.996Z</time></trkpt><trkpt lat="44.11913225017483" lon="11.036083675472561"><ele>531.0</ele><time>2026-04-26T07:15:34.996Z</time></trkpt><trkpt lat="44.11919726301129" lon="11.036209578727096"><ele>529.5</ele><time>2026-04-26T07:15:35.996Z</time></trkpt><trkpt lat="44.11927363066416" lon="11.036333751502976"><ele>528.0</ele><time>2026-04-26T07:15:36.996Z</time></trkpt><trkpt lat="44.11937540912042" lon="11.036431932300257"><ele>528.0</ele><time>2026-04-26T07:15:37.996Z</time></trkpt><trkpt lat="44.11950080479545" lon="11.036505591032444"><ele>528.0</ele><time>2026-04-26T07:15:38.996Z</time></trkpt><trkpt lat="44.11962004994951" lon="11.03654606589381"><ele>528.0</ele><time>2026-04-26T07:15:39.996Z</time></trkpt><trkpt lat="44.119740771064805" lon="11.036600147881837"><ele>528.0</ele><time>2026-04-26T07:15:40.996Z</time></trkpt><trkpt lat="44.11986252809223" lon="11.036680812044816"><ele>524.75</ele><time>2026-04-26T07:15:41.996Z</time></trkpt><trkpt lat="44.11997388737445" lon="11.036759581060995"><ele>521.5</ele><time>2026-04-26T07:15:42.996Z</time></trkpt><trkpt lat="44.120063720349506" lon="11.036848334202793"><ele>518.25</ele><time>2026-04-26T07:15:43.996Z</time></trkpt><trkpt lat="44.120125029167255" lon="11.036955861349595"><ele>515.0</ele><time>2026-04-26T07:15:44.996Z</time></trkpt><trkpt lat="44.120245902696944" lon="11.037020621420627"><ele>515.0</ele><time>2026-04-26T07:15:46.996Z</time></trkpt><trkpt lat="44.12032902108741" lon="11.037021368194706"><ele>515.0</ele><time>2026-04-26T07:15:47.996Z</time></trkpt><trkpt lat="44.12042552163693" lon="11.03696547961341"><ele>515.0</ele><time>2026-04-26T07:15:48.996Z</time></trkpt><trkpt lat="44.120538121618104" lon="11.036870921767928"><ele>515.0</ele><time>2026-04-26T07:15:49.996Z</time></trkpt><trkpt lat="44.120666359243785" lon="11.036781232119557"><ele>514.0</ele><time>2026-04-26T07:15:50.996Z</time></trkpt><trkpt lat="44.120818438788746" lon="11.036720367175215"><ele>513.0</ele><time>2026-04-26T07:15:51.996Z</time></trkpt><trkpt lat="44.12094458026013" lon="11.036672010225901"><ele>512.0</ele><time>2026-04-26T07:15:52.996Z</time></trkpt><trkpt lat="44.12106093396247" lon="11.036627688990025"><ele>511.0</ele><time>2026-04-26T07:15:53.996Z</time></trkpt><trkpt lat="44.12119234821254" lon="11.036603385778909"><ele>512.0</ele><time>2026-04-26T07:15:54.996Z</time></trkpt><trkpt lat="44.12130902186135" lon="11.036604316016506"><ele>513.0</ele><time>2026-04-26T07:15:55.996Z</time></trkpt><trkpt lat="44.12142649781446" lon="11.03657842727391"><ele>514.0</ele><time>2026-04-26T07:15:56.996Z</time></trkpt><trkpt lat="44.121524742995376" lon="11.036554507772813"><ele>515.0</ele><time>2026-04-26T07:15:57.996Z</time></trkpt><trkpt lat="44.12162459341819" lon="11.036489230811457"><ele>516.0</ele><time>2026-04-26T07:15:58.996Z</time></trkpt><trkpt lat="44.12171637352409" lon="11.036424060688445"><ele>516.0</ele><time>2026-04-26T07:15:59.996Z</time></trkpt><trkpt lat="44.12181595038695" lon="11.036300195125037"><ele>516.0</ele><time>2026-04-26T07:16:00.996Z</time></trkpt><trkpt lat="44.121922748810555" lon="11.036145202375595"><ele>516.0</ele><time>2026-04-26T07:16:01.996Z</time></trkpt><trkpt lat="44.12202056717436" lon="11.03597818734127"><ele>516.0</ele><time>2026-04-26T07:16:02.996Z</time></trkpt><trkpt lat="44.12210142057588" lon="11.035808330603361"><ele>517.25</ele><time>2026-04-26T07:16:03.996Z</time></trkpt><trkpt lat="44.12216540967559" lon="11.035628068028206"><ele>518.5</ele><time>2026-04-26T07:16:04.996Z</time></trkpt><trkpt lat="44.12224644868221" lon="11.035484126924079"><ele>519.75</ele><time>2026-04-26T07:16:05.996Z</time></trkpt><trkpt lat="44.122348421354026" lon="11.035372530294104"><ele>521.0</ele><time>2026-04-26T07:16:06.996Z</time></trkpt><trkpt lat="44.122435194257164" lon="11.035281660325554"><ele>516.75</ele><time>2026-04-26T07:16:07.996Z</time></trkpt><trkpt lat="44.122529958939054" lon="11.035222776540696"><ele>512.5</ele><time>2026-04-26T07:16:08.996Z</time></trkpt><trkpt lat="44.12263809029404" lon="11.03517456992578"><ele>508.25</ele><time>2026-04-26T07:16:09.996Z</time></trkpt><trkpt lat="44.12275631275902" lon="11.03511861285762"><ele>504.0</ele><time>2026-04-26T07:16:10.996Z</time></trkpt><trkpt lat="44.122869744612856" lon="11.035035592509416"><ele>504.25</ele><time>2026-04-26T07:16:11.996Z</time></trkpt><trkpt lat="44.12299568713915" lon="11.034948801692318"><ele>504.5</ele><time>2026-04-26T07:16:12.996Z</time></trkpt><trkpt lat="44.123110423593374" lon="11.034856594875146"><ele>504.75</ele><time>2026-04-26T07:16:13.996Z</time></trkpt><trkpt lat="44.123214918101965" lon="11.03476143391913"><ele>505.0</ele><time>2026-04-26T07:16:14.996Z</time></trkpt><trkpt lat="44.12334856558214" lon="11.03463251341762"><ele>505.0</ele><time>2026-04-26T07:16:15.996Z</time></trkpt><trkpt lat="44.12346737389526" lon="11.03449015036448"><ele>505.0</ele><time>2026-04-26T07:16:16.996Z</time></trkpt><trkpt lat="44.12357229005517" lon="11.034347728853739"><ele>505.0</ele><time>2026-04-26T07:16:17.996Z</time></trkpt><trkpt lat="44.123697565265964" lon="11.034225715107816"><ele>503.5</ele><time>2026-04-26T07:16:18.996Z</time></trkpt><trkpt lat="44.12380110991543" lon="11.034114208428065"><ele>502.0</ele><time>2026-04-26T07:16:19.996Z</time></trkpt><trkpt lat="44.12391365104283" lon="11.034003063632724"><ele>500.5</ele><time>2026-04-26T07:16:20.996Z</time></trkpt><trkpt lat="44.124017580243375" lon="11.033893860997466"><ele>499.0</ele><time>2026-04-26T07:16:21.996Z</time></trkpt><trkpt lat="44.124109136088315" lon="11.033797990124597"><ele>499.0</ele><time>2026-04-26T07:16:22.996Z</time></trkpt><trkpt lat="44.12421463849839" lon="11.033706957869976"><ele>499.0</ele><time>2026-04-26T07:16:23.996Z</time></trkpt><trkpt lat="44.12430816788421" lon="11.033613627693095"><ele>499.0</ele><time>2026-04-26T07:16:24.996Z</time></trkpt><trkpt lat="44.1243877705537" lon="11.033519953225815"><ele>499.0</ele><time>2026-04-26T07:16:25.996Z</time></trkpt><trkpt lat="44.124476850675606" lon="11.033455266343893"><ele>499.0</ele><time>2026-04-26T07:16:26.996Z</time></trkpt><trkpt lat="44.124561711395955" lon="11.033363699519985"><ele>500.4</ele><time>2026-04-26T07:16:27.996Z</time></trkpt><trkpt lat="44.12464478917819" lon="11.033268705373848"><ele>501.79999999999995</ele><time>2026-04-26T07:16:28.996Z</time></trkpt><trkpt lat="44.12471715217742" lon="11.033178985509856"><ele>503.20000000000005</ele><time>2026-04-26T07:16:29.996Z</time></trkpt><trkpt lat="44.12478225172905" lon="11.033058574118"><ele>504.6</ele><time>2026-04-26T07:16:30.996Z</time></trkpt><trkpt lat="44.12484124983694" lon="11.032933866624804"><ele>506.0</ele><time>2026-04-26T07:16:31.996Z</time></trkpt><trkpt lat="44.12488671897019" lon="11.032790440223005"><ele>503.25</ele><time>2026-04-26T07:16:32.996Z</time></trkpt><trkpt lat="44.12491644605631" lon="11.032644833740946"><ele>500.5</ele><time>2026-04-26T07:16:33.996Z</time></trkpt><trkpt lat="44.12491672553961" lon="11.032454248760494"><ele>497.75</ele><time>2026-04-26T07:16:34.996Z</time></trkpt><trkpt lat="44.1249001120786" lon="11.032289425149134"><ele>495.0</ele><time>2026-04-26T07:16:35.996Z</time></trkpt><trkpt lat="44.124906637967996" lon="11.032147033456285"><ele>495.0</ele><time>2026-04-26T07:16:36.996Z</time></trkpt><trkpt lat="44.12494648835488" lon="11.032027029246587"><ele>495.0</ele><time>2026-04-26T07:16:37.996Z</time></trkpt><trkpt lat="44.12504388436817" lon="11.031940967371284"><ele>495.0</ele><time>2026-04-26T07:16:38.996Z</time></trkpt><trkpt lat="44.125150011824424" lon="11.03187504932339"><ele>495.0</ele><time>2026-04-26T07:16:39.996Z</time></trkpt><trkpt lat="44.125266892737244" lon="11.031788554877183"><ele>495.0</ele><time>2026-04-26T07:16:40.995Z</time></trkpt><trkpt lat="44.12540012037618" lon="11.031672387608628"><ele>495.0</ele><time>2026-04-26T07:16:41.995Z</time></trkpt><trkpt lat="44.125522432372456" lon="11.03157439519052"><ele>495.0</ele><time>2026-04-26T07:16:42.996Z</time></trkpt><trkpt lat="44.12565310940955" lon="11.03146973119234"><ele>495.0</ele><time>2026-04-26T07:16:43.996Z</time></trkpt><trkpt lat="44.125756144875226" lon="11.031387721894065"><ele>496.5</ele><time>2026-04-26T07:16:44.996Z</time></trkpt><trkpt lat="44.125854945630174" lon="11.031305468196827"><ele>498.0</ele><time>2026-04-26T07:16:45.996Z</time></trkpt><trkpt lat="44.12595177445912" lon="11.031233944130673"><ele>499.5</ele><time>2026-04-26T07:16:46.996Z</time></trkpt><trkpt lat="44.12607274185054" lon="11.031167885316831"><ele>501.0</ele><time>2026-04-26T07:16:47.996Z</time></trkpt><trkpt lat="44.12620995796046" lon="11.031131745168373"><ele>501.0</ele><time>2026-04-26T07:16:48.995Z</time></trkpt><trkpt lat="44.12632973503816" lon="11.031093371848918"><ele>501.0</ele><time>2026-04-26T07:16:49.996Z</time></trkpt><trkpt lat="44.12645352809906" lon="11.03103394808796"><ele>501.0</ele><time>2026-04-26T07:16:50.996Z</time></trkpt><trkpt lat="44.12655226393319" lon="11.031001939939657"><ele>501.0</ele><time>2026-04-26T07:16:51.996Z</time></trkpt><trkpt lat="44.12664356586522" lon="11.030995570828237"><ele>501.0</ele><time>2026-04-26T07:16:52.996Z</time></trkpt><trkpt lat="44.126758618049365" lon="11.03104833077267"><ele>498.5</ele><time>2026-04-26T07:16:53.996Z</time></trkpt><trkpt lat="44.12687453106188" lon="11.031137580413294"><ele>496.0</ele><time>2026-04-26T07:16:54.996Z</time></trkpt><trkpt lat="44.12699663580967" lon="11.031225323988826"><ele>493.5</ele><time>2026-04-26T07:16:55.996Z</time></trkpt><trkpt lat="44.12711764763327" lon="11.031323942213158"><ele>491.0</ele><time>2026-04-26T07:16:56.996Z</time></trkpt><trkpt lat="44.127242430900246" lon="11.031387878935785"><ele>491.0</ele><time>2026-04-26T07:16:57.996Z</time></trkpt><trkpt lat="44.12736982990857" lon="11.031445915238017"><ele>491.0</ele><time>2026-04-26T07:16:58.996Z</time></trkpt><trkpt lat="44.127511846184795" lon="11.031481268989504"><ele>491.0</ele><time>2026-04-26T07:16:59.996Z</time></trkpt><trkpt lat="44.12765638262128" lon="11.031483152432012"><ele>491.0</ele><time>2026-04-26T07:17:00.996Z</time></trkpt><trkpt lat="44.12780007275875" lon="11.031477005311945"><ele>490.25</ele><time>2026-04-26T07:17:01.996Z</time></trkpt><trkpt lat="44.1279422963525" lon="11.031494664246376"><ele>489.5</ele><time>2026-04-26T07:17:02.996Z</time></trkpt><trkpt lat="44.1280770980614" lon="11.031473588009305"><ele>488.75</ele><time>2026-04-26T07:17:03.996Z</time></trkpt><trkpt lat="44.128216774668125" lon="11.031475452508849"><ele>488.0</ele><time>2026-04-26T07:17:04.996Z</time></trkpt><trkpt lat="44.12833325181767" lon="11.031438311164901"><ele>488.0</ele><time>2026-04-26T07:17:05.996Z</time></trkpt><trkpt lat="44.12845571326094" lon="11.031379839132022"><ele>487.99999999999994</ele><time>2026-04-26T07:17:06.996Z</time></trkpt><trkpt lat="44.12854952700165" lon="11.031302487089702"><ele>487.99999999999994</ele><time>2026-04-26T07:17:07.996Z</time></trkpt><trkpt lat="44.128643918887676" lon="11.031249100478849"><ele>488.0</ele><time>2026-04-26T07:17:08.996Z</time></trkpt><trkpt lat="44.12874620074684" lon="11.031212900885915"><ele>488.0</ele><time>2026-04-26T07:17:09.996Z</time></trkpt><trkpt lat="44.12882076833226" lon="11.031230810973353"><ele>488.0</ele><time>2026-04-26T07:17:10.996Z</time></trkpt><trkpt lat="44.12889041047374" lon="11.031299227530788"><ele>487.99999999999994</ele><time>2026-04-26T07:17:11.996Z</time></trkpt><trkpt lat="44.128920928024414" lon="11.031424252674508"><ele>487.99999999999994</ele><time>2026-04-26T07:17:12.996Z</time></trkpt><trkpt lat="44.12895568615815" lon="11.031590705515073"><ele>488.0</ele><time>2026-04-26T07:17:13.996Z</time></trkpt><trkpt lat="44.12897498482353" lon="11.03176968619803"><ele>488.0</ele><time>2026-04-26T07:17:14.996Z</time></trkpt><trkpt lat="44.12898113800769" lon="11.031948090473236"><ele>485.5</ele><time>2026-04-26T07:17:15.996Z</time></trkpt><trkpt lat="44.12898159430622" lon="11.03214403147483"><ele>483.0</ele><time>2026-04-26T07:17:16.996Z</time></trkpt><trkpt lat="44.12898293696793" lon="11.032325633007867"><ele>480.5</ele><time>2026-04-26T07:17:17.996Z</time></trkpt><trkpt lat="44.12899881102511" lon="11.032474654655925"><ele>478.0</ele><time>2026-04-26T07:17:18.996Z</time></trkpt><trkpt lat="44.129013289661195" lon="11.032612438734063"><ele>476.5</ele><time>2026-04-26T07:17:19.996Z</time></trkpt><trkpt lat="44.12905436695006" lon="11.032762504635949"><ele>475.0</ele><time>2026-04-26T07:17:20.996Z</time></trkpt><trkpt lat="44.12911788908431" lon="11.032927185254287"><ele>473.5</ele><time>2026-04-26T07:17:21.996Z</time></trkpt><trkpt lat="44.12919063779239" lon="11.033092167402243"><ele>472.0</ele><time>2026-04-26T07:17:22.996Z</time></trkpt><trkpt lat="44.12926218769426" lon="11.033254592602546"><ele>473.5</ele><time>2026-04-26T07:17:23.996Z</time></trkpt><trkpt lat="44.129316931681224" lon="11.033400819996771"><ele>475.0</ele><time>2026-04-26T07:17:24.996Z</time></trkpt><trkpt lat="44.12939616674193" lon="11.03352798311372"><ele>476.5</ele><time>2026-04-26T07:17:25.996Z</time></trkpt><trkpt lat="44.12950700270208" lon="11.033651969136503"><ele>478.0</ele><time>2026-04-26T07:17:26.996Z</time></trkpt><trkpt lat="44.12964435298817" lon="11.033753207806647"><ele>478.0</ele><time>2026-04-26T07:17:27.996Z</time></trkpt><trkpt lat="44.12979500684103" lon="11.033871477475042"><ele>478.0</ele><time>2026-04-26T07:17:28.996Z</time></trkpt><trkpt lat="44.12992185500077" lon="11.033973178816723"><ele>478.0</ele><time>2026-04-26T07:17:29.996Z</time></trkpt><trkpt lat="44.13001782654383" lon="11.034130508617547"><ele>478.75</ele><time>2026-04-26T07:17:30.996Z</time></trkpt><trkpt lat="44.13008699275186" lon="11.034312862265779"><ele>479.5</ele><time>2026-04-26T07:17:31.996Z</time></trkpt><trkpt lat="44.1301341539319" lon="11.03447035087596"><ele>480.25</ele><time>2026-04-26T07:17:32.996Z</time></trkpt><trkpt lat="44.130168211761315" lon="11.034617979475085"><ele>481.0</ele><time>2026-04-26T07:17:33.996Z</time></trkpt><trkpt lat="44.13019054953279" lon="11.034737149903256"><ele>481.0</ele><time>2026-04-26T07:17:34.996Z</time></trkpt><trkpt lat="44.13023880159111" lon="11.034865962557404"><ele>481.0</ele><time>2026-04-26T07:17:35.996Z</time></trkpt><trkpt lat="44.13029909542166" lon="11.034959226946707"><ele>481.0</ele><time>2026-04-26T07:17:36.996Z</time></trkpt><trkpt lat="44.130390723578714" lon="11.035014125886995"><ele>481.0</ele><time>2026-04-26T07:17:37.996Z</time></trkpt><trkpt lat="44.13048460896011" lon="11.035069744790645"><ele>481.0</ele><time>2026-04-26T07:17:38.996Z</time></trkpt><trkpt lat="44.130595678893556" lon="11.035091939498491"><ele>480.75</ele><time>2026-04-26T07:17:39.996Z</time></trkpt><trkpt lat="44.13074683392148" lon="11.035027032841432"><ele>480.5</ele><time>2026-04-26T07:17:40.996Z</time></trkpt><trkpt lat="44.13087841941959" lon="11.034943318435783"><ele>480.25</ele><time>2026-04-26T07:17:41.996Z</time></trkpt><trkpt lat="44.13098642980558" lon="11.03488064249488"><ele>480.0</ele><time>2026-04-26T07:17:42.996Z</time></trkpt><trkpt lat="44.131100499901535" lon="11.034863102599587"><ele>480.0</ele><time>2026-04-26T07:17:43.996Z</time></trkpt><trkpt lat="44.131217592647324" lon="11.034880130126277"><ele>480.0</ele><time>2026-04-26T07:17:44.996Z</time></trkpt><trkpt lat="44.13132655695834" lon="11.034918773392548"><ele>480.0</ele><time>2026-04-26T07:17:45.996Z</time></trkpt><trkpt lat="44.13142265615904" lon="11.034982947837001"><ele>480.0</ele><time>2026-04-26T07:17:46.996Z</time></trkpt><trkpt lat="44.1315281636772" lon="11.035057321421657"><ele>479.2</ele><time>2026-04-26T07:17:47.996Z</time></trkpt><trkpt lat="44.13160507880864" lon="11.035123393140399"><ele>478.4</ele><time>2026-04-26T07:17:48.996Z</time></trkpt><trkpt lat="44.13169339487423" lon="11.035211872835028"><ele>477.6</ele><time>2026-04-26T07:17:49.996Z</time></trkpt><trkpt lat="44.13178259608067" lon="11.035314778614623"><ele>476.8</ele><time>2026-04-26T07:17:50.996Z</time></trkpt><trkpt lat="44.1318743277887" lon="11.035422291990926"><ele>476.0</ele><time>2026-04-26T07:17:51.996Z</time></trkpt><trkpt lat="44.131970258023905" lon="11.035542041705007"><ele>476.0</ele><time>2026-04-26T07:17:52.996Z</time></trkpt><trkpt lat="44.132060073933765" lon="11.035655104012132"><ele>476.0</ele><time>2026-04-26T07:17:53.996Z</time></trkpt><trkpt lat="44.13214083104867" lon="11.035773710733803"><ele>476.0</ele><time>2026-04-26T07:17:54.996Z</time></trkpt><trkpt lat="44.13222367450564" lon="11.035912972535016"><ele>476.0</ele><time>2026-04-26T07:17:55.996Z</time></trkpt><trkpt lat="44.13230449747769" lon="11.036049899095163"><ele>476.5</ele><time>2026-04-26T07:17:56.996Z</time></trkpt><trkpt lat="44.13238902251124" lon="11.036201302861008"><ele>477.0</ele><time>2026-04-26T07:17:57.996Z</time></trkpt><trkpt lat="44.13248125430802" lon="11.036361370317021"><ele>477.5</ele><time>2026-04-26T07:17:58.996Z</time></trkpt><trkpt lat="44.132547343111035" lon="11.036519019980965"><ele>478.0</ele><time>2026-04-26T07:17:59.996Z</time></trkpt><trkpt lat="44.13261123748505" lon="11.036649932160252"><ele>478.0</ele><time>2026-04-26T07:18:00.996Z</time></trkpt><trkpt lat="44.13267161391072" lon="11.03678515052052"><ele>478.0</ele><time>2026-04-26T07:18:01.996Z</time></trkpt><trkpt lat="44.13273383635488" lon="11.036913776267884"><ele>478.0</ele><time>2026-04-26T07:18:02.996Z</time></trkpt><trkpt lat="44.132805348726684" lon="11.037061505298544"><ele>478.0</ele><time>2026-04-26T07:18:03.996Z</time></trkpt><trkpt lat="44.13288422267824" lon="11.037211264135872"><ele>478.0</ele><time>2026-04-26T07:18:04.996Z</time></trkpt><trkpt lat="44.13297086333413" lon="11.037382682888286"><ele>478.0</ele><time>2026-04-26T07:18:05.996Z</time></trkpt><trkpt lat="44.133053946955094" lon="11.037557470611091"><ele>478.0</ele><time>2026-04-26T07:18:06.996Z</time></trkpt><trkpt lat="44.1331399011423" lon="11.037731721638664"><ele>477.25</ele><time>2026-04-26T07:18:07.996Z</time></trkpt><trkpt lat="44.13322647960242" lon="11.037887803735297"><ele>476.5</ele><time>2026-04-26T07:18:08.996Z</time></trkpt><trkpt lat="44.13330691761131" lon="11.038025479022167"><ele>475.75</ele><time>2026-04-26T07:18:09.996Z</time></trkpt><trkpt lat="44.133379131853935" lon="11.03816845260108"><ele>475.0</ele><time>2026-04-26T07:18:10.996Z</time></trkpt><trkpt lat="44.133469223679974" lon="11.038312443828222"><ele>475.0</ele><time>2026-04-26T07:18:11.996Z</time></trkpt><trkpt lat="44.13356394971376" lon="11.038442805316077"><ele>475.0</ele><time>2026-04-26T07:18:12.996Z</time></trkpt><trkpt lat="44.13364765122" lon="11.038579195090376"><ele>475.0</ele><time>2026-04-26T07:18:13.996Z</time></trkpt><trkpt lat="44.133726807355316" lon="11.03868814866995"><ele>475.0</ele><time>2026-04-26T07:18:14.996Z</time></trkpt><trkpt lat="44.13380032257548" lon="11.038761230232288"><ele>475.00000000000006</ele><time>2026-04-26T07:18:15.996Z</time></trkpt><trkpt lat="44.133883910670555" lon="11.03884052362488"><ele>475.0</ele><time>2026-04-26T07:18:16.996Z</time></trkpt><trkpt lat="44.13397488439905" lon="11.038899159485128"><ele>475.0</ele><time>2026-04-26T07:18:17.996Z</time></trkpt><trkpt lat="44.13405343944612" lon="11.038933801235961"><ele>475.0</ele><time>2026-04-26T07:18:18.996Z</time></trkpt><trkpt lat="44.134119836089056" lon="11.038968141115955"><ele>475.00000000000006</ele><time>2026-04-26T07:18:19.996Z</time></trkpt><trkpt lat="44.13418363324422" lon="11.039033860061338"><ele>475.0</ele><time>2026-04-26T07:18:20.996Z</time></trkpt><trkpt lat="44.13423246122812" lon="11.039119234836697"><ele>472.5</ele><time>2026-04-26T07:18:21.996Z</time></trkpt><trkpt lat="44.13427032094437" lon="11.03924436969758"><ele>470.0</ele><time>2026-04-26T07:18:22.996Z</time></trkpt><trkpt lat="44.13428226162601" lon="11.039392043153462"><ele>467.5</ele><time>2026-04-26T07:18:23.996Z</time></trkpt><trkpt lat="44.13429822359199" lon="11.03956290441904"><ele>465.0</ele><time>2026-04-26T07:18:24.996Z</time></trkpt><trkpt lat="44.13430406990665" lon="11.039745709510386"><ele>465.0</ele><time>2026-04-26T07:18:25.996Z</time></trkpt><trkpt lat="44.134325037780634" lon="11.039933722249929"><ele>465.0</ele><time>2026-04-26T07:18:26.996Z</time></trkpt><trkpt lat="44.13435413782385" lon="11.040128410995573"><ele>465.0</ele><time>2026-04-26T07:18:27.996Z</time></trkpt><trkpt lat="44.134384154033796" lon="11.040326667502992"><ele>465.0</ele><time>2026-04-26T07:18:28.996Z</time></trkpt><trkpt lat="44.134415608505556" lon="11.040523115927233"><ele>465.0</ele><time>2026-04-26T07:18:29.996Z</time></trkpt><trkpt lat="44.13445866071339" lon="11.040731982835329"><ele>465.0</ele><time>2026-04-26T07:18:30.996Z</time></trkpt><trkpt lat="44.134504572014045" lon="11.040932470212155"><ele>465.0</ele><time>2026-04-26T07:18:31.996Z</time></trkpt><trkpt lat="44.1345545515902" lon="11.041136565604226"><ele>465.0</ele><time>2026-04-26T07:18:32.996Z</time></trkpt><trkpt lat="44.13459695171664" lon="11.04133354482752"><ele>465.0</ele><time>2026-04-26T07:18:33.996Z</time></trkpt><trkpt lat="44.1346580753458" lon="11.0415177439136"><ele>465.0</ele><time>2026-04-26T07:18:34.996Z</time></trkpt><trkpt lat="44.13470419576592" lon="11.041676290157374"><ele>465.0</ele><time>2026-04-26T07:18:35.996Z</time></trkpt><trkpt lat="44.13474842341058" lon="11.041824076493272"><ele>465.2</ele><time>2026-04-26T07:18:36.996Z</time></trkpt><trkpt lat="44.13479189846109" lon="11.041955627191667"><ele>465.4</ele><time>2026-04-26T07:18:37.996Z</time></trkpt><trkpt lat="44.13483319757367" lon="11.042070110075654"><ele>465.6</ele><time>2026-04-26T07:18:38.996Z</time></trkpt><trkpt lat="44.13487303148695" lon="11.042155986759271"><ele>465.8</ele><time>2026-04-26T07:18:39.996Z</time></trkpt><trkpt lat="44.134937328075594" lon="11.042224273508062"><ele>466.0</ele><time>2026-04-26T07:18:40.996Z</time></trkpt><trkpt lat="44.135063092302644" lon="11.042250249592362"><ele>463.0</ele><time>2026-04-26T07:18:41.996Z</time></trkpt><trkpt lat="44.135200434564" lon="11.042284580836485"><ele>460.0</ele><time>2026-04-26T07:18:42.996Z</time></trkpt><trkpt lat="44.13532866814344" lon="11.042316992343935"><ele>457.0</ele><time>2026-04-26T07:18:43.996Z</time></trkpt><trkpt lat="44.13542165577651" lon="11.042374611697193"><ele>454.0</ele><time>2026-04-26T07:18:44.996Z</time></trkpt><trkpt lat="44.13551620056127" lon="11.042452137243805"><ele>459.79999999999995</ele><time>2026-04-26T07:18:45.996Z</time></trkpt><trkpt lat="44.13558996639292" lon="11.042516252562827"><ele>465.59999999999997</ele><time>2026-04-26T07:18:46.995Z</time></trkpt><trkpt lat="44.135640230808825" lon="11.042613794904058"><ele>471.4</ele><time>2026-04-26T07:18:47.995Z</time></trkpt><trkpt lat="44.13568201645042" lon="11.04269621359546"><ele>477.2</ele><time>2026-04-26T07:18:48.996Z</time></trkpt><trkpt lat="44.135687288920884" lon="11.04282956798499"><ele>483.0</ele><time>2026-04-26T07:18:50.995Z</time></trkpt><trkpt lat="44.135583918325636" lon="11.042891659585646"><ele>483.0</ele><time>2026-04-26T07:18:52.995Z</time></trkpt><trkpt lat="44.13553041083959" lon="11.042804442303645"><ele>482.99999999999994</ele><time>2026-04-26T07:18:53.995Z</time></trkpt><trkpt lat="44.13548366562582" lon="11.042714283906141"><ele>482.99999999999994</ele><time>2026-04-26T07:18:54.996Z</time></trkpt><trkpt lat="44.13540662540961" lon="11.042623817029298"><ele>483.0</ele><time>2026-04-26T07:18:55.996Z</time></trkpt><trkpt lat="44.13532691793858" lon="11.042538972314343"><ele>483.0</ele><time>2026-04-26T07:18:56.996Z</time></trkpt><trkpt lat="44.13521825791857" lon="11.042504131591032"><ele>483.0</ele><time>2026-04-26T07:18:57.996Z</time></trkpt><trkpt lat="44.13508588544483" lon="11.042468071038519"><ele>483.0</ele><time>2026-04-26T07:18:58.996Z</time></trkpt><trkpt lat="44.134954097447824" lon="11.042456549519605"><ele>483.0</ele><time>2026-04-26T07:18:59.996Z</time></trkpt><trkpt lat="44.13482321087631" lon="11.042444815102241"><ele>483.0</ele><time>2026-04-26T07:19:00.996Z</time></trkpt><trkpt lat="44.134701184216716" lon="11.04243605244492"><ele>481.59999999999997</ele><time>2026-04-26T07:19:01.996Z</time></trkpt><trkpt lat="44.13458717576888" lon="11.042445022796572"><ele>480.19999999999993</ele><time>2026-04-26T07:19:02.996Z</time></trkpt><trkpt lat="44.134481725467765" lon="11.042472656142621"><ele>478.8</ele><time>2026-04-26T07:19:03.996Z</time></trkpt><trkpt lat="44.13439530045074" lon="11.042526537295476"><ele>477.4</ele><time>2026-04-26T07:19:04.996Z</time></trkpt><trkpt lat="44.13432223683998" lon="11.042602728809285"><ele>476.0</ele><time>2026-04-26T07:19:05.996Z</time></trkpt><trkpt lat="44.13426117483915" lon="11.0427158228932"><ele>476.0</ele><time>2026-04-26T07:19:06.996Z</time></trkpt><trkpt lat="44.13420841325859" lon="11.04282705631611"><ele>476.0</ele><time>2026-04-26T07:19:07.996Z</time></trkpt><trkpt lat="44.13418883058" lon="11.04297466901461"><ele>476.0</ele><time>2026-04-26T07:19:08.996Z</time></trkpt><trkpt lat="44.134199858557594" lon="11.043120344588788"><ele>476.0</ele><time>2026-04-26T07:19:09.996Z</time></trkpt><trkpt lat="44.134249843127975" lon="11.043288499543316"><ele>476.0</ele><time>2026-04-26T07:19:10.996Z</time></trkpt><trkpt lat="44.13431445898659" lon="11.04344644872702"><ele>478.25</ele><time>2026-04-26T07:19:11.996Z</time></trkpt><trkpt lat="44.134389978849164" lon="11.04357637486365"><ele>480.5</ele><time>2026-04-26T07:19:12.996Z</time></trkpt><trkpt lat="44.134493142803784" lon="11.043672325461896"><ele>482.75</ele><time>2026-04-26T07:19:13.996Z</time></trkpt><trkpt lat="44.13460546422143" lon="11.043719835514663"><ele>485.0</ele><time>2026-04-26T07:19:14.996Z</time></trkpt><trkpt lat="44.13470032137358" lon="11.043771022919657"><ele>485.0</ele><time>2026-04-26T07:19:15.996Z</time></trkpt><trkpt lat="44.13476911699298" lon="11.043850527824238"><ele>485.0</ele><time>2026-04-26T07:19:16.996Z</time></trkpt><trkpt lat="44.134813163358665" lon="11.043958744465327"><ele>485.0</ele><time>2026-04-26T07:19:17.996Z</time></trkpt><trkpt lat="44.13482880380153" lon="11.04409920870924"><ele>485.0</ele><time>2026-04-26T07:19:18.996Z</time></trkpt><trkpt lat="44.13481473654173" lon="11.044256736749915"><ele>485.0</ele><time>2026-04-26T07:19:19.996Z</time></trkpt><trkpt lat="44.13478755233429" lon="11.044420329878903"><ele>484.25</ele><time>2026-04-26T07:19:20.996Z</time></trkpt><trkpt lat="44.13476479627732" lon="11.044602361049401"><ele>483.5</ele><time>2026-04-26T07:19:21.996Z</time></trkpt><trkpt lat="44.134734575979785" lon="11.044788238121544"><ele>482.75</ele><time>2026-04-26T07:19:22.996Z</time></trkpt><trkpt lat="44.13469536555071" lon="11.04497707576568"><ele>482.0</ele><time>2026-04-26T07:19:23.996Z</time></trkpt><trkpt lat="44.1346594868031" lon="11.045146752276079"><ele>484.25</ele><time>2026-04-26T07:19:24.996Z</time></trkpt><trkpt lat="44.13462510620006" lon="11.045284397808558"><ele>486.5</ele><time>2026-04-26T07:19:25.996Z</time></trkpt><trkpt lat="44.134561953319526" lon="11.045415829837626"><ele>488.75</ele><time>2026-04-26T07:19:26.996Z</time></trkpt><trkpt lat="44.134470462410505" lon="11.045550428320704"><ele>491.0</ele><time>2026-04-26T07:19:27.996Z</time></trkpt><trkpt lat="44.13436422464686" lon="11.045706754750139"><ele>490.75</ele><time>2026-04-26T07:19:28.996Z</time></trkpt><trkpt lat="44.13425912879039" lon="11.045866850728578"><ele>490.5</ele><time>2026-04-26T07:19:29.996Z</time></trkpt><trkpt lat="44.13418040682034" lon="11.045992208543243"><ele>490.25</ele><time>2026-04-26T07:19:30.996Z</time></trkpt><trkpt lat="44.134087279857084" lon="11.046084983176987"><ele>490.0</ele><time>2026-04-26T07:19:31.996Z</time></trkpt><trkpt lat="44.133975876464085" lon="11.046172851022277"><ele>490.0</ele><time>2026-04-26T07:19:32.996Z</time></trkpt><trkpt lat="44.1338771216819" lon="11.046239303510779"><ele>490.0</ele><time>2026-04-26T07:19:33.996Z</time></trkpt><trkpt lat="44.13379138660759" lon="11.046340887823808"><ele>490.0</ele><time>2026-04-26T07:19:34.996Z</time></trkpt><trkpt lat="44.13369710257343" lon="11.046478778464426"><ele>490.0</ele><time>2026-04-26T07:19:35.996Z</time></trkpt><trkpt lat="44.13363659772439" lon="11.046647778653137"><ele>494.75</ele><time>2026-04-26T07:19:36.996Z</time></trkpt><trkpt lat="44.13357401302042" lon="11.046831708350116"><ele>499.5</ele><time>2026-04-26T07:19:37.996Z</time></trkpt><trkpt lat="44.1334849283293" lon="11.046969340071767"><ele>504.25</ele><time>2026-04-26T07:19:38.996Z</time></trkpt><trkpt lat="44.133385243546115" lon="11.04705155267895"><ele>509.0</ele><time>2026-04-26T07:19:39.996Z</time></trkpt><trkpt lat="44.13330952072219" lon="11.04711984540431"><ele>509.0</ele><time>2026-04-26T07:19:40.996Z</time></trkpt><trkpt lat="44.13324148440401" lon="11.047199781599266"><ele>509.0</ele><time>2026-04-26T07:19:41.996Z</time></trkpt><trkpt lat="44.13318357327266" lon="11.04731483915902"><ele>509.0</ele><time>2026-04-26T07:19:42.996Z</time></trkpt><trkpt lat="44.133147624642476" lon="11.047461692563285"><ele>509.0</ele><time>2026-04-26T07:19:43.996Z</time></trkpt><trkpt lat="44.13311324925611" lon="11.04765232108184"><ele>509.0</ele><time>2026-04-26T07:19:44.996Z</time></trkpt><trkpt lat="44.13308042885777" lon="11.047867066694447"><ele>510.25</ele><time>2026-04-26T07:19:45.996Z</time></trkpt><trkpt lat="44.13305134306808" lon="11.048061116709128"><ele>511.5</ele><time>2026-04-26T07:19:46.996Z</time></trkpt><trkpt lat="44.13303392892222" lon="11.048277674427755"><ele>512.75</ele><time>2026-04-26T07:19:47.996Z</time></trkpt><trkpt lat="44.13302162698837" lon="11.048469940713817"><ele>514.0</ele><time>2026-04-26T07:19:48.996Z</time></trkpt><trkpt lat="44.13300524212093" lon="11.048636847347364"><ele>514.0</ele><time>2026-04-26T07:19:49.996Z</time></trkpt><trkpt lat="44.132981952360545" lon="11.048773616494959"><ele>514.0</ele><time>2026-04-26T07:19:50.996Z</time></trkpt><trkpt lat="44.13292088896197" lon="11.04889281610215"><ele>514.0</ele><time>2026-04-26T07:19:51.996Z</time></trkpt><trkpt lat="44.132841544253075" lon="11.048984864637617"><ele>514.0</ele><time>2026-04-26T07:19:52.996Z</time></trkpt><trkpt lat="44.13275248746359" lon="11.04905427356622"><ele>514.0</ele><time>2026-04-26T07:19:53.996Z</time></trkpt><trkpt lat="44.132651705927564" lon="11.049080202271112"><ele>514.0</ele><time>2026-04-26T07:19:54.996Z</time></trkpt><trkpt lat="44.13255366375381" lon="11.049115310914816"><ele>514.0</ele><time>2026-04-26T07:19:55.996Z</time></trkpt><trkpt lat="44.13247862460912" lon="11.049170088190673"><ele>514.0</ele><time>2026-04-26T07:19:56.996Z</time></trkpt><trkpt lat="44.1323944774192" lon="11.049260677434836"><ele>514.0</ele><time>2026-04-26T07:19:57.996Z</time></trkpt><trkpt lat="44.1323360833608" lon="11.049343341649966"><ele>514.0</ele><time>2026-04-26T07:19:58.996Z</time></trkpt><trkpt lat="44.132318098494274" lon="11.049429045904759"><ele>514.0</ele><time>2026-04-26T07:19:59.996Z</time></trkpt><trkpt lat="44.1323662174482" lon="11.049550256898405"><ele>518.5</ele><time>2026-04-26T07:20:01.996Z</time></trkpt><trkpt lat="44.132478017746955" lon="11.049548546364944"><ele>523.0</ele><time>2026-04-26T07:20:03.996Z</time></trkpt><trkpt lat="44.132606472055656" lon="11.049435437544854"><ele>527.5</ele><time>2026-04-26T07:20:05.996Z</time></trkpt><trkpt lat="44.13269442842553" lon="11.049355166220932"><ele>532.0</ele><time>2026-04-26T07:20:06.996Z</time></trkpt><trkpt lat="44.132802304984864" lon="11.049290396138828"><ele>532.0</ele><time>2026-04-26T07:20:07.996Z</time></trkpt><trkpt lat="44.13291416495549" lon="11.04925133194936"><ele>532.0</ele><time>2026-04-26T07:20:08.996Z</time></trkpt><trkpt lat="44.133030324515644" lon="11.049210062123773"><ele>532.0</ele><time>2026-04-26T07:20:09.996Z</time></trkpt><trkpt lat="44.133147592367855" lon="11.049152543886859"><ele>532.0</ele><time>2026-04-26T07:20:10.996Z</time></trkpt><trkpt lat="44.133242709868256" lon="11.049034876520203"><ele>534.6666666666667</ele><time>2026-04-26T07:20:11.996Z</time></trkpt><trkpt lat="44.133313553131856" lon="11.048873815989515"><ele>537.3333333333334</ele><time>2026-04-26T07:20:12.996Z</time></trkpt><trkpt lat="44.1333657028869" lon="11.048667619593152"><ele>540.0</ele><time>2026-04-26T07:20:13.996Z</time></trkpt><trkpt lat="44.13343237525707" lon="11.0484665072477"><ele>537.25</ele><time>2026-04-26T07:20:14.996Z</time></trkpt><trkpt lat="44.13349855363349" lon="11.048268489912092"><ele>534.5</ele><time>2026-04-26T07:20:15.996Z</time></trkpt><trkpt lat="44.133560155148075" lon="11.048094968254631"><ele>531.75</ele><time>2026-04-26T07:20:16.996Z</time></trkpt><trkpt lat="44.13360946412523" lon="11.047952659490887"><ele>529.0</ele><time>2026-04-26T07:20:17.996Z</time></trkpt><trkpt lat="44.13362894200369" lon="11.047799708624547"><ele>529.0</ele><time>2026-04-26T07:20:18.996Z</time></trkpt><trkpt lat="44.133627987078164" lon="11.047648844398179"><ele>529.0</ele><time>2026-04-26T07:20:19.996Z</time></trkpt><trkpt lat="44.13363741956569" lon="11.047547529051394"><ele>529.0</ele><time>2026-04-26T07:20:20.996Z</time></trkpt><trkpt lat="44.13373225292243" lon="11.047502698200677"><ele>529.0</ele><time>2026-04-26T07:20:22.996Z</time></trkpt><trkpt lat="44.13378949840793" lon="11.047540116002608"><ele>529.0</ele><time>2026-04-26T07:20:23.996Z</time></trkpt><trkpt lat="44.133808622977796" lon="11.047711757799773"><ele>529.0</ele><time>2026-04-26T07:20:25.996Z</time></trkpt><trkpt lat="44.133782180990565" lon="11.047806799781055"><ele>529.0</ele><time>2026-04-26T07:20:26.996Z</time></trkpt><trkpt lat="44.13374484604418" lon="11.0479088817932"><ele>529.0</ele><time>2026-04-26T07:20:27.996Z</time></trkpt><trkpt lat="44.13369315350566" lon="11.048037286073976"><ele>529.0</ele><time>2026-04-26T07:20:28.996Z</time></trkpt><trkpt lat="44.133654662430594" lon="11.048205196040083"><ele>529.0</ele><time>2026-04-26T07:20:29.996Z</time></trkpt><trkpt lat="44.133621137827866" lon="11.048385662023056"><ele>531.75</ele><time>2026-04-26T07:20:30.996Z</time></trkpt><trkpt lat="44.13361153433439" lon="11.048550894671127"><ele>534.5</ele><time>2026-04-26T07:20:31.996Z</time></trkpt><trkpt lat="44.133646340892" lon="11.04871326036469"><ele>537.25</ele><time>2026-04-26T07:20:32.996Z</time></trkpt><trkpt lat="44.13368341272625" lon="11.048870793419512"><ele>540.0</ele><time>2026-04-26T07:20:33.996Z</time></trkpt><trkpt lat="44.133734496419684" lon="11.049026818233175"><ele>542.0</ele><time>2026-04-26T07:20:34.996Z</time></trkpt><trkpt lat="44.13374856252842" lon="11.049196650099704"><ele>544.0</ele><time>2026-04-26T07:20:35.996Z</time></trkpt><trkpt lat="44.13372831073098" lon="11.049377978507826"><ele>546.0</ele><time>2026-04-26T07:20:36.996Z</time></trkpt><trkpt lat="44.13370397810545" lon="11.049560231189808"><ele>548.0</ele><time>2026-04-26T07:20:37.996Z</time></trkpt><trkpt lat="44.133677431582555" lon="11.04973894315413"><ele>548.0</ele><time>2026-04-26T07:20:38.996Z</time></trkpt><trkpt lat="44.13364997498754" lon="11.04992459203739"><ele>548.0</ele><time>2026-04-26T07:20:39.996Z</time></trkpt><trkpt lat="44.13362473265954" lon="11.050098784820324"><ele>548.0</ele><time>2026-04-26T07:20:40.996Z</time></trkpt><trkpt lat="44.13359667217007" lon="11.050243739315123"><ele>548.0</ele><time>2026-04-26T07:20:41.996Z</time></trkpt><trkpt lat="44.13354846799702" lon="11.050388757634503"><ele>550.0</ele><time>2026-04-26T07:20:42.996Z</time></trkpt><trkpt lat="44.13348952993282" lon="11.050534400458424"><ele>552.0</ele><time>2026-04-26T07:20:43.996Z</time></trkpt><trkpt lat="44.133433502975144" lon="11.050676878692324"><ele>554.0</ele><time>2026-04-26T07:20:44.996Z</time></trkpt><trkpt lat="44.133340572956655" lon="11.050816371331646"><ele>556.0</ele><time>2026-04-26T07:20:45.996Z</time></trkpt><trkpt lat="44.13323978335487" lon="11.050949714492313"><ele>557.0</ele><time>2026-04-26T07:20:46.996Z</time></trkpt><trkpt lat="44.1331303838317" lon="11.051089152666725"><ele>558.0</ele><time>2026-04-26T07:20:47.996Z</time></trkpt><trkpt lat="44.133034760859964" lon="11.05124110983509"><ele>559.0</ele><time>2026-04-26T07:20:48.996Z</time></trkpt><trkpt lat="44.132951369656865" lon="11.051404024303325"><ele>560.0</ele><time>2026-04-26T07:20:49.995Z</time></trkpt><trkpt lat="44.13287073547952" lon="11.051564617205946"><ele>562.75</ele><time>2026-04-26T07:20:50.995Z</time></trkpt><trkpt lat="44.13279375732452" lon="11.05171618897187"><ele>565.5</ele><time>2026-04-26T07:20:51.996Z</time></trkpt><trkpt lat="44.13270673663398" lon="11.05183760604179"><ele>568.25</ele><time>2026-04-26T07:20:52.996Z</time></trkpt><trkpt lat="44.13260410700589" lon="11.051939988489707"><ele>571.0</ele><time>2026-04-26T07:20:53.996Z</time></trkpt><trkpt lat="44.132491895451125" lon="11.0520306534336"><ele>569.0</ele><time>2026-04-26T07:20:54.996Z</time></trkpt><trkpt lat="44.13237371829306" lon="11.052099798238398"><ele>567.0</ele><time>2026-04-26T07:20:55.995Z</time></trkpt><trkpt lat="44.13226631539906" lon="11.052177541723715"><ele>565.0</ele><time>2026-04-26T07:20:56.995Z</time></trkpt><trkpt lat="44.132164428382396" lon="11.052262430540193"><ele>563.0</ele><time>2026-04-26T07:20:57.996Z</time></trkpt><trkpt lat="44.132065953341275" lon="11.052375875646261"><ele>566.0</ele><time>2026-04-26T07:20:58.996Z</time></trkpt><trkpt lat="44.131974825476455" lon="11.052525165782345"><ele>569.0</ele><time>2026-04-26T07:20:59.996Z</time></trkpt><trkpt lat="44.131880278832675" lon="11.05269011051946"><ele>572.0</ele><time>2026-04-26T07:21:00.995Z</time></trkpt><trkpt lat="44.13179560236" lon="11.052837937561105"><ele>575.0</ele><time>2026-04-26T07:21:01.995Z</time></trkpt><trkpt lat="44.13171141544597" lon="11.052978978752082"><ele>575.0</ele><time>2026-04-26T07:21:02.995Z</time></trkpt><trkpt lat="44.131624808012965" lon="11.053100063581825"><ele>575.0</ele><time>2026-04-26T07:21:03.995Z</time></trkpt><trkpt lat="44.131541441479904" lon="11.053216218306991"><ele>575.0</ele><time>2026-04-26T07:21:04.995Z</time></trkpt><trkpt lat="44.131468288533945" lon="11.053324490944773"><ele>575.0</ele><time>2026-04-26T07:21:05.995Z</time></trkpt><trkpt lat="44.131401278386335" lon="11.053418309480538"><ele>575.0</ele><time>2026-04-26T07:21:06.995Z</time></trkpt><trkpt lat="44.13132379267765" lon="11.053515441587557"><ele>576.0</ele><time>2026-04-26T07:21:07.995Z</time></trkpt><trkpt lat="44.131214193179" lon="11.053567475249459"><ele>577.0</ele><time>2026-04-26T07:21:08.995Z</time></trkpt><trkpt lat="44.131083017777314" lon="11.05360153368556"><ele>578.0</ele><time>2026-04-26T07:21:09.995Z</time></trkpt><trkpt lat="44.13095996192566" lon="11.053581941029316"><ele>579.0</ele><time>2026-04-26T07:21:10.995Z</time></trkpt><trkpt lat="44.130849617260836" lon="11.053591134197307"><ele>579.0</ele><time>2026-04-26T07:21:11.995Z</time></trkpt><trkpt lat="44.13076838212312" lon="11.05364427397347"><ele>579.0</ele><time>2026-04-26T07:21:12.995Z</time></trkpt><trkpt lat="44.13069237534259" lon="11.053774163862949"><ele>579.0</ele><time>2026-04-26T07:21:13.995Z</time></trkpt><trkpt lat="44.13061518232731" lon="11.053911137589155"><ele>579.0</ele><time>2026-04-26T07:21:14.995Z</time></trkpt><trkpt lat="44.13052087318194" lon="11.054058920617255"><ele>580.6666666666666</ele><time>2026-04-26T07:21:15.995Z</time></trkpt><trkpt lat="44.1304195955503" lon="11.05419408823975"><ele>582.3333333333333</ele><time>2026-04-26T07:21:16.995Z</time></trkpt><trkpt lat="44.13029756990245" lon="11.054322950427148"><ele>584.0</ele><time>2026-04-26T07:21:17.995Z</time></trkpt><trkpt lat="44.130139097957944" lon="11.054443396364595"><ele>584.0</ele><time>2026-04-26T07:21:18.995Z</time></trkpt><trkpt lat="44.129995789493144" lon="11.054559380977034"><ele>584.0</ele><time>2026-04-26T07:21:19.995Z</time></trkpt><trkpt lat="44.12987490780486" lon="11.054662233580553"><ele>584.0</ele><time>2026-04-26T07:21:20.995Z</time></trkpt><trkpt lat="44.12979640652532" lon="11.054732872605879"><ele>584.0</ele><time>2026-04-26T07:21:21.995Z</time></trkpt><trkpt lat="44.129732915714925" lon="11.054805920025748"><ele>584.75</ele><time>2026-04-26T07:21:22.995Z</time></trkpt><trkpt lat="44.12967840744095" lon="11.05490759502635"><ele>585.5</ele><time>2026-04-26T07:21:23.995Z</time></trkpt><trkpt lat="44.12963118356335" lon="11.055040251651258"><ele>586.25</ele><time>2026-04-26T07:21:24.995Z</time></trkpt><trkpt lat="44.129585143049766" lon="11.055217914975715"><ele>587.0</ele><time>2026-04-26T07:21:25.995Z</time></trkpt><trkpt lat="44.12953977907404" lon="11.055424044330817"><ele>587.0</ele><time>2026-04-26T07:21:26.995Z</time></trkpt><trkpt lat="44.129494850685866" lon="11.055637497116761"><ele>587.0</ele><time>2026-04-26T07:21:27.995Z</time></trkpt><trkpt lat="44.12946140817324" lon="11.055853813701448"><ele>587.0</ele><time>2026-04-26T07:21:28.995Z</time></trkpt><trkpt lat="44.12941108994964" lon="11.05606425182664"><ele>589.6666666666666</ele><time>2026-04-26T07:21:29.995Z</time></trkpt><trkpt lat="44.129351117593274" lon="11.056280657051984"><ele>592.3333333333334</ele><time>2026-04-26T07:21:30.995Z</time></trkpt><trkpt lat="44.12928235962349" lon="11.056480233968703"><ele>595.0</ele><time>2026-04-26T07:21:31.995Z</time></trkpt><trkpt lat="44.12919464228835" lon="11.056662444161839"><ele>597.6666666666667</ele><time>2026-04-26T07:21:32.996Z</time></trkpt><trkpt lat="44.12910122413185" lon="11.056837122078496"><ele>600.3333333333334</ele><time>2026-04-26T07:21:33.996Z</time></trkpt><trkpt lat="44.1290073401112" lon="11.056993251566547"><ele>603.0</ele><time>2026-04-26T07:21:34.996Z</time></trkpt><trkpt lat="44.12891300777708" lon="11.057151604535262"><ele>603.0</ele><time>2026-04-26T07:21:35.996Z</time></trkpt><trkpt lat="44.1288211386341" lon="11.057301566340016"><ele>603.0</ele><time>2026-04-26T07:21:36.996Z</time></trkpt><trkpt lat="44.12873762902755" lon="11.057441604489487"><ele>603.0</ele><time>2026-04-26T07:21:37.996Z</time></trkpt><trkpt lat="44.128660003084356" lon="11.057550043024074"><ele>603.0</ele><time>2026-04-26T07:21:38.996Z</time></trkpt><trkpt lat="44.128567928656764" lon="11.057635686649785"><ele>604.75</ele><time>2026-04-26T07:21:39.996Z</time></trkpt><trkpt lat="44.12845660586989" lon="11.057695839429174"><ele>606.5</ele><time>2026-04-26T07:21:40.996Z</time></trkpt><trkpt lat="44.128324904506655" lon="11.0577425051751"><ele>608.25</ele><time>2026-04-26T07:21:41.996Z</time></trkpt><trkpt lat="44.128186511198834" lon="11.057741106311289"><ele>610.0</ele><time>2026-04-26T07:21:42.996Z</time></trkpt><trkpt lat="44.12807572308173" lon="11.057742794795006"><ele>611.1666666666667</ele><time>2026-04-26T07:21:43.996Z</time></trkpt><trkpt lat="44.12800333433309" lon="11.057735111529588"><ele>612.3333333333334</ele><time>2026-04-26T07:21:44.996Z</time></trkpt><trkpt lat="44.12793843592336" lon="11.057729924571417"><ele>613.5</ele><time>2026-04-26T07:21:45.996Z</time></trkpt><trkpt lat="44.12786649205519" lon="11.057778089321019"><ele>614.6666666666666</ele><time>2026-04-26T07:21:47.996Z</time></trkpt><trkpt lat="44.12786835871951" lon="11.05794103306129"><ele>615.8333333333333</ele><time>2026-04-26T07:21:49.996Z</time></trkpt><trkpt lat="44.12791617893613" lon="11.058039699220439"><ele>617.0</ele><time>2026-04-26T07:21:50.996Z</time></trkpt><trkpt lat="44.1279852378959" lon="11.058117807891142"><ele>617.0</ele><time>2026-04-26T07:21:51.996Z</time></trkpt><trkpt lat="44.128095118413015" lon="11.058187554410582"><ele>617.0</ele><time>2026-04-26T07:21:52.996Z</time></trkpt><trkpt lat="44.12820589623731" lon="11.058271262687743"><ele>617.0</ele><time>2026-04-26T07:21:53.996Z</time></trkpt><trkpt lat="44.12833469802311" lon="11.05837497169653"><ele>617.0</ele><time>2026-04-26T07:21:54.996Z</time></trkpt><trkpt lat="44.12847554682147" lon="11.058485111346677"><ele>618.0</ele><time>2026-04-26T07:21:55.996Z</time></trkpt><trkpt lat="44.12860282658132" lon="11.058598888045"><ele>619.0</ele><time>2026-04-26T07:21:56.996Z</time></trkpt><trkpt lat="44.12870925478948" lon="11.058708790266707"><ele>620.0</ele><time>2026-04-26T07:21:57.996Z</time></trkpt><trkpt lat="44.128805376840425" lon="11.058793000677753"><ele>621.0</ele><time>2026-04-26T07:21:58.996Z</time></trkpt><trkpt lat="44.12890079629379" lon="11.058844850289962"><ele>621.0</ele><time>2026-04-26T07:21:59.996Z</time></trkpt><trkpt lat="44.128995463758685" lon="11.058878838796577"><ele>621.0</ele><time>2026-04-26T07:22:00.996Z</time></trkpt><trkpt lat="44.129089297151296" lon="11.058861661109583"><ele>621.0</ele><time>2026-04-26T07:22:01.996Z</time></trkpt><trkpt lat="44.12919356349411" lon="11.058813344901964"><ele>621.0</ele><time>2026-04-26T07:22:02.996Z</time></trkpt><trkpt lat="44.12928887378512" lon="11.05872239556127"><ele>621.0</ele><time>2026-04-26T07:22:03.996Z</time></trkpt><trkpt lat="44.129390143874424" lon="11.058608483288474"><ele>622.0</ele><time>2026-04-26T07:22:04.996Z</time></trkpt><trkpt lat="44.12947880578538" lon="11.058521224335214"><ele>623.0</ele><time>2026-04-26T07:22:05.996Z</time></trkpt><trkpt lat="44.129545473944916" lon="11.058458137998329"><ele>624.0</ele><time>2026-04-26T07:22:06.996Z</time></trkpt><trkpt lat="44.12964430615558" lon="11.05845032253749"><ele>625.0</ele><time>2026-04-26T07:22:08.996Z</time></trkpt><trkpt lat="44.12971096329203" lon="11.058600634905295"><ele>626.0</ele><time>2026-04-26T07:22:10.996Z</time></trkpt><trkpt lat="44.12969443058709" lon="11.058727931843524"><ele>626.0</ele><time>2026-04-26T07:22:11.996Z</time></trkpt><trkpt lat="44.12965721708912" lon="11.05884387416385"><ele>626.0</ele><time>2026-04-26T07:22:12.996Z</time></trkpt><trkpt lat="44.12959383088749" lon="11.05896920308411"><ele>626.0</ele><time>2026-04-26T07:22:13.996Z</time></trkpt><trkpt lat="44.12954208584235" lon="11.05910839816671"><ele>626.0</ele><time>2026-04-26T07:22:14.996Z</time></trkpt><trkpt lat="44.129513399856" lon="11.059253221578697"><ele>626.0</ele><time>2026-04-26T07:22:15.996Z</time></trkpt><trkpt lat="44.12949146554653" lon="11.05936376183905"><ele>627.6</ele><time>2026-04-26T07:22:16.996Z</time></trkpt><trkpt lat="44.12944062099696" lon="11.059432697927159"><ele>629.2</ele><time>2026-04-26T07:22:17.996Z</time></trkpt><trkpt lat="44.12937854983469" lon="11.059481027939759"><ele>630.8</ele><time>2026-04-26T07:22:18.996Z</time></trkpt><trkpt lat="44.12929317543588" lon="11.05950933668859"><ele>632.4</ele><time>2026-04-26T07:22:19.996Z</time></trkpt><trkpt lat="44.12918816504318" lon="11.059535643366262"><ele>634.0</ele><time>2026-04-26T07:22:20.996Z</time></trkpt><trkpt lat="44.12907372049193" lon="11.059565871319398"><ele>633.5</ele><time>2026-04-26T07:22:21.996Z</time></trkpt><trkpt lat="44.12892499191946" lon="11.05958363311387"><ele>633.0</ele><time>2026-04-26T07:22:22.996Z</time></trkpt><trkpt lat="44.128790591928976" lon="11.059589232901898"><ele>632.5</ele><time>2026-04-26T07:22:23.996Z</time></trkpt><trkpt lat="44.12865710538029" lon="11.059575379350253"><ele>632.0</ele><time>2026-04-26T07:22:24.996Z</time></trkpt><trkpt lat="44.12852696954599" lon="11.059575623340635"><ele>632.0</ele><time>2026-04-26T07:22:25.996Z</time></trkpt><trkpt lat="44.128405325676674" lon="11.059574337899852"><ele>632.0</ele><time>2026-04-26T07:22:26.996Z</time></trkpt><trkpt lat="44.128291612552964" lon="11.059588627890339"><ele>632.0</ele><time>2026-04-26T07:22:27.996Z</time></trkpt><trkpt lat="44.12817909087098" lon="11.059625854903533"><ele>632.0</ele><time>2026-04-26T07:22:28.996Z</time></trkpt><trkpt lat="44.12806284993882" lon="11.059696820360188"><ele>633.3333333333333</ele><time>2026-04-26T07:22:29.996Z</time></trkpt><trkpt lat="44.12794731256068" lon="11.059820683539636"><ele>634.6666666666666</ele><time>2026-04-26T07:22:30.996Z</time></trkpt><trkpt lat="44.12781009745213" lon="11.059952317126065"><ele>636.0</ele><time>2026-04-26T07:22:31.996Z</time></trkpt><trkpt lat="44.127671765770195" lon="11.060085966021585"><ele>639.0</ele><time>2026-04-26T07:22:32.996Z</time></trkpt><trkpt lat="44.12752960194118" lon="11.060222961580862"><ele>642.0</ele><time>2026-04-26T07:22:33.996Z</time></trkpt><trkpt lat="44.127394475792336" lon="11.060339431918619"><ele>645.0</ele><time>2026-04-26T07:22:34.996Z</time></trkpt><trkpt lat="44.1272844604606" lon="11.06042983314114"><ele>646.0</ele><time>2026-04-26T07:22:35.996Z</time></trkpt><trkpt lat="44.12719486501976" lon="11.060504020572209"><ele>647.0</ele><time>2026-04-26T07:22:36.996Z</time></trkpt><trkpt lat="44.127099837843595" lon="11.060529933292669"><ele>648.0</ele><time>2026-04-26T07:22:37.996Z</time></trkpt><trkpt lat="44.12698913614833" lon="11.060524690948602"><ele>649.0</ele><time>2026-04-26T07:22:38.996Z</time></trkpt><trkpt lat="44.12687998987577" lon="11.060503208751923"><ele>650.0</ele><time>2026-04-26T07:22:39.996Z</time></trkpt><trkpt lat="44.126745075945706" lon="11.060472867041709"><ele>650.0</ele><time>2026-04-26T07:22:40.996Z</time></trkpt><trkpt lat="44.126619686073134" lon="11.06044911818165"><ele>650.0</ele><time>2026-04-26T07:22:41.996Z</time></trkpt><trkpt lat="44.126502453826326" lon="11.060443107428869"><ele>650.0</ele><time>2026-04-26T07:22:42.996Z</time></trkpt><trkpt lat="44.126365782308035" lon="11.060481052086098"><ele>650.0</ele><time>2026-04-26T07:22:43.996Z</time></trkpt><trkpt lat="44.12623111180557" lon="11.06057477715925"><ele>649.75</ele><time>2026-04-26T07:22:44.996Z</time></trkpt><trkpt lat="44.12609291981081" lon="11.060670138830286"><ele>649.5</ele><time>2026-04-26T07:22:45.996Z</time></trkpt><trkpt lat="44.125939933399344" lon="11.06076528900085"><ele>649.25</ele><time>2026-04-26T07:22:46.996Z</time></trkpt><trkpt lat="44.12582405866409" lon="11.060814893174612"><ele>649.0</ele><time>2026-04-26T07:22:47.996Z</time></trkpt><trkpt lat="44.12574076273449" lon="11.06084883678678"><ele>650.5</ele><time>2026-04-26T07:22:48.996Z</time></trkpt><trkpt lat="44.125668390790494" lon="11.060892498309826"><ele>652.0</ele><time>2026-04-26T07:22:49.996Z</time></trkpt><trkpt lat="44.125610484355065" lon="11.060946868655645"><ele>653.5</ele><time>2026-04-26T07:22:50.996Z</time></trkpt><trkpt lat="44.125583536767145" lon="11.061121876811043"><ele>655.0</ele><time>2026-04-26T07:22:52.996Z</time></trkpt><trkpt lat="44.1256301377895" lon="11.061211614666165"><ele>656.5</ele><time>2026-04-26T07:22:53.996Z</time></trkpt><trkpt lat="44.12570314698677" lon="11.061241599003917"><ele>658.0</ele><time>2026-04-26T07:22:54.996Z</time></trkpt><trkpt lat="44.12581707464264" lon="11.06124168883471"><ele>658.0</ele><time>2026-04-26T07:22:55.995Z</time></trkpt><trkpt lat="44.12595407292621" lon="11.061247261201277"><ele>658.0</ele><time>2026-04-26T07:22:56.995Z</time></trkpt><trkpt lat="44.12611648971256" lon="11.061267608600483"><ele>658.0</ele><time>2026-04-26T07:22:57.996Z</time></trkpt><trkpt lat="44.12625894332147" lon="11.06129017729747"><ele>658.0</ele><time>2026-04-26T07:22:58.995Z</time></trkpt><trkpt lat="44.12639586942875" lon="11.061339507239696"><ele>658.0</ele><time>2026-04-26T07:22:59.995Z</time></trkpt><trkpt lat="44.12652955120294" lon="11.061408476778858"><ele>658.0</ele><time>2026-04-26T07:23:00.996Z</time></trkpt><trkpt lat="44.12667012516935" lon="11.061513703788107"><ele>658.0</ele><time>2026-04-26T07:23:01.995Z</time></trkpt><trkpt lat="44.12680396560149" lon="11.061637385283413"><ele>660.2</ele><time>2026-04-26T07:23:02.995Z</time></trkpt><trkpt lat="44.12691829718797" lon="11.061737091254544"><ele>662.4</ele><time>2026-04-26T07:23:03.995Z</time></trkpt><trkpt lat="44.12701320589404" lon="11.061806111498692"><ele>664.6</ele><time>2026-04-26T07:23:04.996Z</time></trkpt><trkpt lat="44.12708635618088" lon="11.061866939962806"><ele>666.8000000000001</ele><time>2026-04-26T07:23:05.996Z</time></trkpt><trkpt lat="44.12713828482009" lon="11.061929927705648"><ele>669.0</ele><time>2026-04-26T07:23:06.995Z</time></trkpt><trkpt lat="44.127200237318014" lon="11.06207660444117"><ele>669.0</ele><time>2026-04-26T07:23:08.996Z</time></trkpt><trkpt lat="44.127194930125306" lon="11.062192569643676"><ele>669.0</ele><time>2026-04-26T07:23:09.996Z</time></trkpt><trkpt lat="44.12718183250643" lon="11.062329867645417"><ele>669.0</ele><time>2026-04-26T07:23:10.996Z</time></trkpt><trkpt lat="44.127140945854705" lon="11.062496373838258"><ele>669.0</ele><time>2026-04-26T07:23:11.996Z</time></trkpt><trkpt lat="44.12707192468241" lon="11.06265426467649"><ele>669.0</ele><time>2026-04-26T07:23:12.996Z</time></trkpt><trkpt lat="44.12698708776642" lon="11.062777414028332"><ele>669.5</ele><time>2026-04-26T07:23:13.996Z</time></trkpt><trkpt lat="44.12689008217075" lon="11.062875416049808"><ele>670.0</ele><time>2026-04-26T07:23:14.996Z</time></trkpt><trkpt lat="44.12679092473324" lon="11.06297579519727"><ele>670.5</ele><time>2026-04-26T07:23:15.996Z</time></trkpt><trkpt lat="44.12671571577402" lon="11.063100752505592"><ele>671.0</ele><time>2026-04-26T07:23:16.996Z</time></trkpt><trkpt lat="44.12665563049226" lon="11.06327184871207"><ele>671.0</ele><time>2026-04-26T07:23:17.996Z</time></trkpt><trkpt lat="44.12663050159108" lon="11.06346572626362"><ele>671.0</ele><time>2026-04-26T07:23:18.996Z</time></trkpt><trkpt lat="44.12661346672424" lon="11.06369907561476"><ele>671.0</ele><time>2026-04-26T07:23:19.996Z</time></trkpt><trkpt lat="44.1265768005349" lon="11.063919965228292"><ele>671.0</ele><time>2026-04-26T07:23:20.996Z</time></trkpt><trkpt lat="44.12656453951205" lon="11.064107282780276"><ele>671.0</ele><time>2026-04-26T07:23:21.996Z</time></trkpt><trkpt lat="44.12656577530213" lon="11.064270321608406"><ele>671.0</ele><time>2026-04-26T07:23:22.996Z</time></trkpt><trkpt lat="44.126548847594485" lon="11.06439423546093"><ele>671.0</ele><time>2026-04-26T07:23:23.996Z</time></trkpt><trkpt lat="44.12647947191556" lon="11.064455698184796"><ele>671.0</ele><time>2026-04-26T07:23:24.996Z</time></trkpt><trkpt lat="44.126386998439315" lon="11.064478179652333"><ele>675.75</ele><time>2026-04-26T07:23:25.996Z</time></trkpt><trkpt lat="44.12627830828023" lon="11.064474493552439"><ele>680.5</ele><time>2026-04-26T07:23:26.996Z</time></trkpt><trkpt lat="44.12615357645207" lon="11.064494730465867"><ele>685.25</ele><time>2026-04-26T07:23:27.996Z</time></trkpt><trkpt lat="44.126017070087556" lon="11.06456535465949"><ele>690.0</ele><time>2026-04-26T07:23:28.996Z</time></trkpt><trkpt lat="44.12588920303974" lon="11.064667329973934"><ele>690.0</ele><time>2026-04-26T07:23:29.996Z</time></trkpt><trkpt lat="44.12578181938362" lon="11.064771557654202"><ele>690.0</ele><time>2026-04-26T07:23:30.996Z</time></trkpt><trkpt lat="44.1256630875083" lon="11.064809411072257"><ele>690.0</ele><time>2026-04-26T07:23:31.996Z</time></trkpt><trkpt lat="44.12553262407417" lon="11.064832075977336"><ele>690.0</ele><time>2026-04-26T07:23:32.996Z</time></trkpt><trkpt lat="44.12540397359732" lon="11.064815370409978"><ele>691.75</ele><time>2026-04-26T07:23:33.996Z</time></trkpt><trkpt lat="44.12530555343887" lon="11.064846472982367"><ele>693.5</ele><time>2026-04-26T07:23:34.996Z</time></trkpt><trkpt lat="44.12519969275367" lon="11.064919071443336"><ele>695.25</ele><time>2026-04-26T07:23:35.996Z</time></trkpt><trkpt lat="44.125105000937545" lon="11.065013805652631"><ele>697.0</ele><time>2026-04-26T07:23:36.996Z</time></trkpt><trkpt lat="44.125026107025626" lon="11.06513910653343"><ele>698.75</ele><time>2026-04-26T07:23:37.996Z</time></trkpt><trkpt lat="44.12494858107612" lon="11.065268927325542"><ele>700.5</ele><time>2026-04-26T07:23:38.996Z</time></trkpt><trkpt lat="44.124881090899365" lon="11.06543436509392"><ele>702.25</ele><time>2026-04-26T07:23:39.996Z</time></trkpt><trkpt lat="44.12483983244935" lon="11.065596621327249"><ele>704.0</ele><time>2026-04-26T07:23:40.996Z</time></trkpt><trkpt lat="44.124799594560116" lon="11.06575019306624"><ele>701.0</ele><time>2026-04-26T07:23:41.996Z</time></trkpt><trkpt lat="44.12474651391986" lon="11.06592575979764"><ele>698.0</ele><time>2026-04-26T07:23:42.996Z</time></trkpt><trkpt lat="44.12470125649266" lon="11.066133683055483"><ele>695.0</ele><time>2026-04-26T07:23:43.996Z</time></trkpt><trkpt lat="44.124670894432164" lon="11.066323057381222"><ele>692.0</ele><time>2026-04-26T07:23:44.996Z</time></trkpt><trkpt lat="44.12464368218368" lon="11.066522293491062"><ele>690.4000000000001</ele><time>2026-04-26T07:23:45.996Z</time></trkpt><trkpt lat="44.12462735554445" lon="11.066703722575962"><ele>688.8000000000001</ele><time>2026-04-26T07:23:46.996Z</time></trkpt><trkpt lat="44.12460629748195" lon="11.066847459250756"><ele>687.2</ele><time>2026-04-26T07:23:47.996Z</time></trkpt><trkpt lat="44.12456455172174" lon="11.066968206581368"><ele>685.6</ele><time>2026-04-26T07:23:48.996Z</time></trkpt><trkpt lat="44.12449750450059" lon="11.067059969693046"><ele>684.0</ele><time>2026-04-26T07:23:49.996Z</time></trkpt><trkpt lat="44.12439847597804" lon="11.067118664991131"><ele>684.0</ele><time>2026-04-26T07:23:50.996Z</time></trkpt><trkpt lat="44.124270443240285" lon="11.067199803901643"><ele>684.0</ele><time>2026-04-26T07:23:51.996Z</time></trkpt><trkpt lat="44.12417339293832" lon="11.067309413260427"><ele>684.0</ele><time>2026-04-26T07:23:52.996Z</time></trkpt><trkpt lat="44.124128928271254" lon="11.067421296063241"><ele>684.0</ele><time>2026-04-26T07:23:53.996Z</time></trkpt><trkpt lat="44.12410877888198" lon="11.067556513034289"><ele>682.5</ele><time>2026-04-26T07:23:54.996Z</time></trkpt><trkpt lat="44.1241292011004" lon="11.067730396211562"><ele>681.0</ele><time>2026-04-26T07:23:55.996Z</time></trkpt><trkpt lat="44.12415792597218" lon="11.06792660122435"><ele>679.5</ele><time>2026-04-26T07:23:56.996Z</time></trkpt><trkpt lat="44.12420452042888" lon="11.068135309654037"><ele>678.0</ele><time>2026-04-26T07:23:57.996Z</time></trkpt><trkpt lat="44.124256660266006" lon="11.068368639249243"><ele>677.6666666666666</ele><time>2026-04-26T07:23:58.996Z</time></trkpt><trkpt lat="44.124329068983045" lon="11.068598757352788"><ele>677.3333333333333</ele><time>2026-04-26T07:23:59.996Z</time></trkpt><trkpt lat="44.124405357977366" lon="11.068840339144435"><ele>677.0</ele><time>2026-04-26T07:24:00.996Z</time></trkpt><trkpt lat="44.12448844213915" lon="11.069095655906521"><ele>677.3333333333333</ele><time>2026-04-26T07:24:01.996Z</time></trkpt><trkpt lat="44.12457068077292" lon="11.069332842316747"><ele>677.6666666666666</ele><time>2026-04-26T07:24:02.996Z</time></trkpt><trkpt lat="44.124650906006316" lon="11.069553891715778"><ele>678.0</ele><time>2026-04-26T07:24:03.996Z</time></trkpt><trkpt lat="44.124730571006765" lon="11.069773097174522"><ele>681.0</ele><time>2026-04-26T07:24:04.996Z</time></trkpt><trkpt lat="44.12479687405272" lon="11.06999966498627"><ele>684.0</ele><time>2026-04-26T07:24:05.996Z</time></trkpt><trkpt lat="44.12486279255937" lon="11.070209259557913"><ele>687.0</ele><time>2026-04-26T07:24:06.996Z</time></trkpt><trkpt lat="44.124917463835274" lon="11.070397053363536"><ele>683.25</ele><time>2026-04-26T07:24:07.996Z</time></trkpt><trkpt lat="44.1249531552823" lon="11.070595339485898"><ele>679.5</ele><time>2026-04-26T07:24:08.996Z</time></trkpt><trkpt lat="44.124967734552705" lon="11.07080699345287"><ele>675.75</ele><time>2026-04-26T07:24:09.996Z</time></trkpt><trkpt lat="44.12498487409544" lon="11.071004036597317"><ele>672.0</ele><time>2026-04-26T07:24:10.996Z</time></trkpt><trkpt lat="44.12501248713144" lon="11.071170443249928"><ele>672.0</ele><time>2026-04-26T07:24:11.996Z</time></trkpt><trkpt lat="44.12505096317451" lon="11.071314883890592"><ele>672.0</ele><time>2026-04-26T07:24:12.996Z</time></trkpt><trkpt lat="44.12511194832564" lon="11.071412393561948"><ele>672.0</ele><time>2026-04-26T07:24:13.996Z</time></trkpt><trkpt lat="44.12513342491968" lon="11.071517587408483"><ele>672.0</ele><time>2026-04-26T07:24:14.996Z</time></trkpt><trkpt lat="44.12510972657477" lon="11.071615233205323"><ele>672.0</ele><time>2026-04-26T07:24:15.996Z</time></trkpt><trkpt lat="44.12505485532945" lon="11.07168576938947"><ele>672.0</ele><time>2026-04-26T07:24:16.996Z</time></trkpt><trkpt lat="44.12496894300334" lon="11.071761570621474"><ele>679.75</ele><time>2026-04-26T07:24:17.996Z</time></trkpt><trkpt lat="44.12485640114252" lon="11.071873772164555"><ele>687.5</ele><time>2026-04-26T07:24:18.996Z</time></trkpt><trkpt lat="44.12475282088331" lon="11.071994985709278"><ele>695.25</ele><time>2026-04-26T07:24:19.996Z</time></trkpt><trkpt lat="44.124656925929095" lon="11.072091669123001"><ele>703.0</ele><time>2026-04-26T07:24:20.996Z</time></trkpt><trkpt lat="44.12458981101192" lon="11.072194758113149"><ele>703.0</ele><time>2026-04-26T07:24:21.996Z</time></trkpt><trkpt lat="44.12455999214762" lon="11.072319892958976"><ele>703.0</ele><time>2026-04-26T07:24:22.996Z</time></trkpt><trkpt lat="44.12453998574944" lon="11.072450539205933"><ele>703.0</ele><time>2026-04-26T07:24:23.996Z</time></trkpt><trkpt lat="44.124579356862576" lon="11.07259825251305"><ele>703.0</ele><time>2026-04-26T07:24:24.996Z</time></trkpt><trkpt lat="44.12461382453831" lon="11.072707813791906"><ele>703.0</ele><time>2026-04-26T07:24:25.996Z</time></trkpt><trkpt lat="44.12469839593968" lon="11.072836022407548"><ele>703.75</ele><time>2026-04-26T07:24:26.996Z</time></trkpt><trkpt lat="44.124814014302224" lon="11.072943755989002"><ele>704.5</ele><time>2026-04-26T07:24:27.996Z</time></trkpt><trkpt lat="44.12494234113049" lon="11.073020534457855"><ele>705.25</ele><time>2026-04-26T07:24:28.996Z</time></trkpt><trkpt lat="44.12503123225959" lon="11.073091252971986"><ele>706.0</ele><time>2026-04-26T07:24:29.996Z</time></trkpt><trkpt lat="44.12512063596544" lon="11.073152450072824"><ele>703.0</ele><time>2026-04-26T07:24:30.996Z</time></trkpt><trkpt lat="44.12524563009303" lon="11.0732030912606"><ele>700.0</ele><time>2026-04-26T07:24:31.996Z</time></trkpt><trkpt lat="44.12537966873156" lon="11.073237581392462"><ele>697.0</ele><time>2026-04-26T07:24:32.996Z</time></trkpt><trkpt lat="44.12548617358153" lon="11.073288369093149"><ele>694.0</ele><time>2026-04-26T07:24:33.996Z</time></trkpt><trkpt lat="44.12554661023667" lon="11.073412723144608"><ele>694.0</ele><time>2026-04-26T07:24:34.996Z</time></trkpt><trkpt lat="44.12558715509037" lon="11.073581282761666"><ele>694.0</ele><time>2026-04-26T07:24:35.996Z</time></trkpt><trkpt lat="44.125613843943555" lon="11.07376978988486"><ele>694.0</ele><time>2026-04-26T07:24:36.996Z</time></trkpt><trkpt lat="44.125640970862236" lon="11.073922892996224"><ele>694.0</ele><time>2026-04-26T07:24:37.996Z</time></trkpt><trkpt lat="44.12569664513208" lon="11.074029799919979"><ele>693.8000000000001</ele><time>2026-04-26T07:24:38.996Z</time></trkpt><trkpt lat="44.125768581738896" lon="11.074104017272237"><ele>693.6</ele><time>2026-04-26T07:24:39.996Z</time></trkpt><trkpt lat="44.12584514373462" lon="11.074160602145312"><ele>693.4</ele><time>2026-04-26T07:24:40.996Z</time></trkpt><trkpt lat="44.1259367055079" lon="11.074235019681943"><ele>693.2</ele><time>2026-04-26T07:24:41.996Z</time></trkpt><trkpt lat="44.12602282854926" lon="11.07436813755696"><ele>693.0</ele><time>2026-04-26T07:24:42.996Z</time></trkpt><trkpt lat="44.126074346188865" lon="11.074528093185279"><ele>693.0</ele><time>2026-04-26T07:24:43.996Z</time></trkpt><trkpt lat="44.126129270281375" lon="11.07468274190051"><ele>693.0</ele><time>2026-04-26T07:24:44.996Z</time></trkpt><trkpt lat="44.12620641932738" lon="11.074836780352006"><ele>693.0</ele><time>2026-04-26T07:24:45.996Z</time></trkpt><trkpt lat="44.12628643208823" lon="11.074938391376403"><ele>693.0</ele><time>2026-04-26T07:24:46.996Z</time></trkpt><trkpt lat="44.1263679475189" lon="11.075025326636753"><ele>695.8</ele><time>2026-04-26T07:24:47.996Z</time></trkpt><trkpt lat="44.12642498130495" lon="11.075137097054716"><ele>698.5999999999999</ele><time>2026-04-26T07:24:48.996Z</time></trkpt><trkpt lat="44.126444403757745" lon="11.075289091239393"><ele>701.4000000000001</ele><time>2026-04-26T07:24:49.996Z</time></trkpt><trkpt lat="44.12643621639426" lon="11.075433274338476"><ele>704.2</ele><time>2026-04-26T07:24:50.996Z</time></trkpt><trkpt lat="44.12640592939404" lon="11.075600203591373"><ele>707.0</ele><time>2026-04-26T07:24:51.996Z</time></trkpt><trkpt lat="44.126367353250295" lon="11.075785748845238"><ele>707.25</ele><time>2026-04-26T07:24:52.996Z</time></trkpt><trkpt lat="44.126310837298085" lon="11.075969374832548"><ele>707.5</ele><time>2026-04-26T07:24:53.996Z</time></trkpt><trkpt lat="44.126260347367555" lon="11.076124253483714"><ele>707.75</ele><time>2026-04-26T07:24:54.996Z</time></trkpt><trkpt lat="44.12620897416314" lon="11.076268789284867"><ele>708.0</ele><time>2026-04-26T07:24:55.996Z</time></trkpt><trkpt lat="44.126142837826364" lon="11.07639827604952"><ele>708.0</ele><time>2026-04-26T07:24:56.996Z</time></trkpt><trkpt lat="44.126082517538606" lon="11.076536599905268"><ele>708.0</ele><time>2026-04-26T07:24:57.996Z</time></trkpt><trkpt lat="44.126004292035624" lon="11.076688203599597"><ele>708.0</ele><time>2026-04-26T07:24:58.996Z</time></trkpt><trkpt lat="44.125920114111324" lon="11.076853940779028"><ele>708.0</ele><time>2026-04-26T07:24:59.996Z</time></trkpt><trkpt lat="44.125854331901124" lon="11.077001746615002"><ele>709.4</ele><time>2026-04-26T07:25:00.996Z</time></trkpt><trkpt lat="44.125786208882005" lon="11.077113213719235"><ele>710.8</ele><time>2026-04-26T07:25:01.995Z</time></trkpt><trkpt lat="44.12575488747044" lon="11.077240620439332"><ele>712.2</ele><time>2026-04-26T07:25:02.995Z</time></trkpt><trkpt lat="44.12571926239844" lon="11.077384792595375"><ele>713.6</ele><time>2026-04-26T07:25:03.995Z</time></trkpt><trkpt lat="44.12568045165114" lon="11.077524094730336"><ele>715.0</ele><time>2026-04-26T07:25:04.995Z</time></trkpt><trkpt lat="44.12566135904778" lon="11.077628282766955"><ele>715.0</ele><time>2026-04-26T07:25:05.995Z</time></trkpt><trkpt lat="44.12565772291906" lon="11.077726477377754"><ele>715.0</ele><time>2026-04-26T07:25:06.995Z</time></trkpt><trkpt lat="44.12566952647425" lon="11.07782826241818"><ele>715.0</ele><time>2026-04-26T07:25:07.995Z</time></trkpt><trkpt lat="44.12570067808215" lon="11.077924268826749"><ele>715.0</ele><time>2026-04-26T07:25:08.995Z</time></trkpt><trkpt lat="44.12577967422662" lon="11.078008287500685"><ele>715.0</ele><time>2026-04-26T07:25:09.995Z</time></trkpt><trkpt lat="44.12588415332815" lon="11.078117927568094"><ele>710.75</ele><time>2026-04-26T07:25:10.995Z</time></trkpt><trkpt lat="44.125987609426346" lon="11.078254800146574"><ele>706.5</ele><time>2026-04-26T07:25:11.995Z</time></trkpt><trkpt lat="44.12607662146033" lon="11.078388127160302"><ele>702.25</ele><time>2026-04-26T07:25:12.995Z</time></trkpt><trkpt lat="44.1261193475888" lon="11.078505876660781"><ele>698.0</ele><time>2026-04-26T07:25:13.995Z</time></trkpt><trkpt lat="44.12615116356928" lon="11.07863272048172"><ele>698.0</ele><time>2026-04-26T07:25:14.995Z</time></trkpt><trkpt lat="44.126147569493874" lon="11.078773222197508"><ele>698.0</ele><time>2026-04-26T07:25:15.995Z</time></trkpt><trkpt lat="44.12612059630109" lon="11.0789353893857"><ele>698.0</ele><time>2026-04-26T07:25:16.995Z</time></trkpt><trkpt lat="44.12607097057005" lon="11.079077231712736"><ele>698.0</ele><time>2026-04-26T07:25:17.995Z</time></trkpt><trkpt lat="44.12599930260935" lon="11.07922442167418"><ele>698.25</ele><time>2026-04-26T07:25:18.995Z</time></trkpt><trkpt lat="44.125906202567165" lon="11.07936580506173"><ele>698.5</ele><time>2026-04-26T07:25:19.995Z</time></trkpt><trkpt lat="44.12582503987607" lon="11.079493445442465"><ele>698.75</ele><time>2026-04-26T07:25:20.995Z</time></trkpt><trkpt lat="44.12576025008257" lon="11.079638630224334"><ele>699.0</ele><time>2026-04-26T07:25:21.995Z</time></trkpt><trkpt lat="44.125738647927896" lon="11.079807040437208"><ele>698.0</ele><time>2026-04-26T07:25:22.995Z</time></trkpt><trkpt lat="44.12575907820508" lon="11.080018445992923"><ele>697.0</ele><time>2026-04-26T07:25:23.995Z</time></trkpt><trkpt lat="44.12576293205149" lon="11.080230535265724"><ele>696.0</ele><time>2026-04-26T07:25:24.995Z</time></trkpt><trkpt lat="44.1257224194049" lon="11.080447484068978"><ele>701.5</ele><time>2026-04-26T07:25:25.995Z</time></trkpt><trkpt lat="44.12568610026684" lon="11.08064275672497"><ele>707.0</ele><time>2026-04-26T07:25:26.995Z</time></trkpt><trkpt lat="44.12566273410627" lon="11.08080483827569"><ele>712.5</ele><time>2026-04-26T07:25:27.995Z</time></trkpt><trkpt lat="44.12565492011018" lon="11.080957505973503"><ele>718.0</ele><time>2026-04-26T07:25:28.995Z</time></trkpt><trkpt lat="44.12565643390994" lon="11.081096384984232"><ele>718.0</ele><time>2026-04-26T07:25:29.995Z</time></trkpt><trkpt lat="44.12566768938996" lon="11.081202204706333"><ele>718.0</ele><time>2026-04-26T07:25:30.995Z</time></trkpt><trkpt lat="44.12570854691743" lon="11.081276634488649"><ele>718.0</ele><time>2026-04-26T07:25:31.995Z</time></trkpt><trkpt lat="44.1257752449994" lon="11.081343940247681"><ele>718.0</ele><time>2026-04-26T07:25:32.995Z</time></trkpt><trkpt lat="44.12585040837772" lon="11.081379899806572"><ele>718.0</ele><time>2026-04-26T07:25:33.995Z</time></trkpt><trkpt lat="44.125976136230484" lon="11.08135238428304"><ele>718.0</ele><time>2026-04-26T07:25:34.995Z</time></trkpt><trkpt lat="44.12612064273926" lon="11.081367509490573"><ele>712.0</ele><time>2026-04-26T07:25:35.995Z</time></trkpt><trkpt lat="44.126262670873956" lon="11.08139488702608"><ele>706.0</ele><time>2026-04-26T07:25:36.995Z</time></trkpt><trkpt lat="44.12637976833373" lon="11.08144381687671"><ele>700.0</ele><time>2026-04-26T07:25:37.995Z</time></trkpt><trkpt lat="44.12647892140251" lon="11.081494765284427"><ele>694.0</ele><time>2026-04-26T07:25:38.995Z</time></trkpt><trkpt lat="44.12657485218659" lon="11.081562285507122"><ele>696.25</ele><time>2026-04-26T07:25:39.995Z</time></trkpt><trkpt lat="44.126655864813095" lon="11.081677706077711"><ele>698.5</ele><time>2026-04-26T07:25:40.995Z</time></trkpt><trkpt lat="44.126744267843975" lon="11.081799415937867"><ele>700.75</ele><time>2026-04-26T07:25:41.995Z</time></trkpt><trkpt lat="44.12681540586181" lon="11.081939964596744"><ele>703.0</ele><time>2026-04-26T07:25:42.995Z</time></trkpt><trkpt lat="44.12687600087051" lon="11.082085599375425"><ele>703.0</ele><time>2026-04-26T07:25:43.995Z</time></trkpt><trkpt lat="44.12690879063609" lon="11.082209847207684"><ele>703.0</ele><time>2026-04-26T07:25:44.995Z</time></trkpt><trkpt lat="44.12692776293161" lon="11.082353267548058"><ele>703.0</ele><time>2026-04-26T07:25:45.995Z</time></trkpt><trkpt lat="44.12694596941605" lon="11.082491670466924"><ele>703.0</ele><time>2026-04-26T07:25:46.995Z</time></trkpt><trkpt lat="44.126959893131676" lon="11.082610210637856"><ele>703.0</ele><time>2026-04-26T07:25:47.995Z</time></trkpt><trkpt lat="44.12699604737408" lon="11.082694091254412"><ele>702.25</ele><time>2026-04-26T07:25:48.995Z</time></trkpt><trkpt lat="44.12708339759351" lon="11.082757435257001"><ele>701.5</ele><time>2026-04-26T07:25:49.995Z</time></trkpt><trkpt lat="44.127192350098476" lon="11.082826998269239"><ele>700.75</ele><time>2026-04-26T07:25:50.995Z</time></trkpt><trkpt lat="44.1273179143706" lon="11.082912453913186"><ele>700.0</ele><time>2026-04-26T07:25:51.995Z</time></trkpt><trkpt lat="44.12740071371878" lon="11.083007261338286"><ele>700.0</ele><time>2026-04-26T07:25:52.995Z</time></trkpt><trkpt lat="44.12745825014533" lon="11.08309965707054"><ele>700.0</ele><time>2026-04-26T07:25:53.995Z</time></trkpt><trkpt lat="44.12750470499922" lon="11.083172760274273"><ele>700.0</ele><time>2026-04-26T07:25:54.995Z</time></trkpt><trkpt lat="44.127554749134696" lon="11.083238927387454"><ele>700.0</ele><time>2026-04-26T07:25:55.995Z</time></trkpt><trkpt lat="44.12764066022523" lon="11.083292315734045"><ele>700.0</ele><time>2026-04-26T07:25:56.995Z</time></trkpt><trkpt lat="44.127757317437045" lon="11.083340590188971"><ele>700.0</ele><time>2026-04-26T07:25:57.995Z</time></trkpt><trkpt lat="44.12790440381241" lon="11.083379585806767"><ele>701.75</ele><time>2026-04-26T07:25:58.995Z</time></trkpt><trkpt lat="44.12803473651745" lon="11.083425535828527"><ele>703.5</ele><time>2026-04-26T07:25:59.995Z</time></trkpt><trkpt lat="44.12815917278757" lon="11.083475471100327"><ele>705.25</ele><time>2026-04-26T07:26:00.995Z</time></trkpt><trkpt lat="44.12826668153452" lon="11.083552759856271"><ele>707.0</ele><time>2026-04-26T07:26:01.995Z</time></trkpt><trkpt lat="44.12835231095954" lon="11.083655143953411"><ele>707.0</ele><time>2026-04-26T07:26:02.995Z</time></trkpt><trkpt lat="44.12844173333562" lon="11.08376379676011"><ele>707.0</ele><time>2026-04-26T07:26:03.995Z</time></trkpt><trkpt lat="44.12854304018159" lon="11.083863572291616"><ele>707.0</ele><time>2026-04-26T07:26:04.995Z</time></trkpt><trkpt lat="44.12865900258358" lon="11.08393034667228"><ele>707.0</ele><time>2026-04-26T07:26:05.995Z</time></trkpt><trkpt lat="44.12879054157383" lon="11.083957422759521"><ele>707.0</ele><time>2026-04-26T07:26:06.995Z</time></trkpt><trkpt lat="44.12895135026625" lon="11.083982647253247"><ele>707.0</ele><time>2026-04-26T07:26:07.995Z</time></trkpt><trkpt lat="44.12909654293516" lon="11.08400757026019"><ele>707.0</ele><time>2026-04-26T07:26:08.995Z</time></trkpt><trkpt lat="44.129227084126775" lon="11.08402212579872"><ele>707.0</ele><time>2026-04-26T07:26:09.995Z</time></trkpt><trkpt lat="44.129355732625115" lon="11.084025122206384"><ele>704.75</ele><time>2026-04-26T07:26:10.995Z</time></trkpt><trkpt lat="44.12947386788787" lon="11.08402340653961"><ele>702.5</ele><time>2026-04-26T07:26:11.995Z</time></trkpt><trkpt lat="44.129610437668" lon="11.084036091941792"><ele>700.25</ele><time>2026-04-26T07:26:12.995Z</time></trkpt><trkpt lat="44.129758318338226" lon="11.084065575770609"><ele>698.0</ele><time>2026-04-26T07:26:13.995Z</time></trkpt><trkpt lat="44.12987082240125" lon="11.084111842980365"><ele>704.0</ele><time>2026-04-26T07:26:14.995Z</time></trkpt><trkpt lat="44.12997317188972" lon="11.084160003676532"><ele>710.0</ele><time>2026-04-26T07:26:15.995Z</time></trkpt><trkpt lat="44.13007834680958" lon="11.084225283136641"><ele>716.0</ele><time>2026-04-26T07:26:16.995Z</time></trkpt><trkpt lat="44.13019640953167" lon="11.084334431963736"><ele>722.0</ele><time>2026-04-26T07:26:17.995Z</time></trkpt><trkpt lat="44.130313306445764" lon="11.08446654234007"><ele>722.0</ele><time>2026-04-26T07:26:18.995Z</time></trkpt><trkpt lat="44.13041617105571" lon="11.084594461067711"><ele>722.0</ele><time>2026-04-26T07:26:19.995Z</time></trkpt><trkpt lat="44.1305289366327" lon="11.0847002994247"><ele>722.0</ele><time>2026-04-26T07:26:20.995Z</time></trkpt><trkpt lat="44.1306566852638" lon="11.084758893559764"><ele>722.0</ele><time>2026-04-26T07:26:21.995Z</time></trkpt><trkpt lat="44.130797925743515" lon="11.084814437454874"><ele>720.75</ele><time>2026-04-26T07:26:22.995Z</time></trkpt><trkpt lat="44.13094542741788" lon="11.084855816386124"><ele>719.5</ele><time>2026-04-26T07:26:23.995Z</time></trkpt><trkpt lat="44.13107074897247" lon="11.084893605540227"><ele>718.25</ele><time>2026-04-26T07:26:24.995Z</time></trkpt><trkpt lat="44.13120048795895" lon="11.084924391956202"><ele>717.0</ele><time>2026-04-26T07:26:25.995Z</time></trkpt><trkpt lat="44.13132604496723" lon="11.08491745016071"><ele>717.0</ele><time>2026-04-26T07:26:26.995Z</time></trkpt><trkpt lat="44.13146263845189" lon="11.084859519012097"><ele>717.0</ele><time>2026-04-26T07:26:27.995Z</time></trkpt><trkpt lat="44.13158798956379" lon="11.084771721281783"><ele>717.0</ele><time>2026-04-26T07:26:28.995Z</time></trkpt><trkpt lat="44.13171131458726" lon="11.084696797172626"><ele>717.0</ele><time>2026-04-26T07:26:29.995Z</time></trkpt><trkpt lat="44.1317944896466" lon="11.084640382472097"><ele>716.6</ele><time>2026-04-26T07:26:30.995Z</time></trkpt><trkpt lat="44.13186654496718" lon="11.084634214567442"><ele>716.2</ele><time>2026-04-26T07:26:31.995Z</time></trkpt><trkpt lat="44.13194205395858" lon="11.084654918283459"><ele>715.8</ele><time>2026-04-26T07:26:32.995Z</time></trkpt><trkpt lat="44.1320073846449" lon="11.084727103917228"><ele>715.4</ele><time>2026-04-26T07:26:33.995Z</time></trkpt><trkpt lat="44.132091939676705" lon="11.084797247001735"><ele>715.0</ele><time>2026-04-26T07:26:34.995Z</time></trkpt><trkpt lat="44.132190572077086" lon="11.084915060039858"><ele>717.0</ele><time>2026-04-26T07:26:35.995Z</time></trkpt><trkpt lat="44.13229028623335" lon="11.085043165099798"><ele>719.0</ele><time>2026-04-26T07:26:36.995Z</time></trkpt><trkpt lat="44.1323821838511" lon="11.08518782240671"><ele>721.0</ele><time>2026-04-26T07:26:37.995Z</time></trkpt><trkpt lat="44.132454959258666" lon="11.085348755061979"><ele>723.0</ele><time>2026-04-26T07:26:38.995Z</time></trkpt><trkpt lat="44.132496260015465" lon="11.085489249780778"><ele>723.0</ele><time>2026-04-26T07:26:39.995Z</time></trkpt><trkpt lat="44.132512946108776" lon="11.085597853310349"><ele>723.0</ele><time>2026-04-26T07:26:40.995Z</time></trkpt><trkpt lat="44.132585975180795" lon="11.085713660289516"><ele>723.0</ele><time>2026-04-26T07:26:42.995Z</time></trkpt><trkpt lat="44.13267636714263" lon="11.085726894921088"><ele>723.0</ele><time>2026-04-26T07:26:43.995Z</time></trkpt><trkpt lat="44.132799429966916" lon="11.085728453338506"><ele>723.0</ele><time>2026-04-26T07:26:44.995Z</time></trkpt><trkpt lat="44.132896497910565" lon="11.085746394811004"><ele>723.75</ele><time>2026-04-26T07:26:45.995Z</time></trkpt><trkpt lat="44.1330043691121" lon="11.085778359252211"><ele>724.5</ele><time>2026-04-26T07:26:46.995Z</time></trkpt><trkpt lat="44.13313464036244" lon="11.085830600190823"><ele>725.25</ele><time>2026-04-26T07:26:47.995Z</time></trkpt><trkpt lat="44.13327600092923" lon="11.085900461807887"><ele>726.0</ele><time>2026-04-26T07:26:48.995Z</time></trkpt><trkpt lat="44.13341030423373" lon="11.085985541447213"><ele>726.0</ele><time>2026-04-26T07:26:49.995Z</time></trkpt><trkpt lat="44.13355623779166" lon="11.086062529163678"><ele>726.0</ele><time>2026-04-26T07:26:50.995Z</time></trkpt><trkpt lat="44.13370275163094" lon="11.086151313874197"><ele>726.0</ele><time>2026-04-26T07:26:51.995Z</time></trkpt><trkpt lat="44.133828317419166" lon="11.08623953983551"><ele>726.0</ele><time>2026-04-26T07:26:52.995Z</time></trkpt><trkpt lat="44.133926360867044" lon="11.086299229161838"><ele>726.0</ele><time>2026-04-26T07:26:53.995Z</time></trkpt><trkpt lat="44.1340163701864" lon="11.086341683198539"><ele>726.0</ele><time>2026-04-26T07:26:54.995Z</time></trkpt><trkpt lat="44.134107360180636" lon="11.086376653786328"><ele>726.0</ele><time>2026-04-26T07:26:55.995Z</time></trkpt><trkpt lat="44.134216592563135" lon="11.086372735499163"><ele>726.0</ele><time>2026-04-26T07:26:56.995Z</time></trkpt><trkpt lat="44.1343249601179" lon="11.086340662050869"><ele>726.4</ele><time>2026-04-26T07:26:57.995Z</time></trkpt><trkpt lat="44.13441031509169" lon="11.086331602400623"><ele>726.8</ele><time>2026-04-26T07:26:58.995Z</time></trkpt><trkpt lat="44.13450049414847" lon="11.08637362408429"><ele>727.1999999999999</ele><time>2026-04-26T07:26:59.995Z</time></trkpt><trkpt lat="44.13457659717809" lon="11.086450208171863"><ele>727.5999999999999</ele><time>2026-04-26T07:27:00.995Z</time></trkpt><trkpt lat="44.134654386455544" lon="11.086567314132026"><ele>728.0</ele><time>2026-04-26T07:27:01.995Z</time></trkpt><trkpt lat="44.13473656849302" lon="11.086669554584892"><ele>730.2</ele><time>2026-04-26T07:27:02.995Z</time></trkpt><trkpt lat="44.13480434106166" lon="11.086779691834826"><ele>732.4</ele><time>2026-04-26T07:27:03.995Z</time></trkpt><trkpt lat="44.13485134599153" lon="11.08689697900188"><ele>734.6</ele><time>2026-04-26T07:27:04.995Z</time></trkpt><trkpt lat="44.13486812752019" lon="11.087045731984333"><ele>736.8000000000001</ele><time>2026-04-26T07:27:05.995Z</time></trkpt><trkpt lat="44.134873395691216" lon="11.087194202185335"><ele>739.0</ele><time>2026-04-26T07:27:06.995Z</time></trkpt><trkpt lat="44.13485806304018" lon="11.08734777058892"><ele>739.8333333333334</ele><time>2026-04-26T07:27:07.995Z</time></trkpt><trkpt lat="44.13480332133275" lon="11.087489677330217"><ele>740.6666666666667</ele><time>2026-04-26T07:27:08.995Z</time></trkpt><trkpt lat="44.134801568323006" lon="11.087588716590691"><ele>741.5</ele><time>2026-04-26T07:27:09.995Z</time></trkpt><trkpt lat="44.134843706085334" lon="11.087674236862744"><ele>742.3333333333334</ele><time>2026-04-26T07:27:10.995Z</time></trkpt><trkpt lat="44.13491009817463" lon="11.087740772434495"><ele>743.1666666666666</ele><time>2026-04-26T07:27:11.995Z</time></trkpt><trkpt lat="44.13500336263621" lon="11.087766883838906"><ele>744.0</ele><time>2026-04-26T07:27:12.995Z</time></trkpt><trkpt lat="44.135112388608285" lon="11.087749278450811"><ele>744.0</ele><time>2026-04-26T07:27:13.995Z</time></trkpt><trkpt lat="44.135227812883045" lon="11.087680309807107"><ele>744.0</ele><time>2026-04-26T07:27:14.995Z</time></trkpt><trkpt lat="44.135348444102846" lon="11.08759140225868"><ele>744.0</ele><time>2026-04-26T07:27:15.995Z</time></trkpt><trkpt lat="44.13544591848598" lon="11.087480279507943"><ele>744.0</ele><time>2026-04-26T07:27:16.995Z</time></trkpt><trkpt lat="44.13554379942089" lon="11.087334772121524"><ele>743.4000000000001</ele><time>2026-04-26T07:27:17.995Z</time></trkpt><trkpt lat="44.135620684346165" lon="11.087197725138441"><ele>742.8</ele><time>2026-04-26T07:27:18.995Z</time></trkpt><trkpt lat="44.135678136823486" lon="11.087098281795445"><ele>742.2</ele><time>2026-04-26T07:27:19.996Z</time></trkpt><trkpt lat="44.13574640924436" lon="11.087027921892634"><ele>741.5999999999999</ele><time>2026-04-26T07:27:20.996Z</time></trkpt><trkpt lat="44.13582169978317" lon="11.086967512912624"><ele>741.0</ele><time>2026-04-26T07:27:21.996Z</time></trkpt><trkpt lat="44.13590627333966" lon="11.086955694039455"><ele>741.0</ele><time>2026-04-26T07:27:22.996Z</time></trkpt><trkpt lat="44.135996421725046" lon="11.086968199333665"><ele>741.0</ele><time>2026-04-26T07:27:23.996Z</time></trkpt><trkpt lat="44.13608686536453" lon="11.087001350423094"><ele>741.0</ele><time>2026-04-26T07:27:24.996Z</time></trkpt><trkpt lat="44.13621621323975" lon="11.087025611875589"><ele>741.0</ele><time>2026-04-26T07:27:25.996Z</time></trkpt><trkpt lat="44.136350772326445" lon="11.087045163233327"><ele>741.0</ele><time>2026-04-26T07:27:26.996Z</time></trkpt><trkpt lat="44.136500382832324" lon="11.087084214207923"><ele>741.0</ele><time>2026-04-26T07:27:27.996Z</time></trkpt><trkpt lat="44.136637334446576" lon="11.08717328782314"><ele>741.0</ele><time>2026-04-26T07:27:28.996Z</time></trkpt><trkpt lat="44.136778286087015" lon="11.08728559320347"><ele>743.0</ele><time>2026-04-26T07:27:29.996Z</time></trkpt><trkpt lat="44.136921474869396" lon="11.08739978696655"><ele>745.0</ele><time>2026-04-26T07:27:30.996Z</time></trkpt><trkpt lat="44.13707391603345" lon="11.087520364723483"><ele>747.0</ele><time>2026-04-26T07:27:31.996Z</time></trkpt><trkpt lat="44.137210183579846" lon="11.087630931872082"><ele>748.6666666666666</ele><time>2026-04-26T07:27:32.996Z</time></trkpt><trkpt lat="44.13732884807283" lon="11.08775949997155"><ele>750.3333333333333</ele><time>2026-04-26T07:27:33.996Z</time></trkpt><trkpt lat="44.13744316267518" lon="11.08792600078338"><ele>752.0</ele><time>2026-04-26T07:27:34.996Z</time></trkpt><trkpt lat="44.13753739609551" lon="11.088111658794823"><ele>753.5</ele><time>2026-04-26T07:27:35.996Z</time></trkpt><trkpt lat="44.13763225439913" lon="11.088265670514497"><ele>755.0</ele><time>2026-04-26T07:27:36.996Z</time></trkpt><trkpt lat="44.13772804493311" lon="11.088395250559044"><ele>756.5</ele><time>2026-04-26T07:27:37.996Z</time></trkpt><trkpt lat="44.137792382747065" lon="11.088505364153031"><ele>758.0</ele><time>2026-04-26T07:27:38.996Z</time></trkpt><trkpt lat="44.13783251358517" lon="11.08863015806455"><ele>758.0</ele><time>2026-04-26T07:27:39.996Z</time></trkpt><trkpt lat="44.13784727881411" lon="11.088786713250833"><ele>758.0</ele><time>2026-04-26T07:27:40.996Z</time></trkpt><trkpt lat="44.13782353429951" lon="11.088949051444077"><ele>758.0</ele><time>2026-04-26T07:27:41.996Z</time></trkpt><trkpt lat="44.13778781085953" lon="11.089107194977748"><ele>758.0</ele><time>2026-04-26T07:27:42.996Z</time></trkpt><trkpt lat="44.137756365397806" lon="11.08927650393153"><ele>759.2</ele><time>2026-04-26T07:27:43.996Z</time></trkpt><trkpt lat="44.137736195502214" lon="11.089457952196305"><ele>760.4</ele><time>2026-04-26T07:27:44.996Z</time></trkpt><trkpt lat="44.13772682562152" lon="11.089628711289494"><ele>761.6</ele><time>2026-04-26T07:27:45.996Z</time></trkpt><trkpt lat="44.13771601175943" lon="11.089760807830476"><ele>762.8000000000001</ele><time>2026-04-26T07:27:46.996Z</time></trkpt><trkpt lat="44.137731558194396" lon="11.08987328790979"><ele>764.0</ele><time>2026-04-26T07:27:47.996Z</time></trkpt><trkpt lat="44.137771864129775" lon="11.08996012865222"><ele>767.0</ele><time>2026-04-26T07:27:48.996Z</time></trkpt><trkpt lat="44.13784639071214" lon="11.090026621004405"><ele>770.0</ele><time>2026-04-26T07:27:49.996Z</time></trkpt><trkpt lat="44.13794728340214" lon="11.090078027109383"><ele>773.0</ele><time>2026-04-26T07:27:50.996Z</time></trkpt><trkpt lat="44.13807377321763" lon="11.090169220707466"><ele>776.0</ele><time>2026-04-26T07:27:51.996Z</time></trkpt><trkpt lat="44.138144271671855" lon="11.090294312946382"><ele>776.0</ele><time>2026-04-26T07:27:52.996Z</time></trkpt><trkpt lat="44.13818596688606" lon="11.090461825827939"><ele>776.0</ele><time>2026-04-26T07:27:53.996Z</time></trkpt><trkpt lat="44.13820837299877" lon="11.090611102404246"><ele>776.0</ele><time>2026-04-26T07:27:54.996Z</time></trkpt><trkpt lat="44.13826179223234" lon="11.09073282610236"><ele>776.0</ele><time>2026-04-26T07:27:55.996Z</time></trkpt><trkpt lat="44.13834643833415" lon="11.090818453376944"><ele>776.0</ele><time>2026-04-26T07:27:56.996Z</time></trkpt><trkpt lat="44.13845667570145" lon="11.09089096959112"><ele>776.75</ele><time>2026-04-26T07:27:57.996Z</time></trkpt><trkpt lat="44.138595471510754" lon="11.090950112459426"><ele>777.5</ele><time>2026-04-26T07:27:58.996Z</time></trkpt><trkpt lat="44.13872936613194" lon="11.09100491655835"><ele>778.25</ele><time>2026-04-26T07:27:59.996Z</time></trkpt><trkpt lat="44.13883323200899" lon="11.091075336914727"><ele>779.0</ele><time>2026-04-26T07:28:00.996Z</time></trkpt><trkpt lat="44.138903437256076" lon="11.091162597948236"><ele>779.0</ele><time>2026-04-26T07:28:01.996Z</time></trkpt><trkpt lat="44.13893510157422" lon="11.091294115574332"><ele>779.0</ele><time>2026-04-26T07:28:02.996Z</time></trkpt><trkpt lat="44.13893531122233" lon="11.09144265914815"><ele>779.0</ele><time>2026-04-26T07:28:03.996Z</time></trkpt><trkpt lat="44.13891809356359" lon="11.091597817992058"><ele>779.0</ele><time>2026-04-26T07:28:04.996Z</time></trkpt><trkpt lat="44.13889331147032" lon="11.091755370247986"><ele>779.0</ele><time>2026-04-26T07:28:05.996Z</time></trkpt><trkpt lat="44.138883576558165" lon="11.091879590870297"><ele>779.2</ele><time>2026-04-26T07:28:06.996Z</time></trkpt><trkpt lat="44.13891011378491" lon="11.091960653193427"><ele>779.4000000000001</ele><time>2026-04-26T07:28:07.996Z</time></trkpt><trkpt lat="44.138977637526544" lon="11.09201842100385"><ele>779.6</ele><time>2026-04-26T07:28:08.996Z</time></trkpt><trkpt lat="44.13907346345314" lon="11.092029413700436"><ele>779.8</ele><time>2026-04-26T07:28:09.996Z</time></trkpt><trkpt lat="44.139196602649164" lon="11.09202725158002"><ele>780.0</ele><time>2026-04-26T07:28:10.996Z</time></trkpt><trkpt lat="44.13934561905786" lon="11.0920548537066"><ele>780.0</ele><time>2026-04-26T07:28:11.996Z</time></trkpt><trkpt lat="44.139484319088005" lon="11.092076148193035"><ele>780.0</ele><time>2026-04-26T07:28:12.996Z</time></trkpt><trkpt lat="44.139589345025264" lon="11.092125378708507"><ele>780.0</ele><time>2026-04-26T07:28:13.996Z</time></trkpt><trkpt lat="44.13967529217766" lon="11.092200757241137"><ele>780.0</ele><time>2026-04-26T07:28:14.996Z</time></trkpt><trkpt lat="44.13976365855474" lon="11.092313518286616"><ele>782.0</ele><time>2026-04-26T07:28:15.996Z</time></trkpt><trkpt lat="44.13985934734986" lon="11.09245478042085"><ele>784.0</ele><time>2026-04-26T07:28:16.996Z</time></trkpt><trkpt lat="44.13995380142478" lon="11.092609845862029"><ele>786.0</ele><time>2026-04-26T07:28:17.996Z</time></trkpt><trkpt lat="44.14006540911786" lon="11.092781431848344"><ele>786.3333333333333</ele><time>2026-04-26T07:28:18.996Z</time></trkpt><trkpt lat="44.14018361298175" lon="11.092940920146997"><ele>786.6666666666666</ele><time>2026-04-26T07:28:19.996Z</time></trkpt><trkpt lat="44.14030455779835" lon="11.09309813669155"><ele>787.0</ele><time>2026-04-26T07:28:20.996Z</time></trkpt><trkpt lat="44.14042519811292" lon="11.09323608881755"><ele>788.25</ele><time>2026-04-26T07:28:21.996Z</time></trkpt><trkpt lat="44.14054411770813" lon="11.093318057896026"><ele>789.5</ele><time>2026-04-26T07:28:22.996Z</time></trkpt><trkpt lat="44.140663737850375" lon="11.093364767742937"><ele>790.75</ele><time>2026-04-26T07:28:23.996Z</time></trkpt><trkpt lat="44.14079336953499" lon="11.093372678396136"><ele>792.0</ele><time>2026-04-26T07:28:24.996Z</time></trkpt><trkpt lat="44.14094143334096" lon="11.09335503925038"><ele>792.6666666666667</ele><time>2026-04-26T07:28:25.996Z</time></trkpt><trkpt lat="44.14111234109689" lon="11.093301343890234"><ele>793.3333333333334</ele><time>2026-04-26T07:28:26.996Z</time></trkpt><trkpt lat="44.14126652495582" lon="11.093239368303767"><ele>794.0</ele><time>2026-04-26T07:28:27.996Z</time></trkpt><trkpt lat="44.14139155287889" lon="11.093176827090565"><ele>793.8000000000001</ele><time>2026-04-26T07:28:28.996Z</time></trkpt><trkpt lat="44.14148728092888" lon="11.09313772332416"><ele>793.6</ele><time>2026-04-26T07:28:29.996Z</time></trkpt><trkpt lat="44.141563685279124" lon="11.09311804005545"><ele>793.4</ele><time>2026-04-26T07:28:30.996Z</time></trkpt><trkpt lat="44.14165812943778" lon="11.093128586375435"><ele>793.2</ele><time>2026-04-26T07:28:31.996Z</time></trkpt><trkpt lat="44.14173769100592" lon="11.09322360409545"><ele>793.0</ele><time>2026-04-26T07:28:32.996Z</time></trkpt><trkpt lat="44.141827225976975" lon="11.093310559498486"><ele>793.0</ele><time>2026-04-26T07:28:33.996Z</time></trkpt><trkpt lat="44.141941463578824" lon="11.093318583473675"><ele>793.0</ele><time>2026-04-26T07:28:34.996Z</time></trkpt><trkpt lat="44.142047087151305" lon="11.093262707212018"><ele>793.0</ele><time>2026-04-26T07:28:35.996Z</time></trkpt><trkpt lat="44.14213223389303" lon="11.093216734172715"><ele>793.0</ele><time>2026-04-26T07:28:36.996Z</time></trkpt><trkpt lat="44.14219809414227" lon="11.093243751263559"><ele>793.0</ele><time>2026-04-26T07:28:37.996Z</time></trkpt><trkpt lat="44.142233991767576" lon="11.093348274500524"><ele>794.8</ele><time>2026-04-26T07:28:38.996Z</time></trkpt><trkpt lat="44.14222328106317" lon="11.093458749822624"><ele>796.5999999999999</ele><time>2026-04-26T07:28:39.996Z</time></trkpt><trkpt lat="44.14216185416865" lon="11.093542371356577"><ele>798.4000000000001</ele><time>2026-04-26T07:28:40.996Z</time></trkpt><trkpt lat="44.14206570874583" lon="11.093593096439534"><ele>800.2</ele><time>2026-04-26T07:28:41.996Z</time></trkpt><trkpt lat="44.14195550255541" lon="11.093645242698026"><ele>802.0</ele><time>2026-04-26T07:28:42.996Z</time></trkpt><trkpt lat="44.141858334486706" lon="11.093732569419261"><ele>802.0</ele><time>2026-04-26T07:28:43.996Z</time></trkpt><trkpt lat="44.14176816760222" lon="11.093849137410983"><ele>802.0</ele><time>2026-04-26T07:28:44.996Z</time></trkpt><trkpt lat="44.141707470651916" lon="11.093992547260042"><ele>802.0</ele><time>2026-04-26T07:28:45.996Z</time></trkpt><trkpt lat="44.141661829282164" lon="11.09412594669684"><ele>802.0</ele><time>2026-04-26T07:28:46.996Z</time></trkpt><trkpt lat="44.1416622105685" lon="11.094234216966553"><ele>802.0</ele><time>2026-04-26T07:28:47.996Z</time></trkpt><trkpt lat="44.141705941165036" lon="11.094347798469963"><ele>803.8</ele><time>2026-04-26T07:28:48.996Z</time></trkpt><trkpt lat="44.14176685130243" lon="11.094455235137195"><ele>805.6</ele><time>2026-04-26T07:28:49.996Z</time></trkpt><trkpt lat="44.1418287838793" lon="11.09456572192781"><ele>807.4</ele><time>2026-04-26T07:28:50.996Z</time></trkpt><trkpt lat="44.14185059751417" lon="11.094706292346572"><ele>809.1999999999999</ele><time>2026-04-26T07:28:51.996Z</time></trkpt><trkpt lat="44.14181987991991" lon="11.094831879217567"><ele>811.0</ele><time>2026-04-26T07:28:52.996Z</time></trkpt><trkpt lat="44.141752647876224" lon="11.09494884831547"><ele>812.0</ele><time>2026-04-26T07:28:53.996Z</time></trkpt><trkpt lat="44.14165317848922" lon="11.095064831372188"><ele>813.0</ele><time>2026-04-26T07:28:54.996Z</time></trkpt><trkpt lat="44.14157511783368" lon="11.09519086454786"><ele>814.0</ele><time>2026-04-26T07:28:55.996Z</time></trkpt><trkpt lat="44.14149961665788" lon="11.095351343150998"><ele>815.0</ele><time>2026-04-26T07:28:56.996Z</time></trkpt><trkpt lat="44.14141981717238" lon="11.095507661047689"><ele>815.0</ele><time>2026-04-26T07:28:57.996Z</time></trkpt><trkpt lat="44.141344174440796" lon="11.09561811511106"><ele>815.0</ele><time>2026-04-26T07:28:58.996Z</time></trkpt><trkpt lat="44.14124639140736" lon="11.095664990062065"><ele>815.0</ele><time>2026-04-26T07:28:59.996Z</time></trkpt><trkpt lat="44.1411271165469" lon="11.095677258937004"><ele>815.0</ele><time>2026-04-26T07:29:00.996Z</time></trkpt><trkpt lat="44.141003052716066" lon="11.09566993939972"><ele>815.0</ele><time>2026-04-26T07:29:01.996Z</time></trkpt><trkpt lat="44.14088424515616" lon="11.095648106491039"><ele>815.0</ele><time>2026-04-26T07:29:02.996Z</time></trkpt><trkpt lat="44.14075580116593" lon="11.095640704778301"><ele>815.0</ele><time>2026-04-26T07:29:03.996Z</time></trkpt><trkpt lat="44.14061659989194" lon="11.095638260201202"><ele>815.0</ele><time>2026-04-26T07:29:04.996Z</time></trkpt><trkpt lat="44.14048941970515" lon="11.095618113741791"><ele>815.6</ele><time>2026-04-26T07:29:05.996Z</time></trkpt><trkpt lat="44.140387045896546" lon="11.095587694617722"><ele>816.2</ele><time>2026-04-26T07:29:06.996Z</time></trkpt><trkpt lat="44.14028472180521" lon="11.095604487797873"><ele>816.8</ele><time>2026-04-26T07:29:07.996Z</time></trkpt><trkpt lat="44.14018613273291" lon="11.095681138291889"><ele>817.4</ele><time>2026-04-26T07:29:08.996Z</time></trkpt><trkpt lat="44.14009402817466" lon="11.09576403832734"><ele>818.0</ele><time>2026-04-26T07:29:09.996Z</time></trkpt><trkpt lat="44.13998595396386" lon="11.095875808166248"><ele>823.25</ele><time>2026-04-26T07:29:10.996Z</time></trkpt><trkpt lat="44.13987884534231" lon="11.095958009180155"><ele>828.5</ele><time>2026-04-26T07:29:11.996Z</time></trkpt><trkpt lat="44.13974748533887" lon="11.095984474512377"><ele>833.75</ele><time>2026-04-26T07:29:12.995Z</time></trkpt><trkpt lat="44.13962966946241" lon="11.095957457861713"><ele>839.0</ele><time>2026-04-26T07:29:13.996Z</time></trkpt><trkpt lat="44.13954497209985" lon="11.09592738878374"><ele>839.0000000000001</ele><time>2026-04-26T07:29:14.996Z</time></trkpt><trkpt lat="44.139482233799015" lon="11.095942145967467"><ele>839.0</ele><time>2026-04-26T07:29:15.996Z</time></trkpt><trkpt lat="44.13943103188723" lon="11.09599685079633"><ele>839.0</ele><time>2026-04-26T07:29:16.995Z</time></trkpt><trkpt lat="44.13939044198402" lon="11.096090894783416"><ele>839.0</ele><time>2026-04-26T07:29:17.995Z</time></trkpt><trkpt lat="44.139444482699254" lon="11.096200122872935"><ele>839.0000000000001</ele><time>2026-04-26T07:29:18.995Z</time></trkpt><trkpt lat="44.13951965547461" lon="11.0962569296559"><ele>839.0</ele><time>2026-04-26T07:29:19.995Z</time></trkpt><trkpt lat="44.13961714388855" lon="11.096271155252385"><ele>839.0</ele><time>2026-04-26T07:29:20.995Z</time></trkpt><trkpt lat="44.13976001059465" lon="11.096312395144633"><ele>839.0</ele><time>2026-04-26T07:29:21.995Z</time></trkpt><trkpt lat="44.1399166415756" lon="11.096350725245578"><ele>839.0</ele><time>2026-04-26T07:29:22.995Z</time></trkpt><trkpt lat="44.14003862786042" lon="11.096426303202257"><ele>839.0</ele><time>2026-04-26T07:29:23.995Z</time></trkpt><trkpt lat="44.14015063476026" lon="11.096554597503438"><ele>840.5</ele><time>2026-04-26T07:29:24.995Z</time></trkpt><trkpt lat="44.14024299559015" lon="11.09668286440887"><ele>842.0</ele><time>2026-04-26T07:29:25.995Z</time></trkpt><trkpt lat="44.14035988836758" lon="11.096783509109905"><ele>843.5</ele><time>2026-04-26T07:29:26.995Z</time></trkpt><trkpt lat="44.14048308038273" lon="11.096887595666608"><ele>845.0</ele><time>2026-04-26T07:29:27.995Z</time></trkpt><trkpt lat="44.140614502997906" lon="11.097002249398416"><ele>843.6666666666667</ele><time>2026-04-26T07:29:28.995Z</time></trkpt><trkpt lat="44.140736803984" lon="11.09714067996823"><ele>842.3333333333333</ele><time>2026-04-26T07:29:29.995Z</time></trkpt><trkpt lat="44.1408588716038" lon="11.097283947617225"><ele>841.0</ele><time>2026-04-26T07:29:30.995Z</time></trkpt><trkpt lat="44.14097941790813" lon="11.097388364903583"><ele>846.5</ele><time>2026-04-26T07:29:31.995Z</time></trkpt><trkpt lat="44.141110580011215" lon="11.097443242598187"><ele>852.0</ele><time>2026-04-26T07:29:32.995Z</time></trkpt><trkpt lat="44.14125143398265" lon="11.097518314821967"><ele>857.5</ele><time>2026-04-26T07:29:33.995Z</time></trkpt><trkpt lat="44.14137304037462" lon="11.09760983685942"><ele>863.0</ele><time>2026-04-26T07:29:34.995Z</time></trkpt><trkpt lat="44.141471095847976" lon="11.097711349243582"><ele>862.0</ele><time>2026-04-26T07:29:35.995Z</time></trkpt><trkpt lat="44.14157140606956" lon="11.097750283858776"><ele>861.0</ele><time>2026-04-26T07:29:36.995Z</time></trkpt><trkpt lat="44.14169882537186" lon="11.097733979899651"><ele>860.0</ele><time>2026-04-26T07:29:37.995Z</time></trkpt><trkpt lat="44.141837892491445" lon="11.097677638091566"><ele>859.0</ele><time>2026-04-26T07:29:38.995Z</time></trkpt><trkpt lat="44.141990705345464" lon="11.097608714872392"><ele>859.0</ele><time>2026-04-26T07:29:39.995Z</time></trkpt><trkpt lat="44.142142765311924" lon="11.097552474155115"><ele>859.0</ele><time>2026-04-26T07:29:40.995Z</time></trkpt><trkpt lat="44.142285909926315" lon="11.097505839584896"><ele>859.0</ele><time>2026-04-26T07:29:41.995Z</time></trkpt><trkpt lat="44.14240067352929" lon="11.097470425739468"><ele>859.0</ele><time>2026-04-26T07:29:42.995Z</time></trkpt><trkpt lat="44.142503330134225" lon="11.097471545516445"><ele>859.6</ele><time>2026-04-26T07:29:43.995Z</time></trkpt><trkpt lat="44.14259353739507" lon="11.097562413910799"><ele>860.2</ele><time>2026-04-26T07:29:44.995Z</time></trkpt><trkpt lat="44.14264635512549" lon="11.097652744546691"><ele>860.8000000000001</ele><time>2026-04-26T07:29:45.995Z</time></trkpt><trkpt lat="44.142685287541944" lon="11.097772768234256"><ele>861.4000000000001</ele><time>2026-04-26T07:29:46.995Z</time></trkpt><trkpt lat="44.14270713819071" lon="11.09794495019587"><ele>862.0</ele><time>2026-04-26T07:29:47.995Z</time></trkpt><trkpt lat="44.14271409227951" lon="11.098138017734982"><ele>864.5</ele><time>2026-04-26T07:29:48.995Z</time></trkpt><trkpt lat="44.142711598950385" lon="11.098340161801332"><ele>867.0</ele><time>2026-04-26T07:29:49.995Z</time></trkpt><trkpt lat="44.142698446759354" lon="11.098543826165608"><ele>869.5</ele><time>2026-04-26T07:29:50.995Z</time></trkpt><trkpt lat="44.14267746957054" lon="11.098726645960323"><ele>872.0</ele><time>2026-04-26T07:29:51.995Z</time></trkpt><trkpt lat="44.14268690134847" lon="11.098871187796851"><ele>872.0</ele><time>2026-04-26T07:29:52.995Z</time></trkpt><trkpt lat="44.14273364221544" lon="11.099016104268843"><ele>872.0</ele><time>2026-04-26T07:29:53.995Z</time></trkpt><trkpt lat="44.14281533433847" lon="11.099133218884596"><ele>872.0</ele><time>2026-04-26T07:29:54.995Z</time></trkpt><trkpt lat="44.14293322329132" lon="11.099241798656655"><ele>872.0</ele><time>2026-04-26T07:29:55.995Z</time></trkpt><trkpt lat="44.14305625623335" lon="11.09933869403685"><ele>872.8</ele><time>2026-04-26T07:29:56.995Z</time></trkpt><trkpt lat="44.14315480532267" lon="11.099432600869466"><ele>873.6</ele><time>2026-04-26T07:29:57.995Z</time></trkpt><trkpt lat="44.1432377060794" lon="11.099512154333953"><ele>874.3999999999999</ele><time>2026-04-26T07:29:58.995Z</time></trkpt><trkpt lat="44.143296409214976" lon="11.099599403386865"><ele>875.1999999999999</ele><time>2026-04-26T07:29:59.995Z</time></trkpt><trkpt lat="44.14332866206265" lon="11.099717628752257"><ele>876.0</ele><time>2026-04-26T07:30:00.995Z</time></trkpt><trkpt lat="44.14332636828848" lon="11.099853959410451"><ele>877.8</ele><time>2026-04-26T07:30:01.995Z</time></trkpt><trkpt lat="44.14327984211259" lon="11.099988785059423"><ele>879.5999999999999</ele><time>2026-04-26T07:30:02.995Z</time></trkpt><trkpt lat="44.143227158592126" lon="11.100122784344993"><ele>881.4</ele><time>2026-04-26T07:30:03.995Z</time></trkpt><trkpt lat="44.14320380882064" lon="11.100244484174693"><ele>883.2</ele><time>2026-04-26T07:30:04.995Z</time></trkpt><trkpt lat="44.14323318981213" lon="11.100370008852035"><ele>885.0</ele><time>2026-04-26T07:30:05.995Z</time></trkpt><trkpt lat="44.1433034863164" lon="11.100484875941296"><ele>881.0</ele><time>2026-04-26T07:30:06.995Z</time></trkpt><trkpt lat="44.14341748555989" lon="11.100574167848329"><ele>877.0</ele><time>2026-04-26T07:30:07.995Z</time></trkpt><trkpt lat="44.143540041817715" lon="11.100660568200137"><ele>873.0</ele><time>2026-04-26T07:30:08.995Z</time></trkpt><trkpt lat="44.1436569295665" lon="11.100808887016322"><ele>869.0</ele><time>2026-04-26T07:30:09.995Z</time></trkpt><trkpt lat="44.14374939626748" lon="11.100962601359036"><ele>869.0</ele><time>2026-04-26T07:30:10.995Z</time></trkpt><trkpt lat="44.143810708177604" lon="11.101115703469729"><ele>869.0000000000001</ele><time>2026-04-26T07:30:11.995Z</time></trkpt><trkpt lat="44.14384673128257" lon="11.101258998472229"><ele>869.0000000000001</ele><time>2026-04-26T07:30:12.995Z</time></trkpt><trkpt lat="44.14385457671194" lon="11.101406596389198"><ele>869.0</ele><time>2026-04-26T07:30:13.995Z</time></trkpt><trkpt lat="44.14384770000859" lon="11.101537632439689"><ele>869.0</ele><time>2026-04-26T07:30:14.995Z</time></trkpt><trkpt lat="44.14384007644661" lon="11.101629321407518"><ele>870.0</ele><time>2026-04-26T07:30:15.995Z</time></trkpt><trkpt lat="44.14380147431253" lon="11.101744810475395"><ele>871.0</ele><time>2026-04-26T07:30:17.995Z</time></trkpt><trkpt lat="44.143695463659455" lon="11.101857659970882"><ele>872.0</ele><time>2026-04-26T07:30:19.995Z</time></trkpt><trkpt lat="44.14361563782127" lon="11.10195008589068"><ele>873.0</ele><time>2026-04-26T07:30:20.995Z</time></trkpt><trkpt lat="44.1435278775404" lon="11.10206617902193"><ele>873.0</ele><time>2026-04-26T07:30:21.995Z</time></trkpt><trkpt lat="44.14345237512829" lon="11.102207661701554"><ele>873.0</ele><time>2026-04-26T07:30:22.995Z</time></trkpt><trkpt lat="44.14337411515276" lon="11.10236800568154"><ele>873.0</ele><time>2026-04-26T07:30:23.995Z</time></trkpt><trkpt lat="44.14330638692186" lon="11.102516167652302"><ele>873.0</ele><time>2026-04-26T07:30:24.995Z</time></trkpt><trkpt lat="44.143210347838306" lon="11.10264783788789"><ele>873.5</ele><time>2026-04-26T07:30:25.995Z</time></trkpt><trkpt lat="44.14310176250938" lon="11.102739393116643"><ele>874.0</ele><time>2026-04-26T07:30:26.995Z</time></trkpt><trkpt lat="44.142997373113545" lon="11.102767718256073"><ele>874.5</ele><time>2026-04-26T07:30:27.995Z</time></trkpt><trkpt lat="44.142881336721636" lon="11.102752755671384"><ele>875.0</ele><time>2026-04-26T07:30:28.995Z</time></trkpt><trkpt lat="44.14275733675657" lon="11.102702053068418"><ele>875.0</ele><time>2026-04-26T07:30:29.995Z</time></trkpt><trkpt lat="44.14262417454927" lon="11.102632578563181"><ele>875.0</ele><time>2026-04-26T07:30:30.995Z</time></trkpt><trkpt lat="44.14248783931714" lon="11.102542770257498"><ele>875.0</ele><time>2026-04-26T07:30:31.995Z</time></trkpt><trkpt lat="44.14233669103325" lon="11.10247883981123"><ele>873.6666666666667</ele><time>2026-04-26T07:30:32.995Z</time></trkpt><trkpt lat="44.14216805348688" lon="11.102457822255635"><ele>872.3333333333333</ele><time>2026-04-26T07:30:33.995Z</time></trkpt><trkpt lat="44.14200294826645" lon="11.102457255654334"><ele>871.0</ele><time>2026-04-26T07:30:34.995Z</time></trkpt><trkpt lat="44.14187000750725" lon="11.102429168507339"><ele>874.5</ele><time>2026-04-26T07:30:35.995Z</time></trkpt><trkpt lat="44.14175357402491" lon="11.102378662237996"><ele>878.0</ele><time>2026-04-26T07:30:36.995Z</time></trkpt><trkpt lat="44.141643350048525" lon="11.10229788178829"><ele>881.5</ele><time>2026-04-26T07:30:37.995Z</time></trkpt><trkpt lat="44.1415375100437" lon="11.102173722211042"><ele>885.0</ele><time>2026-04-26T07:30:38.995Z</time></trkpt><trkpt lat="44.14143923121793" lon="11.102060789819877"><ele>885.0</ele><time>2026-04-26T07:30:39.995Z</time></trkpt><trkpt lat="44.14134302175473" lon="11.10200770311797"><ele>885.0</ele><time>2026-04-26T07:30:40.995Z</time></trkpt><trkpt lat="44.141231816301705" lon="11.101993705893884"><ele>885.0</ele><time>2026-04-26T07:30:41.995Z</time></trkpt><trkpt lat="44.14109797953169" lon="11.10201861690861"><ele>885.0</ele><time>2026-04-26T07:30:42.995Z</time></trkpt><trkpt lat="44.1409666421668" lon="11.102086577541996"><ele>885.0</ele><time>2026-04-26T07:30:43.995Z</time></trkpt><trkpt lat="44.14083839499248" lon="11.102136303988233"><ele>885.0</ele><time>2026-04-26T07:30:44.995Z</time></trkpt><trkpt lat="44.1407239696436" lon="11.102124384051752"><ele>885.0</ele><time>2026-04-26T07:30:45.995Z</time></trkpt><trkpt lat="44.14062048860167" lon="11.102059905245582"><ele>885.0</ele><time>2026-04-26T07:30:46.995Z</time></trkpt><trkpt lat="44.140541548432104" lon="11.101950354786094"><ele>883.5</ele><time>2026-04-26T07:30:47.995Z</time></trkpt><trkpt lat="44.14046702591961" lon="11.101817739107023"><ele>882.0</ele><time>2026-04-26T07:30:48.995Z</time></trkpt><trkpt lat="44.14038221081254" lon="11.101680649558697"><ele>880.5</ele><time>2026-04-26T07:30:49.995Z</time></trkpt><trkpt lat="44.14028533808579" lon="11.101598134312487"><ele>879.0</ele><time>2026-04-26T07:30:50.995Z</time></trkpt><trkpt lat="44.14015337371884" lon="11.101546975691218"><ele>884.0</ele><time>2026-04-26T07:30:51.995Z</time></trkpt><trkpt lat="44.13999782252094" lon="11.10151591519512"><ele>889.0</ele><time>2026-04-26T07:30:52.995Z</time></trkpt><trkpt lat="44.139823590657485" lon="11.101517562656456"><ele>894.0</ele><time>2026-04-26T07:30:53.995Z</time></trkpt><trkpt lat="44.13967111947948" lon="11.101507425180918"><ele>891.5</ele><time>2026-04-26T07:30:54.995Z</time></trkpt><trkpt lat="44.13952702133683" lon="11.101517553961527"><ele>889.0</ele><time>2026-04-26T07:30:55.995Z</time></trkpt><trkpt lat="44.139389150350404" lon="11.101568282991268"><ele>886.5</ele><time>2026-04-26T07:30:56.995Z</time></trkpt><trkpt lat="44.13925778360538" lon="11.101656709954533"><ele>884.0</ele><time>2026-04-26T07:30:57.995Z</time></trkpt><trkpt lat="44.139124941892284" lon="11.101771163117252"><ele>891.3333333333334</ele><time>2026-04-26T07:30:58.995Z</time></trkpt><trkpt lat="44.139034015401364" lon="11.101896052289385"><ele>898.6666666666667</ele><time>2026-04-26T07:30:59.995Z</time></trkpt><trkpt lat="44.13893418096901" lon="11.102072038924682"><ele>906.0</ele><time>2026-04-26T07:31:00.995Z</time></trkpt><trkpt lat="44.138819727880765" lon="11.102257194894204"><ele>906.0</ele><time>2026-04-26T07:31:01.995Z</time></trkpt><trkpt lat="44.138684350089356" lon="11.102398201948589"><ele>906.0</ele><time>2026-04-26T07:31:02.995Z</time></trkpt><trkpt lat="44.13854715654383" lon="11.10249946655416"><ele>906.0</ele><time>2026-04-26T07:31:03.995Z</time></trkpt><trkpt lat="44.13839850045483" lon="11.102581738031686"><ele>903.6666666666667</ele><time>2026-04-26T07:31:04.995Z</time></trkpt><trkpt lat="44.13824301416741" lon="11.102670039780143"><ele>901.3333333333334</ele><time>2026-04-26T07:31:05.995Z</time></trkpt><trkpt lat="44.13809300849802" lon="11.102766506335177"><ele>899.0</ele><time>2026-04-26T07:31:06.995Z</time></trkpt><trkpt lat="44.137955943016195" lon="11.102824548726893"><ele>899.0</ele><time>2026-04-26T07:31:07.995Z</time></trkpt><trkpt lat="44.13784049827825" lon="11.102875418551545"><ele>899.0000000000001</ele><time>2026-04-26T07:31:08.995Z</time></trkpt><trkpt lat="44.13774522833464" lon="11.102947801047367"><ele>899.0000000000001</ele><time>2026-04-26T07:31:09.995Z</time></trkpt><trkpt lat="44.137663798291484" lon="11.103032209544956"><ele>899.0</ele><time>2026-04-26T07:31:10.995Z</time></trkpt><trkpt lat="44.13760768963438" lon="11.103153883603335"><ele>899.0</ele><time>2026-04-26T07:31:11.995Z</time></trkpt><trkpt lat="44.137570603454876" lon="11.103320975230183"><ele>896.25</ele><time>2026-04-26T07:31:12.995Z</time></trkpt><trkpt lat="44.13755480191683" lon="11.103529533455163"><ele>893.5</ele><time>2026-04-26T07:31:13.995Z</time></trkpt><trkpt lat="44.13754987468604" lon="11.103732520253237"><ele>890.75</ele><time>2026-04-26T07:31:14.995Z</time></trkpt><trkpt lat="44.13757909328433" lon="11.103918843448017"><ele>888.0</ele><time>2026-04-26T07:31:15.995Z</time></trkpt><trkpt lat="44.137637109348766" lon="11.104095848182586"><ele>887.5</ele><time>2026-04-26T07:31:16.995Z</time></trkpt><trkpt lat="44.13767137025738" lon="11.104213196832395"><ele>887.0</ele><time>2026-04-26T07:31:17.995Z</time></trkpt><trkpt lat="44.13764485891315" lon="11.10436341216187"><ele>886.5</ele><time>2026-04-26T07:31:18.995Z</time></trkpt><trkpt lat="44.13757208952932" lon="11.104495488676122"><ele>886.0</ele><time>2026-04-26T07:31:19.995Z</time></trkpt><trkpt lat="44.13745235705798" lon="11.104616822795473"><ele>889.5</ele><time>2026-04-26T07:31:20.995Z</time></trkpt><trkpt lat="44.137325910487654" lon="11.104712625324872"><ele>893.0</ele><time>2026-04-26T07:31:21.995Z</time></trkpt><trkpt lat="44.1371838530201" lon="11.104793002838662"><ele>896.5</ele><time>2026-04-26T07:31:22.995Z</time></trkpt><trkpt lat="44.13705852987121" lon="11.104854949275488"><ele>900.0</ele><time>2026-04-26T07:31:23.995Z</time></trkpt><trkpt lat="44.13692683096476" lon="11.104854306234914"><ele>900.0</ele><time>2026-04-26T07:31:24.996Z</time></trkpt><trkpt lat="44.136793307575644" lon="11.104807949738296"><ele>900.0</ele><time>2026-04-26T07:31:25.995Z</time></trkpt><trkpt lat="44.136659937051625" lon="11.104730195587178"><ele>900.0</ele><time>2026-04-26T07:31:26.996Z</time></trkpt><trkpt lat="44.13652333504673" lon="11.104654314112496"><ele>900.0</ele><time>2026-04-26T07:31:27.995Z</time></trkpt><trkpt lat="44.136384132139625" lon="11.104631843081009"><ele>902.25</ele><time>2026-04-26T07:31:28.995Z</time></trkpt><trkpt lat="44.13625591953779" lon="11.10464901710417"><ele>904.5</ele><time>2026-04-26T07:31:29.995Z</time></trkpt><trkpt lat="44.136130437143585" lon="11.104686384332087"><ele>906.75</ele><time>2026-04-26T07:31:30.995Z</time></trkpt><trkpt lat="44.136010247277525" lon="11.104767604374741"><ele>909.0</ele><time>2026-04-26T07:31:31.995Z</time></trkpt><trkpt lat="44.13589035909683" lon="11.104849487929622"><ele>909.0</ele><time>2026-04-26T07:31:32.995Z</time></trkpt><trkpt lat="44.13575640263446" lon="11.104910291428139"><ele>909.0</ele><time>2026-04-26T07:31:33.995Z</time></trkpt><trkpt lat="44.13561500952966" lon="11.10492840556089"><ele>909.0</ele><time>2026-04-26T07:31:34.995Z</time></trkpt><trkpt lat="44.135459728966424" lon="11.104963888744477"><ele>909.0</ele><time>2026-04-26T07:31:35.995Z</time></trkpt><trkpt lat="44.13531055208375" lon="11.105041438853965"><ele>905.6666666666667</ele><time>2026-04-26T07:31:36.995Z</time></trkpt><trkpt lat="44.135169385908696" lon="11.10514515921273"><ele>902.3333333333334</ele><time>2026-04-26T07:31:37.995Z</time></trkpt><trkpt lat="44.135057260442274" lon="11.105274830421006"><ele>899.0</ele><time>2026-04-26T07:31:38.995Z</time></trkpt><trkpt lat="44.13494078440214" lon="11.105442798824555"><ele>901.0</ele><time>2026-04-26T07:31:39.995Z</time></trkpt><trkpt lat="44.1348369216761" lon="11.105549521064171"><ele>903.0</ele><time>2026-04-26T07:31:40.995Z</time></trkpt><trkpt lat="44.13472087008066" lon="11.105598084462112"><ele>905.0</ele><time>2026-04-26T07:31:41.995Z</time></trkpt><trkpt lat="44.13458370133023" lon="11.105618932430211"><ele>907.0</ele><time>2026-04-26T07:31:42.995Z</time></trkpt><trkpt lat="44.13444598868766" lon="11.105625064453323"><ele>907.0</ele><time>2026-04-26T07:31:43.995Z</time></trkpt><trkpt lat="44.134331616287405" lon="11.105636369545119"><ele>907.0</ele><time>2026-04-26T07:31:44.995Z</time></trkpt><trkpt lat="44.13422726092418" lon="11.105668730736431"><ele>907.0</ele><time>2026-04-26T07:31:45.995Z</time></trkpt><trkpt lat="44.13413081323284" lon="11.105749717005196"><ele>907.0</ele><time>2026-04-26T07:31:46.995Z</time></trkpt><trkpt lat="44.134061737987615" lon="11.105878040195934"><ele>907.0</ele><time>2026-04-26T07:31:47.995Z</time></trkpt><trkpt lat="44.1339992686188" lon="11.106055379295535"><ele>907.0</ele><time>2026-04-26T07:31:48.995Z</time></trkpt><trkpt lat="44.13394930353997" lon="11.106278923200362"><ele>907.0</ele><time>2026-04-26T07:31:49.995Z</time></trkpt><trkpt lat="44.13390167124379" lon="11.106484603021057"><ele>907.0</ele><time>2026-04-26T07:31:50.995Z</time></trkpt><trkpt lat="44.13387131001173" lon="11.106649633854612"><ele>907.0</ele><time>2026-04-26T07:31:51.995Z</time></trkpt><trkpt lat="44.13387097050899" lon="11.10680791623782"><ele>906.0</ele><time>2026-04-26T07:31:52.995Z</time></trkpt><trkpt lat="44.133922452723446" lon="11.106994776668355"><ele>905.0</ele><time>2026-04-26T07:31:53.995Z</time></trkpt><trkpt lat="44.13400523348075" lon="11.107182860153587"><ele>904.0</ele><time>2026-04-26T07:31:54.995Z</time></trkpt><trkpt lat="44.13409151466278" lon="11.107341006419144"><ele>903.0</ele><time>2026-04-26T07:31:55.995Z</time></trkpt><trkpt lat="44.13414705400155" lon="11.107507758499858"><ele>900.5</ele><time>2026-04-26T07:31:56.995Z</time></trkpt><trkpt lat="44.13416140439532" lon="11.107693842753719"><ele>898.0</ele><time>2026-04-26T07:31:57.995Z</time></trkpt><trkpt lat="44.134137615340286" lon="11.10787205720038"><ele>895.5</ele><time>2026-04-26T07:31:58.995Z</time></trkpt><trkpt lat="44.134093350789904" lon="11.108052627825238"><ele>893.0</ele><time>2026-04-26T07:31:59.995Z</time></trkpt><trkpt lat="44.134084014515444" lon="11.108247653430439"><ele>893.0</ele><time>2026-04-26T07:32:00.995Z</time></trkpt><trkpt lat="44.13411121905823" lon="11.108457271935169"><ele>893.0</ele><time>2026-04-26T07:32:01.995Z</time></trkpt><trkpt lat="44.1341582850315" lon="11.10867485069209"><ele>893.0</ele><time>2026-04-26T07:32:02.995Z</time></trkpt><trkpt lat="44.134202887306664" lon="11.108882639857907"><ele>893.0</ele><time>2026-04-26T07:32:03.995Z</time></trkpt><trkpt lat="44.13425617158396" lon="11.109067012081"><ele>893.0</ele><time>2026-04-26T07:32:04.995Z</time></trkpt><trkpt lat="44.13432967741906" lon="11.10921995842967"><ele>893.0</ele><time>2026-04-26T07:32:05.995Z</time></trkpt><trkpt lat="44.13442697024492" lon="11.109348271957888"><ele>893.0</ele><time>2026-04-26T07:32:06.995Z</time></trkpt><trkpt lat="44.13456056367348" lon="11.10944804276262"><ele>892.75</ele><time>2026-04-26T07:32:07.995Z</time></trkpt><trkpt lat="44.13467725006308" lon="11.109556752214079"><ele>892.5</ele><time>2026-04-26T07:32:08.995Z</time></trkpt><trkpt lat="44.134781033437704" lon="11.109692210436693"><ele>892.25</ele><time>2026-04-26T07:32:09.995Z</time></trkpt><trkpt lat="44.13485238979186" lon="11.109869716625774"><ele>892.0</ele><time>2026-04-26T07:32:10.995Z</time></trkpt><trkpt lat="44.1349102659716" lon="11.11005724405052"><ele>892.0</ele><time>2026-04-26T07:32:11.995Z</time></trkpt><trkpt lat="44.13496241012832" lon="11.110259384498265"><ele>892.0</ele><time>2026-04-26T07:32:12.995Z</time></trkpt><trkpt lat="44.134976971860276" lon="11.110424381838024"><ele>892.0</ele><time>2026-04-26T07:32:13.995Z</time></trkpt><trkpt lat="44.13496811461661" lon="11.110564616914647"><ele>892.0</ele><time>2026-04-26T07:32:14.995Z</time></trkpt><trkpt lat="44.13494274900599" lon="11.110709088241624"><ele>895.5</ele><time>2026-04-26T07:32:15.995Z</time></trkpt><trkpt lat="44.13487161228143" lon="11.110823276320097"><ele>899.0</ele><time>2026-04-26T07:32:16.995Z</time></trkpt><trkpt lat="44.13477703713918" lon="11.110919610521474"><ele>902.5</ele><time>2026-04-26T07:32:17.995Z</time></trkpt><trkpt lat="44.1346706302626" lon="11.111001575773424"><ele>906.0</ele><time>2026-04-26T07:32:18.995Z</time></trkpt><trkpt lat="44.1345480231373" lon="11.11107439058134"><ele>906.0</ele><time>2026-04-26T07:32:19.995Z</time></trkpt><trkpt lat="44.134425353136834" lon="11.111142888966386"><ele>906.0</ele><time>2026-04-26T07:32:20.995Z</time></trkpt><trkpt lat="44.13432276028806" lon="11.111231179076169"><ele>906.0</ele><time>2026-04-26T07:32:21.995Z</time></trkpt><trkpt lat="44.134253114714056" lon="11.111359395193336"><ele>906.0</ele><time>2026-04-26T07:32:22.995Z</time></trkpt><trkpt lat="44.134205386774234" lon="11.111517353853849"><ele>903.75</ele><time>2026-04-26T07:32:23.995Z</time></trkpt><trkpt lat="44.13418495853839" lon="11.111696886396684"><ele>901.5</ele><time>2026-04-26T07:32:24.995Z</time></trkpt><trkpt lat="44.13418809169409" lon="11.11189894143986"><ele>899.25</ele><time>2026-04-26T07:32:25.995Z</time></trkpt><trkpt lat="44.13421002746406" lon="11.11210043948597"><ele>897.0</ele><time>2026-04-26T07:32:26.995Z</time></trkpt><trkpt lat="44.13423854820007" lon="11.112289350255496"><ele>898.25</ele><time>2026-04-26T07:32:27.995Z</time></trkpt><trkpt lat="44.134298151908204" lon="11.112455444254214"><ele>899.5</ele><time>2026-04-26T07:32:28.995Z</time></trkpt><trkpt lat="44.134390761223926" lon="11.11260075866342"><ele>900.75</ele><time>2026-04-26T07:32:29.995Z</time></trkpt><trkpt lat="44.13449785116687" lon="11.112710032013602"><ele>902.0</ele><time>2026-04-26T07:32:30.995Z</time></trkpt><trkpt lat="44.13460455965943" lon="11.11283218252949"><ele>902.0</ele><time>2026-04-26T07:32:31.995Z</time></trkpt><trkpt lat="44.13472258572789" lon="11.112989198005563"><ele>902.0</ele><time>2026-04-26T07:32:32.995Z</time></trkpt><trkpt lat="44.13480597871094" lon="11.113174174356221"><ele>902.0</ele><time>2026-04-26T07:32:33.995Z</time></trkpt><trkpt lat="44.134863650606384" lon="11.11335859773228"><ele>900.5</ele><time>2026-04-26T07:32:34.995Z</time></trkpt><trkpt lat="44.13489983818116" lon="11.113539874162923"><ele>899.0</ele><time>2026-04-26T07:32:35.995Z</time></trkpt><trkpt lat="44.13494017562494" lon="11.113724073123336"><ele>897.5</ele><time>2026-04-26T07:32:36.995Z</time></trkpt><trkpt lat="44.13496767291963" lon="11.113895075234733"><ele>896.0</ele><time>2026-04-26T07:32:37.995Z</time></trkpt><trkpt lat="44.13497176921724" lon="11.114052728232679"><ele>897.25</ele><time>2026-04-26T07:32:38.995Z</time></trkpt><trkpt lat="44.13493695233367" lon="11.114203432134229"><ele>898.5</ele><time>2026-04-26T07:32:39.995Z</time></trkpt><trkpt lat="44.134891283041554" lon="11.114340765032516"><ele>899.75</ele><time>2026-04-26T07:32:40.995Z</time></trkpt><trkpt lat="44.13482137513447" lon="11.114461858937396"><ele>901.0</ele><time>2026-04-26T07:32:41.995Z</time></trkpt><trkpt lat="44.134720337900056" lon="11.114559367127276"><ele>903.25</ele><time>2026-04-26T07:32:42.995Z</time></trkpt><trkpt lat="44.13460535707258" lon="11.114632972824916"><ele>905.5</ele><time>2026-04-26T07:32:43.995Z</time></trkpt><trkpt lat="44.13447799138347" lon="11.114661255588468"><ele>907.75</ele><time>2026-04-26T07:32:44.995Z</time></trkpt><trkpt lat="44.134321542390985" lon="11.11466091224297"><ele>910.0</ele><time>2026-04-26T07:32:45.995Z</time></trkpt><trkpt lat="44.13416301502383" lon="11.114638523493573"><ele>907.3333333333333</ele><time>2026-04-26T07:32:46.995Z</time></trkpt><trkpt lat="44.133996275947304" lon="11.114610794398164"><ele>904.6666666666667</ele><time>2026-04-26T07:32:47.995Z</time></trkpt><trkpt lat="44.13382530384513" lon="11.114599953279503"><ele>902.0</ele><time>2026-04-26T07:32:48.995Z</time></trkpt><trkpt lat="44.13366015449154" lon="11.11458420870701"><ele>902.0</ele><time>2026-04-26T07:32:49.995Z</time></trkpt><trkpt lat="44.13351004377578" lon="11.114548675308733"><ele>902.0</ele><time>2026-04-26T07:32:50.995Z</time></trkpt><trkpt lat="44.13338275462545" lon="11.114521210698934"><ele>902.0</ele><time>2026-04-26T07:32:51.995Z</time></trkpt><trkpt lat="44.13327637153172" lon="11.114493717906893"><ele>902.0</ele><time>2026-04-26T07:32:52.995Z</time></trkpt><trkpt lat="44.13319471774517" lon="11.114419071581336"><ele>903.0</ele><time>2026-04-26T07:32:53.995Z</time></trkpt><trkpt lat="44.133112076558014" lon="11.114309642323265"><ele>904.0</ele><time>2026-04-26T07:32:54.995Z</time></trkpt><trkpt lat="44.133020217157885" lon="11.11419532084607"><ele>905.0</ele><time>2026-04-26T07:32:55.995Z</time></trkpt><trkpt lat="44.13294299815274" lon="11.114100224575445"><ele>906.0</ele><time>2026-04-26T07:32:56.995Z</time></trkpt><trkpt lat="44.13286612906113" lon="11.114034466337634"><ele>907.0</ele><time>2026-04-26T07:32:57.995Z</time></trkpt><trkpt lat="44.13277541106978" lon="11.114030991470488"><ele>905.0</ele><time>2026-04-26T07:32:58.995Z</time></trkpt><trkpt lat="44.13266529333652" lon="11.114073607875914"><ele>903.0</ele><time>2026-04-26T07:32:59.995Z</time></trkpt><trkpt lat="44.13254571673165" lon="11.114166989415667"><ele>901.0</ele><time>2026-04-26T07:33:00.995Z</time></trkpt><trkpt lat="44.13243311778691" lon="11.114284999279914"><ele>899.0</ele><time>2026-04-26T07:33:01.995Z</time></trkpt><trkpt lat="44.132323722759146" lon="11.114365226992817"><ele>899.0</ele><time>2026-04-26T07:33:02.995Z</time></trkpt><trkpt lat="44.13221386373028" lon="11.114427821415322"><ele>899.0</ele><time>2026-04-26T07:33:03.995Z</time></trkpt><trkpt lat="44.13211624341156" lon="11.114449664349456"><ele>899.0</ele><time>2026-04-26T07:33:04.995Z</time></trkpt><trkpt lat="44.132010981834256" lon="11.11448191668498"><ele>899.0</ele><time>2026-04-26T07:33:05.995Z</time></trkpt><trkpt lat="44.13187457888994" lon="11.114457634494086"><ele>899.0</ele><time>2026-04-26T07:33:06.995Z</time></trkpt><trkpt lat="44.131713065763826" lon="11.114440987531362"><ele>899.0</ele><time>2026-04-26T07:33:07.995Z</time></trkpt><trkpt lat="44.131547148865636" lon="11.11445379393697"><ele>899.0</ele><time>2026-04-26T07:33:08.995Z</time></trkpt><trkpt lat="44.13140253788473" lon="11.11448018398604"><ele>898.5</ele><time>2026-04-26T07:33:09.995Z</time></trkpt><trkpt lat="44.13127253702972" lon="11.11448668936881"><ele>898.0</ele><time>2026-04-26T07:33:10.995Z</time></trkpt><trkpt lat="44.13114632499838" lon="11.114515074229027"><ele>897.5</ele><time>2026-04-26T07:33:11.995Z</time></trkpt><trkpt lat="44.13101856490077" lon="11.114550169768554"><ele>897.0</ele><time>2026-04-26T07:33:12.995Z</time></trkpt><trkpt lat="44.13088999016724" lon="11.114641905859369"><ele>897.0</ele><time>2026-04-26T07:33:13.995Z</time></trkpt><trkpt lat="44.130782603129546" lon="11.114737394317618"><ele>897.0</ele><time>2026-04-26T07:33:14.995Z</time></trkpt><trkpt lat="44.13067786442745" lon="11.11480113195539"><ele>897.0</ele><time>2026-04-26T07:33:15.995Z</time></trkpt><trkpt lat="44.13053102810012" lon="11.114830707970631"><ele>897.0</ele><time>2026-04-26T07:33:16.995Z</time></trkpt><trkpt lat="44.130375156491326" lon="11.114840642534208"><ele>894.6666666666667</ele><time>2026-04-26T07:33:17.995Z</time></trkpt><trkpt lat="44.130211806123505" lon="11.114829998579488"><ele>892.3333333333334</ele><time>2026-04-26T07:33:18.995Z</time></trkpt><trkpt lat="44.1300506692512" lon="11.114804841853477"><ele>890.0</ele><time>2026-04-26T07:33:19.995Z</time></trkpt><trkpt lat="44.12990227280412" lon="11.114766040553034"><ele>883.75</ele><time>2026-04-26T07:33:20.995Z</time></trkpt><trkpt lat="44.12976283488698" lon="11.114720271663149"><ele>877.5</ele><time>2026-04-26T07:33:21.995Z</time></trkpt><trkpt lat="44.129627127327375" lon="11.114660890892013"><ele>871.25</ele><time>2026-04-26T07:33:22.995Z</time></trkpt><trkpt lat="44.12950603156253" lon="11.114584421502249"><ele>865.0</ele><time>2026-04-26T07:33:23.995Z</time></trkpt><trkpt lat="44.129401193705185" lon="11.114519031431296"><ele>865.0</ele><time>2026-04-26T07:33:24.995Z</time></trkpt><trkpt lat="44.12931028590476" lon="11.114431038722083"><ele>865.0</ele><time>2026-04-26T07:33:25.995Z</time></trkpt><trkpt lat="44.12925348733335" lon="11.114291991477641"><ele>865.0</ele><time>2026-04-26T07:33:26.995Z</time></trkpt><trkpt lat="44.12922879799299" lon="11.114112619863473"><ele>865.0</ele><time>2026-04-26T07:33:27.995Z</time></trkpt><trkpt lat="44.12920940708595" lon="11.113931958897643"><ele>866.0</ele><time>2026-04-26T07:33:28.995Z</time></trkpt><trkpt lat="44.12915795198426" lon="11.113743469551718"><ele>867.0</ele><time>2026-04-26T07:33:29.995Z</time></trkpt><trkpt lat="44.129100504519364" lon="11.113561276018643"><ele>868.0</ele><time>2026-04-26T07:33:30.995Z</time></trkpt><trkpt lat="44.12905613150646" lon="11.11340948764785"><ele>869.0</ele><time>2026-04-26T07:33:31.995Z</time></trkpt><trkpt lat="44.129057474093976" lon="11.113257607611779"><ele>869.5000000000001</ele><time>2026-04-26T07:33:32.995Z</time></trkpt><trkpt lat="44.1291153611905" lon="11.11311129124514"><ele>870.0</ele><time>2026-04-26T07:33:33.996Z</time></trkpt><trkpt lat="44.12915152976264" lon="11.11298197320347"><ele>870.5</ele><time>2026-04-26T07:33:34.995Z</time></trkpt><trkpt lat="44.12915525142246" lon="11.112889598468229"><ele>871.0</ele><time>2026-04-26T07:33:35.995Z</time></trkpt><trkpt lat="44.12911711226533" lon="11.112800810025135"><ele>871.5000000000001</ele><time>2026-04-26T07:33:36.995Z</time></trkpt><trkpt lat="44.12904822496554" lon="11.112733920518355"><ele>872.0</ele><time>2026-04-26T07:33:37.995Z</time></trkpt><trkpt lat="44.12896033882248" lon="11.11270837747091"><ele>869.6</ele><time>2026-04-26T07:33:38.995Z</time></trkpt><trkpt lat="44.12887186189037" lon="11.11272817853877"><ele>867.2</ele><time>2026-04-26T07:33:39.995Z</time></trkpt><trkpt lat="44.12880765135868" lon="11.112825275406333"><ele>864.8</ele><time>2026-04-26T07:33:40.995Z</time></trkpt><trkpt lat="44.12877726647345" lon="11.112949235977341"><ele>862.4</ele><time>2026-04-26T07:33:41.995Z</time></trkpt><trkpt lat="44.128759620325575" lon="11.113120523940871"><ele>860.0</ele><time>2026-04-26T07:33:42.995Z</time></trkpt><trkpt lat="44.1287703469294" lon="11.113303949518441"><ele>859.3333333333334</ele><time>2026-04-26T07:33:43.995Z</time></trkpt><trkpt lat="44.128810951116684" lon="11.11353075405926"><ele>858.6666666666667</ele><time>2026-04-26T07:33:44.995Z</time></trkpt><trkpt lat="44.12882302799002" lon="11.113757127704352"><ele>858.0</ele><time>2026-04-26T07:33:45.995Z</time></trkpt><trkpt lat="44.12880486000783" lon="11.113968047798311"><ele>856.5</ele><time>2026-04-26T07:33:46.995Z</time></trkpt><trkpt lat="44.128765995634275" lon="11.114160138310869"><ele>855.0</ele><time>2026-04-26T07:33:47.995Z</time></trkpt><trkpt lat="44.12873594303869" lon="11.114330499466817"><ele>853.5</ele><time>2026-04-26T07:33:48.995Z</time></trkpt><trkpt lat="44.12872320602263" lon="11.114463540292462"><ele>852.0</ele><time>2026-04-26T07:33:49.995Z</time></trkpt><trkpt lat="44.12873958781342" lon="11.114592177527967"><ele>852.0</ele><time>2026-04-26T07:33:50.995Z</time></trkpt><trkpt lat="44.128782995398865" lon="11.11472457390821"><ele>852.0</ele><time>2026-04-26T07:33:51.995Z</time></trkpt><trkpt lat="44.12885380026266" lon="11.114852297823653"><ele>852.0</ele><time>2026-04-26T07:33:52.995Z</time></trkpt><trkpt lat="44.12892676782431" lon="11.1149604013589"><ele>852.0</ele><time>2026-04-26T07:33:53.995Z</time></trkpt><trkpt lat="44.12902697448014" lon="11.115055766248219"><ele>852.0</ele><time>2026-04-26T07:33:54.995Z</time></trkpt><trkpt lat="44.12915830268734" lon="11.11514451319503"><ele>852.6666666666667</ele><time>2026-04-26T07:33:55.995Z</time></trkpt><trkpt lat="44.12929973402094" lon="11.115220797070265"><ele>853.3333333333334</ele><time>2026-04-26T07:33:56.995Z</time></trkpt><trkpt lat="44.12944880363141" lon="11.11528132494324"><ele>854.0</ele><time>2026-04-26T07:33:57.995Z</time></trkpt><trkpt lat="44.12958747348075" lon="11.115340487726902"><ele>854.0</ele><time>2026-04-26T07:33:58.995Z</time></trkpt><trkpt lat="44.12970101304065" lon="11.115393499527752"><ele>854.0000000000001</ele><time>2026-04-26T07:33:59.995Z</time></trkpt><trkpt lat="44.12980444329302" lon="11.115429840807742"><ele>854.0000000000001</ele><time>2026-04-26T07:34:00.995Z</time></trkpt><trkpt lat="44.12988139170905" lon="11.115536567459984"><ele>854.0</ele><time>2026-04-26T07:34:01.995Z</time></trkpt><trkpt lat="44.129924063700216" lon="11.115679966987816"><ele>854.0</ele><time>2026-04-26T07:34:02.995Z</time></trkpt><trkpt lat="44.12995893132949" lon="11.115864352904852"><ele>854.75</ele><time>2026-04-26T07:34:03.995Z</time></trkpt><trkpt lat="44.1299645260477" lon="11.116054187141975"><ele>855.5</ele><time>2026-04-26T07:34:04.995Z</time></trkpt><trkpt lat="44.12994257385919" lon="11.11621902878542"><ele>856.25</ele><time>2026-04-26T07:34:05.995Z</time></trkpt><trkpt lat="44.12991340430356" lon="11.11636475568846"><ele>857.0</ele><time>2026-04-26T07:34:06.995Z</time></trkpt><trkpt lat="44.129862262841215" lon="11.11646369188142"><ele>854.8333333333334</ele><time>2026-04-26T07:34:07.995Z</time></trkpt><trkpt lat="44.1297931280747" lon="11.11650564288652"><ele>852.6666666666667</ele><time>2026-04-26T07:34:08.994Z</time></trkpt><trkpt lat="44.12971841608661" lon="11.116519138082644"><ele>850.5</ele><time>2026-04-26T07:34:09.994Z</time></trkpt><trkpt lat="44.12964832775591" lon="11.116491848231309"><ele>848.3333333333333</ele><time>2026-04-26T07:34:10.994Z</time></trkpt><trkpt lat="44.12957337748335" lon="11.11643154650174"><ele>846.1666666666666</ele><time>2026-04-26T07:34:11.994Z</time></trkpt><trkpt lat="44.129497517059384" lon="11.116387823936853"><ele>844.0</ele><time>2026-04-26T07:34:12.994Z</time></trkpt><trkpt lat="44.12941194240094" lon="11.116373694910374"><ele>843.9999999999999</ele><time>2026-04-26T07:34:13.994Z</time></trkpt><trkpt lat="44.12933258938839" lon="11.116367176359441"><ele>844.0</ele><time>2026-04-26T07:34:14.994Z</time></trkpt><trkpt lat="44.12926533963776" lon="11.11637492475581"><ele>844.0</ele><time>2026-04-26T07:34:15.994Z</time></trkpt><trkpt lat="44.129196641756614" lon="11.116402336950655"><ele>844.0</ele><time>2026-04-26T07:34:16.994Z</time></trkpt><trkpt lat="44.12911980997279" lon="11.116436366827806"><ele>843.9999999999999</ele><time>2026-04-26T07:34:17.994Z</time></trkpt><trkpt lat="44.12905211250536" lon="11.116475175786597"><ele>844.0</ele><time>2026-04-26T07:34:18.994Z</time></trkpt><trkpt lat="44.12897809504788" lon="11.116536466613287"><ele>843.2</ele><time>2026-04-26T07:34:19.994Z</time></trkpt><trkpt lat="44.128908416729395" lon="11.116619067137774"><ele>842.4000000000001</ele><time>2026-04-26T07:34:20.993Z</time></trkpt><trkpt lat="44.12883701718505" lon="11.116725704458645"><ele>841.6</ele><time>2026-04-26T07:34:21.993Z</time></trkpt><trkpt lat="44.128783424065674" lon="11.116859290957473"><ele>840.8</ele><time>2026-04-26T07:34:22.993Z</time></trkpt><trkpt lat="44.12873819414543" lon="11.117002006547777"><ele>840.0</ele><time>2026-04-26T07:34:23.993Z</time></trkpt><trkpt lat="44.128708799972685" lon="11.117153886991789"><ele>840.0</ele><time>2026-04-26T07:34:24.993Z</time></trkpt><trkpt lat="44.12869520044961" lon="11.117295304198574"><ele>840.0</ele><time>2026-04-26T07:34:25.993Z</time></trkpt><trkpt lat="44.12869916418457" lon="11.117445855162341"><ele>840.0</ele><time>2026-04-26T07:34:26.993Z</time></trkpt><trkpt lat="44.12872278518108" lon="11.1175827408395"><ele>840.0</ele><time>2026-04-26T07:34:27.993Z</time></trkpt><trkpt lat="44.128752083540945" lon="11.117709390833749"><ele>840.0</ele><time>2026-04-26T07:34:28.993Z</time></trkpt><trkpt lat="44.12879124805747" lon="11.117819946445433"><ele>840.1666666666666</ele><time>2026-04-26T07:34:29.993Z</time></trkpt><trkpt lat="44.12883707864978" lon="11.117906063661255"><ele>840.3333333333333</ele><time>2026-04-26T07:34:30.993Z</time></trkpt><trkpt lat="44.128911617874685" lon="11.117964155569778"><ele>840.5</ele><time>2026-04-26T07:34:31.993Z</time></trkpt><trkpt lat="44.12898386299255" lon="11.117986591551979"><ele>840.6666666666666</ele><time>2026-04-26T07:34:32.993Z</time></trkpt><trkpt lat="44.129071653168154" lon="11.117974917424815"><ele>840.8333333333333</ele><time>2026-04-26T07:34:33.993Z</time></trkpt><trkpt lat="44.12917792648187" lon="11.117914012027518"><ele>841.0</ele><time>2026-04-26T07:34:34.993Z</time></trkpt><trkpt lat="44.12929076530502" lon="11.117855471708323"><ele>840.0</ele><time>2026-04-26T07:34:35.993Z</time></trkpt><trkpt lat="44.12941647775293" lon="11.117804574300216"><ele>839.0</ele><time>2026-04-26T07:34:36.993Z</time></trkpt><trkpt lat="44.12953152325284" lon="11.117808333592569"><ele>838.0</ele><time>2026-04-26T07:34:37.993Z</time></trkpt><trkpt lat="44.12963978919187" lon="11.117861840553399"><ele>837.0</ele><time>2026-04-26T07:34:38.993Z</time></trkpt><trkpt lat="44.12974998581655" lon="11.117970989032582"><ele>837.0</ele><time>2026-04-26T07:34:39.993Z</time></trkpt><trkpt lat="44.12985886947806" lon="11.118083351372444"><ele>837.0</ele><time>2026-04-26T07:34:40.993Z</time></trkpt><trkpt lat="44.12994276095322" lon="11.11816631317054"><ele>837.0</ele><time>2026-04-26T07:34:41.993Z</time></trkpt><trkpt lat="44.13002554256853" lon="11.118203502519235"><ele>837.0</ele><time>2026-04-26T07:34:42.993Z</time></trkpt><trkpt lat="44.13013189047812" lon="11.11820380671906"><ele>837.0</ele><time>2026-04-26T07:34:43.993Z</time></trkpt><trkpt lat="44.13025699821255" lon="11.11817496195231"><ele>834.3333333333333</ele><time>2026-04-26T07:34:44.993Z</time></trkpt><trkpt lat="44.13039968785069" lon="11.118120699082544"><ele>831.6666666666666</ele><time>2026-04-26T07:34:45.993Z</time></trkpt><trkpt lat="44.13056532948446" lon="11.118058382540369"><ele>829.0</ele><time>2026-04-26T07:34:46.993Z</time></trkpt><trkpt lat="44.13071972556707" lon="11.117953143742113"><ele>829.6666666666666</ele><time>2026-04-26T07:34:47.993Z</time></trkpt><trkpt lat="44.13088079260094" lon="11.117830120628854"><ele>830.3333333333333</ele><time>2026-04-26T07:34:48.993Z</time></trkpt><trkpt lat="44.13102782322741" lon="11.117709444331396"><ele>831.0</ele><time>2026-04-26T07:34:49.993Z</time></trkpt><trkpt lat="44.13115988467894" lon="11.117578616745309"><ele>831.0</ele><time>2026-04-26T07:34:50.993Z</time></trkpt><trkpt lat="44.13129610309611" lon="11.117438602336685"><ele>831.0</ele><time>2026-04-26T07:34:51.993Z</time></trkpt><trkpt lat="44.13140783098855" lon="11.117302295343944"><ele>831.0</ele><time>2026-04-26T07:34:52.993Z</time></trkpt><trkpt lat="44.13150942030908" lon="11.117177280207825"><ele>827.75</ele><time>2026-04-26T07:34:53.993Z</time></trkpt><trkpt lat="44.13159416091346" lon="11.117092587246642"><ele>824.5</ele><time>2026-04-26T07:34:54.993Z</time></trkpt><trkpt lat="44.131677764351394" lon="11.117020166646038"><ele>821.25</ele><time>2026-04-26T07:34:55.993Z</time></trkpt><trkpt lat="44.13179567913424" lon="11.117008249162282"><ele>818.0</ele><time>2026-04-26T07:34:56.993Z</time></trkpt><trkpt lat="44.13192930345765" lon="11.11702861235172"><ele>818.0</ele><time>2026-04-26T07:34:57.993Z</time></trkpt><trkpt lat="44.132068572599024" lon="11.117041864502308"><ele>818.0</ele><time>2026-04-26T07:34:58.993Z</time></trkpt><trkpt lat="44.132195398387005" lon="11.11707730144362"><ele>818.0</ele><time>2026-04-26T07:34:59.993Z</time></trkpt><trkpt lat="44.132327253639275" lon="11.117159768034643"><ele>818.0</ele><time>2026-04-26T07:35:00.993Z</time></trkpt><trkpt lat="44.13246607512678" lon="11.117273975909853"><ele>814.6666666666667</ele><time>2026-04-26T07:35:01.993Z</time></trkpt><trkpt lat="44.13260016300593" lon="11.11739983339238"><ele>811.3333333333333</ele><time>2026-04-26T07:35:02.993Z</time></trkpt><trkpt lat="44.13274915076198" lon="11.117528731918314"><ele>808.0</ele><time>2026-04-26T07:35:03.993Z</time></trkpt><trkpt lat="44.132904074614764" lon="11.117624423607484"><ele>806.6666666666666</ele><time>2026-04-26T07:35:04.993Z</time></trkpt><trkpt lat="44.13307847117939" lon="11.117685766665907"><ele>805.3333333333333</ele><time>2026-04-26T07:35:05.993Z</time></trkpt><trkpt lat="44.133238098970025" lon="11.117767198823092"><ele>804.0</ele><time>2026-04-26T07:35:06.993Z</time></trkpt><trkpt lat="44.133368158943526" lon="11.117896907356563"><ele>804.0</ele><time>2026-04-26T07:35:07.993Z</time></trkpt><trkpt lat="44.133496327216925" lon="11.118056621603358"><ele>804.0</ele><time>2026-04-26T07:35:08.993Z</time></trkpt><trkpt lat="44.133622626830146" lon="11.11823077585167"><ele>804.0</ele><time>2026-04-26T07:35:09.993Z</time></trkpt><trkpt lat="44.133750937181084" lon="11.118409534448128"><ele>800.6666666666667</ele><time>2026-04-26T07:35:10.993Z</time></trkpt><trkpt lat="44.13386499618879" lon="11.118581288327938"><ele>797.3333333333334</ele><time>2026-04-26T07:35:11.993Z</time></trkpt><trkpt lat="44.133993520029016" lon="11.118717386906477"><ele>794.0</ele><time>2026-04-26T07:35:12.993Z</time></trkpt><trkpt lat="44.13414322566926" lon="11.118832070279868"><ele>794.0</ele><time>2026-04-26T07:35:13.993Z</time></trkpt><trkpt lat="44.13428623546978" lon="11.118924790745949"><ele>794.0</ele><time>2026-04-26T07:35:14.993Z</time></trkpt><trkpt lat="44.134458103032074" lon="11.119006541537045"><ele>794.0</ele><time>2026-04-26T07:35:15.993Z</time></trkpt><trkpt lat="44.13458567070789" lon="11.119101929440829"><ele>796.25</ele><time>2026-04-26T07:35:16.993Z</time></trkpt><trkpt lat="44.134699536080966" lon="11.119224358020588"><ele>798.5</ele><time>2026-04-26T07:35:17.993Z</time></trkpt><trkpt lat="44.1347931336744" lon="11.119339868282855"><ele>800.75</ele><time>2026-04-26T07:35:18.993Z</time></trkpt><trkpt lat="44.134888432829335" lon="11.119406729030096"><ele>803.0</ele><time>2026-04-26T07:35:19.993Z</time></trkpt><trkpt lat="44.13500726015766" lon="11.119463110665059"><ele>803.0</ele><time>2026-04-26T07:35:20.993Z</time></trkpt><trkpt lat="44.13513398185987" lon="11.119500961088987"><ele>803.0</ele><time>2026-04-26T07:35:21.993Z</time></trkpt><trkpt lat="44.13526406683294" lon="11.11949755699494"><ele>803.0</ele><time>2026-04-26T07:35:22.993Z</time></trkpt><trkpt lat="44.1353914166397" lon="11.119490522897644"><ele>803.0</ele><time>2026-04-26T07:35:23.993Z</time></trkpt><trkpt lat="44.135538045761876" lon="11.119488639568196"><ele>803.0</ele><time>2026-04-26T07:35:24.993Z</time></trkpt><trkpt lat="44.135695444893" lon="11.11949895535872"><ele>803.0</ele><time>2026-04-26T07:35:25.993Z</time></trkpt><trkpt lat="44.13584788777811" lon="11.119547525516792"><ele>803.0</ele><time>2026-04-26T07:35:26.993Z</time></trkpt><trkpt lat="44.13600021096575" lon="11.119561595552845"><ele>801.0</ele><time>2026-04-26T07:35:27.993Z</time></trkpt><trkpt lat="44.136128467803296" lon="11.119560907514014"><ele>799.0</ele><time>2026-04-26T07:35:28.993Z</time></trkpt><trkpt lat="44.1362360779646" lon="11.11953884559095"><ele>797.0</ele><time>2026-04-26T07:35:29.993Z</time></trkpt><trkpt lat="44.136329763804305" lon="11.119537787198736"><ele>795.0</ele><time>2026-04-26T07:35:30.993Z</time></trkpt><trkpt lat="44.13641285314411" lon="11.119572215639419"><ele>793.0</ele><time>2026-04-26T07:35:31.992Z</time></trkpt><trkpt lat="44.136492745383805" lon="11.119688979380637"><ele>793.0</ele><time>2026-04-26T07:35:32.992Z</time></trkpt><trkpt lat="44.13655191340403" lon="11.119835554834408"><ele>793.0</ele><time>2026-04-26T07:35:33.992Z</time></trkpt><trkpt lat="44.13661839919057" lon="11.120002148897154"><ele>793.0</ele><time>2026-04-26T07:35:34.992Z</time></trkpt><trkpt lat="44.13671804659359" lon="11.120167938772825"><ele>793.0</ele><time>2026-04-26T07:35:35.992Z</time></trkpt><trkpt lat="44.13684171827623" lon="11.120330042838123"><ele>796.6666666666666</ele><time>2026-04-26T07:35:36.993Z</time></trkpt><trkpt lat="44.13699190692384" lon="11.120463284353033"><ele>800.3333333333333</ele><time>2026-04-26T07:35:37.992Z</time></trkpt><trkpt lat="44.13715406714499" lon="11.120566626251284"><ele>804.0</ele><time>2026-04-26T07:35:38.992Z</time></trkpt><trkpt lat="44.13731645409898" lon="11.12067609000505"><ele>801.5</ele><time>2026-04-26T07:35:39.992Z</time></trkpt><trkpt lat="44.1374365380021" lon="11.120768199364704"><ele>799.0</ele><time>2026-04-26T07:35:40.992Z</time></trkpt><trkpt lat="44.137543893460894" lon="11.120891596968075"><ele>796.5</ele><time>2026-04-26T07:35:41.992Z</time></trkpt><trkpt lat="44.13764117209336" lon="11.121044625151189"><ele>794.0</ele><time>2026-04-26T07:35:42.992Z</time></trkpt><trkpt lat="44.13773830873517" lon="11.121259745530008"><ele>794.0</ele><time>2026-04-26T07:35:43.992Z</time></trkpt><trkpt lat="44.13784357523208" lon="11.121457118098581"><ele>794.0</ele><time>2026-04-26T07:35:44.992Z</time></trkpt><trkpt lat="44.137935624325806" lon="11.121668009205202"><ele>794.0</ele><time>2026-04-26T07:35:45.992Z</time></trkpt><trkpt lat="44.13802388620961" lon="11.121875293035469"><ele>794.75</ele><time>2026-04-26T07:35:46.992Z</time></trkpt><trkpt lat="44.13808415105823" lon="11.12206985256013"><ele>795.5</ele><time>2026-04-26T07:35:47.992Z</time></trkpt><trkpt lat="44.138154600448594" lon="11.122220854205462"><ele>796.25</ele><time>2026-04-26T07:35:48.992Z</time></trkpt><trkpt lat="44.13823655806031" lon="11.122352902002875"><ele>797.0</ele><time>2026-04-26T07:35:49.992Z</time></trkpt><trkpt lat="44.13830990127115" lon="11.122465568736057"><ele>797.0</ele><time>2026-04-26T07:35:50.992Z</time></trkpt><trkpt lat="44.13843769026587" lon="11.122546739509021"><ele>797.0</ele><time>2026-04-26T07:35:51.992Z</time></trkpt><trkpt lat="44.13857437133009" lon="11.122615817780499"><ele>797.0</ele><time>2026-04-26T07:35:52.992Z</time></trkpt><trkpt lat="44.13872768236241" lon="11.122671641246466"><ele>797.0</ele><time>2026-04-26T07:35:53.992Z</time></trkpt><trkpt lat="44.13890485967486" lon="11.12268614456851"><ele>789.6666666666667</ele><time>2026-04-26T07:35:54.992Z</time></trkpt><trkpt lat="44.139087815716515" lon="11.122772466537521"><ele>782.3333333333333</ele><time>2026-04-26T07:35:55.992Z</time></trkpt><trkpt lat="44.13927813089588" lon="11.122862127805085"><ele>775.0</ele><time>2026-04-26T07:35:56.992Z</time></trkpt><trkpt lat="44.1394489507412" lon="11.122976048775037"><ele>775.0</ele><time>2026-04-26T07:35:57.992Z</time></trkpt><trkpt lat="44.13960811858927" lon="11.123090284663531"><ele>775.0</ele><time>2026-04-26T07:35:58.992Z</time></trkpt><trkpt lat="44.139752705320696" lon="11.123190829648783"><ele>775.0</ele><time>2026-04-26T07:35:59.992Z</time></trkpt><trkpt lat="44.13989149390586" lon="11.12326756892506"><ele>776.25</ele><time>2026-04-26T07:36:00.992Z</time></trkpt><trkpt lat="44.14002143129832" lon="11.123343168858494"><ele>777.5</ele><time>2026-04-26T07:36:01.992Z</time></trkpt><trkpt lat="44.14013685790926" lon="11.123447689157857"><ele>778.75</ele><time>2026-04-26T07:36:02.992Z</time></trkpt><trkpt lat="44.140246235167815" lon="11.123575473062482"><ele>780.0</ele><time>2026-04-26T07:36:03.992Z</time></trkpt><trkpt lat="44.14033910769346" lon="11.123749913838708"><ele>780.0</ele><time>2026-04-26T07:36:04.992Z</time></trkpt><trkpt lat="44.14041158990115" lon="11.123956900231901"><ele>780.0</ele><time>2026-04-26T07:36:05.992Z</time></trkpt><trkpt lat="44.14047753409988" lon="11.124145514269568"><ele>780.0</ele><time>2026-04-26T07:36:06.992Z</time></trkpt><trkpt lat="44.14054443648427" lon="11.124293569461194"><ele>780.0</ele><time>2026-04-26T07:36:07.992Z</time></trkpt><trkpt lat="44.140633566939954" lon="11.124404952790107"><ele>777.0</ele><time>2026-04-26T07:36:08.992Z</time></trkpt><trkpt lat="44.14077090893743" lon="11.124487183673313"><ele>774.0</ele><time>2026-04-26T07:36:09.992Z</time></trkpt><trkpt lat="44.140915454906406" lon="11.124549566834022"><ele>771.0</ele><time>2026-04-26T07:36:10.992Z</time></trkpt><trkpt lat="44.14102631863374" lon="11.12462529455338"><ele>768.0</ele><time>2026-04-26T07:36:11.992Z</time></trkpt><trkpt lat="44.14110186865385" lon="11.124756187425914"><ele>772.75</ele><time>2026-04-26T07:36:12.992Z</time></trkpt><trkpt lat="44.14115817585499" lon="11.124905945088463"><ele>777.5</ele><time>2026-04-26T07:36:13.992Z</time></trkpt><trkpt lat="44.141171045003006" lon="11.125087855896908"><ele>782.25</ele><time>2026-04-26T07:36:14.992Z</time></trkpt><trkpt lat="44.14117843262494" lon="11.125289489135001"><ele>787.0</ele><time>2026-04-26T07:36:15.992Z</time></trkpt><trkpt lat="44.14121347970515" lon="11.125490202080389"><ele>787.0</ele><time>2026-04-26T07:36:16.992Z</time></trkpt><trkpt lat="44.14128151281276" lon="11.125683478030876"><ele>787.0</ele><time>2026-04-26T07:36:17.992Z</time></trkpt><trkpt lat="44.14136871005229" lon="11.125874155779027"><ele>787.0</ele><time>2026-04-26T07:36:18.992Z</time></trkpt><trkpt lat="44.14147649484696" lon="11.126047465548973"><ele>778.3333333333333</ele><time>2026-04-26T07:36:19.992Z</time></trkpt><trkpt lat="44.14162364911896" lon="11.126178603839335"><ele>769.6666666666666</ele><time>2026-04-26T07:36:20.992Z</time></trkpt><trkpt lat="44.14176779091678" lon="11.126300182368777"><ele>761.0</ele><time>2026-04-26T07:36:21.992Z</time></trkpt><trkpt lat="44.1418791233288" lon="11.126409388626215"><ele>761.0</ele><time>2026-04-26T07:36:22.992Z</time></trkpt><trkpt lat="44.141982278260336" lon="11.126504778709554"><ele>761.0</ele><time>2026-04-26T07:36:23.992Z</time></trkpt><trkpt lat="44.142050509289575" lon="11.126636502895257"><ele>761.0</ele><time>2026-04-26T07:36:24.992Z</time></trkpt><trkpt lat="44.142097830707506" lon="11.126811442267773"><ele>761.0</ele><time>2026-04-26T07:36:25.992Z</time></trkpt><trkpt lat="44.142147101818566" lon="11.127012724782785"><ele>762.0</ele><time>2026-04-26T07:36:26.992Z</time></trkpt><trkpt lat="44.14219826698186" lon="11.127205501717683"><ele>763.0</ele><time>2026-04-26T07:36:27.992Z</time></trkpt><trkpt lat="44.1422596626564" lon="11.12736263431698"><ele>764.0</ele><time>2026-04-26T07:36:28.992Z</time></trkpt><trkpt lat="44.14234724658047" lon="11.12749999793671"><ele>765.0</ele><time>2026-04-26T07:36:29.992Z</time></trkpt><trkpt lat="44.14247227595168" lon="11.127625389238927"><ele>765.0</ele><time>2026-04-26T07:36:30.992Z</time></trkpt><trkpt lat="44.14262009157459" lon="11.1277296158168"><ele>765.0</ele><time>2026-04-26T07:36:31.992Z</time></trkpt><trkpt lat="44.14276570573764" lon="11.127822343565331"><ele>765.0</ele><time>2026-04-26T07:36:32.992Z</time></trkpt><trkpt lat="44.142880677870494" lon="11.127932520156827"><ele>765.0</ele><time>2026-04-26T07:36:33.992Z</time></trkpt><trkpt lat="44.14297161660801" lon="11.128076783550535"><ele>765.0</ele><time>2026-04-26T07:36:34.992Z</time></trkpt><trkpt lat="44.143048690847195" lon="11.128241861362895"><ele>765.0</ele><time>2026-04-26T07:36:35.992Z</time></trkpt><trkpt lat="44.14311477801505" lon="11.128451215272866"><ele>765.0</ele><time>2026-04-26T07:36:36.992Z</time></trkpt><trkpt lat="44.14317562626484" lon="11.128660263682164"><ele>765.75</ele><time>2026-04-26T07:36:37.992Z</time></trkpt><trkpt lat="44.143243296990725" lon="11.128843215176586"><ele>766.5</ele><time>2026-04-26T07:36:38.992Z</time></trkpt><trkpt lat="44.14333558508141" lon="11.129002336571167"><ele>767.25</ele><time>2026-04-26T07:36:39.992Z</time></trkpt><trkpt lat="44.143447130455506" lon="11.129136066600685"><ele>768.0</ele><time>2026-04-26T07:36:40.992Z</time></trkpt><trkpt lat="44.14354240388985" lon="11.129234973468977"><ele>768.0</ele><time>2026-04-26T07:36:41.992Z</time></trkpt><trkpt lat="44.143613461138806" lon="11.129356670446553"><ele>768.0</ele><time>2026-04-26T07:36:42.992Z</time></trkpt><trkpt lat="44.14363308686414" lon="11.129527675245635"><ele>768.0</ele><time>2026-04-26T07:36:43.992Z</time></trkpt><trkpt lat="44.143660104690206" lon="11.129712577929956"><ele>768.0</ele><time>2026-04-26T07:36:44.992Z</time></trkpt><trkpt lat="44.143666901989874" lon="11.129915387928902"><ele>769.5999999999999</ele><time>2026-04-26T07:36:45.992Z</time></trkpt><trkpt lat="44.14369004565853" lon="11.130091005410204"><ele>771.1999999999999</ele><time>2026-04-26T07:36:46.992Z</time></trkpt><trkpt lat="44.14371691578612" lon="11.130241598862955"><ele>772.8</ele><time>2026-04-26T07:36:47.992Z</time></trkpt><trkpt lat="44.143739369029305" lon="11.130367070323832"><ele>774.4</ele><time>2026-04-26T07:36:48.992Z</time></trkpt><trkpt lat="44.143756190099076" lon="11.130502394305609"><ele>776.0</ele><time>2026-04-26T07:36:49.992Z</time></trkpt><trkpt lat="44.143752431106826" lon="11.130637365226436"><ele>777.0</ele><time>2026-04-26T07:36:50.992Z</time></trkpt><trkpt lat="44.14374607783868" lon="11.130744853239166"><ele>778.0</ele><time>2026-04-26T07:36:51.992Z</time></trkpt><trkpt lat="44.14373742150379" lon="11.13085467588717"><ele>779.0</ele><time>2026-04-26T07:36:52.992Z</time></trkpt><trkpt lat="44.14375533742179" lon="11.130973446551396"><ele>780.0</ele><time>2026-04-26T07:36:53.992Z</time></trkpt><trkpt lat="44.14380827200043" lon="11.13109270679644"><ele>781.0</ele><time>2026-04-26T07:36:54.992Z</time></trkpt><trkpt lat="44.143894892665834" lon="11.131199416695747"><ele>781.0</ele><time>2026-04-26T07:36:55.992Z</time></trkpt><trkpt lat="44.143980224318874" lon="11.131335141793102"><ele>781.0</ele><time>2026-04-26T07:36:56.992Z</time></trkpt><trkpt lat="44.14403095844529" lon="11.13151194173235"><ele>781.0</ele><time>2026-04-26T07:36:57.992Z</time></trkpt><trkpt lat="44.14407946937863" lon="11.131660733942057"><ele>781.0</ele><time>2026-04-26T07:36:58.992Z</time></trkpt><trkpt lat="44.14415313725941" lon="11.13176874392585"><ele>775.25</ele><time>2026-04-26T07:36:59.992Z</time></trkpt><trkpt lat="44.14426093781227" lon="11.131869013582786"><ele>769.5</ele><time>2026-04-26T07:37:00.992Z</time></trkpt><trkpt lat="44.14440061545748" lon="11.1319488556099"><ele>763.75</ele><time>2026-04-26T07:37:01.992Z</time></trkpt><trkpt lat="44.14450014029959" lon="11.132075106687717"><ele>758.0</ele><time>2026-04-26T07:37:02.992Z</time></trkpt><trkpt lat="44.14454335594109" lon="11.132219411671525"><ele>758.0</ele><time>2026-04-26T07:37:03.992Z</time></trkpt><trkpt lat="44.14454368773744" lon="11.132379033877077"><ele>758.0</ele><time>2026-04-26T07:37:04.992Z</time></trkpt><trkpt lat="44.14452082737573" lon="11.132558145032307"><ele>758.0</ele><time>2026-04-26T07:37:05.992Z</time></trkpt><trkpt lat="44.14450080809587" lon="11.132731336093173"><ele>758.0</ele><time>2026-04-26T07:37:06.992Z</time></trkpt><trkpt lat="44.144475240213104" lon="11.132910169112016"><ele>761.75</ele><time>2026-04-26T07:37:07.992Z</time></trkpt><trkpt lat="44.14447402602041" lon="11.133089506145463"><ele>765.5</ele><time>2026-04-26T07:37:08.992Z</time></trkpt><trkpt lat="44.144495728914585" lon="11.13329055809999"><ele>769.25</ele><time>2026-04-26T07:37:09.992Z</time></trkpt><trkpt lat="44.14455874687254" lon="11.13347910132625"><ele>773.0</ele><time>2026-04-26T07:37:10.992Z</time></trkpt><trkpt lat="44.14464901262852" lon="11.133693266987988"><ele>773.75</ele><time>2026-04-26T07:37:11.992Z</time></trkpt><trkpt lat="44.14473459562115" lon="11.133895733447801"><ele>774.5</ele><time>2026-04-26T07:37:12.992Z</time></trkpt><trkpt lat="44.14479710780005" lon="11.134062087488177"><ele>775.25</ele><time>2026-04-26T07:37:13.992Z</time></trkpt><trkpt lat="44.14483059699735" lon="11.134199809414465"><ele>776.0</ele><time>2026-04-26T07:37:14.992Z</time></trkpt><trkpt lat="44.14484597387265" lon="11.13436590466111"><ele>777.0</ele><time>2026-04-26T07:37:15.992Z</time></trkpt><trkpt lat="44.14483105836696" lon="11.134533186197974"><ele>778.0</ele><time>2026-04-26T07:37:16.992Z</time></trkpt><trkpt lat="44.14477789822729" lon="11.134709160951068"><ele>779.0</ele><time>2026-04-26T07:37:17.992Z</time></trkpt><trkpt lat="44.14471331255973" lon="11.134901977227983"><ele>780.0</ele><time>2026-04-26T07:37:18.992Z</time></trkpt><trkpt lat="44.144649939527795" lon="11.135109413044189"><ele>780.0</ele><time>2026-04-26T07:37:19.992Z</time></trkpt><trkpt lat="44.14462984219012" lon="11.135339145771248"><ele>780.0</ele><time>2026-04-26T07:37:20.992Z</time></trkpt><trkpt lat="44.1446237991197" lon="11.135562626321034"><ele>780.0</ele><time>2026-04-26T07:37:21.992Z</time></trkpt><trkpt lat="44.14462023128515" lon="11.135775495003605"><ele>780.25</ele><time>2026-04-26T07:37:22.992Z</time></trkpt><trkpt lat="44.14461437839747" lon="11.135965485636381"><ele>780.5</ele><time>2026-04-26T07:37:23.992Z</time></trkpt><trkpt lat="44.14462072938424" lon="11.136159111946586"><ele>780.75</ele><time>2026-04-26T07:37:24.992Z</time></trkpt><trkpt lat="44.144639548624866" lon="11.13636243185972"><ele>781.0</ele><time>2026-04-26T07:37:25.992Z</time></trkpt><trkpt lat="44.144671445966665" lon="11.136578485572576"><ele>781.0</ele><time>2026-04-26T07:37:26.992Z</time></trkpt><trkpt lat="44.14470429533193" lon="11.136781574176887"><ele>781.0</ele><time>2026-04-26T07:37:27.992Z</time></trkpt><trkpt lat="44.144735255675414" lon="11.137003563262885"><ele>781.0</ele><time>2026-04-26T07:37:28.992Z</time></trkpt><trkpt lat="44.144746280547224" lon="11.137238090058268"><ele>781.0</ele><time>2026-04-26T07:37:29.992Z</time></trkpt><trkpt lat="44.144763524962165" lon="11.137446187501654"><ele>781.0</ele><time>2026-04-26T07:37:30.992Z</time></trkpt><trkpt lat="44.14477620266185" lon="11.137645387857676"><ele>781.0</ele><time>2026-04-26T07:37:31.992Z</time></trkpt><trkpt lat="44.14480903663025" lon="11.137840490317389"><ele>781.0</ele><time>2026-04-26T07:37:32.992Z</time></trkpt><trkpt lat="44.144894442341176" lon="11.138036088629525"><ele>769.75</ele><time>2026-04-26T07:37:33.992Z</time></trkpt><trkpt lat="44.14497513280199" lon="11.138206940218888"><ele>758.5</ele><time>2026-04-26T07:37:34.992Z</time></trkpt><trkpt lat="44.14503543766627" lon="11.13835307097865"><ele>747.25</ele><time>2026-04-26T07:37:35.992Z</time></trkpt><trkpt lat="44.14506898687459" lon="11.13853192366677"><ele>736.0</ele><time>2026-04-26T07:37:36.992Z</time></trkpt><trkpt lat="44.145072628205675" lon="11.138730826048869"><ele>736.0</ele><time>2026-04-26T07:37:37.992Z</time></trkpt><trkpt lat="44.145056210884405" lon="11.138957940073688"><ele>736.0</ele><time>2026-04-26T07:37:38.992Z</time></trkpt><trkpt lat="44.14503397715769" lon="11.139194096026548"><ele>736.0</ele><time>2026-04-26T07:37:39.992Z</time></trkpt><trkpt lat="44.145008615997604" lon="11.139414071102468"><ele>736.5</ele><time>2026-04-26T07:37:40.992Z</time></trkpt><trkpt lat="44.144971599778714" lon="11.139597356830048"><ele>737.0</ele><time>2026-04-26T07:37:41.992Z</time></trkpt><trkpt lat="44.14493288195218" lon="11.139753280233506"><ele>737.5</ele><time>2026-04-26T07:37:42.992Z</time></trkpt><trkpt lat="44.14491734554333" lon="11.139915659589098"><ele>738.0</ele><time>2026-04-26T07:37:43.992Z</time></trkpt><trkpt lat="44.14490532053172" lon="11.140079945742352"><ele>737.0</ele><time>2026-04-26T07:37:44.992Z</time></trkpt><trkpt lat="44.14493091602271" lon="11.14023744476435"><ele>736.0</ele><time>2026-04-26T07:37:45.992Z</time></trkpt><trkpt lat="44.14496928190836" lon="11.140389076246889"><ele>735.0</ele><time>2026-04-26T07:37:46.991Z</time></trkpt><trkpt lat="44.14498814895177" lon="11.140524497379932"><ele>734.0</ele><time>2026-04-26T07:37:47.991Z</time></trkpt><trkpt lat="44.144970684838334" lon="11.140644170762211"><ele>733.0</ele><time>2026-04-26T07:37:48.992Z</time></trkpt><trkpt lat="44.144913842853" lon="11.140743960539579"><ele>737.25</ele><time>2026-04-26T07:37:49.992Z</time></trkpt><trkpt lat="44.144829813168286" lon="11.140822059022373"><ele>741.5</ele><time>2026-04-26T07:37:50.992Z</time></trkpt><trkpt lat="44.144725024418676" lon="11.140880254976425"><ele>745.75</ele><time>2026-04-26T07:37:51.992Z</time></trkpt><trkpt lat="44.144608323940645" lon="11.14096025277052"><ele>750.0</ele><time>2026-04-26T07:37:52.992Z</time></trkpt><trkpt lat="44.14448735353391" lon="11.141057058365774"><ele>750.0</ele><time>2026-04-26T07:37:53.992Z</time></trkpt><trkpt lat="44.14439156625935" lon="11.141162106540316"><ele>750.0</ele><time>2026-04-26T07:37:54.992Z</time></trkpt><trkpt lat="44.144309351776464" lon="11.141268611155276"><ele>750.0</ele><time>2026-04-26T07:37:55.992Z</time></trkpt><trkpt lat="44.144236680334615" lon="11.141381758198964"><ele>750.0</ele><time>2026-04-26T07:37:56.992Z</time></trkpt><trkpt lat="44.14413897779743" lon="11.141490235207772"><ele>754.75</ele><time>2026-04-26T07:37:57.992Z</time></trkpt><trkpt lat="44.14404321497428" lon="11.141597255321095"><ele>759.5</ele><time>2026-04-26T07:37:58.992Z</time></trkpt><trkpt lat="44.143955767552214" lon="11.141706334375412"><ele>764.25</ele><time>2026-04-26T07:37:59.992Z</time></trkpt><trkpt lat="44.14389360614471" lon="11.141839979121094"><ele>769.0</ele><time>2026-04-26T07:38:00.992Z</time></trkpt><trkpt lat="44.14384388584115" lon="11.14200867123631"><ele>769.0</ele><time>2026-04-26T07:38:01.992Z</time></trkpt><trkpt lat="44.14379434362841" lon="11.142180310030692"><ele>769.0</ele><time>2026-04-26T07:38:02.992Z</time></trkpt><trkpt lat="44.14376886959595" lon="11.142355429575932"><ele>769.0</ele><time>2026-04-26T07:38:03.992Z</time></trkpt><trkpt lat="44.14376812286999" lon="11.142555782180102"><ele>769.0</ele><time>2026-04-26T07:38:04.992Z</time></trkpt><trkpt lat="44.14379829538692" lon="11.142769951023956"><ele>765.25</ele><time>2026-04-26T07:38:05.992Z</time></trkpt><trkpt lat="44.14383546569723" lon="11.142990255014315"><ele>761.5</ele><time>2026-04-26T07:38:06.992Z</time></trkpt><trkpt lat="44.14385038598717" lon="11.14319054223589"><ele>757.75</ele><time>2026-04-26T07:38:07.992Z</time></trkpt><trkpt lat="44.14386462778521" lon="11.14336445557408"><ele>754.0</ele><time>2026-04-26T07:38:08.992Z</time></trkpt><trkpt lat="44.143858696813915" lon="11.143535676841733"><ele>751.5</ele><time>2026-04-26T07:38:09.992Z</time></trkpt><trkpt lat="44.14383626127904" lon="11.143695207497872"><ele>749.0</ele><time>2026-04-26T07:38:10.992Z</time></trkpt><trkpt lat="44.14378616382214" lon="11.143867821679123"><ele>746.5</ele><time>2026-04-26T07:38:11.992Z</time></trkpt><trkpt lat="44.1437204211166" lon="11.144057631405206"><ele>744.0</ele><time>2026-04-26T07:38:12.992Z</time></trkpt><trkpt lat="44.14368193401931" lon="11.144254086872643"><ele>741.0</ele><time>2026-04-26T07:38:13.992Z</time></trkpt><trkpt lat="44.14364347849043" lon="11.144466697896105"><ele>738.0</ele><time>2026-04-26T07:38:14.992Z</time></trkpt><trkpt lat="44.14360427818919" lon="11.144679396895976"><ele>735.0</ele><time>2026-04-26T07:38:15.992Z</time></trkpt><trkpt lat="44.14356001666437" lon="11.144884292953925"><ele>732.3333333333334</ele><time>2026-04-26T07:38:16.992Z</time></trkpt><trkpt lat="44.14349430209461" lon="11.145092390444066"><ele>729.6666666666667</ele><time>2026-04-26T07:38:17.992Z</time></trkpt><trkpt lat="44.14342321470655" lon="11.145298402429791"><ele>727.0</ele><time>2026-04-26T07:38:18.992Z</time></trkpt><trkpt lat="44.14334406242225" lon="11.145488207925945"><ele>727.0</ele><time>2026-04-26T07:38:19.992Z</time></trkpt><trkpt lat="44.14327475111502" lon="11.145662745941511"><ele>727.0</ele><time>2026-04-26T07:38:20.992Z</time></trkpt><trkpt lat="44.143214038406136" lon="11.145815501793232"><ele>727.0</ele><time>2026-04-26T07:38:21.992Z</time></trkpt><trkpt lat="44.14317369945858" lon="11.145949226012991"><ele>727.0</ele><time>2026-04-26T07:38:22.992Z</time></trkpt><trkpt lat="44.143151908222016" lon="11.146094373772396"><ele>730.25</ele><time>2026-04-26T07:38:23.992Z</time></trkpt><trkpt lat="44.143141798742114" lon="11.146253246316528"><ele>733.5</ele><time>2026-04-26T07:38:24.992Z</time></trkpt><trkpt lat="44.143134175033396" lon="11.146422366752459"><ele>736.75</ele><time>2026-04-26T07:38:25.992Z</time></trkpt><trkpt lat="44.14310531826491" lon="11.146600441233243"><ele>740.0</ele><time>2026-04-26T07:38:26.992Z</time></trkpt><trkpt lat="44.14306212616946" lon="11.146787791152803"><ele>740.0</ele><time>2026-04-26T07:38:27.992Z</time></trkpt><trkpt lat="44.14300610754554" lon="11.146955971828246"><ele>740.0</ele><time>2026-04-26T07:38:28.992Z</time></trkpt><trkpt lat="44.14296389380404" lon="11.147123343487907"><ele>740.0</ele><time>2026-04-26T07:38:29.992Z</time></trkpt><trkpt lat="44.14291483332349" lon="11.147240132659856"><ele>740.0</ele><time>2026-04-26T07:38:30.992Z</time></trkpt><trkpt lat="44.14283651293159" lon="11.147343685106472"><ele>743.0</ele><time>2026-04-26T07:38:31.992Z</time></trkpt><trkpt lat="44.14273678905737" lon="11.147417756617575"><ele>746.0</ele><time>2026-04-26T07:38:32.992Z</time></trkpt><trkpt lat="44.142603086631276" lon="11.147501760618779"><ele>749.0</ele><time>2026-04-26T07:38:33.992Z</time></trkpt><trkpt lat="44.142469441719555" lon="11.147583943913636"><ele>752.0</ele><time>2026-04-26T07:38:34.992Z</time></trkpt><trkpt lat="44.14231962959551" lon="11.147654815423266"><ele>752.0</ele><time>2026-04-26T07:38:35.992Z</time></trkpt><trkpt lat="44.14220122882396" lon="11.147751360124914"><ele>752.0</ele><time>2026-04-26T07:38:36.992Z</time></trkpt><trkpt lat="44.14209728038298" lon="11.14786714899769"><ele>752.0</ele><time>2026-04-26T07:38:37.992Z</time></trkpt><trkpt lat="44.141999576600696" lon="11.148001923859667"><ele>752.0</ele><time>2026-04-26T07:38:38.992Z</time></trkpt><trkpt lat="44.14190644675357" lon="11.14810726604738"><ele>746.4000000000001</ele><time>2026-04-26T07:38:39.992Z</time></trkpt><trkpt lat="44.14182616961235" lon="11.148233535994823"><ele>740.8000000000001</ele><time>2026-04-26T07:38:40.992Z</time></trkpt><trkpt lat="44.141767303650624" lon="11.148360206737047"><ele>735.2</ele><time>2026-04-26T07:38:41.992Z</time></trkpt><trkpt lat="44.141735825139634" lon="11.148485288581364"><ele>729.6</ele><time>2026-04-26T07:38:42.992Z</time></trkpt><trkpt lat="44.141743504873766" lon="11.148613903287727"><ele>724.0</ele><time>2026-04-26T07:38:43.992Z</time></trkpt><trkpt lat="44.141782405266135" lon="11.14871831115451"><ele>724.0</ele><time>2026-04-26T07:38:44.992Z</time></trkpt><trkpt lat="44.141848023969814" lon="11.14879201744957"><ele>724.0</ele><time>2026-04-26T07:38:45.992Z</time></trkpt><trkpt lat="44.1419217335907" lon="11.148839451411165"><ele>724.0</ele><time>2026-04-26T07:38:46.992Z</time></trkpt><trkpt lat="44.14200886568979" lon="11.148841748690916"><ele>724.0</ele><time>2026-04-26T07:38:47.992Z</time></trkpt><trkpt lat="44.14212369003864" lon="11.14882655031272"><ele>724.0</ele><time>2026-04-26T07:38:48.992Z</time></trkpt><trkpt lat="44.14225476836583" lon="11.148795554367439"><ele>724.0</ele><time>2026-04-26T07:38:49.992Z</time></trkpt><trkpt lat="44.14236550462242" lon="11.148781372613014"><ele>724.0</ele><time>2026-04-26T07:38:50.992Z</time></trkpt><trkpt lat="44.14245985656936" lon="11.14880836325158"><ele>724.0</ele><time>2026-04-26T07:38:51.992Z</time></trkpt><trkpt lat="44.14252580765371" lon="11.148921738211383"><ele>724.0</ele><time>2026-04-26T07:38:52.992Z</time></trkpt><trkpt lat="44.14255604779144" lon="11.14904835901925"><ele>724.0</ele><time>2026-04-26T07:38:53.992Z</time></trkpt><trkpt lat="44.14256581445986" lon="11.149190543330851"><ele>722.75</ele><time>2026-04-26T07:38:54.992Z</time></trkpt><trkpt lat="44.14256020922274" lon="11.149324566902076"><ele>721.5</ele><time>2026-04-26T07:38:55.992Z</time></trkpt><trkpt lat="44.142500088427596" lon="11.149465277526598"><ele>720.25</ele><time>2026-04-26T07:38:56.992Z</time></trkpt><trkpt lat="44.14243827961302" lon="11.14960077206587"><ele>719.0</ele><time>2026-04-26T07:38:57.992Z</time></trkpt><trkpt lat="44.142380430559854" lon="11.149771160455176"><ele>720.0</ele><time>2026-04-26T07:38:58.992Z</time></trkpt><trkpt lat="44.142306878534775" lon="11.149965803805518"><ele>721.0</ele><time>2026-04-26T07:38:59.992Z</time></trkpt><trkpt lat="44.14224366336135" lon="11.150125322441545"><ele>722.0</ele><time>2026-04-26T07:39:00.992Z</time></trkpt><trkpt lat="44.14218883178271" lon="11.150261631684"><ele>723.0</ele><time>2026-04-26T07:39:01.992Z</time></trkpt><trkpt lat="44.142124260735315" lon="11.150368322730653"><ele>723.0</ele><time>2026-04-26T07:39:02.992Z</time></trkpt><trkpt lat="44.14205004733053" lon="11.150471613312297"><ele>723.0</ele><time>2026-04-26T07:39:03.992Z</time></trkpt><trkpt lat="44.141969896971226" lon="11.150575071590916"><ele>723.0</ele><time>2026-04-26T07:39:04.992Z</time></trkpt><trkpt lat="44.141890059175985" lon="11.15069098559964"><ele>723.0</ele><time>2026-04-26T07:39:05.992Z</time></trkpt><trkpt lat="44.1418081811115" lon="11.150807520114293"><ele>723.0</ele><time>2026-04-26T07:39:06.992Z</time></trkpt><trkpt lat="44.14174264968887" lon="11.15089759068246"><ele>720.3333333333334</ele><time>2026-04-26T07:39:07.992Z</time></trkpt><trkpt lat="44.141689301614385" lon="11.151000964965986"><ele>717.6666666666666</ele><time>2026-04-26T07:39:08.992Z</time></trkpt><trkpt lat="44.141651596760866" lon="11.151112342851663"><ele>715.0</ele><time>2026-04-26T07:39:09.992Z</time></trkpt><trkpt lat="44.14162773721771" lon="11.151237590519711"><ele>712.3333333333333</ele><time>2026-04-26T07:39:10.992Z</time></trkpt><trkpt lat="44.14162400136945" lon="11.151345158705166"><ele>709.6666666666666</ele><time>2026-04-26T07:39:11.992Z</time></trkpt><trkpt lat="44.141642092479806" lon="11.151440521761742"><ele>707.0</ele><time>2026-04-26T07:39:12.992Z</time></trkpt><trkpt lat="44.14165199411496" lon="11.151536053791416"><ele>705.4000000000001</ele><time>2026-04-26T07:39:13.992Z</time></trkpt><trkpt lat="44.14165473635344" lon="11.151692856327521"><ele>703.8000000000001</ele><time>2026-04-26T07:39:15.992Z</time></trkpt><trkpt lat="44.1416345536626" lon="11.151848731042715"><ele>702.2</ele><time>2026-04-26T07:39:17.992Z</time></trkpt><trkpt lat="44.14162901696209" lon="11.151943960246442"><ele>700.6</ele><time>2026-04-26T07:39:18.992Z</time></trkpt><trkpt lat="44.14160670775736" lon="11.152048525380938"><ele>699.0</ele><time>2026-04-26T07:39:19.992Z</time></trkpt><trkpt lat="44.141588195283624" lon="11.15217371524153"><ele>699.0</ele><time>2026-04-26T07:39:20.992Z</time></trkpt><trkpt lat="44.14156988992488" lon="11.152299172297838"><ele>699.0</ele><time>2026-04-26T07:39:21.992Z</time></trkpt><trkpt lat="44.14155615562326" lon="11.152441709806155"><ele>699.0</ele><time>2026-04-26T07:39:22.992Z</time></trkpt><trkpt lat="44.14152937952882" lon="11.152569112404045"><ele>699.0</ele><time>2026-04-26T07:39:23.992Z</time></trkpt><trkpt lat="44.14148778862635" lon="11.152714182210662"><ele>699.0</ele><time>2026-04-26T07:39:24.992Z</time></trkpt><trkpt lat="44.14144485103623" lon="11.152856037454901"><ele>705.0</ele><time>2026-04-26T07:39:25.992Z</time></trkpt><trkpt lat="44.14138993553624" lon="11.153003739079798"><ele>711.0</ele><time>2026-04-26T07:39:26.992Z</time></trkpt><trkpt lat="44.14133337380071" lon="11.153158255511443"><ele>717.0</ele><time>2026-04-26T07:39:27.992Z</time></trkpt><trkpt lat="44.14127397588794" lon="11.15329286789543"><ele>723.0</ele><time>2026-04-26T07:39:28.992Z</time></trkpt><trkpt lat="44.14121394479386" lon="11.15343250694011"><ele>723.0</ele><time>2026-04-26T07:39:29.992Z</time></trkpt><trkpt lat="44.14115673042647" lon="11.15356375578917"><ele>723.0</ele><time>2026-04-26T07:39:30.992Z</time></trkpt><trkpt lat="44.14112485132021" lon="11.153680421314697"><ele>723.0</ele><time>2026-04-26T07:39:31.992Z</time></trkpt><trkpt lat="44.14109011150287" lon="11.15376881481539"><ele>723.0</ele><time>2026-04-26T07:39:32.992Z</time></trkpt><trkpt lat="44.141049171963715" lon="11.153865979016928"><ele>723.0</ele><time>2026-04-26T07:39:33.992Z</time></trkpt><trkpt lat="44.1410122551623" lon="11.153984762807067"><ele>723.0</ele><time>2026-04-26T07:39:34.992Z</time></trkpt><trkpt lat="44.14097072071961" lon="11.154114928558066"><ele>720.75</ele><time>2026-04-26T07:39:35.992Z</time></trkpt><trkpt lat="44.14091881327698" lon="11.154254764584397"><ele>718.5</ele><time>2026-04-26T07:39:36.992Z</time></trkpt><trkpt lat="44.14086314308184" lon="11.154402469406929"><ele>716.25</ele><time>2026-04-26T07:39:37.992Z</time></trkpt><trkpt lat="44.14079728326308" lon="11.15455331930851"><ele>714.0</ele><time>2026-04-26T07:39:38.992Z</time></trkpt><trkpt lat="44.140745129510655" lon="11.154714621216588"><ele>722.75</ele><time>2026-04-26T07:39:39.992Z</time></trkpt><trkpt lat="44.14068867285691" lon="11.154874439965461"><ele>731.5</ele><time>2026-04-26T07:39:40.992Z</time></trkpt><trkpt lat="44.140638827315776" lon="11.155024223332502"><ele>740.25</ele><time>2026-04-26T07:39:41.992Z</time></trkpt><trkpt lat="44.14060427550756" lon="11.155173296177425"><ele>749.0</ele><time>2026-04-26T07:39:42.991Z</time></trkpt><trkpt lat="44.14057873009246" lon="11.155325640322202"><ele>749.0</ele><time>2026-04-26T07:39:43.991Z</time></trkpt><trkpt lat="44.14055221766452" lon="11.155479288453325"><ele>749.0</ele><time>2026-04-26T07:39:44.991Z</time></trkpt><trkpt lat="44.140515107090856" lon="11.155651237705163"><ele>749.0</ele><time>2026-04-26T07:39:45.991Z</time></trkpt><trkpt lat="44.140473677813" lon="11.155832405461737"><ele>749.0</ele><time>2026-04-26T07:39:46.991Z</time></trkpt><trkpt lat="44.1404416594124" lon="11.156030489225602"><ele>747.8000000000001</ele><time>2026-04-26T07:39:47.991Z</time></trkpt><trkpt lat="44.14039222475028" lon="11.156192204683908"><ele>746.6</ele><time>2026-04-26T07:39:48.992Z</time></trkpt><trkpt lat="44.14038293733941" lon="11.15631251845486"><ele>745.4</ele><time>2026-04-26T07:39:49.992Z</time></trkpt><trkpt lat="44.14037905114406" lon="11.156417752735235"><ele>744.2</ele><time>2026-04-26T07:39:50.992Z</time></trkpt><trkpt lat="44.14040235440305" lon="11.156515962359423"><ele>743.0</ele><time>2026-04-26T07:39:51.992Z</time></trkpt><trkpt lat="44.140450273959054" lon="11.156625429359737"><ele>741.5999999999999</ele><time>2026-04-26T07:39:52.992Z</time></trkpt><trkpt lat="44.140516421456674" lon="11.15672700898828"><ele>740.1999999999999</ele><time>2026-04-26T07:39:53.992Z</time></trkpt><trkpt lat="44.14056561371293" lon="11.156843446869807"><ele>738.8</ele><time>2026-04-26T07:39:54.992Z</time></trkpt><trkpt lat="44.14060755851099" lon="11.156997742602968"><ele>737.4</ele><time>2026-04-26T07:39:55.992Z</time></trkpt><trkpt lat="44.140631216211375" lon="11.157169633440805"><ele>736.0</ele><time>2026-04-26T07:39:56.992Z</time></trkpt><trkpt lat="44.140665419209014" lon="11.157338806592366"><ele>728.25</ele><time>2026-04-26T07:39:57.992Z</time></trkpt><trkpt lat="44.14072659322957" lon="11.157506364875326"><ele>720.5</ele><time>2026-04-26T07:39:58.992Z</time></trkpt><trkpt lat="44.14080899376833" lon="11.157687581342163"><ele>712.75</ele><time>2026-04-26T07:39:59.992Z</time></trkpt><trkpt lat="44.14088458774627" lon="11.157848155300805"><ele>705.0</ele><time>2026-04-26T07:40:00.992Z</time></trkpt><trkpt lat="44.14094368644441" lon="11.157997688726633"><ele>705.0</ele><time>2026-04-26T07:40:01.992Z</time></trkpt><trkpt lat="44.14099204916653" lon="11.158129080144628"><ele>705.0</ele><time>2026-04-26T07:40:02.992Z</time></trkpt><trkpt lat="44.14102447132433" lon="11.158280581009187"><ele>705.0</ele><time>2026-04-26T07:40:03.992Z</time></trkpt><trkpt lat="44.141026930409076" lon="11.158454995479586"><ele>705.0</ele><time>2026-04-26T07:40:04.992Z</time></trkpt><trkpt lat="44.14102015753906" lon="11.158634002681719"><ele>707.25</ele><time>2026-04-26T07:40:05.992Z</time></trkpt><trkpt lat="44.14100940470126" lon="11.158818379776529"><ele>709.5</ele><time>2026-04-26T07:40:06.992Z</time></trkpt><trkpt lat="44.141006610977364" lon="11.15900132080074"><ele>711.75</ele><time>2026-04-26T07:40:07.992Z</time></trkpt><trkpt lat="44.14100288897135" lon="11.159149464514352"><ele>714.0</ele><time>2026-04-26T07:40:08.992Z</time></trkpt><trkpt lat="44.14103160263565" lon="11.159286813103941"><ele>714.75</ele><time>2026-04-26T07:40:09.992Z</time></trkpt><trkpt lat="44.14110128166269" lon="11.159407711601993"><ele>715.5</ele><time>2026-04-26T07:40:10.992Z</time></trkpt><trkpt lat="44.141194120867574" lon="11.159510343708524"><ele>716.25</ele><time>2026-04-26T07:40:11.992Z</time></trkpt><trkpt lat="44.141312514643076" lon="11.159598750305458"><ele>717.0</ele><time>2026-04-26T07:40:12.992Z</time></trkpt><trkpt lat="44.141425159181196" lon="11.159677188197763"><ele>717.0</ele><time>2026-04-26T07:40:13.992Z</time></trkpt><trkpt lat="44.141538456979276" lon="11.15978781122554"><ele>717.0</ele><time>2026-04-26T07:40:14.992Z</time></trkpt><trkpt lat="44.141638105770326" lon="11.159913593477327"><ele>717.0</ele><time>2026-04-26T07:40:15.992Z</time></trkpt><trkpt lat="44.14169623126517" lon="11.160056381669389"><ele>717.0</ele><time>2026-04-26T07:40:16.992Z</time></trkpt><trkpt lat="44.14174842780968" lon="11.160181230864982"><ele>717.1666666666666</ele><time>2026-04-26T07:40:17.992Z</time></trkpt><trkpt lat="44.14173322259914" lon="11.160326029331474"><ele>717.3333333333334</ele><time>2026-04-26T07:40:19.992Z</time></trkpt><trkpt lat="44.14171323787594" lon="11.160409607982663"><ele>717.5</ele><time>2026-04-26T07:40:20.992Z</time></trkpt><trkpt lat="44.141682091068716" lon="11.160499047244652"><ele>717.6666666666667</ele><time>2026-04-26T07:40:21.992Z</time></trkpt><trkpt lat="44.14164364336832" lon="11.160608503817897"><ele>717.8333333333334</ele><time>2026-04-26T07:40:22.992Z</time></trkpt><trkpt lat="44.14158797778441" lon="11.160736022514008"><ele>718.0</ele><time>2026-04-26T07:40:23.992Z</time></trkpt><trkpt lat="44.14152468785656" lon="11.160907778955915"><ele>720.25</ele><time>2026-04-26T07:40:24.992Z</time></trkpt><trkpt lat="44.141463075645994" lon="11.161072408522708"><ele>722.5</ele><time>2026-04-26T07:40:25.992Z</time></trkpt><trkpt lat="44.141403832533896" lon="11.161243852355963"><ele>724.75</ele><time>2026-04-26T07:40:26.992Z</time></trkpt><trkpt lat="44.14133932596958" lon="11.161417069988852"><ele>727.0</ele><time>2026-04-26T07:40:27.992Z</time></trkpt><trkpt lat="44.141274124331744" lon="11.161600719730252"><ele>727.3333333333334</ele><time>2026-04-26T07:40:28.992Z</time></trkpt><trkpt lat="44.1412076784147" lon="11.161792445478515"><ele>727.6666666666666</ele><time>2026-04-26T07:40:29.992Z</time></trkpt><trkpt lat="44.14113317913827" lon="11.161980102149583"><ele>728.0</ele><time>2026-04-26T07:40:30.992Z</time></trkpt><trkpt lat="44.14105066165205" lon="11.162170781166806"><ele>726.3333333333333</ele><time>2026-04-26T07:40:31.992Z</time></trkpt><trkpt lat="44.14096344080584" lon="11.16237061997349"><ele>724.6666666666666</ele><time>2026-04-26T07:40:32.992Z</time></trkpt><trkpt lat="44.14086847246612" lon="11.16256987362878"><ele>723.0</ele><time>2026-04-26T07:40:33.992Z</time></trkpt><trkpt lat="44.140776043134416" lon="11.162752976471234"><ele>724.25</ele><time>2026-04-26T07:40:34.992Z</time></trkpt><trkpt lat="44.140690736898485" lon="11.16291081153445"><ele>725.5</ele><time>2026-04-26T07:40:35.992Z</time></trkpt><trkpt lat="44.14061667386877" lon="11.163064701674704"><ele>726.75</ele><time>2026-04-26T07:40:36.992Z</time></trkpt><trkpt lat="44.14055281798002" lon="11.163218764803995"><ele>728.0</ele><time>2026-04-26T07:40:37.992Z</time></trkpt><trkpt lat="44.14049866635608" lon="11.163376042571537"><ele>728.0</ele><time>2026-04-26T07:40:38.992Z</time></trkpt><trkpt lat="44.14045138171302" lon="11.16354249981738"><ele>728.0</ele><time>2026-04-26T07:40:39.992Z</time></trkpt><trkpt lat="44.14041944889682" lon="11.163717823586465"><ele>728.0</ele><time>2026-04-26T07:40:40.992Z</time></trkpt><trkpt lat="44.140402472180995" lon="11.16390467567502"><ele>728.0</ele><time>2026-04-26T07:40:41.992Z</time></trkpt><trkpt lat="44.140391037370044" lon="11.164110620354062"><ele>728.0</ele><time>2026-04-26T07:40:42.992Z</time></trkpt><trkpt lat="44.140380771454346" lon="11.164316771737854"><ele>728.0</ele><time>2026-04-26T07:40:43.992Z</time></trkpt><trkpt lat="44.140363260219424" lon="11.164532842351306"><ele>728.0</ele><time>2026-04-26T07:40:44.992Z</time></trkpt><trkpt lat="44.140354659789" lon="11.164749070792187"><ele>728.0</ele><time>2026-04-26T07:40:45.992Z</time></trkpt><trkpt lat="44.14035056544544" lon="11.164951760579585"><ele>728.0</ele><time>2026-04-26T07:40:46.992Z</time></trkpt><trkpt lat="44.14033530129631" lon="11.165151793155882"><ele>728.0</ele><time>2026-04-26T07:40:47.992Z</time></trkpt><trkpt lat="44.140327639613744" lon="11.165362174757947"><ele>728.0</ele><time>2026-04-26T07:40:48.992Z</time></trkpt><trkpt lat="44.14031446821277" lon="11.165585164829569"><ele>728.25</ele><time>2026-04-26T07:40:49.992Z</time></trkpt><trkpt lat="44.14030334228997" lon="11.16578707174353"><ele>728.5</ele><time>2026-04-26T07:40:50.992Z</time></trkpt><trkpt lat="44.140306864554226" lon="11.165976983670706"><ele>728.75</ele><time>2026-04-26T07:40:51.992Z</time></trkpt><trkpt lat="44.14031501831943" lon="11.166147852444862"><ele>729.0</ele><time>2026-04-26T07:40:52.992Z</time></trkpt><trkpt lat="44.14033100209381" lon="11.166288057371455"><ele>729.0</ele><time>2026-04-26T07:40:53.992Z</time></trkpt><trkpt lat="44.14037777966872" lon="11.16642007378025"><ele>729.0</ele><time>2026-04-26T07:40:54.992Z</time></trkpt><trkpt lat="44.14043444497061" lon="11.16652130467619"><ele>729.0</ele><time>2026-04-26T07:40:55.992Z</time></trkpt><trkpt lat="44.14050463646809" lon="11.166621451862104"><ele>729.0</ele><time>2026-04-26T07:40:56.992Z</time></trkpt><trkpt lat="44.140562466300715" lon="11.166710416487813"><ele>729.0</ele><time>2026-04-26T07:40:57.992Z</time></trkpt><trkpt lat="44.140602772986725" lon="11.166830679950808"><ele>728.5</ele><time>2026-04-26T07:40:58.992Z</time></trkpt><trkpt lat="44.140646582347706" lon="11.166972812353393"><ele>728.0</ele><time>2026-04-26T07:40:59.992Z</time></trkpt><trkpt lat="44.14071104068957" lon="11.167114001001568"><ele>727.5</ele><time>2026-04-26T07:41:00.992Z</time></trkpt><trkpt lat="44.140782759320075" lon="11.167275445657163"><ele>727.0</ele><time>2026-04-26T07:41:01.992Z</time></trkpt><trkpt lat="44.14087326955856" lon="11.167433331664817"><ele>725.25</ele><time>2026-04-26T07:41:02.992Z</time></trkpt><trkpt lat="44.14098038132933" lon="11.167560154120414"><ele>723.5</ele><time>2026-04-26T07:41:03.992Z</time></trkpt><trkpt lat="44.141096161256165" lon="11.167664330373736"><ele>721.75</ele><time>2026-04-26T07:41:04.992Z</time></trkpt><trkpt lat="44.14121663447493" lon="11.167724160282853"><ele>720.0</ele><time>2026-04-26T07:41:05.992Z</time></trkpt><trkpt lat="44.14131693101207" lon="11.167761387878851"><ele>720.0</ele><time>2026-04-26T07:41:06.992Z</time></trkpt><trkpt lat="44.14141577032268" lon="11.167783207491976"><ele>720.0</ele><time>2026-04-26T07:41:07.992Z</time></trkpt><trkpt lat="44.141506139585694" lon="11.167847296172258"><ele>720.0</ele><time>2026-04-26T07:41:08.992Z</time></trkpt><trkpt lat="44.1415673363087" lon="11.167981215004875"><ele>720.0</ele><time>2026-04-26T07:41:09.992Z</time></trkpt><trkpt lat="44.14163679676144" lon="11.16813510284874"><ele>720.0</ele><time>2026-04-26T07:41:10.992Z</time></trkpt><trkpt lat="44.14170835157308" lon="11.168295812850872"><ele>721.0</ele><time>2026-04-26T07:41:11.992Z</time></trkpt><trkpt lat="44.14178171579134" lon="11.168451354175025"><ele>722.0</ele><time>2026-04-26T07:41:12.992Z</time></trkpt><trkpt lat="44.14186017298804" lon="11.16862679155043"><ele>723.0</ele><time>2026-04-26T07:41:13.992Z</time></trkpt><trkpt lat="44.141939005078214" lon="11.168808003132966"><ele>724.0</ele><time>2026-04-26T07:41:14.992Z</time></trkpt><trkpt lat="44.142015127822276" lon="11.168995477434853"><ele>726.0</ele><time>2026-04-26T07:41:15.992Z</time></trkpt><trkpt lat="44.142091688897196" lon="11.169155001622523"><ele>728.0</ele><time>2026-04-26T07:41:16.992Z</time></trkpt><trkpt lat="44.1421685365021" lon="11.169305939157105"><ele>730.0</ele><time>2026-04-26T07:41:17.992Z</time></trkpt><trkpt lat="44.142208563409795" lon="11.169452142345142"><ele>732.0</ele><time>2026-04-26T07:41:18.992Z</time></trkpt><trkpt lat="44.142221215826225" lon="11.169608269323788"><ele>732.0</ele><time>2026-04-26T07:41:19.992Z</time></trkpt><trkpt lat="44.14222231231008" lon="11.1697974455981"><ele>732.0</ele><time>2026-04-26T07:41:20.992Z</time></trkpt><trkpt lat="44.1422184624297" lon="11.169989432711827"><ele>732.0</ele><time>2026-04-26T07:41:21.992Z</time></trkpt><trkpt lat="44.14222497170775" lon="11.170177701779478"><ele>732.0</ele><time>2026-04-26T07:41:22.992Z</time></trkpt><trkpt lat="44.14221368048476" lon="11.170322260714512"><ele>733.2</ele><time>2026-04-26T07:41:23.992Z</time></trkpt><trkpt lat="44.14218323987887" lon="11.170436908190593"><ele>734.4000000000001</ele><time>2026-04-26T07:41:24.992Z</time></trkpt><trkpt lat="44.14210938383132" lon="11.170517185390013"><ele>735.5999999999999</ele><time>2026-04-26T07:41:25.992Z</time></trkpt><trkpt lat="44.142004252246245" lon="11.170555229403895"><ele>736.8</ele><time>2026-04-26T07:41:26.992Z</time></trkpt><trkpt lat="44.14187986083955" lon="11.170555502494269"><ele>738.0</ele><time>2026-04-26T07:41:27.992Z</time></trkpt><trkpt lat="44.141750249883415" lon="11.170581467815758"><ele>738.0</ele><time>2026-04-26T07:41:28.992Z</time></trkpt><trkpt lat="44.14163496740201" lon="11.17064365525812"><ele>738.0</ele><time>2026-04-26T07:41:29.992Z</time></trkpt><trkpt lat="44.141522984522986" lon="11.170760833180807"><ele>738.0</ele><time>2026-04-26T07:41:30.992Z</time></trkpt><trkpt lat="44.141425293542696" lon="11.170912578985202"><ele>738.0</ele><time>2026-04-26T07:41:31.992Z</time></trkpt><trkpt lat="44.1413469017114" lon="11.171022566942332"><ele>739.0</ele><time>2026-04-26T07:41:32.992Z</time></trkpt><trkpt lat="44.141244273300984" lon="11.171131913812127"><ele>740.0</ele><time>2026-04-26T07:41:33.992Z</time></trkpt><trkpt lat="44.141120885905615" lon="11.171226594941638"><ele>741.0</ele><time>2026-04-26T07:41:34.992Z</time></trkpt><trkpt lat="44.14099373125238" lon="11.171304834639791"><ele>742.0</ele><time>2026-04-26T07:41:35.992Z</time></trkpt><trkpt lat="44.14084727733029" lon="11.171388955292528"><ele>741.6666666666667</ele><time>2026-04-26T07:41:36.992Z</time></trkpt><trkpt lat="44.14069866718876" lon="11.171452952013144"><ele>741.3333333333334</ele><time>2026-04-26T07:41:37.992Z</time></trkpt><trkpt lat="44.14055459621385" lon="11.171533203597964"><ele>741.0</ele><time>2026-04-26T07:41:38.992Z</time></trkpt><trkpt lat="44.14042351023392" lon="11.171639468058029"><ele>741.0</ele><time>2026-04-26T07:41:39.992Z</time></trkpt><trkpt lat="44.140322907811274" lon="11.1717591532325"><ele>741.0</ele><time>2026-04-26T07:41:40.992Z</time></trkpt><trkpt lat="44.140242930853994" lon="11.171917177673269"><ele>741.0</ele><time>2026-04-26T07:41:41.992Z</time></trkpt><trkpt lat="44.14017682278803" lon="11.17210547399595"><ele>741.0</ele><time>2026-04-26T07:41:42.992Z</time></trkpt><trkpt lat="44.14011231654129" lon="11.172310728949668"><ele>738.0</ele><time>2026-04-26T07:41:43.992Z</time></trkpt><trkpt lat="44.1400061269662" lon="11.172471723742342"><ele>735.0</ele><time>2026-04-26T07:41:44.992Z</time></trkpt><trkpt lat="44.13987417987685" lon="11.172598938775682"><ele>732.0</ele><time>2026-04-26T07:41:45.992Z</time></trkpt><trkpt lat="44.13972392917461" lon="11.17268372442923"><ele>732.0</ele><time>2026-04-26T07:41:46.992Z</time></trkpt><trkpt lat="44.13959808219492" lon="11.172775117021132"><ele>732.0</ele><time>2026-04-26T07:41:47.992Z</time></trkpt><trkpt lat="44.139497559041715" lon="11.17285086224267"><ele>732.0</ele><time>2026-04-26T07:41:48.991Z</time></trkpt><trkpt lat="44.139393674028945" lon="11.172861018185753"><ele>732.0</ele><time>2026-04-26T07:41:49.991Z</time></trkpt><trkpt lat="44.13929676498564" lon="11.172810012320355"><ele>732.0</ele><time>2026-04-26T07:41:50.992Z</time></trkpt><trkpt lat="44.13921734179111" lon="11.172716350961629"><ele>732.0</ele><time>2026-04-26T07:41:51.993Z</time></trkpt><trkpt lat="44.13914267975374" lon="11.172591097776714"><ele>732.0</ele><time>2026-04-26T07:41:52.993Z</time></trkpt><trkpt lat="44.139061593043486" lon="11.172449539286838"><ele>732.0</ele><time>2026-04-26T07:41:53.994Z</time></trkpt><trkpt lat="44.13896476925237" lon="11.172303225952769"><ele>733.6666666666666</ele><time>2026-04-26T07:41:54.994Z</time></trkpt><trkpt lat="44.138870804742844" lon="11.172144763159801"><ele>735.3333333333333</ele><time>2026-04-26T07:41:55.994Z</time></trkpt><trkpt lat="44.13878250244825" lon="11.17196320513235"><ele>737.0</ele><time>2026-04-26T07:41:56.995Z</time></trkpt><trkpt lat="44.138691977579036" lon="11.171786267098526"><ele>737.0</ele><time>2026-04-26T07:41:57.995Z</time></trkpt><trkpt lat="44.13859372895301" lon="11.171640154696108"><ele>737.0</ele><time>2026-04-26T07:41:58.996Z</time></trkpt><trkpt lat="44.13847524022946" lon="11.17152600194727"><ele>737.0</ele><time>2026-04-26T07:41:59.996Z</time></trkpt><trkpt lat="44.138345974308834" lon="11.171451736458213"><ele>737.0</ele><time>2026-04-26T07:42:00.996Z</time></trkpt><trkpt lat="44.13819324874372" lon="11.171408719457556"><ele>738.75</ele><time>2026-04-26T07:42:01.996Z</time></trkpt><trkpt lat="44.138054403640645" lon="11.171364122420645"><ele>740.5</ele><time>2026-04-26T07:42:02.997Z</time></trkpt><trkpt lat="44.137938180432755" lon="11.171331125642432"><ele>742.25</ele><time>2026-04-26T07:42:03.997Z</time></trkpt><trkpt lat="44.13784892998015" lon="11.171215910117294"><ele>744.0</ele><time>2026-04-26T07:42:04.997Z</time></trkpt><trkpt lat="44.13779169831152" lon="11.171037957346565"><ele>744.0</ele><time>2026-04-26T07:42:05.997Z</time></trkpt><trkpt lat="44.13773306459665" lon="11.170862531384957"><ele>744.0</ele><time>2026-04-26T07:42:06.998Z</time></trkpt><trkpt lat="44.1376555878997" lon="11.170712683538666"><ele>744.0</ele><time>2026-04-26T07:42:07.998Z</time></trkpt><trkpt lat="44.13755005869128" lon="11.170593953162438"><ele>744.0</ele><time>2026-04-26T07:42:08.998Z</time></trkpt><trkpt lat="44.137410771402045" lon="11.170519641993792"><ele>749.0</ele><time>2026-04-26T07:42:09.998Z</time></trkpt><trkpt lat="44.137267300377566" lon="11.170492122173444"><ele>754.0</ele><time>2026-04-26T07:42:10.998Z</time></trkpt><trkpt lat="44.13711245320886" lon="11.17051867030219"><ele>759.0</ele><time>2026-04-26T07:42:11.999Z</time></trkpt><trkpt lat="44.13694296244241" lon="11.170542662307291"><ele>759.0</ele><time>2026-04-26T07:42:12.999Z</time></trkpt><trkpt lat="44.13678686963415" lon="11.17051470610652"><ele>759.0</ele><time>2026-04-26T07:42:13.999Z</time></trkpt><trkpt lat="44.136653587110956" lon="11.170472463463573"><ele>759.0</ele><time>2026-04-26T07:42:14.999Z</time></trkpt><trkpt lat="44.13653627576301" lon="11.17038809917188"><ele>759.0</ele><time>2026-04-26T07:42:15.999Z</time></trkpt><trkpt lat="44.13641775652941" lon="11.170278469069098"><ele>759.75</ele><time>2026-04-26T07:42:16.999Z</time></trkpt><trkpt lat="44.13630387693392" lon="11.170173845738631"><ele>760.5</ele><time>2026-04-26T07:42:17.999Z</time></trkpt><trkpt lat="44.136176249023535" lon="11.170088475678522"><ele>761.25</ele><time>2026-04-26T07:42:18.999Z</time></trkpt><trkpt lat="44.13603450846912" lon="11.170044441908685"><ele>762.0</ele><time>2026-04-26T07:42:19.999Z</time></trkpt><trkpt lat="44.13588628535898" lon="11.170033683517747"><ele>762.0</ele><time>2026-04-26T07:42:21Z</time></trkpt><trkpt lat="44.13575231644324" lon="11.170045555717943"><ele>762.0</ele><time>2026-04-26T07:42:22Z</time></trkpt><trkpt lat="44.135627799011" lon="11.170077609430704"><ele>762.0</ele><time>2026-04-26T07:42:23Z</time></trkpt><trkpt lat="44.1355092645974" lon="11.17012154207306"><ele>762.0</ele><time>2026-04-26T07:42:24Z</time></trkpt><trkpt lat="44.13539328527579" lon="11.170211542173083"><ele>771.3333333333333</ele><time>2026-04-26T07:42:25Z</time></trkpt><trkpt lat="44.13526359432982" lon="11.170324527654547"><ele>780.6666666666666</ele><time>2026-04-26T07:42:26Z</time></trkpt><trkpt lat="44.135140894008195" lon="11.170479344624578"><ele>790.0</ele><time>2026-04-26T07:42:27Z</time></trkpt><trkpt lat="44.135024124676626" lon="11.170627321172569"><ele>781.0</ele><time>2026-04-26T07:42:28Z</time></trkpt><trkpt lat="44.13489352359123" lon="11.170725974588988"><ele>772.0</ele><time>2026-04-26T07:42:29Z</time></trkpt><trkpt lat="44.13477089634522" lon="11.17076961408427"><ele>763.0</ele><time>2026-04-26T07:42:30Z</time></trkpt><trkpt lat="44.13465532838497" lon="11.170779269556308"><ele>754.0</ele><time>2026-04-26T07:42:31Z</time></trkpt><trkpt lat="44.1345452970521" lon="11.170715066849889"><ele>763.25</ele><time>2026-04-26T07:42:32Z</time></trkpt><trkpt lat="44.13443487429929" lon="11.170605178940772"><ele>772.5</ele><time>2026-04-26T07:42:33Z</time></trkpt><trkpt lat="44.13432352633011" lon="11.170447759840119"><ele>781.75</ele><time>2026-04-26T07:42:34Z</time></trkpt><trkpt lat="44.13421053887091" lon="11.17031964115919"><ele>791.0</ele><time>2026-04-26T07:42:35Z</time></trkpt><trkpt lat="44.134089585945155" lon="11.170196421495445"><ele>790.5</ele><time>2026-04-26T07:42:36Z</time></trkpt><trkpt lat="44.13397497666529" lon="11.17014680999422"><ele>790.0</ele><time>2026-04-26T07:42:37Z</time></trkpt><trkpt lat="44.13385352132697" lon="11.170149831805514"><ele>789.5</ele><time>2026-04-26T07:42:38Z</time></trkpt><trkpt lat="44.133721814560374" lon="11.17019090296919"><ele>789.0</ele><time>2026-04-26T07:42:39.001Z</time></trkpt><trkpt lat="44.133595130828986" lon="11.17030476737594"><ele>789.0</ele><time>2026-04-26T07:42:40.001Z</time></trkpt><trkpt lat="44.133472365835274" lon="11.170413171795404"><ele>789.0</ele><time>2026-04-26T07:42:41.001Z</time></trkpt><trkpt lat="44.133365257551" lon="11.170483690275749"><ele>789.0</ele><time>2026-04-26T07:42:42.001Z</time></trkpt><trkpt lat="44.13324355686315" lon="11.170515393418981"><ele>789.0</ele><time>2026-04-26T07:42:43.001Z</time></trkpt><trkpt lat="44.133138234658865" lon="11.17044307470107"><ele>787.75</ele><time>2026-04-26T07:42:44.001Z</time></trkpt><trkpt lat="44.1330238273663" lon="11.170316875480415"><ele>786.5</ele><time>2026-04-26T07:42:45.001Z</time></trkpt><trkpt lat="44.13292197396083" lon="11.170178635773826"><ele>785.25</ele><time>2026-04-26T07:42:46.001Z</time></trkpt><trkpt lat="44.13282587029929" lon="11.170096620191885"><ele>784.0</ele><time>2026-04-26T07:42:47.001Z</time></trkpt><trkpt lat="44.13271337893695" lon="11.170069554919683"><ele>784.0</ele><time>2026-04-26T07:42:48.001Z</time></trkpt><trkpt lat="44.132598819261545" lon="11.170115519153708"><ele>784.0</ele><time>2026-04-26T07:42:49.001Z</time></trkpt><trkpt lat="44.13248525287584" lon="11.1702308403946"><ele>784.0</ele><time>2026-04-26T07:42:50.001Z</time></trkpt><trkpt lat="44.132374052787036" lon="11.170342666172306"><ele>784.0</ele><time>2026-04-26T07:42:51.001Z</time></trkpt><trkpt lat="44.13224249506693" lon="11.17034500703579"><ele>784.5</ele><time>2026-04-26T07:42:52.001Z</time></trkpt><trkpt lat="44.13212235103231" lon="11.170348840386211"><ele>785.0</ele><time>2026-04-26T07:42:53.001Z</time></trkpt><trkpt lat="44.1319946977699" lon="11.170246664874503"><ele>785.5</ele><time>2026-04-26T07:42:54.001Z</time></trkpt><trkpt lat="44.1318629872748" lon="11.17011588157483"><ele>786.0</ele><time>2026-04-26T07:42:55.001Z</time></trkpt><trkpt lat="44.131712358239625" lon="11.170089760490232"><ele>789.6666666666667</ele><time>2026-04-26T07:42:56.001Z</time></trkpt><trkpt lat="44.131544395673494" lon="11.170123122740153"><ele>793.3333333333334</ele><time>2026-04-26T07:42:57.001Z</time></trkpt><trkpt lat="44.13136863744845" lon="11.170193272343816"><ele>797.0</ele><time>2026-04-26T07:42:58.001Z</time></trkpt><trkpt lat="44.131203800597476" lon="11.170265188840283"><ele>797.0</ele><time>2026-04-26T07:42:59.001Z</time></trkpt><trkpt lat="44.13104740805842" lon="11.170376252577494"><ele>797.0</ele><time>2026-04-26T07:43:00.001Z</time></trkpt><trkpt lat="44.13090165650701" lon="11.170502229876144"><ele>797.0</ele><time>2026-04-26T07:43:01.001Z</time></trkpt><trkpt lat="44.130748101962126" lon="11.1706226022788"><ele>796.3333333333334</ele><time>2026-04-26T07:43:02.001Z</time></trkpt><trkpt lat="44.13060682947006" lon="11.170730773345168"><ele>795.6666666666667</ele><time>2026-04-26T07:43:03.001Z</time></trkpt><trkpt lat="44.13048825144275" lon="11.17085151428774"><ele>795.0</ele><time>2026-04-26T07:43:04.001Z</time></trkpt><trkpt lat="44.13036789156596" lon="11.170959643818085"><ele>795.0</ele><time>2026-04-26T07:43:05.001Z</time></trkpt><trkpt lat="44.130242256256196" lon="11.171057264609113"><ele>795.0</ele><time>2026-04-26T07:43:06.001Z</time></trkpt><trkpt lat="44.13014299500487" lon="11.171149052439812"><ele>795.0</ele><time>2026-04-26T07:43:07.001Z</time></trkpt><trkpt lat="44.13005915480857" lon="11.171253733039158"><ele>795.0</ele><time>2026-04-26T07:43:08.001Z</time></trkpt><trkpt lat="44.12998088915736" lon="11.171385626695674"><ele>791.75</ele><time>2026-04-26T07:43:09.001Z</time></trkpt><trkpt lat="44.12994173749755" lon="11.171564148702574"><ele>788.5</ele><time>2026-04-26T07:43:10.001Z</time></trkpt><trkpt lat="44.12990996842041" lon="11.171764644064423"><ele>785.25</ele><time>2026-04-26T07:43:11.001Z</time></trkpt><trkpt lat="44.12990645752718" lon="11.171930824198919"><ele>782.0</ele><time>2026-04-26T07:43:12.001Z</time></trkpt><trkpt lat="44.129890956630234" lon="11.172053749194554"><ele>781.1666666666667</ele><time>2026-04-26T07:43:13.001Z</time></trkpt><trkpt lat="44.12987377122161" lon="11.172161280257649"><ele>780.3333333333334</ele><time>2026-04-26T07:43:14.001Z</time></trkpt><trkpt lat="44.129856216102894" lon="11.172245884007102"><ele>779.5</ele><time>2026-04-26T07:43:15.001Z</time></trkpt><trkpt lat="44.129858087750925" lon="11.17237852877486"><ele>778.6666666666667</ele><time>2026-04-26T07:43:17.001Z</time></trkpt><trkpt lat="44.12986164103077" lon="11.172480253538396"><ele>777.8333333333334</ele><time>2026-04-26T07:43:19.001Z</time></trkpt><trkpt lat="44.129878452941156" lon="11.172587994274583"><ele>777.0</ele><time>2026-04-26T07:43:22.001Z</time></trkpt><trkpt lat="44.12992692145137" lon="11.172667064544852"><ele>777.0</ele><time>2026-04-26T07:43:39.001Z</time></trkpt><trkpt lat="44.12994607110402" lon="11.172802437933596"><ele>777.0</ele><time>2026-04-26T07:43:41.001Z</time></trkpt><trkpt lat="44.12996316175053" lon="11.172915732957915"><ele>777.0</ele><time>2026-04-26T07:43:42.001Z</time></trkpt><trkpt lat="44.12994250502565" lon="11.173021312100746"><ele>777.0</ele><time>2026-04-26T07:43:43.001Z</time></trkpt><trkpt lat="44.12988113663775" lon="11.173167046847775"><ele>777.0</ele><time>2026-04-26T07:43:44.001Z</time></trkpt><trkpt lat="44.129803913070724" lon="11.173305889192312"><ele>776.4000000000001</ele><time>2026-04-26T07:43:45.001Z</time></trkpt><trkpt lat="44.12973416464932" lon="11.173429787751502"><ele>775.8000000000001</ele><time>2026-04-26T07:43:46.001Z</time></trkpt><trkpt lat="44.12967978480982" lon="11.17354792174482"><ele>775.2</ele><time>2026-04-26T07:43:47.001Z</time></trkpt><trkpt lat="44.12963271303581" lon="11.17366765535522"><ele>774.6</ele><time>2026-04-26T07:43:48.001Z</time></trkpt><trkpt lat="44.12957004584583" lon="11.173755396941225"><ele>774.0</ele><time>2026-04-26T07:43:49.001Z</time></trkpt><trkpt lat="44.12949320311343" lon="11.173803467615935"><ele>774.0</ele><time>2026-04-26T07:43:50.001Z</time></trkpt><trkpt lat="44.12939865010084" lon="11.173782908538106"><ele>774.0</ele><time>2026-04-26T07:43:51.001Z</time></trkpt><trkpt lat="44.12933695139987" lon="11.173663665142007"><ele>774.0</ele><time>2026-04-26T07:43:52.001Z</time></trkpt><trkpt lat="44.129291740509196" lon="11.173523549539755"><ele>774.0</ele><time>2026-04-26T07:43:53.001Z</time></trkpt><trkpt lat="44.12923962721356" lon="11.17337348261262"><ele>774.0</ele><time>2026-04-26T07:43:54.001Z</time></trkpt><trkpt lat="44.12917921423603" lon="11.173212244745168"><ele>776.25</ele><time>2026-04-26T07:43:55.001Z</time></trkpt><trkpt lat="44.129097040379285" lon="11.17309200723624"><ele>778.5</ele><time>2026-04-26T07:43:56.001Z</time></trkpt><trkpt lat="44.12898886786954" lon="11.173026240415748"><ele>780.75</ele><time>2026-04-26T07:43:57.001Z</time></trkpt><trkpt lat="44.128844596935565" lon="11.172959920115039"><ele>783.0</ele><time>2026-04-26T07:43:58.001Z</time></trkpt><trkpt lat="44.12869729738164" lon="11.172922771834656"><ele>783.0</ele><time>2026-04-26T07:43:59.001Z</time></trkpt><trkpt lat="44.12854501047417" lon="11.172887253149486"><ele>783.0</ele><time>2026-04-26T07:44:00.001Z</time></trkpt><trkpt lat="44.128383861284476" lon="11.172842001364593"><ele>783.0</ele><time>2026-04-26T07:44:01.001Z</time></trkpt><trkpt lat="44.128243490614594" lon="11.172782525945369"><ele>775.5</ele><time>2026-04-26T07:44:02.001Z</time></trkpt><trkpt lat="44.128105044539474" lon="11.172701795221785"><ele>768.0</ele><time>2026-04-26T07:44:03.001Z</time></trkpt><trkpt lat="44.127984021095514" lon="11.172627942543956"><ele>760.5</ele><time>2026-04-26T07:44:04.001Z</time></trkpt><trkpt lat="44.12788049584298" lon="11.17253664784778"><ele>753.0</ele><time>2026-04-26T07:44:05.001Z</time></trkpt><trkpt lat="44.12778460801321" lon="11.172404548182003"><ele>762.75</ele><time>2026-04-26T07:44:06.001Z</time></trkpt><trkpt lat="44.127686319422494" lon="11.172253551802232"><ele>772.5</ele><time>2026-04-26T07:44:07.001Z</time></trkpt><trkpt lat="44.12759111193926" lon="11.17209257045383"><ele>782.25</ele><time>2026-04-26T07:44:08.001Z</time></trkpt><trkpt lat="44.1275019653975" lon="11.171950978296069"><ele>792.0</ele><time>2026-04-26T07:44:09.001Z</time></trkpt><trkpt lat="44.12739598688252" lon="11.171826473433063"><ele>787.25</ele><time>2026-04-26T07:44:10.001Z</time></trkpt><trkpt lat="44.12726746309266" lon="11.171742293291318"><ele>782.5</ele><time>2026-04-26T07:44:11.001Z</time></trkpt><trkpt lat="44.127132079333705" lon="11.171700041405657"><ele>777.75</ele><time>2026-04-26T07:44:12.001Z</time></trkpt><trkpt lat="44.12699592312547" lon="11.171710701152843"><ele>773.0</ele><time>2026-04-26T07:44:13.001Z</time></trkpt><trkpt lat="44.126866678837175" lon="11.17175203937255"><ele>773.0</ele><time>2026-04-26T07:44:14.001Z</time></trkpt><trkpt lat="44.126725468971095" lon="11.171804534244282"><ele>773.0</ele><time>2026-04-26T07:44:15.001Z</time></trkpt><trkpt lat="44.126582495926094" lon="11.171852958155524"><ele>773.0</ele><time>2026-04-26T07:44:16.001Z</time></trkpt><trkpt lat="44.12642533259622" lon="11.171856602223139"><ele>774.6666666666667</ele><time>2026-04-26T07:44:17.001Z</time></trkpt><trkpt lat="44.12625305305876" lon="11.171915812843269"><ele>776.3333333333333</ele><time>2026-04-26T07:44:18.001Z</time></trkpt><trkpt lat="44.12608011563941" lon="11.171952908196358"><ele>778.0</ele><time>2026-04-26T07:44:19.001Z</time></trkpt><trkpt lat="44.12590913132838" lon="11.172006066167125"><ele>778.0</ele><time>2026-04-26T07:44:20.001Z</time></trkpt><trkpt lat="44.1257527794862" lon="11.1720527139683"><ele>778.0</ele><time>2026-04-26T07:44:21.001Z</time></trkpt><trkpt lat="44.12560996192032" lon="11.172090259637137"><ele>778.0</ele><time>2026-04-26T07:44:22.001Z</time></trkpt><trkpt lat="44.12546505299559" lon="11.172099545245997"><ele>777.0</ele><time>2026-04-26T07:44:23.001Z</time></trkpt><trkpt lat="44.12530960337874" lon="11.172076601061352"><ele>776.0</ele><time>2026-04-26T07:44:24.001Z</time></trkpt><trkpt lat="44.1251464142541" lon="11.172003213708122"><ele>775.0</ele><time>2026-04-26T07:44:25.001Z</time></trkpt><trkpt lat="44.12497209986662" lon="11.171916228250568"><ele>768.0</ele><time>2026-04-26T07:44:26.001Z</time></trkpt><trkpt lat="44.12479308364203" lon="11.171818592998022"><ele>761.0</ele><time>2026-04-26T07:44:27.001Z</time></trkpt><trkpt lat="44.124606530036864" lon="11.17172835765418"><ele>754.0</ele><time>2026-04-26T07:44:28.001Z</time></trkpt><trkpt lat="44.12443267783072" lon="11.171625189292971"><ele>761.0</ele><time>2026-04-26T07:44:29.001Z</time></trkpt><trkpt lat="44.12426450249715" lon="11.171505122906453"><ele>768.0</ele><time>2026-04-26T07:44:30.001Z</time></trkpt><trkpt lat="44.124106004427496" lon="11.17137163786105"><ele>775.0</ele><time>2026-04-26T07:44:31.001Z</time></trkpt><trkpt lat="44.12396138777789" lon="11.17128271259076"><ele>775.0</ele><time>2026-04-26T07:44:32.001Z</time></trkpt><trkpt lat="44.12378112999621" lon="11.17124782611854"><ele>775.0</ele><time>2026-04-26T07:44:33.001Z</time></trkpt><trkpt lat="44.12359129112898" lon="11.17125396914075"><ele>775.0</ele><time>2026-04-26T07:44:34.001Z</time></trkpt><trkpt lat="44.12343695226894" lon="11.171236523844325"><ele>775.0</ele><time>2026-04-26T07:44:35.001Z</time></trkpt><trkpt lat="44.123281811510616" lon="11.17120231114146"><ele>775.0</ele><time>2026-04-26T07:44:36.001Z</time></trkpt><trkpt lat="44.12311480809004" lon="11.171142314428842"><ele>775.0</ele><time>2026-04-26T07:44:37.001Z</time></trkpt><trkpt lat="44.12295464381085" lon="11.171069313847136"><ele>770.5</ele><time>2026-04-26T07:44:38.001Z</time></trkpt><trkpt lat="44.12279655889634" lon="11.17103800525415"><ele>766.0</ele><time>2026-04-26T07:44:39.001Z</time></trkpt><trkpt lat="44.12265556307032" lon="11.171026139738183"><ele>761.5</ele><time>2026-04-26T07:44:40.001Z</time></trkpt><trkpt lat="44.12253439432988" lon="11.171014033474568"><ele>757.0</ele><time>2026-04-26T07:44:41.001Z</time></trkpt><trkpt lat="44.122416311211985" lon="11.170982457340934"><ele>753.5</ele><time>2026-04-26T07:44:42.001Z</time></trkpt><trkpt lat="44.122287552769215" lon="11.170910865026245"><ele>750.0</ele><time>2026-04-26T07:44:43.001Z</time></trkpt><trkpt lat="44.122173100472246" lon="11.170783475686848"><ele>746.5</ele><time>2026-04-26T07:44:44.001Z</time></trkpt><trkpt lat="44.12204736792385" lon="11.17064330874018"><ele>743.0</ele><time>2026-04-26T07:44:45.001Z</time></trkpt><trkpt lat="44.12193470292062" lon="11.1705280985738"><ele>743.0</ele><time>2026-04-26T07:44:46.001Z</time></trkpt><trkpt lat="44.12186172552833" lon="11.170432006845266"><ele>743.0</ele><time>2026-04-26T07:44:47.001Z</time></trkpt><trkpt lat="44.12181400602815" lon="11.17030690323132"><ele>743.0</ele><time>2026-04-26T07:44:48.001Z</time></trkpt><trkpt lat="44.1218226263721" lon="11.170157888340828"><ele>743.0</ele><time>2026-04-26T07:44:49.001Z</time></trkpt><trkpt lat="44.12181471776837" lon="11.1699799741155"><ele>743.0</ele><time>2026-04-26T07:44:50.001Z</time></trkpt><trkpt lat="44.121800709346665" lon="11.169782478835174"><ele>744.3333333333333</ele><time>2026-04-26T07:44:51.001Z</time></trkpt><trkpt lat="44.121746828779024" lon="11.169581615219771"><ele>745.6666666666666</ele><time>2026-04-26T07:44:52.001Z</time></trkpt><trkpt lat="44.12169008734999" lon="11.169387930138212"><ele>747.0</ele><time>2026-04-26T07:44:53.001Z</time></trkpt><trkpt lat="44.1216141788231" lon="11.169176603926031"><ele>742.75</ele><time>2026-04-26T07:44:54.001Z</time></trkpt><trkpt lat="44.12155790685599" lon="11.168969953211233"><ele>738.5</ele><time>2026-04-26T07:44:55.001Z</time></trkpt><trkpt lat="44.12150323522955" lon="11.168785276061959"><ele>734.25</ele><time>2026-04-26T07:44:56.001Z</time></trkpt><trkpt lat="44.12147088604718" lon="11.168613978679426"><ele>730.0</ele><time>2026-04-26T07:44:57.001Z</time></trkpt><trkpt lat="44.12145584882075" lon="11.168438622734094"><ele>730.0</ele><time>2026-04-26T07:44:58.001Z</time></trkpt><trkpt lat="44.12146099020911" lon="11.168236815763581"><ele>730.0</ele><time>2026-04-26T07:44:59.001Z</time></trkpt><trkpt lat="44.121473439447186" lon="11.168034540602893"><ele>730.0</ele><time>2026-04-26T07:45:00.001Z</time></trkpt><trkpt lat="44.12148012104958" lon="11.167858692047961"><ele>730.0</ele><time>2026-04-26T07:45:01.001Z</time></trkpt><trkpt lat="44.12145473313605" lon="11.167695818441155"><ele>730.0</ele><time>2026-04-26T07:45:02.001Z</time></trkpt><trkpt lat="44.12138888565492" lon="11.167546640909837"><ele>730.0</ele><time>2026-04-26T07:45:03.001Z</time></trkpt><trkpt lat="44.12129311501415" lon="11.167405148152609"><ele>730.0</ele><time>2026-04-26T07:45:04.001Z</time></trkpt><trkpt lat="44.121190025331444" lon="11.167273726806604"><ele>730.0</ele><time>2026-04-26T07:45:05.001Z</time></trkpt><trkpt lat="44.121099151545245" lon="11.167144808299334"><ele>731.5</ele><time>2026-04-26T07:45:06.001Z</time></trkpt><trkpt lat="44.121038540685596" lon="11.167009661588343"><ele>733.0</ele><time>2026-04-26T07:45:07.001Z</time></trkpt><trkpt lat="44.1210518337078" lon="11.166855632692753"><ele>734.5</ele><time>2026-04-26T07:45:08.001Z</time></trkpt><trkpt lat="44.12106300823669" lon="11.16668597018777"><ele>736.0</ele><time>2026-04-26T07:45:09.001Z</time></trkpt><trkpt lat="44.121074088106276" lon="11.166483297090473"><ele>737.6666666666667</ele><time>2026-04-26T07:45:10.001Z</time></trkpt><trkpt lat="44.12106206881963" lon="11.166263555926744"><ele>739.3333333333334</ele><time>2026-04-26T07:45:11.001Z</time></trkpt><trkpt lat="44.1210306253722" lon="11.166025724669488"><ele>741.0</ele><time>2026-04-26T07:45:12.001Z</time></trkpt><trkpt lat="44.12099726916602" lon="11.165790028455069"><ele>743.3333333333334</ele><time>2026-04-26T07:45:13.002Z</time></trkpt><trkpt lat="44.120990138340275" lon="11.165560295675554"><ele>745.6666666666667</ele><time>2026-04-26T07:45:14.002Z</time></trkpt><trkpt lat="44.12099711514057" lon="11.165344288179815"><ele>748.0</ele><time>2026-04-26T07:45:15.002Z</time></trkpt><trkpt lat="44.12100857207361" lon="11.165154135117605"><ele>748.0</ele><time>2026-04-26T07:45:16.002Z</time></trkpt><trkpt lat="44.12102776750381" lon="11.16499201648442"><ele>748.0</ele><time>2026-04-26T07:45:17.002Z</time></trkpt><trkpt lat="44.12101767087404" lon="11.16484604452129"><ele>748.0</ele><time>2026-04-26T07:45:18.002Z</time></trkpt><trkpt lat="44.12096921133341" lon="11.16472142863374"><ele>748.0</ele><time>2026-04-26T07:45:19.002Z</time></trkpt><trkpt lat="44.12088725375656" lon="11.164635485035902"><ele>748.0</ele><time>2026-04-26T07:45:20.002Z</time></trkpt><trkpt lat="44.12080008394975" lon="11.164585978563906"><ele>755.2</ele><time>2026-04-26T07:45:21.002Z</time></trkpt><trkpt lat="44.12071392744197" lon="11.164592890247617"><ele>762.4</ele><time>2026-04-26T07:45:22.002Z</time></trkpt><trkpt lat="44.120630334505584" lon="11.164665903461339"><ele>769.6</ele><time>2026-04-26T07:45:23.002Z</time></trkpt><trkpt lat="44.1205503877404" lon="11.164793757002347"><ele>776.8000000000001</ele><time>2026-04-26T07:45:24.002Z</time></trkpt><trkpt lat="44.12048556632023" lon="11.164963418315653"><ele>784.0</ele><time>2026-04-26T07:45:25.002Z</time></trkpt><trkpt lat="44.12044055800243" lon="11.165146188099333"><ele>784.0</ele><time>2026-04-26T07:45:26.002Z</time></trkpt><trkpt lat="44.12039109220088" lon="11.16535740906245"><ele>784.0</ele><time>2026-04-26T07:45:27.002Z</time></trkpt><trkpt lat="44.12034358183801" lon="11.165568050900024"><ele>784.0</ele><time>2026-04-26T07:45:28.002Z</time></trkpt><trkpt lat="44.12028522155973" lon="11.165789163135068"><ele>777.5</ele><time>2026-04-26T07:45:29.002Z</time></trkpt><trkpt lat="44.1202266438842" lon="11.166007630127302"><ele>771.0</ele><time>2026-04-26T07:45:30.002Z</time></trkpt><trkpt lat="44.120176419844334" lon="11.1662007542892"><ele>764.5</ele><time>2026-04-26T07:45:31.002Z</time></trkpt><trkpt lat="44.1201139530046" lon="11.166364100669021"><ele>758.0</ele><time>2026-04-26T07:45:32.002Z</time></trkpt><trkpt lat="44.12003296488347" lon="11.166493683175647"><ele>755.25</ele><time>2026-04-26T07:45:33.002Z</time></trkpt><trkpt lat="44.11993450024831" lon="11.166604881193086"><ele>752.5</ele><time>2026-04-26T07:45:34.002Z</time></trkpt><trkpt lat="44.11980141154811" lon="11.16666069216923"><ele>749.75</ele><time>2026-04-26T07:45:35.002Z</time></trkpt><trkpt lat="44.11965473410534" lon="11.166666260202751"><ele>747.0</ele><time>2026-04-26T07:45:36.002Z</time></trkpt><trkpt lat="44.119506244632014" lon="11.166642159820617"><ele>747.0</ele><time>2026-04-26T07:45:37.002Z</time></trkpt><trkpt lat="44.11937552056263" lon="11.166580009619166"><ele>747.0</ele><time>2026-04-26T07:45:38.002Z</time></trkpt><trkpt lat="44.11926519175477" lon="11.166539046375739"><ele>747.0</ele><time>2026-04-26T07:45:39.002Z</time></trkpt><trkpt lat="44.11915967661967" lon="11.166574632091855"><ele>747.0</ele><time>2026-04-26T07:45:40.002Z</time></trkpt><trkpt lat="44.119059175324026" lon="11.166668389080236"><ele>752.3333333333334</ele><time>2026-04-26T07:45:41.002Z</time></trkpt><trkpt lat="44.118953224622736" lon="11.166798017317022"><ele>757.6666666666667</ele><time>2026-04-26T07:45:42.002Z</time></trkpt><trkpt lat="44.118825609941275" lon="11.166920898513517"><ele>763.0</ele><time>2026-04-26T07:45:43.002Z</time></trkpt><trkpt lat="44.11869569144033" lon="11.167037708461146"><ele>763.0</ele><time>2026-04-26T07:45:44.002Z</time></trkpt><trkpt lat="44.11854992603284" lon="11.167134833516378"><ele>763.0</ele><time>2026-04-26T07:45:45.002Z</time></trkpt><trkpt lat="44.118379120653415" lon="11.167193677132937"><ele>763.0</ele><time>2026-04-26T07:45:46.002Z</time></trkpt><trkpt lat="44.118224110486764" lon="11.167230281477677"><ele>762.75</ele><time>2026-04-26T07:45:47.002Z</time></trkpt><trkpt lat="44.118097538293554" lon="11.167264654950134"><ele>762.5</ele><time>2026-04-26T07:45:48.002Z</time></trkpt><trkpt lat="44.11798004994744" lon="11.167282137015528"><ele>762.25</ele><time>2026-04-26T07:45:49.002Z</time></trkpt><trkpt lat="44.117866939634766" lon="11.167248757211855"><ele>762.0</ele><time>2026-04-26T07:45:50.002Z</time></trkpt><trkpt lat="44.11774550587092" lon="11.167187571571748"><ele>762.0</ele><time>2026-04-26T07:45:51.002Z</time></trkpt><trkpt lat="44.117611311766034" lon="11.167113704817833"><ele>762.0</ele><time>2026-04-26T07:45:52.002Z</time></trkpt><trkpt lat="44.11746251775193" lon="11.167042291642085"><ele>762.0</ele><time>2026-04-26T07:45:53.002Z</time></trkpt><trkpt lat="44.117332930156635" lon="11.166974287846505"><ele>762.0</ele><time>2026-04-26T07:45:54.002Z</time></trkpt><trkpt lat="44.11721637941145" lon="11.166943918745917"><ele>755.75</ele><time>2026-04-26T07:45:55.002Z</time></trkpt><trkpt lat="44.11709624738435" lon="11.166927175892768"><ele>749.5</ele><time>2026-04-26T07:45:56.002Z</time></trkpt><trkpt lat="44.11696972545875" lon="11.166922906851065"><ele>743.25</ele><time>2026-04-26T07:45:57.002Z</time></trkpt><trkpt lat="44.11686628243739" lon="11.166888867717814"><ele>737.0</ele><time>2026-04-26T07:45:58.002Z</time></trkpt><trkpt lat="44.11676546729178" lon="11.166810920091663"><ele>737.0</ele><time>2026-04-26T07:45:59.002Z</time></trkpt><trkpt lat="44.116667385347235" lon="11.166705860677569"><ele>737.0</ele><time>2026-04-26T07:46:00.002Z</time></trkpt><trkpt lat="44.116569959690324" lon="11.166576482371934"><ele>737.0</ele><time>2026-04-26T07:46:01.002Z</time></trkpt><trkpt lat="44.116477448165305" lon="11.166433312909698"><ele>737.0</ele><time>2026-04-26T07:46:02.002Z</time></trkpt><trkpt lat="44.11638165738183" lon="11.166301877426845"><ele>739.75</ele><time>2026-04-26T07:46:03.002Z</time></trkpt><trkpt lat="44.11628872964348" lon="11.166193888893954"><ele>742.5</ele><time>2026-04-26T07:46:04.002Z</time></trkpt><trkpt lat="44.11617868737852" lon="11.166093039550615"><ele>745.25</ele><time>2026-04-26T07:46:05.002Z</time></trkpt><trkpt lat="44.11605834243861" lon="11.166009241147412"><ele>748.0</ele><time>2026-04-26T07:46:06.002Z</time></trkpt><trkpt lat="44.11590478102139" lon="11.16592296025768"><ele>748.0</ele><time>2026-04-26T07:46:07.002Z</time></trkpt><trkpt lat="44.11575358771022" lon="11.165827988073673"><ele>748.0</ele><time>2026-04-26T07:46:08.002Z</time></trkpt><trkpt lat="44.11561368860148" lon="11.165708237662276"><ele>748.0</ele><time>2026-04-26T07:46:09.002Z</time></trkpt><trkpt lat="44.11550786628535" lon="11.165567332239823"><ele>752.3333333333334</ele><time>2026-04-26T07:46:10.002Z</time></trkpt><trkpt lat="44.115379029371276" lon="11.16547389987611"><ele>756.6666666666666</ele><time>2026-04-26T07:46:11.002Z</time></trkpt><trkpt lat="44.11519523096737" lon="11.165492946017498"><ele>761.0</ele><time>2026-04-26T07:46:12.002Z</time></trkpt><trkpt lat="44.11502118807582" lon="11.165488806247266"><ele>750.0</ele><time>2026-04-26T07:46:13.002Z</time></trkpt><trkpt lat="44.11487660886849" lon="11.165414515819128"><ele>739.0</ele><time>2026-04-26T07:46:14.002Z</time></trkpt><trkpt lat="44.114729906382436" lon="11.165319454275718"><ele>728.0</ele><time>2026-04-26T07:46:15.002Z</time></trkpt><trkpt lat="44.11457897660025" lon="11.165236275417795"><ele>728.0</ele><time>2026-04-26T07:46:16.002Z</time></trkpt><trkpt lat="44.11445679261797" lon="11.165175945978328"><ele>728.0</ele><time>2026-04-26T07:46:17.002Z</time></trkpt><trkpt lat="44.114299733897255" lon="11.165172986794746"><ele>728.0</ele><time>2026-04-26T07:46:18.002Z</time></trkpt><trkpt lat="44.11421698859782" lon="11.165044774582869"><ele>728.0</ele><time>2026-04-26T07:46:19.002Z</time></trkpt><trkpt lat="44.114148872841255" lon="11.164896946885227"><ele>722.0</ele><time>2026-04-26T07:46:20.002Z</time></trkpt><trkpt lat="44.11404184580018" lon="11.164744814160148"><ele>716.0</ele><time>2026-04-26T07:46:21.002Z</time></trkpt><trkpt lat="44.11394457524817" lon="11.164583818837455"><ele>710.0</ele><time>2026-04-26T07:46:22.002Z</time></trkpt><trkpt lat="44.11384324154139" lon="11.164402803976456"><ele>710.0</ele><time>2026-04-26T07:46:23.002Z</time></trkpt><trkpt lat="44.11372358972815" lon="11.164212691281309"><ele>710.0</ele><time>2026-04-26T07:46:24.002Z</time></trkpt><trkpt lat="44.1136033362057" lon="11.164028951769689"><ele>710.0</ele><time>2026-04-26T07:46:25.002Z</time></trkpt><trkpt lat="44.11348589207722" lon="11.16382328707957"><ele>714.6666666666666</ele><time>2026-04-26T07:46:26.002Z</time></trkpt><trkpt lat="44.11339230620155" lon="11.163608369728825"><ele>719.3333333333334</ele><time>2026-04-26T07:46:27.002Z</time></trkpt><trkpt lat="44.113327445380264" lon="11.16339720286733"><ele>724.0</ele><time>2026-04-26T07:46:28.002Z</time></trkpt><trkpt lat="44.11324541075266" lon="11.16319894687758"><ele>715.0</ele><time>2026-04-26T07:46:29.002Z</time></trkpt><trkpt lat="44.11318973239564" lon="11.163025072662819"><ele>706.0</ele><time>2026-04-26T07:46:30.002Z</time></trkpt><trkpt lat="44.11315847181781" lon="11.162823346653319"><ele>697.0</ele><time>2026-04-26T07:46:31.002Z</time></trkpt><trkpt lat="44.11314780750642" lon="11.162645832347287"><ele>688.0</ele><time>2026-04-26T07:46:32.002Z</time></trkpt><trkpt lat="44.113175685777804" lon="11.162489732764401"><ele>687.5</ele><time>2026-04-26T07:46:33.002Z</time></trkpt><trkpt lat="44.11323285462506" lon="11.162317883062684"><ele>687.0</ele><time>2026-04-26T07:46:34.002Z</time></trkpt><trkpt lat="44.11331734861664" lon="11.162147353371761"><ele>686.5</ele><time>2026-04-26T07:46:35.002Z</time></trkpt><trkpt lat="44.11339195637126" lon="11.161943839454816"><ele>686.0</ele><time>2026-04-26T07:46:36.002Z</time></trkpt><trkpt lat="44.11342344386109" lon="11.161718498885481"><ele>693.25</ele><time>2026-04-26T07:46:37.002Z</time></trkpt><trkpt lat="44.11346540909506" lon="11.161496185552256"><ele>700.5</ele><time>2026-04-26T07:46:38.002Z</time></trkpt><trkpt lat="44.113482945892486" lon="11.161315395497462"><ele>707.75</ele><time>2026-04-26T07:46:39.002Z</time></trkpt><trkpt lat="44.11349733224086" lon="11.161163791510488"><ele>715.0</ele><time>2026-04-26T07:46:40.002Z</time></trkpt><trkpt lat="44.11346341104308" lon="11.16099197945037"><ele>715.0</ele><time>2026-04-26T07:46:41.002Z</time></trkpt><trkpt lat="44.11338502469446" lon="11.160838393491197"><ele>715.0</ele><time>2026-04-26T07:46:42.002Z</time></trkpt><trkpt lat="44.113280978419304" lon="11.160688892099612"><ele>715.0</ele><time>2026-04-26T07:46:43.002Z</time></trkpt><trkpt lat="44.113157005805476" lon="11.160548284595595"><ele>715.0</ele><time>2026-04-26T07:46:44.002Z</time></trkpt><trkpt lat="44.113038657764825" lon="11.160451708013099"><ele>710.4</ele><time>2026-04-26T07:46:45.002Z</time></trkpt><trkpt lat="44.11295283459277" lon="11.160361765433677"><ele>705.8</ele><time>2026-04-26T07:46:46.002Z</time></trkpt><trkpt lat="44.11288238535005" lon="11.160277323622346"><ele>701.2</ele><time>2026-04-26T07:46:47.002Z</time></trkpt><trkpt lat="44.11284659686933" lon="11.160133113437363"><ele>696.6</ele><time>2026-04-26T07:46:48.002Z</time></trkpt><trkpt lat="44.11289032766993" lon="11.159992957702565"><ele>692.0</ele><time>2026-04-26T07:46:49.002Z</time></trkpt><trkpt lat="44.112955070757685" lon="11.15982516602616"><ele>692.0</ele><time>2026-04-26T07:46:50.002Z</time></trkpt><trkpt lat="44.11301673588027" lon="11.159656965654746"><ele>692.0</ele><time>2026-04-26T07:46:51.002Z</time></trkpt><trkpt lat="44.1130646247243" lon="11.159451506856836"><ele>692.0</ele><time>2026-04-26T07:46:52.002Z</time></trkpt><trkpt lat="44.11309279007177" lon="11.159205687079618"><ele>692.3333333333333</ele><time>2026-04-26T07:46:53.002Z</time></trkpt><trkpt lat="44.113116928640004" lon="11.158959514285327"><ele>692.6666666666666</ele><time>2026-04-26T07:46:54.002Z</time></trkpt><trkpt lat="44.11312992696867" lon="11.158735203369094"><ele>693.0</ele><time>2026-04-26T07:46:55.002Z</time></trkpt><trkpt lat="44.113127761995976" lon="11.158526757579601"><ele>693.0</ele><time>2026-04-26T07:46:56.002Z</time></trkpt><trkpt lat="44.11313162567435" lon="11.158321229085368"><ele>693.0</ele><time>2026-04-26T07:46:57.002Z</time></trkpt><trkpt lat="44.11313091373688" lon="11.158153720839431"><ele>693.0</ele><time>2026-04-26T07:46:58.002Z</time></trkpt><trkpt lat="44.11309826972421" lon="11.15798190730973"><ele>693.0</ele><time>2026-04-26T07:46:59.002Z</time></trkpt><trkpt lat="44.11302479107936" lon="11.157827787701466"><ele>693.5</ele><time>2026-04-26T07:47:00.002Z</time></trkpt><trkpt lat="44.11292767918169" lon="11.157681475291445"><ele>694.0</ele><time>2026-04-26T07:47:01.002Z</time></trkpt><trkpt lat="44.11282881300419" lon="11.157514917581578"><ele>694.5</ele><time>2026-04-26T07:47:02.002Z</time></trkpt><trkpt lat="44.11276165888358" lon="11.157338836684248"><ele>695.0</ele><time>2026-04-26T07:47:03.002Z</time></trkpt><trkpt lat="44.11272288340377" lon="11.157127325109046"><ele>696.3333333333333</ele><time>2026-04-26T07:47:04.002Z</time></trkpt><trkpt lat="44.112646226269106" lon="11.156929359012919"><ele>697.6666666666666</ele><time>2026-04-26T07:47:05.002Z</time></trkpt><trkpt lat="44.1125565887863" lon="11.156731673047577"><ele>699.0</ele><time>2026-04-26T07:47:06.002Z</time></trkpt><trkpt lat="44.11247674696034" lon="11.156546602452506"><ele>699.0</ele><time>2026-04-26T07:47:07.002Z</time></trkpt><trkpt lat="44.11242450380616" lon="11.156376335876931"><ele>699.0</ele><time>2026-04-26T07:47:08.002Z</time></trkpt><trkpt lat="44.112384020646495" lon="11.156209111990814"><ele>699.0</ele><time>2026-04-26T07:47:09.002Z</time></trkpt><trkpt lat="44.11236589266527" lon="11.156053483450506"><ele>699.0</ele><time>2026-04-26T07:47:10.002Z</time></trkpt><trkpt lat="44.1123329891409" lon="11.155941908932812"><ele>701.2</ele><time>2026-04-26T07:47:11.002Z</time></trkpt><trkpt lat="44.112218905786015" lon="11.15589878982292"><ele>703.4000000000001</ele><time>2026-04-26T07:47:13.002Z</time></trkpt><trkpt lat="44.112158700157735" lon="11.1559562294132"><ele>705.6</ele><time>2026-04-26T07:47:14.002Z</time></trkpt><trkpt lat="44.11212199842061" lon="11.156063115411422"><ele>707.8</ele><time>2026-04-26T07:47:15.002Z</time></trkpt><trkpt lat="44.11211365903514" lon="11.156200918125196"><ele>710.0</ele><time>2026-04-26T07:47:16.002Z</time></trkpt><trkpt lat="44.11214127444539" lon="11.156348734428883"><ele>710.0</ele><time>2026-04-26T07:47:17.002Z</time></trkpt><trkpt lat="44.112207630759904" lon="11.156514975501274"><ele>710.0</ele><time>2026-04-26T07:47:18.002Z</time></trkpt><trkpt lat="44.112272617548214" lon="11.156662200188283"><ele>710.0</ele><time>2026-04-26T07:47:19.002Z</time></trkpt><trkpt lat="44.112319597012664" lon="11.156792894289369"><ele>710.0</ele><time>2026-04-26T07:47:20.002Z</time></trkpt><trkpt lat="44.112311227239864" lon="11.156935438299955"><ele>709.0</ele><time>2026-04-26T07:47:21.002Z</time></trkpt><trkpt lat="44.11225178129827" lon="11.157087866241323"><ele>708.0</ele><time>2026-04-26T07:47:22.002Z</time></trkpt><trkpt lat="44.11218719487951" lon="11.157248662693545"><ele>707.0</ele><time>2026-04-26T07:47:23.002Z</time></trkpt><trkpt lat="44.11212866919263" lon="11.15742062546957"><ele>706.0</ele><time>2026-04-26T07:47:24.002Z</time></trkpt><trkpt lat="44.112080575119876" lon="11.157618921620598"><ele>706.0</ele><time>2026-04-26T07:47:25.002Z</time></trkpt><trkpt lat="44.11203755164199" lon="11.157836468474342"><ele>706.0</ele><time>2026-04-26T07:47:26.002Z</time></trkpt><trkpt lat="44.1119981995388" lon="11.158054514071168"><ele>706.0</ele><time>2026-04-26T07:47:27.002Z</time></trkpt><trkpt lat="44.111932248130024" lon="11.158260970092742"><ele>704.75</ele><time>2026-04-26T07:47:28.002Z</time></trkpt><trkpt lat="44.11190153009533" lon="11.158459839552505"><ele>703.5</ele><time>2026-04-26T07:47:29.002Z</time></trkpt><trkpt lat="44.111869666706575" lon="11.158644864335514"><ele>702.25</ele><time>2026-04-26T07:47:30.002Z</time></trkpt><trkpt lat="44.111858060112375" lon="11.15884616430028"><ele>701.0</ele><time>2026-04-26T07:47:31.002Z</time></trkpt><trkpt lat="44.11185970009968" lon="11.159066539394583"><ele>699.6666666666666</ele><time>2026-04-26T07:47:32.002Z</time></trkpt><trkpt lat="44.111861502711115" lon="11.15929161864966"><ele>698.3333333333334</ele><time>2026-04-26T07:47:33.002Z</time></trkpt><trkpt lat="44.11185630887147" lon="11.159519884182773"><ele>697.0</ele><time>2026-04-26T07:47:34.002Z</time></trkpt><trkpt lat="44.111861582436404" lon="11.15977147639386"><ele>697.0</ele><time>2026-04-26T07:47:35.002Z</time></trkpt><trkpt lat="44.11185335678077" lon="11.160010931967214"><ele>697.0</ele><time>2026-04-26T07:47:36.002Z</time></trkpt><trkpt lat="44.11187077741319" lon="11.160227321338033"><ele>697.0</ele><time>2026-04-26T07:47:37.002Z</time></trkpt><trkpt lat="44.11188163197926" lon="11.160442217041778"><ele>697.0</ele><time>2026-04-26T07:47:38.002Z</time></trkpt><trkpt lat="44.11188607389456" lon="11.160628609548832"><ele>697.0</ele><time>2026-04-26T07:47:39.002Z</time></trkpt><trkpt lat="44.1118666365545" lon="11.160808998374389"><ele>697.0</ele><time>2026-04-26T07:47:40.002Z</time></trkpt><trkpt lat="44.11183274530453" lon="11.160971212927087"><ele>697.0</ele><time>2026-04-26T07:47:41.002Z</time></trkpt><trkpt lat="44.111767328111554" lon="11.16113084569032"><ele>696.3333333333334</ele><time>2026-04-26T07:47:42.002Z</time></trkpt><trkpt lat="44.11166613167251" lon="11.161288620746086"><ele>695.6666666666666</ele><time>2026-04-26T07:47:43.002Z</time></trkpt><trkpt lat="44.11154681700727" lon="11.161418500632667"><ele>695.0</ele><time>2026-04-26T07:47:44.002Z</time></trkpt><trkpt lat="44.111399469227266" lon="11.161503317683914"><ele>695.3333333333333</ele><time>2026-04-26T07:47:45.002Z</time></trkpt><trkpt lat="44.11124916500971" lon="11.16159481973735"><ele>695.6666666666666</ele><time>2026-04-26T07:47:46.002Z</time></trkpt><trkpt lat="44.111107820222834" lon="11.161690413675768"><ele>696.0</ele><time>2026-04-26T07:47:47.002Z</time></trkpt><trkpt lat="44.11095203781291" lon="11.161780165819284"><ele>696.0</ele><time>2026-04-26T07:47:48.002Z</time></trkpt><trkpt lat="44.110785473571575" lon="11.161877329804586"><ele>696.0</ele><time>2026-04-26T07:47:49.002Z</time></trkpt><trkpt lat="44.110617901751205" lon="11.161974949648922"><ele>696.0</ele><time>2026-04-26T07:47:50.002Z</time></trkpt><trkpt lat="44.11044398361377" lon="11.162072895215843"><ele>700.0</ele><time>2026-04-26T07:47:51.002Z</time></trkpt><trkpt lat="44.11027910154768" lon="11.162172394306733"><ele>704.0</ele><time>2026-04-26T07:47:52.002Z</time></trkpt><trkpt lat="44.110133668446096" lon="11.16226580722333"><ele>708.0</ele><time>2026-04-26T07:47:53.002Z</time></trkpt><trkpt lat="44.110022103053446" lon="11.162334580439403"><ele>709.0</ele><time>2026-04-26T07:47:54.002Z</time></trkpt><trkpt lat="44.10993028073193" lon="11.162416346561717"><ele>710.0</ele><time>2026-04-26T07:47:55.002Z</time></trkpt><trkpt lat="44.109869098073816" lon="11.16254340778664"><ele>711.0</ele><time>2026-04-26T07:47:56.002Z</time></trkpt><trkpt lat="44.109832719972324" lon="11.162713895163929"><ele>712.0</ele><time>2026-04-26T07:47:57.002Z</time></trkpt><trkpt lat="44.109815273013794" lon="11.16292245199304"><ele>712.0</ele><time>2026-04-26T07:47:58.002Z</time></trkpt><trkpt lat="44.109810892805804" lon="11.163146978631055"><ele>712.0</ele><time>2026-04-26T07:47:59.002Z</time></trkpt><trkpt lat="44.10979792473266" lon="11.163362593717423"><ele>712.0</ele><time>2026-04-26T07:48:00.002Z</time></trkpt><trkpt lat="44.10974150745815" lon="11.163567455960928"><ele>710.25</ele><time>2026-04-26T07:48:01.002Z</time></trkpt><trkpt lat="44.10969812040105" lon="11.163746152591322"><ele>708.5</ele><time>2026-04-26T07:48:02.002Z</time></trkpt><trkpt lat="44.10964940795081" lon="11.163897080551349"><ele>706.75</ele><time>2026-04-26T07:48:03.002Z</time></trkpt><trkpt lat="44.10955068440925" lon="11.163991373554934"><ele>705.0</ele><time>2026-04-26T07:48:04.002Z</time></trkpt><trkpt lat="44.10944105637988" lon="11.164079213023859"><ele>701.5</ele><time>2026-04-26T07:48:05.002Z</time></trkpt><trkpt lat="44.10933576461829" lon="11.164182686329426"><ele>698.0</ele><time>2026-04-26T07:48:06.002Z</time></trkpt><trkpt lat="44.109228920085144" lon="11.164232638954516"><ele>694.5</ele><time>2026-04-26T07:48:07.002Z</time></trkpt><trkpt lat="44.10911003629415" lon="11.16422859557119"><ele>691.0</ele><time>2026-04-26T07:48:08.002Z</time></trkpt><trkpt lat="44.10898711608723" lon="11.164173204948723"><ele>690.0</ele><time>2026-04-26T07:48:09.002Z</time></trkpt><trkpt lat="44.10888659966302" lon="11.164087244443978"><ele>689.0</ele><time>2026-04-26T07:48:10.002Z</time></trkpt><trkpt lat="44.1088043822255" lon="11.16396291888227"><ele>688.0</ele><time>2026-04-26T07:48:11.002Z</time></trkpt><trkpt lat="44.108741410985616" lon="11.16379033859273"><ele>687.0</ele><time>2026-04-26T07:48:12.002Z</time></trkpt><trkpt lat="44.10869118428247" lon="11.163624018856522"><ele>689.6</ele><time>2026-04-26T07:48:13.002Z</time></trkpt><trkpt lat="44.10862655678525" lon="11.163496467872239"><ele>692.2</ele><time>2026-04-26T07:48:14.002Z</time></trkpt><trkpt lat="44.10854556827824" lon="11.163404871094277"><ele>694.8</ele><time>2026-04-26T07:48:15.002Z</time></trkpt><trkpt lat="44.10845077950068" lon="11.163369070189129"><ele>697.4</ele><time>2026-04-26T07:48:16.002Z</time></trkpt><trkpt lat="44.1083367655136" lon="11.163385824839407"><ele>700.0</ele><time>2026-04-26T07:48:17.002Z</time></trkpt><trkpt lat="44.10823184306717" lon="11.163462324217713"><ele>700.0</ele><time>2026-04-26T07:48:18.002Z</time></trkpt><trkpt lat="44.108138457416146" lon="11.163583173364303"><ele>700.0</ele><time>2026-04-26T07:48:19.002Z</time></trkpt><trkpt lat="44.10805575882361" lon="11.163751498989201"><ele>700.0</ele><time>2026-04-26T07:48:20.002Z</time></trkpt><trkpt lat="44.107978494979065" lon="11.163935492542407"><ele>700.0</ele><time>2026-04-26T07:48:21.002Z</time></trkpt><trkpt lat="44.10790418725833" lon="11.16410937806008"><ele>700.0</ele><time>2026-04-26T07:48:22.002Z</time></trkpt><trkpt lat="44.10782744794569" lon="11.164253527941433"><ele>700.0</ele><time>2026-04-26T07:48:23.002Z</time></trkpt><trkpt lat="44.10774587350626" lon="11.164380838410246"><ele>700.0</ele><time>2026-04-26T07:48:24.002Z</time></trkpt><trkpt lat="44.10764515599696" lon="11.164468424432664"><ele>700.0</ele><time>2026-04-26T07:48:25.002Z</time></trkpt><trkpt lat="44.10752330438748" lon="11.164534301952584"><ele>697.0</ele><time>2026-04-26T07:48:26.002Z</time></trkpt><trkpt lat="44.107390741738946" lon="11.164573246871129"><ele>694.0</ele><time>2026-04-26T07:48:27.002Z</time></trkpt><trkpt lat="44.107251648935886" lon="11.164554560325847"><ele>691.0</ele><time>2026-04-26T07:48:28.002Z</time></trkpt><trkpt lat="44.1071182092564" lon="11.164490855798446"><ele>688.0</ele><time>2026-04-26T07:48:29.002Z</time></trkpt><trkpt lat="44.107001864065275" lon="11.164396488830622"><ele>688.0</ele><time>2026-04-26T07:48:30.002Z</time></trkpt><trkpt lat="44.10690682615336" lon="11.164302970121266"><ele>688.0</ele><time>2026-04-26T07:48:31.002Z</time></trkpt><trkpt lat="44.106822161183736" lon="11.1642026948284"><ele>688.0</ele><time>2026-04-26T07:48:32.002Z</time></trkpt><trkpt lat="44.10676754527602" lon="11.164058547310983"><ele>688.0</ele><time>2026-04-26T07:48:33.002Z</time></trkpt><trkpt lat="44.1067347623918" lon="11.163898472088881"><ele>690.25</ele><time>2026-04-26T07:48:34.002Z</time></trkpt><trkpt lat="44.10671220551819" lon="11.163716458224714"><ele>692.5</ele><time>2026-04-26T07:48:35.002Z</time></trkpt><trkpt lat="44.106672784920555" lon="11.163532075091561"><ele>694.75</ele><time>2026-04-26T07:48:36.002Z</time></trkpt><trkpt lat="44.10660885154388" lon="11.163345300971589"><ele>697.0</ele><time>2026-04-26T07:48:37.002Z</time></trkpt><trkpt lat="44.106524397201035" lon="11.163176612961031"><ele>698.75</ele><time>2026-04-26T07:48:38.002Z</time></trkpt><trkpt lat="44.106426845666796" lon="11.163039462235963"><ele>700.5</ele><time>2026-04-26T07:48:39.002Z</time></trkpt><trkpt lat="44.106310098399106" lon="11.162907543713594"><ele>702.25</ele><time>2026-04-26T07:48:40.002Z</time></trkpt><trkpt lat="44.1061731459279" lon="11.162823107019937"><ele>704.0</ele><time>2026-04-26T07:48:41.002Z</time></trkpt><trkpt lat="44.106015977023226" lon="11.162771702302505"><ele>704.0</ele><time>2026-04-26T07:48:42.002Z</time></trkpt><trkpt lat="44.10585562121678" lon="11.162744601540226"><ele>704.0</ele><time>2026-04-26T07:48:43.002Z</time></trkpt><trkpt lat="44.10568795842824" lon="11.162726774065181"><ele>704.0</ele><time>2026-04-26T07:48:44.002Z</time></trkpt><trkpt lat="44.10552685302403" lon="11.1626990834629"><ele>702.0</ele><time>2026-04-26T07:48:45.002Z</time></trkpt><trkpt lat="44.105382579750355" lon="11.162678065274859"><ele>700.0</ele><time>2026-04-26T07:48:46.002Z</time></trkpt><trkpt lat="44.10524641639992" lon="11.162653117756463"><ele>698.0</ele><time>2026-04-26T07:48:47.002Z</time></trkpt><trkpt lat="44.1051114432707" lon="11.162607514875711"><ele>696.0</ele><time>2026-04-26T07:48:48.002Z</time></trkpt><trkpt lat="44.104981731049946" lon="11.16252643771241"><ele>696.0</ele><time>2026-04-26T07:48:49.002Z</time></trkpt><trkpt lat="44.10487235415712" lon="11.162415812726262"><ele>696.0</ele><time>2026-04-26T07:48:50.002Z</time></trkpt><trkpt lat="44.10476102744852" lon="11.162283261366301"><ele>696.0</ele><time>2026-04-26T07:48:51.002Z</time></trkpt><trkpt lat="44.10467270938496" lon="11.162114490331415"><ele>696.0</ele><time>2026-04-26T07:48:52.002Z</time></trkpt><trkpt lat="44.10459320505807" lon="11.161956605709175"><ele>696.0</ele><time>2026-04-26T07:48:53.002Z</time></trkpt><trkpt lat="44.10451297756002" lon="11.161817230288007"><ele>696.0</ele><time>2026-04-26T07:48:54.002Z</time></trkpt><trkpt lat="44.10442527114083" lon="11.161708220229107"><ele>696.0</ele><time>2026-04-26T07:48:55.002Z</time></trkpt><trkpt lat="44.10431803958378" lon="11.16163210324918"><ele>696.0</ele><time>2026-04-26T07:48:56.002Z</time></trkpt><trkpt lat="44.10420290501908" lon="11.16158222776969"><ele>695.5</ele><time>2026-04-26T07:48:57.002Z</time></trkpt><trkpt lat="44.10407987359031" lon="11.16157564335393"><ele>695.0</ele><time>2026-04-26T07:48:58.002Z</time></trkpt><trkpt lat="44.10394450268195" lon="11.161607416882443"><ele>694.5</ele><time>2026-04-26T07:48:59.002Z</time></trkpt><trkpt lat="44.10379992936436" lon="11.161641380887703"><ele>694.0</ele><time>2026-04-26T07:49:00.002Z</time></trkpt><trkpt lat="44.103646558712605" lon="11.161636328121462"><ele>694.0</ele><time>2026-04-26T07:49:01.002Z</time></trkpt><trkpt lat="44.10348580116541" lon="11.161605508536688"><ele>694.0</ele><time>2026-04-26T07:49:02.002Z</time></trkpt><trkpt lat="44.10332432270393" lon="11.16157068395093"><ele>694.0</ele><time>2026-04-26T07:49:03.002Z</time></trkpt><trkpt lat="44.10315566187077" lon="11.161535149459844"><ele>699.6666666666667</ele><time>2026-04-26T07:49:04.002Z</time></trkpt><trkpt lat="44.10298340323865" lon="11.16152805548471"><ele>705.3333333333334</ele><time>2026-04-26T07:49:05.002Z</time></trkpt><trkpt lat="44.10281092184431" lon="11.161573137311521"><ele>711.0</ele><time>2026-04-26T07:49:06.002Z</time></trkpt><trkpt lat="44.10266271680252" lon="11.161641603429187"><ele>711.0</ele><time>2026-04-26T07:49:07.002Z</time></trkpt><trkpt lat="44.10250674074745" lon="11.161747790499971"><ele>711.0</ele><time>2026-04-26T07:49:08.002Z</time></trkpt><trkpt lat="44.10234352335717" lon="11.161896267172118"><ele>711.0</ele><time>2026-04-26T07:49:09.002Z</time></trkpt><trkpt lat="44.102191514642215" lon="11.162047518775285"><ele>713.6666666666666</ele><time>2026-04-26T07:49:10.002Z</time></trkpt><trkpt lat="44.10205873959438" lon="11.16218277061129"><ele>716.3333333333333</ele><time>2026-04-26T07:49:11.002Z</time></trkpt><trkpt lat="44.101925644291846" lon="11.162279271322726"><ele>719.0</ele><time>2026-04-26T07:49:12.002Z</time></trkpt><trkpt lat="44.101802851164074" lon="11.162382724243132"><ele>719.0</ele><time>2026-04-26T07:49:13.002Z</time></trkpt><trkpt lat="44.1016807065535" lon="11.162532446897536"><ele>719.0</ele><time>2026-04-26T07:49:14.002Z</time></trkpt><trkpt lat="44.10157742224784" lon="11.162716066860563"><ele>719.0</ele><time>2026-04-26T07:49:15.002Z</time></trkpt><trkpt lat="44.10146782165239" lon="11.162925268632753"><ele>719.0</ele><time>2026-04-26T07:49:16.002Z</time></trkpt><trkpt lat="44.10134862546843" lon="11.163126806848723"><ele>719.0</ele><time>2026-04-26T07:49:17.002Z</time></trkpt><trkpt lat="44.10121361691825" lon="11.163271448993948"><ele>719.0</ele><time>2026-04-26T07:49:18.002Z</time></trkpt><trkpt lat="44.101106728110445" lon="11.163426761259384"><ele>719.0</ele><time>2026-04-26T07:49:19.002Z</time></trkpt><trkpt lat="44.10102091261745" lon="11.163549759023345"><ele>719.0</ele><time>2026-04-26T07:49:20.002Z</time></trkpt><trkpt lat="44.10092613982415" lon="11.163651297925817"><ele>719.0</ele><time>2026-04-26T07:49:21.002Z</time></trkpt><trkpt lat="44.10080972759689" lon="11.163750653949279"><ele>719.0</ele><time>2026-04-26T07:49:22.002Z</time></trkpt><trkpt lat="44.10067128657404" lon="11.163798938376246"><ele>720.0</ele><time>2026-04-26T07:49:23.002Z</time></trkpt><trkpt lat="44.10052302239758" lon="11.163835630834116"><ele>721.0</ele><time>2026-04-26T07:49:24.002Z</time></trkpt><trkpt lat="44.10038634723587" lon="11.16385002006493"><ele>722.0</ele><time>2026-04-26T07:49:25.002Z</time></trkpt><trkpt lat="44.100230555639364" lon="11.163847472300157"><ele>723.0</ele><time>2026-04-26T07:49:26.002Z</time></trkpt><trkpt lat="44.10006685038287" lon="11.163786390627969"><ele>724.6666666666666</ele><time>2026-04-26T07:49:27.002Z</time></trkpt><trkpt lat="44.099895167092434" lon="11.16375144801006"><ele>726.3333333333333</ele><time>2026-04-26T07:49:28.002Z</time></trkpt><trkpt lat="44.09972587480263" lon="11.163748502229245"><ele>728.0</ele><time>2026-04-26T07:49:29.002Z</time></trkpt><trkpt lat="44.09954618598588" lon="11.163771772960441"><ele>728.0</ele><time>2026-04-26T07:49:30.002Z</time></trkpt><trkpt lat="44.09936955465214" lon="11.163824555774346"><ele>728.0</ele><time>2026-04-26T07:49:31.003Z</time></trkpt><trkpt lat="44.099193358542855" lon="11.163863629191354"><ele>728.0</ele><time>2026-04-26T07:49:32.003Z</time></trkpt><trkpt lat="44.099040662431776" lon="11.163899160857053"><ele>729.3333333333333</ele><time>2026-04-26T07:49:33.003Z</time></trkpt><trkpt lat="44.09888291765302" lon="11.163886256816191"><ele>730.6666666666666</ele><time>2026-04-26T07:49:34.003Z</time></trkpt><trkpt lat="44.09871039154025" lon="11.163840739672729"><ele>732.0</ele><time>2026-04-26T07:49:35.003Z</time></trkpt><trkpt lat="44.09853278226733" lon="11.163826780264522"><ele>732.0</ele><time>2026-04-26T07:49:36.003Z</time></trkpt><trkpt lat="44.09835216721988" lon="11.163832722245003"><ele>732.0</ele><time>2026-04-26T07:49:37.003Z</time></trkpt><trkpt lat="44.09818142777537" lon="11.163867494357012"><ele>732.0</ele><time>2026-04-26T07:49:38.003Z</time></trkpt><trkpt lat="44.098033546735984" lon="11.163925204685421"><ele>729.6666666666666</ele><time>2026-04-26T07:49:39.003Z</time></trkpt><trkpt lat="44.097881579506755" lon="11.163974757901663"><ele>727.3333333333333</ele><time>2026-04-26T07:49:40.003Z</time></trkpt><trkpt lat="44.09771861637983" lon="11.163956439940785"><ele>725.0</ele><time>2026-04-26T07:49:41.003Z</time></trkpt><trkpt lat="44.09756804749909" lon="11.1639255237498"><ele>725.0</ele><time>2026-04-26T07:49:42.003Z</time></trkpt><trkpt lat="44.09743461129468" lon="11.163874721121307"><ele>725.0</ele><time>2026-04-26T07:49:43.003Z</time></trkpt><trkpt lat="44.09728764285253" lon="11.163859370883234"><ele>725.0</ele><time>2026-04-26T07:49:44.003Z</time></trkpt><trkpt lat="44.09713225250573" lon="11.16387515227183"><ele>725.0</ele><time>2026-04-26T07:49:45.003Z</time></trkpt><trkpt lat="44.096973024790316" lon="11.163916177086321"><ele>724.5</ele><time>2026-04-26T07:49:46.003Z</time></trkpt><trkpt lat="44.096816933137234" lon="11.163978046488936"><ele>724.0</ele><time>2026-04-26T07:49:47.003Z</time></trkpt><trkpt lat="44.096679072377846" lon="11.164018428674495"><ele>723.5</ele><time>2026-04-26T07:49:48.003Z</time></trkpt><trkpt lat="44.09653486655633" lon="11.164029200481904"><ele>723.0</ele><time>2026-04-26T07:49:49.003Z</time></trkpt><trkpt lat="44.09637233631499" lon="11.164015043020493"><ele>720.3333333333334</ele><time>2026-04-26T07:49:50.003Z</time></trkpt><trkpt lat="44.096200252927154" lon="11.163975497042642"><ele>717.6666666666667</ele><time>2026-04-26T07:49:51.003Z</time></trkpt><trkpt lat="44.09603420452231" lon="11.163925071797282"><ele>715.0</ele><time>2026-04-26T07:49:52.003Z</time></trkpt><trkpt lat="44.09586864957374" lon="11.16386617477036"><ele>710.3333333333334</ele><time>2026-04-26T07:49:53.003Z</time></trkpt><trkpt lat="44.09571442261306" lon="11.163810368017513"><ele>705.6666666666666</ele><time>2026-04-26T07:49:54.003Z</time></trkpt><trkpt lat="44.09555990319616" lon="11.163722299339057"><ele>701.0</ele><time>2026-04-26T07:49:55.003Z</time></trkpt><trkpt lat="44.095420891013724" lon="11.163571489111627"><ele>701.0</ele><time>2026-04-26T07:49:56.003Z</time></trkpt><trkpt lat="44.09526407000638" lon="11.163445295267852"><ele>701.0</ele><time>2026-04-26T07:49:57.003Z</time></trkpt><trkpt lat="44.09511477046529" lon="11.163284835932313"><ele>701.0</ele><time>2026-04-26T07:49:58.003Z</time></trkpt><trkpt lat="44.09495522503898" lon="11.163141365429805"><ele>701.6666666666666</ele><time>2026-04-26T07:49:59.003Z</time></trkpt><trkpt lat="44.094792019657376" lon="11.162996620060285"><ele>702.3333333333334</ele><time>2026-04-26T07:50:00.003Z</time></trkpt><trkpt lat="44.09463240110565" lon="11.162854260410148"><ele>703.0</ele><time>2026-04-26T07:50:01.003Z</time></trkpt><trkpt lat="44.09448748442695" lon="11.162720517603265"><ele>703.0</ele><time>2026-04-26T07:50:02.003Z</time></trkpt><trkpt lat="44.09435568162888" lon="11.162601919532383"><ele>703.0</ele><time>2026-04-26T07:50:03.003Z</time></trkpt><trkpt lat="44.09424906862739" lon="11.162506016787528"><ele>703.0</ele><time>2026-04-26T07:50:04.003Z</time></trkpt><trkpt lat="44.09414098860758" lon="11.16243556766091"><ele>703.0</ele><time>2026-04-26T07:50:05.003Z</time></trkpt><trkpt lat="44.094048009395536" lon="11.162372238273814"><ele>702.0</ele><time>2026-04-26T07:50:06.003Z</time></trkpt><trkpt lat="44.093960729415834" lon="11.16233423951055"><ele>701.0</ele><time>2026-04-26T07:50:07.003Z</time></trkpt><trkpt lat="44.09387576343192" lon="11.162336410262146"><ele>700.0</ele><time>2026-04-26T07:50:08.003Z</time></trkpt><trkpt lat="44.09378476037073" lon="11.16238912656969"><ele>699.0</ele><time>2026-04-26T07:50:09.003Z</time></trkpt><trkpt lat="44.09370719928001" lon="11.162483725288892"><ele>698.0</ele><time>2026-04-26T07:50:10.003Z</time></trkpt><trkpt lat="44.09362563141189" lon="11.162608825921446"><ele>697.5</ele><time>2026-04-26T07:50:11.003Z</time></trkpt><trkpt lat="44.09352703045885" lon="11.162718726924712"><ele>697.0</ele><time>2026-04-26T07:50:12.003Z</time></trkpt><trkpt lat="44.09343310455253" lon="11.162773843613461"><ele>696.5</ele><time>2026-04-26T07:50:13.003Z</time></trkpt><trkpt lat="44.093326046195436" lon="11.162770463208984"><ele>696.0</ele><time>2026-04-26T07:50:14.003Z</time></trkpt><trkpt lat="44.09321015952069" lon="11.162740764190861"><ele>697.4</ele><time>2026-04-26T07:50:15.003Z</time></trkpt><trkpt lat="44.09309277366855" lon="11.162699285067896"><ele>698.8</ele><time>2026-04-26T07:50:16.003Z</time></trkpt><trkpt lat="44.09298214356771" lon="11.162666609679219"><ele>700.1999999999999</ele><time>2026-04-26T07:50:17.003Z</time></trkpt><trkpt lat="44.09288737915361" lon="11.16261099798298"><ele>701.5999999999999</ele><time>2026-04-26T07:50:18.003Z</time></trkpt><trkpt lat="44.09280418796389" lon="11.162538085673356"><ele>703.0</ele><time>2026-04-26T07:50:19.003Z</time></trkpt><trkpt lat="44.092731765237154" lon="11.162460776266299"><ele>703.0</ele><time>2026-04-26T07:50:20.003Z</time></trkpt><trkpt lat="44.092653503036225" lon="11.162382796169128"><ele>703.0</ele><time>2026-04-26T07:50:21.003Z</time></trkpt><trkpt lat="44.09258588570072" lon="11.162271633689791"><ele>703.0</ele><time>2026-04-26T07:50:22.003Z</time></trkpt><trkpt lat="44.09253728617116" lon="11.162119104038903"><ele>703.0</ele><time>2026-04-26T07:50:23.003Z</time></trkpt><trkpt lat="44.09246278760155" lon="11.161975765231247"><ele>703.0</ele><time>2026-04-26T07:50:24.003Z</time></trkpt><trkpt lat="44.092397106609745" lon="11.161825583338059"><ele>703.0</ele><time>2026-04-26T07:50:25.003Z</time></trkpt><trkpt lat="44.09233568643067" lon="11.161697279812799"><ele>703.0</ele><time>2026-04-26T07:50:26.003Z</time></trkpt><trkpt lat="44.09223468636451" lon="11.16159787852503"><ele>703.0</ele><time>2026-04-26T07:50:27.003Z</time></trkpt><trkpt lat="44.092138927277944" lon="11.161494561144215"><ele>703.0</ele><time>2026-04-26T07:50:28.003Z</time></trkpt><trkpt lat="44.09202922708396" lon="11.16138720205713"><ele>703.0</ele><time>2026-04-26T07:50:29.003Z</time></trkpt><trkpt lat="44.09191979523183" lon="11.161259596641814"><ele>703.0</ele><time>2026-04-26T07:50:30.003Z</time></trkpt><trkpt lat="44.09180708079066" lon="11.161156635284922"><ele>703.0</ele><time>2026-04-26T07:50:31.003Z</time></trkpt><trkpt lat="44.091694385331536" lon="11.161068739242083"><ele>703.0</ele><time>2026-04-26T07:50:32.003Z</time></trkpt><trkpt lat="44.09160054913253" lon="11.160976731601464"><ele>703.25</ele><time>2026-04-26T07:50:33.003Z</time></trkpt><trkpt lat="44.09151241816727" lon="11.160903569609863"><ele>703.5</ele><time>2026-04-26T07:50:34.003Z</time></trkpt><trkpt lat="44.091426617444824" lon="11.16080467740237"><ele>703.75</ele><time>2026-04-26T07:50:35.003Z</time></trkpt><trkpt lat="44.09132766818687" lon="11.16071475807622"><ele>704.0</ele><time>2026-04-26T07:50:36.003Z</time></trkpt><trkpt lat="44.091221423069214" lon="11.160621127874597"><ele>704.0</ele><time>2026-04-26T07:50:37.003Z</time></trkpt><trkpt lat="44.091109137930125" lon="11.16052168895635"><ele>704.0</ele><time>2026-04-26T07:50:38.003Z</time></trkpt><trkpt lat="44.090989246801826" lon="11.16041409227483"><ele>704.0</ele><time>2026-04-26T07:50:39.003Z</time></trkpt><trkpt lat="44.09086371317493" lon="11.16029908113087"><ele>704.0</ele><time>2026-04-26T07:50:40.003Z</time></trkpt><trkpt lat="44.09073770394687" lon="11.160183634252961"><ele>705.0</ele><time>2026-04-26T07:50:41.003Z</time></trkpt><trkpt lat="44.09060685196401" lon="11.1600655586458"><ele>706.0</ele><time>2026-04-26T07:50:42.003Z</time></trkpt><trkpt lat="44.09046819862158" lon="11.159967773940284"><ele>707.0</ele><time>2026-04-26T07:50:43.003Z</time></trkpt><trkpt lat="44.09033132300389" lon="11.1598464314602"><ele>708.0</ele><time>2026-04-26T07:50:44.003Z</time></trkpt><trkpt lat="44.09019611788945" lon="11.159724101394147"><ele>709.0</ele><time>2026-04-26T07:50:45.003Z</time></trkpt><trkpt lat="44.09005250982749" lon="11.159593147014288"><ele>710.0</ele><time>2026-04-26T07:50:46.003Z</time></trkpt><trkpt lat="44.08992001775448" lon="11.159434213303836"><ele>710.0</ele><time>2026-04-26T07:50:47.003Z</time></trkpt><trkpt lat="44.089768110942664" lon="11.15929833479513"><ele>710.0</ele><time>2026-04-26T07:50:48.003Z</time></trkpt><trkpt lat="44.089614198103384" lon="11.159158514426384"><ele>710.0</ele><time>2026-04-26T07:50:49.003Z</time></trkpt><trkpt lat="44.089465093434434" lon="11.159036384217845"><ele>711.0</ele><time>2026-04-26T07:50:50.003Z</time></trkpt><trkpt lat="44.08932840156623" lon="11.158929908574915"><ele>712.0</ele><time>2026-04-26T07:50:51.003Z</time></trkpt><trkpt lat="44.089198102460166" lon="11.158867639522256"><ele>713.0</ele><time>2026-04-26T07:50:52.003Z</time></trkpt><trkpt lat="44.08906520196951" lon="11.158864651480638"><ele>714.0</ele><time>2026-04-26T07:50:53.003Z</time></trkpt><trkpt lat="44.08893112471511" lon="11.158895372738908"><ele>710.75</ele><time>2026-04-26T07:50:54.003Z</time></trkpt><trkpt lat="44.088809170232324" lon="11.158951998649655"><ele>707.5</ele><time>2026-04-26T07:50:55.003Z</time></trkpt><trkpt lat="44.088696857607566" lon="11.159054820864396"><ele>704.25</ele><time>2026-04-26T07:50:56.003Z</time></trkpt><trkpt lat="44.088615535799974" lon="11.159207415189442"><ele>701.0</ele><time>2026-04-26T07:50:57.003Z</time></trkpt><trkpt lat="44.08855546492998" lon="11.159389292851372"><ele>700.5</ele><time>2026-04-26T07:50:58.003Z</time></trkpt><trkpt lat="44.088529981765426" lon="11.159591493990701"><ele>700.0</ele><time>2026-04-26T07:50:59.003Z</time></trkpt><trkpt lat="44.08853761283125" lon="11.159800563769211"><ele>699.5</ele><time>2026-04-26T07:51:00.003Z</time></trkpt><trkpt lat="44.08856969554703" lon="11.160000028663374"><ele>699.0</ele><time>2026-04-26T07:51:01.003Z</time></trkpt><trkpt lat="44.0886313933661" lon="11.160200806309565"><ele>699.0</ele><time>2026-04-26T07:51:02.003Z</time></trkpt><trkpt lat="44.08872338742132" lon="11.160383646271047"><ele>699.0</ele><time>2026-04-26T07:51:03.003Z</time></trkpt><trkpt lat="44.08883496677791" lon="11.160526523655339"><ele>699.0</ele><time>2026-04-26T07:51:04.003Z</time></trkpt><trkpt lat="44.08897315462172" lon="11.160633318159677"><ele>700.3333333333334</ele><time>2026-04-26T07:51:05.003Z</time></trkpt><trkpt lat="44.08912462106705" lon="11.160725960772124"><ele>701.6666666666667</ele><time>2026-04-26T07:51:06.003Z</time></trkpt><trkpt lat="44.08924555058152" lon="11.160821508682458"><ele>703.0</ele><time>2026-04-26T07:51:07.003Z</time></trkpt><trkpt lat="44.08936421860634" lon="11.160938958072107"><ele>703.0</ele><time>2026-04-26T07:51:08.003Z</time></trkpt><trkpt lat="44.08944985463595" lon="11.16108653813915"><ele>703.0</ele><time>2026-04-26T07:51:09.003Z</time></trkpt><trkpt lat="44.08948268668274" lon="11.161251275460579"><ele>703.0</ele><time>2026-04-26T07:51:10.003Z</time></trkpt><trkpt lat="44.08946986887924" lon="11.161418137340913"><ele>703.0</ele><time>2026-04-26T07:51:11.003Z</time></trkpt><trkpt lat="44.089418404697284" lon="11.161572281284212"><ele>701.5</ele><time>2026-04-26T07:51:12.003Z</time></trkpt><trkpt lat="44.08934813593011" lon="11.16169844558294"><ele>700.0</ele><time>2026-04-26T07:51:13.003Z</time></trkpt><trkpt lat="44.089252980411445" lon="11.161789887378474"><ele>698.5</ele><time>2026-04-26T07:51:14.003Z</time></trkpt><trkpt lat="44.08912778102618" lon="11.161830268379456"><ele>697.0</ele><time>2026-04-26T07:51:15.003Z</time></trkpt><trkpt lat="44.08898266389738" lon="11.161810017623061"><ele>695.5</ele><time>2026-04-26T07:51:16.003Z</time></trkpt><trkpt lat="44.088826561131626" lon="11.161758581513226"><ele>694.0</ele><time>2026-04-26T07:51:17.003Z</time></trkpt><trkpt lat="44.08868758531286" lon="11.161706893808267"><ele>692.5</ele><time>2026-04-26T07:51:18.003Z</time></trkpt><trkpt lat="44.08855841966857" lon="11.161682570735739"><ele>691.0</ele><time>2026-04-26T07:51:19.003Z</time></trkpt><trkpt lat="44.08843103733729" lon="11.161711241055867"><ele>691.0</ele><time>2026-04-26T07:51:20.003Z</time></trkpt><trkpt lat="44.0882988565309" lon="11.161796205246127"><ele>691.0</ele><time>2026-04-26T07:51:21.003Z</time></trkpt><trkpt lat="44.08817202077561" lon="11.161922150455277"><ele>691.0</ele><time>2026-04-26T07:51:22.003Z</time></trkpt><trkpt lat="44.088059099451485" lon="11.162043803654306"><ele>691.0</ele><time>2026-04-26T07:51:23.003Z</time></trkpt><trkpt lat="44.087974620783584" lon="11.162177892661386"><ele>688.25</ele><time>2026-04-26T07:51:24.003Z</time></trkpt><trkpt lat="44.087918490646956" lon="11.162317825040171"><ele>685.5</ele><time>2026-04-26T07:51:25.003Z</time></trkpt><trkpt lat="44.08790151348879" lon="11.162488473816607"><ele>682.75</ele><time>2026-04-26T07:51:26.003Z</time></trkpt><trkpt lat="44.08792245900415" lon="11.162675019296497"><ele>680.0</ele><time>2026-04-26T07:51:27.003Z</time></trkpt><trkpt lat="44.08794317844751" lon="11.162860826298296"><ele>680.0</ele><time>2026-04-26T07:51:28.003Z</time></trkpt><trkpt lat="44.08793793869343" lon="11.163033834337343"><ele>680.0</ele><time>2026-04-26T07:51:29.003Z</time></trkpt><trkpt lat="44.08789319250147" lon="11.16316237578123"><ele>680.0</ele><time>2026-04-26T07:51:30.003Z</time></trkpt><trkpt lat="44.087812690142464" lon="11.163245491239264"><ele>680.0</ele><time>2026-04-26T07:51:31.003Z</time></trkpt><trkpt lat="44.0877056947131" lon="11.163272097864374"><ele>680.0</ele><time>2026-04-26T07:51:32.003Z</time></trkpt><trkpt lat="44.087596218549116" lon="11.163241241368217"><ele>680.0</ele><time>2026-04-26T07:51:33.003Z</time></trkpt><trkpt lat="44.08750493711023" lon="11.163167687905558"><ele>680.0</ele><time>2026-04-26T07:51:34.003Z</time></trkpt><trkpt lat="44.0874263622174" lon="11.163027551749247"><ele>680.0</ele><time>2026-04-26T07:51:35.003Z</time></trkpt><trkpt lat="44.0873446116381" lon="11.162864915782526"><ele>680.0</ele><time>2026-04-26T07:51:36.003Z</time></trkpt><trkpt lat="44.08724949767626" lon="11.162685770060492"><ele>680.3333333333333</ele><time>2026-04-26T07:51:37.003Z</time></trkpt><trkpt lat="44.08714451091255" lon="11.162507268423255"><ele>680.6666666666666</ele><time>2026-04-26T07:51:38.003Z</time></trkpt><trkpt lat="44.087032089941324" lon="11.162319889312636"><ele>681.0</ele><time>2026-04-26T07:51:39.003Z</time></trkpt><trkpt lat="44.086914425531475" lon="11.162122149392017"><ele>681.0</ele><time>2026-04-26T07:51:40.003Z</time></trkpt><trkpt lat="44.086794508832824" lon="11.161929952574907"><ele>681.0</ele><time>2026-04-26T07:51:41.003Z</time></trkpt><trkpt lat="44.08667002545546" lon="11.161725341192154"><ele>681.0</ele><time>2026-04-26T07:51:42.003Z</time></trkpt><trkpt lat="44.08654954425703" lon="11.161513740085585"><ele>679.6666666666666</ele><time>2026-04-26T07:51:43.003Z</time></trkpt><trkpt lat="44.08642905148307" lon="11.16130781611414"><ele>678.3333333333333</ele><time>2026-04-26T07:51:44.003Z</time></trkpt><trkpt lat="44.08631068635624" lon="11.161094847425703"><ele>677.0</ele><time>2026-04-26T07:51:45.003Z</time></trkpt><trkpt lat="44.08619182985728" lon="11.160897727947791"><ele>677.0</ele><time>2026-04-26T07:51:46.003Z</time></trkpt><trkpt lat="44.08608885783338" lon="11.1607174016858"><ele>677.0</ele><time>2026-04-26T07:51:47.003Z</time></trkpt><trkpt lat="44.086000261255336" lon="11.160573660187055"><ele>677.0</ele><time>2026-04-26T07:51:48.003Z</time></trkpt><trkpt lat="44.08589445854499" lon="11.160451213563782"><ele>677.0</ele><time>2026-04-26T07:51:49.003Z</time></trkpt><trkpt lat="44.085780120385145" lon="11.160381234459742"><ele>672.5</ele><time>2026-04-26T07:51:50.003Z</time></trkpt><trkpt lat="44.085645391298826" lon="11.160368331733926"><ele>668.0</ele><time>2026-04-26T07:51:51.003Z</time></trkpt><trkpt lat="44.08549989089055" lon="11.16036032601879"><ele>663.5</ele><time>2026-04-26T07:51:52.003Z</time></trkpt><trkpt lat="44.08535052657064" lon="11.160435559815514"><ele>659.0</ele><time>2026-04-26T07:51:53.003Z</time></trkpt><trkpt lat="44.08519701818888" lon="11.160509001991596"><ele>659.0</ele><time>2026-04-26T07:51:54.003Z</time></trkpt><trkpt lat="44.08506609347169" lon="11.160564563950643"><ele>659.0</ele><time>2026-04-26T07:51:55.003Z</time></trkpt><trkpt lat="44.084940046200764" lon="11.160542091668828"><ele>659.0</ele><time>2026-04-26T07:51:56.003Z</time></trkpt><trkpt lat="44.084819585275554" lon="11.160466179327367"><ele>659.0</ele><time>2026-04-26T07:51:57.003Z</time></trkpt><trkpt lat="44.08471128139766" lon="11.160333751247922"><ele>658.3333333333333</ele><time>2026-04-26T07:51:58.003Z</time></trkpt><trkpt lat="44.08461215906695" lon="11.160157513358287"><ele>657.6666666666666</ele><time>2026-04-26T07:51:59.003Z</time></trkpt><trkpt lat="44.0845146854559" lon="11.159955834028835"><ele>657.0</ele><time>2026-04-26T07:52:00.003Z</time></trkpt><trkpt lat="44.08440825685731" lon="11.159748016059723"><ele>657.0</ele><time>2026-04-26T07:52:01.003Z</time></trkpt><trkpt lat="44.08429113100348" lon="11.159521603357557"><ele>657.0</ele><time>2026-04-26T07:52:02.003Z</time></trkpt><trkpt lat="44.084170171118274" lon="11.159303051525836"><ele>657.0</ele><time>2026-04-26T07:52:03.003Z</time></trkpt><trkpt lat="44.08405802573411" lon="11.15910041502028"><ele>652.0</ele><time>2026-04-26T07:52:04.003Z</time></trkpt><trkpt lat="44.083961559420146" lon="11.158925000963572"><ele>647.0</ele><time>2026-04-26T07:52:05.003Z</time></trkpt><trkpt lat="44.08386503869573" lon="11.158754754925043"><ele>642.0</ele><time>2026-04-26T07:52:06.003Z</time></trkpt><trkpt lat="44.0837741417843" lon="11.158604118179236"><ele>642.0</ele><time>2026-04-26T07:52:07.003Z</time></trkpt><trkpt lat="44.08367644979415" lon="11.158485876219082"><ele>642.0</ele><time>2026-04-26T07:52:08.003Z</time></trkpt><trkpt lat="44.08356747026166" lon="11.158415148508011"><ele>642.0</ele><time>2026-04-26T07:52:09.003Z</time></trkpt><trkpt lat="44.083451098891686" lon="11.15840537245253"><ele>642.0</ele><time>2026-04-26T07:52:10.003Z</time></trkpt><trkpt lat="44.0833429988528" lon="11.158458824890337"><ele>638.0</ele><time>2026-04-26T07:52:11.003Z</time></trkpt><trkpt lat="44.083214340276704" lon="11.158554589871231"><ele>634.0</ele><time>2026-04-26T07:52:12.003Z</time></trkpt><trkpt lat="44.08307936262005" lon="11.158697193813827"><ele>630.0</ele><time>2026-04-26T07:52:13.003Z</time></trkpt><trkpt lat="44.08295303367666" lon="11.158855924766671"><ele>630.0</ele><time>2026-04-26T07:52:14.003Z</time></trkpt><trkpt lat="44.08281755141573" lon="11.159011829088017"><ele>630.0</ele><time>2026-04-26T07:52:15.003Z</time></trkpt><trkpt lat="44.0826820490714" lon="11.159164503536621"><ele>630.0</ele><time>2026-04-26T07:52:16.003Z</time></trkpt><trkpt lat="44.08255787842156" lon="11.159327891173435"><ele>629.0</ele><time>2026-04-26T07:52:17.003Z</time></trkpt><trkpt lat="44.082434588807715" lon="11.159482499177038"><ele>628.0</ele><time>2026-04-26T07:52:18.003Z</time></trkpt><trkpt lat="44.08229399481565" lon="11.159614194011406"><ele>627.0</ele><time>2026-04-26T07:52:19.003Z</time></trkpt><trkpt lat="44.082132067477126" lon="11.159692383252917"><ele>627.0</ele><time>2026-04-26T07:52:20.003Z</time></trkpt><trkpt lat="44.08195011497591" lon="11.159713323099355"><ele>627.0</ele><time>2026-04-26T07:52:21.003Z</time></trkpt><trkpt lat="44.08176858278077" lon="11.159730471588542"><ele>627.0</ele><time>2026-04-26T07:52:22.003Z</time></trkpt><trkpt lat="44.08160164719056" lon="11.15976098666323"><ele>625.6666666666666</ele><time>2026-04-26T07:52:23.003Z</time></trkpt><trkpt lat="44.08144548559586" lon="11.15980010279941"><ele>624.3333333333333</ele><time>2026-04-26T07:52:24.003Z</time></trkpt><trkpt lat="44.08130772877343" lon="11.159869709299771"><ele>623.0</ele><time>2026-04-26T07:52:25.003Z</time></trkpt><trkpt lat="44.08116876319879" lon="11.159985805141261"><ele>623.0</ele><time>2026-04-26T07:52:26.003Z</time></trkpt><trkpt lat="44.081028927615634" lon="11.160121802529584"><ele>623.0</ele><time>2026-04-26T07:52:27.003Z</time></trkpt><trkpt lat="44.08088419512702" lon="11.160254578684436"><ele>623.0</ele><time>2026-04-26T07:52:28.003Z</time></trkpt><trkpt lat="44.08074109100864" lon="11.160373237382109"><ele>621.5</ele><time>2026-04-26T07:52:29.003Z</time></trkpt><trkpt lat="44.080632872570185" lon="11.160486045204872"><ele>620.0</ele><time>2026-04-26T07:52:30.003Z</time></trkpt><trkpt lat="44.08054441730983" lon="11.160612296249985"><ele>618.5</ele><time>2026-04-26T07:52:31.003Z</time></trkpt><trkpt lat="44.080471417128955" lon="11.160722168448936"><ele>617.0</ele><time>2026-04-26T07:52:32.003Z</time></trkpt><trkpt lat="44.080406448691384" lon="11.160872231745396"><ele>617.0</ele><time>2026-04-26T07:52:33.003Z</time></trkpt><trkpt lat="44.080336841722065" lon="11.161042950095926"><ele>617.0</ele><time>2026-04-26T07:52:34.003Z</time></trkpt><trkpt lat="44.08027154388362" lon="11.161236682210763"><ele>617.0</ele><time>2026-04-26T07:52:35.003Z</time></trkpt><trkpt lat="44.080208355697735" lon="11.161427181560757"><ele>617.0</ele><time>2026-04-26T07:52:36.003Z</time></trkpt><trkpt lat="44.080162947066015" lon="11.161580252269568"><ele>618.8000000000001</ele><time>2026-04-26T07:52:37.003Z</time></trkpt><trkpt lat="44.08012693446654" lon="11.161710356003672"><ele>620.6</ele><time>2026-04-26T07:52:38.003Z</time></trkpt><trkpt lat="44.08011324682009" lon="11.16184823613794"><ele>622.4000000000001</ele><time>2026-04-26T07:52:39.003Z</time></trkpt><trkpt lat="44.08011813474589" lon="11.161996185065847"><ele>624.2</ele><time>2026-04-26T07:52:40.003Z</time></trkpt><trkpt lat="44.08017723852688" lon="11.162160703325887"><ele>626.0</ele><time>2026-04-26T07:52:41.003Z</time></trkpt><trkpt lat="44.08026342448444" lon="11.162340641762176"><ele>626.8</ele><time>2026-04-26T07:52:42.003Z</time></trkpt><trkpt lat="44.08032650420576" lon="11.162481750582643"><ele>627.6</ele><time>2026-04-26T07:52:43.003Z</time></trkpt><trkpt lat="44.08039115319177" lon="11.162576095916691"><ele>628.4</ele><time>2026-04-26T07:52:44.003Z</time></trkpt><trkpt lat="44.08044649985063" lon="11.162646756805442"><ele>629.2</ele><time>2026-04-26T07:52:45.003Z</time></trkpt><trkpt lat="44.080463930305285" lon="11.162755900036032"><ele>630.0</ele><time>2026-04-26T07:52:46.003Z</time></trkpt><trkpt lat="44.080406055516995" lon="11.162891940164197"><ele>630.0</ele><time>2026-04-26T07:52:48.003Z</time></trkpt><trkpt lat="44.080313196149724" lon="11.162987531233581"><ele>630.0</ele><time>2026-04-26T07:52:50.003Z</time></trkpt><trkpt lat="44.08022962829892" lon="11.162948060062666"><ele>630.0</ele><time>2026-04-26T07:52:52.003Z</time></trkpt><trkpt lat="44.08017370425511" lon="11.162853181225783"><ele>630.0</ele><time>2026-04-26T07:52:53.003Z</time></trkpt><trkpt lat="44.08010851814078" lon="11.162768370081888"><ele>630.0</ele><time>2026-04-26T07:52:54.003Z</time></trkpt><trkpt lat="44.079999474548245" lon="11.162700535937766"><ele>631.75</ele><time>2026-04-26T07:52:55.003Z</time></trkpt><trkpt lat="44.07989474230951" lon="11.162624802965817"><ele>633.5</ele><time>2026-04-26T07:52:56.003Z</time></trkpt><trkpt lat="44.079767659607946" lon="11.162543902243067"><ele>635.25</ele><time>2026-04-26T07:52:57.003Z</time></trkpt><trkpt lat="44.07963411120762" lon="11.16245200735344"><ele>637.0</ele><time>2026-04-26T07:52:58.003Z</time></trkpt><trkpt lat="44.07949099855801" lon="11.162353576063335"><ele>637.0</ele><time>2026-04-26T07:52:59.003Z</time></trkpt><trkpt lat="44.079379349186055" lon="11.162247028895043"><ele>637.0</ele><time>2026-04-26T07:53:00.003Z</time></trkpt><trkpt lat="44.079303673627926" lon="11.162135247530088"><ele>637.0</ele><time>2026-04-26T07:53:01.003Z</time></trkpt><trkpt lat="44.079261789262816" lon="11.162008576435483"><ele>637.0</ele><time>2026-04-26T07:53:02.003Z</time></trkpt><trkpt lat="44.07926558040328" lon="11.161835536990708"><ele>637.0</ele><time>2026-04-26T07:53:03.003Z</time></trkpt><trkpt lat="44.07928507748571" lon="11.161644519369295"><ele>637.0</ele><time>2026-04-26T07:53:04.003Z</time></trkpt><trkpt lat="44.07929919583161" lon="11.161436952437594"><ele>637.0</ele><time>2026-04-26T07:53:05.003Z</time></trkpt><trkpt lat="44.079301404131144" lon="11.161207202646905"><ele>637.3333333333334</ele><time>2026-04-26T07:53:06.003Z</time></trkpt><trkpt lat="44.07930389527502" lon="11.160975889007242"><ele>637.6666666666666</ele><time>2026-04-26T07:53:07.003Z</time></trkpt><trkpt lat="44.07930591763304" lon="11.160755460593144"><ele>638.0</ele><time>2026-04-26T07:53:08.003Z</time></trkpt><trkpt lat="44.07933377055752" lon="11.16056470103708"><ele>635.5</ele><time>2026-04-26T07:53:09.003Z</time></trkpt><trkpt lat="44.07935044471638" lon="11.160379529087043"><ele>633.0</ele><time>2026-04-26T07:53:10.003Z</time></trkpt><trkpt lat="44.07939472919463" lon="11.16020933106451"><ele>630.5</ele><time>2026-04-26T07:53:11.003Z</time></trkpt><trkpt lat="44.079440819583546" lon="11.160063959066544"><ele>628.0</ele><time>2026-04-26T07:53:12.003Z</time></trkpt><trkpt lat="44.079483947695266" lon="11.1599321970881"><ele>628.1999999999999</ele><time>2026-04-26T07:53:13.003Z</time></trkpt><trkpt lat="44.079482140349974" lon="11.159817661123807"><ele>628.4</ele><time>2026-04-26T07:53:14.003Z</time></trkpt><trkpt lat="44.07944594508727" lon="11.159719593984311"><ele>628.5999999999999</ele><time>2026-04-26T07:53:15.003Z</time></trkpt><trkpt lat="44.0793612605093" lon="11.159628378970424"><ele>628.8</ele><time>2026-04-26T07:53:16.003Z</time></trkpt><trkpt lat="44.079252646481564" lon="11.159561116242514"><ele>629.0</ele><time>2026-04-26T07:53:17.003Z</time></trkpt><trkpt lat="44.07911918674904" lon="11.159503451688858"><ele>632.8333333333333</ele><time>2026-04-26T07:53:18.003Z</time></trkpt><trkpt lat="44.07901157854729" lon="11.15944994386886"><ele>636.6666666666666</ele><time>2026-04-26T07:53:19.003Z</time></trkpt><trkpt lat="44.07893293869533" lon="11.159386690366414"><ele>640.5</ele><time>2026-04-26T07:53:20.003Z</time></trkpt><trkpt lat="44.07890375441105" lon="11.159290004074016"><ele>644.3333333333334</ele><time>2026-04-26T07:53:21.003Z</time></trkpt><trkpt lat="44.078910077893966" lon="11.159192087608409"><ele>648.1666666666667</ele><time>2026-04-26T07:53:22.003Z</time></trkpt><trkpt lat="44.078971614911296" lon="11.159121484363377"><ele>652.0</ele><time>2026-04-26T07:53:23.003Z</time></trkpt><trkpt lat="44.079057141180364" lon="11.159113695987923"><ele>653.5</ele><time>2026-04-26T07:53:24.003Z</time></trkpt><trkpt lat="44.07917586127812" lon="11.159132359921369"><ele>655.0</ele><time>2026-04-26T07:53:25.003Z</time></trkpt><trkpt lat="44.07932361594121" lon="11.159072715170023"><ele>656.5</ele><time>2026-04-26T07:53:26.003Z</time></trkpt><trkpt lat="44.079453151796514" lon="11.158991838121974"><ele>658.0</ele><time>2026-04-26T07:53:27.003Z</time></trkpt><trkpt lat="44.07960494844685" lon="11.15895422832612"><ele>658.0</ele><time>2026-04-26T07:53:28.003Z</time></trkpt><trkpt lat="44.07975604015622" lon="11.15895963367417"><ele>658.0</ele><time>2026-04-26T07:53:29.003Z</time></trkpt><trkpt lat="44.07989353868022" lon="11.158944631532089"><ele>658.0</ele><time>2026-04-26T07:53:30.003Z</time></trkpt><trkpt lat="44.080009016780735" lon="11.1589139482113"><ele>658.0</ele><time>2026-04-26T07:53:31.003Z</time></trkpt><trkpt lat="44.08011547426777" lon="11.15884477786489"><ele>651.25</ele><time>2026-04-26T07:53:32.003Z</time></trkpt><trkpt lat="44.0801826125608" lon="11.158728020951436"><ele>644.5</ele><time>2026-04-26T07:53:33.003Z</time></trkpt><trkpt lat="44.08022299103979" lon="11.158557658396226"><ele>637.75</ele><time>2026-04-26T07:53:34.003Z</time></trkpt><trkpt lat="44.08025392168539" lon="11.158343698703728"><ele>631.0</ele><time>2026-04-26T07:53:35.003Z</time></trkpt><trkpt lat="44.08027433149391" lon="11.158116959649481"><ele>631.0</ele><time>2026-04-26T07:53:36.003Z</time></trkpt><trkpt lat="44.08029123321114" lon="11.157899042390502"><ele>631.0</ele><time>2026-04-26T07:53:37.003Z</time></trkpt><trkpt lat="44.08030696419064" lon="11.157693236047853"><ele>631.0</ele><time>2026-04-26T07:53:38.003Z</time></trkpt><trkpt lat="44.080312212508005" lon="11.15748837865389"><ele>631.5</ele><time>2026-04-26T07:53:39.003Z</time></trkpt><trkpt lat="44.080279581940545" lon="11.157265018988658"><ele>632.0</ele><time>2026-04-26T07:53:40.003Z</time></trkpt><trkpt lat="44.08023022094965" lon="11.15706485801314"><ele>632.5</ele><time>2026-04-26T07:53:41.003Z</time></trkpt><trkpt lat="44.08018560721967" lon="11.156893215114499"><ele>633.0</ele><time>2026-04-26T07:53:42.003Z</time></trkpt><trkpt lat="44.08018141617642" lon="11.156742781117925"><ele>633.0</ele><time>2026-04-26T07:53:43.003Z</time></trkpt><trkpt lat="44.08021309780799" lon="11.15657892900339"><ele>633.0</ele><time>2026-04-26T07:53:44.003Z</time></trkpt><trkpt lat="44.080289763085894" lon="11.156417518970322"><ele>633.0</ele><time>2026-04-26T07:53:45.003Z</time></trkpt><trkpt lat="44.08037139522621" lon="11.156237221478463"><ele>633.0</ele><time>2026-04-26T07:53:46.003Z</time></trkpt><trkpt lat="44.08042899840662" lon="11.156024512139057"><ele>634.25</ele><time>2026-04-26T07:53:47.003Z</time></trkpt><trkpt lat="44.08049424877987" lon="11.155827099101439"><ele>635.5</ele><time>2026-04-26T07:53:48.003Z</time></trkpt><trkpt lat="44.080520700528915" lon="11.15563453125608"><ele>636.75</ele><time>2026-04-26T07:53:49.003Z</time></trkpt><trkpt lat="44.080527656465335" lon="11.155444285666507"><ele>638.0</ele><time>2026-04-26T07:53:50.004Z</time></trkpt><trkpt lat="44.08052829436103" lon="11.1552663590906"><ele>634.75</ele><time>2026-04-26T07:53:51.004Z</time></trkpt><trkpt lat="44.0804694651504" lon="11.155112165396554"><ele>631.5</ele><time>2026-04-26T07:53:52.004Z</time></trkpt><trkpt lat="44.08038222118498" lon="11.154938099837578"><ele>628.25</ele><time>2026-04-26T07:53:53.004Z</time></trkpt><trkpt lat="44.08030873779187" lon="11.154733565574698"><ele>625.0</ele><time>2026-04-26T07:53:54.004Z</time></trkpt><trkpt lat="44.080226827907346" lon="11.154543510077106"><ele>620.6666666666667</ele><time>2026-04-26T07:53:55.004Z</time></trkpt><trkpt lat="44.08012645597841" lon="11.154370500404411"><ele>616.3333333333334</ele><time>2026-04-26T07:53:56.004Z</time></trkpt><trkpt lat="44.08000413087623" lon="11.154238268805429"><ele>612.0</ele><time>2026-04-26T07:53:57.004Z</time></trkpt><trkpt lat="44.07988017572397" lon="11.154113404665571"><ele>603.75</ele><time>2026-04-26T07:53:58.004Z</time></trkpt><trkpt lat="44.07979818794514" lon="11.153983021695446"><ele>595.5</ele><time>2026-04-26T07:53:59.004Z</time></trkpt><trkpt lat="44.07974815719658" lon="11.15382281548345"><ele>587.25</ele><time>2026-04-26T07:54:00.004Z</time></trkpt><trkpt lat="44.07967417804029" lon="11.153682313328254"><ele>579.0</ele><time>2026-04-26T07:54:01.004Z</time></trkpt><trkpt lat="44.07956941636608" lon="11.153600781920588"><ele>579.0</ele><time>2026-04-26T07:54:02.004Z</time></trkpt><trkpt lat="44.0794424311259" lon="11.153589041639256"><ele>579.0</ele><time>2026-04-26T07:54:03.004Z</time></trkpt><trkpt lat="44.0793010289393" lon="11.153619787558258"><ele>579.0</ele><time>2026-04-26T07:54:04.004Z</time></trkpt><trkpt lat="44.079152692117965" lon="11.153625605001118"><ele>579.0</ele><time>2026-04-26T07:54:05.004Z</time></trkpt><trkpt lat="44.07902041707419" lon="11.15361026108726"><ele>584.2</ele><time>2026-04-26T07:54:06.004Z</time></trkpt><trkpt lat="44.07888532334411" lon="11.153637524828827"><ele>589.4</ele><time>2026-04-26T07:54:07.004Z</time></trkpt><trkpt lat="44.0787842882866" lon="11.153713358235533"><ele>594.6</ele><time>2026-04-26T07:54:08.004Z</time></trkpt><trkpt lat="44.078707593768236" lon="11.153716596001805"><ele>599.8</ele><time>2026-04-26T07:54:09.004Z</time></trkpt><trkpt lat="44.07864585290083" lon="11.153686757469425"><ele>605.0</ele><time>2026-04-26T07:54:10.004Z</time></trkpt><trkpt lat="44.078606139904906" lon="11.153571592522638"><ele>605.0</ele><time>2026-04-26T07:54:11.004Z</time></trkpt><trkpt lat="44.07861495712929" lon="11.15338980630566"><ele>605.0</ele><time>2026-04-26T07:54:12.004Z</time></trkpt><trkpt lat="44.07863883316739" lon="11.153207316353116"><ele>605.0</ele><time>2026-04-26T07:54:13.004Z</time></trkpt><trkpt lat="44.07866156646088" lon="11.153037104932427"><ele>605.0</ele><time>2026-04-26T07:54:14.004Z</time></trkpt><trkpt lat="44.07866698801217" lon="11.152911584713662"><ele>597.75</ele><time>2026-04-26T07:54:15.004Z</time></trkpt><trkpt lat="44.078594071498415" lon="11.152809072724482"><ele>590.5</ele><time>2026-04-26T07:54:16.004Z</time></trkpt><trkpt lat="44.078496658820406" lon="11.152689687402486"><ele>583.25</ele><time>2026-04-26T07:54:17.004Z</time></trkpt><trkpt lat="44.07839708198921" lon="11.152581604142398"><ele>576.0</ele><time>2026-04-26T07:54:18.004Z</time></trkpt><trkpt lat="44.07829979692923" lon="11.152517360858404"><ele>575.6666666666666</ele><time>2026-04-26T07:54:19.004Z</time></trkpt><trkpt lat="44.078193728726085" lon="11.15250782001301"><ele>575.3333333333334</ele><time>2026-04-26T07:54:20.004Z</time></trkpt><trkpt lat="44.078130660996855" lon="11.15248355847905"><ele>575.0</ele><time>2026-04-26T07:54:21.004Z</time></trkpt><trkpt lat="44.078096867318024" lon="11.152381703067082"><ele>574.6666666666667</ele><time>2026-04-26T07:54:22.004Z</time></trkpt><trkpt lat="44.078089028933555" lon="11.152261661807263"><ele>574.3333333333334</ele><time>2026-04-26T07:54:23.004Z</time></trkpt><trkpt lat="44.078050011794026" lon="11.152139840001025"><ele>574.0</ele><time>2026-04-26T07:54:24.004Z</time></trkpt><trkpt lat="44.0779697890208" lon="11.152026604684114"><ele>574.0</ele><time>2026-04-26T07:54:25.004Z</time></trkpt><trkpt lat="44.077857148488086" lon="11.15193444584602"><ele>574.0</ele><time>2026-04-26T07:54:26.004Z</time></trkpt><trkpt lat="44.07774213153362" lon="11.151848099028218"><ele>574.0</ele><time>2026-04-26T07:54:27.004Z</time></trkpt><trkpt lat="44.077654736606334" lon="11.151707494051358"><ele>574.0</ele><time>2026-04-26T07:54:28.004Z</time></trkpt><trkpt lat="44.07759093530218" lon="11.151587548567624"><ele>577.6</ele><time>2026-04-26T07:54:29.004Z</time></trkpt><trkpt lat="44.077519688875505" lon="11.151532721898832"><ele>581.2</ele><time>2026-04-26T07:54:30.004Z</time></trkpt><trkpt lat="44.07741238451283" lon="11.151496189181877"><ele>584.8000000000001</ele><time>2026-04-26T07:54:31.004Z</time></trkpt><trkpt lat="44.07729440833863" lon="11.151519482756783"><ele>588.4</ele><time>2026-04-26T07:54:32.004Z</time></trkpt><trkpt lat="44.077181424640806" lon="11.151543375539703"><ele>592.0</ele><time>2026-04-26T07:54:33.004Z</time></trkpt><trkpt lat="44.077104004032705" lon="11.151575663718226"><ele>592.0</ele><time>2026-04-26T07:54:34.004Z</time></trkpt><trkpt lat="44.07702962858842" lon="11.151559748999576"><ele>592.0</ele><time>2026-04-26T07:54:35.004Z</time></trkpt><trkpt lat="44.07697369241144" lon="11.151492220390685"><ele>592.0</ele><time>2026-04-26T07:54:36.004Z</time></trkpt><trkpt lat="44.07694662647044" lon="11.151344248062108"><ele>592.0</ele><time>2026-04-26T07:54:37.004Z</time></trkpt><trkpt lat="44.07691195720465" lon="11.151205453534416"><ele>592.0</ele><time>2026-04-26T07:54:38.004Z</time></trkpt><trkpt lat="44.076856313037716" lon="11.151097385496167"><ele>586.0</ele><time>2026-04-26T07:54:39.004Z</time></trkpt><trkpt lat="44.07675543342879" lon="11.151024783187369"><ele>580.0</ele><time>2026-04-26T07:54:40.004Z</time></trkpt><trkpt lat="44.07661906327956" lon="11.15101442547125"><ele>574.0</ele><time>2026-04-26T07:54:41.004Z</time></trkpt><trkpt lat="44.0764833070289" lon="11.151013772780072"><ele>568.0</ele><time>2026-04-26T07:54:42.004Z</time></trkpt><trkpt lat="44.076337931080744" lon="11.15102923709167"><ele>568.0</ele><time>2026-04-26T07:54:43.004Z</time></trkpt><trkpt lat="44.076210117833476" lon="11.151073324576034"><ele>568.0</ele><time>2026-04-26T07:54:44.004Z</time></trkpt><trkpt lat="44.07609125177927" lon="11.151089070877802"><ele>568.0</ele><time>2026-04-26T07:54:45.004Z</time></trkpt><trkpt lat="44.075997114977255" lon="11.151082077586459"><ele>568.0</ele><time>2026-04-26T07:54:46.004Z</time></trkpt><trkpt lat="44.07593003157182" lon="11.151038340603497"><ele>568.0</ele><time>2026-04-26T07:54:47.004Z</time></trkpt><trkpt lat="44.07587989273408" lon="11.1509097920051"><ele>568.0</ele><time>2026-04-26T07:54:48.004Z</time></trkpt><trkpt lat="44.07584033320201" lon="11.150746549536787"><ele>568.0</ele><time>2026-04-26T07:54:49.004Z</time></trkpt><trkpt lat="44.075793683726985" lon="11.150579259138983"><ele>568.0</ele><time>2026-04-26T07:54:50.004Z</time></trkpt><trkpt lat="44.07572695629691" lon="11.150437233110008"><ele>568.0</ele><time>2026-04-26T07:54:51.004Z</time></trkpt><trkpt lat="44.075649940895865" lon="11.150351578029653"><ele>563.8</ele><time>2026-04-26T07:54:52.004Z</time></trkpt><trkpt lat="44.07556554765261" lon="11.15028778478871"><ele>559.5999999999999</ele><time>2026-04-26T07:54:53.004Z</time></trkpt><trkpt lat="44.075433331346595" lon="11.150308104302955"><ele>555.4000000000001</ele><time>2026-04-26T07:54:54.004Z</time></trkpt><trkpt lat="44.075326344368534" lon="11.150363473968062"><ele>551.2</ele><time>2026-04-26T07:54:55.004Z</time></trkpt><trkpt lat="44.07523262499878" lon="11.150350710977277"><ele>547.0</ele><time>2026-04-26T07:54:56.004Z</time></trkpt><trkpt lat="44.075133257165014" lon="11.150273164443252"><ele>547.0</ele><time>2026-04-26T07:54:57.004Z</time></trkpt><trkpt lat="44.075019922662726" lon="11.150197227201865"><ele>547.0</ele><time>2026-04-26T07:54:58.004Z</time></trkpt><trkpt lat="44.07492359217201" lon="11.150131093023587"><ele>547.0</ele><time>2026-04-26T07:54:59.004Z</time></trkpt><trkpt lat="44.07480762544378" lon="11.150162126771034"><ele>547.0</ele><time>2026-04-26T07:55:00.004Z</time></trkpt><trkpt lat="44.07469770634799" lon="11.1502005770589"><ele>545.5</ele><time>2026-04-26T07:55:01.004Z</time></trkpt><trkpt lat="44.07461491636187" lon="11.150360592593522"><ele>544.0</ele><time>2026-04-26T07:55:02.004Z</time></trkpt><trkpt lat="44.0745410022684" lon="11.150494192445864"><ele>542.5</ele><time>2026-04-26T07:55:03.004Z</time></trkpt><trkpt lat="44.074468518063554" lon="11.1506062383462"><ele>541.0</ele><time>2026-04-26T07:55:04.004Z</time></trkpt><trkpt lat="44.07439473324429" lon="11.15068626989449"><ele>541.0</ele><time>2026-04-26T07:55:05.004Z</time></trkpt><trkpt lat="44.074301664185064" lon="11.150676126120452"><ele>541.0</ele><time>2026-04-26T07:55:06.004Z</time></trkpt><trkpt lat="44.074211241109346" lon="11.15061685481384"><ele>541.0</ele><time>2026-04-26T07:55:07.004Z</time></trkpt><trkpt lat="44.07412408611276" lon="11.150500619620523"><ele>541.0</ele><time>2026-04-26T07:55:08.004Z</time></trkpt><trkpt lat="44.074042236682175" lon="11.150367100732115"><ele>541.0</ele><time>2026-04-26T07:55:09.004Z</time></trkpt><trkpt lat="44.07394706288186" lon="11.150210778380789"><ele>537.0</ele><time>2026-04-26T07:55:10.004Z</time></trkpt><trkpt lat="44.07384955778471" lon="11.150069794150506"><ele>533.0</ele><time>2026-04-26T07:55:11.004Z</time></trkpt><trkpt lat="44.07375015126219" lon="11.149957954232024"><ele>529.0</ele><time>2026-04-26T07:55:12.004Z</time></trkpt><trkpt lat="44.07363504755151" lon="11.149868919013528"><ele>525.0</ele><time>2026-04-26T07:55:13.004Z</time></trkpt><trkpt lat="44.07349877642361" lon="11.14980247094307"><ele>525.0</ele><time>2026-04-26T07:55:14.004Z</time></trkpt><trkpt lat="44.073341992636486" lon="11.149741739399689"><ele>525.0</ele><time>2026-04-26T07:55:15.004Z</time></trkpt><trkpt lat="44.07317674678963" lon="11.149676779127747"><ele>525.0</ele><time>2026-04-26T07:55:16.004Z</time></trkpt><trkpt lat="44.0730129688875" lon="11.149620943987877"><ele>527.6666666666666</ele><time>2026-04-26T07:55:17.004Z</time></trkpt><trkpt lat="44.07285523241048" lon="11.149581934080432"><ele>530.3333333333333</ele><time>2026-04-26T07:55:18.004Z</time></trkpt><trkpt lat="44.07270008493154" lon="11.149537639271335"><ele>533.0</ele><time>2026-04-26T07:55:19.004Z</time></trkpt><trkpt lat="44.072553140148415" lon="11.149501782698703"><ele>530.6666666666666</ele><time>2026-04-26T07:55:20.004Z</time></trkpt><trkpt lat="44.07240044048073" lon="11.149479228496347"><ele>528.3333333333334</ele><time>2026-04-26T07:55:21.004Z</time></trkpt><trkpt lat="44.07224157972059" lon="11.149490590830425"><ele>526.0</ele><time>2026-04-26T07:55:22.004Z</time></trkpt><trkpt lat="44.072080107906416" lon="11.149494439754648"><ele>526.0</ele><time>2026-04-26T07:55:23.004Z</time></trkpt><trkpt lat="44.07191569199044" lon="11.149526628071898"><ele>526.0</ele><time>2026-04-26T07:55:24.004Z</time></trkpt><trkpt lat="44.0717332997404" lon="11.149615623981722"><ele>526.0</ele><time>2026-04-26T07:55:25.004Z</time></trkpt><trkpt lat="44.07151738243741" lon="11.149632854076305"><ele>522.0</ele><time>2026-04-26T07:55:26.004Z</time></trkpt><trkpt lat="44.07131136296324" lon="11.149666047776387"><ele>518.0</ele><time>2026-04-26T07:55:27.004Z</time></trkpt><trkpt lat="44.071100015290924" lon="11.14969787305056"><ele>514.0</ele><time>2026-04-26T07:55:28.004Z</time></trkpt><trkpt lat="44.07089256385268" lon="11.149724261291482"><ele>510.0</ele><time>2026-04-26T07:55:29.004Z</time></trkpt><trkpt lat="44.07070806826463" lon="11.149742524666314"><ele>506.0</ele><time>2026-04-26T07:55:30.004Z</time></trkpt><trkpt lat="44.07054114582037" lon="11.149763723808837"><ele>502.0</ele><time>2026-04-26T07:55:31.004Z</time></trkpt><trkpt lat="44.07040202379833" lon="11.149752575587323"><ele>502.0</ele><time>2026-04-26T07:55:32.004Z</time></trkpt><trkpt lat="44.07026069388854" lon="11.149713393604056"><ele>502.0</ele><time>2026-04-26T07:55:33.004Z</time></trkpt><trkpt lat="44.07013588794535" lon="11.149647713949967"><ele>502.0</ele><time>2026-04-26T07:55:34.004Z</time></trkpt><trkpt lat="44.07004750910958" lon="11.149614818720766"><ele>502.0</ele><time>2026-04-26T07:55:35.004Z</time></trkpt><trkpt lat="44.06995048952037" lon="11.14967003269539"><ele>498.75</ele><time>2026-04-26T07:55:36.004Z</time></trkpt><trkpt lat="44.06988181723766" lon="11.1497942896515"><ele>495.5</ele><time>2026-04-26T07:55:37.004Z</time></trkpt><trkpt lat="44.06980425526886" lon="11.149950704524782"><ele>492.25</ele><time>2026-04-26T07:55:38.004Z</time></trkpt><trkpt lat="44.06970695123136" lon="11.15009609858789"><ele>489.0</ele><time>2026-04-26T07:55:39.004Z</time></trkpt><trkpt lat="44.069590935681845" lon="11.150178275366194"><ele>498.66666666666663</ele><time>2026-04-26T07:55:40.004Z</time></trkpt><trkpt lat="44.069459226893585" lon="11.150224961533667"><ele>508.3333333333333</ele><time>2026-04-26T07:55:41.004Z</time></trkpt><trkpt lat="44.069298588177325" lon="11.150235557891802"><ele>518.0</ele><time>2026-04-26T07:55:42.004Z</time></trkpt><trkpt lat="44.0691328335671" lon="11.150262390623352"><ele>511.66666666666663</ele><time>2026-04-26T07:55:43.004Z</time></trkpt><trkpt lat="44.06893459470524" lon="11.150269410648866"><ele>505.33333333333337</ele><time>2026-04-26T07:55:44.004Z</time></trkpt><trkpt lat="44.06876674055739" lon="11.150254346188511"><ele>499.0</ele><time>2026-04-26T07:55:45.004Z</time></trkpt><trkpt lat="44.068641120719796" lon="11.150257129711067"><ele>499.0</ele><time>2026-04-26T07:55:46.004Z</time></trkpt><trkpt lat="44.06853620132137" lon="11.150267187357446"><ele>499.0</ele><time>2026-04-26T07:55:47.004Z</time></trkpt><trkpt lat="44.068447741251404" lon="11.150335229045108"><ele>499.0</ele><time>2026-04-26T07:55:48.004Z</time></trkpt><trkpt lat="44.0683601206804" lon="11.150425047937235"><ele>499.0</ele><time>2026-04-26T07:55:49.004Z</time></trkpt><trkpt lat="44.06827284436959" lon="11.150578371847987"><ele>500.25</ele><time>2026-04-26T07:55:50.004Z</time></trkpt><trkpt lat="44.06819937276642" lon="11.150724769605374"><ele>501.5</ele><time>2026-04-26T07:55:51.004Z</time></trkpt><trkpt lat="44.06812186386958" lon="11.150850629717384"><ele>502.75</ele><time>2026-04-26T07:55:52.004Z</time></trkpt><trkpt lat="44.06804570121373" lon="11.150944892515602"><ele>504.0</ele><time>2026-04-26T07:55:53.004Z</time></trkpt><trkpt lat="44.067926101496845" lon="11.150942931910068"><ele>504.0</ele><time>2026-04-26T07:55:54.004Z</time></trkpt><trkpt lat="44.067808985195576" lon="11.150887063016652"><ele>504.0</ele><time>2026-04-26T07:55:55.004Z</time></trkpt><trkpt lat="44.06770614422132" lon="11.150808377001487"><ele>504.0</ele><time>2026-04-26T07:55:56.004Z</time></trkpt><trkpt lat="44.06759767833247" lon="11.150780796832699"><ele>504.0</ele><time>2026-04-26T07:55:57.004Z</time></trkpt><trkpt lat="44.067477345557656" lon="11.15081742828501"><ele>498.33333333333337</ele><time>2026-04-26T07:55:58.004Z</time></trkpt><trkpt lat="44.06734327401706" lon="11.150903535854372"><ele>492.6666666666667</ele><time>2026-04-26T07:55:59.004Z</time></trkpt><trkpt lat="44.06719717568595" lon="11.151019336238315"><ele>487.0</ele><time>2026-04-26T07:56:00.004Z</time></trkpt><trkpt lat="44.06704565668081" lon="11.151139853737057"><ele>487.0</ele><time>2026-04-26T07:56:01.004Z</time></trkpt><trkpt lat="44.06689046399881" lon="11.151259704738695"><ele>487.0</ele><time>2026-04-26T07:56:02.004Z</time></trkpt><trkpt lat="44.06673245725339" lon="11.15138971342718"><ele>487.0</ele><time>2026-04-26T07:56:03.004Z</time></trkpt><trkpt lat="44.06659426464462" lon="11.151515169195669"><ele>486.6666666666667</ele><time>2026-04-26T07:56:04.004Z</time></trkpt><trkpt lat="44.066460932737535" lon="11.151638198285596"><ele>486.33333333333337</ele><time>2026-04-26T07:56:05.004Z</time></trkpt><trkpt lat="44.066337352093285" lon="11.151767039818818"><ele>486.0</ele><time>2026-04-26T07:56:06.004Z</time></trkpt><trkpt lat="44.066217435644035" lon="11.151889283998946"><ele>486.0</ele><time>2026-04-26T07:56:07.004Z</time></trkpt><trkpt lat="44.066115659660554" lon="11.152013244326021"><ele>486.0</ele><time>2026-04-26T07:56:08.004Z</time></trkpt><trkpt lat="44.066007308618225" lon="11.152096348313712"><ele>486.0</ele><time>2026-04-26T07:56:09.004Z</time></trkpt><trkpt lat="44.065878455633445" lon="11.152132961566664"><ele>486.0</ele><time>2026-04-26T07:56:10.004Z</time></trkpt><trkpt lat="44.065738021370535" lon="11.152125995471987"><ele>483.0</ele><time>2026-04-26T07:56:11.004Z</time></trkpt><trkpt lat="44.065585506226604" lon="11.152092778625029"><ele>480.0</ele><time>2026-04-26T07:56:12.004Z</time></trkpt><trkpt lat="44.065430735606974" lon="11.152070164294537"><ele>477.0</ele><time>2026-04-26T07:56:13.004Z</time></trkpt><trkpt lat="44.06528381018491" lon="11.152095321720093"><ele>477.0</ele><time>2026-04-26T07:56:14.004Z</time></trkpt><trkpt lat="44.06512184855265" lon="11.152171442494629"><ele>477.0</ele><time>2026-04-26T07:56:15.004Z</time></trkpt><trkpt lat="44.064968416845865" lon="11.1522602996051"><ele>477.0</ele><time>2026-04-26T07:56:16.004Z</time></trkpt><trkpt lat="44.064830992868934" lon="11.152330463789058"><ele>479.75</ele><time>2026-04-26T07:56:17.004Z</time></trkpt><trkpt lat="44.064713253473656" lon="11.152394220259803"><ele>482.5</ele><time>2026-04-26T07:56:18.004Z</time></trkpt><trkpt lat="44.064598470634465" lon="11.152419685550077"><ele>485.25</ele><time>2026-04-26T07:56:19.004Z</time></trkpt><trkpt lat="44.06449504244916" lon="11.152419817437883"><ele>488.0</ele><time>2026-04-26T07:56:20.004Z</time></trkpt><trkpt lat="44.06440669120357" lon="11.152308208584097"><ele>482.5</ele><time>2026-04-26T07:56:21.004Z</time></trkpt><trkpt lat="44.06429958279871" lon="11.152197254643623"><ele>477.0</ele><time>2026-04-26T07:56:22.004Z</time></trkpt><trkpt lat="44.06420074642559" lon="11.152062195479896"><ele>471.5</ele><time>2026-04-26T07:56:23.004Z</time></trkpt><trkpt lat="44.06409768531637" lon="11.151956658501055"><ele>466.0</ele><time>2026-04-26T07:56:24.004Z</time></trkpt><trkpt lat="44.06399214283032" lon="11.15188355974378"><ele>463.75</ele><time>2026-04-26T07:56:25.004Z</time></trkpt><trkpt lat="44.063885512547614" lon="11.151851576219068"><ele>461.5</ele><time>2026-04-26T07:56:26.004Z</time></trkpt><trkpt lat="44.06375629428565" lon="11.151861099024073"><ele>459.25</ele><time>2026-04-26T07:56:27.004Z</time></trkpt><trkpt lat="44.06361015576037" lon="11.151904014049974"><ele>457.0</ele><time>2026-04-26T07:56:28.004Z</time></trkpt><trkpt lat="44.06345640322108" lon="11.151978684830024"><ele>457.0</ele><time>2026-04-26T07:56:29.004Z</time></trkpt><trkpt lat="44.06331050963708" lon="11.152036276440715"><ele>457.00000000000006</ele><time>2026-04-26T07:56:30.004Z</time></trkpt><trkpt lat="44.06320377036063" lon="11.152078666029194"><ele>457.00000000000006</ele><time>2026-04-26T07:56:31.004Z</time></trkpt><trkpt lat="44.063134770454035" lon="11.15212475511254"><ele>457.0</ele><time>2026-04-26T07:56:32.004Z</time></trkpt><trkpt lat="44.06307464176621" lon="11.152183612202922"><ele>457.0</ele><time>2026-04-26T07:56:33.004Z</time></trkpt><trkpt lat="44.06303220199609" lon="11.152296244852499"><ele>453.5</ele><time>2026-04-26T07:56:34.004Z</time></trkpt><trkpt lat="44.06300788883745" lon="11.152464933167744"><ele>450.0</ele><time>2026-04-26T07:56:35.004Z</time></trkpt><trkpt lat="44.06296250316113" lon="11.152650852323857"><ele>446.5</ele><time>2026-04-26T07:56:36.004Z</time></trkpt><trkpt lat="44.06289794485961" lon="11.152875538204473"><ele>443.0</ele><time>2026-04-26T07:56:37.004Z</time></trkpt><trkpt lat="44.062831493819836" lon="11.15310068224148"><ele>445.66666666666663</ele><time>2026-04-26T07:56:38.004Z</time></trkpt><trkpt lat="44.06277509538219" lon="11.153321502671266"><ele>448.33333333333337</ele><time>2026-04-26T07:56:39.004Z</time></trkpt><trkpt lat="44.06271023010126" lon="11.153549473703743"><ele>451.0</ele><time>2026-04-26T07:56:40.004Z</time></trkpt><trkpt lat="44.062638064617644" lon="11.153779895264073"><ele>451.0</ele><time>2026-04-26T07:56:41.004Z</time></trkpt><trkpt lat="44.06257172979149" lon="11.15400376609861"><ele>451.0</ele><time>2026-04-26T07:56:42.004Z</time></trkpt><trkpt lat="44.062522058232574" lon="11.154198832050241"><ele>451.0</ele><time>2026-04-26T07:56:43.004Z</time></trkpt><trkpt lat="44.06249325722641" lon="11.15435880588039"><ele>451.0</ele><time>2026-04-26T07:56:44.004Z</time></trkpt><trkpt lat="44.06245742305843" lon="11.154488660894964"><ele>447.0</ele><time>2026-04-26T07:56:45.004Z</time></trkpt><trkpt lat="44.06239750933146" lon="11.15461342624557"><ele>443.0</ele><time>2026-04-26T07:56:46.004Z</time></trkpt><trkpt lat="44.062321056475234" lon="11.154722350138353"><ele>439.0</ele><time>2026-04-26T07:56:47.004Z</time></trkpt><trkpt lat="44.06221595681524" lon="11.154744762927884"><ele>435.0</ele><time>2026-04-26T07:56:48.004Z</time></trkpt><trkpt lat="44.06208728136662" lon="11.154718038663914"><ele>435.0</ele><time>2026-04-26T07:56:49.004Z</time></trkpt><trkpt lat="44.0619637403387" lon="11.154644993766045"><ele>435.0</ele><time>2026-04-26T07:56:50.004Z</time></trkpt><trkpt lat="44.0618283765348" lon="11.154550156741289"><ele>435.0</ele><time>2026-04-26T07:56:51.004Z</time></trkpt><trkpt lat="44.06172066827261" lon="11.15449962169705"><ele>435.0</ele><time>2026-04-26T07:56:52.004Z</time></trkpt><trkpt lat="44.061611701758174" lon="11.154467803109615"><ele>436.0</ele><time>2026-04-26T07:56:53.004Z</time></trkpt><trkpt lat="44.06152318325181" lon="11.154446011640372"><ele>437.0</ele><time>2026-04-26T07:56:54.004Z</time></trkpt><trkpt lat="44.061457587607066" lon="11.154483896403006"><ele>438.0</ele><time>2026-04-26T07:56:55.004Z</time></trkpt><trkpt lat="44.06141945223508" lon="11.154598994999132"><ele>439.0</ele><time>2026-04-26T07:56:56.004Z</time></trkpt><trkpt lat="44.061355087638375" lon="11.154740213280926"><ele>440.0</ele><time>2026-04-26T07:56:57.004Z</time></trkpt><trkpt lat="44.06127307236216" lon="11.154913703960169"><ele>440.0</ele><time>2026-04-26T07:56:58.004Z</time></trkpt><trkpt lat="44.061183112518265" lon="11.155090760029115"><ele>440.0</ele><time>2026-04-26T07:56:59.004Z</time></trkpt><trkpt lat="44.06111027350392" lon="11.15525610391025"><ele>440.0</ele><time>2026-04-26T07:57:00.004Z</time></trkpt><trkpt lat="44.06105827542025" lon="11.155450249051611"><ele>440.0</ele><time>2026-04-26T07:57:01.004Z</time></trkpt><trkpt lat="44.06104027811168" lon="11.155647276196502"><ele>440.5</ele><time>2026-04-26T07:57:02.004Z</time></trkpt><trkpt lat="44.061005939873866" lon="11.15584919121695"><ele>441.0</ele><time>2026-04-26T07:57:03.004Z</time></trkpt><trkpt lat="44.06097302634763" lon="11.156048457112824"><ele>441.5</ele><time>2026-04-26T07:57:04.004Z</time></trkpt><trkpt lat="44.060928149637874" lon="11.156203367078662"><ele>442.0</ele><time>2026-04-26T07:57:05.004Z</time></trkpt><trkpt lat="44.06089870408619" lon="11.15634508178897"><ele>442.00000000000006</ele><time>2026-04-26T07:57:06.004Z</time></trkpt><trkpt lat="44.06085121929838" lon="11.156412275979765"><ele>442.0</ele><time>2026-04-26T07:57:07.004Z</time></trkpt><trkpt lat="44.0607704710958" lon="11.15644680174547"><ele>442.0</ele><time>2026-04-26T07:57:08.004Z</time></trkpt><trkpt lat="44.06068720844674" lon="11.156443904704226"><ele>442.0</ele><time>2026-04-26T07:57:09.004Z</time></trkpt><trkpt lat="44.060609282625094" lon="11.156382412538672"><ele>442.00000000000006</ele><time>2026-04-26T07:57:10.004Z</time></trkpt><trkpt lat="44.06053452743864" lon="11.156254764327123"><ele>442.0</ele><time>2026-04-26T07:57:11.004Z</time></trkpt><trkpt lat="44.060464746764275" lon="11.156078848166167"><ele>438.25</ele><time>2026-04-26T07:57:12.004Z</time></trkpt><trkpt lat="44.06037536121907" lon="11.15591282716917"><ele>434.5</ele><time>2026-04-26T07:57:13.004Z</time></trkpt><trkpt lat="44.06027994746799" lon="11.155746610124762"><ele>430.75</ele><time>2026-04-26T07:57:14.004Z</time></trkpt><trkpt lat="44.06018903512066" lon="11.155593199169664"><ele>427.0</ele><time>2026-04-26T07:57:15.004Z</time></trkpt><trkpt lat="44.06012783498224" lon="11.155450023527184"><ele>426.75</ele><time>2026-04-26T07:57:16.004Z</time></trkpt><trkpt lat="44.06008599491534" lon="11.15530311936339"><ele>426.5</ele><time>2026-04-26T07:57:17.004Z</time></trkpt><trkpt lat="44.06008349008964" lon="11.155147897511126"><ele>426.25</ele><time>2026-04-26T07:57:18.004Z</time></trkpt><trkpt lat="44.06011166660806" lon="11.15500881282185"><ele>426.0</ele><time>2026-04-26T07:57:19.004Z</time></trkpt><trkpt lat="44.06019770533099" lon="11.154856687802248"><ele>423.0</ele><time>2026-04-26T07:57:20.004Z</time></trkpt><trkpt lat="44.06028227131145" lon="11.154685592282071"><ele>420.0</ele><time>2026-04-26T07:57:21.004Z</time></trkpt><trkpt lat="44.06036792093719" lon="11.15452567166316"><ele>417.0</ele><time>2026-04-26T07:57:22.004Z</time></trkpt><trkpt lat="44.0604426453562" lon="11.15439274276177"><ele>414.0</ele><time>2026-04-26T07:57:23.004Z</time></trkpt><trkpt lat="44.06050092190078" lon="11.154274329666396"><ele>414.0</ele><time>2026-04-26T07:57:24.004Z</time></trkpt><trkpt lat="44.06057232863598" lon="11.15417860483092"><ele>414.0</ele><time>2026-04-26T07:57:25.004Z</time></trkpt><trkpt lat="44.06066578618879" lon="11.154128835327207"><ele>414.0</ele><time>2026-04-26T07:57:26.004Z</time></trkpt><trkpt lat="44.06079891703684" lon="11.154134742744152"><ele>414.0</ele><time>2026-04-26T07:57:27.004Z</time></trkpt><trkpt lat="44.060954304416356" lon="11.154139231281542"><ele>417.66666666666663</ele><time>2026-04-26T07:57:28.004Z</time></trkpt><trkpt lat="44.061111060019336" lon="11.15405584934958"><ele>421.3333333333333</ele><time>2026-04-26T07:57:29.004Z</time></trkpt><trkpt lat="44.06125296692766" lon="11.153984689105036"><ele>425.0</ele><time>2026-04-26T07:57:30.004Z</time></trkpt><trkpt lat="44.0613826573842" lon="11.15393599664969"><ele>422.6</ele><time>2026-04-26T07:57:31.004Z</time></trkpt><trkpt lat="44.061496614953185" lon="11.15390187584882"><ele>420.2</ele><time>2026-04-26T07:57:32.004Z</time></trkpt><trkpt lat="44.06159805442418" lon="11.153866704317073"><ele>417.79999999999995</ele><time>2026-04-26T07:57:33.004Z</time></trkpt><trkpt lat="44.061677468803055" lon="11.15379709264943"><ele>415.4</ele><time>2026-04-26T07:57:34.004Z</time></trkpt><trkpt lat="44.06173116674769" lon="11.15368263044454"><ele>413.0</ele><time>2026-04-26T07:57:35.004Z</time></trkpt><trkpt lat="44.06175313265741" lon="11.153533921621012"><ele>413.0</ele><time>2026-04-26T07:57:36.004Z</time></trkpt><trkpt lat="44.061766002202845" lon="11.153344685924193"><ele>413.0</ele><time>2026-04-26T07:57:37.004Z</time></trkpt><trkpt lat="44.061768902559535" lon="11.1531200463695"><ele>413.0</ele><time>2026-04-26T07:57:38.004Z</time></trkpt><trkpt lat="44.061774719703486" lon="11.15291938373539"><ele>413.0</ele><time>2026-04-26T07:57:39.004Z</time></trkpt><trkpt lat="44.061768675177404" lon="11.152740094365138"><ele>411.59999999999997</ele><time>2026-04-26T07:57:40.004Z</time></trkpt><trkpt lat="44.061779534548684" lon="11.152588784566815"><ele>410.2</ele><time>2026-04-26T07:57:41.004Z</time></trkpt><trkpt lat="44.06181991902039" lon="11.15246888479324"><ele>408.8</ele><time>2026-04-26T07:57:42.004Z</time></trkpt><trkpt lat="44.06190733040803" lon="11.152410466752627"><ele>407.4</ele><time>2026-04-26T07:57:43.004Z</time></trkpt><trkpt lat="44.06198330958804" lon="11.152278008165016"><ele>406.0</ele><time>2026-04-26T07:57:44.004Z</time></trkpt><trkpt lat="44.062028218848376" lon="11.152090743538164"><ele>399.0</ele><time>2026-04-26T07:57:45.004Z</time></trkpt><trkpt lat="44.06208395938182" lon="11.151903251484185"><ele>392.0</ele><time>2026-04-26T07:57:46.004Z</time></trkpt><trkpt lat="44.06214437714101" lon="11.151695713579224"><ele>385.0</ele><time>2026-04-26T07:57:47.004Z</time></trkpt><trkpt lat="44.062207529530895" lon="11.151508009404724"><ele>379.0</ele><time>2026-04-26T07:57:48.004Z</time></trkpt><trkpt lat="44.062262094852876" lon="11.15131035505972"><ele>373.0</ele><time>2026-04-26T07:57:49.004Z</time></trkpt><trkpt lat="44.06231917955309" lon="11.151106134511213"><ele>367.0</ele><time>2026-04-26T07:57:50.004Z</time></trkpt><trkpt lat="44.062338037244665" lon="11.150895956398058"><ele>365.0</ele><time>2026-04-26T07:57:51.004Z</time></trkpt><trkpt lat="44.06233522009883" lon="11.150692902466007"><ele>363.0</ele><time>2026-04-26T07:57:52.004Z</time></trkpt><trkpt lat="44.06233394860328" lon="11.150519242424973"><ele>361.0</ele><time>2026-04-26T07:57:53.004Z</time></trkpt><trkpt lat="44.06232343308702" lon="11.150380808548052"><ele>359.0</ele><time>2026-04-26T07:57:54.004Z</time></trkpt><trkpt lat="44.0623524806172" lon="11.150232788262295"><ele>359.0</ele><time>2026-04-26T07:57:55.004Z</time></trkpt><trkpt lat="44.06241691249712" lon="11.150109154263943"><ele>359.0</ele><time>2026-04-26T07:57:56.004Z</time></trkpt><trkpt lat="44.06251823017381" lon="11.15005666715007"><ele>359.0</ele><time>2026-04-26T07:57:57.004Z</time></trkpt><trkpt lat="44.06262503206262" lon="11.150034597966771"><ele>359.0</ele><time>2026-04-26T07:57:58.004Z</time></trkpt><trkpt lat="44.06273503740797" lon="11.14998723960233"><ele>359.0</ele><time>2026-04-26T07:57:59.004Z</time></trkpt><trkpt lat="44.062844225056715" lon="11.150018287880034"><ele>365.2</ele><time>2026-04-26T07:58:00.004Z</time></trkpt><trkpt lat="44.06291939342485" lon="11.150088778866726"><ele>371.4</ele><time>2026-04-26T07:58:01.004Z</time></trkpt><trkpt lat="44.062992536763275" lon="11.15014402046308"><ele>377.6</ele><time>2026-04-26T07:58:02.004Z</time></trkpt><trkpt lat="44.06305342222626" lon="11.150175088483207"><ele>383.8</ele><time>2026-04-26T07:58:03.004Z</time></trkpt><trkpt lat="44.06315598491665" lon="11.150114392531222"><ele>390.0</ele><time>2026-04-26T07:58:04.004Z</time></trkpt><trkpt lat="44.063205705773825" lon="11.14995453916969"><ele>384.75</ele><time>2026-04-26T07:58:05.004Z</time></trkpt><trkpt lat="44.063148133042176" lon="11.149758128452214"><ele>379.5</ele><time>2026-04-26T07:58:06.004Z</time></trkpt><trkpt lat="44.0630914351501" lon="11.149575464286919"><ele>374.25</ele><time>2026-04-26T07:58:07.004Z</time></trkpt><trkpt lat="44.06302490973082" lon="11.149396933041048"><ele>369.0</ele><time>2026-04-26T07:58:08.005Z</time></trkpt><trkpt lat="44.06297271664082" lon="11.149248261521569"><ele>369.0</ele><time>2026-04-26T07:58:09.005Z</time></trkpt><trkpt lat="44.062950187840585" lon="11.149117455949641"><ele>369.0</ele><time>2026-04-26T07:58:10.005Z</time></trkpt><trkpt lat="44.06296748705372" lon="11.14901520170547"><ele>369.0</ele><time>2026-04-26T07:58:11.005Z</time></trkpt><trkpt lat="44.06300877366393" lon="11.148927120266388"><ele>369.0</ele><time>2026-04-26T07:58:12.005Z</time></trkpt><trkpt lat="44.0630749652197" lon="11.148815541709498"><ele>369.0</ele><time>2026-04-26T07:58:13.005Z</time></trkpt><trkpt lat="44.06317265891509" lon="11.148695725458348"><ele>367.6</ele><time>2026-04-26T07:58:14.005Z</time></trkpt><trkpt lat="44.063245516207616" lon="11.148572849639246"><ele>366.2</ele><time>2026-04-26T07:58:15.005Z</time></trkpt><trkpt lat="44.063294477401165" lon="11.148447085718985"><ele>364.8</ele><time>2026-04-26T07:58:16.005Z</time></trkpt><trkpt lat="44.06332856762014" lon="11.1483076596432"><ele>363.40000000000003</ele><time>2026-04-26T07:58:17.005Z</time></trkpt><trkpt lat="44.06335461643924" lon="11.148161093810362"><ele>362.0</ele><time>2026-04-26T07:58:18.005Z</time></trkpt><trkpt lat="44.0633972152725" lon="11.148031392470807"><ele>362.0</ele><time>2026-04-26T07:58:19.005Z</time></trkpt><trkpt lat="44.06344650578732" lon="11.147898987591999"><ele>362.0</ele><time>2026-04-26T07:58:20.005Z</time></trkpt><trkpt lat="44.06349627475933" lon="11.147780320434626"><ele>362.0</ele><time>2026-04-26T07:58:21.005Z</time></trkpt><trkpt lat="44.06355082780448" lon="11.147658781768246"><ele>362.0</ele><time>2026-04-26T07:58:22.005Z</time></trkpt><trkpt lat="44.06361165384458" lon="11.147555038862865"><ele>362.0</ele><time>2026-04-26T07:58:23.005Z</time></trkpt><trkpt lat="44.06369027632063" lon="11.147468245548678"><ele>362.0</ele><time>2026-04-26T07:58:24.005Z</time></trkpt><trkpt lat="44.063779076086455" lon="11.147406674220656"><ele>362.0</ele><time>2026-04-26T07:58:25.005Z</time></trkpt><trkpt lat="44.06389371463228" lon="11.147402379204246"><ele>362.0</ele><time>2026-04-26T07:58:26.005Z</time></trkpt><trkpt lat="44.063991557267045" lon="11.14739550276379"><ele>362.0</ele><time>2026-04-26T07:58:27.005Z</time></trkpt><trkpt lat="44.06408496267785" lon="11.147398659685118"><ele>362.0</ele><time>2026-04-26T07:58:28.005Z</time></trkpt><trkpt lat="44.064175611965375" lon="11.147370225950429"><ele>362.40000000000003</ele><time>2026-04-26T07:58:29.005Z</time></trkpt><trkpt lat="44.064272755603895" lon="11.14729375856433"><ele>362.8</ele><time>2026-04-26T07:58:30.005Z</time></trkpt><trkpt lat="44.06432424864519" lon="11.147136604481135"><ele>363.2</ele><time>2026-04-26T07:58:31.005Z</time></trkpt><trkpt lat="44.06438405230385" lon="11.147013490948645"><ele>363.6</ele><time>2026-04-26T07:58:32.005Z</time></trkpt><trkpt lat="44.064466090443524" lon="11.146955109772586"><ele>364.0</ele><time>2026-04-26T07:58:33.005Z</time></trkpt><trkpt lat="44.06456409341899" lon="11.146959753703108"><ele>364.0</ele><time>2026-04-26T07:58:34.005Z</time></trkpt><trkpt lat="44.06467257109562" lon="11.147032270227438"><ele>364.0</ele><time>2026-04-26T07:58:35.005Z</time></trkpt><trkpt lat="44.0647793453326" lon="11.147114065600855"><ele>364.0</ele><time>2026-04-26T07:58:36.005Z</time></trkpt><trkpt lat="44.06490036338403" lon="11.147183935954649"><ele>364.0</ele><time>2026-04-26T07:58:37.005Z</time></trkpt><trkpt lat="44.065008714272366" lon="11.147205543620926"><ele>366.0</ele><time>2026-04-26T07:58:38.005Z</time></trkpt><trkpt lat="44.065103826266316" lon="11.147154847032176"><ele>368.0</ele><time>2026-04-26T07:58:39.005Z</time></trkpt><trkpt lat="44.06516988326026" lon="11.147055765982248"><ele>370.0</ele><time>2026-04-26T07:58:40.005Z</time></trkpt><trkpt lat="44.06520683108644" lon="11.146926380355357"><ele>372.0</ele><time>2026-04-26T07:58:41.005Z</time></trkpt><trkpt lat="44.0652165054487" lon="11.14678441785416"><ele>374.0</ele><time>2026-04-26T07:58:42.005Z</time></trkpt><trkpt lat="44.06521136412578" lon="11.146672105303368"><ele>374.0</ele><time>2026-04-26T07:58:43.005Z</time></trkpt><trkpt lat="44.065146081459076" lon="11.146576103504573"><ele>374.0</ele><time>2026-04-26T07:58:44.005Z</time></trkpt><trkpt lat="44.06503086745682" lon="11.146528929226474"><ele>374.0</ele><time>2026-04-26T07:58:45.005Z</time></trkpt><trkpt lat="44.064907765888485" lon="11.146451486216769"><ele>374.0</ele><time>2026-04-26T07:58:46.005Z</time></trkpt><trkpt lat="44.064782970086895" lon="11.146358538317182"><ele>373.0</ele><time>2026-04-26T07:58:47.005Z</time></trkpt><trkpt lat="44.064659961273506" lon="11.146243284316153"><ele>372.0</ele><time>2026-04-26T07:58:48.005Z</time></trkpt><trkpt lat="44.064546956531515" lon="11.146120312063879"><ele>371.0</ele><time>2026-04-26T07:58:49.005Z</time></trkpt><trkpt lat="44.064424166564145" lon="11.146022903888124"><ele>370.0</ele><time>2026-04-26T07:58:50.005Z</time></trkpt><trkpt lat="44.064282757935416" lon="11.145939211118794"><ele>370.0</ele><time>2026-04-26T07:58:51.005Z</time></trkpt><trkpt lat="44.06414184267794" lon="11.145875194179375"><ele>370.0</ele><time>2026-04-26T07:58:52.005Z</time></trkpt><trkpt lat="44.064009002849204" lon="11.145843034856341"><ele>370.0</ele><time>2026-04-26T07:58:53.005Z</time></trkpt><trkpt lat="44.06390187591107" lon="11.14580739577782"><ele>370.0</ele><time>2026-04-26T07:58:54.005Z</time></trkpt><trkpt lat="44.06381601524364" lon="11.145740425379826"><ele>373.6</ele><time>2026-04-26T07:58:55.005Z</time></trkpt><trkpt lat="44.06375692357924" lon="11.14564793172407"><ele>377.2</ele><time>2026-04-26T07:58:56.005Z</time></trkpt><trkpt lat="44.0637210411461" lon="11.145515356778578"><ele>380.79999999999995</ele><time>2026-04-26T07:58:57.005Z</time></trkpt><trkpt lat="44.06368161304377" lon="11.145379102837385"><ele>384.4</ele><time>2026-04-26T07:58:58.005Z</time></trkpt><trkpt lat="44.06360789249306" lon="11.145296076967153"><ele>388.0</ele><time>2026-04-26T07:58:59.005Z</time></trkpt><trkpt lat="44.06351883582024" lon="11.14525933325545"><ele>388.0</ele><time>2026-04-26T07:59:00.005Z</time></trkpt><trkpt lat="44.06342361672124" lon="11.145251759896693"><ele>388.0</ele><time>2026-04-26T07:59:01.005Z</time></trkpt><trkpt lat="44.06333718439363" lon="11.145286766405693"><ele>388.0</ele><time>2026-04-26T07:59:02.005Z</time></trkpt><trkpt lat="44.06324805654855" lon="11.14538447010915"><ele>388.0</ele><time>2026-04-26T07:59:03.005Z</time></trkpt><trkpt lat="44.06316014029644" lon="11.145515148972427"><ele>388.0</ele><time>2026-04-26T07:59:04.005Z</time></trkpt><trkpt lat="44.06306327988564" lon="11.145657589000484"><ele>391.25</ele><time>2026-04-26T07:59:05.005Z</time></trkpt><trkpt lat="44.062974956888795" lon="11.14581453369073"><ele>394.5</ele><time>2026-04-26T07:59:06.005Z</time></trkpt><trkpt lat="44.06292277907736" lon="11.145991391318384"><ele>397.75</ele><time>2026-04-26T07:59:07.005Z</time></trkpt><trkpt lat="44.062879866394695" lon="11.14617879178381"><ele>401.0</ele><time>2026-04-26T07:59:08.005Z</time></trkpt><trkpt lat="44.062835144968425" lon="11.146353319416475"><ele>401.0</ele><time>2026-04-26T07:59:09.005Z</time></trkpt><trkpt lat="44.062780156687175" lon="11.14651028998501"><ele>401.0</ele><time>2026-04-26T07:59:10.005Z</time></trkpt><trkpt lat="44.062696279122854" lon="11.14664722435774"><ele>401.0</ele><time>2026-04-26T07:59:11.005Z</time></trkpt><trkpt lat="44.06259763417681" lon="11.146794044186034"><ele>401.0</ele><time>2026-04-26T07:59:12.005Z</time></trkpt><trkpt lat="44.06250387731835" lon="11.146933893895685"><ele>405.5</ele><time>2026-04-26T07:59:13.005Z</time></trkpt><trkpt lat="44.06239277606784" lon="11.147036364878613"><ele>410.0</ele><time>2026-04-26T07:59:14.005Z</time></trkpt><trkpt lat="44.06229814920214" lon="11.14715789728475"><ele>414.5</ele><time>2026-04-26T07:59:15.005Z</time></trkpt><trkpt lat="44.06218039716062" lon="11.147290594775427"><ele>419.0</ele><time>2026-04-26T07:59:16.005Z</time></trkpt><trkpt lat="44.062060713699914" lon="11.14741927655889"><ele>418.0</ele><time>2026-04-26T07:59:17.005Z</time></trkpt><trkpt lat="44.06193759727084" lon="11.147538315759308"><ele>417.0</ele><time>2026-04-26T07:59:18.005Z</time></trkpt><trkpt lat="44.0618151666939" lon="11.14765494624296"><ele>416.0</ele><time>2026-04-26T07:59:19.005Z</time></trkpt><trkpt lat="44.06170331187982" lon="11.147758064125771"><ele>415.0</ele><time>2026-04-26T07:59:20.005Z</time></trkpt><trkpt lat="44.06159283465849" lon="11.147840333559797"><ele>415.0</ele><time>2026-04-26T07:59:21.005Z</time></trkpt><trkpt lat="44.061481292497106" lon="11.147913085902882"><ele>415.0</ele><time>2026-04-26T07:59:22.005Z</time></trkpt><trkpt lat="44.061375892370606" lon="11.148008961398498"><ele>415.0</ele><time>2026-04-26T07:59:23.005Z</time></trkpt><trkpt lat="44.06128362043316" lon="11.148138377685163"><ele>415.0</ele><time>2026-04-26T07:59:24.005Z</time></trkpt><trkpt lat="44.06120602504682" lon="11.14828019405196"><ele>405.75</ele><time>2026-04-26T07:59:25.005Z</time></trkpt><trkpt lat="44.06114612593659" lon="11.148435328328326"><ele>396.5</ele><time>2026-04-26T07:59:26.005Z</time></trkpt><trkpt lat="44.06109391991991" lon="11.148588827995088"><ele>387.25</ele><time>2026-04-26T07:59:27.005Z</time></trkpt><trkpt lat="44.06101909458636" lon="11.148731065195449"><ele>378.0</ele><time>2026-04-26T07:59:28.005Z</time></trkpt><trkpt lat="44.06090408643178" lon="11.148876198411367"><ele>382.66666666666663</ele><time>2026-04-26T07:59:29.005Z</time></trkpt><trkpt lat="44.06077373251725" lon="11.149031500195559"><ele>387.3333333333333</ele><time>2026-04-26T07:59:30.005Z</time></trkpt><trkpt lat="44.06064568769652" lon="11.149179625867658"><ele>392.0</ele><time>2026-04-26T07:59:31.005Z</time></trkpt><trkpt lat="44.06053174796735" lon="11.149326110268401"><ele>392.0</ele><time>2026-04-26T07:59:32.005Z</time></trkpt><trkpt lat="44.06043933115399" lon="11.149512123080521"><ele>392.0</ele><time>2026-04-26T07:59:33.005Z</time></trkpt><trkpt lat="44.060358761403315" lon="11.14971084910173"><ele>392.0</ele><time>2026-04-26T07:59:34.005Z</time></trkpt><trkpt lat="44.060288806130515" lon="11.149897618936393"><ele>386.20000000000005</ele><time>2026-04-26T07:59:35.005Z</time></trkpt><trkpt lat="44.06022818062384" lon="11.150055809751374"><ele>380.4</ele><time>2026-04-26T07:59:36.005Z</time></trkpt><trkpt lat="44.06018427231092" lon="11.150191401989748"><ele>374.6</ele><time>2026-04-26T07:59:37.005Z</time></trkpt><trkpt lat="44.06010672845152" lon="11.1502592807236"><ele>368.79999999999995</ele><time>2026-04-26T07:59:38.005Z</time></trkpt><trkpt lat="44.06000702066868" lon="11.15027282733238"><ele>363.0</ele><time>2026-04-26T07:59:39.005Z</time></trkpt><trkpt lat="44.059868790908205" lon="11.150278835982997"><ele>363.0</ele><time>2026-04-26T07:59:40.005Z</time></trkpt><trkpt lat="44.059718180079024" lon="11.150314725758136"><ele>363.0</ele><time>2026-04-26T07:59:41.005Z</time></trkpt><trkpt lat="44.0595701319084" lon="11.150402789788973"><ele>363.0</ele><time>2026-04-26T07:59:42.005Z</time></trkpt><trkpt lat="44.05942444084085" lon="11.15051355103203"><ele>363.0</ele><time>2026-04-26T07:59:43.005Z</time></trkpt><trkpt lat="44.059275860850725" lon="11.150622256497595"><ele>363.0</ele><time>2026-04-26T07:59:44.005Z</time></trkpt><trkpt lat="44.05911689257945" lon="11.15071192540931"><ele>363.0</ele><time>2026-04-26T07:59:45.005Z</time></trkpt><trkpt lat="44.058953281060994" lon="11.150827525704054"><ele>360.0</ele><time>2026-04-26T07:59:46.005Z</time></trkpt><trkpt lat="44.058804079206226" lon="11.150984905934068"><ele>357.0</ele><time>2026-04-26T07:59:47.005Z</time></trkpt><trkpt lat="44.05864561964596" lon="11.151148500534852"><ele>354.0</ele><time>2026-04-26T07:59:48.005Z</time></trkpt><trkpt lat="44.058464284503124" lon="11.151286337954486"><ele>354.0</ele><time>2026-04-26T07:59:49.005Z</time></trkpt><trkpt lat="44.05828878599684" lon="11.151434071397238"><ele>354.0</ele><time>2026-04-26T07:59:50.005Z</time></trkpt><trkpt lat="44.058133587934044" lon="11.151557229590491"><ele>354.0</ele><time>2026-04-26T07:59:51.005Z</time></trkpt><trkpt lat="44.0579881301984" lon="11.151688734849493"><ele>346.3333333333333</ele><time>2026-04-26T07:59:52.005Z</time></trkpt><trkpt lat="44.05783193087694" lon="11.151803104700821"><ele>338.66666666666663</ele><time>2026-04-26T07:59:53.005Z</time></trkpt><trkpt lat="44.05768640143442" lon="11.151917942424937"><ele>331.0</ele><time>2026-04-26T07:59:54.005Z</time></trkpt><trkpt lat="44.05755113429551" lon="11.152021062510716"><ele>331.75</ele><time>2026-04-26T07:59:55.005Z</time></trkpt><trkpt lat="44.057425610449776" lon="11.152115423937266"><ele>332.5</ele><time>2026-04-26T07:59:56.005Z</time></trkpt><trkpt lat="44.05731242131359" lon="11.152198536341116"><ele>333.25</ele><time>2026-04-26T07:59:57.005Z</time></trkpt><trkpt lat="44.05719502472236" lon="11.15227161643312"><ele>334.0</ele><time>2026-04-26T07:59:58.005Z</time></trkpt><trkpt lat="44.05707255168878" lon="11.152287539174841"><ele>334.0</ele><time>2026-04-26T07:59:59.005Z</time></trkpt><trkpt lat="44.05693409147068" lon="11.152261059122047"><ele>334.0</ele><time>2026-04-26T08:00:00.005Z</time></trkpt><trkpt lat="44.056798116514784" lon="11.152261958118874"><ele>334.0</ele><time>2026-04-26T08:00:01.005Z</time></trkpt><trkpt lat="44.05666191989969" lon="11.15228210115062"><ele>334.0</ele><time>2026-04-26T08:00:02.005Z</time></trkpt><trkpt lat="44.056502972949595" lon="11.152134681474509"><ele>339.66666666666663</ele><time>2026-04-26T08:00:03.005Z</time></trkpt><trkpt lat="44.05636262429637" lon="11.152168443812567"><ele>345.3333333333333</ele><time>2026-04-26T08:00:04.005Z</time></trkpt><trkpt lat="44.05621089088629" lon="11.152222845642616"><ele>351.0</ele><time>2026-04-26T08:00:05.005Z</time></trkpt><trkpt lat="44.056059012536274" lon="11.152257113964945"><ele>351.0</ele><time>2026-04-26T08:00:06.005Z</time></trkpt><trkpt lat="44.05589162079178" lon="11.152284212473495"><ele>351.0</ele><time>2026-04-26T08:00:07.005Z</time></trkpt><trkpt lat="44.05573582972791" lon="11.152324071699768"><ele>351.0</ele><time>2026-04-26T08:00:08.005Z</time></trkpt><trkpt lat="44.055589733643494" lon="11.152391491112022"><ele>343.0</ele><time>2026-04-26T08:00:09.005Z</time></trkpt><trkpt lat="44.05544181738578" lon="11.152506474841124"><ele>335.0</ele><time>2026-04-26T08:00:10.005Z</time></trkpt><trkpt lat="44.05529720100335" lon="11.152631276826272"><ele>327.0</ele><time>2026-04-26T08:00:11.005Z</time></trkpt><trkpt lat="44.05515641959206" lon="11.152749811394687"><ele>327.0</ele><time>2026-04-26T08:00:12.005Z</time></trkpt><trkpt lat="44.05503165016241" lon="11.152851324761647"><ele>327.0</ele><time>2026-04-26T08:00:13.005Z</time></trkpt><trkpt lat="44.05493154000994" lon="11.152941726091234"><ele>327.0</ele><time>2026-04-26T08:00:14.005Z</time></trkpt><trkpt lat="44.054836253196044" lon="11.15304864984659"><ele>327.0</ele><time>2026-04-26T08:00:15.005Z</time></trkpt><trkpt lat="44.05475749732805" lon="11.153167298472441"><ele>325.5</ele><time>2026-04-26T08:00:16.005Z</time></trkpt><trkpt lat="44.05468559314919" lon="11.153283154559347"><ele>324.0</ele><time>2026-04-26T08:00:17.005Z</time></trkpt><trkpt lat="44.05459967976762" lon="11.153426485656647"><ele>322.5</ele><time>2026-04-26T08:00:18.005Z</time></trkpt><trkpt lat="44.05451054188099" lon="11.153558886258807"><ele>321.0</ele><time>2026-04-26T08:00:19.005Z</time></trkpt><trkpt lat="44.05442045114655" lon="11.15369007394445"><ele>321.0</ele><time>2026-04-26T08:00:20.005Z</time></trkpt><trkpt lat="44.054333100534926" lon="11.153820295990133"><ele>321.0</ele><time>2026-04-26T08:00:21.005Z</time></trkpt><trkpt lat="44.05425328751542" lon="11.15394442995037"><ele>321.0</ele><time>2026-04-26T08:00:22.005Z</time></trkpt><trkpt lat="44.05416495742068" lon="11.154082823280556"><ele>321.0</ele><time>2026-04-26T08:00:23.005Z</time></trkpt><trkpt lat="44.05407430733539" lon="11.154227347267204"><ele>315.5</ele><time>2026-04-26T08:00:24.005Z</time></trkpt><trkpt lat="44.05398233895918" lon="11.154364608705356"><ele>310.0</ele><time>2026-04-26T08:00:25.005Z</time></trkpt><trkpt lat="44.05389939665332" lon="11.154501393634213"><ele>304.5</ele><time>2026-04-26T08:00:26.005Z</time></trkpt><trkpt lat="44.053819899507424" lon="11.154643748494102"><ele>299.0</ele><time>2026-04-26T08:00:27.005Z</time></trkpt><trkpt lat="44.05373339047927" lon="11.154786971080801"><ele>296.25</ele><time>2026-04-26T08:00:28.005Z</time></trkpt><trkpt lat="44.05364924100346" lon="11.154922150604898"><ele>293.5</ele><time>2026-04-26T08:00:29.005Z</time></trkpt><trkpt lat="44.05355413132592" lon="11.155065695693322"><ele>290.75</ele><time>2026-04-26T08:00:30.005Z</time></trkpt><trkpt lat="44.05344516610805" lon="11.155184901032273"><ele>288.0</ele><time>2026-04-26T08:00:31.005Z</time></trkpt><trkpt lat="44.0533437291232" lon="11.155297976710942"><ele>289.0</ele><time>2026-04-26T08:00:32.005Z</time></trkpt><trkpt lat="44.053246431176206" lon="11.155400913253208"><ele>290.0</ele><time>2026-04-26T08:00:33.005Z</time></trkpt><trkpt lat="44.053139463118214" lon="11.15548013165099"><ele>291.0</ele><time>2026-04-26T08:00:34.005Z</time></trkpt><trkpt lat="44.05303396542605" lon="11.155551358742342"><ele>292.0</ele><time>2026-04-26T08:00:35.005Z</time></trkpt><trkpt lat="44.05293440269579" lon="11.155626739449335"><ele>292.0</ele><time>2026-04-26T08:00:36.005Z</time></trkpt><trkpt lat="44.05284093885167" lon="11.155697792069114"><ele>292.0</ele><time>2026-04-26T08:00:37.005Z</time></trkpt><trkpt lat="44.052744931082465" lon="11.155761419109407"><ele>292.0</ele><time>2026-04-26T08:00:38.005Z</time></trkpt><trkpt lat="44.05265364485967" lon="11.155828080482511"><ele>292.0</ele><time>2026-04-26T08:00:39.005Z</time></trkpt><trkpt lat="44.05256073370724" lon="11.155883949028253"><ele>292.0</ele><time>2026-04-26T08:00:40.005Z</time></trkpt><trkpt lat="44.05246790695701" lon="11.15593464151793"><ele>290.8333333333333</ele><time>2026-04-26T08:00:41.005Z</time></trkpt><trkpt lat="44.05238797279489" lon="11.155982260264345"><ele>289.66666666666663</ele><time>2026-04-26T08:00:42.005Z</time></trkpt><trkpt lat="44.052323275447215" lon="11.156028155922435"><ele>288.5</ele><time>2026-04-26T08:00:43.005Z</time></trkpt><trkpt lat="44.05226276132397" lon="11.156056393226377"><ele>287.3333333333333</ele><time>2026-04-26T08:00:44.005Z</time></trkpt><trkpt lat="44.05219956098539" lon="11.156098256414632"><ele>286.1666666666667</ele><time>2026-04-26T08:00:45.005Z</time></trkpt><trkpt lat="44.05213730720493" lon="11.156137343465439"><ele>285.0</ele><time>2026-04-26T08:00:46.005Z</time></trkpt><trkpt lat="44.052032258904596" lon="11.15617134664677"><ele>285.0</ele><time>2026-04-26T08:00:48.005Z</time></trkpt><trkpt lat="44.05192401323509" lon="11.156193142050585"><ele>285.0</ele><time>2026-04-26T08:00:50.005Z</time></trkpt><trkpt lat="44.05183465980365" lon="11.156219901640473"><ele>285.0</ele><time>2026-04-26T08:00:52.005Z</time></trkpt><trkpt lat="44.05177237040952" lon="11.15623868407919"><ele>285.0</ele><time>2026-04-26T08:00:55.005Z</time></trkpt><trkpt lat="44.05168905535158" lon="11.156303207840928"><ele>285.0</ele><time>2026-04-26T08:00:58.005Z</time></trkpt><trkpt lat="44.051629009036695" lon="11.156337076928429"><ele>285.0</ele><time>2026-04-26T08:01:03.005Z</time></trkpt><trkpt lat="44.05155783316297" lon="11.156349541252332"><ele>284.3333333333333</ele><time>2026-04-26T08:01:09.005Z</time></trkpt><trkpt lat="44.05156062763786" lon="11.156481805992495"><ele>283.6666666666667</ele><time>2026-04-26T08:02:33.005Z</time></trkpt><trkpt lat="44.051537008091884" lon="11.15657141934605"><ele>283.0</ele><time>2026-04-26T08:06:29.005Z</time></trkpt><trkpt lat="44.05158115060652" lon="11.1564337610881"><ele>282.33333333333337</ele><time>2026-04-26T08:07:12.004Z</time></trkpt><trkpt lat="44.05160255044329" lon="11.156345476611234"><ele>281.6666666666667</ele><time>2026-04-26T08:08:08.004Z</time></trkpt><trkpt lat="44.051539905350744" lon="11.15633627147658"><ele>281.0</ele><time>2026-04-26T08:08:09.004Z</time></trkpt><trkpt lat="44.05145772047677" lon="11.156363246189832"><ele>281.0</ele><time>2026-04-26T08:08:10.004Z</time></trkpt><trkpt lat="44.05137686692749" lon="11.156389918729243"><ele>281.0</ele><time>2026-04-26T08:08:11.004Z</time></trkpt><trkpt lat="44.05130727672823" lon="11.156395767749828"><ele>281.0</ele><time>2026-04-26T08:08:12.004Z</time></trkpt><trkpt lat="44.051226998852925" lon="11.156392608596855"><ele>281.0</ele><time>2026-04-26T08:08:13.004Z</time></trkpt><trkpt lat="44.05115103305687" lon="11.15639376863884"><ele>281.0</ele><time>2026-04-26T08:08:14.004Z</time></trkpt><trkpt lat="44.0510759702525" lon="11.156392095492047"><ele>281.0</ele><time>2026-04-26T08:08:15.004Z</time></trkpt><trkpt lat="44.05099229814532" lon="11.156403788939663"><ele>281.0</ele><time>2026-04-26T08:08:16.004Z</time></trkpt><trkpt lat="44.050881419189416" lon="11.156408593947132"><ele>281.0</ele><time>2026-04-26T08:08:17.004Z</time></trkpt><trkpt lat="44.05076243262101" lon="11.156419004939458"><ele>281.0</ele><time>2026-04-26T08:08:18.004Z</time></trkpt><trkpt lat="44.050646746014635" lon="11.156429918770868"><ele>281.0</ele><time>2026-04-26T08:08:19.004Z</time></trkpt><trkpt lat="44.050533186289705" lon="11.156434261403001"><ele>283.5</ele><time>2026-04-26T08:08:20.004Z</time></trkpt><trkpt lat="44.05040072339794" lon="11.156449160971016"><ele>286.0</ele><time>2026-04-26T08:08:21.004Z</time></trkpt><trkpt lat="44.05025246905219" lon="11.156470002623283"><ele>288.5</ele><time>2026-04-26T08:08:22.004Z</time></trkpt><trkpt lat="44.05010336593682" lon="11.156498609165306"><ele>291.0</ele><time>2026-04-26T08:08:23.004Z</time></trkpt><trkpt lat="44.04995276177816" lon="11.156512696219908"><ele>291.0</ele><time>2026-04-26T08:08:24.004Z</time></trkpt><trkpt lat="44.04980866671429" lon="11.156526429721417"><ele>291.0</ele><time>2026-04-26T08:08:25.004Z</time></trkpt><trkpt lat="44.0496828597038" lon="11.156539423622098"><ele>291.0</ele><time>2026-04-26T08:08:26.004Z</time></trkpt><trkpt lat="44.04955498145523" lon="11.156545950631852"><ele>291.0</ele><time>2026-04-26T08:08:27.004Z</time></trkpt><trkpt lat="44.049421922694535" lon="11.156554593475553"><ele>291.0</ele><time>2026-04-26T08:08:28.004Z</time></trkpt><trkpt lat="44.0492737750214" lon="11.15651531046553"><ele>291.0</ele><time>2026-04-26T08:08:29.004Z</time></trkpt><trkpt lat="44.04912153176379" lon="11.156453135636669"><ele>291.0</ele><time>2026-04-26T08:08:30.004Z</time></trkpt><trkpt lat="44.04897764842516" lon="11.15637004721356"><ele>286.0</ele><time>2026-04-26T08:08:31.004Z</time></trkpt><trkpt lat="44.048840087534224" lon="11.156312197845475"><ele>281.0</ele><time>2026-04-26T08:08:32.004Z</time></trkpt><trkpt lat="44.04871066804045" lon="11.156272965800705"><ele>276.0</ele><time>2026-04-26T08:08:33.004Z</time></trkpt><trkpt lat="44.04860141814217" lon="11.15623085131391"><ele>271.0</ele><time>2026-04-26T08:08:34.004Z</time></trkpt><trkpt lat="44.04849588724709" lon="11.15618403876239"><ele>271.0</ele><time>2026-04-26T08:08:35.004Z</time></trkpt><trkpt lat="44.04839714680435" lon="11.1561329485769"><ele>271.0</ele><time>2026-04-26T08:08:36.004Z</time></trkpt><trkpt lat="44.04830839493024" lon="11.156072697295258"><ele>271.0</ele><time>2026-04-26T08:08:37.004Z</time></trkpt><trkpt lat="44.0482292439619" lon="11.15601746706169"><ele>271.0</ele><time>2026-04-26T08:08:38.004Z</time></trkpt><trkpt lat="44.04815509191003" lon="11.155943403638183"><ele>271.0</ele><time>2026-04-26T08:08:39.004Z</time></trkpt><trkpt lat="44.04809407352454" lon="11.15583197467704"><ele>270.0</ele><time>2026-04-26T08:08:40.004Z</time></trkpt><trkpt lat="44.04803978629869" lon="11.155708272407145"><ele>269.0</ele><time>2026-04-26T08:08:41.004Z</time></trkpt><trkpt lat="44.04800521797547" lon="11.155579379948836"><ele>268.0</ele><time>2026-04-26T08:08:42.004Z</time></trkpt><trkpt lat="44.04799652122491" lon="11.155449977130665"><ele>267.0</ele><time>2026-04-26T08:08:43.004Z</time></trkpt><trkpt lat="44.047991583357216" lon="11.155296423981385"><ele>266.0</ele><time>2026-04-26T08:08:44.004Z</time></trkpt><trkpt lat="44.047998605801084" lon="11.155143078003498"><ele>265.75</ele><time>2026-04-26T08:08:45.004Z</time></trkpt><trkpt lat="44.04801339367068" lon="11.154989044846182"><ele>265.5</ele><time>2026-04-26T08:08:46.004Z</time></trkpt><trkpt lat="44.048049487108756" lon="11.154822802618847"><ele>265.25</ele><time>2026-04-26T08:08:47.004Z</time></trkpt><trkpt lat="44.04808753727724" lon="11.154633591798833"><ele>265.0</ele><time>2026-04-26T08:08:48.004Z</time></trkpt><trkpt lat="44.04811149817201" lon="11.15443301910722"><ele>265.0</ele><time>2026-04-26T08:08:49.004Z</time></trkpt><trkpt lat="44.04811435729731" lon="11.154197343429615"><ele>265.0</ele><time>2026-04-26T08:08:50.004Z</time></trkpt><trkpt lat="44.04809089221704" lon="11.154001475434864"><ele>265.0</ele><time>2026-04-26T08:08:51.004Z</time></trkpt><trkpt lat="44.04802639827328" lon="11.153819787618625"><ele>266.5</ele><time>2026-04-26T08:08:52.004Z</time></trkpt><trkpt lat="44.04793930711753" lon="11.15366063096828"><ele>268.0</ele><time>2026-04-26T08:08:53.004Z</time></trkpt><trkpt lat="44.047848011289034" lon="11.153543219386936"><ele>269.5</ele><time>2026-04-26T08:08:54.004Z</time></trkpt><trkpt lat="44.04775357590943" lon="11.153441858004598"><ele>271.0</ele><time>2026-04-26T08:08:55.004Z</time></trkpt><trkpt lat="44.04765169048591" lon="11.153373578907614"><ele>271.0</ele><time>2026-04-26T08:08:56.004Z</time></trkpt><trkpt lat="44.04756633250212" lon="11.153275189225544"><ele>271.0</ele><time>2026-04-26T08:08:57.004Z</time></trkpt><trkpt lat="44.04745711970393" lon="11.15314918385871"><ele>271.0</ele><time>2026-04-26T08:08:58.004Z</time></trkpt><trkpt lat="44.04736576571868" lon="11.15299576403601"><ele>271.0</ele><time>2026-04-26T08:08:59.004Z</time></trkpt><trkpt lat="44.04727916442315" lon="11.152832994573664"><ele>271.25</ele><time>2026-04-26T08:09:00.005Z</time></trkpt><trkpt lat="44.04720266173745" lon="11.152678229529377"><ele>271.5</ele><time>2026-04-26T08:09:01.005Z</time></trkpt><trkpt lat="44.04713865117444" lon="11.152533440190766"><ele>271.75</ele><time>2026-04-26T08:09:02.005Z</time></trkpt><trkpt lat="44.04709683837558" lon="11.152390494117506"><ele>272.0</ele><time>2026-04-26T08:09:03.005Z</time></trkpt><trkpt lat="44.04704866795924" lon="11.152263408434377"><ele>272.0</ele><time>2026-04-26T08:09:04.005Z</time></trkpt><trkpt lat="44.04699932887117" lon="11.15213846767796"><ele>272.0</ele><time>2026-04-26T08:09:05.005Z</time></trkpt><trkpt lat="44.046946119866455" lon="11.152019587116076"><ele>272.0</ele><time>2026-04-26T08:09:06.005Z</time></trkpt><trkpt lat="44.04687179094818" lon="11.151889109416421"><ele>272.0</ele><time>2026-04-26T08:09:07.004Z</time></trkpt><trkpt lat="44.04679686739005" lon="11.1517597871298"><ele>272.0</ele><time>2026-04-26T08:09:08.004Z</time></trkpt><trkpt lat="44.0467162666706" lon="11.151653399749064"><ele>272.0</ele><time>2026-04-26T08:09:09.004Z</time></trkpt><trkpt lat="44.04663890906995" lon="11.151556219221556"><ele>272.0</ele><time>2026-04-26T08:09:10.004Z</time></trkpt><trkpt lat="44.04655186433574" lon="11.151479756457674"><ele>272.0</ele><time>2026-04-26T08:09:11.004Z</time></trkpt><trkpt lat="44.0464531682705" lon="11.151412973061118"><ele>272.0</ele><time>2026-04-26T08:09:12.004Z</time></trkpt><trkpt lat="44.04637958738334" lon="11.151348817285232"><ele>272.0</ele><time>2026-04-26T08:09:13.004Z</time></trkpt><trkpt lat="44.046310342651495" lon="11.151290824044342"><ele>271.0</ele><time>2026-04-26T08:09:14.004Z</time></trkpt><trkpt lat="44.046234376883554" lon="11.151232900955057"><ele>270.0</ele><time>2026-04-26T08:09:15.005Z</time></trkpt><trkpt lat="44.046137062247375" lon="11.151208788383366"><ele>269.0</ele><time>2026-04-26T08:09:16.004Z</time></trkpt><trkpt lat="44.04606307530194" lon="11.151208119324428"><ele>268.0</ele><time>2026-04-26T08:09:17.004Z</time></trkpt><trkpt lat="44.045959851174274" lon="11.151198850069953"><ele>267.0</ele><time>2026-04-26T08:09:19.004Z</time></trkpt><trkpt lat="44.045878249957646" lon="11.151182239607996"><ele>266.0</ele><time>2026-04-26T08:09:22.004Z</time></trkpt><trkpt lat="44.04579052234952" lon="11.151165570885084"><ele>263.8</ele><time>2026-04-26T08:09:24.004Z</time></trkpt><trkpt lat="44.045690550450246" lon="11.151135167224002"><ele>261.6</ele><time>2026-04-26T08:09:26.004Z</time></trkpt><trkpt lat="44.0455576939856" lon="11.151092349408927"><ele>259.4</ele><time>2026-04-26T08:09:28.004Z</time></trkpt><trkpt lat="44.04548581906885" lon="11.151048100265415"><ele>257.2</ele><time>2026-04-26T08:09:29.004Z</time></trkpt><trkpt lat="44.04540447319294" lon="11.151006161193116"><ele>255.0</ele><time>2026-04-26T08:09:30.004Z</time></trkpt><trkpt lat="44.045325101604476" lon="11.150942603758743"><ele>255.0</ele><time>2026-04-26T08:09:31.004Z</time></trkpt><trkpt lat="44.045251875665244" lon="11.150891192543236"><ele>255.0</ele><time>2026-04-26T08:09:32.004Z</time></trkpt><trkpt lat="44.045183263773765" lon="11.150825333146813"><ele>255.0</ele><time>2026-04-26T08:09:33.004Z</time></trkpt><trkpt lat="44.04511580979908" lon="11.150761182944366"><ele>255.0</ele><time>2026-04-26T08:09:34.004Z</time></trkpt><trkpt lat="44.04505292088436" lon="11.15070485668954"><ele>255.0</ele><time>2026-04-26T08:09:35.004Z</time></trkpt><trkpt lat="44.04498368744596" lon="11.15064800321529"><ele>255.0</ele><time>2026-04-26T08:09:36.004Z</time></trkpt><trkpt lat="44.04492563275103" lon="11.150597528337673"><ele>254.16666666666666</ele><time>2026-04-26T08:09:37.004Z</time></trkpt><trkpt lat="44.04486838397647" lon="11.150541547217692"><ele>253.33333333333331</ele><time>2026-04-26T08:09:38.004Z</time></trkpt><trkpt lat="44.044814757006755" lon="11.150485269714272"><ele>252.5</ele><time>2026-04-26T08:09:39.004Z</time></trkpt><trkpt lat="44.04476454598199" lon="11.150430243036075"><ele>251.66666666666666</ele><time>2026-04-26T08:09:40.004Z</time></trkpt><trkpt lat="44.04471344257883" lon="11.150378372756"><ele>250.83333333333331</ele><time>2026-04-26T08:09:41.004Z</time></trkpt><trkpt lat="44.044625950058396" lon="11.150299320446734"><ele>250.0</ele><time>2026-04-26T08:09:43.004Z</time></trkpt><trkpt lat="44.04456419737679" lon="11.150218581902347"><ele>250.0</ele><time>2026-04-26T08:09:45.004Z</time></trkpt><trkpt lat="44.04449035691972" lon="11.15013403243441"><ele>250.0</ele><time>2026-04-26T08:09:47.004Z</time></trkpt><trkpt lat="44.04445012007297" lon="11.150065121373752"><ele>250.0</ele><time>2026-04-26T08:09:48.004Z</time></trkpt><trkpt lat="44.04440082684552" lon="11.150000094108886"><ele>250.0</ele><time>2026-04-26T08:09:49.004Z</time></trkpt><trkpt lat="44.04434337161764" lon="11.149922194485635"><ele>250.0</ele><time>2026-04-26T08:09:50.004Z</time></trkpt><trkpt lat="44.04429784717762" lon="11.149851710886393"><ele>250.0</ele><time>2026-04-26T08:09:51.004Z</time></trkpt><trkpt lat="44.044248273170105" lon="11.149793073645133"><ele>250.0</ele><time>2026-04-26T08:09:52.004Z</time></trkpt><trkpt lat="44.04413866617384" lon="11.149740360555066"><ele>250.14285714285714</ele><time>2026-04-26T08:09:54.004Z</time></trkpt><trkpt lat="44.04407090220594" lon="11.14972958039913"><ele>250.28571428571428</ele><time>2026-04-26T08:09:55.004Z</time></trkpt><trkpt lat="44.04400596933489" lon="11.149715368133696"><ele>250.42857142857142</ele><time>2026-04-26T08:09:56.004Z</time></trkpt><trkpt lat="44.04394323912187" lon="11.149697738455743"><ele>250.57142857142856</ele><time>2026-04-26T08:09:57.004Z</time></trkpt><trkpt lat="44.043876270102295" lon="11.149683886568836"><ele>250.71428571428572</ele><time>2026-04-26T08:09:58.004Z</time></trkpt><trkpt lat="44.0438078444092" lon="11.14964341493204"><ele>250.85714285714283</ele><time>2026-04-26T08:09:59.004Z</time></trkpt><trkpt lat="44.04373546081219" lon="11.149601179283714"><ele>250.99999999999997</ele><time>2026-04-26T08:10:00.004Z</time></trkpt><trkpt lat="44.043651893160444" lon="11.14957077206099"><ele>251.00000000000003</ele><time>2026-04-26T08:10:01.004Z</time></trkpt><trkpt lat="44.04357223635408" lon="11.149561599387162"><ele>251.0</ele><time>2026-04-26T08:10:02.004Z</time></trkpt><trkpt lat="44.04349846654551" lon="11.149524139160288"><ele>251.0</ele><time>2026-04-26T08:10:03.004Z</time></trkpt><trkpt lat="44.043419494607946" lon="11.149482935545711"><ele>251.0</ele><time>2026-04-26T08:10:04.004Z</time></trkpt><trkpt lat="44.04334353748667" lon="11.14944544604225"><ele>251.00000000000003</ele><time>2026-04-26T08:10:05.004Z</time></trkpt><trkpt lat="44.043260563102564" lon="11.149401116500421"><ele>251.0</ele><time>2026-04-26T08:10:06.004Z</time></trkpt><trkpt lat="44.043177291590176" lon="11.149369235109353"><ele>253.33333333333334</ele><time>2026-04-26T08:10:07.004Z</time></trkpt><trkpt lat="44.04310976042553" lon="11.149328745111228"><ele>255.66666666666669</ele><time>2026-04-26T08:10:08.004Z</time></trkpt><trkpt lat="44.04303803753211" lon="11.149298353087392"><ele>258.0</ele><time>2026-04-26T08:10:09.004Z</time></trkpt><trkpt lat="44.04297472262277" lon="11.14926969031438"><ele>260.3333333333333</ele><time>2026-04-26T08:10:10.004Z</time></trkpt><trkpt lat="44.042900144896755" lon="11.149254205780025"><ele>262.66666666666663</ele><time>2026-04-26T08:10:11.004Z</time></trkpt><trkpt lat="44.04278099522109" lon="11.149272603081705"><ele>265.0</ele><time>2026-04-26T08:10:13.004Z</time></trkpt><trkpt lat="44.04272467658737" lon="11.14931272563544"><ele>264.99999999999994</ele><time>2026-04-26T08:10:14.004Z</time></trkpt><trkpt lat="44.042675162994705" lon="11.149373698294816"><ele>265.0</ele><time>2026-04-26T08:10:15.004Z</time></trkpt><trkpt lat="44.04263068639597" lon="11.149472178336975"><ele>265.0</ele><time>2026-04-26T08:10:16.004Z</time></trkpt><trkpt lat="44.042601569577954" lon="11.149569183077318"><ele>265.0</ele><time>2026-04-26T08:10:17.004Z</time></trkpt><trkpt lat="44.042582190414656" lon="11.14966689738732"><ele>265.0</ele><time>2026-04-26T08:10:18.004Z</time></trkpt><trkpt lat="44.042572798340956" lon="11.149773068007047"><ele>264.99999999999994</ele><time>2026-04-26T08:10:19.004Z</time></trkpt><trkpt lat="44.04256002320371" lon="11.149870766256157"><ele>265.0</ele><time>2026-04-26T08:10:20.004Z</time></trkpt><trkpt lat="44.04253656807775" lon="11.149957924089419"><ele>265.8</ele><time>2026-04-26T08:10:21.004Z</time></trkpt><trkpt lat="44.04251488102757" lon="11.15011063026409"><ele>266.6</ele><time>2026-04-26T08:10:23.004Z</time></trkpt><trkpt lat="44.042430951379195" lon="11.150249542564058"><ele>267.4</ele><time>2026-04-26T08:10:25.004Z</time></trkpt><trkpt lat="44.042370943091164" lon="11.150317109783677"><ele>268.2</ele><time>2026-04-26T08:10:26.004Z</time></trkpt><trkpt lat="44.042312047374395" lon="11.15035489147287"><ele>269.0</ele><time>2026-04-26T08:10:27.004Z</time></trkpt><trkpt lat="44.04224096987363" lon="11.15039891968992"><ele>269.0</ele><time>2026-04-26T08:10:28.004Z</time></trkpt><trkpt lat="44.04216366368596" lon="11.150443605312278"><ele>269.0</ele><time>2026-04-26T08:10:29.004Z</time></trkpt><trkpt lat="44.042039440571486" lon="11.150494169148196"><ele>269.0</ele><time>2026-04-26T08:10:31.004Z</time></trkpt><trkpt lat="44.04197420096393" lon="11.150540722268591"><ele>269.0</ele><time>2026-04-26T08:10:32.004Z</time></trkpt><trkpt lat="44.04190364225345" lon="11.150595630588162"><ele>269.0</ele><time>2026-04-26T08:10:33.004Z</time></trkpt><trkpt lat="44.04182124140416" lon="11.15064727489796"><ele>267.5</ele><time>2026-04-26T08:10:34.004Z</time></trkpt><trkpt lat="44.04171849445204" lon="11.150718824062187"><ele>266.0</ele><time>2026-04-26T08:10:35.004Z</time></trkpt><trkpt lat="44.04159028893345" lon="11.150770042273344"><ele>264.5</ele><time>2026-04-26T08:10:36.004Z</time></trkpt><trkpt lat="44.04147664898135" lon="11.15081439613351"><ele>263.0</ele><time>2026-04-26T08:10:37.004Z</time></trkpt><trkpt lat="44.041369434426514" lon="11.15087589374963"><ele>265.4</ele><time>2026-04-26T08:10:38.004Z</time></trkpt><trkpt lat="44.04126191898136" lon="11.150914514200684"><ele>267.8</ele><time>2026-04-26T08:10:39.004Z</time></trkpt><trkpt lat="44.041177729525856" lon="11.150957023205583"><ele>270.2</ele><time>2026-04-26T08:10:40.004Z</time></trkpt><trkpt lat="44.04108031106847" lon="11.151030837765433"><ele>272.6</ele><time>2026-04-26T08:10:41.004Z</time></trkpt><trkpt lat="44.04099694268088" lon="11.151122265607563"><ele>275.0</ele><time>2026-04-26T08:10:42.004Z</time></trkpt><trkpt lat="44.04090940467412" lon="11.15122911987165"><ele>275.0</ele><time>2026-04-26T08:10:43.004Z</time></trkpt><trkpt lat="44.04082847393177" lon="11.151326389968721"><ele>275.0</ele><time>2026-04-26T08:10:44.004Z</time></trkpt><trkpt lat="44.04073748288432" lon="11.151417273400318"><ele>275.0</ele><time>2026-04-26T08:10:45.004Z</time></trkpt><trkpt lat="44.0406414650362" lon="11.151495332827464"><ele>275.0</ele><time>2026-04-26T08:10:46.004Z</time></trkpt><trkpt lat="44.04053862129365" lon="11.151552136580113"><ele>275.0</ele><time>2026-04-26T08:10:47.004Z</time></trkpt><trkpt lat="44.04042347681964" lon="11.151593210285819"><ele>274.0</ele><time>2026-04-26T08:10:48.004Z</time></trkpt><trkpt lat="44.04029547769053" lon="11.151634613532599"><ele>273.0</ele><time>2026-04-26T08:10:49.004Z</time></trkpt><trkpt lat="44.04016653358855" lon="11.15169861613899"><ele>272.0</ele><time>2026-04-26T08:10:50.004Z</time></trkpt><trkpt lat="44.04003542771761" lon="11.151779030513973"><ele>271.0</ele><time>2026-04-26T08:10:51.004Z</time></trkpt><trkpt lat="44.03992008160642" lon="11.151839012627478"><ele>273.0</ele><time>2026-04-26T08:10:52.004Z</time></trkpt><trkpt lat="44.0398067298504" lon="11.151929782040796"><ele>275.0</ele><time>2026-04-26T08:10:53.004Z</time></trkpt><trkpt lat="44.03969647214503" lon="11.152044161661658"><ele>277.0</ele><time>2026-04-26T08:10:54.004Z</time></trkpt><trkpt lat="44.039550426022856" lon="11.152190730901905"><ele>279.0</ele><time>2026-04-26T08:10:55.004Z</time></trkpt><trkpt lat="44.03940714051713" lon="11.152337913330197"><ele>278.6666666666667</ele><time>2026-04-26T08:10:56.004Z</time></trkpt><trkpt lat="44.03926588472215" lon="11.152461472879187"><ele>278.33333333333337</ele><time>2026-04-26T08:10:57.004Z</time></trkpt><trkpt lat="44.039118691193394" lon="11.152599359325306"><ele>278.0</ele><time>2026-04-26T08:10:58.004Z</time></trkpt><trkpt lat="44.03897308932748" lon="11.152735743978255"><ele>278.0</ele><time>2026-04-26T08:10:59.004Z</time></trkpt><trkpt lat="44.038831059032674" lon="11.152870315366892"><ele>278.0</ele><time>2026-04-26T08:11:00.004Z</time></trkpt><trkpt lat="44.03869424372121" lon="11.153003840529701"><ele>278.0</ele><time>2026-04-26T08:11:01.004Z</time></trkpt><trkpt lat="44.038552992772324" lon="11.153139978630353"><ele>275.33333333333337</ele><time>2026-04-26T08:11:02.004Z</time></trkpt><trkpt lat="44.038426588117" lon="11.15325988875187"><ele>272.6666666666667</ele><time>2026-04-26T08:11:03.004Z</time></trkpt><trkpt lat="44.03828311268407" lon="11.153386961305877"><ele>270.0</ele><time>2026-04-26T08:11:04.004Z</time></trkpt><trkpt lat="44.03813811203923" lon="11.153539204537974"><ele>270.0</ele><time>2026-04-26T08:11:05.004Z</time></trkpt><trkpt lat="44.03798520256808" lon="11.153700282765175"><ele>270.0</ele><time>2026-04-26T08:11:06.004Z</time></trkpt><trkpt lat="44.03782617498072" lon="11.153829596386387"><ele>270.0</ele><time>2026-04-26T08:11:07.004Z</time></trkpt><trkpt lat="44.037674960403926" lon="11.153974087806777"><ele>267.6666666666667</ele><time>2026-04-26T08:11:08.004Z</time></trkpt><trkpt lat="44.03751510164657" lon="11.154132828574223"><ele>265.33333333333337</ele><time>2026-04-26T08:11:09.004Z</time></trkpt><trkpt lat="44.03736627092794" lon="11.154269833294999"><ele>263.0</ele><time>2026-04-26T08:11:10.004Z</time></trkpt><trkpt lat="44.03722824044757" lon="11.15440669328619"><ele>263.0</ele><time>2026-04-26T08:11:11.004Z</time></trkpt><trkpt lat="44.03710203368939" lon="11.154524613930654"><ele>263.0</ele><time>2026-04-26T08:11:12.005Z</time></trkpt><trkpt lat="44.03697759109176" lon="11.154621323748069"><ele>263.0</ele><time>2026-04-26T08:11:13.004Z</time></trkpt><trkpt lat="44.03684313865992" lon="11.154673371776257"><ele>263.0</ele><time>2026-04-26T08:11:14.004Z</time></trkpt><trkpt lat="44.03670166695211" lon="11.154677366711937"><ele>261.5</ele><time>2026-04-26T08:11:15.005Z</time></trkpt><trkpt lat="44.036556526000076" lon="11.154614053599683"><ele>260.0</ele><time>2026-04-26T08:11:16.005Z</time></trkpt><trkpt lat="44.03643329879467" lon="11.154524627084866"><ele>258.5</ele><time>2026-04-26T08:11:17.005Z</time></trkpt><trkpt lat="44.03630072399985" lon="11.154404567517375"><ele>257.0</ele><time>2026-04-26T08:11:18.004Z</time></trkpt><trkpt lat="44.03618085988765" lon="11.154252911708106"><ele>257.0</ele><time>2026-04-26T08:11:19.004Z</time></trkpt><trkpt lat="44.036080405201766" lon="11.154084923501308"><ele>257.0</ele><time>2026-04-26T08:11:20.004Z</time></trkpt><trkpt lat="44.03595046017608" lon="11.153942898814538"><ele>257.0</ele><time>2026-04-26T08:11:21.005Z</time></trkpt><trkpt lat="44.0358146992847" lon="11.153831424445235"><ele>262.33333333333337</ele><time>2026-04-26T08:11:22.004Z</time></trkpt><trkpt lat="44.03567682340415" lon="11.153745648823502"><ele>267.6666666666667</ele><time>2026-04-26T08:11:23.004Z</time></trkpt><trkpt lat="44.035520699626346" lon="11.153697799810324"><ele>273.0</ele><time>2026-04-26T08:11:24.004Z</time></trkpt><trkpt lat="44.035374195229465" lon="11.153667231124766"><ele>273.0</ele><time>2026-04-26T08:11:25.004Z</time></trkpt><trkpt lat="44.03521538513842" lon="11.153658525924387"><ele>273.0</ele><time>2026-04-26T08:11:26.004Z</time></trkpt><trkpt lat="44.03504683294007" lon="11.153662630858063"><ele>273.0</ele><time>2026-04-26T08:11:27.004Z</time></trkpt><trkpt lat="44.03487578294931" lon="11.15368184641696"><ele>272.6666666666667</ele><time>2026-04-26T08:11:28.004Z</time></trkpt><trkpt lat="44.034700320403594" lon="11.153781167626663"><ele>272.33333333333337</ele><time>2026-04-26T08:11:29.004Z</time></trkpt><trkpt lat="44.03452362549576" lon="11.153865206372263"><ele>272.0</ele><time>2026-04-26T08:11:30.004Z</time></trkpt><trkpt lat="44.03434534469811" lon="11.153906667128197"><ele>272.0</ele><time>2026-04-26T08:11:31.004Z</time></trkpt><trkpt lat="44.0341625252576" lon="11.153913189320633"><ele>272.0</ele><time>2026-04-26T08:11:32.004Z</time></trkpt><trkpt lat="44.033978436368194" lon="11.153914524038326"><ele>272.0</ele><time>2026-04-26T08:11:33.004Z</time></trkpt><trkpt lat="44.03378842550193" lon="11.153893942060561"><ele>275.33333333333337</ele><time>2026-04-26T08:11:34.004Z</time></trkpt><trkpt lat="44.03358966736838" lon="11.153898158372616"><ele>278.6666666666667</ele><time>2026-04-26T08:11:35.004Z</time></trkpt><trkpt lat="44.033387590838025" lon="11.15390114414653"><ele>282.0</ele><time>2026-04-26T08:11:36.004Z</time></trkpt><trkpt lat="44.03319155385129" lon="11.153897049764092"><ele>282.6666666666667</ele><time>2026-04-26T08:11:37.004Z</time></trkpt><trkpt lat="44.032989124392195" lon="11.153895353444598"><ele>283.33333333333337</ele><time>2026-04-26T08:11:38.004Z</time></trkpt><trkpt lat="44.03278292178125" lon="11.153904253328227"><ele>284.0</ele><time>2026-04-26T08:11:39.004Z</time></trkpt><trkpt lat="44.032590236904625" lon="11.15389807180725"><ele>278.6666666666667</ele><time>2026-04-26T08:11:40.004Z</time></trkpt><trkpt lat="44.03239505650544" lon="11.153907390602964"><ele>273.3333333333333</ele><time>2026-04-26T08:11:41.004Z</time></trkpt><trkpt lat="44.03221249449599" lon="11.153904465041618"><ele>268.0</ele><time>2026-04-26T08:11:42.004Z</time></trkpt><trkpt lat="44.03199969086228" lon="11.153879559906779"><ele>268.0</ele><time>2026-04-26T08:11:43.004Z</time></trkpt><trkpt lat="44.03179906354366" lon="11.153829291563959"><ele>268.0</ele><time>2026-04-26T08:11:44.004Z</time></trkpt><trkpt lat="44.03161767081053" lon="11.153790217378987"><ele>268.0</ele><time>2026-04-26T08:11:45.004Z</time></trkpt><trkpt lat="44.0314782727219" lon="11.153758501339816"><ele>263.0</ele><time>2026-04-26T08:11:46.004Z</time></trkpt><trkpt lat="44.031316402965224" lon="11.153793896080211"><ele>258.0</ele><time>2026-04-26T08:11:47.004Z</time></trkpt><trkpt lat="44.03115286445912" lon="11.153822697623653"><ele>253.0</ele><time>2026-04-26T08:11:48.004Z</time></trkpt><trkpt lat="44.030992911576625" lon="11.153873906488673"><ele>253.0</ele><time>2026-04-26T08:11:49.004Z</time></trkpt><trkpt lat="44.03084527150563" lon="11.153926212301153"><ele>253.0</ele><time>2026-04-26T08:11:50.004Z</time></trkpt><trkpt lat="44.030690453725406" lon="11.153919274618627"><ele>253.0</ele><time>2026-04-26T08:11:51.004Z</time></trkpt><trkpt lat="44.03051534050908" lon="11.153863356826271"><ele>247.33333333333331</ele><time>2026-04-26T08:11:52.004Z</time></trkpt><trkpt lat="44.030351181192344" lon="11.153824631672668"><ele>241.66666666666669</ele><time>2026-04-26T08:11:53.004Z</time></trkpt><trkpt lat="44.03018579274387" lon="11.15378778587448"><ele>236.0</ele><time>2026-04-26T08:11:54.004Z</time></trkpt><trkpt lat="44.03004220999542" lon="11.15371113152487"><ele>234.33333333333334</ele><time>2026-04-26T08:11:55.004Z</time></trkpt><trkpt lat="44.02991719359903" lon="11.153595963544856"><ele>232.66666666666669</ele><time>2026-04-26T08:11:56.004Z</time></trkpt><trkpt lat="44.02978982784539" lon="11.153456483614324"><ele>231.0</ele><time>2026-04-26T08:11:57.004Z</time></trkpt><trkpt lat="44.029683502099225" lon="11.15330788693896"><ele>230.0</ele><time>2026-04-26T08:11:58.004Z</time></trkpt><trkpt lat="44.02958921452601" lon="11.153140179053544"><ele>229.0</ele><time>2026-04-26T08:11:59.004Z</time></trkpt><trkpt lat="44.02950391144267" lon="11.152926543394134"><ele>228.0</ele><time>2026-04-26T08:12:00.004Z</time></trkpt><trkpt lat="44.029436512724466" lon="11.152709744038258"><ele>228.0</ele><time>2026-04-26T08:12:01.004Z</time></trkpt><trkpt lat="44.029372704164935" lon="11.15255359540906"><ele>228.0</ele><time>2026-04-26T08:12:02.004Z</time></trkpt><trkpt lat="44.02930947925376" lon="11.15241114358288"><ele>228.0</ele><time>2026-04-26T08:12:03.004Z</time></trkpt><trkpt lat="44.02924960681662" lon="11.152290133595681"><ele>228.0</ele><time>2026-04-26T08:12:04.004Z</time></trkpt><trkpt lat="44.029159875926545" lon="11.152182595201863"><ele>228.25</ele><time>2026-04-26T08:12:05.004Z</time></trkpt><trkpt lat="44.029059156626" lon="11.152085812376392"><ele>228.5</ele><time>2026-04-26T08:12:06.004Z</time></trkpt><trkpt lat="44.02895293274569" lon="11.151985890923962"><ele>228.75</ele><time>2026-04-26T08:12:07.004Z</time></trkpt><trkpt lat="44.0288472434937" lon="11.151883282480014"><ele>229.0</ele><time>2026-04-26T08:12:08.004Z</time></trkpt><trkpt lat="44.02874933975081" lon="11.151751460832575"><ele>229.0</ele><time>2026-04-26T08:12:09.004Z</time></trkpt><trkpt lat="44.02865407677187" lon="11.15160637281261"><ele>229.0</ele><time>2026-04-26T08:12:10.004Z</time></trkpt><trkpt lat="44.02857954272601" lon="11.151437621053446"><ele>229.0</ele><time>2026-04-26T08:12:11.004Z</time></trkpt><trkpt lat="44.028514737504935" lon="11.151275791519614"><ele>229.0</ele><time>2026-04-26T08:12:12.004Z</time></trkpt><trkpt lat="44.0284585444885" lon="11.151117491514501"><ele>229.0</ele><time>2026-04-26T08:12:13.004Z</time></trkpt><trkpt lat="44.02841903902894" lon="11.150936519446162"><ele>229.0</ele><time>2026-04-26T08:12:14.004Z</time></trkpt><trkpt lat="44.02840268125545" lon="11.150755077020364"><ele>229.0</ele><time>2026-04-26T08:12:15.004Z</time></trkpt><trkpt lat="44.02838957580667" lon="11.150561667215259"><ele>229.0</ele><time>2026-04-26T08:12:16.005Z</time></trkpt><trkpt lat="44.028369300845355" lon="11.150361904487971"><ele>228.75</ele><time>2026-04-26T08:12:17.005Z</time></trkpt><trkpt lat="44.02834607707528" lon="11.15016628591537"><ele>228.5</ele><time>2026-04-26T08:12:18.005Z</time></trkpt><trkpt lat="44.02834160821794" lon="11.149963884656538"><ele>228.25</ele><time>2026-04-26T08:12:19.005Z</time></trkpt><trkpt lat="44.02833379203927" lon="11.149758712915837"><ele>228.0</ele><time>2026-04-26T08:12:20.005Z</time></trkpt><trkpt lat="44.02831813268808" lon="11.14956265553845"><ele>227.25</ele><time>2026-04-26T08:12:21.005Z</time></trkpt><trkpt lat="44.02830027202325" lon="11.149379720881127"><ele>226.5</ele><time>2026-04-26T08:12:22.005Z</time></trkpt><trkpt lat="44.028286152803695" lon="11.149209390430293"><ele>225.75</ele><time>2026-04-26T08:12:23.005Z</time></trkpt><trkpt lat="44.0282668383738" lon="11.149027507278882"><ele>225.0</ele><time>2026-04-26T08:12:24.005Z</time></trkpt><trkpt lat="44.02824643360639" lon="11.148835429160895"><ele>225.0</ele><time>2026-04-26T08:12:25.005Z</time></trkpt><trkpt lat="44.02822779476022" lon="11.148654009340763"><ele>225.0</ele><time>2026-04-26T08:12:26.005Z</time></trkpt><trkpt lat="44.028210633962914" lon="11.148471270755465"><ele>225.0</ele><time>2026-04-26T08:12:27.005Z</time></trkpt><trkpt lat="44.028186274031206" lon="11.148294493101925"><ele>225.0</ele><time>2026-04-26T08:12:28.005Z</time></trkpt><trkpt lat="44.028167294728775" lon="11.148134440242407"><ele>225.0</ele><time>2026-04-26T08:12:29.005Z</time></trkpt><trkpt lat="44.02814479299834" lon="11.14797807743353"><ele>225.0</ele><time>2026-04-26T08:12:30.005Z</time></trkpt><trkpt lat="44.0280886027705" lon="11.147816296405466"><ele>225.0</ele><time>2026-04-26T08:12:31.005Z</time></trkpt><trkpt lat="44.028029533535566" lon="11.14766283752578"><ele>225.0</ele><time>2026-04-26T08:12:32.005Z</time></trkpt><trkpt lat="44.02796310998563" lon="11.14750761939738"><ele>225.75</ele><time>2026-04-26T08:12:33.005Z</time></trkpt><trkpt lat="44.02790494667299" lon="11.147350789823065"><ele>226.5</ele><time>2026-04-26T08:12:34.005Z</time></trkpt><trkpt lat="44.02784908008278" lon="11.147200245178448"><ele>227.25</ele><time>2026-04-26T08:12:35.005Z</time></trkpt><trkpt lat="44.02778755192599" lon="11.147045258967855"><ele>228.0</ele><time>2026-04-26T08:12:36.005Z</time></trkpt><trkpt lat="44.027735037835214" lon="11.146904405707968"><ele>228.0</ele><time>2026-04-26T08:12:37.005Z</time></trkpt><trkpt lat="44.027668427236655" lon="11.14677117804661"><ele>228.0</ele><time>2026-04-26T08:12:38.005Z</time></trkpt><trkpt lat="44.02758319744872" lon="11.146642094568241"><ele>228.0</ele><time>2026-04-26T08:12:39.005Z</time></trkpt><trkpt lat="44.02748831955044" lon="11.146551979763988"><ele>228.0</ele><time>2026-04-26T08:12:40.005Z</time></trkpt><trkpt lat="44.027362050210165" lon="11.146478777688976"><ele>227.25</ele><time>2026-04-26T08:12:41.005Z</time></trkpt><trkpt lat="44.02724856560494" lon="11.146414648743926"><ele>226.5</ele><time>2026-04-26T08:12:42.005Z</time></trkpt><trkpt lat="44.02713605495647" lon="11.1463453945467"><ele>225.75</ele><time>2026-04-26T08:12:43.005Z</time></trkpt><trkpt lat="44.02702875760523" lon="11.146271172503019"><ele>225.0</ele><time>2026-04-26T08:12:44.005Z</time></trkpt><trkpt lat="44.02692401995815" lon="11.146188354736456"><ele>225.0</ele><time>2026-04-26T08:12:45.005Z</time></trkpt><trkpt lat="44.02682650038391" lon="11.146094338193151"><ele>225.0</ele><time>2026-04-26T08:12:46.005Z</time></trkpt><trkpt lat="44.0267313181251" lon="11.145972882737375"><ele>225.0</ele><time>2026-04-26T08:12:47.005Z</time></trkpt><trkpt lat="44.02667050370949" lon="11.14582664823972"><ele>225.0</ele><time>2026-04-26T08:12:48.005Z</time></trkpt><trkpt lat="44.0266571750975" lon="11.14566526800612"><ele>223.25</ele><time>2026-04-26T08:12:49.005Z</time></trkpt><trkpt lat="44.02662204730911" lon="11.145498008498597"><ele>221.5</ele><time>2026-04-26T08:12:50.005Z</time></trkpt><trkpt lat="44.026574287927254" lon="11.145331017410882"><ele>219.75</ele><time>2026-04-26T08:12:51.005Z</time></trkpt><trkpt lat="44.02649334539288" lon="11.145149314569924"><ele>218.0</ele><time>2026-04-26T08:12:52.005Z</time></trkpt><trkpt lat="44.02638635250123" lon="11.144941422755842"><ele>222.33333333333334</ele><time>2026-04-26T08:12:53.005Z</time></trkpt><trkpt lat="44.02628403270745" lon="11.144765067812065"><ele>226.66666666666669</ele><time>2026-04-26T08:12:54.005Z</time></trkpt><trkpt lat="44.02617625663877" lon="11.144647246417568"><ele>231.0</ele><time>2026-04-26T08:12:55.005Z</time></trkpt><trkpt lat="44.02604754990774" lon="11.144538770136954"><ele>231.0</ele><time>2026-04-26T08:12:56.005Z</time></trkpt><trkpt lat="44.02590593561298" lon="11.144451923046738"><ele>231.0</ele><time>2026-04-26T08:12:57.005Z</time></trkpt><trkpt lat="44.02577042934991" lon="11.144363236517512"><ele>231.0</ele><time>2026-04-26T08:12:58.005Z</time></trkpt><trkpt lat="44.02565483520739" lon="11.144278830143268"><ele>231.0</ele><time>2026-04-26T08:12:59.005Z</time></trkpt><trkpt lat="44.02554462970932" lon="11.144180189332733"><ele>229.75</ele><time>2026-04-26T08:13:00.005Z</time></trkpt><trkpt lat="44.025429613022396" lon="11.144072385943414"><ele>228.5</ele><time>2026-04-26T08:13:01.005Z</time></trkpt><trkpt lat="44.02532870237382" lon="11.143926621982901"><ele>227.25</ele><time>2026-04-26T08:13:02.005Z</time></trkpt><trkpt lat="44.02524716046032" lon="11.143763276650793"><ele>226.0</ele><time>2026-04-26T08:13:03.005Z</time></trkpt><trkpt lat="44.02517696700739" lon="11.143587732215666"><ele>226.0</ele><time>2026-04-26T08:13:04.005Z</time></trkpt><trkpt lat="44.02509271379444" lon="11.143412225830096"><ele>226.0</ele><time>2026-04-26T08:13:05.005Z</time></trkpt><trkpt lat="44.025012650210364" lon="11.143236384930109"><ele>226.0</ele><time>2026-04-26T08:13:06.005Z</time></trkpt><trkpt lat="44.024933385794846" lon="11.143053870139441"><ele>222.33333333333331</ele><time>2026-04-26T08:13:07.005Z</time></trkpt><trkpt lat="44.024880236603735" lon="11.142849624502634"><ele>218.66666666666669</ele><time>2026-04-26T08:13:08.005Z</time></trkpt><trkpt lat="44.02482635606675" lon="11.142669075405832"><ele>215.0</ele><time>2026-04-26T08:13:09.005Z</time></trkpt><trkpt lat="44.02475911456214" lon="11.142477618072588"><ele>217.25</ele><time>2026-04-26T08:13:10.005Z</time></trkpt><trkpt lat="44.02468318647748" lon="11.142318964498203"><ele>219.5</ele><time>2026-04-26T08:13:11.005Z</time></trkpt><trkpt lat="44.02459242703076" lon="11.142147677108657"><ele>221.75</ele><time>2026-04-26T08:13:12.005Z</time></trkpt><trkpt lat="44.024495677057345" lon="11.141993826590207"><ele>224.0</ele><time>2026-04-26T08:13:13.005Z</time></trkpt><trkpt lat="44.02438677238394" lon="11.14183357963416"><ele>224.0</ele><time>2026-04-26T08:13:14.005Z</time></trkpt><trkpt lat="44.024268228308316" lon="11.141682500788283"><ele>224.0</ele><time>2026-04-26T08:13:15.005Z</time></trkpt><trkpt lat="44.02415258718758" lon="11.141535877647527"><ele>224.0</ele><time>2026-04-26T08:13:16.005Z</time></trkpt><trkpt lat="44.02402346500523" lon="11.141400079425786"><ele>223.66666666666669</ele><time>2026-04-26T08:13:17.005Z</time></trkpt><trkpt lat="44.023898355568925" lon="11.141270661997764"><ele>223.33333333333331</ele><time>2026-04-26T08:13:18.005Z</time></trkpt><trkpt lat="44.02375432870188" lon="11.141135104232768"><ele>223.0</ele><time>2026-04-26T08:13:19.005Z</time></trkpt><trkpt lat="44.023602392069456" lon="11.14101383042617"><ele>223.0</ele><time>2026-04-26T08:13:20.005Z</time></trkpt><trkpt lat="44.02343724690904" lon="11.140897666431124"><ele>223.0</ele><time>2026-04-26T08:13:21.004Z</time></trkpt><trkpt lat="44.02328317867342" lon="11.140784866084052"><ele>223.0</ele><time>2026-04-26T08:13:22.004Z</time></trkpt><trkpt lat="44.023136384787065" lon="11.140676191144685"><ele>223.33333333333331</ele><time>2026-04-26T08:13:23.004Z</time></trkpt><trkpt lat="44.02299103350392" lon="11.140574086890405"><ele>223.66666666666669</ele><time>2026-04-26T08:13:24.005Z</time></trkpt><trkpt lat="44.022849149448724" lon="11.140476384828967"><ele>224.0</ele><time>2026-04-26T08:13:25.005Z</time></trkpt><trkpt lat="44.02269135154255" lon="11.140372714419682"><ele>224.0</ele><time>2026-04-26T08:13:26.005Z</time></trkpt><trkpt lat="44.02253001995886" lon="11.140259066059745"><ele>224.0</ele><time>2026-04-26T08:13:27.005Z</time></trkpt><trkpt lat="44.022361117262555" lon="11.140144652033479"><ele>224.0</ele><time>2026-04-26T08:13:28.004Z</time></trkpt><trkpt lat="44.0222002842776" lon="11.140026808215415"><ele>224.0</ele><time>2026-04-26T08:13:29.004Z</time></trkpt><trkpt lat="44.02204615670758" lon="11.139918834563028"><ele>224.0</ele><time>2026-04-26T08:13:30.005Z</time></trkpt><trkpt lat="44.02189725204986" lon="11.139830981219157"><ele>224.0</ele><time>2026-04-26T08:13:31.005Z</time></trkpt><trkpt lat="44.02174470971387" lon="11.139761221770335"><ele>226.33333333333334</ele><time>2026-04-26T08:13:32.005Z</time></trkpt><trkpt lat="44.02158130974482" lon="11.139712973325937"><ele>228.66666666666669</ele><time>2026-04-26T08:13:33.005Z</time></trkpt><trkpt lat="44.02139488352542" lon="11.139714744722639"><ele>231.0</ele><time>2026-04-26T08:13:34.005Z</time></trkpt><trkpt lat="44.02120472137855" lon="11.13974018921255"><ele>231.0</ele><time>2026-04-26T08:13:35.005Z</time></trkpt><trkpt lat="44.02101406066038" lon="11.139777017965429"><ele>231.0</ele><time>2026-04-26T08:13:36.005Z</time></trkpt><trkpt lat="44.02082332298783" lon="11.13981111775353"><ele>231.0</ele><time>2026-04-26T08:13:37.005Z</time></trkpt><trkpt lat="44.02062821245637" lon="11.139840344637552"><ele>227.33333333333331</ele><time>2026-04-26T08:13:38.005Z</time></trkpt><trkpt lat="44.02043221182337" lon="11.139875316889416"><ele>223.66666666666666</ele><time>2026-04-26T08:13:39.005Z</time></trkpt><trkpt lat="44.02023575097837" lon="11.139884454119112"><ele>220.0</ele><time>2026-04-26T08:13:40.005Z</time></trkpt><trkpt lat="44.02005911984459" lon="11.13990907405578"><ele>229.0</ele><time>2026-04-26T08:13:41.005Z</time></trkpt><trkpt lat="44.01989885586597" lon="11.139947492155953"><ele>238.0</ele><time>2026-04-26T08:13:42.005Z</time></trkpt><trkpt lat="44.019737025598936" lon="11.140035336207143"><ele>247.0</ele><time>2026-04-26T08:13:43.005Z</time></trkpt><trkpt lat="44.01958156122293" lon="11.140137511723575"><ele>247.0</ele><time>2026-04-26T08:13:44.005Z</time></trkpt><trkpt lat="44.019424691289885" lon="11.140277666866448"><ele>247.0</ele><time>2026-04-26T08:13:45.005Z</time></trkpt><trkpt lat="44.019267289173285" lon="11.140433868419262"><ele>247.0</ele><time>2026-04-26T08:13:46.005Z</time></trkpt><trkpt lat="44.019107148342385" lon="11.140580423891219"><ele>244.0</ele><time>2026-04-26T08:13:47.005Z</time></trkpt><trkpt lat="44.01894704824093" lon="11.140720409918568"><ele>241.0</ele><time>2026-04-26T08:13:48.005Z</time></trkpt><trkpt lat="44.018787803954076" lon="11.140874805081419"><ele>238.0</ele><time>2026-04-26T08:13:49.005Z</time></trkpt><trkpt lat="44.01862259349891" lon="11.141030925510174"><ele>238.0</ele><time>2026-04-26T08:13:50.005Z</time></trkpt><trkpt lat="44.018457464508344" lon="11.141162558996651"><ele>238.0</ele><time>2026-04-26T08:13:51.005Z</time></trkpt><trkpt lat="44.018291751703245" lon="11.141279880503216"><ele>238.0</ele><time>2026-04-26T08:13:52.005Z</time></trkpt><trkpt lat="44.01814942271102" lon="11.141342226672132"><ele>239.25</ele><time>2026-04-26T08:13:53.005Z</time></trkpt><trkpt lat="44.018011168604474" lon="11.141428354025585"><ele>240.5</ele><time>2026-04-26T08:13:54.005Z</time></trkpt><trkpt lat="44.017884903856164" lon="11.1415164803793"><ele>241.75</ele><time>2026-04-26T08:13:55.005Z</time></trkpt><trkpt lat="44.01777542283776" lon="11.141612274475667"><ele>243.0</ele><time>2026-04-26T08:13:56.005Z</time></trkpt><trkpt lat="44.01766659396978" lon="11.14171802777779"><ele>245.75</ele><time>2026-04-26T08:13:57.005Z</time></trkpt><trkpt lat="44.01756092732198" lon="11.141813759473955"><ele>248.5</ele><time>2026-04-26T08:13:58.005Z</time></trkpt><trkpt lat="44.01744561306333" lon="11.141926589030263"><ele>251.25</ele><time>2026-04-26T08:13:59.005Z</time></trkpt><trkpt lat="44.01733363306046" lon="11.142042416935764"><ele>254.0</ele><time>2026-04-26T08:14:00.005Z</time></trkpt><trkpt lat="44.017206426876406" lon="11.142154135649877"><ele>254.0</ele><time>2026-04-26T08:14:01.005Z</time></trkpt><trkpt lat="44.01707544311219" lon="11.142280284530505"><ele>254.0</ele><time>2026-04-26T08:14:02.005Z</time></trkpt><trkpt lat="44.016943613760624" lon="11.142399811154066"><ele>254.0</ele><time>2026-04-26T08:14:03.005Z</time></trkpt><trkpt lat="44.01680444600298" lon="11.142516950934795"><ele>251.0</ele><time>2026-04-26T08:14:04.005Z</time></trkpt><trkpt lat="44.01667120182924" lon="11.142648840388683"><ele>248.0</ele><time>2026-04-26T08:14:05.005Z</time></trkpt><trkpt lat="44.01654708188463" lon="11.142766289225305"><ele>245.0</ele><time>2026-04-26T08:14:06.005Z</time></trkpt><trkpt lat="44.016423417731225" lon="11.142867838645893"><ele>245.0</ele><time>2026-04-26T08:14:07.005Z</time></trkpt><trkpt lat="44.01630661150827" lon="11.142948327633176"><ele>245.0</ele><time>2026-04-26T08:14:08.005Z</time></trkpt><trkpt lat="44.01616695089918" lon="11.143046008002104"><ele>245.0</ele><time>2026-04-26T08:14:09.005Z</time></trkpt><trkpt lat="44.0160317220149" lon="11.143122426156179"><ele>245.0</ele><time>2026-04-26T08:14:10.005Z</time></trkpt><trkpt lat="44.0159035115321" lon="11.143203059476896"><ele>238.75</ele><time>2026-04-26T08:14:11.005Z</time></trkpt><trkpt lat="44.015780475512415" lon="11.143273571169036"><ele>232.5</ele><time>2026-04-26T08:14:12.005Z</time></trkpt><trkpt lat="44.01566104724307" lon="11.143348752015491"><ele>226.25</ele><time>2026-04-26T08:14:13.005Z</time></trkpt><trkpt lat="44.01553899611129" lon="11.14342700998762"><ele>220.0</ele><time>2026-04-26T08:14:14.005Z</time></trkpt><trkpt lat="44.01541224908559" lon="11.143499764961325"><ele>220.0</ele><time>2026-04-26T08:14:15.005Z</time></trkpt><trkpt lat="44.015275266283176" lon="11.143567136615443"><ele>220.0</ele><time>2026-04-26T08:14:16.005Z</time></trkpt><trkpt lat="44.01511635064083" lon="11.1436160610609"><ele>220.0</ele><time>2026-04-26T08:14:17.005Z</time></trkpt><trkpt lat="44.01494346045652" lon="11.143621643169336"><ele>222.66666666666666</ele><time>2026-04-26T08:14:18.005Z</time></trkpt><trkpt lat="44.01475849177425" lon="11.143645096821132"><ele>225.33333333333331</ele><time>2026-04-26T08:14:19.005Z</time></trkpt><trkpt lat="44.01457425131155" lon="11.14366542839392"><ele>228.0</ele><time>2026-04-26T08:14:20.005Z</time></trkpt><trkpt lat="44.01438148015018" lon="11.143696090642267"><ele>228.0</ele><time>2026-04-26T08:14:21.005Z</time></trkpt><trkpt lat="44.014187638632464" lon="11.143748526683012"><ele>228.0</ele><time>2026-04-26T08:14:22.005Z</time></trkpt><trkpt lat="44.013982892788775" lon="11.143772413763296"><ele>228.0</ele><time>2026-04-26T08:14:23.005Z</time></trkpt><trkpt lat="44.01378899724379" lon="11.143777059136054"><ele>234.33333333333331</ele><time>2026-04-26T08:14:24.005Z</time></trkpt><trkpt lat="44.01359569213167" lon="11.143783190062488"><ele>240.66666666666666</ele><time>2026-04-26T08:14:25.005Z</time></trkpt><trkpt lat="44.01342908113789" lon="11.143820482561853"><ele>247.0</ele><time>2026-04-26T08:14:26.005Z</time></trkpt><trkpt lat="44.01328219109003" lon="11.143894389638055"><ele>245.0</ele><time>2026-04-26T08:14:27.005Z</time></trkpt><trkpt lat="44.013144855957776" lon="11.144014651303534"><ele>243.0</ele><time>2026-04-26T08:14:28.005Z</time></trkpt><trkpt lat="44.013009607096244" lon="11.144182863581285"><ele>241.0</ele><time>2026-04-26T08:14:29.005Z</time></trkpt><trkpt lat="44.01288544891179" lon="11.144383512768329"><ele>241.0</ele><time>2026-04-26T08:14:30.005Z</time></trkpt><trkpt lat="44.01275108856751" lon="11.144612946929334"><ele>241.0</ele><time>2026-04-26T08:14:31.005Z</time></trkpt><trkpt lat="44.01260192501381" lon="11.144820450313219"><ele>241.0</ele><time>2026-04-26T08:14:32.005Z</time></trkpt><trkpt lat="44.01245664566961" lon="11.145001674722328"><ele>234.0</ele><time>2026-04-26T08:14:33.005Z</time></trkpt><trkpt lat="44.012327177400444" lon="11.145180326138687"><ele>227.0</ele><time>2026-04-26T08:14:34.005Z</time></trkpt><trkpt lat="44.0122018643275" lon="11.145322315290079"><ele>220.0</ele><time>2026-04-26T08:14:35.005Z</time></trkpt><trkpt lat="44.01206453671215" lon="11.1453913546835"><ele>220.0</ele><time>2026-04-26T08:14:36.005Z</time></trkpt><trkpt lat="44.01192668227993" lon="11.1454239702305"><ele>220.0</ele><time>2026-04-26T08:14:37.005Z</time></trkpt><trkpt lat="44.011768050754746" lon="11.145376913146126"><ele>220.0</ele><time>2026-04-26T08:14:38.005Z</time></trkpt><trkpt lat="44.01162873341365" lon="11.145266871662141"><ele>216.33333333333331</ele><time>2026-04-26T08:14:39.005Z</time></trkpt><trkpt lat="44.01146749967002" lon="11.145106522161981"><ele>212.66666666666669</ele><time>2026-04-26T08:14:40.005Z</time></trkpt><trkpt lat="44.01129462877236" lon="11.145014937574418"><ele>209.0</ele><time>2026-04-26T08:14:41.005Z</time></trkpt><trkpt lat="44.01112914202035" lon="11.144943400238738"><ele>207.0</ele><time>2026-04-26T08:14:42.005Z</time></trkpt><trkpt lat="44.01097524071353" lon="11.144856544393877"><ele>205.0</ele><time>2026-04-26T08:14:43.005Z</time></trkpt><trkpt lat="44.010833246761315" lon="11.144725095523949"><ele>203.0</ele><time>2026-04-26T08:14:44.005Z</time></trkpt><trkpt lat="44.01069003358764" lon="11.14458273928403"><ele>203.0</ele><time>2026-04-26T08:14:45.005Z</time></trkpt><trkpt lat="44.010563185041306" lon="11.14438922442734"><ele>203.0</ele><time>2026-04-26T08:14:46.005Z</time></trkpt><trkpt lat="44.01044706268617" lon="11.144169843697235"><ele>203.0</ele><time>2026-04-26T08:14:47.005Z</time></trkpt><trkpt lat="44.01030714850475" lon="11.143970562366844"><ele>203.0</ele><time>2026-04-26T08:14:48.005Z</time></trkpt><trkpt lat="44.0101654858171" lon="11.143791468774019"><ele>203.0</ele><time>2026-04-26T08:14:49.005Z</time></trkpt><trkpt lat="44.010023247506616" lon="11.14361369178062"><ele>203.0</ele><time>2026-04-26T08:14:50.005Z</time></trkpt><trkpt lat="44.00988357486088" lon="11.14342617795075"><ele>203.0</ele><time>2026-04-26T08:14:51.005Z</time></trkpt><trkpt lat="44.00973546004621" lon="11.14323286773549"><ele>203.0</ele><time>2026-04-26T08:14:52.005Z</time></trkpt><trkpt lat="44.009586383084944" lon="11.143039655791915"><ele>203.0</ele><time>2026-04-26T08:14:53.005Z</time></trkpt><trkpt lat="44.00942944494514" lon="11.142877062868049"><ele>204.0</ele><time>2026-04-26T08:14:54.005Z</time></trkpt><trkpt lat="44.00925255078994" lon="11.142717717907857"><ele>205.0</ele><time>2026-04-26T08:14:55.005Z</time></trkpt><trkpt lat="44.009079455423986" lon="11.142594624216047"><ele>206.0</ele><time>2026-04-26T08:14:56.005Z</time></trkpt><trkpt lat="44.00889513458892" lon="11.142496713081156"><ele>206.0</ele><time>2026-04-26T08:14:57.005Z</time></trkpt><trkpt lat="44.00871736770118" lon="11.142405674279786"><ele>206.0</ele><time>2026-04-26T08:14:58.005Z</time></trkpt><trkpt lat="44.00853649364145" lon="11.142323678836766"><ele>206.0</ele><time>2026-04-26T08:14:59.005Z</time></trkpt><trkpt lat="44.008320980577864" lon="11.1422949634313"><ele>208.66666666666669</ele><time>2026-04-26T08:15:00.005Z</time></trkpt><trkpt lat="44.00813068800579" lon="11.14227551639118"><ele>211.33333333333331</ele><time>2026-04-26T08:15:01.005Z</time></trkpt><trkpt lat="44.00795220778747" lon="11.142285231335865"><ele>214.0</ele><time>2026-04-26T08:15:02.005Z</time></trkpt><trkpt lat="44.007814747111105" lon="11.142265444328535"><ele>214.0</ele><time>2026-04-26T08:15:03.005Z</time></trkpt><trkpt lat="44.00770019572948" lon="11.142202068845963"><ele>214.0</ele><time>2026-04-26T08:15:04.005Z</time></trkpt><trkpt lat="44.007591668862176" lon="11.142106157398072"><ele>214.0</ele><time>2026-04-26T08:15:05.005Z</time></trkpt><trkpt lat="44.007516954586755" lon="11.141935974366376"><ele>214.0</ele><time>2026-04-26T08:15:06.005Z</time></trkpt><trkpt lat="44.007453979838196" lon="11.141728048046959"><ele>211.0</ele><time>2026-04-26T08:15:07.005Z</time></trkpt><trkpt lat="44.00737359745931" lon="11.141542699310145"><ele>208.0</ele><time>2026-04-26T08:15:08.005Z</time></trkpt><trkpt lat="44.00725772130769" lon="11.141375137526211"><ele>205.0</ele><time>2026-04-26T08:15:09.005Z</time></trkpt><trkpt lat="44.00710685536655" lon="11.141234797705584"><ele>205.0</ele><time>2026-04-26T08:15:10.005Z</time></trkpt><trkpt lat="44.00694495239678" lon="11.141090238807932"><ele>205.0</ele><time>2026-04-26T08:15:11.005Z</time></trkpt><trkpt lat="44.00678681018893" lon="11.140952513133758"><ele>205.0</ele><time>2026-04-26T08:15:12.005Z</time></trkpt><trkpt lat="44.00665396938196" lon="11.140828515143488"><ele>203.0</ele><time>2026-04-26T08:15:13.005Z</time></trkpt><trkpt lat="44.00652876574852" lon="11.140695238988075"><ele>201.0</ele><time>2026-04-26T08:15:14.005Z</time></trkpt><trkpt lat="44.006408238461425" lon="11.140537981686284"><ele>199.0</ele><time>2026-04-26T08:15:15.005Z</time></trkpt><trkpt lat="44.006306449825686" lon="11.14032930317103"><ele>199.0</ele><time>2026-04-26T08:15:16.005Z</time></trkpt><trkpt lat="44.00622707774636" lon="11.140104195326634"><ele>199.0</ele><time>2026-04-26T08:15:17.005Z</time></trkpt><trkpt lat="44.00613903057813" lon="11.139888550305091"><ele>199.0</ele><time>2026-04-26T08:15:18.005Z</time></trkpt><trkpt lat="44.00602721863142" lon="11.13970430666878"><ele>202.33333333333331</ele><time>2026-04-26T08:15:19.005Z</time></trkpt><trkpt lat="44.005879322840244" lon="11.139573533027681"><ele>205.66666666666669</ele><time>2026-04-26T08:15:20.005Z</time></trkpt><trkpt lat="44.00572626603999" lon="11.139482440322258"><ele>209.0</ele><time>2026-04-26T08:15:21.005Z</time></trkpt><trkpt lat="44.00556538188033" lon="11.1394226308059"><ele>209.0</ele><time>2026-04-26T08:15:22.005Z</time></trkpt><trkpt lat="44.005408112007075" lon="11.13935818854664"><ele>209.0</ele><time>2026-04-26T08:15:23.005Z</time></trkpt><trkpt lat="44.00522716559141" lon="11.139332817013319"><ele>209.0</ele><time>2026-04-26T08:15:24.005Z</time></trkpt><trkpt lat="44.00506840704489" lon="11.139317994560468"><ele>213.66666666666669</ele><time>2026-04-26T08:15:25.005Z</time></trkpt><trkpt lat="44.00491566664309" lon="11.139320977370364"><ele>218.33333333333331</ele><time>2026-04-26T08:15:26.005Z</time></trkpt><trkpt lat="44.00476547526236" lon="11.13934417962037"><ele>223.0</ele><time>2026-04-26T08:15:27.005Z</time></trkpt><trkpt lat="44.004602069406275" lon="11.139406463695982"><ele>223.0</ele><time>2026-04-26T08:15:28.005Z</time></trkpt><trkpt lat="44.004427418451236" lon="11.139488777708436"><ele>223.0</ele><time>2026-04-26T08:15:29.005Z</time></trkpt><trkpt lat="44.00426368297359" lon="11.13957082185904"><ele>223.0</ele><time>2026-04-26T08:15:30.005Z</time></trkpt><trkpt lat="44.00408926315177" lon="11.139717564411168"><ele>223.33333333333331</ele><time>2026-04-26T08:15:31.005Z</time></trkpt><trkpt lat="44.00390215446986" lon="11.139822408528252"><ele>223.66666666666669</ele><time>2026-04-26T08:15:32.005Z</time></trkpt><trkpt lat="44.003730986814595" lon="11.139930320259603"><ele>224.0</ele><time>2026-04-26T08:15:33.005Z</time></trkpt><trkpt lat="44.00354338786501" lon="11.14004606738235"><ele>216.33333333333334</ele><time>2026-04-26T08:15:34.005Z</time></trkpt><trkpt lat="44.00338390923311" lon="11.140117700969984"><ele>208.66666666666669</ele><time>2026-04-26T08:15:35.005Z</time></trkpt><trkpt lat="44.003218778464586" lon="11.14020358351861"><ele>201.0</ele><time>2026-04-26T08:15:36.005Z</time></trkpt><trkpt lat="44.003070422325415" lon="11.140243005687667"><ele>199.0</ele><time>2026-04-26T08:15:37.005Z</time></trkpt><trkpt lat="44.00292666218151" lon="11.140236772239795"><ele>197.0</ele><time>2026-04-26T08:15:38.005Z</time></trkpt><trkpt lat="44.002802853455535" lon="11.140205151002013"><ele>195.0</ele><time>2026-04-26T08:15:39.005Z</time></trkpt><trkpt lat="44.002670704741824" lon="11.140180619609534"><ele>193.0</ele><time>2026-04-26T08:15:40.005Z</time></trkpt><trkpt lat="44.002537303563436" lon="11.140162530552043"><ele>193.25</ele><time>2026-04-26T08:15:41.005Z</time></trkpt><trkpt lat="44.00240405184107" lon="11.140148968716739"><ele>193.5</ele><time>2026-04-26T08:15:42.005Z</time></trkpt><trkpt lat="44.00226873282323" lon="11.140134389807987"><ele>193.75</ele><time>2026-04-26T08:15:43.005Z</time></trkpt><trkpt lat="44.00213846141574" lon="11.140132773837294"><ele>194.0</ele><time>2026-04-26T08:15:44.005Z</time></trkpt><trkpt lat="44.002022589232254" lon="11.140120054661924"><ele>194.0</ele><time>2026-04-26T08:15:45.005Z</time></trkpt><trkpt lat="44.00191085745905" lon="11.140109497214386"><ele>194.0</ele><time>2026-04-26T08:15:46.005Z</time></trkpt><trkpt lat="44.001801457580754" lon="11.14011222532323"><ele>194.0</ele><time>2026-04-26T08:15:47.005Z</time></trkpt><trkpt lat="44.00167134783933" lon="11.140133591776301"><ele>194.0</ele><time>2026-04-26T08:15:48.005Z</time></trkpt><trkpt lat="44.00154635907842" lon="11.140149058481462"><ele>196.5</ele><time>2026-04-26T08:15:49.005Z</time></trkpt><trkpt lat="44.00141964447472" lon="11.140195396419687"><ele>199.0</ele><time>2026-04-26T08:15:50.005Z</time></trkpt><trkpt lat="44.001287046992694" lon="11.14025000811253"><ele>201.5</ele><time>2026-04-26T08:15:51.005Z</time></trkpt><trkpt lat="44.00115446786128" lon="11.14032120369607"><ele>204.0</ele><time>2026-04-26T08:15:52.005Z</time></trkpt><trkpt lat="44.00102171988519" lon="11.14039983419307"><ele>204.0</ele><time>2026-04-26T08:15:53.005Z</time></trkpt><trkpt lat="44.00087017590599" lon="11.140477869543663"><ele>204.0</ele><time>2026-04-26T08:15:54.005Z</time></trkpt><trkpt lat="44.00073071338395" lon="11.140549537826441"><ele>204.0</ele><time>2026-04-26T08:15:55.005Z</time></trkpt><trkpt lat="44.000579732234414" lon="11.140633041748586"><ele>206.66666666666669</ele><time>2026-04-26T08:15:56.005Z</time></trkpt><trkpt lat="44.000433774173125" lon="11.14070013872187"><ele>209.33333333333334</ele><time>2026-04-26T08:15:57.005Z</time></trkpt><trkpt lat="44.00028388301455" lon="11.140759614225292"><ele>212.0</ele><time>2026-04-26T08:15:58.005Z</time></trkpt><trkpt lat="44.00012205813915" lon="11.140819365042361"><ele>207.25</ele><time>2026-04-26T08:15:59.005Z</time></trkpt><trkpt lat="43.999972071044844" lon="11.140850896820583"><ele>202.5</ele><time>2026-04-26T08:16:00.005Z</time></trkpt><trkpt lat="43.99983808048795" lon="11.140876891443561"><ele>197.75</ele><time>2026-04-26T08:16:01.005Z</time></trkpt><trkpt lat="43.999707808907566" lon="11.140908853088696"><ele>193.0</ele><time>2026-04-26T08:16:02.005Z</time></trkpt><trkpt lat="43.99959000047989" lon="11.140929315214468"><ele>193.0</ele><time>2026-04-26T08:16:03.005Z</time></trkpt><trkpt lat="43.99947118614366" lon="11.140952536311639"><ele>193.0</ele><time>2026-04-26T08:16:04.005Z</time></trkpt><trkpt lat="43.99936270381596" lon="11.140968605844307"><ele>193.0</ele><time>2026-04-26T08:16:05.005Z</time></trkpt><trkpt lat="43.99925317626519" lon="11.140994676105525"><ele>193.0</ele><time>2026-04-26T08:16:06.005Z</time></trkpt><trkpt lat="43.9991610461238" lon="11.14101607938911"><ele>193.0</ele><time>2026-04-26T08:16:07.005Z</time></trkpt><trkpt lat="43.99907140015718" lon="11.141040278084578"><ele>193.5</ele><time>2026-04-26T08:16:08.005Z</time></trkpt><trkpt lat="43.99899103348677" lon="11.1410448282253"><ele>194.0</ele><time>2026-04-26T08:16:09.005Z</time></trkpt><trkpt lat="43.998900306801346" lon="11.140961168754536"><ele>194.5</ele><time>2026-04-26T08:16:10.005Z</time></trkpt><trkpt lat="43.9987894556086" lon="11.14082979076838"><ele>195.0</ele><time>2026-04-26T08:16:11.005Z</time></trkpt><trkpt lat="43.998691301123195" lon="11.140720650664747"><ele>196.0</ele><time>2026-04-26T08:16:12.005Z</time></trkpt><trkpt lat="43.9986052022037" lon="11.140601922003688"><ele>197.0</ele><time>2026-04-26T08:16:13.005Z</time></trkpt><trkpt lat="43.99850784741943" lon="11.140477569824043"><ele>198.0</ele><time>2026-04-26T08:16:14.005Z</time></trkpt><trkpt lat="43.99840515825101" lon="11.140355926215479"><ele>199.0</ele><time>2026-04-26T08:16:15.005Z</time></trkpt><trkpt lat="43.99829264139366" lon="11.140251667043122"><ele>199.0</ele><time>2026-04-26T08:16:16.005Z</time></trkpt><trkpt lat="43.99816397102932" lon="11.140154893101606"><ele>199.0</ele><time>2026-04-26T08:16:17.005Z</time></trkpt><trkpt lat="43.99802898408496" lon="11.140068603934274"><ele>199.0</ele><time>2026-04-26T08:16:18.005Z</time></trkpt><trkpt lat="43.99789990068934" lon="11.140023958734455"><ele>199.0</ele><time>2026-04-26T08:16:19.005Z</time></trkpt><trkpt lat="43.99778972542568" lon="11.139959377567703"><ele>199.0</ele><time>2026-04-26T08:16:20.005Z</time></trkpt><trkpt lat="43.99768108731833" lon="11.13990149202355"><ele>199.0</ele><time>2026-04-26T08:16:21.005Z</time></trkpt><trkpt lat="43.99757681609939" lon="11.139850736433361"><ele>199.0</ele><time>2026-04-26T08:16:22.005Z</time></trkpt><trkpt lat="43.997473338185934" lon="11.139806173382265"><ele>199.0</ele><time>2026-04-26T08:16:23.005Z</time></trkpt><trkpt lat="43.997368254325366" lon="11.13974692614618"><ele>199.0</ele><time>2026-04-26T08:16:24.005Z</time></trkpt><trkpt lat="43.99726243868641" lon="11.139685421093002"><ele>198.75</ele><time>2026-04-26T08:16:25.005Z</time></trkpt><trkpt lat="43.997148692439694" lon="11.1396326176744"><ele>198.5</ele><time>2026-04-26T08:16:26.005Z</time></trkpt><trkpt lat="43.997036962758656" lon="11.139572250580944"><ele>198.25</ele><time>2026-04-26T08:16:27.005Z</time></trkpt><trkpt lat="43.99692608159839" lon="11.139519478735002"><ele>198.0</ele><time>2026-04-26T08:16:28.005Z</time></trkpt><trkpt lat="43.996818721384415" lon="11.139465843567097"><ele>198.0</ele><time>2026-04-26T08:16:29.005Z</time></trkpt><trkpt lat="43.996712180710226" lon="11.13941860492"><ele>198.0</ele><time>2026-04-26T08:16:30.005Z</time></trkpt><trkpt lat="43.99660831492677" lon="11.139377027652138"><ele>198.0</ele><time>2026-04-26T08:16:31.005Z</time></trkpt><trkpt lat="43.99651150925326" lon="11.139325149004526"><ele>198.0</ele><time>2026-04-26T08:16:32.005Z</time></trkpt><trkpt lat="43.99639981227884" lon="11.139276714540479"><ele>198.0</ele><time>2026-04-26T08:16:33.005Z</time></trkpt><trkpt lat="43.99628913935315" lon="11.139232017919086"><ele>198.75</ele><time>2026-04-26T08:16:34.005Z</time></trkpt><trkpt lat="43.99616603922691" lon="11.13919551138031"><ele>199.5</ele><time>2026-04-26T08:16:35.005Z</time></trkpt><trkpt lat="43.99603173962618" lon="11.139128586356975"><ele>200.25</ele><time>2026-04-26T08:16:36.005Z</time></trkpt><trkpt lat="43.99590359694702" lon="11.1390714850904"><ele>201.0</ele><time>2026-04-26T08:16:37.005Z</time></trkpt><trkpt lat="43.99577161718375" lon="11.139003815482617"><ele>201.0</ele><time>2026-04-26T08:16:38.005Z</time></trkpt><trkpt lat="43.995635938046064" lon="11.138946603443136"><ele>201.0</ele><time>2026-04-26T08:16:39.005Z</time></trkpt><trkpt lat="43.99550633892039" lon="11.138878468505583"><ele>201.0</ele><time>2026-04-26T08:16:40.005Z</time></trkpt><trkpt lat="43.99537955274066" lon="11.138810407061872"><ele>201.0</ele><time>2026-04-26T08:16:41.005Z</time></trkpt><trkpt lat="43.99525650371499" lon="11.138742397685164"><ele>201.0</ele><time>2026-04-26T08:16:42.005Z</time></trkpt><trkpt lat="43.99513622012106" lon="11.138668400065619"><ele>201.0</ele><time>2026-04-26T08:16:43.005Z</time></trkpt><trkpt lat="43.99500853595287" lon="11.138593959494315"><ele>201.0</ele><time>2026-04-26T08:16:44.005Z</time></trkpt><trkpt lat="43.99488587697571" lon="11.138519135916622"><ele>201.0</ele><time>2026-04-26T08:16:45.005Z</time></trkpt><trkpt lat="43.99478120926272" lon="11.138440370164215"><ele>199.0</ele><time>2026-04-26T08:16:46.005Z</time></trkpt><trkpt lat="43.99468016565319" lon="11.138367016212204"><ele>197.0</ele><time>2026-04-26T08:16:47.005Z</time></trkpt><trkpt lat="43.99456880916941" lon="11.138293688440495"><ele>195.0</ele><time>2026-04-26T08:16:48.005Z</time></trkpt><trkpt lat="43.994457229749386" lon="11.138233459787047"><ele>193.0</ele><time>2026-04-26T08:16:49.005Z</time></trkpt><trkpt lat="43.99431764942323" lon="11.138170953707636"><ele>202.66666666666666</ele><time>2026-04-26T08:16:50.005Z</time></trkpt><trkpt lat="43.994157423316466" lon="11.138097858422988"><ele>212.33333333333331</ele><time>2026-04-26T08:16:51.005Z</time></trkpt><trkpt lat="43.99400626710151" lon="11.138008508130566"><ele>222.0</ele><time>2026-04-26T08:16:52.005Z</time></trkpt><trkpt lat="43.99384707729382" lon="11.137922784089533"><ele>222.0</ele><time>2026-04-26T08:16:53.005Z</time></trkpt><trkpt lat="43.99368424913627" lon="11.137826248084728"><ele>222.0</ele><time>2026-04-26T08:16:54.005Z</time></trkpt><trkpt lat="43.993537434489234" lon="11.137753914659609"><ele>222.0</ele><time>2026-04-26T08:16:55.005Z</time></trkpt><trkpt lat="43.99337308506563" lon="11.137687842577773"><ele>217.0</ele><time>2026-04-26T08:16:56.005Z</time></trkpt><trkpt lat="43.99320450142959" lon="11.137630502996231"><ele>212.0</ele><time>2026-04-26T08:16:57.005Z</time></trkpt><trkpt lat="43.993041753422354" lon="11.137572933970628"><ele>207.0</ele><time>2026-04-26T08:16:58.005Z</time></trkpt><trkpt lat="43.99288783722534" lon="11.13751045510945"><ele>207.0</ele><time>2026-04-26T08:16:59.005Z</time></trkpt><trkpt lat="43.992735117453684" lon="11.137469153253537"><ele>207.0</ele><time>2026-04-26T08:17:00.005Z</time></trkpt><trkpt lat="43.992586931211235" lon="11.137439961145265"><ele>207.0</ele><time>2026-04-26T08:17:01.005Z</time></trkpt><trkpt lat="43.99244108267244" lon="11.13741752027397"><ele>202.75</ele><time>2026-04-26T08:17:02.005Z</time></trkpt><trkpt lat="43.992293021846955" lon="11.137397890487039"><ele>198.5</ele><time>2026-04-26T08:17:03.005Z</time></trkpt><trkpt lat="43.99214406346498" lon="11.13739603322645"><ele>194.25</ele><time>2026-04-26T08:17:04.005Z</time></trkpt><trkpt lat="43.99200694668871" lon="11.137390398312773"><ele>190.0</ele><time>2026-04-26T08:17:05.005Z</time></trkpt><trkpt lat="43.9918659161696" lon="11.137390565016721"><ele>196.5</ele><time>2026-04-26T08:17:06.005Z</time></trkpt><trkpt lat="43.99173163552312" lon="11.137376513817237"><ele>203.0</ele><time>2026-04-26T08:17:07.005Z</time></trkpt><trkpt lat="43.99159712017284" lon="11.137350809937212"><ele>209.5</ele><time>2026-04-26T08:17:08.005Z</time></trkpt><trkpt lat="43.991464123956355" lon="11.137300572197674"><ele>216.0</ele><time>2026-04-26T08:17:09.005Z</time></trkpt><trkpt lat="43.99131917863541" lon="11.137243813835287"><ele>216.0</ele><time>2026-04-26T08:17:10.005Z</time></trkpt><trkpt lat="43.9911701808995" lon="11.13717950428584"><ele>216.0</ele><time>2026-04-26T08:17:11.005Z</time></trkpt><trkpt lat="43.991023283863505" lon="11.137109763033793"><ele>216.0</ele><time>2026-04-26T08:17:12.005Z</time></trkpt><trkpt lat="43.99087742250458" lon="11.137044859168784"><ele>210.25</ele><time>2026-04-26T08:17:13.005Z</time></trkpt><trkpt lat="43.990736585363436" lon="11.136986098208379"><ele>204.5</ele><time>2026-04-26T08:17:14.005Z</time></trkpt><trkpt lat="43.9905993310996" lon="11.13693950485405"><ele>198.75</ele><time>2026-04-26T08:17:15.005Z</time></trkpt><trkpt lat="43.99046509243174" lon="11.13689004655785"><ele>193.0</ele><time>2026-04-26T08:17:16.005Z</time></trkpt><trkpt lat="43.990330739204076" lon="11.136828613085635"><ele>193.0</ele><time>2026-04-26T08:17:17.005Z</time></trkpt><trkpt lat="43.99018245828281" lon="11.13677536781995"><ele>193.0</ele><time>2026-04-26T08:17:18.005Z</time></trkpt><trkpt lat="43.99002669927137" lon="11.136744760644453"><ele>193.0</ele><time>2026-04-26T08:17:19.005Z</time></trkpt><trkpt lat="43.98987496461528" lon="11.13670856771963"><ele>190.66666666666666</ele><time>2026-04-26T08:17:20.005Z</time></trkpt><trkpt lat="43.98971612674425" lon="11.136674630539542"><ele>188.33333333333331</ele><time>2026-04-26T08:17:21.005Z</time></trkpt><trkpt lat="43.98955860503302" lon="11.136631448673539"><ele>186.0</ele><time>2026-04-26T08:17:22.005Z</time></trkpt><trkpt lat="43.98939778256925" lon="11.136590437122015"><ele>186.0</ele><time>2026-04-26T08:17:23.005Z</time></trkpt><trkpt lat="43.989242868929296" lon="11.136555513455884"><ele>186.0</ele><time>2026-04-26T08:17:24.005Z</time></trkpt><trkpt lat="43.98910078827905" lon="11.136511224071368"><ele>186.0</ele><time>2026-04-26T08:17:25.005Z</time></trkpt><trkpt lat="43.98896852704605" lon="11.136437823385561"><ele>186.0</ele><time>2026-04-26T08:17:26.005Z</time></trkpt><trkpt lat="43.988842086423396" lon="11.136351687362374"><ele>187.25</ele><time>2026-04-26T08:17:27.005Z</time></trkpt><trkpt lat="43.988763016655696" lon="11.136214873582587"><ele>188.5</ele><time>2026-04-26T08:17:28.005Z</time></trkpt><trkpt lat="43.98867743667288" lon="11.136080239422057"><ele>189.75</ele><time>2026-04-26T08:17:29.005Z</time></trkpt><trkpt lat="43.9885942727228" lon="11.135928762875082"><ele>191.0</ele><time>2026-04-26T08:17:30.005Z</time></trkpt><trkpt lat="43.988526964670505" lon="11.135755371956163"><ele>192.60000000000002</ele><time>2026-04-26T08:17:31.004Z</time></trkpt><trkpt lat="43.98849050033324" lon="11.13558824436301"><ele>194.2</ele><time>2026-04-26T08:17:32.004Z</time></trkpt><trkpt lat="43.988466568616474" lon="11.135434364750695"><ele>195.8</ele><time>2026-04-26T08:17:33.004Z</time></trkpt><trkpt lat="43.9884421360204" lon="11.13530563697245"><ele>197.39999999999998</ele><time>2026-04-26T08:17:34.004Z</time></trkpt><trkpt lat="43.9884429518325" lon="11.13518992536591"><ele>199.0</ele><time>2026-04-26T08:17:35.003Z</time></trkpt><trkpt lat="43.98844084809691" lon="11.135097810117662"><ele>198.99999999999997</ele><time>2026-04-26T08:17:36.003Z</time></trkpt><trkpt lat="43.98845277244122" lon="11.13500773747141"><ele>199.0</ele><time>2026-04-26T08:17:37.003Z</time></trkpt><trkpt lat="43.98847387416786" lon="11.134909910454946"><ele>199.0</ele><time>2026-04-26T08:17:38.003Z</time></trkpt><trkpt lat="43.98848479303489" lon="11.134815936099352"><ele>199.0</ele><time>2026-04-26T08:17:39.003Z</time></trkpt><trkpt lat="43.988481436104756" lon="11.134721853023136"><ele>199.0</ele><time>2026-04-26T08:17:40.002Z</time></trkpt><trkpt lat="43.98846275175247" lon="11.13463077902773"><ele>198.99999999999997</ele><time>2026-04-26T08:17:41.002Z</time></trkpt><trkpt lat="43.98842863383166" lon="11.134501416344483"><ele>199.0</ele><time>2026-04-26T08:17:42.002Z</time></trkpt><trkpt lat="43.988395361151035" lon="11.134336595909506"><ele>196.0</ele><time>2026-04-26T08:17:43.002Z</time></trkpt><trkpt lat="43.98836477598997" lon="11.134160307024404"><ele>193.0</ele><time>2026-04-26T08:17:44.002Z</time></trkpt><trkpt lat="43.98832841792011" lon="11.13396497967473"><ele>190.0</ele><time>2026-04-26T08:17:45.002Z</time></trkpt><trkpt lat="43.9882910585094" lon="11.133761724926709"><ele>187.0</ele><time>2026-04-26T08:17:46.002Z</time></trkpt><trkpt lat="43.98825457207576" lon="11.13355870714581"><ele>187.0</ele><time>2026-04-26T08:17:47.001Z</time></trkpt><trkpt lat="43.98821791989465" lon="11.133354812361175"><ele>187.0</ele><time>2026-04-26T08:17:48.001Z</time></trkpt><trkpt lat="43.98817138331547" lon="11.133149020047297"><ele>187.0</ele><time>2026-04-26T08:17:49.001Z</time></trkpt><trkpt lat="43.988123370723564" lon="11.132946973700774"><ele>190.5</ele><time>2026-04-26T08:17:50.001Z</time></trkpt><trkpt lat="43.98806450462016" lon="11.132746529558363"><ele>194.0</ele><time>2026-04-26T08:17:51.001Z</time></trkpt><trkpt lat="43.987995389761" lon="11.132570478519368"><ele>197.5</ele><time>2026-04-26T08:17:52.001Z</time></trkpt><trkpt lat="43.98792838574885" lon="11.132425824405965"><ele>201.0</ele><time>2026-04-26T08:17:53.001Z</time></trkpt><trkpt lat="43.987849332864975" lon="11.132275911951442"><ele>203.0</ele><time>2026-04-26T08:17:54.001Z</time></trkpt><trkpt lat="43.9877685004334" lon="11.132134091019399"><ele>205.0</ele><time>2026-04-26T08:17:55.001Z</time></trkpt><trkpt lat="43.98767812837484" lon="11.131992582031812"><ele>207.0</ele><time>2026-04-26T08:17:56.001Z</time></trkpt><trkpt lat="43.98758750364755" lon="11.13185903134884"><ele>209.0</ele><time>2026-04-26T08:17:57.001Z</time></trkpt><trkpt lat="43.987479249744624" lon="11.131748614473983"><ele>206.25</ele><time>2026-04-26T08:17:58.001Z</time></trkpt><trkpt lat="43.987379683293796" lon="11.131639744190847"><ele>203.5</ele><time>2026-04-26T08:17:59.001Z</time></trkpt><trkpt lat="43.98728934428178" lon="11.131544012230558"><ele>200.75</ele><time>2026-04-26T08:18:00.001Z</time></trkpt><trkpt lat="43.98718636031252" lon="11.131443341818175"><ele>198.0</ele><time>2026-04-26T08:18:01.001Z</time></trkpt><trkpt lat="43.987089402476485" lon="11.13133873291765"><ele>198.0</ele><time>2026-04-26T08:18:02.001Z</time></trkpt><trkpt lat="43.98700049592519" lon="11.131247078222346"><ele>198.0</ele><time>2026-04-26T08:18:03.001Z</time></trkpt><trkpt lat="43.98691523184622" lon="11.131171853333605"><ele>198.0</ele><time>2026-04-26T08:18:04.001Z</time></trkpt><trkpt lat="43.98684067541465" lon="11.131085783674218"><ele>198.0</ele><time>2026-04-26T08:18:05.001Z</time></trkpt><trkpt lat="43.98676111541706" lon="11.130991416449474"><ele>198.0</ele><time>2026-04-26T08:18:06.001Z</time></trkpt><trkpt lat="43.98667685361433" lon="11.130918826966079"><ele>196.0</ele><time>2026-04-26T08:18:07Z</time></trkpt><trkpt lat="43.98660108312658" lon="11.13085543330072"><ele>194.0</ele><time>2026-04-26T08:18:08Z</time></trkpt><trkpt lat="43.98653199669881" lon="11.130762290699009"><ele>192.0</ele><time>2026-04-26T08:18:09Z</time></trkpt><trkpt lat="43.9864647207109" lon="11.130664809737237"><ele>190.0</ele><time>2026-04-26T08:18:10Z</time></trkpt><trkpt lat="43.98640734167502" lon="11.130548344364707"><ele>188.0</ele><time>2026-04-26T08:18:11Z</time></trkpt><trkpt lat="43.98633883870758" lon="11.130449829963661"><ele>188.0</ele><time>2026-04-26T08:18:12Z</time></trkpt><trkpt lat="43.98627916075187" lon="11.130367908017657"><ele>188.0</ele><time>2026-04-26T08:18:13Z</time></trkpt><trkpt lat="43.986236356090515" lon="11.130292841516281"><ele>188.0</ele><time>2026-04-26T08:18:14Z</time></trkpt><trkpt lat="43.98614026692932" lon="11.130241724064314"><ele>188.0</ele><time>2026-04-26T08:18:15Z</time></trkpt><trkpt lat="43.98604846695667" lon="11.130203209744232"><ele>188.0</ele><time>2026-04-26T08:18:16Z</time></trkpt><trkpt lat="43.985949353539674" lon="11.130217895617697"><ele>187.5</ele><time>2026-04-26T08:18:17Z</time></trkpt><trkpt lat="43.98583987086936" lon="11.130262993905845"><ele>187.0</ele><time>2026-04-26T08:18:18Z</time></trkpt><trkpt lat="43.98573078209253" lon="11.130331829643817"><ele>186.5</ele><time>2026-04-26T08:18:19Z</time></trkpt><trkpt lat="43.985604578810104" lon="11.130401536446888"><ele>186.0</ele><time>2026-04-26T08:18:20Z</time></trkpt><trkpt lat="43.98547503800972" lon="11.130467497478618"><ele>186.0</ele><time>2026-04-26T08:18:21Z</time></trkpt><trkpt lat="43.985348773778" lon="11.130527501305012"><ele>186.0</ele><time>2026-04-26T08:18:22Z</time></trkpt><trkpt lat="43.985227994634286" lon="11.130579427582227"><ele>186.0</ele><time>2026-04-26T08:18:23Z</time></trkpt><trkpt lat="43.98510865291829" lon="11.130629762540819"><ele>186.0</ele><time>2026-04-26T08:18:24Z</time></trkpt><trkpt lat="43.984984507899085" lon="11.130682120746402"><ele>182.25</ele><time>2026-04-26T08:18:25Z</time></trkpt><trkpt lat="43.98486073928128" lon="11.13073611854605"><ele>178.5</ele><time>2026-04-26T08:18:26Z</time></trkpt><trkpt lat="43.98472906836544" lon="11.130771356821553"><ele>174.75</ele><time>2026-04-26T08:18:27Z</time></trkpt><trkpt lat="43.98459119096363" lon="11.130799621023948"><ele>171.0</ele><time>2026-04-26T08:18:28Z</time></trkpt><trkpt lat="43.984450013171546" lon="11.130808683389205"><ele>171.0</ele><time>2026-04-26T08:18:29Z</time></trkpt><trkpt lat="43.984300687493" lon="11.130793004787776"><ele>171.0</ele><time>2026-04-26T08:18:30Z</time></trkpt><trkpt lat="43.98414851755223" lon="11.130751300534849"><ele>171.0</ele><time>2026-04-26T08:18:31Z</time></trkpt><trkpt lat="43.98400610084123" lon="11.130675635823815"><ele>169.5</ele><time>2026-04-26T08:18:32Z</time></trkpt><trkpt lat="43.983878005977445" lon="11.130579515833182"><ele>168.0</ele><time>2026-04-26T08:18:33Z</time></trkpt><trkpt lat="43.98376631388353" lon="11.130469172512148"><ele>166.5</ele><time>2026-04-26T08:18:34Z</time></trkpt><trkpt lat="43.98366050607841" lon="11.130341248972359"><ele>165.0</ele><time>2026-04-26T08:18:35Z</time></trkpt><trkpt lat="43.98355407851091" lon="11.13021979086815"><ele>165.0</ele><time>2026-04-26T08:18:36Z</time></trkpt><trkpt lat="43.983446432351826" lon="11.130096246885074"><ele>165.0</ele><time>2026-04-26T08:18:37Z</time></trkpt><trkpt lat="43.983324906570864" lon="11.12997060618356"><ele>165.0</ele><time>2026-04-26T08:18:38Z</time></trkpt><trkpt lat="43.983200114103894" lon="11.129838324320305"><ele>165.0</ele><time>2026-04-26T08:18:39Z</time></trkpt><trkpt lat="43.983081291427276" lon="11.129718490292287"><ele>164.75</ele><time>2026-04-26T08:18:40Z</time></trkpt><trkpt lat="43.9829764177653" lon="11.129605107128977"><ele>164.5</ele><time>2026-04-26T08:18:41Z</time></trkpt><trkpt lat="43.9828660470818" lon="11.129502606781408"><ele>164.25</ele><time>2026-04-26T08:18:42Z</time></trkpt><trkpt lat="43.982767081081285" lon="11.12939764380771"><ele>164.0</ele><time>2026-04-26T08:18:43Z</time></trkpt><trkpt lat="43.98267074162224" lon="11.12929423631088"><ele>164.0</ele><time>2026-04-26T08:18:44Z</time></trkpt><trkpt lat="43.98256266825447" lon="11.12917919444989"><ele>164.0</ele><time>2026-04-26T08:18:45Z</time></trkpt><trkpt lat="43.98246573415535" lon="11.129069206204381"><ele>164.0</ele><time>2026-04-26T08:18:46Z</time></trkpt><trkpt lat="43.98236590626275" lon="11.12895557856775"><ele>164.0</ele><time>2026-04-26T08:18:47Z</time></trkpt><trkpt lat="43.982272813957984" lon="11.128855791029148"><ele>163.5</ele><time>2026-04-26T08:18:48Z</time></trkpt><trkpt lat="43.9821837036733" lon="11.12874976832663"><ele>163.0</ele><time>2026-04-26T08:18:49Z</time></trkpt><trkpt lat="43.9820964059507" lon="11.128660909137306"><ele>162.5</ele><time>2026-04-26T08:18:50Z</time></trkpt><trkpt lat="43.98201541412058" lon="11.128555996684463"><ele>162.0</ele><time>2026-04-26T08:18:51Z</time></trkpt><trkpt lat="43.98192664788015" lon="11.128442149679643"><ele>162.0</ele><time>2026-04-26T08:18:52Z</time></trkpt><trkpt lat="43.98184145913592" lon="11.12833602647469"><ele>162.0</ele><time>2026-04-26T08:18:53Z</time></trkpt><trkpt lat="43.981750389505116" lon="11.128214329444171"><ele>162.0</ele><time>2026-04-26T08:18:54Z</time></trkpt><trkpt lat="43.981683255908486" lon="11.12809483125131"><ele>162.0</ele><time>2026-04-26T08:18:55Z</time></trkpt><trkpt lat="43.98163035010369" lon="11.127983077837355"><ele>162.0</ele><time>2026-04-26T08:18:56Z</time></trkpt><trkpt lat="43.981582197495946" lon="11.127887214500053"><ele>162.16666666666666</ele><time>2026-04-26T08:18:57Z</time></trkpt><trkpt lat="43.98155842130024" lon="11.127804973228443"><ele>162.33333333333334</ele><time>2026-04-26T08:18:58Z</time></trkpt><trkpt lat="43.98154272127659" lon="11.12771506595926"><ele>162.5</ele><time>2026-04-26T08:18:59Z</time></trkpt><trkpt lat="43.9815534916778" lon="11.127530408107168"><ele>162.66666666666669</ele><time>2026-04-26T08:19:01Z</time></trkpt><trkpt lat="43.98156404958641" lon="11.127429737935994"><ele>162.83333333333334</ele><time>2026-04-26T08:19:02Z</time></trkpt><trkpt lat="43.98154398882578" lon="11.127320536410856"><ele>163.0</ele><time>2026-04-26T08:19:03Z</time></trkpt><trkpt lat="43.98149553282443" lon="11.127245530399204"><ele>163.4</ele><time>2026-04-26T08:19:04Z</time></trkpt><trkpt lat="43.98141989613258" lon="11.127197012315804"><ele>163.8</ele><time>2026-04-26T08:19:05Z</time></trkpt><trkpt lat="43.981341011512974" lon="11.127176419277134"><ele>164.2</ele><time>2026-04-26T08:19:06Z</time></trkpt><trkpt lat="43.98125265068892" lon="11.127199014312708"><ele>164.6</ele><time>2026-04-26T08:19:07Z</time></trkpt><trkpt lat="43.98115466598264" lon="11.127243622802036"><ele>165.0</ele><time>2026-04-26T08:19:08Z</time></trkpt><trkpt lat="43.98105769339547" lon="11.1272613194527"><ele>165.0</ele><time>2026-04-26T08:19:09Z</time></trkpt><trkpt lat="43.98095847712203" lon="11.12721227498044"><ele>165.0</ele><time>2026-04-26T08:19:10Z</time></trkpt><trkpt lat="43.98086088627373" lon="11.127138156208154"><ele>165.0</ele><time>2026-04-26T08:19:11Z</time></trkpt><trkpt lat="43.98076808796313" lon="11.127048003677976"><ele>165.0</ele><time>2026-04-26T08:19:12Z</time></trkpt><trkpt lat="43.980682363961016" lon="11.12694535529733"><ele>165.0</ele><time>2026-04-26T08:19:13Z</time></trkpt><trkpt lat="43.98059270714971" lon="11.126802607713794"><ele>165.25</ele><time>2026-04-26T08:19:14Z</time></trkpt><trkpt lat="43.980498587379195" lon="11.126668648520084"><ele>165.5</ele><time>2026-04-26T08:19:15Z</time></trkpt><trkpt lat="43.980409452211916" lon="11.126500319815657"><ele>165.75</ele><time>2026-04-26T08:19:16Z</time></trkpt><trkpt lat="43.98034751051605" lon="11.126341557874753"><ele>166.0</ele><time>2026-04-26T08:19:17Z</time></trkpt><trkpt lat="43.98027035209689" lon="11.12620402740752"><ele>166.5</ele><time>2026-04-26T08:19:18Z</time></trkpt><trkpt lat="43.980197719863" lon="11.126057814926995"><ele>167.0</ele><time>2026-04-26T08:19:19Z</time></trkpt><trkpt lat="43.98011858553766" lon="11.1259103515253"><ele>167.5</ele><time>2026-04-26T08:19:20Z</time></trkpt><trkpt lat="43.98003476089067" lon="11.125755197497428"><ele>168.0</ele><time>2026-04-26T08:19:21Z</time></trkpt><trkpt lat="43.97996279134688" lon="11.125603161309709"><ele>167.0</ele><time>2026-04-26T08:19:22Z</time></trkpt><trkpt lat="43.97989552887185" lon="11.125471449004056"><ele>166.0</ele><time>2026-04-26T08:19:23Z</time></trkpt><trkpt lat="43.97982761508532" lon="11.125330438228971"><ele>165.0</ele><time>2026-04-26T08:19:24Z</time></trkpt><trkpt lat="43.979761175872135" lon="11.12518638394925"><ele>164.0</ele><time>2026-04-26T08:19:25Z</time></trkpt><trkpt lat="43.97968428387362" lon="11.125046279306565"><ele>164.0</ele><time>2026-04-26T08:19:26Z</time></trkpt><trkpt lat="43.979603550847365" lon="11.1248982663543"><ele>164.0</ele><time>2026-04-26T08:19:27Z</time></trkpt><trkpt lat="43.97951384901853" lon="11.124774094178846"><ele>164.0</ele><time>2026-04-26T08:19:28Z</time></trkpt><trkpt lat="43.97941263667936" lon="11.124674931607515"><ele>164.0</ele><time>2026-04-26T08:19:29Z</time></trkpt><trkpt lat="43.97930896069195" lon="11.124605219436466"><ele>165.0</ele><time>2026-04-26T08:19:30Z</time></trkpt><trkpt lat="43.97919254934263" lon="11.12457268450396"><ele>166.0</ele><time>2026-04-26T08:19:31Z</time></trkpt><trkpt lat="43.97905980235656" lon="11.124601220191117"><ele>167.0</ele><time>2026-04-26T08:19:32Z</time></trkpt><trkpt lat="43.978939252064485" lon="11.124658862777215"><ele>168.0</ele><time>2026-04-26T08:19:33Z</time></trkpt><trkpt lat="43.978838648061306" lon="11.124742683722564"><ele>167.2</ele><time>2026-04-26T08:19:34Z</time></trkpt><trkpt lat="43.97873866464933" lon="11.124837760198062"><ele>166.4</ele><time>2026-04-26T08:19:35Z</time></trkpt><trkpt lat="43.97863899302109" lon="11.12491846449277"><ele>165.6</ele><time>2026-04-26T08:19:36Z</time></trkpt><trkpt lat="43.97854831316874" lon="11.124990257888886"><ele>164.79999999999998</ele><time>2026-04-26T08:19:37Z</time></trkpt><trkpt lat="43.978465298649795" lon="11.12507297465161"><ele>164.0</ele><time>2026-04-26T08:19:38Z</time></trkpt><trkpt lat="43.9783925940242" lon="11.12513694172489"><ele>165.6</ele><time>2026-04-26T08:19:39Z</time></trkpt><trkpt lat="43.97832552017893" lon="11.125173732490941"><ele>167.2</ele><time>2026-04-26T08:19:40Z</time></trkpt><trkpt lat="43.97824132479388" lon="11.125192977883566"><ele>168.79999999999998</ele><time>2026-04-26T08:19:41Z</time></trkpt><trkpt lat="43.978144918593465" lon="11.1251843837351"><ele>170.39999999999998</ele><time>2026-04-26T08:19:42Z</time></trkpt><trkpt lat="43.97805009822019" lon="11.125155327323641"><ele>172.0</ele><time>2026-04-26T08:19:43Z</time></trkpt><trkpt lat="43.97795554750377" lon="11.125099947262086"><ele>172.0</ele><time>2026-04-26T08:19:44Z</time></trkpt><trkpt lat="43.97786405963301" lon="11.125026404223185"><ele>172.0</ele><time>2026-04-26T08:19:45.001Z</time></trkpt><trkpt lat="43.977786765265485" lon="11.124927170174713"><ele>172.0</ele><time>2026-04-26T08:19:46Z</time></trkpt><trkpt lat="43.97769881715556" lon="11.12483010918554"><ele>172.0</ele><time>2026-04-26T08:19:47Z</time></trkpt><trkpt lat="43.97760985177506" lon="11.124714769744497"><ele>172.0</ele><time>2026-04-26T08:19:48.001Z</time></trkpt><trkpt lat="43.977516481419514" lon="11.124591891334974"><ele>172.0</ele><time>2026-04-26T08:19:49.001Z</time></trkpt><trkpt lat="43.977415404804425" lon="11.124457655539231"><ele>172.0</ele><time>2026-04-26T08:19:50.001Z</time></trkpt><trkpt lat="43.97733253597453" lon="11.124342766408455"><ele>172.0</ele><time>2026-04-26T08:19:51.001Z</time></trkpt><trkpt lat="43.97724506962617" lon="11.12423505577869"><ele>172.0</ele><time>2026-04-26T08:19:52.001Z</time></trkpt><trkpt lat="43.97715061223523" lon="11.124121029125313"><ele>175.75</ele><time>2026-04-26T08:19:53.001Z</time></trkpt><trkpt lat="43.97706170367631" lon="11.124004123033805"><ele>179.5</ele><time>2026-04-26T08:19:54.001Z</time></trkpt><trkpt lat="43.97696396651626" lon="11.123870360113772"><ele>183.25</ele><time>2026-04-26T08:19:55.001Z</time></trkpt><trkpt lat="43.97685837461059" lon="11.123744351274002"><ele>187.0</ele><time>2026-04-26T08:19:56.001Z</time></trkpt><trkpt lat="43.97676261368878" lon="11.123606433115883"><ele>185.25</ele><time>2026-04-26T08:19:57.001Z</time></trkpt><trkpt lat="43.97667141932233" lon="11.123455029762274"><ele>183.5</ele><time>2026-04-26T08:19:58.001Z</time></trkpt><trkpt lat="43.976582340890594" lon="11.123298981604558"><ele>181.75</ele><time>2026-04-26T08:19:59.001Z</time></trkpt><trkpt lat="43.97649555568568" lon="11.123138730971707"><ele>180.0</ele><time>2026-04-26T08:20:00.001Z</time></trkpt><trkpt lat="43.97639935756954" lon="11.122992351807204"><ele>180.0</ele><time>2026-04-26T08:20:01.001Z</time></trkpt><trkpt lat="43.97631204327811" lon="11.122845729293582"><ele>180.0</ele><time>2026-04-26T08:20:02.001Z</time></trkpt><trkpt lat="43.97622511632434" lon="11.122710219827303"><ele>180.0</ele><time>2026-04-26T08:20:03.001Z</time></trkpt><trkpt lat="43.976136331004945" lon="11.1225952246839"><ele>180.0</ele><time>2026-04-26T08:20:04.001Z</time></trkpt><trkpt lat="43.97602929014896" lon="11.122515385756135"><ele>180.0</ele><time>2026-04-26T08:20:05.001Z</time></trkpt><trkpt lat="43.97588830579167" lon="11.1224692276392"><ele>180.0</ele><time>2026-04-26T08:20:06.001Z</time></trkpt><trkpt lat="43.975740022722434" lon="11.122444834169684"><ele>180.0</ele><time>2026-04-26T08:20:07.001Z</time></trkpt><trkpt lat="43.97559272346226" lon="11.122449220417236"><ele>180.0</ele><time>2026-04-26T08:20:08.001Z</time></trkpt><trkpt lat="43.97546963561746" lon="11.12242840293002"><ele>184.75</ele><time>2026-04-26T08:20:09.001Z</time></trkpt><trkpt lat="43.975342686348164" lon="11.122395698909894"><ele>189.5</ele><time>2026-04-26T08:20:10.001Z</time></trkpt><trkpt lat="43.97522723843066" lon="11.122362089034677"><ele>194.25</ele><time>2026-04-26T08:20:11.001Z</time></trkpt><trkpt lat="43.975116398848314" lon="11.122335958993787"><ele>199.0</ele><time>2026-04-26T08:20:12.001Z</time></trkpt><trkpt lat="43.975008829154696" lon="11.122316870758816"><ele>199.0</ele><time>2026-04-26T08:20:13.001Z</time></trkpt><trkpt lat="43.974905321942636" lon="11.122298518585866"><ele>199.0</ele><time>2026-04-26T08:20:14.001Z</time></trkpt><trkpt lat="43.97479892859639" lon="11.122284390314949"><ele>199.0</ele><time>2026-04-26T08:20:15.001Z</time></trkpt><trkpt lat="43.97469504180976" lon="11.122306387667138"><ele>199.0</ele><time>2026-04-26T08:20:16.001Z</time></trkpt><trkpt lat="43.974589916817045" lon="11.122365196448232"><ele>199.0</ele><time>2026-04-26T08:20:17.001Z</time></trkpt><trkpt lat="43.97448508646623" lon="11.12245040765588"><ele>194.25</ele><time>2026-04-26T08:20:18.001Z</time></trkpt><trkpt lat="43.97440669028307" lon="11.122531077989604"><ele>189.5</ele><time>2026-04-26T08:20:19.001Z</time></trkpt><trkpt lat="43.97432027059451" lon="11.122647583732878"><ele>184.75</ele><time>2026-04-26T08:20:20.001Z</time></trkpt><trkpt lat="43.974243896142106" lon="11.122763366279049"><ele>180.0</ele><time>2026-04-26T08:20:21.001Z</time></trkpt><trkpt lat="43.97416023317486" lon="11.122884554572805"><ele>180.0</ele><time>2026-04-26T08:20:22.001Z</time></trkpt><trkpt lat="43.97406960161273" lon="11.123010305033178"><ele>180.0</ele><time>2026-04-26T08:20:23.001Z</time></trkpt><trkpt lat="43.97397575681206" lon="11.123155142988143"><ele>180.0</ele><time>2026-04-26T08:20:24.001Z</time></trkpt><trkpt lat="43.97388763383521" lon="11.123289509675015"><ele>180.0</ele><time>2026-04-26T08:20:25.001Z</time></trkpt><trkpt lat="43.97380002318635" lon="11.123413026371807"><ele>174.5</ele><time>2026-04-26T08:20:26.001Z</time></trkpt><trkpt lat="43.973706686594234" lon="11.123527620697443"><ele>169.0</ele><time>2026-04-26T08:20:27.001Z</time></trkpt><trkpt lat="43.97360603149455" lon="11.123639042492355"><ele>163.5</ele><time>2026-04-26T08:20:28.001Z</time></trkpt><trkpt lat="43.97350085143896" lon="11.123733079703861"><ele>158.0</ele><time>2026-04-26T08:20:29.001Z</time></trkpt><trkpt lat="43.973381699452524" lon="11.123828531375839"><ele>158.25</ele><time>2026-04-26T08:20:30.001Z</time></trkpt><trkpt lat="43.973273082754105" lon="11.12391677752064"><ele>158.5</ele><time>2026-04-26T08:20:31.001Z</time></trkpt><trkpt lat="43.97316978569852" lon="11.123992937738027"><ele>158.75</ele><time>2026-04-26T08:20:32.001Z</time></trkpt><trkpt lat="43.97306074237908" lon="11.124065373259665"><ele>159.0</ele><time>2026-04-26T08:20:33.001Z</time></trkpt><trkpt lat="43.972952574532854" lon="11.124141148105382"><ele>159.0</ele><time>2026-04-26T08:20:34.001Z</time></trkpt><trkpt lat="43.97285262322848" lon="11.12419912011727"><ele>159.0</ele><time>2026-04-26T08:20:35.001Z</time></trkpt><trkpt lat="43.97276078107864" lon="11.124258472660884"><ele>159.0</ele><time>2026-04-26T08:20:36.001Z</time></trkpt><trkpt lat="43.972666250038145" lon="11.124317500062423"><ele>159.0</ele><time>2026-04-26T08:20:37.001Z</time></trkpt><trkpt lat="43.972576235905244" lon="11.124378982007958"><ele>159.0</ele><time>2026-04-26T08:20:38.001Z</time></trkpt><trkpt lat="43.9724958990817" lon="11.12442193855997"><ele>161.83333333333334</ele><time>2026-04-26T08:20:39.001Z</time></trkpt><trkpt lat="43.97241595492812" lon="11.124465783048544"><ele>164.66666666666666</ele><time>2026-04-26T08:20:40.001Z</time></trkpt><trkpt lat="43.972333798326105" lon="11.124505666037244"><ele>167.5</ele><time>2026-04-26T08:20:41.001Z</time></trkpt><trkpt lat="43.972261974017705" lon="11.124543059295078"><ele>170.33333333333331</ele><time>2026-04-26T08:20:42.001Z</time></trkpt><trkpt lat="43.97219422825012" lon="11.124583538965693"><ele>173.16666666666666</ele><time>2026-04-26T08:20:43.001Z</time></trkpt><trkpt lat="43.97212080845915" lon="11.124612913880512"><ele>176.0</ele><time>2026-04-26T08:20:44.001Z</time></trkpt><trkpt lat="43.97203906576871" lon="11.124635407715342"><ele>176.0</ele><time>2026-04-26T08:20:45.001Z</time></trkpt><trkpt lat="43.97195050554322" lon="11.124636715084916"><ele>176.0</ele><time>2026-04-26T08:20:46.001Z</time></trkpt><trkpt lat="43.97185671308382" lon="11.12459824136031"><ele>176.0</ele><time>2026-04-26T08:20:47.001Z</time></trkpt><trkpt lat="43.97177381865888" lon="11.124511145282764"><ele>176.0</ele><time>2026-04-26T08:20:48.001Z</time></trkpt><trkpt lat="43.97169135730469" lon="11.12442508460385"><ele>176.0</ele><time>2026-04-26T08:20:49.001Z</time></trkpt><trkpt lat="43.97160853509494" lon="11.124328674187389"><ele>175.4</ele><time>2026-04-26T08:20:50.001Z</time></trkpt><trkpt lat="43.97152035726192" lon="11.12424385457875"><ele>174.8</ele><time>2026-04-26T08:20:51.001Z</time></trkpt><trkpt lat="43.97142618701724" lon="11.124163933609855"><ele>174.20000000000002</ele><time>2026-04-26T08:20:52.001Z</time></trkpt><trkpt lat="43.97133461234838" lon="11.124071939667918"><ele>173.60000000000002</ele><time>2026-04-26T08:20:53.001Z</time></trkpt><trkpt lat="43.97124304809981" lon="11.123983853702336"><ele>173.0</ele><time>2026-04-26T08:20:54.001Z</time></trkpt><trkpt lat="43.97114792767499" lon="11.123897578392002"><ele>173.25</ele><time>2026-04-26T08:20:55.001Z</time></trkpt><trkpt lat="43.97105187954847" lon="11.123818397025428"><ele>173.5</ele><time>2026-04-26T08:20:56.001Z</time></trkpt><trkpt lat="43.97095479240951" lon="11.123732853343714"><ele>173.75</ele><time>2026-04-26T08:20:57.001Z</time></trkpt><trkpt lat="43.97085268694636" lon="11.123657133680672"><ele>174.0</ele><time>2026-04-26T08:20:58.001Z</time></trkpt><trkpt lat="43.97074973843809" lon="11.123574613074808"><ele>174.0</ele><time>2026-04-26T08:20:59.001Z</time></trkpt><trkpt lat="43.97064406385143" lon="11.12349299191657"><ele>174.0</ele><time>2026-04-26T08:21:00.001Z</time></trkpt><trkpt lat="43.970535066123006" lon="11.123415670253465"><ele>174.0</ele><time>2026-04-26T08:21:01.001Z</time></trkpt><trkpt lat="43.97043638084467" lon="11.123334252589293"><ele>174.0</ele><time>2026-04-26T08:21:02.001Z</time></trkpt><trkpt lat="43.97033115539719" lon="11.123267787788134"><ele>175.25</ele><time>2026-04-26T08:21:03.001Z</time></trkpt><trkpt lat="43.970216683062844" lon="11.12320717332973"><ele>176.5</ele><time>2026-04-26T08:21:04.001Z</time></trkpt><trkpt lat="43.97010847989677" lon="11.12315101516391"><ele>177.75</ele><time>2026-04-26T08:21:05.001Z</time></trkpt><trkpt lat="43.97000156070875" lon="11.123099923893086"><ele>179.0</ele><time>2026-04-26T08:21:06.001Z</time></trkpt><trkpt lat="43.969904364834775" lon="11.123034325598713"><ele>179.0</ele><time>2026-04-26T08:21:07.001Z</time></trkpt><trkpt lat="43.96980414272404" lon="11.12298831492423"><ele>179.0</ele><time>2026-04-26T08:21:08.001Z</time></trkpt><trkpt lat="43.9697132388095" lon="11.122950004230416"><ele>179.0</ele><time>2026-04-26T08:21:09.001Z</time></trkpt><trkpt lat="43.969621533288986" lon="11.122914880284151"><ele>179.0</ele><time>2026-04-26T08:21:10.001Z</time></trkpt><trkpt lat="43.96953727509864" lon="11.12288139354647"><ele>179.0</ele><time>2026-04-26T08:21:11.001Z</time></trkpt><trkpt lat="43.96945278266762" lon="11.122848628020407"><ele>179.0</ele><time>2026-04-26T08:21:12.001Z</time></trkpt><trkpt lat="43.96936937474366" lon="11.122816545396732"><ele>179.0</ele><time>2026-04-26T08:21:13.001Z</time></trkpt><trkpt lat="43.969285686468936" lon="11.122788468765803"><ele>179.0</ele><time>2026-04-26T08:21:14.001Z</time></trkpt><trkpt lat="43.96920509617355" lon="11.122766250023755"><ele>179.0</ele><time>2026-04-26T08:21:15.001Z</time></trkpt><trkpt lat="43.96912301251569" lon="11.122756277098171"><ele>179.0</ele><time>2026-04-26T08:21:16.001Z</time></trkpt><trkpt lat="43.96904348041273" lon="11.12275341571534"><ele>179.0</ele><time>2026-04-26T08:21:17.001Z</time></trkpt><trkpt lat="43.9689585163712" lon="11.122755581538355"><ele>178.16666666666666</ele><time>2026-04-26T08:21:18.001Z</time></trkpt><trkpt lat="43.968872443987415" lon="11.122772552917777"><ele>177.33333333333331</ele><time>2026-04-26T08:21:19.001Z</time></trkpt><trkpt lat="43.96879474184505" lon="11.122791171272082"><ele>176.5</ele><time>2026-04-26T08:21:20.001Z</time></trkpt><trkpt lat="43.96871051162936" lon="11.122834001136496"><ele>175.66666666666666</ele><time>2026-04-26T08:21:21.001Z</time></trkpt><trkpt lat="43.968625085573294" lon="11.122896012147287"><ele>174.83333333333334</ele><time>2026-04-26T08:21:22.001Z</time></trkpt><trkpt lat="43.96855434347367" lon="11.122967486660635"><ele>174.0</ele><time>2026-04-26T08:21:23.001Z</time></trkpt><trkpt lat="43.96846753637894" lon="11.123052825943784"><ele>174.0</ele><time>2026-04-26T08:21:24.001Z</time></trkpt><trkpt lat="43.96838281676908" lon="11.123122419525215"><ele>174.0</ele><time>2026-04-26T08:21:25.001Z</time></trkpt><trkpt lat="43.9683015270184" lon="11.123194969410369"><ele>174.0</ele><time>2026-04-26T08:21:26.001Z</time></trkpt><trkpt lat="43.96822363336156" lon="11.123258868023658"><ele>174.0</ele><time>2026-04-26T08:21:27.001Z</time></trkpt><trkpt lat="43.96813978096441" lon="11.123317375961737"><ele>174.0</ele><time>2026-04-26T08:21:28.001Z</time></trkpt><trkpt lat="43.96806972923041" lon="11.123379048668143"><ele>173.16666666666666</ele><time>2026-04-26T08:21:29.001Z</time></trkpt><trkpt lat="43.967993769244686" lon="11.12342837124325"><ele>172.33333333333334</ele><time>2026-04-26T08:21:30.001Z</time></trkpt><trkpt lat="43.96793035010338" lon="11.123478637890726"><ele>171.5</ele><time>2026-04-26T08:21:31.001Z</time></trkpt><trkpt lat="43.96787098171573" lon="11.123548310732613"><ele>170.66666666666669</ele><time>2026-04-26T08:21:32.001Z</time></trkpt><trkpt lat="43.967786344388124" lon="11.123615949136143"><ele>169.83333333333334</ele><time>2026-04-26T08:21:33.001Z</time></trkpt><trkpt lat="43.967697472429116" lon="11.12368667183101"><ele>169.0</ele><time>2026-04-26T08:21:34.001Z</time></trkpt><trkpt lat="43.967607179948885" lon="11.123756316059824"><ele>169.79999999999998</ele><time>2026-04-26T08:21:35.001Z</time></trkpt><trkpt lat="43.967511568308375" lon="11.123829207961007"><ele>170.6</ele><time>2026-04-26T08:21:36.001Z</time></trkpt><trkpt lat="43.9674158332658" lon="11.123912687868692"><ele>171.4</ele><time>2026-04-26T08:21:37.001Z</time></trkpt><trkpt lat="43.9673324987342" lon="11.123992536703728"><ele>172.2</ele><time>2026-04-26T08:21:38.001Z</time></trkpt><trkpt lat="43.96723657171111" lon="11.12403832927727"><ele>173.0</ele><time>2026-04-26T08:21:39.001Z</time></trkpt><trkpt lat="43.96715816275" lon="11.124072520303525"><ele>173.0</ele><time>2026-04-26T08:21:40.001Z</time></trkpt><trkpt lat="43.96707655827353" lon="11.124107781479793"><ele>173.0</ele><time>2026-04-26T08:21:41.001Z</time></trkpt><trkpt lat="43.96698254241776" lon="11.124144864815028"><ele>173.0</ele><time>2026-04-26T08:21:42.001Z</time></trkpt><trkpt lat="43.96687195508565" lon="11.12418884020645"><ele>173.0</ele><time>2026-04-26T08:21:43Z</time></trkpt><trkpt lat="43.96675807599427" lon="11.12423412441582"><ele>173.0</ele><time>2026-04-26T08:21:44Z</time></trkpt><trkpt lat="43.966625265588874" lon="11.12428693677549"><ele>173.5</ele><time>2026-04-26T08:21:45.001Z</time></trkpt><trkpt lat="43.966491751341934" lon="11.124340737969867"><ele>174.0</ele><time>2026-04-26T08:21:46.001Z</time></trkpt><trkpt lat="43.96637901930745" lon="11.124386304015326"><ele>174.5</ele><time>2026-04-26T08:21:47.001Z</time></trkpt><trkpt lat="43.96627217081846" lon="11.124432252249811"><ele>175.0</ele><time>2026-04-26T08:21:48.001Z</time></trkpt><trkpt lat="43.96617724299971" lon="11.12449477300076"><ele>175.0</ele><time>2026-04-26T08:21:49Z</time></trkpt><trkpt lat="43.96607490993986" lon="11.124516630951574"><ele>175.0</ele><time>2026-04-26T08:21:50Z</time></trkpt><trkpt lat="43.965981805784125" lon="11.1245551424057"><ele>175.0</ele><time>2026-04-26T08:21:51.001Z</time></trkpt><trkpt lat="43.965877682940906" lon="11.124606243519567"><ele>175.0</ele><time>2026-04-26T08:21:52.001Z</time></trkpt><trkpt lat="43.965782430128456" lon="11.12464716943331"><ele>175.0</ele><time>2026-04-26T08:21:53.001Z</time></trkpt><trkpt lat="43.96568579220235" lon="11.124679348165435"><ele>175.0</ele><time>2026-04-26T08:21:54Z</time></trkpt><trkpt lat="43.96558707433432" lon="11.124711755382242"><ele>175.0</ele><time>2026-04-26T08:21:55Z</time></trkpt><trkpt lat="43.96547871752089" lon="11.124744833435537"><ele>175.0</ele><time>2026-04-26T08:21:56Z</time></trkpt><trkpt lat="43.96536360702348" lon="11.124771309093978"><ele>175.0</ele><time>2026-04-26T08:21:57Z</time></trkpt><trkpt lat="43.96525897589692" lon="11.124814143857702"><ele>175.0</ele><time>2026-04-26T08:21:58Z</time></trkpt><trkpt lat="43.965147566993274" lon="11.124872614955752"><ele>172.6</ele><time>2026-04-26T08:21:59Z</time></trkpt><trkpt lat="43.965039566478865" lon="11.124909822964177"><ele>170.2</ele><time>2026-04-26T08:22:00Z</time></trkpt><trkpt lat="43.96492424912912" lon="11.124932425693206"><ele>167.8</ele><time>2026-04-26T08:22:01Z</time></trkpt><trkpt lat="43.96481505966836" lon="11.124933232979203"><ele>165.4</ele><time>2026-04-26T08:22:02Z</time></trkpt><trkpt lat="43.96470384388037" lon="11.124919430183118"><ele>163.0</ele><time>2026-04-26T08:22:03Z</time></trkpt><trkpt lat="43.964595568322146" lon="11.124905379997992"><ele>162.83333333333334</ele><time>2026-04-26T08:22:04Z</time></trkpt><trkpt lat="43.96449299123693" lon="11.12489634881766"><ele>162.66666666666669</ele><time>2026-04-26T08:22:05Z</time></trkpt><trkpt lat="43.96439829448718" lon="11.124880081099993"><ele>162.5</ele><time>2026-04-26T08:22:06Z</time></trkpt><trkpt lat="43.964320590740314" lon="11.124851507020903"><ele>162.33333333333334</ele><time>2026-04-26T08:22:07Z</time></trkpt><trkpt lat="43.96423819987388" lon="11.12483172692072"><ele>162.16666666666666</ele><time>2026-04-26T08:22:08Z</time></trkpt><trkpt lat="43.96415311061257" lon="11.124819578267731"><ele>162.0</ele><time>2026-04-26T08:22:09Z</time></trkpt><trkpt lat="43.96407262347708" lon="11.12481095914796"><ele>161.71428571428572</ele><time>2026-04-26T08:22:10Z</time></trkpt><trkpt lat="43.963990022394164" lon="11.124805217268714"><ele>161.42857142857142</ele><time>2026-04-26T08:22:11Z</time></trkpt><trkpt lat="43.96391406671461" lon="11.124795565049036"><ele>161.14285714285714</ele><time>2026-04-26T08:22:12Z</time></trkpt><trkpt lat="43.96384194907214" lon="11.124786293943677"><ele>160.85714285714286</ele><time>2026-04-26T08:22:13Z</time></trkpt><trkpt lat="43.96376895781636" lon="11.124781220143916"><ele>160.57142857142858</ele><time>2026-04-26T08:22:14Z</time></trkpt><trkpt lat="43.963703882824696" lon="11.124777363795962"><ele>160.28571428571428</ele><time>2026-04-26T08:22:15Z</time></trkpt><trkpt lat="43.96363917590827" lon="11.124777036218545"><ele>160.0</ele><time>2026-04-26T08:22:16Z</time></trkpt><trkpt lat="43.96352912848089" lon="11.12479321408882"><ele>160.0</ele><time>2026-04-26T08:22:18Z</time></trkpt><trkpt lat="43.96341246676514" lon="11.124769487190845"><ele>160.0</ele><time>2026-04-26T08:22:20Z</time></trkpt><trkpt lat="43.96334803620795" lon="11.124740626944408"><ele>160.0</ele><time>2026-04-26T08:22:21Z</time></trkpt><trkpt lat="43.96328400582669" lon="11.124710381629715"><ele>160.0</ele><time>2026-04-26T08:22:22Z</time></trkpt><trkpt lat="43.963200429107076" lon="11.124706245567992"><ele>160.0</ele><time>2026-04-26T08:22:23Z</time></trkpt><trkpt lat="43.963124681578975" lon="11.124698464153177"><ele>160.0</ele><time>2026-04-26T08:22:24Z</time></trkpt><trkpt lat="43.96304691762769" lon="11.124693419418616"><ele>158.6</ele><time>2026-04-26T08:22:25Z</time></trkpt><trkpt lat="43.962968844290714" lon="11.12468518422631"><ele>157.2</ele><time>2026-04-26T08:22:26Z</time></trkpt><trkpt lat="43.962882034288704" lon="11.124675049130563"><ele>155.8</ele><time>2026-04-26T08:22:27Z</time></trkpt><trkpt lat="43.9627919801072" lon="11.124664291795202"><ele>154.4</ele><time>2026-04-26T08:22:28Z</time></trkpt><trkpt lat="43.96269350305586" lon="11.124649855760662"><ele>153.0</ele><time>2026-04-26T08:22:29Z</time></trkpt><trkpt lat="43.962595690636576" lon="11.124631374560519"><ele>152.8</ele><time>2026-04-26T08:22:30Z</time></trkpt><trkpt lat="43.9624969317794" lon="11.124620002064544"><ele>152.60000000000002</ele><time>2026-04-26T08:22:31Z</time></trkpt><trkpt lat="43.96240197532333" lon="11.124629233574343"><ele>152.39999999999998</ele><time>2026-04-26T08:22:32Z</time></trkpt><trkpt lat="43.96230254095997" lon="11.12458931984061"><ele>152.2</ele><time>2026-04-26T08:22:33Z</time></trkpt><trkpt lat="43.96220096124742" lon="11.124578583550278"><ele>152.0</ele><time>2026-04-26T08:22:34Z</time></trkpt><trkpt lat="43.96210243264588" lon="11.124563342453415"><ele>152.0</ele><time>2026-04-26T08:22:35Z</time></trkpt><trkpt lat="43.96200684119877" lon="11.124549893262632"><ele>152.0</ele><time>2026-04-26T08:22:36Z</time></trkpt><trkpt lat="43.96191876455658" lon="11.12454222173943"><ele>152.0</ele><time>2026-04-26T08:22:37Z</time></trkpt><trkpt lat="43.96183306855329" lon="11.124541361425944"><ele>152.0</ele><time>2026-04-26T08:22:38Z</time></trkpt><trkpt lat="43.96172644582803" lon="11.124529617486996"><ele>152.0</ele><time>2026-04-26T08:22:40Z</time></trkpt><trkpt lat="43.961620157926916" lon="11.124523114203683"><ele>151.2</ele><time>2026-04-26T08:22:42Z</time></trkpt><trkpt lat="43.961547565041904" lon="11.12451832897724"><ele>150.39999999999998</ele><time>2026-04-26T08:22:43Z</time></trkpt><trkpt lat="43.96146348028614" lon="11.124504529640797"><ele>149.60000000000002</ele><time>2026-04-26T08:22:44Z</time></trkpt><trkpt lat="43.96136847738598" lon="11.124492097872444"><ele>148.8</ele><time>2026-04-26T08:22:45Z</time></trkpt><trkpt lat="43.961267451488425" lon="11.12447557473781"><ele>148.0</ele><time>2026-04-26T08:22:46Z</time></trkpt><trkpt lat="43.9611593932329" lon="11.124462608977684"><ele>148.0</ele><time>2026-04-26T08:22:47Z</time></trkpt><trkpt lat="43.961048280138776" lon="11.124452950244514"><ele>148.0</ele><time>2026-04-26T08:22:48Z</time></trkpt><trkpt lat="43.96093318978497" lon="11.124448996553642"><ele>148.0</ele><time>2026-04-26T08:22:49Z</time></trkpt><trkpt lat="43.96082031555952" lon="11.124458092382595"><ele>148.0</ele><time>2026-04-26T08:22:50Z</time></trkpt><trkpt lat="43.96071941794123" lon="11.12447785151978"><ele>148.0</ele><time>2026-04-26T08:22:51Z</time></trkpt><trkpt lat="43.96062160594791" lon="11.124523094213036"><ele>148.4</ele><time>2026-04-26T08:22:52Z</time></trkpt><trkpt lat="43.96052258906004" lon="11.124574776999161"><ele>148.8</ele><time>2026-04-26T08:22:53Z</time></trkpt><trkpt lat="43.96042851294063" lon="11.124638280617662"><ele>149.2</ele><time>2026-04-26T08:22:54Z</time></trkpt><trkpt lat="43.960331310557955" lon="11.12470867177083"><ele>149.6</ele><time>2026-04-26T08:22:55Z</time></trkpt><trkpt lat="43.96022869244871" lon="11.124779334697926"><ele>150.0</ele><time>2026-04-26T08:22:56Z</time></trkpt><trkpt lat="43.960128359073906" lon="11.124846280330184"><ele>150.0</ele><time>2026-04-26T08:22:57Z</time></trkpt><trkpt lat="43.96003716374974" lon="11.124895617413298"><ele>150.0</ele><time>2026-04-26T08:22:58Z</time></trkpt><trkpt lat="43.95995225766623" lon="11.124951640769053"><ele>150.0</ele><time>2026-04-26T08:22:59Z</time></trkpt><trkpt lat="43.95986631279431" lon="11.124993072793732"><ele>150.0</ele><time>2026-04-26T08:23:00Z</time></trkpt><trkpt lat="43.95977149542647" lon="11.125029891246196"><ele>150.0</ele><time>2026-04-26T08:23:01Z</time></trkpt><trkpt lat="43.95968677549003" lon="11.12505566320562"><ele>149.0</ele><time>2026-04-26T08:23:02Z</time></trkpt><trkpt lat="43.95961648867961" lon="11.12507599042713"><ele>148.0</ele><time>2026-04-26T08:23:03Z</time></trkpt><trkpt lat="43.959551360039065" lon="11.125095149335694"><ele>147.0</ele><time>2026-04-26T08:23:04Z</time></trkpt><trkpt lat="43.959486634116885" lon="11.125117939535352"><ele>146.0</ele><time>2026-04-26T08:23:05Z</time></trkpt><trkpt lat="43.959403191602135" lon="11.125126394477137"><ele>145.0</ele><time>2026-04-26T08:23:06Z</time></trkpt><trkpt lat="43.95931462377342" lon="11.125135044365296"><ele>144.0</ele><time>2026-04-26T08:23:07Z</time></trkpt><trkpt lat="43.959230092117764" lon="11.12514728312886"><ele>144.4</ele><time>2026-04-26T08:23:08Z</time></trkpt><trkpt lat="43.95913191040044" lon="11.125160215113024"><ele>144.8</ele><time>2026-04-26T08:23:09Z</time></trkpt><trkpt lat="43.9590331986323" lon="11.12516607386805"><ele>145.2</ele><time>2026-04-26T08:23:10Z</time></trkpt><trkpt lat="43.95892279533096" lon="11.125165094191772"><ele>145.6</ele><time>2026-04-26T08:23:11Z</time></trkpt><trkpt lat="43.958794985302774" lon="11.12517361811886"><ele>146.0</ele><time>2026-04-26T08:23:12Z</time></trkpt><trkpt lat="43.9586685323588" lon="11.125186811119978"><ele>146.0</ele><time>2026-04-26T08:23:13Z</time></trkpt><trkpt lat="43.95853967398284" lon="11.125204555668965"><ele>146.0</ele><time>2026-04-26T08:23:14Z</time></trkpt><trkpt lat="43.958402138202906" lon="11.125237154777485"><ele>146.0</ele><time>2026-04-26T08:23:15Z</time></trkpt><trkpt lat="43.95825729154264" lon="11.125287036231706"><ele>146.0</ele><time>2026-04-26T08:23:16Z</time></trkpt><trkpt lat="43.95810599451195" lon="11.12533702764511"><ele>146.0</ele><time>2026-04-26T08:23:17Z</time></trkpt><trkpt lat="43.957955589145435" lon="11.125396544814512"><ele>146.0</ele><time>2026-04-26T08:23:18Z</time></trkpt><trkpt lat="43.95779863628035" lon="11.125466972972637"><ele>146.0</ele><time>2026-04-26T08:23:19Z</time></trkpt><trkpt lat="43.95763805140945" lon="11.12552869024437"><ele>147.0</ele><time>2026-04-26T08:23:20Z</time></trkpt><trkpt lat="43.95747154563059" lon="11.125596948817062"><ele>148.0</ele><time>2026-04-26T08:23:21Z</time></trkpt><trkpt lat="43.95730573423235" lon="11.125667276564192"><ele>149.0</ele><time>2026-04-26T08:23:22Z</time></trkpt><trkpt lat="43.95713099837823" lon="11.125740125301581"><ele>146.0</ele><time>2026-04-26T08:23:23Z</time></trkpt><trkpt lat="43.95695267880721" lon="11.125810720859093"><ele>143.0</ele><time>2026-04-26T08:23:24Z</time></trkpt><trkpt lat="43.95677060218275" lon="11.125879332719665"><ele>140.0</ele><time>2026-04-26T08:23:25Z</time></trkpt><trkpt lat="43.956591758609356" lon="11.125942574612436"><ele>140.0</ele><time>2026-04-26T08:23:26Z</time></trkpt><trkpt lat="43.9564132076232" lon="11.126004001616984"><ele>140.0</ele><time>2026-04-26T08:23:27Z</time></trkpt><trkpt lat="43.95624714837524" lon="11.126050060640097"><ele>140.0</ele><time>2026-04-26T08:23:28Z</time></trkpt><trkpt lat="43.95608499490988" lon="11.12609884841473"><ele>140.0</ele><time>2026-04-26T08:23:29Z</time></trkpt><trkpt lat="43.95593317002962" lon="11.126154015124746"><ele>140.0</ele><time>2026-04-26T08:23:30Z</time></trkpt><trkpt lat="43.955778523877676" lon="11.126202448527373"><ele>140.0</ele><time>2026-04-26T08:23:31Z</time></trkpt><trkpt lat="43.95564175436556" lon="11.126238094515667"><ele>140.5</ele><time>2026-04-26T08:23:32Z</time></trkpt><trkpt lat="43.95552239340427" lon="11.126268020834756"><ele>141.0</ele><time>2026-04-26T08:23:33Z</time></trkpt><trkpt lat="43.95542326920166" lon="11.12628012404031"><ele>141.5</ele><time>2026-04-26T08:23:34Z</time></trkpt><trkpt lat="43.95533946245807" lon="11.126284820614991"><ele>142.0</ele><time>2026-04-26T08:23:35Z</time></trkpt><trkpt lat="43.955265245811056" lon="11.126295212606676"><ele>142.5</ele><time>2026-04-26T08:23:36Z</time></trkpt><trkpt lat="43.95519658832654" lon="11.126297135562034"><ele>143.0</ele><time>2026-04-26T08:23:37Z</time></trkpt><trkpt lat="43.9551207348423" lon="11.12631641251447"><ele>143.0</ele><time>2026-04-26T08:23:38Z</time></trkpt><trkpt lat="43.95504479712829" lon="11.126317256262269"><ele>143.0</ele><time>2026-04-26T08:23:39Z</time></trkpt><trkpt lat="43.95495898701841" lon="11.126297378469713"><ele>143.0</ele><time>2026-04-26T08:23:40Z</time></trkpt><trkpt lat="43.954867521797894" lon="11.126274987515034"><ele>143.0</ele><time>2026-04-26T08:23:41Z</time></trkpt><trkpt lat="43.95476470601217" lon="11.126278815578432"><ele>143.0</ele><time>2026-04-26T08:23:42Z</time></trkpt><trkpt lat="43.95466017447976" lon="11.126299992810234"><ele>141.25</ele><time>2026-04-26T08:23:43Z</time></trkpt><trkpt lat="43.95455063099802" lon="11.1263478176076"><ele>139.5</ele><time>2026-04-26T08:23:44Z</time></trkpt><trkpt lat="43.9544455478103" lon="11.126426807311109"><ele>137.75</ele><time>2026-04-26T08:23:45Z</time></trkpt><trkpt lat="43.95434661371585" lon="11.126513780468764"><ele>136.0</ele><time>2026-04-26T08:23:46Z</time></trkpt><trkpt lat="43.954240387277956" lon="11.12659746224221"><ele>137.0</ele><time>2026-04-26T08:23:47Z</time></trkpt><trkpt lat="43.95412330331008" lon="11.126674061395635"><ele>138.0</ele><time>2026-04-26T08:23:48.001Z</time></trkpt><trkpt lat="43.953999030126525" lon="11.126735853472058"><ele>139.0</ele><time>2026-04-26T08:23:49Z</time></trkpt><trkpt lat="43.95386208527772" lon="11.126795040691675"><ele>140.0</ele><time>2026-04-26T08:23:50Z</time></trkpt><trkpt lat="43.95370403140223" lon="11.126857432632551"><ele>140.0</ele><time>2026-04-26T08:23:51.001Z</time></trkpt><trkpt lat="43.95354785193776" lon="11.126906255623755"><ele>140.0</ele><time>2026-04-26T08:23:52.001Z</time></trkpt><trkpt lat="43.95340135609358" lon="11.126946530815216"><ele>140.0</ele><time>2026-04-26T08:23:53.001Z</time></trkpt><trkpt lat="43.95325261155463" lon="11.126987725631434"><ele>141.66666666666666</ele><time>2026-04-26T08:23:54.001Z</time></trkpt><trkpt lat="43.953101486312406" lon="11.127035441022473"><ele>143.33333333333334</ele><time>2026-04-26T08:23:55Z</time></trkpt><trkpt lat="43.95294301987995" lon="11.127099644528426"><ele>145.0</ele><time>2026-04-26T08:23:56Z</time></trkpt><trkpt lat="43.95277161456227" lon="11.127165724223044"><ele>145.0</ele><time>2026-04-26T08:23:57.001Z</time></trkpt><trkpt lat="43.95259592869702" lon="11.12723282292067"><ele>145.0</ele><time>2026-04-26T08:23:58.001Z</time></trkpt><trkpt lat="43.9524113571075" lon="11.127307165595056"><ele>145.0</ele><time>2026-04-26T08:23:59.001Z</time></trkpt><trkpt lat="43.952212714243394" lon="11.127375788225779"><ele>141.66666666666669</ele><time>2026-04-26T08:24:00.001Z</time></trkpt><trkpt lat="43.95202635723582" lon="11.127420371995147"><ele>138.33333333333334</ele><time>2026-04-26T08:24:01.001Z</time></trkpt><trkpt lat="43.951872252146664" lon="11.127467455290162"><ele>135.0</ele><time>2026-04-26T08:24:02.001Z</time></trkpt><trkpt lat="43.951738359353556" lon="11.127497277441137"><ele>136.0</ele><time>2026-04-26T08:24:03.001Z</time></trkpt><trkpt lat="43.951623152298396" lon="11.127537812748661"><ele>137.0</ele><time>2026-04-26T08:24:04.001Z</time></trkpt><trkpt lat="43.951498448251044" lon="11.12755041352135"><ele>138.0</ele><time>2026-04-26T08:24:05.001Z</time></trkpt><trkpt lat="43.95138103890837" lon="11.127519465743365"><ele>139.0</ele><time>2026-04-26T08:24:06.001Z</time></trkpt><trkpt lat="43.95124954166556" lon="11.127437588275958"><ele>142.66666666666669</ele><time>2026-04-26T08:24:07.001Z</time></trkpt><trkpt lat="43.95109799826209" lon="11.127344434020355"><ele>146.33333333333334</ele><time>2026-04-26T08:24:08.001Z</time></trkpt><trkpt lat="43.950937531890254" lon="11.12726013327848"><ele>150.0</ele><time>2026-04-26T08:24:09.001Z</time></trkpt><trkpt lat="43.95075636409817" lon="11.127180657286626"><ele>150.0</ele><time>2026-04-26T08:24:10.001Z</time></trkpt><trkpt lat="43.950574486447024" lon="11.127076999696454"><ele>150.0</ele><time>2026-04-26T08:24:11.001Z</time></trkpt><trkpt lat="43.95038382622195" lon="11.126967721909159"><ele>150.0</ele><time>2026-04-26T08:24:12.001Z</time></trkpt><trkpt lat="43.95019736196676" lon="11.126847332422617"><ele>146.33333333333334</ele><time>2026-04-26T08:24:13.001Z</time></trkpt><trkpt lat="43.95001275719763" lon="11.126732194173961"><ele>142.66666666666669</ele><time>2026-04-26T08:24:14.001Z</time></trkpt><trkpt lat="43.94982487355642" lon="11.12662941510653"><ele>139.0</ele><time>2026-04-26T08:24:15.001Z</time></trkpt><trkpt lat="43.949649515672206" lon="11.126532083197995"><ele>140.66666666666669</ele><time>2026-04-26T08:24:16.001Z</time></trkpt><trkpt lat="43.94948628513154" lon="11.12643075366836"><ele>142.33333333333334</ele><time>2026-04-26T08:24:17.001Z</time></trkpt><trkpt lat="43.949338332956984" lon="11.126329498219578"><ele>144.0</ele><time>2026-04-26T08:24:18.001Z</time></trkpt><trkpt lat="43.94920075940993" lon="11.126217510788887"><ele>144.0</ele><time>2026-04-26T08:24:19.001Z</time></trkpt><trkpt lat="43.94906900660593" lon="11.126063978750128"><ele>144.0</ele><time>2026-04-26T08:24:20.001Z</time></trkpt><trkpt lat="43.9489418964159" lon="11.12590543173823"><ele>144.0</ele><time>2026-04-26T08:24:21.001Z</time></trkpt><trkpt lat="43.94881884474694" lon="11.125698658723408"><ele>150.0</ele><time>2026-04-26T08:24:22.001Z</time></trkpt><trkpt lat="43.948680305625906" lon="11.125513725319633"><ele>156.0</ele><time>2026-04-26T08:24:23.001Z</time></trkpt><trkpt lat="43.94853068684502" lon="11.125374403887081"><ele>162.0</ele><time>2026-04-26T08:24:24.001Z</time></trkpt><trkpt lat="43.94838220484292" lon="11.125267623892224"><ele>154.66666666666666</ele><time>2026-04-26T08:24:25.001Z</time></trkpt><trkpt lat="43.9482215914642" lon="11.125220826402302"><ele>147.33333333333331</ele><time>2026-04-26T08:24:26.001Z</time></trkpt><trkpt lat="43.94806927671887" lon="11.125199009395669"><ele>140.0</ele><time>2026-04-26T08:24:27.001Z</time></trkpt><trkpt lat="43.947920239729605" lon="11.125172644099322"><ele>140.0</ele><time>2026-04-26T08:24:28.001Z</time></trkpt><trkpt lat="43.947782520927056" lon="11.125161498653604"><ele>140.0</ele><time>2026-04-26T08:24:29.001Z</time></trkpt><trkpt lat="43.947638756229125" lon="11.12516222347138"><ele>140.0</ele><time>2026-04-26T08:24:30.001Z</time></trkpt><trkpt lat="43.947514687069926" lon="11.125157456962818"><ele>140.0</ele><time>2026-04-26T08:24:31.001Z</time></trkpt><trkpt lat="43.94739761741525" lon="11.125138362299444"><ele>138.8</ele><time>2026-04-26T08:24:32.001Z</time></trkpt><trkpt lat="43.94729251826711" lon="11.125134026295413"><ele>137.6</ele><time>2026-04-26T08:24:33.001Z</time></trkpt><trkpt lat="43.94719617006971" lon="11.125134453721607"><ele>136.4</ele><time>2026-04-26T08:24:34.001Z</time></trkpt><trkpt lat="43.94709291838212" lon="11.12512826963432"><ele>135.2</ele><time>2026-04-26T08:24:35.001Z</time></trkpt><trkpt lat="43.94699386673143" lon="11.12511226268468"><ele>134.0</ele><time>2026-04-26T08:24:36.001Z</time></trkpt><trkpt lat="43.94688388111956" lon="11.125099143499051"><ele>134.0</ele><time>2026-04-26T08:24:37.001Z</time></trkpt><trkpt lat="43.94677703846094" lon="11.125067547989252"><ele>134.0</ele><time>2026-04-26T08:24:38.001Z</time></trkpt><trkpt lat="43.94667834522334" lon="11.125039441576236"><ele>134.0</ele><time>2026-04-26T08:24:39.001Z</time></trkpt><trkpt lat="43.9465768606821" lon="11.125009226444153"><ele>134.0</ele><time>2026-04-26T08:24:40.001Z</time></trkpt><trkpt lat="43.94646550662156" lon="11.124980111720967"><ele>134.0</ele><time>2026-04-26T08:24:41.001Z</time></trkpt><trkpt lat="43.94636086855023" lon="11.124955642028807"><ele>134.25</ele><time>2026-04-26T08:24:42.001Z</time></trkpt><trkpt lat="43.946253405954074" lon="11.12491996899298"><ele>134.5</ele><time>2026-04-26T08:24:43.001Z</time></trkpt><trkpt lat="43.94613536464351" lon="11.124882745085463"><ele>134.75</ele><time>2026-04-26T08:24:44.001Z</time></trkpt><trkpt lat="43.94599455964039" lon="11.124851986565817"><ele>135.0</ele><time>2026-04-26T08:24:45.001Z</time></trkpt><trkpt lat="43.94585652950117" lon="11.124813873417068"><ele>135.0</ele><time>2026-04-26T08:24:46.001Z</time></trkpt><trkpt lat="43.94572373819567" lon="11.124743288433827"><ele>135.0</ele><time>2026-04-26T08:24:47.001Z</time></trkpt><trkpt lat="43.94559285255656" lon="11.124696231777568"><ele>135.0</ele><time>2026-04-26T08:24:48.001Z</time></trkpt><trkpt lat="43.94546952191318" lon="11.12465201474983"><ele>135.0</ele><time>2026-04-26T08:24:49.001Z</time></trkpt><trkpt lat="43.94534820441896" lon="11.124608887887693"><ele>135.0</ele><time>2026-04-26T08:24:50.001Z</time></trkpt><trkpt lat="43.9452182628498" lon="11.124563738684719"><ele>135.0</ele><time>2026-04-26T08:24:51.001Z</time></trkpt><trkpt lat="43.94508647946332" lon="11.124521602767274"><ele>135.0</ele><time>2026-04-26T08:24:52.001Z</time></trkpt><trkpt lat="43.94495362130912" lon="11.124499917265023"><ele>135.0</ele><time>2026-04-26T08:24:53.001Z</time></trkpt><trkpt lat="43.944830302827334" lon="11.124518209459719"><ele>133.25</ele><time>2026-04-26T08:24:54.001Z</time></trkpt><trkpt lat="43.944711562987095" lon="11.124545583893878"><ele>131.5</ele><time>2026-04-26T08:24:55.001Z</time></trkpt><trkpt lat="43.94457702022208" lon="11.124589886596068"><ele>129.75</ele><time>2026-04-26T08:24:56.001Z</time></trkpt><trkpt lat="43.94444361187927" lon="11.124678794005963"><ele>128.0</ele><time>2026-04-26T08:24:57.001Z</time></trkpt><trkpt lat="43.94429589309328" lon="11.1247929832557"><ele>127.33333333333333</ele><time>2026-04-26T08:24:58.001Z</time></trkpt><trkpt lat="43.94414298209224" lon="11.124911956016678"><ele>126.66666666666666</ele><time>2026-04-26T08:24:59.001Z</time></trkpt><trkpt lat="43.94399922919147" lon="11.125020798508704"><ele>126.0</ele><time>2026-04-26T08:25:00.001Z</time></trkpt><trkpt lat="43.94386294335075" lon="11.125123987397654"><ele>126.0</ele><time>2026-04-26T08:25:01.001Z</time></trkpt><trkpt lat="43.94372355349913" lon="11.125228954373602"><ele>126.0</ele><time>2026-04-26T08:25:02.001Z</time></trkpt><trkpt lat="43.943580059472275" lon="11.125334683977634"><ele>126.0</ele><time>2026-04-26T08:25:03.001Z</time></trkpt><trkpt lat="43.943449092645594" lon="11.125449826525148"><ele>130.25</ele><time>2026-04-26T08:25:04.001Z</time></trkpt><trkpt lat="43.94330909443745" lon="11.125496907600416"><ele>134.5</ele><time>2026-04-26T08:25:05.001Z</time></trkpt><trkpt lat="43.94317536191619" lon="11.1255461128694"><ele>138.75</ele><time>2026-04-26T08:25:06.001Z</time></trkpt><trkpt lat="43.94304321757232" lon="11.125586549228814"><ele>143.0</ele><time>2026-04-26T08:25:07.001Z</time></trkpt><trkpt lat="43.94290691173737" lon="11.125631592503453"><ele>143.0</ele><time>2026-04-26T08:25:08.001Z</time></trkpt><trkpt lat="43.94276303212944" lon="11.125670236401161"><ele>143.0</ele><time>2026-04-26T08:25:09.001Z</time></trkpt><trkpt lat="43.94262265543348" lon="11.12571239632027"><ele>143.0</ele><time>2026-04-26T08:25:10.001Z</time></trkpt><trkpt lat="43.94248732712052" lon="11.125751823267175"><ele>143.0</ele><time>2026-04-26T08:25:11.001Z</time></trkpt><trkpt lat="43.94236752383745" lon="11.125802322195577"><ele>140.5</ele><time>2026-04-26T08:25:12.001Z</time></trkpt><trkpt lat="43.942264521000745" lon="11.125841767520436"><ele>138.0</ele><time>2026-04-26T08:25:13.001Z</time></trkpt><trkpt lat="43.942182829141764" lon="11.125897838053007"><ele>135.5</ele><time>2026-04-26T08:25:14.001Z</time></trkpt><trkpt lat="43.94211185812964" lon="11.12597245863295"><ele>133.0</ele><time>2026-04-26T08:25:15.001Z</time></trkpt><trkpt lat="43.94205237008791" lon="11.126034363897006"><ele>130.5</ele><time>2026-04-26T08:25:16.001Z</time></trkpt><trkpt lat="43.941993517300226" lon="11.126096919983267"><ele>128.0</ele><time>2026-04-26T08:25:17.001Z</time></trkpt><trkpt lat="43.94192666444076" lon="11.126136078533627"><ele>127.99999999999999</ele><time>2026-04-26T08:25:18.001Z</time></trkpt><trkpt lat="43.941856347139726" lon="11.126155280752599"><ele>128.0</ele><time>2026-04-26T08:25:19.001Z</time></trkpt><trkpt lat="43.94177777541961" lon="11.12618588104776"><ele>128.0</ele><time>2026-04-26T08:25:20.001Z</time></trkpt><trkpt lat="43.941710545037736" lon="11.126264683146193"><ele>128.0</ele><time>2026-04-26T08:25:21.001Z</time></trkpt><trkpt lat="43.94166435250828" lon="11.12635779474723"><ele>127.99999999999999</ele><time>2026-04-26T08:25:22.001Z</time></trkpt><trkpt lat="43.94163195874744" lon="11.126480377327615"><ele>128.0</ele><time>2026-04-26T08:25:23.001Z</time></trkpt><trkpt lat="43.941597305311056" lon="11.126631655150243"><ele>128.75</ele><time>2026-04-26T08:25:24.001Z</time></trkpt><trkpt lat="43.94153656958698" lon="11.126784874079135"><ele>129.5</ele><time>2026-04-26T08:25:25.001Z</time></trkpt><trkpt lat="43.94146461597155" lon="11.126943931771212"><ele>130.25</ele><time>2026-04-26T08:25:26.001Z</time></trkpt><trkpt lat="43.94137252218753" lon="11.127093989103521"><ele>131.0</ele><time>2026-04-26T08:25:27.001Z</time></trkpt><trkpt lat="43.94128328172128" lon="11.127214523104644"><ele>131.0</ele><time>2026-04-26T08:25:28.001Z</time></trkpt><trkpt lat="43.94119868474067" lon="11.127321570824712"><ele>131.0</ele><time>2026-04-26T08:25:29.001Z</time></trkpt><trkpt lat="43.94112274857123" lon="11.127424804128"><ele>131.0</ele><time>2026-04-26T08:25:30.001Z</time></trkpt><trkpt lat="43.941041989653726" lon="11.127522143066077"><ele>131.0</ele><time>2026-04-26T08:25:31.001Z</time></trkpt><trkpt lat="43.940946763026524" lon="11.12761458130225"><ele>131.0</ele><time>2026-04-26T08:25:32.001Z</time></trkpt><trkpt lat="43.940840299698564" lon="11.12771005035008"><ele>132.25</ele><time>2026-04-26T08:25:33.001Z</time></trkpt><trkpt lat="43.94072722806977" lon="11.127798862384392"><ele>133.5</ele><time>2026-04-26T08:25:34.001Z</time></trkpt><trkpt lat="43.940618749174526" lon="11.127891025005939"><ele>134.75</ele><time>2026-04-26T08:25:35.001Z</time></trkpt><trkpt lat="43.94050166629301" lon="11.127975879755967"><ele>136.0</ele><time>2026-04-26T08:25:36.001Z</time></trkpt><trkpt lat="43.940388537960054" lon="11.128060101669814"><ele>136.0</ele><time>2026-04-26T08:25:37.001Z</time></trkpt><trkpt lat="43.94027908923466" lon="11.128153604853003"><ele>136.0</ele><time>2026-04-26T08:25:38.001Z</time></trkpt><trkpt lat="43.94016724836673" lon="11.128240729369624"><ele>136.0</ele><time>2026-04-26T08:25:39.001Z</time></trkpt><trkpt lat="43.94005430505219" lon="11.128311330137809"><ele>136.0</ele><time>2026-04-26T08:25:40.001Z</time></trkpt><trkpt lat="43.93993886553384" lon="11.128364355068248"><ele>135.75</ele><time>2026-04-26T08:25:41.001Z</time></trkpt><trkpt lat="43.939817211651295" lon="11.12840812279771"><ele>135.5</ele><time>2026-04-26T08:25:42.001Z</time></trkpt><trkpt lat="43.93969350274662" lon="11.12842637959769"><ele>135.25</ele><time>2026-04-26T08:25:43.001Z</time></trkpt><trkpt lat="43.9395647461639" lon="11.12841960372974"><ele>135.0</ele><time>2026-04-26T08:25:44.001Z</time></trkpt><trkpt lat="43.9394338442072" lon="11.128398096013612"><ele>135.0</ele><time>2026-04-26T08:25:45.001Z</time></trkpt><trkpt lat="43.93930923393054" lon="11.128352503363505"><ele>135.0</ele><time>2026-04-26T08:25:46.001Z</time></trkpt><trkpt lat="43.93919234155525" lon="11.128279970456767"><ele>135.0</ele><time>2026-04-26T08:25:47.001Z</time></trkpt><trkpt lat="43.939074832853066" lon="11.128207014440603"><ele>135.0</ele><time>2026-04-26T08:25:48.001Z</time></trkpt><trkpt lat="43.93895878717795" lon="11.128121066488024"><ele>137.0</ele><time>2026-04-26T08:25:49.001Z</time></trkpt><trkpt lat="43.93884846899587" lon="11.12801296617897"><ele>139.0</ele><time>2026-04-26T08:25:50.001Z</time></trkpt><trkpt lat="43.93873969438952" lon="11.127918983538239"><ele>141.0</ele><time>2026-04-26T08:25:51.001Z</time></trkpt><trkpt lat="43.93863159725788" lon="11.12782395209986"><ele>143.0</ele><time>2026-04-26T08:25:52.001Z</time></trkpt><trkpt lat="43.938529185475836" lon="11.127723888963933"><ele>143.0</ele><time>2026-04-26T08:25:53.001Z</time></trkpt><trkpt lat="43.93842083645343" lon="11.127631938797107"><ele>143.0</ele><time>2026-04-26T08:25:54.001Z</time></trkpt><trkpt lat="43.93831051779957" lon="11.12753729545824"><ele>143.0</ele><time>2026-04-26T08:25:55Z</time></trkpt><trkpt lat="43.93819996200759" lon="11.127441922988035"><ele>143.0</ele><time>2026-04-26T08:25:56Z</time></trkpt><trkpt lat="43.93809038206996" lon="11.127348486069616"><ele>145.5</ele><time>2026-04-26T08:25:57.001Z</time></trkpt><trkpt lat="43.937983220866606" lon="11.127252049113048"><ele>148.0</ele><time>2026-04-26T08:25:58.001Z</time></trkpt><trkpt lat="43.93787720764141" lon="11.127156855398576"><ele>150.5</ele><time>2026-04-26T08:25:59.001Z</time></trkpt><trkpt lat="43.9377726637733" lon="11.127067622632042"><ele>153.0</ele><time>2026-04-26T08:26:00.001Z</time></trkpt><trkpt lat="43.937676807207026" lon="11.12698368896085"><ele>153.0</ele><time>2026-04-26T08:26:01.001Z</time></trkpt><trkpt lat="43.937582090471" lon="11.12690296723357"><ele>153.0</ele><time>2026-04-26T08:26:02.001Z</time></trkpt><trkpt lat="43.93747821504173" lon="11.126808723687372"><ele>153.0</ele><time>2026-04-26T08:26:03Z</time></trkpt><trkpt lat="43.9373687027627" lon="11.126709042691276"><ele>153.0</ele><time>2026-04-26T08:26:04Z</time></trkpt><trkpt lat="43.93726641352801" lon="11.126604301362482"><ele>152.75</ele><time>2026-04-26T08:26:05Z</time></trkpt><trkpt lat="43.937171991260605" lon="11.126489189455826"><ele>152.5</ele><time>2026-04-26T08:26:06Z</time></trkpt><trkpt lat="43.93708564037503" lon="11.126369284635151"><ele>152.25</ele><time>2026-04-26T08:26:07.001Z</time></trkpt><trkpt lat="43.93701000418403" lon="11.126232610272845"><ele>152.0</ele><time>2026-04-26T08:26:08.001Z</time></trkpt><trkpt lat="43.93694107235917" lon="11.12610044797788"><ele>152.0</ele><time>2026-04-26T08:26:09.001Z</time></trkpt><trkpt lat="43.93689772897002" lon="11.125970158987053"><ele>152.0</ele><time>2026-04-26T08:26:10.001Z</time></trkpt><trkpt lat="43.93683528597099" lon="11.125864208005154"><ele>152.0</ele><time>2026-04-26T08:26:11.001Z</time></trkpt><trkpt lat="43.93677077538151" lon="11.125779653476663"><ele>152.0</ele><time>2026-04-26T08:26:12.001Z</time></trkpt><trkpt lat="43.936689354716805" lon="11.125718675006192"><ele>152.0</ele><time>2026-04-26T08:26:13.001Z</time></trkpt><trkpt lat="43.93660352119756" lon="11.12567659009824"><ele>152.4</ele><time>2026-04-26T08:26:14.001Z</time></trkpt><trkpt lat="43.936519632706535" lon="11.125643724290416"><ele>152.79999999999998</ele><time>2026-04-26T08:26:15.001Z</time></trkpt><trkpt lat="43.9364231464043" lon="11.125634368485745"><ele>153.2</ele><time>2026-04-26T08:26:16.001Z</time></trkpt><trkpt lat="43.93632843186444" lon="11.125655325489493"><ele>153.6</ele><time>2026-04-26T08:26:17.001Z</time></trkpt><trkpt lat="43.93622284092126" lon="11.125685387640942"><ele>154.0</ele><time>2026-04-26T08:26:18.001Z</time></trkpt><trkpt lat="43.93612312052346" lon="11.125712798597089"><ele>154.0</ele><time>2026-04-26T08:26:19.001Z</time></trkpt><trkpt lat="43.93602050687342" lon="11.125726910446678"><ele>154.0</ele><time>2026-04-26T08:26:20.001Z</time></trkpt><trkpt lat="43.93591013635603" lon="11.1257237559688"><ele>154.0</ele><time>2026-04-26T08:26:21.001Z</time></trkpt><trkpt lat="43.935808790425305" lon="11.125692692038005"><ele>154.0</ele><time>2026-04-26T08:26:22.001Z</time></trkpt><trkpt lat="43.93571031117847" lon="11.125653438944669"><ele>154.0</ele><time>2026-04-26T08:26:23.001Z</time></trkpt><trkpt lat="43.935618551295086" lon="11.12562128786368"><ele>153.8</ele><time>2026-04-26T08:26:24.001Z</time></trkpt><trkpt lat="43.93552350855186" lon="11.125591742498914"><ele>153.60000000000002</ele><time>2026-04-26T08:26:25.001Z</time></trkpt><trkpt lat="43.9354274535732" lon="11.125557630143232"><ele>153.4</ele><time>2026-04-26T08:26:26.001Z</time></trkpt><trkpt lat="43.93532328042369" lon="11.125526716235154"><ele>153.20000000000002</ele><time>2026-04-26T08:26:27.001Z</time></trkpt><trkpt lat="43.93521641456831" lon="11.125493045565696"><ele>153.0</ele><time>2026-04-26T08:26:28.001Z</time></trkpt><trkpt lat="43.93510619566663" lon="11.125462109953057"><ele>152.4</ele><time>2026-04-26T08:26:29.001Z</time></trkpt><trkpt lat="43.93500212742361" lon="11.125453323823582"><ele>151.8</ele><time>2026-04-26T08:26:30.001Z</time></trkpt><trkpt lat="43.93490708756867" lon="11.125473816922407"><ele>151.2</ele><time>2026-04-26T08:26:31.001Z</time></trkpt><trkpt lat="43.93480705230181" lon="11.125522070322045"><ele>150.6</ele><time>2026-04-26T08:26:32.001Z</time></trkpt><trkpt lat="43.93470587534468" lon="11.125607788639604"><ele>150.0</ele><time>2026-04-26T08:26:33.001Z</time></trkpt><trkpt lat="43.934622882553874" lon="11.125705899664768"><ele>145.75</ele><time>2026-04-26T08:26:34.001Z</time></trkpt><trkpt lat="43.934541332714346" lon="11.125842703628825"><ele>141.5</ele><time>2026-04-26T08:26:35.001Z</time></trkpt><trkpt lat="43.93446144446263" lon="11.12598337660998"><ele>137.25</ele><time>2026-04-26T08:26:36.001Z</time></trkpt><trkpt lat="43.934382775294985" lon="11.1261229551121"><ele>133.0</ele><time>2026-04-26T08:26:37.001Z</time></trkpt><trkpt lat="43.93430550438563" lon="11.126228571723425"><ele>133.0</ele><time>2026-04-26T08:26:38.001Z</time></trkpt><trkpt lat="43.934224086775366" lon="11.126311678086928"><ele>133.0</ele><time>2026-04-26T08:26:39.001Z</time></trkpt><trkpt lat="43.93412731133326" lon="11.126359632436353"><ele>133.0</ele><time>2026-04-26T08:26:40.001Z</time></trkpt><trkpt lat="43.93401334508532" lon="11.126393973989257"><ele>133.0</ele><time>2026-04-26T08:26:41.001Z</time></trkpt><trkpt lat="43.933885033165915" lon="11.126396626276502"><ele>133.0</ele><time>2026-04-26T08:26:42.001Z</time></trkpt><trkpt lat="43.93375493902558" lon="11.126433290820701"><ele>137.33333333333334</ele><time>2026-04-26T08:26:43.001Z</time></trkpt><trkpt lat="43.93359680243586" lon="11.126401872346039"><ele>141.66666666666666</ele><time>2026-04-26T08:26:44.001Z</time></trkpt><trkpt lat="43.933442172481655" lon="11.12640874917149"><ele>146.0</ele><time>2026-04-26T08:26:45.001Z</time></trkpt><trkpt lat="43.933302831567296" lon="11.126406237432729"><ele>146.0</ele><time>2026-04-26T08:26:46.001Z</time></trkpt><trkpt lat="43.933166254413266" lon="11.126404767717888"><ele>146.0</ele><time>2026-04-26T08:26:47.001Z</time></trkpt><trkpt lat="43.93302861356535" lon="11.1264101413034"><ele>146.0</ele><time>2026-04-26T08:26:48.001Z</time></trkpt><trkpt lat="43.93289488904903" lon="11.126417117522443"><ele>146.0</ele><time>2026-04-26T08:26:49.001Z</time></trkpt><trkpt lat="43.93276270936654" lon="11.126389066157188"><ele>146.0</ele><time>2026-04-26T08:26:50.001Z</time></trkpt><trkpt lat="43.93263192336061" lon="11.126337999054186"><ele>146.0</ele><time>2026-04-26T08:26:51.001Z</time></trkpt><trkpt lat="43.93250674519006" lon="11.12626872355069"><ele>146.0</ele><time>2026-04-26T08:26:52.001Z</time></trkpt><trkpt lat="43.93237756596557" lon="11.12620679863992"><ele>146.0</ele><time>2026-04-26T08:26:53.001Z</time></trkpt><trkpt lat="43.93225840473488" lon="11.126128461440931"><ele>144.5</ele><time>2026-04-26T08:26:54.001Z</time></trkpt><trkpt lat="43.932134960037615" lon="11.126071381792226"><ele>143.0</ele><time>2026-04-26T08:26:55.001Z</time></trkpt><trkpt lat="43.932012545878784" lon="11.126018159019177"><ele>141.5</ele><time>2026-04-26T08:26:56.001Z</time></trkpt><trkpt lat="43.93189286255593" lon="11.125954708324134"><ele>140.0</ele><time>2026-04-26T08:26:57.001Z</time></trkpt><trkpt lat="43.93177681090814" lon="11.125868713539656"><ele>137.75</ele><time>2026-04-26T08:26:58.001Z</time></trkpt><trkpt lat="43.931669033924635" lon="11.125755807351469"><ele>135.5</ele><time>2026-04-26T08:26:59.001Z</time></trkpt><trkpt lat="43.931573901609845" lon="11.125626986317721"><ele>133.25</ele><time>2026-04-26T08:27:00.001Z</time></trkpt><trkpt lat="43.93149895399099" lon="11.125473527907193"><ele>131.0</ele><time>2026-04-26T08:27:01.001Z</time></trkpt><trkpt lat="43.93142364506242" lon="11.12530786495899"><ele>136.0</ele><time>2026-04-26T08:27:02.001Z</time></trkpt><trkpt lat="43.93134101732579" lon="11.125143568030383"><ele>141.0</ele><time>2026-04-26T08:27:03.001Z</time></trkpt><trkpt lat="43.93125627015159" lon="11.124975678679304"><ele>146.0</ele><time>2026-04-26T08:27:04.001Z</time></trkpt><trkpt lat="43.93115871872235" lon="11.124822064072358"><ele>151.0</ele><time>2026-04-26T08:27:05.001Z</time></trkpt><trkpt lat="43.93104403031067" lon="11.124714591665558"><ele>162.0</ele><time>2026-04-26T08:27:06.001Z</time></trkpt><trkpt lat="43.93090280250291" lon="11.124627183439374"><ele>173.0</ele><time>2026-04-26T08:27:07.001Z</time></trkpt><trkpt lat="43.930745263962706" lon="11.12456194683211"><ele>184.0</ele><time>2026-04-26T08:27:08.001Z</time></trkpt><trkpt lat="43.930576038155024" lon="11.124512879686584"><ele>184.0</ele><time>2026-04-26T08:27:09.001Z</time></trkpt><trkpt lat="43.930417302489936" lon="11.124490214268764"><ele>184.0</ele><time>2026-04-26T08:27:10.001Z</time></trkpt><trkpt lat="43.930268182040024" lon="11.124495505084175"><ele>184.0</ele><time>2026-04-26T08:27:11.001Z</time></trkpt><trkpt lat="43.93012355439393" lon="11.124541193038354"><ele>183.33333333333334</ele><time>2026-04-26T08:27:12.001Z</time></trkpt><trkpt lat="43.9299787847867" lon="11.124628684334775"><ele>182.66666666666666</ele><time>2026-04-26T08:27:13.001Z</time></trkpt><trkpt lat="43.92982311568399" lon="11.124705912217129"><ele>182.0</ele><time>2026-04-26T08:27:14.001Z</time></trkpt><trkpt lat="43.92967019441929" lon="11.124749930772786"><ele>182.0</ele><time>2026-04-26T08:27:15.001Z</time></trkpt><trkpt lat="43.92951060768641" lon="11.124774598365937"><ele>182.0</ele><time>2026-04-26T08:27:16.001Z</time></trkpt><trkpt lat="43.92933941574138" lon="11.124767035468421"><ele>182.0</ele><time>2026-04-26T08:27:17.001Z</time></trkpt><trkpt lat="43.92915832498799" lon="11.124769145563556"><ele>181.33333333333331</ele><time>2026-04-26T08:27:18.001Z</time></trkpt><trkpt lat="43.928979724319284" lon="11.124787115817373"><ele>180.66666666666666</ele><time>2026-04-26T08:27:19.001Z</time></trkpt><trkpt lat="43.928807877101946" lon="11.124823780464432"><ele>180.0</ele><time>2026-04-26T08:27:20.001Z</time></trkpt><trkpt lat="43.92864373096809" lon="11.124862564387817"><ele>170.0</ele><time>2026-04-26T08:27:21.001Z</time></trkpt><trkpt lat="43.92849069734702" lon="11.12489857720004"><ele>160.0</ele><time>2026-04-26T08:27:22.001Z</time></trkpt><trkpt lat="43.928348242573" lon="11.124942814716597"><ele>150.0</ele><time>2026-04-26T08:27:23.001Z</time></trkpt><trkpt lat="43.928211278391444" lon="11.124988807759873"><ele>140.0</ele><time>2026-04-26T08:27:24.001Z</time></trkpt><trkpt lat="43.92808073375409" lon="11.125025555710227"><ele>140.0</ele><time>2026-04-26T08:27:25.001Z</time></trkpt><trkpt lat="43.927961665244865" lon="11.12504951215199"><ele>140.0</ele><time>2026-04-26T08:27:26.001Z</time></trkpt><trkpt lat="43.9278356404894" lon="11.125080794656082"><ele>140.0</ele><time>2026-04-26T08:27:27.001Z</time></trkpt><trkpt lat="43.92769964648575" lon="11.125114196341595"><ele>140.0</ele><time>2026-04-26T08:27:28.001Z</time></trkpt><trkpt lat="43.927567119441186" lon="11.125129944026858"><ele>142.75</ele><time>2026-04-26T08:27:29.001Z</time></trkpt><trkpt lat="43.927440448413265" lon="11.125140629613982"><ele>145.5</ele><time>2026-04-26T08:27:30.001Z</time></trkpt><trkpt lat="43.92732840286165" lon="11.125174054703031"><ele>148.25</ele><time>2026-04-26T08:27:31.001Z</time></trkpt><trkpt lat="43.927214410196385" lon="11.125240577986455"><ele>151.0</ele><time>2026-04-26T08:27:32.001Z</time></trkpt><trkpt lat="43.92709294131086" lon="11.125314586577925"><ele>151.0</ele><time>2026-04-26T08:27:33.001Z</time></trkpt><trkpt lat="43.92696500490843" lon="11.125407179684863"><ele>151.0</ele><time>2026-04-26T08:27:34.001Z</time></trkpt><trkpt lat="43.926854056909214" lon="11.125508629000219"><ele>151.0</ele><time>2026-04-26T08:27:35.001Z</time></trkpt><trkpt lat="43.926752278241864" lon="11.125634441505827"><ele>151.0</ele><time>2026-04-26T08:27:36.001Z</time></trkpt><trkpt lat="43.9266704096353" lon="11.125760075802233"><ele>145.5</ele><time>2026-04-26T08:27:37.001Z</time></trkpt><trkpt lat="43.926573193113335" lon="11.125904489269972"><ele>140.0</ele><time>2026-04-26T08:27:38.001Z</time></trkpt><trkpt lat="43.92646795917588" lon="11.126024540810237"><ele>134.5</ele><time>2026-04-26T08:27:39.001Z</time></trkpt><trkpt lat="43.926377607313476" lon="11.126145754947355"><ele>129.0</ele><time>2026-04-26T08:27:40.001Z</time></trkpt><trkpt lat="43.92628721016939" lon="11.126246281128724"><ele>129.0</ele><time>2026-04-26T08:27:41.001Z</time></trkpt><trkpt lat="43.926199522351396" lon="11.126350864543154"><ele>129.0</ele><time>2026-04-26T08:27:42.001Z</time></trkpt><trkpt lat="43.92611222561017" lon="11.126462250203959"><ele>129.0</ele><time>2026-04-26T08:27:43.001Z</time></trkpt><trkpt lat="43.9260295568845" lon="11.12655231677163"><ele>129.0</ele><time>2026-04-26T08:27:44.001Z</time></trkpt><trkpt lat="43.92595138170428" lon="11.126626044468757"><ele>129.0</ele><time>2026-04-26T08:27:45.001Z</time></trkpt><trkpt lat="43.92587294818933" lon="11.126695626590942"><ele>130.2</ele><time>2026-04-26T08:27:46.001Z</time></trkpt><trkpt lat="43.92579628344793" lon="11.126763080070717"><ele>131.4</ele><time>2026-04-26T08:27:47.001Z</time></trkpt><trkpt lat="43.925718829321276" lon="11.126840097593417"><ele>132.6</ele><time>2026-04-26T08:27:48.001Z</time></trkpt><trkpt lat="43.9256278270903" lon="11.126918878636374"><ele>133.8</ele><time>2026-04-26T08:27:49.001Z</time></trkpt><trkpt lat="43.92553699666397" lon="11.126996770629257"><ele>135.0</ele><time>2026-04-26T08:27:50.001Z</time></trkpt><trkpt lat="43.92541786804628" lon="11.12701340102792"><ele>135.0</ele><time>2026-04-26T08:27:51.001Z</time></trkpt><trkpt lat="43.925300174715176" lon="11.127030869586319"><ele>135.0</ele><time>2026-04-26T08:27:52.001Z</time></trkpt><trkpt lat="43.92517190147607" lon="11.127020956276018"><ele>135.0</ele><time>2026-04-26T08:27:53.001Z</time></trkpt><trkpt lat="43.92501940917833" lon="11.126986870467324"><ele>135.0</ele><time>2026-04-26T08:27:54.001Z</time></trkpt><trkpt lat="43.92487746332458" lon="11.126933322587128"><ele>133.66666666666666</ele><time>2026-04-26T08:27:55.001Z</time></trkpt><trkpt lat="43.924732894025844" lon="11.1268710222545"><ele>132.33333333333331</ele><time>2026-04-26T08:27:56.001Z</time></trkpt><trkpt lat="43.924588021381005" lon="11.126797316413708"><ele>131.0</ele><time>2026-04-26T08:27:57.001Z</time></trkpt><trkpt lat="43.92444432042325" lon="11.126742503897631"><ele>131.0</ele><time>2026-04-26T08:27:58.001Z</time></trkpt><trkpt lat="43.9243044224259" lon="11.126698842494047"><ele>131.0</ele><time>2026-04-26T08:27:59.001Z</time></trkpt><trkpt lat="43.92416620368462" lon="11.12666554378169"><ele>131.0</ele><time>2026-04-26T08:28:00.001Z</time></trkpt><trkpt lat="43.92404176253813" lon="11.126639292856359"><ele>131.0</ele><time>2026-04-26T08:28:01.001Z</time></trkpt><trkpt lat="43.9239119886461" lon="11.126612293242596"><ele>130.25</ele><time>2026-04-26T08:28:02.001Z</time></trkpt><trkpt lat="43.92377579009655" lon="11.126592223786295"><ele>129.5</ele><time>2026-04-26T08:28:03.001Z</time></trkpt><trkpt lat="43.923642487337965" lon="11.126566947279205"><ele>128.75</ele><time>2026-04-26T08:28:04Z</time></trkpt><trkpt lat="43.92351782367478" lon="11.12654469748544"><ele>128.0</ele><time>2026-04-26T08:28:05Z</time></trkpt><trkpt lat="43.92340366317989" lon="11.12649599491108"><ele>133.75</ele><time>2026-04-26T08:28:06.001Z</time></trkpt><trkpt lat="43.923295568662965" lon="11.126454862637193"><ele>139.5</ele><time>2026-04-26T08:28:07.001Z</time></trkpt><trkpt lat="43.9231872962092" lon="11.126403894892123"><ele>145.25</ele><time>2026-04-26T08:28:08.001Z</time></trkpt><trkpt lat="43.923085683777366" lon="11.126343579391618"><ele>151.0</ele><time>2026-04-26T08:28:09.001Z</time></trkpt><trkpt lat="43.922976259038236" lon="11.126273943532741"><ele>151.0</ele><time>2026-04-26T08:28:10Z</time></trkpt><trkpt lat="43.92287104710629" lon="11.126226368975853"><ele>151.0</ele><time>2026-04-26T08:28:11Z</time></trkpt><trkpt lat="43.92274884251594" lon="11.126210279262873"><ele>151.0</ele><time>2026-04-26T08:28:12Z</time></trkpt><trkpt lat="43.92264969973941" lon="11.12620414200012"><ele>151.0</ele><time>2026-04-26T08:28:13Z</time></trkpt><trkpt lat="43.92254017883626" lon="11.126207206754009"><ele>151.0</ele><time>2026-04-26T08:28:14Z</time></trkpt><trkpt lat="43.92242936765625" lon="11.126214585533923"><ele>149.2</ele><time>2026-04-26T08:28:15Z</time></trkpt><trkpt lat="43.92231548785562" lon="11.126220198811986"><ele>147.39999999999998</ele><time>2026-04-26T08:28:16Z</time></trkpt><trkpt lat="43.92221871960023" lon="11.126194687046343"><ele>145.6</ele><time>2026-04-26T08:28:17Z</time></trkpt><trkpt lat="43.922121421379124" lon="11.126168152243675"><ele>143.79999999999998</ele><time>2026-04-26T08:28:18Z</time></trkpt><trkpt lat="43.92201489898936" lon="11.126162132148844"><ele>142.0</ele><time>2026-04-26T08:28:19Z</time></trkpt><trkpt lat="43.921925902506025" lon="11.126130360069581"><ele>142.0</ele><time>2026-04-26T08:28:20Z</time></trkpt><trkpt lat="43.921841956552974" lon="11.126106999373027"><ele>142.0</ele><time>2026-04-26T08:28:21Z</time></trkpt><trkpt lat="43.92175661465077" lon="11.12608666307741"><ele>142.0</ele><time>2026-04-26T08:28:22Z</time></trkpt><trkpt lat="43.92167742490909" lon="11.126052650153301"><ele>142.0</ele><time>2026-04-26T08:28:23Z</time></trkpt><trkpt lat="43.92158404248141" lon="11.126016573111517"><ele>142.0</ele><time>2026-04-26T08:28:24Z</time></trkpt><trkpt lat="43.92147629069758" lon="11.125997749247084"><ele>138.6</ele><time>2026-04-26T08:28:25Z</time></trkpt><trkpt lat="43.921380217792496" lon="11.125943857906078"><ele>135.2</ele><time>2026-04-26T08:28:26Z</time></trkpt><trkpt lat="43.92126721341798" lon="11.12590034904931"><ele>131.8</ele><time>2026-04-26T08:28:27Z</time></trkpt><trkpt lat="43.921162855850035" lon="11.125872332453639"><ele>128.4</ele><time>2026-04-26T08:28:28Z</time></trkpt><trkpt lat="43.921042607131504" lon="11.12586731267942"><ele>125.0</ele><time>2026-04-26T08:28:29Z</time></trkpt><trkpt lat="43.92092797507887" lon="11.125879246210705"><ele>123.25</ele><time>2026-04-26T08:28:30Z</time></trkpt><trkpt lat="43.920816165432406" lon="11.125917792277873"><ele>121.5</ele><time>2026-04-26T08:28:31Z</time></trkpt><trkpt lat="43.920693674565214" lon="11.125964549895148"><ele>119.75</ele><time>2026-04-26T08:28:32Z</time></trkpt><trkpt lat="43.92057573226008" lon="11.126024532670936"><ele>118.0</ele><time>2026-04-26T08:28:33Z</time></trkpt><trkpt lat="43.920454263371425" lon="11.1261058757935"><ele>118.0</ele><time>2026-04-26T08:28:34Z</time></trkpt><trkpt lat="43.92033611107664" lon="11.126179757465419"><ele>118.0</ele><time>2026-04-26T08:28:35Z</time></trkpt><trkpt lat="43.92022139095267" lon="11.126262596585386"><ele>118.0</ele><time>2026-04-26T08:28:36Z</time></trkpt><trkpt lat="43.92010703796176" lon="11.126334890998328"><ele>118.0</ele><time>2026-04-26T08:28:37Z</time></trkpt><trkpt lat="43.919980617045766" lon="11.12639572790329"><ele>120.0</ele><time>2026-04-26T08:28:38Z</time></trkpt><trkpt lat="43.919844715898584" lon="11.12644480796135"><ele>122.0</ele><time>2026-04-26T08:28:39Z</time></trkpt><trkpt lat="43.919687423937276" lon="11.126454058197726"><ele>124.0</ele><time>2026-04-26T08:28:40Z</time></trkpt><trkpt lat="43.91953780940484" lon="11.12644336487581"><ele>126.0</ele><time>2026-04-26T08:28:41Z</time></trkpt><trkpt lat="43.91938652334527" lon="11.126401379037043"><ele>126.0</ele><time>2026-04-26T08:28:42Z</time></trkpt><trkpt lat="43.919240026544266" lon="11.126360718941266"><ele>126.0</ele><time>2026-04-26T08:28:43Z</time></trkpt><trkpt lat="43.91908058882387" lon="11.126303518055613"><ele>126.0</ele><time>2026-04-26T08:28:44Z</time></trkpt><trkpt lat="43.91892331154906" lon="11.126232021117259"><ele>129.0</ele><time>2026-04-26T08:28:45Z</time></trkpt><trkpt lat="43.91876472189687" lon="11.126172489415394"><ele>132.0</ele><time>2026-04-26T08:28:46Z</time></trkpt><trkpt lat="43.91861076166885" lon="11.126116340580486"><ele>135.0</ele><time>2026-04-26T08:28:47.001Z</time></trkpt><trkpt lat="43.9184562586016" lon="11.126064549383376"><ele>130.66666666666666</ele><time>2026-04-26T08:28:48.001Z</time></trkpt><trkpt lat="43.918309424695806" lon="11.126010155753324"><ele>126.33333333333333</ele><time>2026-04-26T08:28:49.001Z</time></trkpt><trkpt lat="43.91816715827848" lon="11.125945728694129"><ele>122.0</ele><time>2026-04-26T08:28:50.001Z</time></trkpt><trkpt lat="43.91801040509043" lon="11.125871941130049"><ele>122.0</ele><time>2026-04-26T08:28:51.001Z</time></trkpt><trkpt lat="43.91783960900111" lon="11.125800124564465"><ele>122.0</ele><time>2026-04-26T08:28:52.001Z</time></trkpt><trkpt lat="43.91766464469681" lon="11.125708874610972"><ele>122.0</ele><time>2026-04-26T08:28:53.001Z</time></trkpt><trkpt lat="43.91750243959932" lon="11.12561033622514"><ele>124.66666666666666</ele><time>2026-04-26T08:28:54.001Z</time></trkpt><trkpt lat="43.91734980051747" lon="11.125519319307339"><ele>127.33333333333334</ele><time>2026-04-26T08:28:55.001Z</time></trkpt><trkpt lat="43.91720541235486" lon="11.125431703435181"><ele>130.0</ele><time>2026-04-26T08:28:56.001Z</time></trkpt><trkpt lat="43.91705996640474" lon="11.125351250595388"><ele>130.0</ele><time>2026-04-26T08:28:57.001Z</time></trkpt><trkpt lat="43.91691963823613" lon="11.12527531088708"><ele>130.0</ele><time>2026-04-26T08:28:58.001Z</time></trkpt><trkpt lat="43.916778265192356" lon="11.125218011896195"><ele>130.0</ele><time>2026-04-26T08:28:59.001Z</time></trkpt><trkpt lat="43.91663767698499" lon="11.125154646734899"><ele>130.0</ele><time>2026-04-26T08:29:00.001Z</time></trkpt><trkpt lat="43.916487161430005" lon="11.125109880694371"><ele>126.0</ele><time>2026-04-26T08:29:01.001Z</time></trkpt><trkpt lat="43.916338260798035" lon="11.12507010453582"><ele>122.0</ele><time>2026-04-26T08:29:02.001Z</time></trkpt><trkpt lat="43.91618611620087" lon="11.125047036141275"><ele>118.0</ele><time>2026-04-26T08:29:03.001Z</time></trkpt><trkpt lat="43.91603184828585" lon="11.125037932678472"><ele>117.25</ele><time>2026-04-26T08:29:04.001Z</time></trkpt><trkpt lat="43.9158957410095" lon="11.12502173653102"><ele>116.5</ele><time>2026-04-26T08:29:05.001Z</time></trkpt><trkpt lat="43.9157642210101" lon="11.124998789356065"><ele>115.75</ele><time>2026-04-26T08:29:06.001Z</time></trkpt><trkpt lat="43.915621223227745" lon="11.124991137445074"><ele>115.0</ele><time>2026-04-26T08:29:07.001Z</time></trkpt><trkpt lat="43.915489379999904" lon="11.124974240131845"><ele>115.0</ele><time>2026-04-26T08:29:08.001Z</time></trkpt><trkpt lat="43.915362184618566" lon="11.1249599832965"><ele>115.0</ele><time>2026-04-26T08:29:09.001Z</time></trkpt><trkpt lat="43.91523330875475" lon="11.124953885629477"><ele>115.0</ele><time>2026-04-26T08:29:10.001Z</time></trkpt><trkpt lat="43.915110483981444" lon="11.124943858840012"><ele>115.0</ele><time>2026-04-26T08:29:11.001Z</time></trkpt><trkpt lat="43.914985138484816" lon="11.124934917913253"><ele>114.5</ele><time>2026-04-26T08:29:12.001Z</time></trkpt><trkpt lat="43.9148745149523" lon="11.124904573074927"><ele>114.0</ele><time>2026-04-26T08:29:13.001Z</time></trkpt><trkpt lat="43.91475238697342" lon="11.124905164111967"><ele>113.5</ele><time>2026-04-26T08:29:14.001Z</time></trkpt><trkpt lat="43.91463433906336" lon="11.124882932966074"><ele>113.0</ele><time>2026-04-26T08:29:15.001Z</time></trkpt><trkpt lat="43.914507189621" lon="11.124857636150857"><ele>119.25</ele><time>2026-04-26T08:29:16.001Z</time></trkpt><trkpt lat="43.91438035861005" lon="11.12482847528466"><ele>125.5</ele><time>2026-04-26T08:29:17.001Z</time></trkpt><trkpt lat="43.91425800912298" lon="11.124784983766043"><ele>131.75</ele><time>2026-04-26T08:29:18.001Z</time></trkpt><trkpt lat="43.914141036895145" lon="11.12473383652087"><ele>138.0</ele><time>2026-04-26T08:29:19.001Z</time></trkpt><trkpt lat="43.91402566089477" lon="11.124671303291631"><ele>138.0</ele><time>2026-04-26T08:29:20.001Z</time></trkpt><trkpt lat="43.91392054565846" lon="11.124594755356624"><ele>138.0</ele><time>2026-04-26T08:29:21.001Z</time></trkpt><trkpt lat="43.91381751602066" lon="11.12451963215048"><ele>138.0</ele><time>2026-04-26T08:29:22.001Z</time></trkpt><trkpt lat="43.91304772242182" lon="11.12394100462804"><ele>129.5</ele><time>2026-04-26T08:29:31.001Z</time></trkpt><trkpt lat="43.913023846946366" lon="11.123501597754592"><ele>121.0</ele><time>2026-04-26T08:29:32.001Z</time></trkpt><trkpt lat="43.91291269720447" lon="11.123290798491293"><ele>123.33333333333334</ele><time>2026-04-26T08:29:33.001Z</time></trkpt><trkpt lat="43.91280518067203" lon="11.123086887434386"><ele>125.66666666666666</ele><time>2026-04-26T08:29:34.001Z</time></trkpt><trkpt lat="43.91271622566658" lon="11.122916832288595"><ele>128.0</ele><time>2026-04-26T08:29:35.001Z</time></trkpt><trkpt lat="43.91264588557928" lon="11.122770314863917"><ele>128.0</ele><time>2026-04-26T08:29:36.001Z</time></trkpt><trkpt lat="43.91258165297825" lon="11.122639086664234"><ele>128.0</ele><time>2026-04-26T08:29:37.001Z</time></trkpt><trkpt lat="43.912513538920614" lon="11.122503500833346"><ele>128.0</ele><time>2026-04-26T08:29:38.001Z</time></trkpt><trkpt lat="43.91244066843413" lon="11.122370335235843"><ele>128.0</ele><time>2026-04-26T08:29:39.001Z</time></trkpt><trkpt lat="43.912368101787045" lon="11.122240115095982"><ele>124.5</ele><time>2026-04-26T08:29:40.001Z</time></trkpt><trkpt lat="43.91229796913136" lon="11.122109067440013"><ele>121.0</ele><time>2026-04-26T08:29:41.001Z</time></trkpt><trkpt lat="43.9122362832831" lon="11.121980402237314"><ele>117.5</ele><time>2026-04-26T08:29:42.001Z</time></trkpt><trkpt lat="43.912174356802446" lon="11.121851020202373"><ele>114.0</ele><time>2026-04-26T08:29:43.001Z</time></trkpt><trkpt lat="43.91211417948943" lon="11.121716992713528"><ele>114.0</ele><time>2026-04-26T08:29:44.001Z</time></trkpt><trkpt lat="43.91204745379493" lon="11.121587983102595"><ele>114.0</ele><time>2026-04-26T08:29:45.001Z</time></trkpt><trkpt lat="43.911981013467795" lon="11.121466053042356"><ele>114.0</ele><time>2026-04-26T08:29:46.001Z</time></trkpt><trkpt lat="43.91191516726448" lon="11.12135685975871"><ele>114.0</ele><time>2026-04-26T08:29:47.001Z</time></trkpt><trkpt lat="43.91183900134876" lon="11.121256925261623"><ele>114.0</ele><time>2026-04-26T08:29:48.001Z</time></trkpt><trkpt lat="43.91176203827664" lon="11.1211694954344"><ele>111.4</ele><time>2026-04-26T08:29:49.001Z</time></trkpt><trkpt lat="43.9116799608391" lon="11.121097816966792"><ele>108.80000000000001</ele><time>2026-04-26T08:29:50.001Z</time></trkpt><trkpt lat="43.911579836142806" lon="11.121002925707057"><ele>106.19999999999999</ele><time>2026-04-26T08:29:51.001Z</time></trkpt><trkpt lat="43.911483950367156" lon="11.120909736494163"><ele>103.6</ele><time>2026-04-26T08:29:52.001Z</time></trkpt><trkpt lat="43.91139158151407" lon="11.120820561122247"><ele>101.0</ele><time>2026-04-26T08:29:53.001Z</time></trkpt><trkpt lat="43.911290632480224" lon="11.120719380287774"><ele>101.0</ele><time>2026-04-26T08:29:54.001Z</time></trkpt><trkpt lat="43.911189654146895" lon="11.120597613474532"><ele>101.0</ele><time>2026-04-26T08:29:55.001Z</time></trkpt><trkpt lat="43.911101096598465" lon="11.120473630804405"><ele>101.0</ele><time>2026-04-26T08:29:56.001Z</time></trkpt><trkpt lat="43.91102329104637" lon="11.120331784210148"><ele>101.0</ele><time>2026-04-26T08:29:57.001Z</time></trkpt><trkpt lat="43.910957751668825" lon="11.120197588431838"><ele>98.25</ele><time>2026-04-26T08:29:58.001Z</time></trkpt><trkpt lat="43.91090344251282" lon="11.120060911087261"><ele>95.5</ele><time>2026-04-26T08:29:59.001Z</time></trkpt><trkpt lat="43.910851291946656" lon="11.1199231025836"><ele>92.75</ele><time>2026-04-26T08:30:00.001Z</time></trkpt><trkpt lat="43.9108018523731" lon="11.119781674303642"><ele>90.0</ele><time>2026-04-26T08:30:01.001Z</time></trkpt><trkpt lat="43.91075646164692" lon="11.119627909114252"><ele>90.0</ele><time>2026-04-26T08:30:02.001Z</time></trkpt><trkpt lat="43.910705607981754" lon="11.119475581807093"><ele>90.0</ele><time>2026-04-26T08:30:03.001Z</time></trkpt><trkpt lat="43.91065340157543" lon="11.119331357241387"><ele>90.0</ele><time>2026-04-26T08:30:04.001Z</time></trkpt><trkpt lat="43.91060778622406" lon="11.119187359198191"><ele>90.0</ele><time>2026-04-26T08:30:05.001Z</time></trkpt><trkpt lat="43.91056591780711" lon="11.119041682887305"><ele>91.75</ele><time>2026-04-26T08:30:06.001Z</time></trkpt><trkpt lat="43.910536007091174" lon="11.118895122944759"><ele>93.5</ele><time>2026-04-26T08:30:07.001Z</time></trkpt><trkpt lat="43.91049149632938" lon="11.118736021237298"><ele>95.25</ele><time>2026-04-26T08:30:08.001Z</time></trkpt><trkpt lat="43.91044766453716" lon="11.118573441264752"><ele>97.0</ele><time>2026-04-26T08:30:09.001Z</time></trkpt><trkpt lat="43.91040051623072" lon="11.118411956017773"><ele>97.0</ele><time>2026-04-26T08:30:10.001Z</time></trkpt><trkpt lat="43.910340150677875" lon="11.118245938410006"><ele>97.0</ele><time>2026-04-26T08:30:11.001Z</time></trkpt><trkpt lat="43.91027425821592" lon="11.118083524672809"><ele>97.0</ele><time>2026-04-26T08:30:12.001Z</time></trkpt><trkpt lat="43.91020326305654" lon="11.117925018851517"><ele>97.0</ele><time>2026-04-26T08:30:13.001Z</time></trkpt><trkpt lat="43.910136759156956" lon="11.117785532759658"><ele>96.25</ele><time>2026-04-26T08:30:14.001Z</time></trkpt><trkpt lat="43.91005272310995" lon="11.117648125333114"><ele>95.5</ele><time>2026-04-26T08:30:15.001Z</time></trkpt><trkpt lat="43.90996852920477" lon="11.117527316573598"><ele>94.75</ele><time>2026-04-26T08:30:16.001Z</time></trkpt><trkpt lat="43.90987450633347" lon="11.117412170518676"><ele>94.0</ele><time>2026-04-26T08:30:17.001Z</time></trkpt><trkpt lat="43.90977032966144" lon="11.117298164692397"><ele>97.75</ele><time>2026-04-26T08:30:18.001Z</time></trkpt><trkpt lat="43.90966798149695" lon="11.11719063628291"><ele>101.5</ele><time>2026-04-26T08:30:19.001Z</time></trkpt><trkpt lat="43.909564539718936" lon="11.117096647792573"><ele>105.25</ele><time>2026-04-26T08:30:20.001Z</time></trkpt><trkpt lat="43.9094649972458" lon="11.116993189778395"><ele>109.0</ele><time>2026-04-26T08:30:21.001Z</time></trkpt><trkpt lat="43.90936017561697" lon="11.116890799847095"><ele>109.0</ele><time>2026-04-26T08:30:22.001Z</time></trkpt><trkpt lat="43.90925991188054" lon="11.116792979943332"><ele>109.0</ele><time>2026-04-26T08:30:23.001Z</time></trkpt><trkpt lat="43.90916329079886" lon="11.116700405268192"><ele>109.0</ele><time>2026-04-26T08:30:24.001Z</time></trkpt><trkpt lat="43.9090662315023" lon="11.116608083558582"><ele>109.0</ele><time>2026-04-26T08:30:25.001Z</time></trkpt><trkpt lat="43.9089717349777" lon="11.116509456904758"><ele>106.5</ele><time>2026-04-26T08:30:26.001Z</time></trkpt><trkpt lat="43.90887747068609" lon="11.116412142841522"><ele>104.0</ele><time>2026-04-26T08:30:27.001Z</time></trkpt><trkpt lat="43.90877999203747" lon="11.116310813357524"><ele>101.5</ele><time>2026-04-26T08:30:28.001Z</time></trkpt><trkpt lat="43.908689060852666" lon="11.116215298424104"><ele>99.0</ele><time>2026-04-26T08:30:29.001Z</time></trkpt><trkpt lat="43.908603498640794" lon="11.116122176290004"><ele>99.0</ele><time>2026-04-26T08:30:30.001Z</time></trkpt><trkpt lat="43.90850965965795" lon="11.116027805964789"><ele>99.0</ele><time>2026-04-26T08:30:31.001Z</time></trkpt><trkpt lat="43.90841834150342" lon="11.115939480048231"><ele>99.0</ele><time>2026-04-26T08:30:32.001Z</time></trkpt><trkpt lat="43.908334580004535" lon="11.115868929121568"><ele>99.0</ele><time>2026-04-26T08:30:33.001Z</time></trkpt><trkpt lat="43.908248945966804" lon="11.115791898225366"><ele>99.0</ele><time>2026-04-26T08:30:34.001Z</time></trkpt><trkpt lat="43.90817656388275" lon="11.115680698360162"><ele>96.25</ele><time>2026-04-26T08:30:35.001Z</time></trkpt><trkpt lat="43.90812595758316" lon="11.115560812737021"><ele>93.5</ele><time>2026-04-26T08:30:36.001Z</time></trkpt><trkpt lat="43.90809539990875" lon="11.115416473155861"><ele>90.75</ele><time>2026-04-26T08:30:37.001Z</time></trkpt><trkpt lat="43.90809388618707" lon="11.115256917487763"><ele>88.0</ele><time>2026-04-26T08:30:38.001Z</time></trkpt><trkpt lat="43.90810760419796" lon="11.115075876405642"><ele>88.0</ele><time>2026-04-26T08:30:39.001Z</time></trkpt><trkpt lat="43.90812157423356" lon="11.114907816061988"><ele>88.0</ele><time>2026-04-26T08:30:40.001Z</time></trkpt><trkpt lat="43.90813562376489" lon="11.114744157563914"><ele>88.0</ele><time>2026-04-26T08:30:41.001Z</time></trkpt><trkpt lat="43.90814316480482" lon="11.114599769111841"><ele>88.0</ele><time>2026-04-26T08:30:42.001Z</time></trkpt><trkpt lat="43.90815063017968" lon="11.114443922412706"><ele>88.2</ele><time>2026-04-26T08:30:43.001Z</time></trkpt><trkpt lat="43.90814768572568" lon="11.114292445443823"><ele>88.4</ele><time>2026-04-26T08:30:44.001Z</time></trkpt><trkpt lat="43.90813930029098" lon="11.114151825544608"><ele>88.60000000000001</ele><time>2026-04-26T08:30:45.001Z</time></trkpt><trkpt lat="43.908127018640194" lon="11.114006855344085"><ele>88.80000000000001</ele><time>2026-04-26T08:30:46.001Z</time></trkpt><trkpt lat="43.908105721632786" lon="11.113882844616727"><ele>89.0</ele><time>2026-04-26T08:30:47.001Z</time></trkpt><trkpt lat="43.908082524019115" lon="11.11375390267468"><ele>89.6</ele><time>2026-04-26T08:30:48.001Z</time></trkpt><trkpt lat="43.90804923049996" lon="11.113644119630889"><ele>90.2</ele><time>2026-04-26T08:30:49.001Z</time></trkpt><trkpt lat="43.908001820599985" lon="11.113521431670058"><ele>90.8</ele><time>2026-04-26T08:30:50.001Z</time></trkpt><trkpt lat="43.90795005603874" lon="11.113383159860472"><ele>91.39999999999999</ele><time>2026-04-26T08:30:51.001Z</time></trkpt><trkpt lat="43.90788891046859" lon="11.113249085842204"><ele>92.0</ele><time>2026-04-26T08:30:52.001Z</time></trkpt><trkpt lat="43.90781715453012" lon="11.113108329406314"><ele>92.0</ele><time>2026-04-26T08:30:53.001Z</time></trkpt><trkpt lat="43.90773982605595" lon="11.112965998880446"><ele>92.0</ele><time>2026-04-26T08:30:54.001Z</time></trkpt><trkpt lat="43.9076578085126" lon="11.112839564027258"><ele>92.0</ele><time>2026-04-26T08:30:55.001Z</time></trkpt><trkpt lat="43.90757103885674" lon="11.112710784094128"><ele>92.0</ele><time>2026-04-26T08:30:56.001Z</time></trkpt><trkpt lat="43.907486655722884" lon="11.112576473050721"><ele>91.39999999999999</ele><time>2026-04-26T08:30:57.001Z</time></trkpt><trkpt lat="43.90742261448448" lon="11.112453391214927"><ele>90.8</ele><time>2026-04-26T08:30:58.001Z</time></trkpt><trkpt lat="43.9073513844331" lon="11.112319382007678"><ele>90.2</ele><time>2026-04-26T08:30:59.001Z</time></trkpt><trkpt lat="43.90728184857205" lon="11.112210979972835"><ele>89.6</ele><time>2026-04-26T08:31:00.001Z</time></trkpt><trkpt lat="43.907215464908006" lon="11.112088579100867"><ele>89.0</ele><time>2026-04-26T08:31:01.001Z</time></trkpt><trkpt lat="43.90714728925977" lon="11.111949981918452"><ele>89.0</ele><time>2026-04-26T08:31:02.001Z</time></trkpt><trkpt lat="43.907077999348886" lon="11.111803614368585"><ele>89.0</ele><time>2026-04-26T08:31:03.001Z</time></trkpt><trkpt lat="43.907012443267874" lon="11.111679972032507"><ele>89.0</ele><time>2026-04-26T08:31:04.001Z</time></trkpt><trkpt lat="43.9069464991214" lon="11.111553044529352"><ele>89.0</ele><time>2026-04-26T08:31:05.001Z</time></trkpt><trkpt lat="43.90687922623354" lon="11.111442542047767"><ele>88.2</ele><time>2026-04-26T08:31:06.001Z</time></trkpt><trkpt lat="43.90682665444791" lon="11.11133772645811"><ele>87.4</ele><time>2026-04-26T08:31:07.001Z</time></trkpt><trkpt lat="43.906776663046244" lon="11.111219959707249"><ele>86.6</ele><time>2026-04-26T08:31:08.001Z</time></trkpt><trkpt lat="43.906731930893855" lon="11.111096157966788"><ele>85.8</ele><time>2026-04-26T08:31:09.001Z</time></trkpt><trkpt lat="43.90668513497893" lon="11.110959041301395"><ele>85.0</ele><time>2026-04-26T08:31:10.001Z</time></trkpt><trkpt lat="43.90663552710032" lon="11.110813437139635"><ele>86.0</ele><time>2026-04-26T08:31:11.001Z</time></trkpt><trkpt lat="43.90658166789491" lon="11.110644128510366"><ele>87.0</ele><time>2026-04-26T08:31:12.001Z</time></trkpt><trkpt lat="43.90652799543318" lon="11.110467805631286"><ele>88.0</ele><time>2026-04-26T08:31:13.001Z</time></trkpt><trkpt lat="43.90648392674037" lon="11.110280866708903"><ele>89.0</ele><time>2026-04-26T08:31:14.001Z</time></trkpt><trkpt lat="43.906453377226335" lon="11.110101669325209"><ele>89.0</ele><time>2026-04-26T08:31:15.001Z</time></trkpt><trkpt lat="43.90642135902436" lon="11.109923059727189"><ele>89.0</ele><time>2026-04-26T08:31:16.001Z</time></trkpt><trkpt lat="43.90638509789814" lon="11.109741182542892"><ele>89.0</ele><time>2026-04-26T08:31:17.001Z</time></trkpt><trkpt lat="43.906339045010405" lon="11.109571302356521"><ele>89.0</ele><time>2026-04-26T08:31:18.001Z</time></trkpt><trkpt lat="43.906296708329805" lon="11.109407095369265"><ele>89.25</ele><time>2026-04-26T08:31:19.001Z</time></trkpt><trkpt lat="43.90625398099144" lon="11.109245775217827"><ele>89.5</ele><time>2026-04-26T08:31:20.001Z</time></trkpt><trkpt lat="43.90620440592308" lon="11.109079882684563"><ele>89.75</ele><time>2026-04-26T08:31:21.001Z</time></trkpt><trkpt lat="43.90615493031147" lon="11.108910802002752"><ele>90.0</ele><time>2026-04-26T08:31:22.001Z</time></trkpt><trkpt lat="43.90611152371311" lon="11.108738949265163"><ele>90.0</ele><time>2026-04-26T08:31:23.001Z</time></trkpt><trkpt lat="43.9060702601623" lon="11.108557385901573"><ele>90.0</ele><time>2026-04-26T08:31:24.001Z</time></trkpt><trkpt lat="43.906027291868035" lon="11.10840035146371"><ele>90.0</ele><time>2026-04-26T08:31:25.001Z</time></trkpt><trkpt lat="43.90599075599506" lon="11.108249237057624"><ele>90.0</ele><time>2026-04-26T08:31:26.001Z</time></trkpt><trkpt lat="43.9059504634321" lon="11.10809596837837"><ele>89.5</ele><time>2026-04-26T08:31:27.001Z</time></trkpt><trkpt lat="43.905913604406884" lon="11.10795692461153"><ele>89.0</ele><time>2026-04-26T08:31:28.001Z</time></trkpt><trkpt lat="43.9058710802693" lon="11.10782625280068"><ele>88.5</ele><time>2026-04-26T08:31:29.001Z</time></trkpt><trkpt lat="43.90583954426011" lon="11.10772658652109"><ele>88.0</ele><time>2026-04-26T08:31:30.001Z</time></trkpt><trkpt lat="43.905807873305285" lon="11.1076330607288"><ele>87.5</ele><time>2026-04-26T08:31:31.001Z</time></trkpt><trkpt lat="43.90578023191423" lon="11.107540883177762"><ele>87.0</ele><time>2026-04-26T08:31:32.001Z</time></trkpt><trkpt lat="43.90576612148421" lon="11.107438480577619"><ele>86.83333333333333</ele><time>2026-04-26T08:31:33.001Z</time></trkpt><trkpt lat="43.90576129658307" lon="11.107344223549783"><ele>86.66666666666667</ele><time>2026-04-26T08:31:34.001Z</time></trkpt><trkpt lat="43.905744301354716" lon="11.107236591423833"><ele>86.5</ele><time>2026-04-26T08:31:35.001Z</time></trkpt><trkpt lat="43.90571973949269" lon="11.107114318843319"><ele>86.33333333333334</ele><time>2026-04-26T08:31:36.001Z</time></trkpt><trkpt lat="43.9056920750672" lon="11.106993986895752"><ele>86.16666666666667</ele><time>2026-04-26T08:31:37.001Z</time></trkpt><trkpt lat="43.90564822806766" lon="11.106869435166686"><ele>86.0</ele><time>2026-04-26T08:31:38.001Z</time></trkpt><trkpt lat="43.905608554178265" lon="11.106744400265171"><ele>86.0</ele><time>2026-04-26T08:31:39.001Z</time></trkpt><trkpt lat="43.90556007236148" lon="11.106624969528948"><ele>86.0</ele><time>2026-04-26T08:31:40.001Z</time></trkpt><trkpt lat="43.9054954721005" lon="11.106504430671427"><ele>86.0</ele><time>2026-04-26T08:31:41.001Z</time></trkpt><trkpt lat="43.905413187661026" lon="11.106379989329035"><ele>86.0</ele><time>2026-04-26T08:31:42.001Z</time></trkpt><trkpt lat="43.90531413754092" lon="11.106252976401832"><ele>86.0</ele><time>2026-04-26T08:31:43.001Z</time></trkpt><trkpt lat="43.90520728824199" lon="11.106121582816547"><ele>86.0</ele><time>2026-04-26T08:31:44.001Z</time></trkpt><trkpt lat="43.905096263068174" lon="11.10598720817068"><ele>86.0</ele><time>2026-04-26T08:31:45.001Z</time></trkpt><trkpt lat="43.904977423719664" lon="11.105866814421752"><ele>86.0</ele><time>2026-04-26T08:31:46.001Z</time></trkpt><trkpt lat="43.90485102064397" lon="11.10573552177807"><ele>90.33333333333334</ele><time>2026-04-26T08:31:47.001Z</time></trkpt><trkpt lat="43.90471814466706" lon="11.105602708433356"><ele>94.66666666666667</ele><time>2026-04-26T08:31:48.001Z</time></trkpt><trkpt lat="43.904584489561266" lon="11.105474292364075"><ele>99.0</ele><time>2026-04-26T08:31:49.001Z</time></trkpt><trkpt lat="43.90444844613697" lon="11.105341949912459"><ele>99.0</ele><time>2026-04-26T08:31:50.001Z</time></trkpt><trkpt lat="43.9043177105388" lon="11.105204557881823"><ele>99.0</ele><time>2026-04-26T08:31:51.001Z</time></trkpt><trkpt lat="43.90418939690339" lon="11.10506793493759"><ele>99.0</ele><time>2026-04-26T08:31:52.001Z</time></trkpt><trkpt lat="43.90405558939227" lon="11.104935173135852"><ele>99.0</ele><time>2026-04-26T08:31:53.001Z</time></trkpt><trkpt lat="43.903922557787894" lon="11.104801700056495"><ele>99.0</ele><time>2026-04-26T08:31:54.001Z</time></trkpt><trkpt lat="43.90378557565599" lon="11.104672198055022"><ele>99.0</ele><time>2026-04-26T08:31:55.001Z</time></trkpt><trkpt lat="43.903650630798225" lon="11.104542842932968"><ele>99.0</ele><time>2026-04-26T08:31:56.001Z</time></trkpt><trkpt lat="43.90351555490088" lon="11.104407860757744"><ele>99.0</ele><time>2026-04-26T08:31:57.001Z</time></trkpt><trkpt lat="43.90338126437873" lon="11.104268143224603"><ele>99.0</ele><time>2026-04-26T08:31:58.001Z</time></trkpt><trkpt lat="43.903250525374425" lon="11.104121286670896"><ele>94.66666666666667</ele><time>2026-04-26T08:31:59.001Z</time></trkpt><trkpt lat="43.903129310040356" lon="11.103958731078265"><ele>90.33333333333334</ele><time>2026-04-26T08:32:00.001Z</time></trkpt><trkpt lat="43.90300647439984" lon="11.10379759609201"><ele>86.0</ele><time>2026-04-26T08:32:01.001Z</time></trkpt><trkpt lat="43.9028877647094" lon="11.10362050550361"><ele>86.0</ele><time>2026-04-26T08:32:02.001Z</time></trkpt><trkpt lat="43.902783838809434" lon="11.103432325150607"><ele>86.0</ele><time>2026-04-26T08:32:03.001Z</time></trkpt><trkpt lat="43.90267933432489" lon="11.103236881312474"><ele>86.0</ele><time>2026-04-26T08:32:04.001Z</time></trkpt><trkpt lat="43.90258416030314" lon="11.103043057936588"><ele>82.0</ele><time>2026-04-26T08:32:05.001Z</time></trkpt><trkpt lat="43.90250111617409" lon="11.102850686978257"><ele>78.0</ele><time>2026-04-26T08:32:06.001Z</time></trkpt><trkpt lat="43.90242067726089" lon="11.102642404615676"><ele>74.0</ele><time>2026-04-26T08:32:07.001Z</time></trkpt><trkpt lat="43.90234855669458" lon="11.102431639350455"><ele>74.0</ele><time>2026-04-26T08:32:08.001Z</time></trkpt><trkpt lat="43.902284813419016" lon="11.102218769047706"><ele>74.0</ele><time>2026-04-26T08:32:09.001Z</time></trkpt><trkpt lat="43.902229409684466" lon="11.102008233374084"><ele>74.0</ele><time>2026-04-26T08:32:10.001Z</time></trkpt><trkpt lat="43.90217639898212" lon="11.101803274918797"><ele>74.0</ele><time>2026-04-26T08:32:11.001Z</time></trkpt><trkpt lat="43.902136597654795" lon="11.101606976271851"><ele>74.0</ele><time>2026-04-26T08:32:12.001Z</time></trkpt><trkpt lat="43.902107464869175" lon="11.101423467198575"><ele>74.0</ele><time>2026-04-26T08:32:13Z</time></trkpt><trkpt lat="43.90208091557533" lon="11.10124459752059"><ele>74.0</ele><time>2026-04-26T08:32:14Z</time></trkpt><trkpt lat="43.902055579108016" lon="11.101074009056308"><ele>74.0</ele><time>2026-04-26T08:32:15.001Z</time></trkpt><trkpt lat="43.90202624447222" lon="11.100908790853232"><ele>74.0</ele><time>2026-04-26T08:32:16.001Z</time></trkpt><trkpt lat="43.901998717582764" lon="11.10075875242858"><ele>74.0</ele><time>2026-04-26T08:32:17.001Z</time></trkpt><trkpt lat="43.90198022139483" lon="11.10062598337007"><ele>74.0</ele><time>2026-04-26T08:32:18.001Z</time></trkpt><trkpt lat="43.90197513235044" lon="11.100496361684787"><ele>74.0</ele><time>2026-04-26T08:32:19.001Z</time></trkpt><trkpt lat="43.90198035993661" lon="11.100386104602146"><ele>74.0</ele><time>2026-04-26T08:32:20.001Z</time></trkpt><trkpt lat="43.901982730771685" lon="11.100257798895127"><ele>74.0</ele><time>2026-04-26T08:32:22Z</time></trkpt><trkpt lat="43.901965573027354" lon="11.100168817016558"><ele>74.0</ele><time>2026-04-26T08:32:24.001Z</time></trkpt><trkpt lat="43.901958309065485" lon="11.100068391965625"><ele>74.0</ele><time>2026-04-26T08:32:27.001Z</time></trkpt><trkpt lat="43.90195319293005" lon="11.09997414393076"><ele>74.0</ele><time>2026-04-26T08:32:33.001Z</time></trkpt><trkpt lat="43.901957530527426" lon="11.099860231377143"><ele>74.0</ele><time>2026-04-26T08:32:42.001Z</time></trkpt><trkpt lat="43.901977274119055" lon="11.099761858609833"><ele>74.4</ele><time>2026-04-26T08:32:43.001Z</time></trkpt><trkpt lat="43.90201495902313" lon="11.099646611157361"><ele>74.80000000000001</ele><time>2026-04-26T08:32:44.001Z</time></trkpt><trkpt lat="43.90206412282177" lon="11.099512657073621"><ele>75.19999999999999</ele><time>2026-04-26T08:32:45.001Z</time></trkpt><trkpt lat="43.9021139409551" lon="11.09938266354358"><ele>75.6</ele><time>2026-04-26T08:32:46.001Z</time></trkpt><trkpt lat="43.902153515611175" lon="11.099259026870978"><ele>76.0</ele><time>2026-04-26T08:32:47.001Z</time></trkpt><trkpt lat="43.90219248139926" lon="11.099151459277346"><ele>75.8</ele><time>2026-04-26T08:32:48.001Z</time></trkpt><trkpt lat="43.90215268460226" lon="11.099019602092266"><ele>75.6</ele><time>2026-04-26T08:32:49.001Z</time></trkpt><trkpt lat="43.902102435644146" lon="11.098927600823789"><ele>75.4</ele><time>2026-04-26T08:32:50.001Z</time></trkpt><trkpt lat="43.90203075018536" lon="11.098840215265152"><ele>75.2</ele><time>2026-04-26T08:32:51.001Z</time></trkpt><trkpt lat="43.90194938684303" lon="11.098717896957053"><ele>75.0</ele><time>2026-04-26T08:32:52.001Z</time></trkpt><trkpt lat="43.90190025473355" lon="11.098570746968768"><ele>75.0</ele><time>2026-04-26T08:32:53.001Z</time></trkpt><trkpt lat="43.90187444210764" lon="11.098372083092192"><ele>75.0</ele><time>2026-04-26T08:32:54.001Z</time></trkpt><trkpt lat="43.9018500866839" lon="11.098163957286987"><ele>75.0</ele><time>2026-04-26T08:32:55.001Z</time></trkpt><trkpt lat="43.90184086422711" lon="11.097943842833775"><ele>75.0</ele><time>2026-04-26T08:32:56.001Z</time></trkpt><trkpt lat="43.901824233474926" lon="11.097709482435377"><ele>75.0</ele><time>2026-04-26T08:32:57.001Z</time></trkpt><trkpt lat="43.901806351512256" lon="11.097466055721034"><ele>75.0</ele><time>2026-04-26T08:32:58.001Z</time></trkpt><trkpt lat="43.901800257325476" lon="11.097215399724377"><ele>74.0</ele><time>2026-04-26T08:32:59.001Z</time></trkpt><trkpt lat="43.901783852951546" lon="11.096958798250089"><ele>73.0</ele><time>2026-04-26T08:33:00.001Z</time></trkpt><trkpt lat="43.90177170273507" lon="11.09669761751745"><ele>72.0</ele><time>2026-04-26T08:33:01.001Z</time></trkpt><trkpt lat="43.901760432574065" lon="11.09642029362762"><ele>71.66666666666667</ele><time>2026-04-26T08:33:02.001Z</time></trkpt><trkpt lat="43.901755564703926" lon="11.0961408868682"><ele>71.33333333333334</ele><time>2026-04-26T08:33:03.001Z</time></trkpt><trkpt lat="43.901759841119734" lon="11.095860318410676"><ele>71.0</ele><time>2026-04-26T08:33:04.001Z</time></trkpt><trkpt lat="43.901767557216" lon="11.095580852842042"><ele>71.0</ele><time>2026-04-26T08:33:05.001Z</time></trkpt><trkpt lat="43.901782387614915" lon="11.095296194547544"><ele>71.0</ele><time>2026-04-26T08:33:06.001Z</time></trkpt><trkpt lat="43.90180954899129" lon="11.095025074607548"><ele>71.0</ele><time>2026-04-26T08:33:07.001Z</time></trkpt><trkpt lat="43.90183484285603" lon="11.094770631272908"><ele>71.0</ele><time>2026-04-26T08:33:08.001Z</time></trkpt><trkpt lat="43.901858043326094" lon="11.094513483390298"><ele>71.0</ele><time>2026-04-26T08:33:09.001Z</time></trkpt><trkpt lat="43.90188761218346" lon="11.094275295447705"><ele>71.0</ele><time>2026-04-26T08:33:10.001Z</time></trkpt><trkpt lat="43.90191796435207" lon="11.094031710052883"><ele>71.0</ele><time>2026-04-26T08:33:11.001Z</time></trkpt><trkpt lat="43.90196428733416" lon="11.093809568293084"><ele>71.0</ele><time>2026-04-26T08:33:12.001Z</time></trkpt><trkpt lat="43.90200480825769" lon="11.093596088242155"><ele>71.0</ele><time>2026-04-26T08:33:13.001Z</time></trkpt><trkpt lat="43.90205766983818" lon="11.09339339993008"><ele>70.75</ele><time>2026-04-26T08:33:14.001Z</time></trkpt><trkpt lat="43.90212349876054" lon="11.09321258387211"><ele>70.5</ele><time>2026-04-26T08:33:15.001Z</time></trkpt><trkpt lat="43.902206234921074" lon="11.093043597102907"><ele>70.25</ele><time>2026-04-26T08:33:16.001Z</time></trkpt><trkpt lat="43.90229647878184" lon="11.092901996790008"><ele>70.0</ele><time>2026-04-26T08:33:17.001Z</time></trkpt><trkpt lat="43.90239339750753" lon="11.09278830465757"><ele>70.0</ele><time>2026-04-26T08:33:18.001Z</time></trkpt><trkpt lat="43.90249492944131" lon="11.092699721190169"><ele>70.0</ele><time>2026-04-26T08:33:19.001Z</time></trkpt><trkpt lat="43.90259325080265" lon="11.092620243552533"><ele>70.0</ele><time>2026-04-26T08:33:20.001Z</time></trkpt><trkpt lat="43.90269320909966" lon="11.092566921185815"><ele>70.0</ele><time>2026-04-26T08:33:21.001Z</time></trkpt><trkpt lat="43.90276610587734" lon="11.092447230262987"><ele>70.4</ele><time>2026-04-26T08:33:22.001Z</time></trkpt><trkpt lat="43.902819542533315" lon="11.092321577958105"><ele>70.8</ele><time>2026-04-26T08:33:23.001Z</time></trkpt><trkpt lat="43.90285170118672" lon="11.09217228960599"><ele>71.2</ele><time>2026-04-26T08:33:24.001Z</time></trkpt><trkpt lat="43.902858662356195" lon="11.092010436773434"><ele>71.6</ele><time>2026-04-26T08:33:25.001Z</time></trkpt><trkpt lat="43.90282733887667" lon="11.091859101396198"><ele>72.0</ele><time>2026-04-26T08:33:26.001Z</time></trkpt><trkpt lat="43.902784704482144" lon="11.091722269842156"><ele>72.0</ele><time>2026-04-26T08:33:27.001Z</time></trkpt><trkpt lat="43.90271997060446" lon="11.091609087878648"><ele>72.0</ele><time>2026-04-26T08:33:28.001Z</time></trkpt><trkpt lat="43.902624259701604" lon="11.09153301796189"><ele>72.0</ele><time>2026-04-26T08:33:29.001Z</time></trkpt><trkpt lat="43.902571203211934" lon="11.091344741468996"><ele>72.0</ele><time>2026-04-26T08:33:30.001Z</time></trkpt><trkpt lat="43.90252938107363" lon="11.091166569892955"><ele>71.33333333333333</ele><time>2026-04-26T08:33:31.001Z</time></trkpt><trkpt lat="43.90250305136109" lon="11.0909755004192"><ele>70.66666666666666</ele><time>2026-04-26T08:33:32.001Z</time></trkpt><trkpt lat="43.90248541638714" lon="11.090757031672169"><ele>70.0</ele><time>2026-04-26T08:33:33.001Z</time></trkpt><trkpt lat="43.90245566456762" lon="11.090531625770963"><ele>69.33333333333333</ele><time>2026-04-26T08:33:34.001Z</time></trkpt><trkpt lat="43.902403324801945" lon="11.090321750739697"><ele>68.66666666666667</ele><time>2026-04-26T08:33:35.001Z</time></trkpt><trkpt lat="43.902332298553134" lon="11.090116353831966"><ele>68.0</ele><time>2026-04-26T08:33:36.001Z</time></trkpt><trkpt lat="43.902248625371286" lon="11.089917974267626"><ele>68.0</ele><time>2026-04-26T08:33:37.001Z</time></trkpt><trkpt lat="43.90214729270633" lon="11.08972068339147"><ele>68.0</ele><time>2026-04-26T08:33:38.001Z</time></trkpt><trkpt lat="43.90204192122091" lon="11.089539144801897"><ele>68.0</ele><time>2026-04-26T08:33:39.001Z</time></trkpt><trkpt lat="43.90193198891681" lon="11.089366206148851"><ele>68.0</ele><time>2026-04-26T08:33:40.001Z</time></trkpt><trkpt lat="43.901828048363306" lon="11.08920219136336"><ele>68.0</ele><time>2026-04-26T08:33:41.001Z</time></trkpt><trkpt lat="43.90173003247926" lon="11.089045689377128"><ele>68.0</ele><time>2026-04-26T08:33:42.001Z</time></trkpt><trkpt lat="43.90163011704551" lon="11.088882699346252"><ele>68.0</ele><time>2026-04-26T08:33:43.001Z</time></trkpt><trkpt lat="43.90152964526707" lon="11.088710587171821"><ele>68.0</ele><time>2026-04-26T08:33:44.001Z</time></trkpt><trkpt lat="43.90142348747804" lon="11.088537461999808"><ele>68.0</ele><time>2026-04-26T08:33:45.001Z</time></trkpt><trkpt lat="43.90131090249816" lon="11.08835907771554"><ele>68.0</ele><time>2026-04-26T08:33:46.001Z</time></trkpt><trkpt lat="43.901196212214366" lon="11.08817787888273"><ele>68.0</ele><time>2026-04-26T08:33:47.001Z</time></trkpt><trkpt lat="43.90107666536821" lon="11.087994891266277"><ele>68.0</ele><time>2026-04-26T08:33:48.001Z</time></trkpt><trkpt lat="43.90096263577985" lon="11.087814574833143"><ele>68.0</ele><time>2026-04-26T08:33:49.001Z</time></trkpt><trkpt lat="43.90085647988395" lon="11.087648704060882"><ele>68.0</ele><time>2026-04-26T08:33:50.001Z</time></trkpt><trkpt lat="43.90075455786755" lon="11.087484614055176"><ele>68.0</ele><time>2026-04-26T08:33:51.001Z</time></trkpt><trkpt lat="43.90064935615139" lon="11.087319190102125"><ele>67.66666666666667</ele><time>2026-04-26T08:33:52.001Z</time></trkpt><trkpt lat="43.90054187625171" lon="11.087144604623289"><ele>67.33333333333333</ele><time>2026-04-26T08:33:53.001Z</time></trkpt><trkpt lat="43.900438383157656" lon="11.086974023325956"><ele>67.0</ele><time>2026-04-26T08:33:54.001Z</time></trkpt><trkpt lat="43.90033994784655" lon="11.086812348015194"><ele>67.0</ele><time>2026-04-26T08:33:55.001Z</time></trkpt><trkpt lat="43.90024063639089" lon="11.086649980706072"><ele>67.0</ele><time>2026-04-26T08:33:56.001Z</time></trkpt><trkpt lat="43.900137032642476" lon="11.086476931481826"><ele>67.0</ele><time>2026-04-26T08:33:57.001Z</time></trkpt><trkpt lat="43.90002387349545" lon="11.086299961560112"><ele>67.66666666666666</ele><time>2026-04-26T08:33:58.001Z</time></trkpt><trkpt lat="43.89989719791179" lon="11.086112435573883"><ele>68.33333333333333</ele><time>2026-04-26T08:33:59.001Z</time></trkpt><trkpt lat="43.89978358790955" lon="11.085909834178079"><ele>69.0</ele><time>2026-04-26T08:34:00.001Z</time></trkpt><trkpt lat="43.89966690513102" lon="11.08571162214001"><ele>67.66666666666667</ele><time>2026-04-26T08:34:01.001Z</time></trkpt><trkpt lat="43.89956014533896" lon="11.085516065271177"><ele>66.33333333333334</ele><time>2026-04-26T08:34:02.001Z</time></trkpt><trkpt lat="43.89945898963615" lon="11.085333555803809"><ele>65.0</ele><time>2026-04-26T08:34:03.001Z</time></trkpt><trkpt lat="43.899359604363376" lon="11.085163391309944"><ele>65.0</ele><time>2026-04-26T08:34:04.001Z</time></trkpt><trkpt lat="43.89927454828527" lon="11.085016457907722"><ele>65.0</ele><time>2026-04-26T08:34:05.001Z</time></trkpt><trkpt lat="43.8991915462823" lon="11.084876777348356"><ele>65.0</ele><time>2026-04-26T08:34:06.001Z</time></trkpt><trkpt lat="43.899117753228126" lon="11.08474946494253"><ele>65.0</ele><time>2026-04-26T08:34:07.001Z</time></trkpt><trkpt lat="43.89905575414155" lon="11.084641255214889"><ele>65.0</ele><time>2026-04-26T08:34:08.001Z</time></trkpt><trkpt lat="43.89899282142636" lon="11.08453595431228"><ele>65.0</ele><time>2026-04-26T08:34:09.001Z</time></trkpt><trkpt lat="43.89893839535499" lon="11.084448456295629"><ele>65.0</ele><time>2026-04-26T08:34:10.001Z</time></trkpt><trkpt lat="43.89888969013145" lon="11.084357991435283"><ele>65.0</ele><time>2026-04-26T08:34:11.001Z</time></trkpt><trkpt lat="43.89884260756144" lon="11.084277174372012"><ele>65.0</ele><time>2026-04-26T08:34:12.001Z</time></trkpt><trkpt lat="43.89877480815782" lon="11.084151445839238"><ele>64.83333333333334</ele><time>2026-04-26T08:34:14.001Z</time></trkpt><trkpt lat="43.898717983150306" lon="11.084045127604535"><ele>64.66666666666667</ele><time>2026-04-26T08:34:16.001Z</time></trkpt><trkpt lat="43.89867655902102" lon="11.083963849262856"><ele>64.5</ele><time>2026-04-26T08:34:18.001Z</time></trkpt><trkpt lat="43.898633678079186" lon="11.083886614257388"><ele>64.33333333333333</ele><time>2026-04-26T08:34:22Z</time></trkpt><trkpt lat="43.898584899660186" lon="11.083825133803764"><ele>64.16666666666666</ele><time>2026-04-26T08:34:35Z</time></trkpt><trkpt lat="43.89854425547721" lon="11.083749634875627"><ele>64.0</ele><time>2026-04-26T08:34:37Z</time></trkpt><trkpt lat="43.89849994730054" lon="11.083652360969246"><ele>63.99999999999999</ele><time>2026-04-26T08:34:39Z</time></trkpt><trkpt lat="43.898432347746734" lon="11.083541158129808"><ele>64.0</ele><time>2026-04-26T08:34:41Z</time></trkpt><trkpt lat="43.898367266445135" lon="11.083421936648486"><ele>64.0</ele><time>2026-04-26T08:34:43Z</time></trkpt><trkpt lat="43.89831698437989" lon="11.083317113465839"><ele>64.0</ele><time>2026-04-26T08:34:45Z</time></trkpt><trkpt lat="43.898278692949745" lon="11.0832285516471"><ele>63.99999999999999</ele><time>2026-04-26T08:34:53Z</time></trkpt><trkpt lat="43.898260514559304" lon="11.083143368683817"><ele>64.0</ele><time>2026-04-26T08:34:55Z</time></trkpt><trkpt lat="43.898261912037306" lon="11.083004372254523"><ele>63.71428571428571</ele><time>2026-04-26T08:34:57Z</time></trkpt><trkpt lat="43.898266036421234" lon="11.082914549458808"><ele>63.42857142857142</ele><time>2026-04-26T08:34:58Z</time></trkpt><trkpt lat="43.898263152848095" lon="11.082818928521823"><ele>63.14285714285714</ele><time>2026-04-26T08:34:59Z</time></trkpt><trkpt lat="43.898240422516736" lon="11.082732188298735"><ele>62.85714285714286</ele><time>2026-04-26T08:35:00Z</time></trkpt><trkpt lat="43.89820876027995" lon="11.082644604292426"><ele>62.57142857142858</ele><time>2026-04-26T08:35:01Z</time></trkpt><trkpt lat="43.89815570001931" lon="11.082578589555126"><ele>62.28571428571429</ele><time>2026-04-26T08:35:02Z</time></trkpt><trkpt lat="43.89808433106021" lon="11.082532162936628"><ele>62.0</ele><time>2026-04-26T08:35:03Z</time></trkpt><trkpt lat="43.89800637660077" lon="11.08249390000881"><ele>62.0</ele><time>2026-04-26T08:35:04Z</time></trkpt><trkpt lat="43.89792490255908" lon="11.08248831753935"><ele>62.0</ele><time>2026-04-26T08:35:05Z</time></trkpt><trkpt lat="43.89785011123451" lon="11.08238955165917"><ele>62.0</ele><time>2026-04-26T08:35:06Z</time></trkpt><trkpt lat="43.89777147129676" lon="11.082283389377032"><ele>62.0</ele><time>2026-04-26T08:35:07Z</time></trkpt><trkpt lat="43.897690242777784" lon="11.082149580224474"><ele>62.0</ele><time>2026-04-26T08:35:08Z</time></trkpt><trkpt lat="43.89760908577517" lon="11.08201519524752"><ele>62.25</ele><time>2026-04-26T08:35:09Z</time></trkpt><trkpt lat="43.897532570641765" lon="11.081870091451572"><ele>62.5</ele><time>2026-04-26T08:35:10Z</time></trkpt><trkpt lat="43.89744386290118" lon="11.081715513701903"><ele>62.75</ele><time>2026-04-26T08:35:11Z</time></trkpt><trkpt lat="43.897350665892226" lon="11.081541518694522"><ele>63.0</ele><time>2026-04-26T08:35:12Z</time></trkpt><trkpt lat="43.897252616847965" lon="11.081369778793704"><ele>63.0</ele><time>2026-04-26T08:35:13Z</time></trkpt><trkpt lat="43.897154372493574" lon="11.081186980235147"><ele>63.0</ele><time>2026-04-26T08:35:14Z</time></trkpt><trkpt lat="43.89705051401612" lon="11.0809976522137"><ele>63.0</ele><time>2026-04-26T08:35:15Z</time></trkpt><trkpt lat="43.896949426564184" lon="11.080811450129255"><ele>63.0</ele><time>2026-04-26T08:35:16Z</time></trkpt><trkpt lat="43.896854149770796" lon="11.08063445231554"><ele>63.0</ele><time>2026-04-26T08:35:17Z</time></trkpt><trkpt lat="43.89676178212794" lon="11.080463270865772"><ele>63.0</ele><time>2026-04-26T08:35:18Z</time></trkpt><trkpt lat="43.89667719378831" lon="11.08030112877196"><ele>62.75</ele><time>2026-04-26T08:35:19Z</time></trkpt><trkpt lat="43.89659194191378" lon="11.080147847457225"><ele>62.5</ele><time>2026-04-26T08:35:20Z</time></trkpt><trkpt lat="43.896519248826316" lon="11.080007550304657"><ele>62.25</ele><time>2026-04-26T08:35:21Z</time></trkpt><trkpt lat="43.896440318865075" lon="11.079868933085097"><ele>62.0</ele><time>2026-04-26T08:35:22Z</time></trkpt><trkpt lat="43.89636252543511" lon="11.079730042771878"><ele>62.0</ele><time>2026-04-26T08:35:23Z</time></trkpt><trkpt lat="43.896285233307275" lon="11.079590666502698"><ele>62.0</ele><time>2026-04-26T08:35:24Z</time></trkpt><trkpt lat="43.89621646464418" lon="11.079463285642113"><ele>62.0</ele><time>2026-04-26T08:35:25Z</time></trkpt><trkpt lat="43.89614559555095" lon="11.079329458372753"><ele>62.0</ele><time>2026-04-26T08:35:26Z</time></trkpt><trkpt lat="43.89607137557287" lon="11.079191065574086"><ele>61.5</ele><time>2026-04-26T08:35:27Z</time></trkpt><trkpt lat="43.89599581256103" lon="11.079046717391854"><ele>61.0</ele><time>2026-04-26T08:35:28Z</time></trkpt><trkpt lat="43.895914995142256" lon="11.078898951281786"><ele>60.5</ele><time>2026-04-26T08:35:29Z</time></trkpt><trkpt lat="43.89584509766887" lon="11.078771069130473"><ele>60.0</ele><time>2026-04-26T08:35:30Z</time></trkpt><trkpt lat="43.895775138024064" lon="11.078643755384283"><ele>60.0</ele><time>2026-04-26T08:35:31Z</time></trkpt><trkpt lat="43.89570840505353" lon="11.078524457222569"><ele>60.0</ele><time>2026-04-26T08:35:32Z</time></trkpt><trkpt lat="43.895646426901834" lon="11.078413433129935"><ele>60.0</ele><time>2026-04-26T08:35:33Z</time></trkpt><trkpt lat="43.895586056068936" lon="11.078303531968306"><ele>60.0</ele><time>2026-04-26T08:35:34Z</time></trkpt><trkpt lat="43.89551365400998" lon="11.078183987845668"><ele>60.0</ele><time>2026-04-26T08:35:35Z</time></trkpt><trkpt lat="43.89543701295392" lon="11.07805544890541"><ele>60.0</ele><time>2026-04-26T08:35:36Z</time></trkpt><trkpt lat="43.895365840907026" lon="11.077924705123284"><ele>60.0</ele><time>2026-04-26T08:35:37Z</time></trkpt><trkpt lat="43.89528684303529" lon="11.077788721216638"><ele>60.0</ele><time>2026-04-26T08:35:38Z</time></trkpt><trkpt lat="43.895203563410234" lon="11.077646352784942"><ele>60.0</ele><time>2026-04-26T08:35:39Z</time></trkpt><trkpt lat="43.89511978064034" lon="11.077503525372881"><ele>59.5</ele><time>2026-04-26T08:35:40Z</time></trkpt><trkpt lat="43.89503422783336" lon="11.077354206997175"><ele>59.0</ele><time>2026-04-26T08:35:41Z</time></trkpt><trkpt lat="43.8949351188417" lon="11.07718915485998"><ele>58.5</ele><time>2026-04-26T08:35:42Z</time></trkpt><trkpt lat="43.89483644230979" lon="11.077024150263409"><ele>58.0</ele><time>2026-04-26T08:35:43Z</time></trkpt><trkpt lat="43.89474627806872" lon="11.076847050776143"><ele>58.0</ele><time>2026-04-26T08:35:44Z</time></trkpt><trkpt lat="43.8946596877723" lon="11.076684294935662"><ele>58.0</ele><time>2026-04-26T08:35:45Z</time></trkpt><trkpt lat="43.89457502862788" lon="11.07652517007857"><ele>58.0</ele><time>2026-04-26T08:35:46Z</time></trkpt><trkpt lat="43.894501916985995" lon="11.076380083372163"><ele>58.0</ele><time>2026-04-26T08:35:47Z</time></trkpt><trkpt lat="43.894435690516964" lon="11.076250433400414"><ele>57.99999999999999</ele><time>2026-04-26T08:35:48Z</time></trkpt><trkpt lat="43.89437660820267" lon="11.076143542261356"><ele>58.0</ele><time>2026-04-26T08:35:49Z</time></trkpt><trkpt lat="43.89431655068599" lon="11.076041020466342"><ele>58.0</ele><time>2026-04-26T08:35:50Z</time></trkpt><trkpt lat="43.89427084395695" lon="11.075953974457676"><ele>58.0</ele><time>2026-04-26T08:35:51Z</time></trkpt><trkpt lat="43.89423071182979" lon="11.075881546799106"><ele>57.99999999999999</ele><time>2026-04-26T08:35:52Z</time></trkpt><trkpt lat="43.894173547816614" lon="11.075758927055931"><ele>58.0</ele><time>2026-04-26T08:35:54Z</time></trkpt><trkpt lat="43.894102907037556" lon="11.075625827112555"><ele>58.166666666666664</ele><time>2026-04-26T08:35:56Z</time></trkpt><trkpt lat="43.894091975052355" lon="11.07553845004942"><ele>58.33333333333333</ele><time>2026-04-26T08:35:59Z</time></trkpt><trkpt lat="43.89406693240172" lon="11.075446481008113"><ele>58.5</ele><time>2026-04-26T08:36:01Z</time></trkpt><trkpt lat="43.89407479043179" lon="11.075326965090309"><ele>58.66666666666667</ele><time>2026-04-26T08:36:03Z</time></trkpt><trkpt lat="43.89406084245639" lon="11.075162096706821"><ele>58.833333333333336</ele><time>2026-04-26T08:36:05Z</time></trkpt><trkpt lat="43.8939967445577" lon="11.075092338801918"><ele>59.0</ele><time>2026-04-26T08:36:06Z</time></trkpt><trkpt lat="43.89394136729591" lon="11.0750307270914"><ele>59.0</ele><time>2026-04-26T08:36:07Z</time></trkpt><trkpt lat="43.893874237494884" lon="11.074986875692213"><ele>59.00000000000001</ele><time>2026-04-26T08:36:08Z</time></trkpt><trkpt lat="43.893801091255746" lon="11.074951439812441"><ele>59.00000000000001</ele><time>2026-04-26T08:36:09Z</time></trkpt><trkpt lat="43.89371528731518" lon="11.074906509409871"><ele>59.0</ele><time>2026-04-26T08:36:10Z</time></trkpt><trkpt lat="43.89361526715302" lon="11.074834790579665"><ele>59.0</ele><time>2026-04-26T08:36:11Z</time></trkpt><trkpt lat="43.89351264917758" lon="11.074750080126009"><ele>58.0</ele><time>2026-04-26T08:36:12Z</time></trkpt><trkpt lat="43.89340027808756" lon="11.074643839383759"><ele>57.0</ele><time>2026-04-26T08:36:13Z</time></trkpt><trkpt lat="43.893270937568325" lon="11.074516885276335"><ele>56.0</ele><time>2026-04-26T08:36:14Z</time></trkpt><trkpt lat="43.89313582193652" lon="11.074382014842937"><ele>56.0</ele><time>2026-04-26T08:36:15Z</time></trkpt><trkpt lat="43.892994366412466" lon="11.074233726934144"><ele>56.0</ele><time>2026-04-26T08:36:16Z</time></trkpt><trkpt lat="43.89285022265221" lon="11.074086409930516"><ele>56.0</ele><time>2026-04-26T08:36:17Z</time></trkpt><trkpt lat="43.892709158127666" lon="11.073942409648549"><ele>57.0</ele><time>2026-04-26T08:36:18Z</time></trkpt><trkpt lat="43.89256597325815" lon="11.073797313774104"><ele>58.0</ele><time>2026-04-26T08:36:19Z</time></trkpt><trkpt lat="43.89242975362155" lon="11.073657665337882"><ele>59.0</ele><time>2026-04-26T08:36:20Z</time></trkpt><trkpt lat="43.89229714004924" lon="11.07351745849388"><ele>59.0</ele><time>2026-04-26T08:36:21Z</time></trkpt><trkpt lat="43.892175047492245" lon="11.07338291297139"><ele>59.0</ele><time>2026-04-26T08:36:22Z</time></trkpt><trkpt lat="43.89205420429858" lon="11.073259338544625"><ele>59.0</ele><time>2026-04-26T08:36:23Z</time></trkpt><trkpt lat="43.891936115264734" lon="11.073135843769913"><ele>58.66666666666667</ele><time>2026-04-26T08:36:24.001Z</time></trkpt><trkpt lat="43.89181653525563" lon="11.073011416235682"><ele>58.33333333333333</ele><time>2026-04-26T08:36:25.001Z</time></trkpt><trkpt lat="43.891689742072536" lon="11.072878448660855"><ele>58.0</ele><time>2026-04-26T08:36:26.001Z</time></trkpt><trkpt lat="43.89156499961565" lon="11.072749154720132"><ele>58.0</ele><time>2026-04-26T08:36:27.001Z</time></trkpt><trkpt lat="43.89143307061941" lon="11.072616372313291"><ele>58.0</ele><time>2026-04-26T08:36:28Z</time></trkpt><trkpt lat="43.89129668700262" lon="11.072477171492935"><ele>58.0</ele><time>2026-04-26T08:36:29Z</time></trkpt><trkpt lat="43.89115635690825" lon="11.072332891974103"><ele>57.666666666666664</ele><time>2026-04-26T08:36:30.001Z</time></trkpt><trkpt lat="43.89101519940549" lon="11.072191846442275"><ele>57.33333333333333</ele><time>2026-04-26T08:36:31.001Z</time></trkpt><trkpt lat="43.89087713444188" lon="11.072048338307406"><ele>57.0</ele><time>2026-04-26T08:36:32.001Z</time></trkpt><trkpt lat="43.89074586477376" lon="11.071909451238874"><ele>56.66666666666667</ele><time>2026-04-26T08:36:33.001Z</time></trkpt><trkpt lat="43.890613433249484" lon="11.071774798603341"><ele>56.333333333333336</ele><time>2026-04-26T08:36:34.001Z</time></trkpt><trkpt lat="43.890486128987284" lon="11.071638283384548"><ele>56.0</ele><time>2026-04-26T08:36:35.001Z</time></trkpt><trkpt lat="43.890358850565974" lon="11.071500434613782"><ele>56.0</ele><time>2026-04-26T08:36:36.001Z</time></trkpt><trkpt lat="43.89021760753392" lon="11.071353256862695"><ele>56.0</ele><time>2026-04-26T08:36:37.001Z</time></trkpt><trkpt lat="43.890075627681675" lon="11.071203123090406"><ele>56.0</ele><time>2026-04-26T08:36:38.001Z</time></trkpt><trkpt lat="43.88992605849382" lon="11.071053231412305"><ele>56.0</ele><time>2026-04-26T08:36:39.001Z</time></trkpt><trkpt lat="43.88977380455763" lon="11.07089439704939"><ele>56.0</ele><time>2026-04-26T08:36:40.001Z</time></trkpt><trkpt lat="43.88962592334122" lon="11.070734959360303"><ele>56.0</ele><time>2026-04-26T08:36:41.001Z</time></trkpt><trkpt lat="43.88947449268661" lon="11.070577128689589"><ele>56.0</ele><time>2026-04-26T08:36:42.001Z</time></trkpt><trkpt lat="43.88932442291378" lon="11.070417823422588"><ele>56.0</ele><time>2026-04-26T08:36:43.001Z</time></trkpt><trkpt lat="43.889175902744604" lon="11.070255137271067"><ele>56.0</ele><time>2026-04-26T08:36:44.001Z</time></trkpt><trkpt lat="43.88902424020146" lon="11.070097020997409"><ele>56.0</ele><time>2026-04-26T08:36:45.001Z</time></trkpt><trkpt lat="43.88888061214873" lon="11.069946065558488"><ele>56.0</ele><time>2026-04-26T08:36:46.001Z</time></trkpt><trkpt lat="43.88873787180207" lon="11.06980309171282"><ele>56.0</ele><time>2026-04-26T08:36:47.001Z</time></trkpt><trkpt lat="43.88860049256573" lon="11.069658583154634"><ele>55.333333333333336</ele><time>2026-04-26T08:36:48.001Z</time></trkpt><trkpt lat="43.88846896901436" lon="11.069523669162791"><ele>54.66666666666667</ele><time>2026-04-26T08:36:49.001Z</time></trkpt><trkpt lat="43.888342147552414" lon="11.06939142888768"><ele>54.0</ele><time>2026-04-26T08:36:50.001Z</time></trkpt><trkpt lat="43.88821258154547" lon="11.06926315905296"><ele>54.0</ele><time>2026-04-26T08:36:51.001Z</time></trkpt><trkpt lat="43.88807463606656" lon="11.069141130489855"><ele>54.0</ele><time>2026-04-26T08:36:52.001Z</time></trkpt><trkpt lat="43.887942725549514" lon="11.069020298164324"><ele>54.0</ele><time>2026-04-26T08:36:53.001Z</time></trkpt><trkpt lat="43.887814808607544" lon="11.068898656104743"><ele>53.66666666666667</ele><time>2026-04-26T08:36:54.001Z</time></trkpt><trkpt lat="43.88768626479578" lon="11.068782140517838"><ele>53.333333333333336</ele><time>2026-04-26T08:36:55.001Z</time></trkpt><trkpt lat="43.88755965298966" lon="11.068671598475351"><ele>53.0</ele><time>2026-04-26T08:36:56.001Z</time></trkpt><trkpt lat="43.88742258866204" lon="11.068562643505011"><ele>53.0</ele><time>2026-04-26T08:36:57.001Z</time></trkpt><trkpt lat="43.88728234523195" lon="11.068458412149175"><ele>53.0</ele><time>2026-04-26T08:36:58.001Z</time></trkpt><trkpt lat="43.88713254091695" lon="11.068349336795238"><ele>53.0</ele><time>2026-04-26T08:36:59.001Z</time></trkpt><trkpt lat="43.88697348410612" lon="11.06824363421164"><ele>53.0</ele><time>2026-04-26T08:37:00.001Z</time></trkpt><trkpt lat="43.88682115239019" lon="11.068140196881116"><ele>53.0</ele><time>2026-04-26T08:37:01.001Z</time></trkpt><trkpt lat="43.886681562842476" lon="11.068034459484652"><ele>53.0</ele><time>2026-04-26T08:37:02.001Z</time></trkpt><trkpt lat="43.88653634429843" lon="11.067939877313338"><ele>52.66666666666667</ele><time>2026-04-26T08:37:03.001Z</time></trkpt><trkpt lat="43.886389244751314" lon="11.067840438483906"><ele>52.33333333333333</ele><time>2026-04-26T08:37:04.001Z</time></trkpt><trkpt lat="43.88624024111459" lon="11.067733854119147"><ele>52.0</ele><time>2026-04-26T08:37:05.001Z</time></trkpt><trkpt lat="43.88608910171358" lon="11.067631260555247"><ele>52.0</ele><time>2026-04-26T08:37:06.001Z</time></trkpt><trkpt lat="43.88593737212643" lon="11.067535912789435"><ele>52.0</ele><time>2026-04-26T08:37:07.001Z</time></trkpt><trkpt lat="43.88578487220817" lon="11.067443672608773"><ele>52.0</ele><time>2026-04-26T08:37:08.001Z</time></trkpt><trkpt lat="43.88563043674783" lon="11.06734335413908"><ele>51.666666666666664</ele><time>2026-04-26T08:37:09.001Z</time></trkpt><trkpt lat="43.885466097684244" lon="11.067245216824402"><ele>51.33333333333333</ele><time>2026-04-26T08:37:10.001Z</time></trkpt><trkpt lat="43.88530376614136" lon="11.0671485738259"><ele>51.0</ele><time>2026-04-26T08:37:11.001Z</time></trkpt><trkpt lat="43.88513784846639" lon="11.067051134095793"><ele>51.0</ele><time>2026-04-26T08:37:12.001Z</time></trkpt><trkpt lat="43.88497269907339" lon="11.066954892047422"><ele>51.0</ele><time>2026-04-26T08:37:13.001Z</time></trkpt><trkpt lat="43.884808038820665" lon="11.066853053838033"><ele>51.0</ele><time>2026-04-26T08:37:14.001Z</time></trkpt><trkpt lat="43.884654057446525" lon="11.066755861425353"><ele>51.0</ele><time>2026-04-26T08:37:15.001Z</time></trkpt><trkpt lat="43.88449724867937" lon="11.066658654640934"><ele>51.0</ele><time>2026-04-26T08:37:16.001Z</time></trkpt><trkpt lat="43.88434718694532" lon="11.066563522330004"><ele>51.0</ele><time>2026-04-26T08:37:17.001Z</time></trkpt><trkpt lat="43.884196526124974" lon="11.066478037560623"><ele>50.75</ele><time>2026-04-26T08:37:18.001Z</time></trkpt><trkpt lat="43.884056188024886" lon="11.066394530153653"><ele>50.5</ele><time>2026-04-26T08:37:19.001Z</time></trkpt><trkpt lat="43.883927709660796" lon="11.066316805810057"><ele>50.25</ele><time>2026-04-26T08:37:20.001Z</time></trkpt><trkpt lat="43.88379197139526" lon="11.06624085153149"><ele>50.0</ele><time>2026-04-26T08:37:21.001Z</time></trkpt><trkpt lat="43.883658015945315" lon="11.066161443774948"><ele>50.0</ele><time>2026-04-26T08:37:22.001Z</time></trkpt><trkpt lat="43.88350530603019" lon="11.066082277853852"><ele>50.0</ele><time>2026-04-26T08:37:23.001Z</time></trkpt><trkpt lat="43.883351512888986" lon="11.06599796212674"><ele>50.0</ele><time>2026-04-26T08:37:24.001Z</time></trkpt><trkpt lat="43.88319583985559" lon="11.065898179916442"><ele>50.333333333333336</ele><time>2026-04-26T08:37:25.001Z</time></trkpt><trkpt lat="43.883029066042496" lon="11.065795696240961"><ele>50.66666666666667</ele><time>2026-04-26T08:37:26.001Z</time></trkpt><trkpt lat="43.882862230602946" lon="11.065691449919763"><ele>51.0</ele><time>2026-04-26T08:37:27.001Z</time></trkpt><trkpt lat="43.88270141702323" lon="11.06558530768457"><ele>50.66666666666667</ele><time>2026-04-26T08:37:28.001Z</time></trkpt><trkpt lat="43.882549779376134" lon="11.065491743529572"><ele>50.333333333333336</ele><time>2026-04-26T08:37:29.001Z</time></trkpt><trkpt lat="43.882398986363214" lon="11.065408536227173"><ele>50.0</ele><time>2026-04-26T08:37:30.001Z</time></trkpt><trkpt lat="43.88225014221832" lon="11.06531938433768"><ele>50.0</ele><time>2026-04-26T08:37:31.001Z</time></trkpt><trkpt lat="43.882095435756725" lon="11.065233085189144"><ele>50.0</ele><time>2026-04-26T08:37:32.001Z</time></trkpt><trkpt lat="43.881939799279124" lon="11.0651418666084"><ele>50.0</ele><time>2026-04-26T08:37:33.001Z</time></trkpt><trkpt lat="43.881787394702165" lon="11.06504763363349"><ele>50.0</ele><time>2026-04-26T08:37:34.001Z</time></trkpt><trkpt lat="43.88162560621756" lon="11.064955041768176"><ele>50.0</ele><time>2026-04-26T08:37:35.001Z</time></trkpt><trkpt lat="43.88146156815405" lon="11.0648569492094"><ele>50.0</ele><time>2026-04-26T08:37:36.001Z</time></trkpt><trkpt lat="43.88131501400496" lon="11.06476632214759"><ele>49.75</ele><time>2026-04-26T08:37:37.001Z</time></trkpt><trkpt lat="43.88118266049499" lon="11.064692841292434"><ele>49.5</ele><time>2026-04-26T08:37:38.001Z</time></trkpt><trkpt lat="43.881064338036545" lon="11.064633773774052"><ele>49.25</ele><time>2026-04-26T08:37:39.001Z</time></trkpt><trkpt lat="43.88096448741647" lon="11.064584556039174"><ele>49.0</ele><time>2026-04-26T08:37:40.001Z</time></trkpt><trkpt lat="43.880884014434876" lon="11.064543033960089"><ele>48.83333333333333</ele><time>2026-04-26T08:37:41.001Z</time></trkpt><trkpt lat="43.88082121283747" lon="11.064502285717035"><ele>48.666666666666664</ele><time>2026-04-26T08:37:42.001Z</time></trkpt><trkpt lat="43.88076341451068" lon="11.064463258522085"><ele>48.5</ele><time>2026-04-26T08:37:43.001Z</time></trkpt><trkpt lat="43.88065350959871" lon="11.06439233109918"><ele>48.33333333333333</ele><time>2026-04-26T08:37:45.001Z</time></trkpt><trkpt lat="43.880591986514375" lon="11.064358527807235"><ele>48.166666666666664</ele><time>2026-04-26T08:37:46.001Z</time></trkpt><trkpt lat="43.88052990531695" lon="11.064333383527007"><ele>48.0</ele><time>2026-04-26T08:37:47.001Z</time></trkpt><trkpt lat="43.88042123484065" lon="11.064266981625128"><ele>48.0</ele><time>2026-04-26T08:37:49.001Z</time></trkpt><trkpt lat="43.88033413572079" lon="11.064213866082035"><ele>48.0</ele><time>2026-04-26T08:37:51.001Z</time></trkpt><trkpt lat="43.88025929460294" lon="11.064172877001669"><ele>48.0</ele><time>2026-04-26T08:37:53.001Z</time></trkpt><trkpt lat="43.88019939335183" lon="11.064142421624359"><ele>48.0</ele><time>2026-04-26T08:37:55.001Z</time></trkpt><trkpt lat="43.88013857769886" lon="11.064111958375403"><ele>48.0</ele><time>2026-04-26T08:37:57.001Z</time></trkpt><trkpt lat="43.88005587848948" lon="11.064061046172045"><ele>48.0</ele><time>2026-04-26T08:38:00.001Z</time></trkpt><trkpt lat="43.87999409327954" lon="11.064016129643445"><ele>48.666666666666664</ele><time>2026-04-26T08:38:02.001Z</time></trkpt><trkpt lat="43.87990464213758" lon="11.063979655873293"><ele>49.33333333333333</ele><time>2026-04-26T08:38:05.001Z</time></trkpt><trkpt lat="43.879825567095146" lon="11.063937132272322"><ele>50.0</ele><time>2026-04-26T08:38:08.001Z</time></trkpt><trkpt lat="43.879766362320204" lon="11.063899220270008"><ele>50.666666666666664</ele><time>2026-04-26T08:38:10.001Z</time></trkpt><trkpt lat="43.879684234839694" lon="11.063850433013899"><ele>51.33333333333333</ele><time>2026-04-26T08:38:13.001Z</time></trkpt><trkpt lat="43.87961796975317" lon="11.063816628937957"><ele>52.0</ele><time>2026-04-26T08:38:15.001Z</time></trkpt><trkpt lat="43.87954870965138" lon="11.06377874416372"><ele>52.0</ele><time>2026-04-26T08:38:17.001Z</time></trkpt><trkpt lat="43.87946220717202" lon="11.063733934390807"><ele>52.0</ele><time>2026-04-26T08:38:19.001Z</time></trkpt><trkpt lat="43.879476497761" lon="11.063610268136062"><ele>52.0</ele><time>2026-04-26T08:38:23.001Z</time></trkpt><trkpt lat="43.879339508054784" lon="11.063680796473783"><ele>52.0</ele><time>2026-04-26T08:38:29.001Z</time></trkpt><trkpt lat="43.87944899728624" lon="11.063542432445807"><ele>52.0</ele><time>2026-04-26T08:38:33.001Z</time></trkpt><trkpt lat="43.87928897373014" lon="11.06364769376453"><ele>52.0</ele><time>2026-04-26T08:38:34Z</time></trkpt><trkpt lat="43.8792205946279" lon="11.06360893498253"><ele>52.0</ele><time>2026-04-26T08:38:40.001Z</time></trkpt><trkpt lat="43.87915381731763" lon="11.063546716573688"><ele>52.0</ele><time>2026-04-26T08:38:43Z</time></trkpt><trkpt lat="43.879091750254105" lon="11.063455127856496"><ele>52.0</ele><time>2026-04-26T08:38:46Z</time></trkpt><trkpt lat="43.879068776361564" lon="11.063309577804391"><ele>51.6</ele><time>2026-04-26T08:38:48Z</time></trkpt><trkpt lat="43.87906412104068" lon="11.063211152194436"><ele>51.2</ele><time>2026-04-26T08:38:49Z</time></trkpt><trkpt lat="43.87907549738481" lon="11.063071501166862"><ele>50.8</ele><time>2026-04-26T08:38:50Z</time></trkpt><trkpt lat="43.87910779565047" lon="11.06291808471558"><ele>50.4</ele><time>2026-04-26T08:38:51Z</time></trkpt><trkpt lat="43.87914273483173" lon="11.062757156531303"><ele>50.0</ele><time>2026-04-26T08:38:52Z</time></trkpt><trkpt lat="43.87918062300192" lon="11.062573216681281"><ele>50.0</ele><time>2026-04-26T08:38:53Z</time></trkpt><trkpt lat="43.87921836115194" lon="11.062381103797728"><ele>50.0</ele><time>2026-04-26T08:38:54Z</time></trkpt><trkpt lat="43.87925373677217" lon="11.062187690234799"><ele>50.0</ele><time>2026-04-26T08:38:55Z</time></trkpt><trkpt lat="43.87928845560021" lon="11.061997740720297"><ele>50.0</ele><time>2026-04-26T08:38:56Z</time></trkpt><trkpt lat="43.87932571551124" lon="11.061812393208081"><ele>50.0</ele><time>2026-04-26T08:38:57Z</time></trkpt><trkpt lat="43.879363299607064" lon="11.061636653605106"><ele>50.0</ele><time>2026-04-26T08:38:58Z</time></trkpt><trkpt lat="43.87939901164445" lon="11.061471181709791"><ele>50.0</ele><time>2026-04-26T08:38:59Z</time></trkpt><trkpt lat="43.87943682190828" lon="11.06131058470288"><ele>50.0</ele><time>2026-04-26T08:39:00Z</time></trkpt><trkpt lat="43.87947018640644" lon="11.061160739567223"><ele>50.25</ele><time>2026-04-26T08:39:01Z</time></trkpt><trkpt lat="43.879497142095914" lon="11.061014982070574"><ele>50.5</ele><time>2026-04-26T08:39:02Z</time></trkpt><trkpt lat="43.879524488573" lon="11.060845522904783"><ele>50.75</ele><time>2026-04-26T08:39:03Z</time></trkpt><trkpt lat="43.879561860982996" lon="11.060656059952427"><ele>51.0</ele><time>2026-04-26T08:39:04Z</time></trkpt><trkpt lat="43.87961630245628" lon="11.060433773303766"><ele>51.0</ele><time>2026-04-26T08:39:05Z</time></trkpt><trkpt lat="43.87965578778003" lon="11.060187343306545"><ele>51.0</ele><time>2026-04-26T08:39:06Z</time></trkpt><trkpt lat="43.87971602975143" lon="11.059947328113925"><ele>51.0</ele><time>2026-04-26T08:39:07Z</time></trkpt><trkpt lat="43.87977668244155" lon="11.059688267178021"><ele>50.0</ele><time>2026-04-26T08:39:08Z</time></trkpt><trkpt lat="43.87983630224526" lon="11.0594226316788"><ele>49.0</ele><time>2026-04-26T08:39:09Z</time></trkpt><trkpt lat="43.879896945249676" lon="11.059161248290538"><ele>48.0</ele><time>2026-04-26T08:39:10Z</time></trkpt><trkpt lat="43.87996016109187" lon="11.058897861433902"><ele>48.0</ele><time>2026-04-26T08:39:11Z</time></trkpt><trkpt lat="43.88002613726819" lon="11.058624306517078"><ele>48.0</ele><time>2026-04-26T08:39:12Z</time></trkpt><trkpt lat="43.880090977259606" lon="11.058343462702418"><ele>48.0</ele><time>2026-04-26T08:39:13Z</time></trkpt><trkpt lat="43.880157207361535" lon="11.058053282793104"><ele>48.0</ele><time>2026-04-26T08:39:14Z</time></trkpt><trkpt lat="43.88022490699892" lon="11.05776115345132"><ele>48.0</ele><time>2026-04-26T08:39:15Z</time></trkpt><trkpt lat="43.88029130597603" lon="11.057476230317688"><ele>48.0</ele><time>2026-04-26T08:39:16Z</time></trkpt><trkpt lat="43.88036059327328" lon="11.05719248458223"><ele>48.33333333333333</ele><time>2026-04-26T08:39:17Z</time></trkpt><trkpt lat="43.880422309709346" lon="11.056904133615296"><ele>48.666666666666664</ele><time>2026-04-26T08:39:18Z</time></trkpt><trkpt lat="43.880482526758975" lon="11.056619210172803"><ele>49.0</ele><time>2026-04-26T08:39:19Z</time></trkpt><trkpt lat="43.88054842221288" lon="11.056334379996917"><ele>48.33333333333333</ele><time>2026-04-26T08:39:20Z</time></trkpt><trkpt lat="43.880611312580854" lon="11.05604553027139"><ele>47.666666666666664</ele><time>2026-04-26T08:39:21Z</time></trkpt><trkpt lat="43.88067762874857" lon="11.055755419922122"><ele>47.0</ele><time>2026-04-26T08:39:22Z</time></trkpt><trkpt lat="43.880744791133395" lon="11.055461699719398"><ele>47.0</ele><time>2026-04-26T08:39:23Z</time></trkpt><trkpt lat="43.880809927244655" lon="11.055161941192921"><ele>47.0</ele><time>2026-04-26T08:39:24Z</time></trkpt><trkpt lat="43.88087834699735" lon="11.054848992784192"><ele>46.5</ele><time>2026-04-26T08:39:25Z</time></trkpt><trkpt lat="43.88094186634881" lon="11.054530708080094"><ele>46.0</ele><time>2026-04-26T08:39:26Z</time></trkpt><trkpt lat="43.88101286864535" lon="11.054216713149298"><ele>45.0</ele><time>2026-04-26T08:39:27Z</time></trkpt><trkpt lat="43.88108358694609" lon="11.05389935652114"><ele>44.0</ele><time>2026-04-26T08:39:28Z</time></trkpt><trkpt lat="43.88115081687469" lon="11.053583425958484"><ele>43.33333333333333</ele><time>2026-04-26T08:39:29Z</time></trkpt><trkpt lat="43.881210821480614" lon="11.05328579934423"><ele>42.666666666666664</ele><time>2026-04-26T08:39:30Z</time></trkpt><trkpt lat="43.881270728018684" lon="11.05300070098346"><ele>42.0</ele><time>2026-04-26T08:39:31Z</time></trkpt><trkpt lat="43.88132830175468" lon="11.052723515032756"><ele>42.666666666666664</ele><time>2026-04-26T08:39:32Z</time></trkpt><trkpt lat="43.88138850735355" lon="11.05243939355431"><ele>43.33333333333333</ele><time>2026-04-26T08:39:33Z</time></trkpt><trkpt lat="43.88144923069753" lon="11.052156061881977"><ele>44.0</ele><time>2026-04-26T08:39:34Z</time></trkpt><trkpt lat="43.88150889763214" lon="11.05186212485318"><ele>43.5</ele><time>2026-04-26T08:39:35Z</time></trkpt><trkpt lat="43.88157140909179" lon="11.051563514015257"><ele>43.0</ele><time>2026-04-26T08:39:36Z</time></trkpt><trkpt lat="43.8816308882242" lon="11.051255624281755"><ele>43.0</ele><time>2026-04-26T08:39:37Z</time></trkpt><trkpt lat="43.881693491506255" lon="11.050942051665993"><ele>43.0</ele><time>2026-04-26T08:39:38Z</time></trkpt><trkpt lat="43.88175143368218" lon="11.050644020240561"><ele>43.333333333333336</ele><time>2026-04-26T08:39:39Z</time></trkpt><trkpt lat="43.88180962758158" lon="11.050355701175828"><ele>43.666666666666664</ele><time>2026-04-26T08:39:40Z</time></trkpt><trkpt lat="43.88186640802048" lon="11.05007208978293"><ele>44.0</ele><time>2026-04-26T08:39:41Z</time></trkpt><trkpt lat="43.88192428875034" lon="11.04980227318912"><ele>44.0</ele><time>2026-04-26T08:39:42Z</time></trkpt><trkpt lat="43.88197922268108" lon="11.049550730342993"><ele>44.0</ele><time>2026-04-26T08:39:43Z</time></trkpt><trkpt lat="43.882031018050505" lon="11.049296365091068"><ele>44.0</ele><time>2026-04-26T08:39:44Z</time></trkpt><trkpt lat="43.88208355720579" lon="11.049050878150483"><ele>44.0</ele><time>2026-04-26T08:39:45Z</time></trkpt><trkpt lat="43.88213778716317" lon="11.048799360455769"><ele>44.0</ele><time>2026-04-26T08:39:46Z</time></trkpt><trkpt lat="43.88219068056038" lon="11.048546844476837"><ele>44.0</ele><time>2026-04-26T08:39:47Z</time></trkpt><trkpt lat="43.882244749035536" lon="11.048282065279064"><ele>44.33333333333333</ele><time>2026-04-26T08:39:48Z</time></trkpt><trkpt lat="43.8823063732811" lon="11.048018114487682"><ele>44.666666666666664</ele><time>2026-04-26T08:39:49Z</time></trkpt><trkpt lat="43.8823723213507" lon="11.047753414750941"><ele>45.0</ele><time>2026-04-26T08:39:50Z</time></trkpt><trkpt lat="43.8824342150971" lon="11.04748317635366"><ele>45.333333333333336</ele><time>2026-04-26T08:39:51Z</time></trkpt><trkpt lat="43.88249771745978" lon="11.047212377556916"><ele>45.66666666666667</ele><time>2026-04-26T08:39:52Z</time></trkpt><trkpt lat="43.88255774795017" lon="11.046956348135136"><ele>46.0</ele><time>2026-04-26T08:39:53Z</time></trkpt><trkpt lat="43.8826152687585" lon="11.046710086374107"><ele>45.333333333333336</ele><time>2026-04-26T08:39:54Z</time></trkpt><trkpt lat="43.882671251024526" lon="11.046468000556558"><ele>44.666666666666664</ele><time>2026-04-26T08:39:55Z</time></trkpt><trkpt lat="43.88272673178119" lon="11.04621483495158"><ele>44.0</ele><time>2026-04-26T08:39:56Z</time></trkpt><trkpt lat="43.88278360965968" lon="11.045964537509972"><ele>44.0</ele><time>2026-04-26T08:39:57Z</time></trkpt><trkpt lat="43.882836330707505" lon="11.045712954636652"><ele>44.0</ele><time>2026-04-26T08:39:58Z</time></trkpt><trkpt lat="43.882885158521105" lon="11.045473001831045"><ele>44.0</ele><time>2026-04-26T08:39:59Z</time></trkpt><trkpt lat="43.88293329748193" lon="11.045229482372152"><ele>44.0</ele><time>2026-04-26T08:40:00Z</time></trkpt><trkpt lat="43.88298510702916" lon="11.044985400901476"><ele>44.0</ele><time>2026-04-26T08:40:01Z</time></trkpt><trkpt lat="43.88303744333518" lon="11.044754876877727"><ele>44.0</ele><time>2026-04-26T08:40:02Z</time></trkpt><trkpt lat="43.883087735909534" lon="11.044535229861342"><ele>43.666666666666664</ele><time>2026-04-26T08:40:03Z</time></trkpt><trkpt lat="43.883135374564425" lon="11.04432449641652"><ele>43.333333333333336</ele><time>2026-04-26T08:40:04Z</time></trkpt><trkpt lat="43.88317932149761" lon="11.044118459799773"><ele>43.0</ele><time>2026-04-26T08:40:05Z</time></trkpt><trkpt lat="43.88322366746653" lon="11.043905537546285"><ele>42.66666666666667</ele><time>2026-04-26T08:40:06Z</time></trkpt><trkpt lat="43.88326599768475" lon="11.043684391173546"><ele>42.333333333333336</ele><time>2026-04-26T08:40:07Z</time></trkpt><trkpt lat="43.883300481308034" lon="11.043460378855283"><ele>42.0</ele><time>2026-04-26T08:40:08Z</time></trkpt><trkpt lat="43.88333697395347" lon="11.043248872307508"><ele>41.666666666666664</ele><time>2026-04-26T08:40:09Z</time></trkpt><trkpt lat="43.883372595289146" lon="11.043032495917892"><ele>41.33333333333333</ele><time>2026-04-26T08:40:10Z</time></trkpt><trkpt lat="43.883410438514915" lon="11.042815247125013"><ele>41.0</ele><time>2026-04-26T08:40:11Z</time></trkpt><trkpt lat="43.88344598437891" lon="11.04261926622923"><ele>41.25</ele><time>2026-04-26T08:40:12Z</time></trkpt><trkpt lat="43.88348021824402" lon="11.042440233094517"><ele>41.5</ele><time>2026-04-26T08:40:13Z</time></trkpt><trkpt lat="43.883505714449306" lon="11.042281229416632"><ele>41.75</ele><time>2026-04-26T08:40:14Z</time></trkpt><trkpt lat="43.883535213397856" lon="11.042135435994558"><ele>42.0</ele><time>2026-04-26T08:40:15Z</time></trkpt><trkpt lat="43.8835613112164" lon="11.041996153911743"><ele>42.0</ele><time>2026-04-26T08:40:16Z</time></trkpt><trkpt lat="43.883583892039844" lon="11.04187502844355"><ele>42.0</ele><time>2026-04-26T08:40:17Z</time></trkpt><trkpt lat="43.88360486576941" lon="11.041767785546662"><ele>42.0</ele><time>2026-04-26T08:40:18Z</time></trkpt><trkpt lat="43.88363523026484" lon="11.04167757023158"><ele>42.0</ele><time>2026-04-26T08:40:19Z</time></trkpt><trkpt lat="43.883670329504135" lon="11.041599529091394"><ele>42.0</ele><time>2026-04-26T08:40:20Z</time></trkpt><trkpt lat="43.88372053893179" lon="11.04153390736834"><ele>42.0</ele><time>2026-04-26T08:40:21Z</time></trkpt><trkpt lat="43.88379316392048" lon="11.04148667417966"><ele>41.8</ele><time>2026-04-26T08:40:22Z</time></trkpt><trkpt lat="43.883880992857385" lon="11.041454832636957"><ele>41.6</ele><time>2026-04-26T08:40:23Z</time></trkpt><trkpt lat="43.88398763548963" lon="11.041426985865376"><ele>41.4</ele><time>2026-04-26T08:40:24Z</time></trkpt><trkpt lat="43.88409371010567" lon="11.041389090940365"><ele>41.199999999999996</ele><time>2026-04-26T08:40:25Z</time></trkpt><trkpt lat="43.88419959435337" lon="11.041311809131201"><ele>41.0</ele><time>2026-04-26T08:40:26Z</time></trkpt><trkpt lat="43.88429579810134" lon="11.041205926736302"><ele>40.8</ele><time>2026-04-26T08:40:27Z</time></trkpt><trkpt lat="43.884368518332955" lon="11.0410816674774"><ele>40.599999999999994</ele><time>2026-04-26T08:40:28Z</time></trkpt><trkpt lat="43.88441482679766" lon="11.04094348233169"><ele>40.4</ele><time>2026-04-26T08:40:29Z</time></trkpt><trkpt lat="43.884436149420914" lon="11.040794456956364"><ele>40.2</ele><time>2026-04-26T08:40:30Z</time></trkpt><trkpt lat="43.88443444676108" lon="11.040639903281072"><ele>40.0</ele><time>2026-04-26T08:40:31Z</time></trkpt><trkpt lat="43.884409087579805" lon="11.040482276326538"><ele>40.0</ele><time>2026-04-26T08:40:32Z</time></trkpt><trkpt lat="43.88436376056608" lon="11.040347758508213"><ele>40.0</ele><time>2026-04-26T08:40:33Z</time></trkpt><trkpt lat="43.88431091895028" lon="11.040205515196904"><ele>40.0</ele><time>2026-04-26T08:40:34Z</time></trkpt><trkpt lat="43.88425589989458" lon="11.040054307583562"><ele>40.0</ele><time>2026-04-26T08:40:35Z</time></trkpt><trkpt lat="43.884213499831" lon="11.039902956864099"><ele>40.25</ele><time>2026-04-26T08:40:36Z</time></trkpt><trkpt lat="43.88418876006" lon="11.03974632455697"><ele>40.5</ele><time>2026-04-26T08:40:37Z</time></trkpt><trkpt lat="43.884187188950456" lon="11.03958261212217"><ele>40.75</ele><time>2026-04-26T08:40:38Z</time></trkpt><trkpt lat="43.884220100611294" lon="11.039396110455355"><ele>41.0</ele><time>2026-04-26T08:40:39Z</time></trkpt><trkpt lat="43.88426638752713" lon="11.039187998515951"><ele>42.0</ele><time>2026-04-26T08:40:40Z</time></trkpt><trkpt lat="43.884312701698335" lon="11.038954441988194"><ele>43.0</ele><time>2026-04-26T08:40:41Z</time></trkpt><trkpt lat="43.88436563531728" lon="11.038708687133411"><ele>44.0</ele><time>2026-04-26T08:40:42Z</time></trkpt><trkpt lat="43.88441814203895" lon="11.038451713714759"><ele>44.0</ele><time>2026-04-26T08:40:43Z</time></trkpt><trkpt lat="43.88446842603367" lon="11.038185984611786"><ele>44.0</ele><time>2026-04-26T08:40:44Z</time></trkpt><trkpt lat="43.88452022447497" lon="11.037916675318117"><ele>44.0</ele><time>2026-04-26T08:40:45Z</time></trkpt><trkpt lat="43.88458042120949" lon="11.037640061777774"><ele>44.0</ele><time>2026-04-26T08:40:46Z</time></trkpt><trkpt lat="43.884644707745416" lon="11.037362897775033"><ele>44.0</ele><time>2026-04-26T08:40:47Z</time></trkpt><trkpt lat="43.88471244749249" lon="11.037089599703526"><ele>44.0</ele><time>2026-04-26T08:40:48Z</time></trkpt><trkpt lat="43.88477521753433" lon="11.036814997428456"><ele>43.666666666666664</ele><time>2026-04-26T08:40:49Z</time></trkpt><trkpt lat="43.884834862976355" lon="11.036540171735167"><ele>43.333333333333336</ele><time>2026-04-26T08:40:50Z</time></trkpt><trkpt lat="43.88489546199213" lon="11.03626111688636"><ele>43.0</ele><time>2026-04-26T08:40:51Z</time></trkpt><trkpt lat="43.88495494582644" lon="11.035981737331012"><ele>42.66666666666667</ele><time>2026-04-26T08:40:52Z</time></trkpt><trkpt lat="43.88501904522421" lon="11.035700025285196"><ele>42.333333333333336</ele><time>2026-04-26T08:40:53Z</time></trkpt><trkpt lat="43.885083735660515" lon="11.03541160154155"><ele>42.0</ele><time>2026-04-26T08:40:54Z</time></trkpt><trkpt lat="43.88514634943136" lon="11.035122074712191"><ele>41.666666666666664</ele><time>2026-04-26T08:40:55Z</time></trkpt><trkpt lat="43.88520584602808" lon="11.034830356575128"><ele>41.33333333333333</ele><time>2026-04-26T08:40:56Z</time></trkpt><trkpt lat="43.88526687853812" lon="11.034531092738952"><ele>41.0</ele><time>2026-04-26T08:40:57Z</time></trkpt><trkpt lat="43.88533274234747" lon="11.034229293517695"><ele>41.0</ele><time>2026-04-26T08:40:58.001Z</time></trkpt><trkpt lat="43.88539540241098" lon="11.033936584056876"><ele>41.0</ele><time>2026-04-26T08:40:59.001Z</time></trkpt><trkpt lat="43.885457278195474" lon="11.03365254589673"><ele>41.0</ele><time>2026-04-26T08:41:00.001Z</time></trkpt><trkpt lat="43.885511156152404" lon="11.033381531549526"><ele>41.0</ele><time>2026-04-26T08:41:01.001Z</time></trkpt><trkpt lat="43.885569662605896" lon="11.033112388640086"><ele>41.0</ele><time>2026-04-26T08:41:02.001Z</time></trkpt><trkpt lat="43.885627075298984" lon="11.032845002723569"><ele>41.0</ele><time>2026-04-26T08:41:03.001Z</time></trkpt><trkpt lat="43.88568824247824" lon="11.032566118980627"><ele>40.0</ele><time>2026-04-26T08:41:04.001Z</time></trkpt><trkpt lat="43.88574927169169" lon="11.03228274932592"><ele>39.0</ele><time>2026-04-26T08:41:05.001Z</time></trkpt><trkpt lat="43.88581297183512" lon="11.031996210527382"><ele>38.0</ele><time>2026-04-26T08:41:06.001Z</time></trkpt><trkpt lat="43.88587396755615" lon="11.031695344297576"><ele>38.5</ele><time>2026-04-26T08:41:07.001Z</time></trkpt><trkpt lat="43.88593948279112" lon="11.0313877964919"><ele>39.0</ele><time>2026-04-26T08:41:08.001Z</time></trkpt><trkpt lat="43.886009528273426" lon="11.031077117325902"><ele>40.0</ele><time>2026-04-26T08:41:09.001Z</time></trkpt><trkpt lat="43.886078806171554" lon="11.03077090953493"><ele>41.0</ele><time>2026-04-26T08:41:10.001Z</time></trkpt><trkpt lat="43.88614924317994" lon="11.030455801660105"><ele>41.0</ele><time>2026-04-26T08:41:11.001Z</time></trkpt><trkpt lat="43.88621826702956" lon="11.030143579909794"><ele>41.0</ele><time>2026-04-26T08:41:12.001Z</time></trkpt><trkpt lat="43.88628517608474" lon="11.029835808495504"><ele>40.33333333333333</ele><time>2026-04-26T08:41:13.001Z</time></trkpt><trkpt lat="43.88635171632699" lon="11.029538974197697"><ele>39.666666666666664</ele><time>2026-04-26T08:41:14.001Z</time></trkpt><trkpt lat="43.88642322557065" lon="11.029248640216416"><ele>39.0</ele><time>2026-04-26T08:41:15.001Z</time></trkpt><trkpt lat="43.8864872917111" lon="11.028956251564692"><ele>38.666666666666664</ele><time>2026-04-26T08:41:16.001Z</time></trkpt><trkpt lat="43.886544429510195" lon="11.028662540756752"><ele>38.33333333333333</ele><time>2026-04-26T08:41:17.001Z</time></trkpt><trkpt lat="43.886611462646584" lon="11.028377701958021"><ele>38.0</ele><time>2026-04-26T08:41:18.001Z</time></trkpt><trkpt lat="43.88667728990812" lon="11.028081240599759"><ele>39.0</ele><time>2026-04-26T08:41:19.001Z</time></trkpt><trkpt lat="43.88674349761216" lon="11.027784071468334"><ele>40.0</ele><time>2026-04-26T08:41:20.001Z</time></trkpt><trkpt lat="43.886815364841276" lon="11.027487135484847"><ele>40.66666666666667</ele><time>2026-04-26T08:41:21.001Z</time></trkpt><trkpt lat="43.88689197767316" lon="11.027194324782439"><ele>41.333333333333336</ele><time>2026-04-26T08:41:22.001Z</time></trkpt><trkpt lat="43.8869825400856" lon="11.02693001403873"><ele>42.0</ele><time>2026-04-26T08:41:23.001Z</time></trkpt><trkpt lat="43.8870841490067" lon="11.026697870970686"><ele>42.666666666666664</ele><time>2026-04-26T08:41:24.001Z</time></trkpt><trkpt lat="43.88718963129658" lon="11.026471763291479"><ele>43.33333333333333</ele><time>2026-04-26T08:41:25.001Z</time></trkpt><trkpt lat="43.887298779842716" lon="11.026252807405891"><ele>44.0</ele><time>2026-04-26T08:41:26.001Z</time></trkpt><trkpt lat="43.88741407353905" lon="11.026039695371754"><ele>44.0</ele><time>2026-04-26T08:41:27.001Z</time></trkpt><trkpt lat="43.88753669768798" lon="11.025853564151273"><ele>44.0</ele><time>2026-04-26T08:41:28.001Z</time></trkpt><trkpt lat="43.88765549548803" lon="11.025654940094826"><ele>44.0</ele><time>2026-04-26T08:41:29.001Z</time></trkpt><trkpt lat="43.88777187608394" lon="11.025448592013085"><ele>42.666666666666664</ele><time>2026-04-26T08:41:30.001Z</time></trkpt><trkpt lat="43.887884628826754" lon="11.02524087601923"><ele>41.333333333333336</ele><time>2026-04-26T08:41:31.001Z</time></trkpt><trkpt lat="43.887987059635726" lon="11.025046342723986"><ele>40.0</ele><time>2026-04-26T08:41:32.001Z</time></trkpt><trkpt lat="43.88808148475762" lon="11.024848039659943"><ele>39.66666666666667</ele><time>2026-04-26T08:41:33.001Z</time></trkpt><trkpt lat="43.88817581055331" lon="11.024640272028885"><ele>39.333333333333336</ele><time>2026-04-26T08:41:34.001Z</time></trkpt><trkpt lat="43.888254468336484" lon="11.024419362293441"><ele>39.0</ele><time>2026-04-26T08:41:35.001Z</time></trkpt><trkpt lat="43.888320762373006" lon="11.024165212918838"><ele>39.0</ele><time>2026-04-26T08:41:36.001Z</time></trkpt><trkpt lat="43.88838071859977" lon="11.023904236665187"><ele>39.0</ele><time>2026-04-26T08:41:37.001Z</time></trkpt><trkpt lat="43.88842156493977" lon="11.023638422139829"><ele>39.0</ele><time>2026-04-26T08:41:38.001Z</time></trkpt><trkpt lat="43.88844937979223" lon="11.02336916178027"><ele>39.0</ele><time>2026-04-26T08:41:39.001Z</time></trkpt><trkpt lat="43.888460256416984" lon="11.023091268582528"><ele>39.0</ele><time>2026-04-26T08:41:40.001Z</time></trkpt><trkpt lat="43.88846257143056" lon="11.022832373236174"><ele>39.0</ele><time>2026-04-26T08:41:41.001Z</time></trkpt><trkpt lat="43.88845516297166" lon="11.022583351105496"><ele>39.333333333333336</ele><time>2026-04-26T08:41:42.001Z</time></trkpt><trkpt lat="43.888447538155496" lon="11.022345218338446"><ele>39.66666666666667</ele><time>2026-04-26T08:41:43.001Z</time></trkpt><trkpt lat="43.88842875260901" lon="11.022093828415558"><ele>40.0</ele><time>2026-04-26T08:41:44.001Z</time></trkpt><trkpt lat="43.88841508903025" lon="11.021833654025633"><ele>40.333333333333336</ele><time>2026-04-26T08:41:45.001Z</time></trkpt><trkpt lat="43.888406879167746" lon="11.021584309401902"><ele>40.666666666666664</ele><time>2026-04-26T08:41:46.001Z</time></trkpt><trkpt lat="43.88843462408977" lon="11.021358938692687"><ele>41.0</ele><time>2026-04-26T08:41:47.001Z</time></trkpt><trkpt lat="43.88848068956586" lon="11.021133249944365"><ele>41.0</ele><time>2026-04-26T08:41:48.001Z</time></trkpt><trkpt lat="43.888545977312795" lon="11.020907579408686"><ele>41.0</ele><time>2026-04-26T08:41:49.001Z</time></trkpt><trkpt lat="43.88864058887344" lon="11.020685659150669"><ele>41.0</ele><time>2026-04-26T08:41:50.001Z</time></trkpt><trkpt lat="43.88873884149725" lon="11.020452814096936"><ele>41.0</ele><time>2026-04-26T08:41:51.001Z</time></trkpt><trkpt lat="43.888826319228485" lon="11.020214699918155"><ele>41.0</ele><time>2026-04-26T08:41:52.001Z</time></trkpt><trkpt lat="43.88891485930951" lon="11.019973281759555"><ele>41.0</ele><time>2026-04-26T08:41:53.001Z</time></trkpt><trkpt lat="43.889007571039826" lon="11.019727470399998"><ele>41.33333333333333</ele><time>2026-04-26T08:41:54.001Z</time></trkpt><trkpt lat="43.88910806562352" lon="11.01948213893276"><ele>41.666666666666664</ele><time>2026-04-26T08:41:55.001Z</time></trkpt><trkpt lat="43.88920885637832" lon="11.019248306266336"><ele>42.0</ele><time>2026-04-26T08:41:56.001Z</time></trkpt><trkpt lat="43.88931067129988" lon="11.019024459320464"><ele>42.333333333333336</ele><time>2026-04-26T08:41:57.001Z</time></trkpt><trkpt lat="43.88940188181871" lon="11.018805036290152"><ele>42.66666666666667</ele><time>2026-04-26T08:41:58.001Z</time></trkpt><trkpt lat="43.88950053857405" lon="11.018583569644877"><ele>43.0</ele><time>2026-04-26T08:41:59.001Z</time></trkpt><trkpt lat="43.8895972817109" lon="11.018350979231487"><ele>42.66666666666667</ele><time>2026-04-26T08:42:00.001Z</time></trkpt><trkpt lat="43.88970055522999" lon="11.018119131609389"><ele>42.333333333333336</ele><time>2026-04-26T08:42:01.001Z</time></trkpt><trkpt lat="43.889807631153" lon="11.017884030526028"><ele>42.0</ele><time>2026-04-26T08:42:02.001Z</time></trkpt><trkpt lat="43.88992226944204" lon="11.017639461254753"><ele>41.666666666666664</ele><time>2026-04-26T08:42:03.001Z</time></trkpt><trkpt lat="43.890037983164135" lon="11.017390082435137"><ele>41.33333333333333</ele><time>2026-04-26T08:42:04.001Z</time></trkpt><trkpt lat="43.890155885370405" lon="11.017156847749423"><ele>41.0</ele><time>2026-04-26T08:42:05.001Z</time></trkpt><trkpt lat="43.89027239517549" lon="11.016909863183955"><ele>41.0</ele><time>2026-04-26T08:42:06.001Z</time></trkpt><trkpt lat="43.89039383116812" lon="11.016672730328375"><ele>41.0</ele><time>2026-04-26T08:42:07.001Z</time></trkpt><trkpt lat="43.890514249037885" lon="11.016444419975349"><ele>41.0</ele><time>2026-04-26T08:42:08.001Z</time></trkpt><trkpt lat="43.890655021492684" lon="11.016260913781963"><ele>40.666666666666664</ele><time>2026-04-26T08:42:09.001Z</time></trkpt><trkpt lat="43.890767332355814" lon="11.01605818253437"><ele>40.333333333333336</ele><time>2026-04-26T08:42:10.001Z</time></trkpt><trkpt lat="43.890881271407004" lon="11.015854056030069"><ele>40.0</ele><time>2026-04-26T08:42:11.001Z</time></trkpt><trkpt lat="43.89099594719014" lon="11.015649482556865"><ele>40.0</ele><time>2026-04-26T08:42:12.001Z</time></trkpt><trkpt lat="43.891112876195436" lon="11.015444215930541"><ele>40.0</ele><time>2026-04-26T08:42:13.001Z</time></trkpt><trkpt lat="43.89122415490331" lon="11.015250090247584"><ele>40.0</ele><time>2026-04-26T08:42:14.001Z</time></trkpt><trkpt lat="43.8913320258613" lon="11.015061975225182"><ele>40.5</ele><time>2026-04-26T08:42:15.001Z</time></trkpt><trkpt lat="43.891428542635474" lon="11.014893744107619"><ele>41.0</ele><time>2026-04-26T08:42:16.001Z</time></trkpt><trkpt lat="43.891512483816676" lon="11.014748494233752"><ele>41.5</ele><time>2026-04-26T08:42:17.001Z</time></trkpt><trkpt lat="43.891595000855844" lon="11.014609748195246"><ele>42.0</ele><time>2026-04-26T08:42:18.001Z</time></trkpt><trkpt lat="43.89166484208974" lon="11.014492315154088"><ele>42.0</ele><time>2026-04-26T08:42:19.001Z</time></trkpt><trkpt lat="43.891721164489105" lon="11.014397613677671"><ele>42.0</ele><time>2026-04-26T08:42:20.001Z</time></trkpt><trkpt lat="43.89177200745426" lon="11.014312128128543"><ele>42.0</ele><time>2026-04-26T08:42:21.001Z</time></trkpt><trkpt lat="43.89179476244342" lon="11.014210943786185"><ele>42.0</ele><time>2026-04-26T08:42:22.001Z</time></trkpt><trkpt lat="43.89184507955663" lon="11.014154940650105"><ele>42.0</ele><time>2026-04-26T08:42:23.001Z</time></trkpt><trkpt lat="43.89190801030679" lon="11.014112049879078"><ele>42.0</ele><time>2026-04-26T08:42:24.001Z</time></trkpt><trkpt lat="43.89197563162285" lon="11.014068750808208"><ele>41.833333333333336</ele><time>2026-04-26T08:42:25.001Z</time></trkpt><trkpt lat="43.892042815252424" lon="11.014040726496418"><ele>41.666666666666664</ele><time>2026-04-26T08:42:26.001Z</time></trkpt><trkpt lat="43.892107075817336" lon="11.014017403590909"><ele>41.5</ele><time>2026-04-26T08:42:27.001Z</time></trkpt><trkpt lat="43.8921594859386" lon="11.013943477963105"><ele>41.33333333333333</ele><time>2026-04-26T08:42:28.001Z</time></trkpt><trkpt lat="43.89217655689615" lon="11.013828194791488"><ele>41.166666666666664</ele><time>2026-04-26T08:42:29.001Z</time></trkpt><trkpt lat="43.89220321138516" lon="11.013713356418307"><ele>41.0</ele><time>2026-04-26T08:42:30.001Z</time></trkpt><trkpt lat="43.89222550178302" lon="11.013590917221817"><ele>41.0</ele><time>2026-04-26T08:42:31.001Z</time></trkpt><trkpt lat="43.892250915940174" lon="11.013466675977096"><ele>41.0</ele><time>2026-04-26T08:42:32.001Z</time></trkpt><trkpt lat="43.892297284837014" lon="11.013352315423358"><ele>41.0</ele><time>2026-04-26T08:42:33.001Z</time></trkpt><trkpt lat="43.89235906915023" lon="11.013228574843177"><ele>41.0</ele><time>2026-04-26T08:42:34.001Z</time></trkpt><trkpt lat="43.89244226806296" lon="11.013120131268208"><ele>41.0</ele><time>2026-04-26T08:42:35.001Z</time></trkpt><trkpt lat="43.892515563999446" lon="11.012992333234529"><ele>41.0</ele><time>2026-04-26T08:42:36.001Z</time></trkpt><trkpt lat="43.89259307627225" lon="11.01285718358722"><ele>41.0</ele><time>2026-04-26T08:42:37.001Z</time></trkpt><trkpt lat="43.892669933968875" lon="11.012723175324071"><ele>41.0</ele><time>2026-04-26T08:42:38.001Z</time></trkpt><trkpt lat="43.89273993118971" lon="11.012566377212943"><ele>41.0</ele><time>2026-04-26T08:42:39.001Z</time></trkpt><trkpt lat="43.89283098932518" lon="11.012437605739299"><ele>41.0</ele><time>2026-04-26T08:42:40.001Z</time></trkpt><trkpt lat="43.89291749692297" lon="11.012285930557477"><ele>41.0</ele><time>2026-04-26T08:42:41.001Z</time></trkpt><trkpt lat="43.893001272784346" lon="11.012145941325704"><ele>41.0</ele><time>2026-04-26T08:42:42.001Z</time></trkpt><trkpt lat="43.89308071591425" lon="11.01200493378403"><ele>41.0</ele><time>2026-04-26T08:42:43.001Z</time></trkpt><trkpt lat="43.89315297006833" lon="11.01187898959393"><ele>41.0</ele><time>2026-04-26T08:42:44.001Z</time></trkpt><trkpt lat="43.89323030787347" lon="11.01174596608819"><ele>41.0</ele><time>2026-04-26T08:42:45.001Z</time></trkpt><trkpt lat="43.89330802957577" lon="11.011617438901707"><ele>41.0</ele><time>2026-04-26T08:42:46.001Z</time></trkpt><trkpt lat="43.89338334924328" lon="11.011494123215174"><ele>41.0</ele><time>2026-04-26T08:42:47.001Z</time></trkpt><trkpt lat="43.89345416736848" lon="11.011363193227169"><ele>41.0</ele><time>2026-04-26T08:42:48.001Z</time></trkpt><trkpt lat="43.89352867306393" lon="11.011239078305293"><ele>41.0</ele><time>2026-04-26T08:42:49.001Z</time></trkpt><trkpt lat="43.89359398413804" lon="11.011127365776469"><ele>41.0</ele><time>2026-04-26T08:42:50.001Z</time></trkpt><trkpt lat="43.89365543902252" lon="11.011012860585954"><ele>41.0</ele><time>2026-04-26T08:42:51.001Z</time></trkpt><trkpt lat="43.89371873924962" lon="11.010898340434778"><ele>41.0</ele><time>2026-04-26T08:42:52.001Z</time></trkpt><trkpt lat="43.89378511282939" lon="11.01078073193394"><ele>41.0</ele><time>2026-04-26T08:42:53.001Z</time></trkpt><trkpt lat="43.893850074445766" lon="11.010650455801944"><ele>41.0</ele><time>2026-04-26T08:42:54.001Z</time></trkpt><trkpt lat="43.89391732351887" lon="11.010518337267916"><ele>41.0</ele><time>2026-04-26T08:42:55.001Z</time></trkpt><trkpt lat="43.89400654644619" lon="11.01039000486932"><ele>41.0</ele><time>2026-04-26T08:42:56.001Z</time></trkpt><trkpt lat="43.894079754352745" lon="11.01026287138315"><ele>41.0</ele><time>2026-04-26T08:42:57.001Z</time></trkpt><trkpt lat="43.89414951348628" lon="11.010141726980128"><ele>41.0</ele><time>2026-04-26T08:42:58.001Z</time></trkpt><trkpt lat="43.89421462404134" lon="11.01002865534697"><ele>41.0</ele><time>2026-04-26T08:42:59.001Z</time></trkpt><trkpt lat="43.89427880747921" lon="11.009917193876037"><ele>41.0</ele><time>2026-04-26T08:43:00.001Z</time></trkpt><trkpt lat="43.894342848682385" lon="11.00980597926317"><ele>41.0</ele><time>2026-04-26T08:43:01.001Z</time></trkpt><trkpt lat="43.89440455440531" lon="11.009697308340238"><ele>40.8</ele><time>2026-04-26T08:43:02.001Z</time></trkpt><trkpt lat="43.894465034487666" lon="11.009586664457315"><ele>40.599999999999994</ele><time>2026-04-26T08:43:03.001Z</time></trkpt><trkpt lat="43.894525068922505" lon="11.009478112837924"><ele>40.4</ele><time>2026-04-26T08:43:04.001Z</time></trkpt><trkpt lat="43.89457357616376" lon="11.00938221416389"><ele>40.2</ele><time>2026-04-26T08:43:05.001Z</time></trkpt><trkpt lat="43.894629594341104" lon="11.009279273660152"><ele>40.0</ele><time>2026-04-26T08:43:06.001Z</time></trkpt><trkpt lat="43.89468214075055" lon="11.009190165498335"><ele>40.16666666666667</ele><time>2026-04-26T08:43:07.001Z</time></trkpt><trkpt lat="43.89473405489238" lon="11.009098475401375"><ele>40.333333333333336</ele><time>2026-04-26T08:43:08.001Z</time></trkpt><trkpt lat="43.89478927194191" lon="11.008993397047236"><ele>40.5</ele><time>2026-04-26T08:43:09.001Z</time></trkpt><trkpt lat="43.89484149996752" lon="11.008904290271394"><ele>40.666666666666664</ele><time>2026-04-26T08:43:10.001Z</time></trkpt><trkpt lat="43.89488877735255" lon="11.008824839944632"><ele>40.83333333333333</ele><time>2026-04-26T08:43:11.001Z</time></trkpt><trkpt lat="43.89493219464691" lon="11.008749319740332"><ele>41.0</ele><time>2026-04-26T08:43:12.001Z</time></trkpt><trkpt lat="43.8949775331641" lon="11.008666163394846"><ele>41.0</ele><time>2026-04-26T08:43:13.001Z</time></trkpt><trkpt lat="43.89502185947459" lon="11.008584462860206"><ele>41.0</ele><time>2026-04-26T08:43:14.001Z</time></trkpt><trkpt lat="43.89505981970042" lon="11.008504004364388"><ele>41.0</ele><time>2026-04-26T08:43:15.001Z</time></trkpt><trkpt lat="43.895120467029756" lon="11.008377956084475"><ele>41.0</ele><time>2026-04-26T08:43:17.001Z</time></trkpt><trkpt lat="43.895160030685695" lon="11.008308416508083"><ele>41.0</ele><time>2026-04-26T08:43:19.001Z</time></trkpt><trkpt lat="43.89519557141786" lon="11.00821793944321"><ele>41.0</ele><time>2026-04-26T08:43:25.001Z</time></trkpt><trkpt lat="43.895253624087644" lon="11.008115244470872"><ele>41.4</ele><time>2026-04-26T08:43:28.001Z</time></trkpt><trkpt lat="43.89534400924983" lon="11.008060493330994"><ele>41.8</ele><time>2026-04-26T08:43:30.001Z</time></trkpt><trkpt lat="43.895449687293144" lon="11.007981548148635"><ele>42.199999999999996</ele><time>2026-04-26T08:43:32.001Z</time></trkpt><trkpt lat="43.895500581561414" lon="11.007902240615"><ele>42.599999999999994</ele><time>2026-04-26T08:43:33.001Z</time></trkpt><trkpt lat="43.895541954957174" lon="11.007808959142071"><ele>43.0</ele><time>2026-04-26T08:43:34.001Z</time></trkpt><trkpt lat="43.895581905467196" lon="11.007714833260529"><ele>43.0</ele><time>2026-04-26T08:43:35.001Z</time></trkpt><trkpt lat="43.89560946863207" lon="11.00762685821396"><ele>43.0</ele><time>2026-04-26T08:43:36.001Z</time></trkpt><trkpt lat="43.89565376319449" lon="11.007518374244109"><ele>43.0</ele><time>2026-04-26T08:43:37.001Z</time></trkpt><trkpt lat="43.895733041662936" lon="11.007411779777653"><ele>43.0</ele><time>2026-04-26T08:43:38.001Z</time></trkpt><trkpt lat="43.89582232401599" lon="11.007300383636489"><ele>43.0</ele><time>2026-04-26T08:43:39.001Z</time></trkpt><trkpt lat="43.895906946656645" lon="11.00718326984179"><ele>42.25</ele><time>2026-04-26T08:43:40.001Z</time></trkpt><trkpt lat="43.89599151981389" lon="11.007065660722768"><ele>41.5</ele><time>2026-04-26T08:43:41.001Z</time></trkpt><trkpt lat="43.8960985339063" lon="11.006958471560372"><ele>40.75</ele><time>2026-04-26T08:43:42.001Z</time></trkpt><trkpt lat="43.896197151802916" lon="11.006826981043947"><ele>40.0</ele><time>2026-04-26T08:43:43.001Z</time></trkpt><trkpt lat="43.89629826561894" lon="11.006692162584857"><ele>40.0</ele><time>2026-04-26T08:43:44.001Z</time></trkpt><trkpt lat="43.89640129671932" lon="11.006555173685433"><ele>40.0</ele><time>2026-04-26T08:43:45.001Z</time></trkpt><trkpt lat="43.896503783862194" lon="11.006419033998824"><ele>40.0</ele><time>2026-04-26T08:43:46.001Z</time></trkpt><trkpt lat="43.89660233824621" lon="11.006288118474261"><ele>40.0</ele><time>2026-04-26T08:43:47.001Z</time></trkpt><trkpt lat="43.896696718428096" lon="11.00616142343044"><ele>40.0</ele><time>2026-04-26T08:43:48.001Z</time></trkpt><trkpt lat="43.89679629643876" lon="11.006027460578418"><ele>40.0</ele><time>2026-04-26T08:43:49.001Z</time></trkpt><trkpt lat="43.89690811649063" lon="11.005876990741653"><ele>40.0</ele><time>2026-04-26T08:43:50.001Z</time></trkpt><trkpt lat="43.897030819893146" lon="11.00571136184661"><ele>40.0</ele><time>2026-04-26T08:43:51.001Z</time></trkpt><trkpt lat="43.89714906213583" lon="11.005548149599857"><ele>40.0</ele><time>2026-04-26T08:43:52.001Z</time></trkpt><trkpt lat="43.89726478926074" lon="11.005382555089904"><ele>40.0</ele><time>2026-04-26T08:43:53.001Z</time></trkpt><trkpt lat="43.89737565931223" lon="11.005218695841625"><ele>40.0</ele><time>2026-04-26T08:43:54.001Z</time></trkpt><trkpt lat="43.89748420108868" lon="11.005048294343377"><ele>40.0</ele><time>2026-04-26T08:43:55.001Z</time></trkpt><trkpt lat="43.8975747759391" lon="11.004861410327127"><ele>40.0</ele><time>2026-04-26T08:43:56.001Z</time></trkpt><trkpt lat="43.897686691275176" lon="11.004702193316252"><ele>40.5</ele><time>2026-04-26T08:43:57.001Z</time></trkpt><trkpt lat="43.89778588602333" lon="11.00452927723604"><ele>41.0</ele><time>2026-04-26T08:43:58.001Z</time></trkpt><trkpt lat="43.89787488565864" lon="11.004366831829314"><ele>41.5</ele><time>2026-04-26T08:43:59.001Z</time></trkpt><trkpt lat="43.897956202554035" lon="11.004203629807298"><ele>42.0</ele><time>2026-04-26T08:44:00.001Z</time></trkpt><trkpt lat="43.8980319525738" lon="11.004046727361818"><ele>42.0</ele><time>2026-04-26T08:44:01.001Z</time></trkpt><trkpt lat="43.898106488323876" lon="11.003881509682445"><ele>42.0</ele><time>2026-04-26T08:44:02.001Z</time></trkpt><trkpt lat="43.89818358783792" lon="11.003713195361295"><ele>42.0</ele><time>2026-04-26T08:44:03.001Z</time></trkpt><trkpt lat="43.89826177189586" lon="11.003539045453621"><ele>42.0</ele><time>2026-04-26T08:44:04.001Z</time></trkpt><trkpt lat="43.89834080442214" lon="11.00336512081937"><ele>42.0</ele><time>2026-04-26T08:44:05.001Z</time></trkpt><trkpt lat="43.89842486311756" lon="11.00318116950114"><ele>42.0</ele><time>2026-04-26T08:44:06.001Z</time></trkpt><trkpt lat="43.89850463048961" lon="11.00300688535009"><ele>42.0</ele><time>2026-04-26T08:44:07.001Z</time></trkpt><trkpt lat="43.898581599489866" lon="11.002845738015695"><ele>42.0</ele><time>2026-04-26T08:44:08.001Z</time></trkpt><trkpt lat="43.898650611189545" lon="11.002674344009433"><ele>42.0</ele><time>2026-04-26T08:44:09.001Z</time></trkpt><trkpt lat="43.898723868877184" lon="11.002518770251568"><ele>42.0</ele><time>2026-04-26T08:44:10.001Z</time></trkpt><trkpt lat="43.898800644676726" lon="11.002372086383362"><ele>42.0</ele><time>2026-04-26T08:44:11.001Z</time></trkpt><trkpt lat="43.89888089518562" lon="11.002221341609111"><ele>42.0</ele><time>2026-04-26T08:44:12.001Z</time></trkpt><trkpt lat="43.89896290080442" lon="11.002067556269516"><ele>42.0</ele><time>2026-04-26T08:44:13.001Z</time></trkpt><trkpt lat="43.89905017136281" lon="11.001913297920048"><ele>42.0</ele><time>2026-04-26T08:44:14.001Z</time></trkpt><trkpt lat="43.899140093776154" lon="11.001761748043169"><ele>42.0</ele><time>2026-04-26T08:44:15.001Z</time></trkpt><trkpt lat="43.89923120361666" lon="11.001599675410276"><ele>42.0</ele><time>2026-04-26T08:44:16.001Z</time></trkpt><trkpt lat="43.899322400555036" lon="11.00143855757957"><ele>42.25</ele><time>2026-04-26T08:44:17.001Z</time></trkpt><trkpt lat="43.89942865238237" lon="11.001298000692318"><ele>42.5</ele><time>2026-04-26T08:44:18.001Z</time></trkpt><trkpt lat="43.89951385377308" lon="11.001160101790132"><ele>42.75</ele><time>2026-04-26T08:44:19.001Z</time></trkpt><trkpt lat="43.89958959536628" lon="11.001037513655415"><ele>43.0</ele><time>2026-04-26T08:44:20.001Z</time></trkpt><trkpt lat="43.89964596967197" lon="11.000912247830607"><ele>42.75</ele><time>2026-04-26T08:44:21.001Z</time></trkpt><trkpt lat="43.89972863813623" lon="11.000823490447926"><ele>42.5</ele><time>2026-04-26T08:44:22.001Z</time></trkpt><trkpt lat="43.89980577395722" lon="11.000702402676241"><ele>42.25</ele><time>2026-04-26T08:44:23.001Z</time></trkpt><trkpt lat="43.89988497316352" lon="11.000580698796231"><ele>42.0</ele><time>2026-04-26T08:44:24.001Z</time></trkpt><trkpt lat="43.89995801123186" lon="11.00046243027877"><ele>42.0</ele><time>2026-04-26T08:44:25.001Z</time></trkpt><trkpt lat="43.90001861954134" lon="11.000369787719267"><ele>42.0</ele><time>2026-04-26T08:44:26.001Z</time></trkpt><trkpt lat="43.900072919926316" lon="11.000275625025331"><ele>42.0</ele><time>2026-04-26T08:44:27.001Z</time></trkpt><trkpt lat="43.90011533662423" lon="11.000205986790458"><ele>42.0</ele><time>2026-04-26T08:44:28.001Z</time></trkpt><trkpt lat="43.90017946271232" lon="11.000124560853553"><ele>42.0</ele><time>2026-04-26T08:44:30.001Z</time></trkpt><trkpt lat="43.900246541904366" lon="11.000052356997774"><ele>42.0</ele><time>2026-04-26T08:44:33.001Z</time></trkpt><trkpt lat="43.900354506134406" lon="10.99997534937239"><ele>42.400000000000006</ele><time>2026-04-26T08:44:35.001Z</time></trkpt><trkpt lat="43.90042189750756" lon="10.999933029469533"><ele>42.800000000000004</ele><time>2026-04-26T08:44:36.001Z</time></trkpt><trkpt lat="43.90047735194938" lon="10.999844285594152"><ele>43.2</ele><time>2026-04-26T08:44:37.001Z</time></trkpt><trkpt lat="43.90051007330319" lon="10.999735843642066"><ele>43.6</ele><time>2026-04-26T08:44:38.001Z</time></trkpt><trkpt lat="43.90053009424922" lon="10.999602985885362"><ele>44.0</ele><time>2026-04-26T08:44:39.001Z</time></trkpt><trkpt lat="43.90056698019619" lon="10.999458508115616"><ele>44.0</ele><time>2026-04-26T08:44:40.001Z</time></trkpt><trkpt lat="43.90062801069996" lon="10.999325211575714"><ele>44.0</ele><time>2026-04-26T08:44:41.001Z</time></trkpt><trkpt lat="43.900701973356625" lon="10.999197584175691"><ele>44.0</ele><time>2026-04-26T08:44:42.001Z</time></trkpt><trkpt lat="43.900784017262275" lon="10.999048071986202"><ele>44.0</ele><time>2026-04-26T08:44:43.001Z</time></trkpt><trkpt lat="43.90087391141251" lon="10.998901881690745"><ele>43.75</ele><time>2026-04-26T08:44:44.001Z</time></trkpt><trkpt lat="43.90097677588402" lon="10.998773656730434"><ele>43.5</ele><time>2026-04-26T08:44:45.001Z</time></trkpt><trkpt lat="43.90106254642096" lon="10.998635681218055"><ele>43.25</ele><time>2026-04-26T08:44:46.001Z</time></trkpt><trkpt lat="43.90113271404531" lon="10.998488613452986"><ele>43.0</ele><time>2026-04-26T08:44:47.001Z</time></trkpt><trkpt lat="43.901227128652685" lon="10.998383473798686"><ele>43.0</ele><time>2026-04-26T08:44:48.001Z</time></trkpt><trkpt lat="43.901301790545936" lon="10.99826536963193"><ele>43.0</ele><time>2026-04-26T08:44:49.001Z</time></trkpt><trkpt lat="43.901370601789104" lon="10.998155673149046"><ele>43.0</ele><time>2026-04-26T08:44:50.001Z</time></trkpt><trkpt lat="43.90144758356739" lon="10.998030332513686"><ele>43.0</ele><time>2026-04-26T08:44:51.001Z</time></trkpt><trkpt lat="43.901528824949104" lon="10.997890644436428"><ele>43.0</ele><time>2026-04-26T08:44:52.001Z</time></trkpt><trkpt lat="43.901614949841125" lon="10.997757296685023"><ele>43.0</ele><time>2026-04-26T08:44:53.001Z</time></trkpt><trkpt lat="43.90170002454219" lon="10.997623010706217"><ele>43.0</ele><time>2026-04-26T08:44:54.001Z</time></trkpt><trkpt lat="43.901789028775056" lon="10.997487242789713"><ele>43.0</ele><time>2026-04-26T08:44:55.001Z</time></trkpt><trkpt lat="43.9018817581054" lon="10.997353989414655"><ele>43.0</ele><time>2026-04-26T08:44:56.001Z</time></trkpt><trkpt lat="43.9019678390452" lon="10.997234023695645"><ele>43.0</ele><time>2026-04-26T08:44:57.001Z</time></trkpt><trkpt lat="43.90205697655794" lon="10.997118127917252"><ele>43.0</ele><time>2026-04-26T08:44:58.001Z</time></trkpt><trkpt lat="43.90213873482572" lon="10.997014252952567"><ele>43.0</ele><time>2026-04-26T08:44:59.001Z</time></trkpt><trkpt lat="43.90221595395024" lon="10.99692146941523"><ele>43.0</ele><time>2026-04-26T08:45:00.001Z</time></trkpt><trkpt lat="43.90228703595126" lon="10.99682995487452"><ele>43.0</ele><time>2026-04-26T08:45:01.001Z</time></trkpt><trkpt lat="43.90235825632306" lon="10.99674530191039"><ele>43.0</ele><time>2026-04-26T08:45:02.001Z</time></trkpt><trkpt lat="43.90243464094305" lon="10.996659974995888"><ele>43.0</ele><time>2026-04-26T08:45:03.001Z</time></trkpt><trkpt lat="43.90251314720282" lon="10.996573449924663"><ele>43.0</ele><time>2026-04-26T08:45:04.001Z</time></trkpt><trkpt lat="43.90260169539828" lon="10.996478632593703"><ele>42.8</ele><time>2026-04-26T08:45:05.001Z</time></trkpt><trkpt lat="43.90268305546078" lon="10.996387140898051"><ele>42.599999999999994</ele><time>2026-04-26T08:45:06.001Z</time></trkpt><trkpt lat="43.90276490604538" lon="10.996297644026518"><ele>42.400000000000006</ele><time>2026-04-26T08:45:07.001Z</time></trkpt><trkpt lat="43.90283523638077" lon="10.996222565083146"><ele>42.2</ele><time>2026-04-26T08:45:08.001Z</time></trkpt><trkpt lat="43.90290241559502" lon="10.996153633156139"><ele>42.0</ele><time>2026-04-26T08:45:09.001Z</time></trkpt><trkpt lat="43.90297140026639" lon="10.996071080259549"><ele>42.0</ele><time>2026-04-26T08:45:10.001Z</time></trkpt><trkpt lat="43.90303401559103" lon="10.99599087481157"><ele>42.0</ele><time>2026-04-26T08:45:11.001Z</time></trkpt><trkpt lat="43.90308471184494" lon="10.995933822830992"><ele>42.0</ele><time>2026-04-26T08:45:12.001Z</time></trkpt><trkpt lat="43.90315553703489" lon="10.995841824226355"><ele>42.0</ele><time>2026-04-26T08:45:14.001Z</time></trkpt><trkpt lat="43.90327494099689" lon="10.995814427188446"><ele>42.0</ele><time>2026-04-26T08:45:16.001Z</time></trkpt><trkpt lat="43.903344795011606" lon="10.995823303584876"><ele>42.0</ele><time>2026-04-26T08:45:17.001Z</time></trkpt><trkpt lat="43.90342605210447" lon="10.995808297967647"><ele>41.833333333333336</ele><time>2026-04-26T08:45:18.001Z</time></trkpt><trkpt lat="43.90350592038545" lon="10.995763798733774"><ele>41.666666666666664</ele><time>2026-04-26T08:45:19.001Z</time></trkpt><trkpt lat="43.90356333289378" lon="10.995678218925367"><ele>41.5</ele><time>2026-04-26T08:45:20.001Z</time></trkpt><trkpt lat="43.90360624300648" lon="10.995570682697672"><ele>41.33333333333333</ele><time>2026-04-26T08:45:21.001Z</time></trkpt><trkpt lat="43.903649461752124" lon="10.995463147933012"><ele>41.166666666666664</ele><time>2026-04-26T08:45:22.001Z</time></trkpt><trkpt lat="43.9037055755957" lon="10.995373033189253"><ele>41.0</ele><time>2026-04-26T08:45:23.001Z</time></trkpt><trkpt lat="43.90379210155699" lon="10.99530282034907"><ele>41.0</ele><time>2026-04-26T08:45:24.001Z</time></trkpt><trkpt lat="43.90390709923589" lon="10.99523810899242"><ele>41.0</ele><time>2026-04-26T08:45:25.001Z</time></trkpt><trkpt lat="43.90401452702404" lon="10.995185076701386"><ele>41.0</ele><time>2026-04-26T08:45:26.001Z</time></trkpt><trkpt lat="43.90412116564748" lon="10.995119442354135"><ele>41.0</ele><time>2026-04-26T08:45:27.001Z</time></trkpt><trkpt lat="43.904226340959525" lon="10.995053603804289"><ele>41.5</ele><time>2026-04-26T08:45:28.001Z</time></trkpt><trkpt lat="43.90432480286812" lon="10.99498683910069"><ele>42.0</ele><time>2026-04-26T08:45:29.001Z</time></trkpt><trkpt lat="43.904441630911975" lon="10.994957342369824"><ele>42.5</ele><time>2026-04-26T08:45:30.001Z</time></trkpt><trkpt lat="43.90455972779166" lon="10.994884891542105"><ele>43.0</ele><time>2026-04-26T08:45:31.001Z</time></trkpt><trkpt lat="43.904687178861145" lon="10.994806934733017"><ele>43.0</ele><time>2026-04-26T08:45:32.001Z</time></trkpt><trkpt lat="43.90481543494058" lon="10.994731086249413"><ele>43.0</ele><time>2026-04-26T08:45:33.001Z</time></trkpt><trkpt lat="43.9049393938136" lon="10.994648654372355"><ele>43.0</ele><time>2026-04-26T08:45:34.001Z</time></trkpt><trkpt lat="43.90505263726689" lon="10.994578660372062"><ele>43.0</ele><time>2026-04-26T08:45:35.001Z</time></trkpt><trkpt lat="43.90517354927562" lon="10.994497742275081"><ele>42.75</ele><time>2026-04-26T08:45:36.001Z</time></trkpt><trkpt lat="43.90530315738508" lon="10.994418749910926"><ele>42.5</ele><time>2026-04-26T08:45:37.001Z</time></trkpt><trkpt lat="43.905430145104155" lon="10.994336974543312"><ele>42.25</ele><time>2026-04-26T08:45:38.001Z</time></trkpt><trkpt lat="43.905553763847436" lon="10.994251439109423"><ele>42.0</ele><time>2026-04-26T08:45:39.001Z</time></trkpt><trkpt lat="43.905669936497844" lon="10.994177036801727"><ele>42.25</ele><time>2026-04-26T08:45:40.001Z</time></trkpt><trkpt lat="43.9057889908809" lon="10.994099341047768"><ele>42.5</ele><time>2026-04-26T08:45:41.001Z</time></trkpt><trkpt lat="43.9059088287213" lon="10.994018464403696"><ele>42.75</ele><time>2026-04-26T08:45:42.001Z</time></trkpt><trkpt lat="43.90603010366286" lon="10.993941175643085"><ele>43.0</ele><time>2026-04-26T08:45:43.001Z</time></trkpt><trkpt lat="43.90615241617782" lon="10.993860075143497"><ele>43.0</ele><time>2026-04-26T08:45:44.001Z</time></trkpt><trkpt lat="43.90627129792963" lon="10.993777292955007"><ele>43.0</ele><time>2026-04-26T08:45:45.001Z</time></trkpt><trkpt lat="43.906404405797154" lon="10.993680649997824"><ele>43.0</ele><time>2026-04-26T08:45:46.001Z</time></trkpt><trkpt lat="43.906546652660325" lon="10.993579674247615"><ele>43.0</ele><time>2026-04-26T08:45:47.001Z</time></trkpt><trkpt lat="43.90669149758596" lon="10.993475210198582"><ele>42.66666666666667</ele><time>2026-04-26T08:45:48.001Z</time></trkpt><trkpt lat="43.90683812300491" lon="10.993384897212056"><ele>42.333333333333336</ele><time>2026-04-26T08:45:49.001Z</time></trkpt><trkpt lat="43.90697609351721" lon="10.99329863643385"><ele>42.0</ele><time>2026-04-26T08:45:50.001Z</time></trkpt><trkpt lat="43.90710375535607" lon="10.993220218623557"><ele>42.0</ele><time>2026-04-26T08:45:51.001Z</time></trkpt><trkpt lat="43.90723266126494" lon="10.993174300750153"><ele>42.0</ele><time>2026-04-26T08:45:52.001Z</time></trkpt><trkpt lat="43.90734445087694" lon="10.993104586404685"><ele>42.0</ele><time>2026-04-26T08:45:53.001Z</time></trkpt><trkpt lat="43.907458138688455" lon="10.993033688373425"><ele>42.0</ele><time>2026-04-26T08:45:54.001Z</time></trkpt><trkpt lat="43.90757231797183" lon="10.992962483857688"><ele>42.0</ele><time>2026-04-26T08:45:55.001Z</time></trkpt><trkpt lat="43.907688084567106" lon="10.992890289450909"><ele>42.0</ele><time>2026-04-26T08:45:56.001Z</time></trkpt><trkpt lat="43.90779999647651" lon="10.992820188281643"><ele>42.0</ele><time>2026-04-26T08:45:57.001Z</time></trkpt><trkpt lat="43.90790146366424" lon="10.992756563996974"><ele>42.0</ele><time>2026-04-26T08:45:58.001Z</time></trkpt><trkpt lat="43.907996426478384" lon="10.992697018150249"><ele>42.0</ele><time>2026-04-26T08:45:59.001Z</time></trkpt><trkpt lat="43.90809453537687" lon="10.992635499527847"><ele>42.0</ele><time>2026-04-26T08:46:00.001Z</time></trkpt><trkpt lat="43.908194068833076" lon="10.992573087691797"><ele>42.0</ele><time>2026-04-26T08:46:01.001Z</time></trkpt><trkpt lat="43.90828439505876" lon="10.992516587639935"><ele>42.0</ele><time>2026-04-26T08:46:02.001Z</time></trkpt><trkpt lat="43.90835460620913" lon="10.99245406238342"><ele>42.0</ele><time>2026-04-26T08:46:03.001Z</time></trkpt><trkpt lat="43.90841982006508" lon="10.992425154398878"><ele>42.0</ele><time>2026-04-26T08:46:04.001Z</time></trkpt><trkpt lat="43.90848390050739" lon="10.992412042413807"><ele>42.0</ele><time>2026-04-26T08:46:05.001Z</time></trkpt><trkpt lat="43.90858464877618" lon="10.99241983150858"><ele>42.0</ele><time>2026-04-26T08:46:07.001Z</time></trkpt><trkpt lat="43.9086627884258" lon="10.99243394200725"><ele>42.0</ele><time>2026-04-26T08:46:08.001Z</time></trkpt><trkpt lat="43.90874618664221" lon="10.99247466615869"><ele>42.0</ele><time>2026-04-26T08:46:09.001Z</time></trkpt><trkpt lat="43.908847285915556" lon="10.992521752931752"><ele>42.0</ele><time>2026-04-26T08:46:10.001Z</time></trkpt><trkpt lat="43.908957614891065" lon="10.992553543557175"><ele>41.75</ele><time>2026-04-26T08:46:11.001Z</time></trkpt><trkpt lat="43.909066967781996" lon="10.992554523910103"><ele>41.5</ele><time>2026-04-26T08:46:12.001Z</time></trkpt><trkpt lat="43.909180299594375" lon="10.992528473412877"><ele>41.25</ele><time>2026-04-26T08:46:13.001Z</time></trkpt><trkpt lat="43.90928502880544" lon="10.992443085843375"><ele>41.0</ele><time>2026-04-26T08:46:14.001Z</time></trkpt><trkpt lat="43.909362188822264" lon="10.992306823912301"><ele>41.5</ele><time>2026-04-26T08:46:15.001Z</time></trkpt><trkpt lat="43.90943891126193" lon="10.992140974125373"><ele>42.0</ele><time>2026-04-26T08:46:16.001Z</time></trkpt><trkpt lat="43.90948998998547" lon="10.991962675240655"><ele>42.5</ele><time>2026-04-26T08:46:17.001Z</time></trkpt><trkpt lat="43.909544798954784" lon="10.991803908890228"><ele>43.0</ele><time>2026-04-26T08:46:18.001Z</time></trkpt><trkpt lat="43.90963869208913" lon="10.991676559807702"><ele>43.0</ele><time>2026-04-26T08:46:19.001Z</time></trkpt><trkpt lat="43.909763936672846" lon="10.991575202778163"><ele>43.0</ele><time>2026-04-26T08:46:20.001Z</time></trkpt><trkpt lat="43.909904610150996" lon="10.991486168620447"><ele>43.0</ele><time>2026-04-26T08:46:21.001Z</time></trkpt><trkpt lat="43.91005677686946" lon="10.99139195360906"><ele>43.66666666666667</ele><time>2026-04-26T08:46:22.001Z</time></trkpt><trkpt lat="43.91021621050017" lon="10.991285952870605"><ele>44.333333333333336</ele><time>2026-04-26T08:46:23.001Z</time></trkpt><trkpt lat="43.91038273282536" lon="10.991175493839249"><ele>45.0</ele><time>2026-04-26T08:46:24.001Z</time></trkpt><trkpt lat="43.910548370639724" lon="10.991067441740986"><ele>45.0</ele><time>2026-04-26T08:46:25.001Z</time></trkpt><trkpt lat="43.910715716992506" lon="10.990966347356519"><ele>45.0</ele><time>2026-04-26T08:46:26.001Z</time></trkpt><trkpt lat="43.910886854129416" lon="10.990863328019163"><ele>45.0</ele><time>2026-04-26T08:46:27.001Z</time></trkpt><trkpt lat="43.91105865799873" lon="10.990748820429436"><ele>44.666666666666664</ele><time>2026-04-26T08:46:28.001Z</time></trkpt><trkpt lat="43.91123593569891" lon="10.990645757728647"><ele>44.33333333333333</ele><time>2026-04-26T08:46:29.001Z</time></trkpt><trkpt lat="43.911404425411334" lon="10.990541249963234"><ele>44.0</ele><time>2026-04-26T08:46:30.001Z</time></trkpt><trkpt lat="43.91158045593842" lon="10.990427903578333"><ele>44.33333333333333</ele><time>2026-04-26T08:46:31.001Z</time></trkpt><trkpt lat="43.91175325803892" lon="10.990322563166515"><ele>44.666666666666664</ele><time>2026-04-26T08:46:32.001Z</time></trkpt><trkpt lat="43.91193014543536" lon="10.990215514861903"><ele>45.0</ele><time>2026-04-26T08:46:33.001Z</time></trkpt><trkpt lat="43.912098167568956" lon="10.9901074689125"><ele>45.333333333333336</ele><time>2026-04-26T08:46:34.001Z</time></trkpt><trkpt lat="43.91226110325079" lon="10.990000109980901"><ele>45.66666666666667</ele><time>2026-04-26T08:46:35.001Z</time></trkpt><trkpt lat="43.91241971373546" lon="10.98989536908312"><ele>46.0</ele><time>2026-04-26T08:46:36.001Z</time></trkpt><trkpt lat="43.91259092145534" lon="10.989839335580331"><ele>45.333333333333336</ele><time>2026-04-26T08:46:37.001Z</time></trkpt><trkpt lat="43.91275021851214" lon="10.989720250108792"><ele>44.666666666666664</ele><time>2026-04-26T08:46:38.001Z</time></trkpt><trkpt lat="43.912898514047306" lon="10.98959985185152"><ele>44.0</ele><time>2026-04-26T08:46:39.001Z</time></trkpt><trkpt lat="43.91303819258178" lon="10.989473734942944"><ele>44.0</ele><time>2026-04-26T08:46:40.001Z</time></trkpt><trkpt lat="43.91317910371814" lon="10.989337825306299"><ele>44.0</ele><time>2026-04-26T08:46:41.001Z</time></trkpt><trkpt lat="43.91331265018489" lon="10.989197597411382"><ele>44.0</ele><time>2026-04-26T08:46:42.001Z</time></trkpt><trkpt lat="43.91344136811814" lon="10.989051182455086"><ele>44.0</ele><time>2026-04-26T08:46:43.001Z</time></trkpt><trkpt lat="43.913572929449245" lon="10.988899720032233"><ele>44.0</ele><time>2026-04-26T08:46:44.001Z</time></trkpt><trkpt lat="43.91370771991413" lon="10.988737763497115"><ele>44.0</ele><time>2026-04-26T08:46:45.001Z</time></trkpt><trkpt lat="43.91384001425234" lon="10.988565714457247"><ele>44.0</ele><time>2026-04-26T08:46:46.001Z</time></trkpt><trkpt lat="43.91397271000843" lon="10.988381914814218"><ele>44.0</ele><time>2026-04-26T08:46:47.001Z</time></trkpt><trkpt lat="43.91410056752571" lon="10.988194970375995"><ele>44.0</ele><time>2026-04-26T08:46:48.001Z</time></trkpt><trkpt lat="43.9142224753308" lon="10.988000754854884"><ele>44.0</ele><time>2026-04-26T08:46:49.001Z</time></trkpt><trkpt lat="43.91434282263179" lon="10.987802999018076"><ele>44.0</ele><time>2026-04-26T08:46:50.001Z</time></trkpt><trkpt lat="43.91445960370652" lon="10.987603409104779"><ele>44.0</ele><time>2026-04-26T08:46:51.001Z</time></trkpt><trkpt lat="43.91457150918262" lon="10.987393379787678"><ele>44.0</ele><time>2026-04-26T08:46:52.001Z</time></trkpt><trkpt lat="43.91468193092687" lon="10.98718033306866"><ele>44.0</ele><time>2026-04-26T08:46:53.001Z</time></trkpt><trkpt lat="43.91478746287118" lon="10.986963559802996"><ele>44.0</ele><time>2026-04-26T08:46:54.001Z</time></trkpt><trkpt lat="43.91488660958803" lon="10.986735694169779"><ele>44.0</ele><time>2026-04-26T08:46:55.001Z</time></trkpt><trkpt lat="43.91498210154904" lon="10.986502467268506"><ele>44.0</ele><time>2026-04-26T08:46:56.001Z</time></trkpt><trkpt lat="43.915075574747995" lon="10.986259703916282"><ele>44.0</ele><time>2026-04-26T08:46:57.001Z</time></trkpt><trkpt lat="43.91516376460966" lon="10.986021652232063"><ele>44.0</ele><time>2026-04-26T08:46:58.001Z</time></trkpt><trkpt lat="43.91524437095943" lon="10.9857674760649"><ele>44.0</ele><time>2026-04-26T08:46:59.001Z</time></trkpt><trkpt lat="43.91531766380789" lon="10.985510489620415"><ele>44.0</ele><time>2026-04-26T08:47:00.001Z</time></trkpt><trkpt lat="43.91538507250569" lon="10.985252029398595"><ele>44.33333333333333</ele><time>2026-04-26T08:47:01.001Z</time></trkpt><trkpt lat="43.91544434578856" lon="10.984989533609257"><ele>44.666666666666664</ele><time>2026-04-26T08:47:02.001Z</time></trkpt><trkpt lat="43.91549400787771" lon="10.984723071332308"><ele>45.0</ele><time>2026-04-26T08:47:03.001Z</time></trkpt><trkpt lat="43.91554306335433" lon="10.984459678085072"><ele>45.0</ele><time>2026-04-26T08:47:04.001Z</time></trkpt><trkpt lat="43.91557875623669" lon="10.98419157974714"><ele>45.0</ele><time>2026-04-26T08:47:05.001Z</time></trkpt><trkpt lat="43.91560928561808" lon="10.983931367746301"><ele>45.0</ele><time>2026-04-26T08:47:06.001Z</time></trkpt><trkpt lat="43.91563472384952" lon="10.983663570156466"><ele>44.666666666666664</ele><time>2026-04-26T08:47:07.001Z</time></trkpt><trkpt lat="43.91565363583749" lon="10.98338544826687"><ele>44.33333333333333</ele><time>2026-04-26T08:47:08.001Z</time></trkpt><trkpt lat="43.91566956177076" lon="10.983108942091356"><ele>44.0</ele><time>2026-04-26T08:47:09.001Z</time></trkpt><trkpt lat="43.915683425183104" lon="10.982838307399406"><ele>44.0</ele><time>2026-04-26T08:47:10.001Z</time></trkpt><trkpt lat="43.91569441909176" lon="10.982580397498852"><ele>44.0</ele><time>2026-04-26T08:47:11.001Z</time></trkpt><trkpt lat="43.915713513774435" lon="10.982337964417042"><ele>44.0</ele><time>2026-04-26T08:47:12.001Z</time></trkpt><trkpt lat="43.9157298627741" lon="10.982103238989438"><ele>43.666666666666664</ele><time>2026-04-26T08:47:13.001Z</time></trkpt><trkpt lat="43.91574395213802" lon="10.98186178786103"><ele>43.333333333333336</ele><time>2026-04-26T08:47:14.001Z</time></trkpt><trkpt lat="43.915757672892845" lon="10.981611806024258"><ele>43.0</ele><time>2026-04-26T08:47:15.001Z</time></trkpt><trkpt lat="43.91577147244867" lon="10.981359451164"><ele>43.0</ele><time>2026-04-26T08:47:16.001Z</time></trkpt><trkpt lat="43.91578033587114" lon="10.981098207259027"><ele>43.0</ele><time>2026-04-26T08:47:17.001Z</time></trkpt><trkpt lat="43.91579475405223" lon="10.980836962696644"><ele>43.0</ele><time>2026-04-26T08:47:18.001Z</time></trkpt><trkpt lat="43.915810385970346" lon="10.980576944055155"><ele>43.0</ele><time>2026-04-26T08:47:19.001Z</time></trkpt><trkpt lat="43.91582011324025" lon="10.980305867662041"><ele>43.0</ele><time>2026-04-26T08:47:20.001Z</time></trkpt><trkpt lat="43.91587026221834" lon="10.980058198427816"><ele>43.0</ele><time>2026-04-26T08:47:21.001Z</time></trkpt><trkpt lat="43.915887197818144" lon="10.979778388830606"><ele>43.0</ele><time>2026-04-26T08:47:22.001Z</time></trkpt><trkpt lat="43.915904528121274" lon="10.979488123486462"><ele>43.0</ele><time>2026-04-26T08:47:23.001Z</time></trkpt><trkpt lat="43.91592095292186" lon="10.97919971436626"><ele>43.0</ele><time>2026-04-26T08:47:24.001Z</time></trkpt><trkpt lat="43.915938817372435" lon="10.978919054159695"><ele>43.0</ele><time>2026-04-26T08:47:25.001Z</time></trkpt><trkpt lat="43.91595329578604" lon="10.978638694119153"><ele>43.0</ele><time>2026-04-26T08:47:26.001Z</time></trkpt><trkpt lat="43.91597164123448" lon="10.978371895111865"><ele>43.0</ele><time>2026-04-26T08:47:27.001Z</time></trkpt><trkpt lat="43.9159869185646" lon="10.978113734223765"><ele>43.333333333333336</ele><time>2026-04-26T08:47:28.001Z</time></trkpt><trkpt lat="43.91600051256746" lon="10.977851835701127"><ele>43.666666666666664</ele><time>2026-04-26T08:47:29.001Z</time></trkpt><trkpt lat="43.91601135751314" lon="10.977590204058144"><ele>44.0</ele><time>2026-04-26T08:47:30.001Z</time></trkpt><trkpt lat="43.91602159206843" lon="10.97732883322147"><ele>44.0</ele><time>2026-04-26T08:47:31.001Z</time></trkpt><trkpt lat="43.916031047264774" lon="10.97706850933192"><ele>44.0</ele><time>2026-04-26T08:47:32.001Z</time></trkpt><trkpt lat="43.91604701957991" lon="10.976814363965929"><ele>44.0</ele><time>2026-04-26T08:47:33.001Z</time></trkpt><trkpt lat="43.91606534884668" lon="10.976559102847977"><ele>44.0</ele><time>2026-04-26T08:47:34.001Z</time></trkpt><trkpt lat="43.91608551613718" lon="10.976308295256466"><ele>44.0</ele><time>2026-04-26T08:47:35.001Z</time></trkpt><trkpt lat="43.91609874950964" lon="10.97605094106082"><ele>44.0</ele><time>2026-04-26T08:47:36.001Z</time></trkpt><trkpt lat="43.91611718517064" lon="10.975796054184581"><ele>44.0</ele><time>2026-04-26T08:47:37.001Z</time></trkpt><trkpt lat="43.91613605264943" lon="10.97555408195714"><ele>44.0</ele><time>2026-04-26T08:47:38.001Z</time></trkpt><trkpt lat="43.91615199650541" lon="10.975317248124263"><ele>44.0</ele><time>2026-04-26T08:47:39.001Z</time></trkpt><trkpt lat="43.91616304795972" lon="10.975089035911662"><ele>43.666666666666664</ele><time>2026-04-26T08:47:40.001Z</time></trkpt><trkpt lat="43.916172583293196" lon="10.974855268442345"><ele>43.333333333333336</ele><time>2026-04-26T08:47:41.001Z</time></trkpt><trkpt lat="43.916184305137364" lon="10.974631026796942"><ele>43.0</ele><time>2026-04-26T08:47:42.001Z</time></trkpt><trkpt lat="43.916194733936294" lon="10.974416889261802"><ele>43.0</ele><time>2026-04-26T08:47:43.001Z</time></trkpt><trkpt lat="43.91620751647621" lon="10.974222513958145"><ele>43.0</ele><time>2026-04-26T08:47:44.001Z</time></trkpt><trkpt lat="43.916219772239515" lon="10.974030116872514"><ele>43.0</ele><time>2026-04-26T08:47:45.001Z</time></trkpt><trkpt lat="43.916231866512334" lon="10.973853399840538"><ele>43.0</ele><time>2026-04-26T08:47:46.001Z</time></trkpt><trkpt lat="43.91623834880792" lon="10.973682144551631"><ele>43.0</ele><time>2026-04-26T08:47:47.001Z</time></trkpt><trkpt lat="43.91624830381564" lon="10.97352688593741"><ele>43.0</ele><time>2026-04-26T08:47:48.001Z</time></trkpt><trkpt lat="43.916257017266254" lon="10.97337107525766"><ele>43.0</ele><time>2026-04-26T08:47:49.001Z</time></trkpt><trkpt lat="43.91626120010506" lon="10.973210354200317"><ele>43.0</ele><time>2026-04-26T08:47:50.001Z</time></trkpt><trkpt lat="43.91627444468847" lon="10.973052655813722"><ele>43.5</ele><time>2026-04-26T08:47:51.001Z</time></trkpt><trkpt lat="43.91628441259025" lon="10.972891813890467"><ele>44.0</ele><time>2026-04-26T08:47:52.001Z</time></trkpt><trkpt lat="43.91629242774351" lon="10.972713950636074"><ele>44.5</ele><time>2026-04-26T08:47:53.001Z</time></trkpt><trkpt lat="43.91630362238826" lon="10.972518101785026"><ele>45.0</ele><time>2026-04-26T08:47:54.001Z</time></trkpt><trkpt lat="43.91631224959893" lon="10.972306932137274"><ele>45.0</ele><time>2026-04-26T08:47:55.001Z</time></trkpt><trkpt lat="43.91632491650848" lon="10.972086168483354"><ele>45.0</ele><time>2026-04-26T08:47:56.001Z</time></trkpt><trkpt lat="43.916342573716946" lon="10.971860198112163"><ele>45.0</ele><time>2026-04-26T08:47:57.001Z</time></trkpt><trkpt lat="43.916359392568395" lon="10.971634064704723"><ele>45.0</ele><time>2026-04-26T08:47:58.001Z</time></trkpt><trkpt lat="43.916374431833425" lon="10.971403614746846"><ele>45.0</ele><time>2026-04-26T08:47:59.001Z</time></trkpt><trkpt lat="43.916390511832724" lon="10.971177154850176"><ele>45.0</ele><time>2026-04-26T08:48:00.001Z</time></trkpt><trkpt lat="43.916401196638596" lon="10.970951739568765"><ele>44.333333333333336</ele><time>2026-04-26T08:48:01.001Z</time></trkpt><trkpt lat="43.91641273509111" lon="10.970716134721695"><ele>43.66666666666667</ele><time>2026-04-26T08:48:02.001Z</time></trkpt><trkpt lat="43.91646265103405" lon="10.970501073180788"><ele>43.0</ele><time>2026-04-26T08:48:03.001Z</time></trkpt><trkpt lat="43.916475171852326" lon="10.97026774099303"><ele>43.0</ele><time>2026-04-26T08:48:04.001Z</time></trkpt><trkpt lat="43.916492985808695" lon="10.970048251650136"><ele>43.0</ele><time>2026-04-26T08:48:05.001Z</time></trkpt><trkpt lat="43.91650244163043" lon="10.969833270839088"><ele>43.0</ele><time>2026-04-26T08:48:06.001Z</time></trkpt><trkpt lat="43.91650966685302" lon="10.969620345580257"><ele>43.0</ele><time>2026-04-26T08:48:07.001Z</time></trkpt><trkpt lat="43.916517282232604" lon="10.969432020384788"><ele>43.0</ele><time>2026-04-26T08:48:08.001Z</time></trkpt><trkpt lat="43.91652638814573" lon="10.969254529646078"><ele>43.0</ele><time>2026-04-26T08:48:09.001Z</time></trkpt><trkpt lat="43.9165321495058" lon="10.969074964823495"><ele>43.0</ele><time>2026-04-26T08:48:10.001Z</time></trkpt><trkpt lat="43.91654190000174" lon="10.968903532101983"><ele>43.25</ele><time>2026-04-26T08:48:11.001Z</time></trkpt><trkpt lat="43.916550019455485" lon="10.968727553995079"><ele>43.5</ele><time>2026-04-26T08:48:12.001Z</time></trkpt><trkpt lat="43.91655936755244" lon="10.968552243221163"><ele>43.75</ele><time>2026-04-26T08:48:13.001Z</time></trkpt><trkpt lat="43.9165693702891" lon="10.968374317296277"><ele>44.0</ele><time>2026-04-26T08:48:14.001Z</time></trkpt><trkpt lat="43.91658128217051" lon="10.968197734437936"><ele>44.0</ele><time>2026-04-26T08:48:15.001Z</time></trkpt><trkpt lat="43.916590706176386" lon="10.968024744161346"><ele>44.0</ele><time>2026-04-26T08:48:16.001Z</time></trkpt><trkpt lat="43.91659876615557" lon="10.967848359439374"><ele>44.0</ele><time>2026-04-26T08:48:17.001Z</time></trkpt><trkpt lat="43.91660781484578" lon="10.967664910255968"><ele>44.0</ele><time>2026-04-26T08:48:18.001Z</time></trkpt><trkpt lat="43.916617749724224" lon="10.967476976428099"><ele>44.0</ele><time>2026-04-26T08:48:19.001Z</time></trkpt><trkpt lat="43.916627504399266" lon="10.967285526144334"><ele>44.0</ele><time>2026-04-26T08:48:20.001Z</time></trkpt><trkpt lat="43.91664068497411" lon="10.967083820611338"><ele>44.0</ele><time>2026-04-26T08:48:21.001Z</time></trkpt><trkpt lat="43.91665175865264" lon="10.966892428299564"><ele>44.0</ele><time>2026-04-26T08:48:22.001Z</time></trkpt><trkpt lat="43.91666074080931" lon="10.966709541152683"><ele>43.75</ele><time>2026-04-26T08:48:23.001Z</time></trkpt><trkpt lat="43.91667080169899" lon="10.966545628619395"><ele>43.5</ele><time>2026-04-26T08:48:24.001Z</time></trkpt><trkpt lat="43.916684793106675" lon="10.966377875266778"><ele>43.25</ele><time>2026-04-26T08:48:25.001Z</time></trkpt><trkpt lat="43.9166938501278" lon="10.966219148063967"><ele>43.0</ele><time>2026-04-26T08:48:26.001Z</time></trkpt><trkpt lat="43.916705436737786" lon="10.9660597607275"><ele>43.0</ele><time>2026-04-26T08:48:27.001Z</time></trkpt><trkpt lat="43.91671124701999" lon="10.96589854442756"><ele>43.0</ele><time>2026-04-26T08:48:28.001Z</time></trkpt><trkpt lat="43.91672346039958" lon="10.965744437403533"><ele>43.0</ele><time>2026-04-26T08:48:29.001Z</time></trkpt><trkpt lat="43.916732217062574" lon="10.965589618092626"><ele>43.0</ele><time>2026-04-26T08:48:30.001Z</time></trkpt><trkpt lat="43.91673863293022" lon="10.965438555283164"><ele>43.0</ele><time>2026-04-26T08:48:31.001Z</time></trkpt><trkpt lat="43.91674783484185" lon="10.965279259846582"><ele>43.25</ele><time>2026-04-26T08:48:32.001Z</time></trkpt><trkpt lat="43.91679502269302" lon="10.965132346623877"><ele>43.5</ele><time>2026-04-26T08:48:33.001Z</time></trkpt><trkpt lat="43.91681216400332" lon="10.964950132702958"><ele>43.75</ele><time>2026-04-26T08:48:34.001Z</time></trkpt><trkpt lat="43.916830554697576" lon="10.964757634561403"><ele>44.0</ele><time>2026-04-26T08:48:35.001Z</time></trkpt><trkpt lat="43.91684906404968" lon="10.964557304611816"><ele>44.0</ele><time>2026-04-26T08:48:36.001Z</time></trkpt><trkpt lat="43.91687187780832" lon="10.964344032859842"><ele>44.0</ele><time>2026-04-26T08:48:37.001Z</time></trkpt><trkpt lat="43.91689581735338" lon="10.964126782863598"><ele>44.0</ele><time>2026-04-26T08:48:38.001Z</time></trkpt><trkpt lat="43.91692295290059" lon="10.963896241609529"><ele>44.666666666666664</ele><time>2026-04-26T08:48:39.001Z</time></trkpt><trkpt lat="43.916954841027064" lon="10.963659161680187"><ele>45.333333333333336</ele><time>2026-04-26T08:48:40.001Z</time></trkpt><trkpt lat="43.91698276819754" lon="10.963419203941712"><ele>46.0</ele><time>2026-04-26T08:48:41.001Z</time></trkpt><trkpt lat="43.91701253564969" lon="10.963182451470729"><ele>46.0</ele><time>2026-04-26T08:48:42.001Z</time></trkpt><trkpt lat="43.91703799417181" lon="10.962933668458962"><ele>46.0</ele><time>2026-04-26T08:48:43.001Z</time></trkpt><trkpt lat="43.9170679896346" lon="10.962698772443275"><ele>46.0</ele><time>2026-04-26T08:48:44.001Z</time></trkpt><trkpt lat="43.917095023788605" lon="10.962469185789777"><ele>46.0</ele><time>2026-04-26T08:48:45.001Z</time></trkpt><trkpt lat="43.91712315335591" lon="10.962251662706201"><ele>46.0</ele><time>2026-04-26T08:48:46.001Z</time></trkpt><trkpt lat="43.91714612321236" lon="10.96203982990883"><ele>46.0</ele><time>2026-04-26T08:48:47.001Z</time></trkpt><trkpt lat="43.91717330439369" lon="10.961832893050623"><ele>46.25</ele><time>2026-04-26T08:48:48.001Z</time></trkpt><trkpt lat="43.91719588217094" lon="10.961624377503705"><ele>46.5</ele><time>2026-04-26T08:48:49.001Z</time></trkpt><trkpt lat="43.91721741754255" lon="10.961422568553852"><ele>46.75</ele><time>2026-04-26T08:48:50.001Z</time></trkpt><trkpt lat="43.91724196970785" lon="10.96122510601007"><ele>47.0</ele><time>2026-04-26T08:48:51.001Z</time></trkpt><trkpt lat="43.91726551644343" lon="10.961031091200073"><ele>47.0</ele><time>2026-04-26T08:48:52.001Z</time></trkpt><trkpt lat="43.91729341921394" lon="10.960828424524378"><ele>47.0</ele><time>2026-04-26T08:48:53.001Z</time></trkpt><trkpt lat="43.917320033189" lon="10.960621540902288"><ele>47.0</ele><time>2026-04-26T08:48:54.001Z</time></trkpt><trkpt lat="43.91738079544877" lon="10.960429209396825"><ele>47.0</ele><time>2026-04-26T08:48:55.001Z</time></trkpt><trkpt lat="43.91740694884182" lon="10.96020181923626"><ele>47.0</ele><time>2026-04-26T08:48:56.001Z</time></trkpt><trkpt lat="43.91743546400441" lon="10.959959084565137"><ele>47.0</ele><time>2026-04-26T08:48:57.001Z</time></trkpt><trkpt lat="43.917469987705225" lon="10.959714311089257"><ele>47.0</ele><time>2026-04-26T08:48:58.001Z</time></trkpt><trkpt lat="43.91750065381823" lon="10.95946850906593"><ele>47.0</ele><time>2026-04-26T08:48:59.001Z</time></trkpt><trkpt lat="43.91753124246364" lon="10.959220873627743"><ele>47.0</ele><time>2026-04-26T08:49:00.001Z</time></trkpt><trkpt lat="43.91756034247893" lon="10.95897529325465"><ele>46.666666666666664</ele><time>2026-04-26T08:49:01.001Z</time></trkpt><trkpt lat="43.917590821010606" lon="10.958750808827455"><ele>46.333333333333336</ele><time>2026-04-26T08:49:02.001Z</time></trkpt><trkpt lat="43.91762256157442" lon="10.958521420944875"><ele>46.0</ele><time>2026-04-26T08:49:03.001Z</time></trkpt><trkpt lat="43.91765063788814" lon="10.958278909031202"><ele>46.0</ele><time>2026-04-26T08:49:04.001Z</time></trkpt><trkpt lat="43.9176768445939" lon="10.95803391595438"><ele>46.0</ele><time>2026-04-26T08:49:05.001Z</time></trkpt><trkpt lat="43.91770559777811" lon="10.95778831966447"><ele>46.0</ele><time>2026-04-26T08:49:06.001Z</time></trkpt><trkpt lat="43.917734689056644" lon="10.95753660776592"><ele>46.66666666666667</ele><time>2026-04-26T08:49:07.001Z</time></trkpt><trkpt lat="43.917765690527524" lon="10.957280975701572"><ele>47.333333333333336</ele><time>2026-04-26T08:49:08.001Z</time></trkpt><trkpt lat="43.917801869232775" lon="10.957022495315462"><ele>48.0</ele><time>2026-04-26T08:49:09.001Z</time></trkpt><trkpt lat="43.91783620850392" lon="10.956754010643207"><ele>47.666666666666664</ele><time>2026-04-26T08:49:10.001Z</time></trkpt><trkpt lat="43.91787146484426" lon="10.9564792380002"><ele>47.33333333333333</ele><time>2026-04-26T08:49:11.001Z</time></trkpt><trkpt lat="43.91791126823298" lon="10.956196964433927"><ele>47.0</ele><time>2026-04-26T08:49:12.001Z</time></trkpt><trkpt lat="43.91795055880912" lon="10.955911788401629"><ele>47.0</ele><time>2026-04-26T08:49:13.001Z</time></trkpt><trkpt lat="43.91798902591277" lon="10.955618662580353"><ele>47.0</ele><time>2026-04-26T08:49:14.001Z</time></trkpt><trkpt lat="43.9180259787704" lon="10.955328326450452"><ele>47.0</ele><time>2026-04-26T08:49:15.001Z</time></trkpt><trkpt lat="43.918063778749165" lon="10.955044299612593"><ele>47.0</ele><time>2026-04-26T08:49:16.001Z</time></trkpt><trkpt lat="43.91810140028131" lon="10.954763168834468"><ele>47.0</ele><time>2026-04-26T08:49:17.001Z</time></trkpt><trkpt lat="43.91814355043157" lon="10.954479731428817"><ele>47.0</ele><time>2026-04-26T08:49:18.001Z</time></trkpt><trkpt lat="43.9181812055284" lon="10.954205925887704"><ele>47.0</ele><time>2026-04-26T08:49:19.001Z</time></trkpt><trkpt lat="43.918222163230524" lon="10.953928536485716"><ele>47.0</ele><time>2026-04-26T08:49:20.001Z</time></trkpt><trkpt lat="43.91826090777207" lon="10.953648603924627"><ele>47.0</ele><time>2026-04-26T08:49:21.001Z</time></trkpt><trkpt lat="43.91829604434939" lon="10.953369489090603"><ele>47.0</ele><time>2026-04-26T08:49:22.001Z</time></trkpt><trkpt lat="43.918330730905254" lon="10.953087053145241"><ele>47.0</ele><time>2026-04-26T08:49:23.001Z</time></trkpt><trkpt lat="43.91836590806779" lon="10.952810603181886"><ele>47.0</ele><time>2026-04-26T08:49:24.001Z</time></trkpt><trkpt lat="43.91840281891863" lon="10.952531118001207"><ele>47.0</ele><time>2026-04-26T08:49:25.001Z</time></trkpt><trkpt lat="43.9184383572084" lon="10.952250471112807"><ele>47.0</ele><time>2026-04-26T08:49:26.001Z</time></trkpt><trkpt lat="43.918472190445236" lon="10.951974018648357"><ele>47.0</ele><time>2026-04-26T08:49:27.001Z</time></trkpt><trkpt lat="43.91850971128284" lon="10.951693998650278"><ele>47.0</ele><time>2026-04-26T08:49:28.001Z</time></trkpt><trkpt lat="43.91854679605116" lon="10.951414395019569"><ele>47.0</ele><time>2026-04-26T08:49:29.001Z</time></trkpt><trkpt lat="43.91858396902624" lon="10.951144692765835"><ele>47.0</ele><time>2026-04-26T08:49:30.001Z</time></trkpt><trkpt lat="43.91862043974905" lon="10.950872077166574"><ele>47.33333333333333</ele><time>2026-04-26T08:49:31.001Z</time></trkpt><trkpt lat="43.91865654618051" lon="10.950594380203741"><ele>47.666666666666664</ele><time>2026-04-26T08:49:32.001Z</time></trkpt><trkpt lat="43.918690703454615" lon="10.950314604512293"><ele>48.0</ele><time>2026-04-26T08:49:33.001Z</time></trkpt><trkpt lat="43.918727595771045" lon="10.950039616462673"><ele>48.33333333333333</ele><time>2026-04-26T08:49:34.001Z</time></trkpt><trkpt lat="43.91876631307661" lon="10.949765478004137"><ele>48.666666666666664</ele><time>2026-04-26T08:49:35.001Z</time></trkpt><trkpt lat="43.91880275876986" lon="10.949494487652103"><ele>49.0</ele><time>2026-04-26T08:49:36.001Z</time></trkpt><trkpt lat="43.91883855197861" lon="10.949222817283681"><ele>48.666666666666664</ele><time>2026-04-26T08:49:37.001Z</time></trkpt><trkpt lat="43.91887473907317" lon="10.948962035886831"><ele>48.33333333333333</ele><time>2026-04-26T08:49:38.001Z</time></trkpt><trkpt lat="43.91890865013393" lon="10.948699630206315"><ele>48.0</ele><time>2026-04-26T08:49:39.001Z</time></trkpt><trkpt lat="43.91894042864144" lon="10.94844169393599"><ele>48.0</ele><time>2026-04-26T08:49:40.001Z</time></trkpt><trkpt lat="43.918976782182824" lon="10.948189031991909"><ele>48.0</ele><time>2026-04-26T08:49:41.001Z</time></trkpt><trkpt lat="43.91901055221504" lon="10.947927062803032"><ele>48.0</ele><time>2026-04-26T08:49:42.001Z</time></trkpt><trkpt lat="43.919044805773204" lon="10.947665690205495"><ele>48.0</ele><time>2026-04-26T08:49:43.001Z</time></trkpt><trkpt lat="43.91908267154681" lon="10.947400487132946"><ele>48.0</ele><time>2026-04-26T08:49:44.001Z</time></trkpt><trkpt lat="43.91911727865241" lon="10.947137894133208"><ele>48.0</ele><time>2026-04-26T08:49:45.001Z</time></trkpt><trkpt lat="43.91915242359929" lon="10.946879797464652"><ele>48.33333333333333</ele><time>2026-04-26T08:49:46.001Z</time></trkpt><trkpt lat="43.91918392879925" lon="10.946635354032994"><ele>48.666666666666664</ele><time>2026-04-26T08:49:47.001Z</time></trkpt><trkpt lat="43.91921421133447" lon="10.946403869212485"><ele>49.0</ele><time>2026-04-26T08:49:48.001Z</time></trkpt><trkpt lat="43.919247181508545" lon="10.946175323819615"><ele>49.666666666666664</ele><time>2026-04-26T08:49:49.001Z</time></trkpt><trkpt lat="43.91928766722037" lon="10.945948688739636"><ele>50.33333333333333</ele><time>2026-04-26T08:49:50.001Z</time></trkpt><trkpt lat="43.91933376330348" lon="10.945719839477078"><ele>51.0</ele><time>2026-04-26T08:49:51.001Z</time></trkpt><trkpt lat="43.919381654134014" lon="10.945497770129267"><ele>51.0</ele><time>2026-04-26T08:49:52.001Z</time></trkpt><trkpt lat="43.91943845159792" lon="10.945285571305636"><ele>51.0</ele><time>2026-04-26T08:49:53.001Z</time></trkpt><trkpt lat="43.919502154697405" lon="10.945070613384864"><ele>51.0</ele><time>2026-04-26T08:49:54.001Z</time></trkpt><trkpt lat="43.91956791116757" lon="10.944848809714838"><ele>50.66666666666667</ele><time>2026-04-26T08:49:55.001Z</time></trkpt><trkpt lat="43.91963281121575" lon="10.944634782180241"><ele>50.333333333333336</ele><time>2026-04-26T08:49:56.001Z</time></trkpt><trkpt lat="43.91969569522423" lon="10.944437202059515"><ele>50.0</ele><time>2026-04-26T08:49:57.001Z</time></trkpt><trkpt lat="43.91975776919356" lon="10.944241807324858"><ele>50.0</ele><time>2026-04-26T08:49:58.001Z</time></trkpt><trkpt lat="43.919820817159476" lon="10.944044578322801"><ele>50.0</ele><time>2026-04-26T08:49:59.001Z</time></trkpt><trkpt lat="43.91989523076528" lon="10.943843402026278"><ele>50.0</ele><time>2026-04-26T08:50:00.001Z</time></trkpt><trkpt lat="43.91996382775093" lon="10.943649441705638"><ele>50.0</ele><time>2026-04-26T08:50:01.001Z</time></trkpt><trkpt lat="43.92003308140474" lon="10.943435641258915"><ele>50.0</ele><time>2026-04-26T08:50:02.001Z</time></trkpt><trkpt lat="43.920107105876575" lon="10.943212609425894"><ele>50.0</ele><time>2026-04-26T08:50:03.001Z</time></trkpt><trkpt lat="43.920185919497996" lon="10.94298698131075"><ele>50.333333333333336</ele><time>2026-04-26T08:50:04.001Z</time></trkpt><trkpt lat="43.92027355133192" lon="10.94277090015749"><ele>50.66666666666667</ele><time>2026-04-26T08:50:05.001Z</time></trkpt><trkpt lat="43.92034733202301" lon="10.942555230026965"><ele>51.0</ele><time>2026-04-26T08:50:06.001Z</time></trkpt><trkpt lat="43.92041603569202" lon="10.942355015336236"><ele>51.0</ele><time>2026-04-26T08:50:07.001Z</time></trkpt><trkpt lat="43.92048007020405" lon="10.942170836126074"><ele>51.0</ele><time>2026-04-26T08:50:08.001Z</time></trkpt><trkpt lat="43.92054538557506" lon="10.941982974118993"><ele>51.0</ele><time>2026-04-26T08:50:09.001Z</time></trkpt><trkpt lat="43.92061454312347" lon="10.941784060084592"><ele>51.66666666666667</ele><time>2026-04-26T08:50:10.001Z</time></trkpt><trkpt lat="43.92070357395386" lon="10.941587141628673"><ele>52.333333333333336</ele><time>2026-04-26T08:50:11.001Z</time></trkpt><trkpt lat="43.92077950294794" lon="10.941362948586546"><ele>53.0</ele><time>2026-04-26T08:50:12.001Z</time></trkpt><trkpt lat="43.92085653867816" lon="10.94114278363183"><ele>52.333333333333336</ele><time>2026-04-26T08:50:13.001Z</time></trkpt><trkpt lat="43.920935188451594" lon="10.940920808909564"><ele>51.66666666666667</ele><time>2026-04-26T08:50:14.001Z</time></trkpt><trkpt lat="43.92101054984691" lon="10.940703195182094"><ele>51.0</ele><time>2026-04-26T08:50:15.001Z</time></trkpt><trkpt lat="43.92108455403092" lon="10.940491351876156"><ele>51.0</ele><time>2026-04-26T08:50:16.001Z</time></trkpt><trkpt lat="43.92115292475047" lon="10.940296169955952"><ele>51.0</ele><time>2026-04-26T08:50:17.001Z</time></trkpt><trkpt lat="43.921224592515095" lon="10.940087703007572"><ele>51.0</ele><time>2026-04-26T08:50:18.001Z</time></trkpt><trkpt lat="43.92129240439409" lon="10.939881407128679"><ele>51.0</ele><time>2026-04-26T08:50:19.001Z</time></trkpt><trkpt lat="43.92135977262255" lon="10.939678904593428"><ele>51.0</ele><time>2026-04-26T08:50:20.001Z</time></trkpt><trkpt lat="43.921427589114444" lon="10.939476510588506"><ele>51.0</ele><time>2026-04-26T08:50:21.001Z</time></trkpt><trkpt lat="43.92149195761699" lon="10.939278711349653"><ele>51.0</ele><time>2026-04-26T08:50:22.001Z</time></trkpt><trkpt lat="43.92155639929398" lon="10.939088327369488"><ele>51.0</ele><time>2026-04-26T08:50:23.001Z</time></trkpt><trkpt lat="43.9216235606568" lon="10.938893452548605"><ele>51.0</ele><time>2026-04-26T08:50:24.001Z</time></trkpt><trkpt lat="43.921692765065686" lon="10.938685356844433"><ele>51.33333333333333</ele><time>2026-04-26T08:50:25.001Z</time></trkpt><trkpt lat="43.92176838630405" lon="10.93846756356064"><ele>51.666666666666664</ele><time>2026-04-26T08:50:26.001Z</time></trkpt><trkpt lat="43.92184475336861" lon="10.938245200641973"><ele>52.0</ele><time>2026-04-26T08:50:27.001Z</time></trkpt><trkpt lat="43.921921226218046" lon="10.938023610031145"><ele>51.666666666666664</ele><time>2026-04-26T08:50:28.001Z</time></trkpt><trkpt lat="43.92200100221552" lon="10.937796529228459"><ele>51.33333333333333</ele><time>2026-04-26T08:50:29.001Z</time></trkpt><trkpt lat="43.92208308084952" lon="10.937568480456829"><ele>51.0</ele><time>2026-04-26T08:50:30.001Z</time></trkpt><trkpt lat="43.922161035519586" lon="10.937331502371684"><ele>51.0</ele><time>2026-04-26T08:50:31.001Z</time></trkpt><trkpt lat="43.92224233555464" lon="10.937089368407527"><ele>51.0</ele><time>2026-04-26T08:50:32.001Z</time></trkpt><trkpt lat="43.92232120673594" lon="10.936843029151849"><ele>51.0</ele><time>2026-04-26T08:50:33.001Z</time></trkpt><trkpt lat="43.92240926795083" lon="10.936602758687656"><ele>51.0</ele><time>2026-04-26T08:50:34.001Z</time></trkpt><trkpt lat="43.92249477510773" lon="10.936352187298807"><ele>51.0</ele><time>2026-04-26T08:50:35.001Z</time></trkpt><trkpt lat="43.922582250844926" lon="10.936108680829747"><ele>51.0</ele><time>2026-04-26T08:50:36.001Z</time></trkpt><trkpt lat="43.92267183299543" lon="10.935860220341644"><ele>51.66666666666667</ele><time>2026-04-26T08:50:37.001Z</time></trkpt><trkpt lat="43.92275920677111" lon="10.93561310027258"><ele>52.333333333333336</ele><time>2026-04-26T08:50:38.001Z</time></trkpt><trkpt lat="43.92284321702491" lon="10.935373573846974"><ele>53.0</ele><time>2026-04-26T08:50:39.001Z</time></trkpt><trkpt lat="43.92292031403363" lon="10.935143052038764"><ele>53.333333333333336</ele><time>2026-04-26T08:50:40.001Z</time></trkpt><trkpt lat="43.92299219926023" lon="10.934924477184222"><ele>53.66666666666667</ele><time>2026-04-26T08:50:41.001Z</time></trkpt><trkpt lat="43.92306926133893" lon="10.934712938614032"><ele>54.0</ele><time>2026-04-26T08:50:42.001Z</time></trkpt><trkpt lat="43.92314213810372" lon="10.934498701403728"><ele>54.0</ele><time>2026-04-26T08:50:43.001Z</time></trkpt><trkpt lat="43.9232065603899" lon="10.934294289528491"><ele>54.0</ele><time>2026-04-26T08:50:44.001Z</time></trkpt><trkpt lat="43.9232707057061" lon="10.934106955300031"><ele>54.0</ele><time>2026-04-26T08:50:45.001Z</time></trkpt><trkpt lat="43.923330539049225" lon="10.933942237591955"><ele>54.0</ele><time>2026-04-26T08:50:46.001Z</time></trkpt><trkpt lat="43.92338354703061" lon="10.933786429487919"><ele>53.800000000000004</ele><time>2026-04-26T08:50:47.001Z</time></trkpt><trkpt lat="43.92343362959059" lon="10.933662458619054"><ele>53.60000000000001</ele><time>2026-04-26T08:50:48.001Z</time></trkpt><trkpt lat="43.9234982985254" lon="10.933553297383247"><ele>53.4</ele><time>2026-04-26T08:50:49.001Z</time></trkpt><trkpt lat="43.92356138476315" lon="10.933505529253473"><ele>53.2</ele><time>2026-04-26T08:50:50.001Z</time></trkpt><trkpt lat="43.923643077500586" lon="10.93344726877634"><ele>53.0</ele><time>2026-04-26T08:50:51.001Z</time></trkpt><trkpt lat="43.92375329056236" lon="10.933404017122964"><ele>53.0</ele><time>2026-04-26T08:50:52.001Z</time></trkpt><trkpt lat="43.92386483535664" lon="10.933331991575814"><ele>53.0</ele><time>2026-04-26T08:50:53.001Z</time></trkpt><trkpt lat="43.923970406674776" lon="10.933237773792074"><ele>53.0</ele><time>2026-04-26T08:50:54.001Z</time></trkpt><trkpt lat="43.92405775249106" lon="10.933099051051187"><ele>53.0</ele><time>2026-04-26T08:50:55.001Z</time></trkpt><trkpt lat="43.92411547600179" lon="10.932946052303025"><ele>53.0</ele><time>2026-04-26T08:50:56.001Z</time></trkpt><trkpt lat="43.924154820294724" lon="10.932785685884323"><ele>53.0</ele><time>2026-04-26T08:50:57.001Z</time></trkpt><trkpt lat="43.92416835916656" lon="10.932619060026614"><ele>53.0</ele><time>2026-04-26T08:50:58.001Z</time></trkpt><trkpt lat="43.924156481100574" lon="10.932457170733967"><ele>53.0</ele><time>2026-04-26T08:50:59.001Z</time></trkpt><trkpt lat="43.92412518286753" lon="10.932306890488832"><ele>53.4</ele><time>2026-04-26T08:51:00.001Z</time></trkpt><trkpt lat="43.92408065081075" lon="10.932171711464798"><ele>53.8</ele><time>2026-04-26T08:51:01.001Z</time></trkpt><trkpt lat="43.9240216390195" lon="10.932050530433635"><ele>54.2</ele><time>2026-04-26T08:51:02.001Z</time></trkpt><trkpt lat="43.92396312711985" lon="10.931971915991472"><ele>54.6</ele><time>2026-04-26T08:51:03.001Z</time></trkpt><trkpt lat="43.923898630756256" lon="10.931902369135788"><ele>55.0</ele><time>2026-04-26T08:51:04.001Z</time></trkpt><trkpt lat="43.923836074872604" lon="10.931843069840589"><ele>54.99999999999999</ele><time>2026-04-26T08:51:05.001Z</time></trkpt><trkpt lat="43.92376695233482" lon="10.931796113181214"><ele>55.0</ele><time>2026-04-26T08:51:06.001Z</time></trkpt><trkpt lat="43.92372945206104" lon="10.931696610585652"><ele>55.0</ele><time>2026-04-26T08:51:07.001Z</time></trkpt><trkpt lat="43.92370335438107" lon="10.931601408262678"><ele>55.0</ele><time>2026-04-26T08:51:08.001Z</time></trkpt><trkpt lat="43.92367844476709" lon="10.931496906637571"><ele>54.99999999999999</ele><time>2026-04-26T08:51:09.001Z</time></trkpt><trkpt lat="43.92366840858354" lon="10.931367029824274"><ele>55.0</ele><time>2026-04-26T08:51:10.001Z</time></trkpt><trkpt lat="43.92367201351714" lon="10.93120189447292"><ele>54.75</ele><time>2026-04-26T08:51:11.001Z</time></trkpt><trkpt lat="43.92367172926005" lon="10.931012053367416"><ele>54.5</ele><time>2026-04-26T08:51:12.001Z</time></trkpt><trkpt lat="43.92368285660198" lon="10.930812563377541"><ele>54.25</ele><time>2026-04-26T08:51:13.001Z</time></trkpt><trkpt lat="43.92369701737223" lon="10.930598798021116"><ele>54.0</ele><time>2026-04-26T08:51:14.001Z</time></trkpt><trkpt lat="43.92370601853508" lon="10.930386818633357"><ele>54.0</ele><time>2026-04-26T08:51:15.001Z</time></trkpt><trkpt lat="43.92371136883516" lon="10.930161951005823"><ele>54.0</ele><time>2026-04-26T08:51:16.001Z</time></trkpt><trkpt lat="43.923714877400734" lon="10.929932926794683"><ele>54.0</ele><time>2026-04-26T08:51:17.001Z</time></trkpt><trkpt lat="43.9237235162841" lon="10.929695181880273"><ele>54.0</ele><time>2026-04-26T08:51:18.001Z</time></trkpt><trkpt lat="43.9237287838704" lon="10.929454440557315"><ele>54.0</ele><time>2026-04-26T08:51:19.001Z</time></trkpt><trkpt lat="43.92373502432131" lon="10.92921574063813"><ele>54.0</ele><time>2026-04-26T08:51:20.001Z</time></trkpt><trkpt lat="43.92373936627668" lon="10.928968838141097"><ele>53.33333333333333</ele><time>2026-04-26T08:51:21.001Z</time></trkpt><trkpt lat="43.92373985127653" lon="10.928727230989663"><ele>52.666666666666664</ele><time>2026-04-26T08:51:22.001Z</time></trkpt><trkpt lat="43.92373756842149" lon="10.928500143153569"><ele>52.0</ele><time>2026-04-26T08:51:23.001Z</time></trkpt><trkpt lat="43.92373112893414" lon="10.928299642303232"><ele>52.0</ele><time>2026-04-26T08:51:24.001Z</time></trkpt><trkpt lat="43.92372655039447" lon="10.928108891612647"><ele>52.0</ele><time>2026-04-26T08:51:25.001Z</time></trkpt><trkpt lat="43.92372479780168" lon="10.927930475432595"><ele>52.0</ele><time>2026-04-26T08:51:26.001Z</time></trkpt><trkpt lat="43.92371244884678" lon="10.927769475954483"><ele>52.0</ele><time>2026-04-26T08:51:27.001Z</time></trkpt><trkpt lat="43.92370823385561" lon="10.92762577898464"><ele>52.2</ele><time>2026-04-26T08:51:28.001Z</time></trkpt><trkpt lat="43.92370288172472" lon="10.92747424199319"><ele>52.400000000000006</ele><time>2026-04-26T08:51:29.001Z</time></trkpt><trkpt lat="43.92371278306471" lon="10.927317283313842"><ele>52.599999999999994</ele><time>2026-04-26T08:51:30.001Z</time></trkpt><trkpt lat="43.923745066111664" lon="10.927163842967746"><ele>52.8</ele><time>2026-04-26T08:51:31.001Z</time></trkpt><trkpt lat="43.92377144355204" lon="10.927019888321695"><ele>53.0</ele><time>2026-04-26T08:51:32.001Z</time></trkpt><trkpt lat="43.92377499113069" lon="10.926883248440898"><ele>53.0</ele><time>2026-04-26T08:51:33.001Z</time></trkpt><trkpt lat="43.92375548436076" lon="10.926742111850478"><ele>53.0</ele><time>2026-04-26T08:51:34.001Z</time></trkpt><trkpt lat="43.923706938525605" lon="10.926634500516611"><ele>53.0</ele><time>2026-04-26T08:51:35.001Z</time></trkpt><trkpt lat="43.923629821545084" lon="10.926529986648397"><ele>53.0</ele><time>2026-04-26T08:51:36.001Z</time></trkpt><trkpt lat="43.92353816041749" lon="10.926416923204973"><ele>53.0</ele><time>2026-04-26T08:51:37.001Z</time></trkpt><trkpt lat="43.92345082230428" lon="10.926283365178627"><ele>53.25</ele><time>2026-04-26T08:51:38.001Z</time></trkpt><trkpt lat="43.92339809117157" lon="10.92612603198734"><ele>53.5</ele><time>2026-04-26T08:51:39.001Z</time></trkpt><trkpt lat="43.923345331144944" lon="10.92593832241844"><ele>53.75</ele><time>2026-04-26T08:51:40.001Z</time></trkpt><trkpt lat="43.923299324700686" lon="10.925760927976333"><ele>54.0</ele><time>2026-04-26T08:51:41.001Z</time></trkpt><trkpt lat="43.92324021977158" lon="10.925572282064675"><ele>54.25</ele><time>2026-04-26T08:51:42.001Z</time></trkpt><trkpt lat="43.92318925393534" lon="10.925374228403015"><ele>54.5</ele><time>2026-04-26T08:51:43.001Z</time></trkpt><trkpt lat="43.92314120909601" lon="10.925192164119181"><ele>54.75</ele><time>2026-04-26T08:51:44.001Z</time></trkpt><trkpt lat="43.92309703116599" lon="10.925013716846296"><ele>55.0</ele><time>2026-04-26T08:51:45.001Z</time></trkpt><trkpt lat="43.92305137516738" lon="10.924857523100439"><ele>55.0</ele><time>2026-04-26T08:51:46.001Z</time></trkpt><trkpt lat="43.92300109395249" lon="10.924705321622547"><ele>55.0</ele><time>2026-04-26T08:51:47.001Z</time></trkpt><trkpt lat="43.922951526056856" lon="10.924545950732567"><ele>55.0</ele><time>2026-04-26T08:51:48.001Z</time></trkpt><trkpt lat="43.92290268768927" lon="10.924380388010409"><ele>55.0</ele><time>2026-04-26T08:51:49.001Z</time></trkpt><trkpt lat="43.92285657308396" lon="10.924206801131694"><ele>55.25</ele><time>2026-04-26T08:51:50.001Z</time></trkpt><trkpt lat="43.92281469169781" lon="10.924033957786282"><ele>55.5</ele><time>2026-04-26T08:51:51.001Z</time></trkpt><trkpt lat="43.92276728981979" lon="10.923867518065727"><ele>55.75</ele><time>2026-04-26T08:51:52.001Z</time></trkpt><trkpt lat="43.92272411691491" lon="10.923709229451628"><ele>56.0</ele><time>2026-04-26T08:51:53.001Z</time></trkpt><trkpt lat="43.92268147492657" lon="10.923559382013057"><ele>56.0</ele><time>2026-04-26T08:51:54.001Z</time></trkpt><trkpt lat="43.92264309150938" lon="10.923421073950555"><ele>55.99999999999999</ele><time>2026-04-26T08:51:55.001Z</time></trkpt><trkpt lat="43.92261090889888" lon="10.923288962630028"><ele>55.99999999999999</ele><time>2026-04-26T08:51:56.001Z</time></trkpt><trkpt lat="43.922568344675184" lon="10.923153164789724"><ele>56.0</ele><time>2026-04-26T08:51:57.001Z</time></trkpt><trkpt lat="43.922523354273544" lon="10.923015504431705"><ele>56.0</ele><time>2026-04-26T08:51:58.001Z</time></trkpt><trkpt lat="43.9224865205433" lon="10.922878755123968"><ele>56.0</ele><time>2026-04-26T08:51:59.001Z</time></trkpt><trkpt lat="43.92245051132589" lon="10.922729587793073"><ele>56.0</ele><time>2026-04-26T08:52:00.001Z</time></trkpt><trkpt lat="43.9224195966142" lon="10.922574746202097"><ele>56.0</ele><time>2026-04-26T08:52:01.001Z</time></trkpt><trkpt lat="43.922383058087014" lon="10.922409714910716"><ele>56.0</ele><time>2026-04-26T08:52:02.001Z</time></trkpt><trkpt lat="43.92234645566913" lon="10.922236880327983"><ele>56.0</ele><time>2026-04-26T08:52:03.001Z</time></trkpt><trkpt lat="43.92231138005505" lon="10.922056164302397"><ele>56.0</ele><time>2026-04-26T08:52:04.001Z</time></trkpt><trkpt lat="43.922285823183486" lon="10.921864328782464"><ele>56.0</ele><time>2026-04-26T08:52:05.001Z</time></trkpt><trkpt lat="43.922255542053854" lon="10.921668117626972"><ele>56.0</ele><time>2026-04-26T08:52:06.001Z</time></trkpt><trkpt lat="43.922226277498915" lon="10.921474234482673"><ele>56.0</ele><time>2026-04-26T08:52:07.001Z</time></trkpt><trkpt lat="43.92219602510353" lon="10.921274912473491"><ele>56.0</ele><time>2026-04-26T08:52:08.001Z</time></trkpt><trkpt lat="43.92217541023961" lon="10.921072165971736"><ele>56.0</ele><time>2026-04-26T08:52:09.001Z</time></trkpt><trkpt lat="43.92215433040375" lon="10.92086611833729"><ele>56.0</ele><time>2026-04-26T08:52:10.001Z</time></trkpt><trkpt lat="43.922131687225665" lon="10.920661473230576"><ele>56.0</ele><time>2026-04-26T08:52:11.001Z</time></trkpt><trkpt lat="43.92210784527746" lon="10.92046186514708"><ele>56.0</ele><time>2026-04-26T08:52:12.001Z</time></trkpt><trkpt lat="43.92209042256863" lon="10.920283838032086"><ele>56.0</ele><time>2026-04-26T08:52:13.001Z</time></trkpt><trkpt lat="43.922076318395845" lon="10.920109313238223"><ele>56.0</ele><time>2026-04-26T08:52:14.001Z</time></trkpt><trkpt lat="43.92206444445927" lon="10.919929025773454"><ele>56.25</ele><time>2026-04-26T08:52:15.001Z</time></trkpt><trkpt lat="43.92205956302337" lon="10.919749351207162"><ele>56.5</ele><time>2026-04-26T08:52:16.001Z</time></trkpt><trkpt lat="43.92206430199178" lon="10.919591442111754"><ele>56.75</ele><time>2026-04-26T08:52:17.001Z</time></trkpt><trkpt lat="43.92206301675022" lon="10.919444326899924"><ele>57.0</ele><time>2026-04-26T08:52:18.001Z</time></trkpt><trkpt lat="43.92205760150074" lon="10.919301091289215"><ele>57.333333333333336</ele><time>2026-04-26T08:52:19.001Z</time></trkpt><trkpt lat="43.92206195929385" lon="10.91916659249363"><ele>57.66666666666667</ele><time>2026-04-26T08:52:20.001Z</time></trkpt><trkpt lat="43.92206590759445" lon="10.919046606783555"><ele>58.0</ele><time>2026-04-26T08:52:21.001Z</time></trkpt><trkpt lat="43.92208466128332" lon="10.918959290047033"><ele>58.333333333333336</ele><time>2026-04-26T08:52:22.001Z</time></trkpt><trkpt lat="43.922120524469854" lon="10.91883064346202"><ele>58.66666666666667</ele><time>2026-04-26T08:52:24.001Z</time></trkpt><trkpt lat="43.92215768712382" lon="10.918714769407483"><ele>59.0</ele><time>2026-04-26T08:52:27.001Z</time></trkpt><trkpt lat="43.92220073284204" lon="10.918643797850303"><ele>59.00000000000001</ele><time>2026-04-26T08:52:29.001Z</time></trkpt><trkpt lat="43.92225672875885" lon="10.918572558061951"><ele>59.0</ele><time>2026-04-26T08:52:31.001Z</time></trkpt><trkpt lat="43.92230916429203" lon="10.918421198275373"><ele>59.0</ele><time>2026-04-26T08:52:33.001Z</time></trkpt><trkpt lat="43.92229713566039" lon="10.918310841984319"><ele>59.0</ele><time>2026-04-26T08:52:34.001Z</time></trkpt><trkpt lat="43.92226312442694" lon="10.918211148985982"><ele>59.00000000000001</ele><time>2026-04-26T08:52:35.001Z</time></trkpt><trkpt lat="43.922207459434986" lon="10.918128458416371"><ele>59.0</ele><time>2026-04-26T08:52:36.001Z</time></trkpt><trkpt lat="43.92214742715796" lon="10.91807428489842"><ele>59.0</ele><time>2026-04-26T08:52:37.001Z</time></trkpt><trkpt lat="43.922097524658" lon="10.918004957643838"><ele>59.0</ele><time>2026-04-26T08:52:38.001Z</time></trkpt><trkpt lat="43.92204796630671" lon="10.917949389708333"><ele>59.0</ele><time>2026-04-26T08:52:39.001Z</time></trkpt><trkpt lat="43.921992842341155" lon="10.917882077043526"><ele>59.0</ele><time>2026-04-26T08:52:40.001Z</time></trkpt><trkpt lat="43.92193596806847" lon="10.917816244005646"><ele>59.0</ele><time>2026-04-26T08:52:41.001Z</time></trkpt><trkpt lat="43.9218890125515" lon="10.91773285173587"><ele>59.0</ele><time>2026-04-26T08:52:42.001Z</time></trkpt><trkpt lat="43.92184194343386" lon="10.917644525936847"><ele>59.0</ele><time>2026-04-26T08:52:43.001Z</time></trkpt><trkpt lat="43.92179733709696" lon="10.91754501799786"><ele>59.0</ele><time>2026-04-26T08:52:44.001Z</time></trkpt><trkpt lat="43.9217674783259" lon="10.917433529021803"><ele>59.00000000000001</ele><time>2026-04-26T08:52:45.001Z</time></trkpt><trkpt lat="43.92173265683601" lon="10.917309536239378"><ele>59.00000000000001</ele><time>2026-04-26T08:52:46.001Z</time></trkpt><trkpt lat="43.92170158666994" lon="10.917159781091271"><ele>59.0</ele><time>2026-04-26T08:52:47.001Z</time></trkpt><trkpt lat="43.92166925114232" lon="10.916985061138263"><ele>59.0</ele><time>2026-04-26T08:52:48.001Z</time></trkpt><trkpt lat="43.92163661932159" lon="10.916803489225584"><ele>58.66666666666667</ele><time>2026-04-26T08:52:49.001Z</time></trkpt><trkpt lat="43.92160494496441" lon="10.916603278093762"><ele>58.33333333333333</ele><time>2026-04-26T08:52:50.001Z</time></trkpt><trkpt lat="43.92156990163024" lon="10.916382977364687"><ele>58.0</ele><time>2026-04-26T08:52:51.001Z</time></trkpt><trkpt lat="43.92153816222874" lon="10.916161519079369"><ele>58.0</ele><time>2026-04-26T08:52:52.001Z</time></trkpt><trkpt lat="43.92150934841061" lon="10.915928502321927"><ele>58.0</ele><time>2026-04-26T08:52:53.001Z</time></trkpt><trkpt lat="43.92147336248427" lon="10.915690859623334"><ele>58.0</ele><time>2026-04-26T08:52:54.001Z</time></trkpt><trkpt lat="43.92143773769507" lon="10.915445935846268"><ele>58.0</ele><time>2026-04-26T08:52:55.001Z</time></trkpt><trkpt lat="43.921399157983195" lon="10.915192625425506"><ele>58.0</ele><time>2026-04-26T08:52:56.001Z</time></trkpt><trkpt lat="43.92136437158082" lon="10.91494394373808"><ele>58.0</ele><time>2026-04-26T08:52:57.001Z</time></trkpt><trkpt lat="43.92132858908097" lon="10.91468877531054"><ele>58.33333333333333</ele><time>2026-04-26T08:52:58.001Z</time></trkpt><trkpt lat="43.921288004716274" lon="10.914426218542227"><ele>58.66666666666667</ele><time>2026-04-26T08:52:59.001Z</time></trkpt><trkpt lat="43.921248051138214" lon="10.914167816234121"><ele>59.0</ele><time>2026-04-26T08:53:00.001Z</time></trkpt><trkpt lat="43.921212547910756" lon="10.9139114945683"><ele>59.0</ele><time>2026-04-26T08:53:01.001Z</time></trkpt><trkpt lat="43.92117464812954" lon="10.91364891486374"><ele>59.0</ele><time>2026-04-26T08:53:02.001Z</time></trkpt><trkpt lat="43.9211384466203" lon="10.91338194567871"><ele>59.0</ele><time>2026-04-26T08:53:03.001Z</time></trkpt><trkpt lat="43.92110488007832" lon="10.913113655783514"><ele>59.66666666666667</ele><time>2026-04-26T08:53:04.001Z</time></trkpt><trkpt lat="43.92106298941902" lon="10.912843689148389"><ele>60.33333333333333</ele><time>2026-04-26T08:53:05.001Z</time></trkpt><trkpt lat="43.92102779310488" lon="10.912565837800162"><ele>61.0</ele><time>2026-04-26T08:53:06.001Z</time></trkpt><trkpt lat="43.9209983059893" lon="10.912291103860898"><ele>61.0</ele><time>2026-04-26T08:53:07.001Z</time></trkpt><trkpt lat="43.92096873716288" lon="10.912009746156489"><ele>61.0</ele><time>2026-04-26T08:53:08.001Z</time></trkpt><trkpt lat="43.92094505165525" lon="10.911727476635464"><ele>61.0</ele><time>2026-04-26T08:53:09.001Z</time></trkpt><trkpt lat="43.92091935249491" lon="10.911435348651843"><ele>61.0</ele><time>2026-04-26T08:53:10.001Z</time></trkpt><trkpt lat="43.920900371382956" lon="10.911143822744581"><ele>61.0</ele><time>2026-04-26T08:53:11.001Z</time></trkpt><trkpt lat="43.92088987572586" lon="10.910860148068409"><ele>61.0</ele><time>2026-04-26T08:53:12.001Z</time></trkpt><trkpt lat="43.92087611150915" lon="10.91059051121493"><ele>60.33333333333333</ele><time>2026-04-26T08:53:13.001Z</time></trkpt><trkpt lat="43.92086047249561" lon="10.910334193058233"><ele>59.66666666666667</ele><time>2026-04-26T08:53:14.001Z</time></trkpt><trkpt lat="43.92084384832452" lon="10.910072996923079"><ele>59.0</ele><time>2026-04-26T08:53:15.001Z</time></trkpt><trkpt lat="43.92082529028946" lon="10.909803109440299"><ele>59.0</ele><time>2026-04-26T08:53:16.001Z</time></trkpt><trkpt lat="43.92080323592706" lon="10.909520208256158"><ele>59.0</ele><time>2026-04-26T08:53:17.001Z</time></trkpt><trkpt lat="43.92077947235639" lon="10.909231536316634"><ele>59.0</ele><time>2026-04-26T08:53:18.001Z</time></trkpt><trkpt lat="43.920761898163704" lon="10.908957166801605"><ele>59.66666666666667</ele><time>2026-04-26T08:53:19.001Z</time></trkpt><trkpt lat="43.92074549818722" lon="10.908689859972574"><ele>60.33333333333333</ele><time>2026-04-26T08:53:20.001Z</time></trkpt><trkpt lat="43.92073170412068" lon="10.908428078175188"><ele>61.0</ele><time>2026-04-26T08:53:21.001Z</time></trkpt><trkpt lat="43.92071195598631" lon="10.908165830874864"><ele>61.666666666666664</ele><time>2026-04-26T08:53:22.001Z</time></trkpt><trkpt lat="43.920696899099475" lon="10.907896215099129"><ele>62.33333333333333</ele><time>2026-04-26T08:53:23.001Z</time></trkpt><trkpt lat="43.92068438053257" lon="10.907620834420666"><ele>63.0</ele><time>2026-04-26T08:53:24.001Z</time></trkpt><trkpt lat="43.92066991074575" lon="10.90734177897829"><ele>63.0</ele><time>2026-04-26T08:53:25.001Z</time></trkpt><trkpt lat="43.92065402033311" lon="10.907057715543992"><ele>63.0</ele><time>2026-04-26T08:53:26.001Z</time></trkpt><trkpt lat="43.92063355179482" lon="10.906764559695215"><ele>63.0</ele><time>2026-04-26T08:53:27.001Z</time></trkpt><trkpt lat="43.92061594410219" lon="10.9064707233075"><ele>63.0</ele><time>2026-04-26T08:53:28.001Z</time></trkpt><trkpt lat="43.920601567205864" lon="10.90618285002488"><ele>63.0</ele><time>2026-04-26T08:53:29.001Z</time></trkpt><trkpt lat="43.920585203908786" lon="10.90589865225225"><ele>63.0</ele><time>2026-04-26T08:53:30.001Z</time></trkpt><trkpt lat="43.920572602642814" lon="10.905616561662027"><ele>63.66666666666667</ele><time>2026-04-26T08:53:31.001Z</time></trkpt><trkpt lat="43.92055895224846" lon="10.905329663730814"><ele>64.33333333333334</ele><time>2026-04-26T08:53:32.001Z</time></trkpt><trkpt lat="43.92054508441354" lon="10.90503740195581"><ele>65.0</ele><time>2026-04-26T08:53:33.001Z</time></trkpt><trkpt lat="43.920529409076416" lon="10.904755708520506"><ele>65.0</ele><time>2026-04-26T08:53:34.001Z</time></trkpt><trkpt lat="43.92052528766189" lon="10.90447783425118"><ele>65.0</ele><time>2026-04-26T08:53:35.001Z</time></trkpt><trkpt lat="43.920521268086844" lon="10.904197494169205"><ele>65.0</ele><time>2026-04-26T08:53:36.001Z</time></trkpt><trkpt lat="43.920525045086485" lon="10.903909916350257"><ele>65.0</ele><time>2026-04-26T08:53:37.001Z</time></trkpt><trkpt lat="43.92053948674613" lon="10.903620469653832"><ele>65.0</ele><time>2026-04-26T08:53:38.001Z</time></trkpt><trkpt lat="43.92057047152474" lon="10.90332720500939"><ele>65.0</ele><time>2026-04-26T08:53:39.001Z</time></trkpt><trkpt lat="43.920603960186156" lon="10.903027770393432"><ele>64.0</ele><time>2026-04-26T08:53:40.001Z</time></trkpt><trkpt lat="43.92065093408791" lon="10.90272232807161"><ele>63.0</ele><time>2026-04-26T08:53:41.001Z</time></trkpt><trkpt lat="43.92070684832041" lon="10.902431577279069"><ele>62.0</ele><time>2026-04-26T08:53:42.001Z</time></trkpt><trkpt lat="43.920764482017745" lon="10.902161251050163"><ele>61.66666666666667</ele><time>2026-04-26T08:53:43.001Z</time></trkpt><trkpt lat="43.920830251270274" lon="10.901910210390005"><ele>61.33333333333333</ele><time>2026-04-26T08:53:44.001Z</time></trkpt><trkpt lat="43.92090501579235" lon="10.901677589468111"><ele>61.0</ele><time>2026-04-26T08:53:45.001Z</time></trkpt><trkpt lat="43.9209755483296" lon="10.901454016840278"><ele>62.0</ele><time>2026-04-26T08:53:46.001Z</time></trkpt><trkpt lat="43.92105486295484" lon="10.901245219076314"><ele>63.0</ele><time>2026-04-26T08:53:47.001Z</time></trkpt><trkpt lat="43.92113409239189" lon="10.90104139431534"><ele>64.0</ele><time>2026-04-26T08:53:48.001Z</time></trkpt><trkpt lat="43.9212221227519" lon="10.900843728841886"><ele>64.0</ele><time>2026-04-26T08:53:49.001Z</time></trkpt><trkpt lat="43.92131930318268" lon="10.900648600632898"><ele>64.0</ele><time>2026-04-26T08:53:50.001Z</time></trkpt><trkpt lat="43.92142077618275" lon="10.900453448141356"><ele>64.0</ele><time>2026-04-26T08:53:51.001Z</time></trkpt><trkpt lat="43.92151996465038" lon="10.90027440376961"><ele>64.0</ele><time>2026-04-26T08:53:52.001Z</time></trkpt><trkpt lat="43.921625078111596" lon="10.900105001871196"><ele>64.0</ele><time>2026-04-26T08:53:53.001Z</time></trkpt><trkpt lat="43.92172965021839" lon="10.899929473389069"><ele>64.0</ele><time>2026-04-26T08:53:54.001Z</time></trkpt><trkpt lat="43.92184308305666" lon="10.899762992544785"><ele>64.25</ele><time>2026-04-26T08:53:55.001Z</time></trkpt><trkpt lat="43.921953656023696" lon="10.89961786206202"><ele>64.5</ele><time>2026-04-26T08:53:56.001Z</time></trkpt><trkpt lat="43.92206057843822" lon="10.899480749708864"><ele>64.75</ele><time>2026-04-26T08:53:57.001Z</time></trkpt><trkpt lat="43.92217127319849" lon="10.899360043203895"><ele>65.0</ele><time>2026-04-26T08:53:58.001Z</time></trkpt><trkpt lat="43.92227019300081" lon="10.899246226740742"><ele>64.5</ele><time>2026-04-26T08:53:59.001Z</time></trkpt><trkpt lat="43.922367654179745" lon="10.899148845055569"><ele>64.0</ele><time>2026-04-26T08:54:00.001Z</time></trkpt><trkpt lat="43.922464398312684" lon="10.899052755116585"><ele>63.5</ele><time>2026-04-26T08:54:01.001Z</time></trkpt><trkpt lat="43.922570148453794" lon="10.89893325867313"><ele>63.0</ele><time>2026-04-26T08:54:02.001Z</time></trkpt><trkpt lat="43.92268375642195" lon="10.898804755541544"><ele>63.0</ele><time>2026-04-26T08:54:03.001Z</time></trkpt><trkpt lat="43.922802863226984" lon="10.89868298385455"><ele>63.0</ele><time>2026-04-26T08:54:04.001Z</time></trkpt><trkpt lat="43.92292977268311" lon="10.898556893941272"><ele>63.0</ele><time>2026-04-26T08:54:05.001Z</time></trkpt><trkpt lat="43.92305952469448" lon="10.898433180583027"><ele>62.66666666666667</ele><time>2026-04-26T08:54:06.001Z</time></trkpt><trkpt lat="43.92318870809355" lon="10.898306682528311"><ele>62.333333333333336</ele><time>2026-04-26T08:54:07.001Z</time></trkpt><trkpt lat="43.92331673924705" lon="10.898177340860583"><ele>62.0</ele><time>2026-04-26T08:54:08.001Z</time></trkpt><trkpt lat="43.923445921938196" lon="10.898036673427592"><ele>63.333333333333336</ele><time>2026-04-26T08:54:09.001Z</time></trkpt><trkpt lat="43.923582762519494" lon="10.897903177029166"><ele>64.66666666666667</ele><time>2026-04-26T08:54:10.001Z</time></trkpt><trkpt lat="43.923721238765154" lon="10.897762862908921"><ele>66.0</ele><time>2026-04-26T08:54:11.001Z</time></trkpt><trkpt lat="43.923858810004866" lon="10.897622335966647"><ele>66.0</ele><time>2026-04-26T08:54:12.001Z</time></trkpt><trkpt lat="43.92400063788774" lon="10.89748279487959"><ele>66.0</ele><time>2026-04-26T08:54:13.001Z</time></trkpt><trkpt lat="43.924143914577115" lon="10.897345170077386"><ele>66.0</ele><time>2026-04-26T08:54:14.001Z</time></trkpt><trkpt lat="43.92428599593812" lon="10.897206111593468"><ele>66.0</ele><time>2026-04-26T08:54:15.001Z</time></trkpt><trkpt lat="43.924431385880496" lon="10.8970654220752"><ele>66.0</ele><time>2026-04-26T08:54:16.001Z</time></trkpt><trkpt lat="43.92457298752614" lon="10.896925945037271"><ele>66.0</ele><time>2026-04-26T08:54:17.001Z</time></trkpt><trkpt lat="43.92471514397569" lon="10.89678429140371"><ele>66.33333333333333</ele><time>2026-04-26T08:54:18.002Z</time></trkpt><trkpt lat="43.924854088299625" lon="10.896658684989351"><ele>66.66666666666666</ele><time>2026-04-26T08:54:19.002Z</time></trkpt><trkpt lat="43.924979846610164" lon="10.896535819292431"><ele>67.0</ele><time>2026-04-26T08:54:20.002Z</time></trkpt><trkpt lat="43.92509861764093" lon="10.896407796723256"><ele>67.25</ele><time>2026-04-26T08:54:21.002Z</time></trkpt><trkpt lat="43.925221630062445" lon="10.896294089588281"><ele>67.5</ele><time>2026-04-26T08:54:22.002Z</time></trkpt><trkpt lat="43.925339155393" lon="10.896174078902659"><ele>67.75</ele><time>2026-04-26T08:54:23.002Z</time></trkpt><trkpt lat="43.92545320030334" lon="10.89605713033666"><ele>68.0</ele><time>2026-04-26T08:54:24.002Z</time></trkpt><trkpt lat="43.92556551352943" lon="10.895949234139355"><ele>68.0</ele><time>2026-04-26T08:54:25.002Z</time></trkpt><trkpt lat="43.92566908507518" lon="10.895844426987157"><ele>68.0</ele><time>2026-04-26T08:54:26.002Z</time></trkpt><trkpt lat="43.925768708041915" lon="10.895747732880093"><ele>68.0</ele><time>2026-04-26T08:54:27.002Z</time></trkpt><trkpt lat="43.92587129137488" lon="10.895649853854508"><ele>68.0</ele><time>2026-04-26T08:54:28.002Z</time></trkpt><trkpt lat="43.92597689806099" lon="10.895542918659054"><ele>67.25</ele><time>2026-04-26T08:54:29.002Z</time></trkpt><trkpt lat="43.92608724742716" lon="10.895435597589188"><ele>66.5</ele><time>2026-04-26T08:54:30.002Z</time></trkpt><trkpt lat="43.92618746570673" lon="10.89533551035913"><ele>65.75</ele><time>2026-04-26T08:54:31.002Z</time></trkpt><trkpt lat="43.926288398773586" lon="10.895234140780703"><ele>65.0</ele><time>2026-04-26T08:54:32.002Z</time></trkpt><trkpt lat="43.92639540259877" lon="10.895131085122115"><ele>65.5</ele><time>2026-04-26T08:54:33.002Z</time></trkpt><trkpt lat="43.92650653891527" lon="10.895013984390843"><ele>66.0</ele><time>2026-04-26T08:54:34.002Z</time></trkpt><trkpt lat="43.92662379616152" lon="10.89489667174171"><ele>66.5</ele><time>2026-04-26T08:54:35.002Z</time></trkpt><trkpt lat="43.926747119152466" lon="10.894769213216321"><ele>67.0</ele><time>2026-04-26T08:54:36.002Z</time></trkpt><trkpt lat="43.92687485988679" lon="10.894650561636617"><ele>67.0</ele><time>2026-04-26T08:54:37.002Z</time></trkpt><trkpt lat="43.92700254539173" lon="10.894536604711305"><ele>67.0</ele><time>2026-04-26T08:54:38.002Z</time></trkpt><trkpt lat="43.92713699798238" lon="10.894426327334543"><ele>67.0</ele><time>2026-04-26T08:54:39.002Z</time></trkpt><trkpt lat="43.92727547378173" lon="10.894308375387814"><ele>67.33333333333333</ele><time>2026-04-26T08:54:40.002Z</time></trkpt><trkpt lat="43.92741791377528" lon="10.894199001821276"><ele>67.66666666666667</ele><time>2026-04-26T08:54:41.002Z</time></trkpt><trkpt lat="43.927569903011936" lon="10.894096015267253"><ele>68.0</ele><time>2026-04-26T08:54:42.002Z</time></trkpt><trkpt lat="43.927724446374526" lon="10.89399294227558"><ele>68.0</ele><time>2026-04-26T08:54:43.002Z</time></trkpt><trkpt lat="43.92788514546858" lon="10.893895173287108"><ele>68.0</ele><time>2026-04-26T08:54:44.002Z</time></trkpt><trkpt lat="43.928049921903266" lon="10.89380721418882"><ele>68.0</ele><time>2026-04-26T08:54:45.002Z</time></trkpt><trkpt lat="43.92821168329032" lon="10.893734563401786"><ele>68.0</ele><time>2026-04-26T08:54:46.002Z</time></trkpt><trkpt lat="43.92837124896964" lon="10.893669541447759"><ele>68.0</ele><time>2026-04-26T08:54:47.002Z</time></trkpt><trkpt lat="43.92852601109955" lon="10.893617630309626"><ele>68.0</ele><time>2026-04-26T08:54:48.002Z</time></trkpt><trkpt lat="43.9286805408533" lon="10.893568793130699"><ele>68.33333333333334</ele><time>2026-04-26T08:54:49.002Z</time></trkpt><trkpt lat="43.92882614391234" lon="10.89352684175917"><ele>68.66666666666667</ele><time>2026-04-26T08:54:50.002Z</time></trkpt><trkpt lat="43.92897380042066" lon="10.893488637075668"><ele>69.0</ele><time>2026-04-26T08:54:51.002Z</time></trkpt><trkpt lat="43.929126046682036" lon="10.89345911750422"><ele>69.33333333333333</ele><time>2026-04-26T08:54:52.002Z</time></trkpt><trkpt lat="43.92927689179647" lon="10.893432323676269"><ele>69.66666666666666</ele><time>2026-04-26T08:54:53.002Z</time></trkpt><trkpt lat="43.92942186387343" lon="10.893408972932358"><ele>70.0</ele><time>2026-04-26T08:54:54.002Z</time></trkpt><trkpt lat="43.929573860821066" lon="10.893396193209657"><ele>70.0</ele><time>2026-04-26T08:54:55.002Z</time></trkpt><trkpt lat="43.92972710638056" lon="10.893395037345726"><ele>70.0</ele><time>2026-04-26T08:54:56.002Z</time></trkpt><trkpt lat="43.92988160670613" lon="10.893403747829977"><ele>70.0</ele><time>2026-04-26T08:54:57.002Z</time></trkpt><trkpt lat="43.93002550508637" lon="10.893418961939314"><ele>70.25</ele><time>2026-04-26T08:54:58.002Z</time></trkpt><trkpt lat="43.93016686753151" lon="10.893428794286097"><ele>70.5</ele><time>2026-04-26T08:54:59.002Z</time></trkpt><trkpt lat="43.93030394478892" lon="10.893433319434026"><ele>70.75</ele><time>2026-04-26T08:55:00.002Z</time></trkpt><trkpt lat="43.9304494674105" lon="10.8934292618872"><ele>71.0</ele><time>2026-04-26T08:55:01.002Z</time></trkpt><trkpt lat="43.930584529636725" lon="10.893432252407349"><ele>71.0</ele><time>2026-04-26T08:55:02.002Z</time></trkpt><trkpt lat="43.93070830379911" lon="10.893437633717266"><ele>71.0</ele><time>2026-04-26T08:55:03.002Z</time></trkpt><trkpt lat="43.930812547833355" lon="10.893441133595129"><ele>71.0</ele><time>2026-04-26T08:55:04.002Z</time></trkpt><trkpt lat="43.930912283772386" lon="10.89345120128105"><ele>71.0</ele><time>2026-04-26T08:55:05.002Z</time></trkpt><trkpt lat="43.930993840890466" lon="10.893493723909176"><ele>71.0</ele><time>2026-04-26T08:55:06.002Z</time></trkpt><trkpt lat="43.93106295503303" lon="10.893557647205869"><ele>71.2</ele><time>2026-04-26T08:55:07.002Z</time></trkpt><trkpt lat="43.9311143306059" lon="10.893641670047174"><ele>71.39999999999999</ele><time>2026-04-26T08:55:08.002Z</time></trkpt><trkpt lat="43.93114289066653" lon="10.893736916016026"><ele>71.6</ele><time>2026-04-26T08:55:09.002Z</time></trkpt><trkpt lat="43.931152861882204" lon="10.893874787020962"><ele>71.8</ele><time>2026-04-26T08:55:10.002Z</time></trkpt><trkpt lat="43.93115342103544" lon="10.89401536156291"><ele>72.0</ele><time>2026-04-26T08:55:11.002Z</time></trkpt><trkpt lat="43.93115090991576" lon="10.894163727612689"><ele>71.8</ele><time>2026-04-26T08:55:12.002Z</time></trkpt><trkpt lat="43.931151158641114" lon="10.89431509653152"><ele>71.6</ele><time>2026-04-26T08:55:13.002Z</time></trkpt><trkpt lat="43.93116558051003" lon="10.894449930803654"><ele>71.39999999999999</ele><time>2026-04-26T08:55:14.002Z</time></trkpt><trkpt lat="43.93120025202702" lon="10.894572847394217"><ele>71.2</ele><time>2026-04-26T08:55:15.002Z</time></trkpt><trkpt lat="43.93125632867711" lon="10.894697210874487"><ele>71.0</ele><time>2026-04-26T08:55:16.002Z</time></trkpt><trkpt lat="43.93132616193492" lon="10.894813775758179"><ele>71.0</ele><time>2026-04-26T08:55:17.002Z</time></trkpt><trkpt lat="43.93141481503069" lon="10.894911296504173"><ele>71.0</ele><time>2026-04-26T08:55:18.002Z</time></trkpt><trkpt lat="43.9315103546674" lon="10.89500359861221"><ele>71.0</ele><time>2026-04-26T08:55:19.002Z</time></trkpt><trkpt lat="43.93159398014479" lon="10.895085256571308"><ele>71.0</ele><time>2026-04-26T08:55:20.002Z</time></trkpt><trkpt lat="43.93167104222743" lon="10.895160351146577"><ele>71.0</ele><time>2026-04-26T08:55:21.002Z</time></trkpt><trkpt lat="43.9317283090253" lon="10.895207476974456"><ele>71.0</ele><time>2026-04-26T08:55:22.002Z</time></trkpt><trkpt lat="43.93179763289132" lon="10.895234529095774"><ele>71.0</ele><time>2026-04-26T08:55:23.002Z</time></trkpt><trkpt lat="43.9318659202994" lon="10.895240259358316"><ele>71.0</ele><time>2026-04-26T08:55:24.002Z</time></trkpt><trkpt lat="43.931939550151746" lon="10.895236953024186"><ele>71.0</ele><time>2026-04-26T08:55:25.002Z</time></trkpt><trkpt lat="43.932005762292185" lon="10.895227726282672"><ele>71.0</ele><time>2026-04-26T08:55:26.002Z</time></trkpt><trkpt lat="43.93208254806888" lon="10.895209651922245"><ele>71.0</ele><time>2026-04-26T08:55:28.002Z</time></trkpt><trkpt lat="43.932156727012625" lon="10.89520293723488"><ele>71.0</ele><time>2026-04-26T08:55:30.002Z</time></trkpt><trkpt lat="43.9321496219104" lon="10.894945356982465"><ele>71.5</ele><time>2026-04-26T08:55:32.002Z</time></trkpt><trkpt lat="43.93216143831149" lon="10.894808502026901"><ele>72.0</ele><time>2026-04-26T08:55:33.002Z</time></trkpt><trkpt lat="43.93213875171188" lon="10.894648610272066"><ele>72.5</ele><time>2026-04-26T08:55:34.002Z</time></trkpt><trkpt lat="43.93213426294507" lon="10.894460120844686"><ele>73.0</ele><time>2026-04-26T08:55:35.002Z</time></trkpt><trkpt lat="43.93213906094539" lon="10.894253281575525"><ele>73.0</ele><time>2026-04-26T08:55:36.002Z</time></trkpt><trkpt lat="43.93212882756393" lon="10.894026158236002"><ele>73.0</ele><time>2026-04-26T08:55:37.002Z</time></trkpt><trkpt lat="43.932118064189865" lon="10.893793062107449"><ele>73.0</ele><time>2026-04-26T08:55:38.002Z</time></trkpt><trkpt lat="43.93210711770146" lon="10.893554609230248"><ele>72.66666666666666</ele><time>2026-04-26T08:55:39.002Z</time></trkpt><trkpt lat="43.9320961997159" lon="10.893313278083026"><ele>72.33333333333333</ele><time>2026-04-26T08:55:40.002Z</time></trkpt><trkpt lat="43.93208484363861" lon="10.893072003951792"><ele>72.0</ele><time>2026-04-26T08:55:41.002Z</time></trkpt><trkpt lat="43.93207372295288" lon="10.892821144504905"><ele>72.33333333333333</ele><time>2026-04-26T08:55:42.002Z</time></trkpt><trkpt lat="43.93206235626741" lon="10.892562005371651"><ele>72.66666666666666</ele><time>2026-04-26T08:55:43.002Z</time></trkpt><trkpt lat="43.93205032260746" lon="10.892300648431668"><ele>73.0</ele><time>2026-04-26T08:55:44.002Z</time></trkpt><trkpt lat="43.93203796498993" lon="10.892023458868735"><ele>72.66666666666666</ele><time>2026-04-26T08:55:45.002Z</time></trkpt><trkpt lat="43.93202564340506" lon="10.891743692386399"><ele>72.33333333333333</ele><time>2026-04-26T08:55:46.002Z</time></trkpt><trkpt lat="43.93201224187561" lon="10.891449307917906"><ele>72.0</ele><time>2026-04-26T08:55:47.002Z</time></trkpt><trkpt lat="43.93199505669622" lon="10.891158945918077"><ele>72.0</ele><time>2026-04-26T08:55:48.002Z</time></trkpt><trkpt lat="43.93196813729692" lon="10.890864051335843"><ele>72.0</ele><time>2026-04-26T08:55:49.002Z</time></trkpt><trkpt lat="43.93193889931882" lon="10.890575480439823"><ele>72.0</ele><time>2026-04-26T08:55:50.002Z</time></trkpt><trkpt lat="43.93190402634303" lon="10.890290068709222"><ele>72.0</ele><time>2026-04-26T08:55:51.002Z</time></trkpt><trkpt lat="43.9318653379913" lon="10.889991689496417"><ele>72.0</ele><time>2026-04-26T08:55:52.002Z</time></trkpt><trkpt lat="43.93182675410122" lon="10.889709259574017"><ele>72.0</ele><time>2026-04-26T08:55:53.002Z</time></trkpt><trkpt lat="43.93178748777096" lon="10.889427508421097"><ele>71.66666666666667</ele><time>2026-04-26T08:55:54.002Z</time></trkpt><trkpt lat="43.93174724473503" lon="10.88914304675544"><ele>71.33333333333334</ele><time>2026-04-26T08:55:55.002Z</time></trkpt><trkpt lat="43.93171132909593" lon="10.888884946492315"><ele>71.0</ele><time>2026-04-26T08:55:56.002Z</time></trkpt><trkpt lat="43.931662787765674" lon="10.888645401786016"><ele>72.0</ele><time>2026-04-26T08:55:57.002Z</time></trkpt><trkpt lat="43.93164019103923" lon="10.888380758496536"><ele>73.0</ele><time>2026-04-26T08:55:58.002Z</time></trkpt><trkpt lat="43.93160251096579" lon="10.8881191292458"><ele>74.0</ele><time>2026-04-26T08:55:59.002Z</time></trkpt><trkpt lat="43.93156350481976" lon="10.887848898380916"><ele>73.66666666666667</ele><time>2026-04-26T08:56:00.002Z</time></trkpt><trkpt lat="43.93152282708544" lon="10.88756734708372"><ele>73.33333333333333</ele><time>2026-04-26T08:56:01.002Z</time></trkpt><trkpt lat="43.93148231820339" lon="10.887289133829963"><ele>73.0</ele><time>2026-04-26T08:56:02.002Z</time></trkpt><trkpt lat="43.93144139839944" lon="10.887003980461106"><ele>73.33333333333333</ele><time>2026-04-26T08:56:03.002Z</time></trkpt><trkpt lat="43.93140093408812" lon="10.886722001244555"><ele>73.66666666666667</ele><time>2026-04-26T08:56:04.002Z</time></trkpt><trkpt lat="43.93134281642546" lon="10.886449214328806"><ele>74.0</ele><time>2026-04-26T08:56:05.002Z</time></trkpt><trkpt lat="43.93130722542066" lon="10.886182217867004"><ele>76.0</ele><time>2026-04-26T08:56:06.002Z</time></trkpt><trkpt lat="43.93127163314173" lon="10.885917616606692"><ele>78.0</ele><time>2026-04-26T08:56:07.002Z</time></trkpt><trkpt lat="43.93124111327867" lon="10.885645788322948"><ele>80.0</ele><time>2026-04-26T08:56:08.002Z</time></trkpt><trkpt lat="43.93121041370213" lon="10.885376011662554"><ele>80.0</ele><time>2026-04-26T08:56:09.002Z</time></trkpt><trkpt lat="43.93116549506719" lon="10.885122948220953"><ele>80.0</ele><time>2026-04-26T08:56:10.002Z</time></trkpt><trkpt lat="43.93112657325622" lon="10.884889186902543"><ele>80.0</ele><time>2026-04-26T08:56:11.002Z</time></trkpt><trkpt lat="43.931099994938236" lon="10.88464770858075"><ele>81.33333333333334</ele><time>2026-04-26T08:56:12.002Z</time></trkpt><trkpt lat="43.93106627638332" lon="10.884399851197946"><ele>82.66666666666667</ele><time>2026-04-26T08:56:13.002Z</time></trkpt><trkpt lat="43.931030092434504" lon="10.884149851115867"><ele>84.0</ele><time>2026-04-26T08:56:14.002Z</time></trkpt><trkpt lat="43.93099121660449" lon="10.883907817839116"><ele>84.33333333333333</ele><time>2026-04-26T08:56:15.002Z</time></trkpt><trkpt lat="43.930955474030945" lon="10.883676364515697"><ele>84.66666666666666</ele><time>2026-04-26T08:56:16.002Z</time></trkpt><trkpt lat="43.930899242656935" lon="10.883472232190101"><ele>85.0</ele><time>2026-04-26T08:56:17.002Z</time></trkpt><trkpt lat="43.93086903151005" lon="10.883237836015574"><ele>88.66666666666666</ele><time>2026-04-26T08:56:18.002Z</time></trkpt><trkpt lat="43.93083347348933" lon="10.883002425778788"><ele>92.33333333333333</ele><time>2026-04-26T08:56:19.002Z</time></trkpt><trkpt lat="43.93081341536749" lon="10.882759689238005"><ele>96.0</ele><time>2026-04-26T08:56:20.002Z</time></trkpt><trkpt lat="43.93078754217294" lon="10.882513168155425"><ele>96.66666666666666</ele><time>2026-04-26T08:56:21.002Z</time></trkpt><trkpt lat="43.93072914305725" lon="10.882269004499713"><ele>97.33333333333333</ele><time>2026-04-26T08:56:22.002Z</time></trkpt><trkpt lat="43.93069713012873" lon="10.882039145847383"><ele>98.0</ele><time>2026-04-26T08:56:23.002Z</time></trkpt><trkpt lat="43.930668778067165" lon="10.881821782455246"><ele>98.33333333333333</ele><time>2026-04-26T08:56:24.002Z</time></trkpt><trkpt lat="43.93064949408138" lon="10.881585388713063"><ele>98.66666666666666</ele><time>2026-04-26T08:56:25.002Z</time></trkpt><trkpt lat="43.93062878805991" lon="10.881358037921045"><ele>99.0</ele><time>2026-04-26T08:56:26.002Z</time></trkpt><trkpt lat="43.930586625865" lon="10.881137009029107"><ele>99.0</ele><time>2026-04-26T08:56:27.002Z</time></trkpt><trkpt lat="43.930553747885746" lon="10.880884821366335"><ele>99.0</ele><time>2026-04-26T08:56:28.002Z</time></trkpt><trkpt lat="43.93052717909859" lon="10.880637764795159"><ele>99.0</ele><time>2026-04-26T08:56:29.002Z</time></trkpt><trkpt lat="43.93048301616144" lon="10.880415925164133"><ele>99.0</ele><time>2026-04-26T08:56:30.002Z</time></trkpt><trkpt lat="43.93043186265669" lon="10.880156795898735"><ele>99.0</ele><time>2026-04-26T08:56:31.002Z</time></trkpt><trkpt lat="43.93041058049132" lon="10.87987767518199"><ele>99.0</ele><time>2026-04-26T08:56:32.002Z</time></trkpt><trkpt lat="43.93038314366976" lon="10.8795895011434"><ele>99.33333333333334</ele><time>2026-04-26T08:56:33.002Z</time></trkpt><trkpt lat="43.930350593266084" lon="10.879318610483287"><ele>99.66666666666667</ele><time>2026-04-26T08:56:34.002Z</time></trkpt><trkpt lat="43.93030776995246" lon="10.879048540952441"><ele>100.0</ele><time>2026-04-26T08:56:35.002Z</time></trkpt><trkpt lat="43.93027344665733" lon="10.878786839276804"><ele>101.0</ele><time>2026-04-26T08:56:36.002Z</time></trkpt><trkpt lat="43.93023375449825" lon="10.87853218339675"><ele>102.0</ele><time>2026-04-26T08:56:37.002Z</time></trkpt><trkpt lat="43.93019452916693" lon="10.878277412585406"><ele>103.0</ele><time>2026-04-26T08:56:38.002Z</time></trkpt><trkpt lat="43.93015512933779" lon="10.878027093430573"><ele>103.0</ele><time>2026-04-26T08:56:39.002Z</time></trkpt><trkpt lat="43.93011736563407" lon="10.877762368657642"><ele>103.0</ele><time>2026-04-26T08:56:40.002Z</time></trkpt><trkpt lat="43.93007432246779" lon="10.87749668091788"><ele>103.0</ele><time>2026-04-26T08:56:41.002Z</time></trkpt><trkpt lat="43.93002393808174" lon="10.877232150543898"><ele>100.66666666666667</ele><time>2026-04-26T08:56:42.002Z</time></trkpt><trkpt lat="43.92995525095169" lon="10.876968076961447"><ele>98.33333333333334</ele><time>2026-04-26T08:56:43.002Z</time></trkpt><trkpt lat="43.92987836306309" lon="10.876706573051152"><ele>96.0</ele><time>2026-04-26T08:56:44.002Z</time></trkpt><trkpt lat="43.929794338969224" lon="10.876451228981576"><ele>96.0</ele><time>2026-04-26T08:56:45.002Z</time></trkpt><trkpt lat="43.92970670724469" lon="10.876205919396538"><ele>96.0</ele><time>2026-04-26T08:56:46.002Z</time></trkpt><trkpt lat="43.9296215296271" lon="10.875971012926875"><ele>96.0</ele><time>2026-04-26T08:56:47.002Z</time></trkpt><trkpt lat="43.92952012988709" lon="10.875737353673921"><ele>96.66666666666666</ele><time>2026-04-26T08:56:48.002Z</time></trkpt><trkpt lat="43.929421339505666" lon="10.875507738956296"><ele>97.33333333333333</ele><time>2026-04-26T08:56:49.002Z</time></trkpt><trkpt lat="43.92932391819744" lon="10.875280263156249"><ele>98.0</ele><time>2026-04-26T08:56:50.002Z</time></trkpt><trkpt lat="43.92923282152155" lon="10.875068023883818"><ele>96.33333333333333</ele><time>2026-04-26T08:56:51.002Z</time></trkpt><trkpt lat="43.92913942385409" lon="10.874850338249859"><ele>94.66666666666666</ele><time>2026-04-26T08:56:52.002Z</time></trkpt><trkpt lat="43.92905639952643" lon="10.874628956222654"><ele>93.0</ele><time>2026-04-26T08:56:53.002Z</time></trkpt><trkpt lat="43.9289809108132" lon="10.874401724725361"><ele>93.66666666666667</ele><time>2026-04-26T08:56:54.002Z</time></trkpt><trkpt lat="43.928903244050666" lon="10.8741719422129"><ele>94.33333333333334</ele><time>2026-04-26T08:56:55.002Z</time></trkpt><trkpt lat="43.928835535602445" lon="10.873946898270951"><ele>95.0</ele><time>2026-04-26T08:56:56.002Z</time></trkpt><trkpt lat="43.928781347299456" lon="10.873724284525037"><ele>95.0</ele><time>2026-04-26T08:56:57.002Z</time></trkpt><trkpt lat="43.928737397732135" lon="10.873516393842099"><ele>95.0</ele><time>2026-04-26T08:56:58.002Z</time></trkpt><trkpt lat="43.928697556160024" lon="10.873301109253122"><ele>95.0</ele><time>2026-04-26T08:56:59.002Z</time></trkpt><trkpt lat="43.92866208238687" lon="10.873084573054028"><ele>97.0</ele><time>2026-04-26T08:57:00.002Z</time></trkpt><trkpt lat="43.92863200076875" lon="10.872872996490186"><ele>99.0</ele><time>2026-04-26T08:57:01.002Z</time></trkpt><trkpt lat="43.9286101028497" lon="10.872657152814309"><ele>101.0</ele><time>2026-04-26T08:57:02.002Z</time></trkpt><trkpt lat="43.928593189560274" lon="10.87243327141756"><ele>101.66666666666666</ele><time>2026-04-26T08:57:03.002Z</time></trkpt><trkpt lat="43.92859365432425" lon="10.87219894859067"><ele>102.33333333333334</ele><time>2026-04-26T08:57:04.002Z</time></trkpt><trkpt lat="43.92858088901349" lon="10.871956407726408"><ele>103.0</ele><time>2026-04-26T08:57:05.002Z</time></trkpt><trkpt lat="43.92856811934577" lon="10.87171378406074"><ele>103.0</ele><time>2026-04-26T08:57:06.002Z</time></trkpt><trkpt lat="43.928554954866605" lon="10.871461064553655"><ele>103.0</ele><time>2026-04-26T08:57:07.002Z</time></trkpt><trkpt lat="43.928541116150356" lon="10.87120006942938"><ele>103.0</ele><time>2026-04-26T08:57:08.002Z</time></trkpt><trkpt lat="43.92852518948932" lon="10.870925956648918"><ele>103.33333333333334</ele><time>2026-04-26T08:57:09.002Z</time></trkpt><trkpt lat="43.92850859990963" lon="10.870640434482935"><ele>103.66666666666666</ele><time>2026-04-26T08:57:10.002Z</time></trkpt><trkpt lat="43.928491644629005" lon="10.870347205564"><ele>104.0</ele><time>2026-04-26T08:57:11.002Z</time></trkpt><trkpt lat="43.92847652372936" lon="10.870058735337654"><ele>105.0</ele><time>2026-04-26T08:57:12.002Z</time></trkpt><trkpt lat="43.9284479591226" lon="10.869774090307164"><ele>106.0</ele><time>2026-04-26T08:57:13.002Z</time></trkpt><trkpt lat="43.92845791017778" lon="10.869513560167544"><ele>107.0</ele><time>2026-04-26T08:57:14.002Z</time></trkpt><trkpt lat="43.928451856850884" lon="10.869267754628375"><ele>108.66666666666666</ele><time>2026-04-26T08:57:15.002Z</time></trkpt><trkpt lat="43.928446648143094" lon="10.869039757806528"><ele>110.33333333333334</ele><time>2026-04-26T08:57:16.002Z</time></trkpt><trkpt lat="43.928440144276074" lon="10.868819589151096"><ele>112.0</ele><time>2026-04-26T08:57:17.002Z</time></trkpt><trkpt lat="43.928436826416004" lon="10.868613777197197"><ele>111.5</ele><time>2026-04-26T08:57:18.002Z</time></trkpt><trkpt lat="43.92842726939413" lon="10.8684120014646"><ele>111.0</ele><time>2026-04-26T08:57:19.002Z</time></trkpt><trkpt lat="43.92842778868" lon="10.868233280705681"><ele>110.5</ele><time>2026-04-26T08:57:20.002Z</time></trkpt><trkpt lat="43.928424646741284" lon="10.868057547268403"><ele>110.0</ele><time>2026-04-26T08:57:21.002Z</time></trkpt><trkpt lat="43.92841796391661" lon="10.867868398757793"><ele>110.0</ele><time>2026-04-26T08:57:22.002Z</time></trkpt><trkpt lat="43.928424134068656" lon="10.867665002438539"><ele>110.0</ele><time>2026-04-26T08:57:23.002Z</time></trkpt><trkpt lat="43.92844133525981" lon="10.86744616035379"><ele>110.0</ele><time>2026-04-26T08:57:24.002Z</time></trkpt><trkpt lat="43.92844266468044" lon="10.86721712892881"><ele>111.0</ele><time>2026-04-26T08:57:25.002Z</time></trkpt><trkpt lat="43.928447327716086" lon="10.86698558961501"><ele>112.0</ele><time>2026-04-26T08:57:26.002Z</time></trkpt><trkpt lat="43.92844859709235" lon="10.866746593135646"><ele>113.0</ele><time>2026-04-26T08:57:27.002Z</time></trkpt><trkpt lat="43.92845082472721" lon="10.866507533110054"><ele>114.66666666666666</ele><time>2026-04-26T08:57:28.002Z</time></trkpt><trkpt lat="43.928451794028646" lon="10.86626458492739"><ele>116.33333333333334</ele><time>2026-04-26T08:57:29.002Z</time></trkpt><trkpt lat="43.92844598374348" lon="10.866021501375698"><ele>118.0</ele><time>2026-04-26T08:57:30.002Z</time></trkpt><trkpt lat="43.92844150318139" lon="10.865807351357693"><ele>119.33333333333334</ele><time>2026-04-26T08:57:31.002Z</time></trkpt><trkpt lat="43.92843484375949" lon="10.865592128987783"><ele>120.66666666666666</ele><time>2026-04-26T08:57:32.002Z</time></trkpt><trkpt lat="43.92842144336168" lon="10.865368294571264"><ele>122.0</ele><time>2026-04-26T08:57:33.002Z</time></trkpt><trkpt lat="43.92841580105323" lon="10.865137115542225"><ele>122.66666666666666</ele><time>2026-04-26T08:57:34.002Z</time></trkpt><trkpt lat="43.928417774345874" lon="10.864900804874836"><ele>123.33333333333334</ele><time>2026-04-26T08:57:35.002Z</time></trkpt><trkpt lat="43.928422849321244" lon="10.864649590916201"><ele>124.0</ele><time>2026-04-26T08:57:36.002Z</time></trkpt><trkpt lat="43.9284346547513" lon="10.864392381501602"><ele>123.66666666666667</ele><time>2026-04-26T08:57:37.002Z</time></trkpt><trkpt lat="43.92845787341115" lon="10.864129645498169"><ele>123.33333333333334</ele><time>2026-04-26T08:57:38.002Z</time></trkpt><trkpt lat="43.928487335387885" lon="10.863857486204585"><ele>123.0</ele><time>2026-04-26T08:57:39.002Z</time></trkpt><trkpt lat="43.928524072962865" lon="10.863582234178912"><ele>123.33333333333334</ele><time>2026-04-26T08:57:40.002Z</time></trkpt><trkpt lat="43.92855971213272" lon="10.86330888730769"><ele>123.66666666666667</ele><time>2026-04-26T08:57:41.002Z</time></trkpt><trkpt lat="43.92859539689649" lon="10.863029434013743"><ele>124.0</ele><time>2026-04-26T08:57:42.002Z</time></trkpt><trkpt lat="43.928627390836425" lon="10.862742336567791"><ele>123.33333333333334</ele><time>2026-04-26T08:57:43.002Z</time></trkpt><trkpt lat="43.92866385628932" lon="10.862451800888888"><ele>122.66666666666666</ele><time>2026-04-26T08:57:44.002Z</time></trkpt><trkpt lat="43.928696353873164" lon="10.862173370178906"><ele>122.0</ele><time>2026-04-26T08:57:45.002Z</time></trkpt><trkpt lat="43.928728926445366" lon="10.861910401422778"><ele>122.0</ele><time>2026-04-26T08:57:46.002Z</time></trkpt><trkpt lat="43.92876083280084" lon="10.861637816057689"><ele>122.0</ele><time>2026-04-26T08:57:47.002Z</time></trkpt><trkpt lat="43.92882487669959" lon="10.861373709199185"><ele>122.0</ele><time>2026-04-26T08:57:48.002Z</time></trkpt><trkpt lat="43.928889813172994" lon="10.86110624335859"><ele>121.66666666666666</ele><time>2026-04-26T08:57:49.002Z</time></trkpt><trkpt lat="43.92895677323192" lon="10.860844459009574"><ele>121.33333333333334</ele><time>2026-04-26T08:57:50.002Z</time></trkpt><trkpt lat="43.92902541469004" lon="10.86057610114617"><ele>121.0</ele><time>2026-04-26T08:57:51.002Z</time></trkpt><trkpt lat="43.929093744104456" lon="10.860315891134583"><ele>121.33333333333334</ele><time>2026-04-26T08:57:52.002Z</time></trkpt><trkpt lat="43.929177037995736" lon="10.860067640207317"><ele>121.66666666666666</ele><time>2026-04-26T08:57:53.002Z</time></trkpt><trkpt lat="43.92927853044361" lon="10.85983655507771"><ele>122.0</ele><time>2026-04-26T08:57:54.002Z</time></trkpt><trkpt lat="43.92938731005436" lon="10.859611231269216"><ele>123.66666666666666</ele><time>2026-04-26T08:57:55.002Z</time></trkpt><trkpt lat="43.92950764554654" lon="10.859383095804382"><ele>125.33333333333334</ele><time>2026-04-26T08:57:56.002Z</time></trkpt><trkpt lat="43.92964113638225" lon="10.859175422279007"><ele>127.0</ele><time>2026-04-26T08:57:57.002Z</time></trkpt><trkpt lat="43.929785817919395" lon="10.858976821710545"><ele>127.0</ele><time>2026-04-26T08:57:58.002Z</time></trkpt><trkpt lat="43.92993913057258" lon="10.858783650080525"><ele>127.0</ele><time>2026-04-26T08:57:59.002Z</time></trkpt><trkpt lat="43.93009547078487" lon="10.858587160562148"><ele>127.0</ele><time>2026-04-26T08:58:00.002Z</time></trkpt><trkpt lat="43.9302500715353" lon="10.858393836393386"><ele>128.0</ele><time>2026-04-26T08:58:01.002Z</time></trkpt><trkpt lat="43.93040540801952" lon="10.858201455867503"><ele>129.0</ele><time>2026-04-26T08:58:02.002Z</time></trkpt><trkpt lat="43.93057246066819" lon="10.858013400096963"><ele>130.0</ele><time>2026-04-26T08:58:03.002Z</time></trkpt><trkpt lat="43.93072933404735" lon="10.85781149259661"><ele>129.66666666666669</ele><time>2026-04-26T08:58:04.002Z</time></trkpt><trkpt lat="43.93088609748792" lon="10.857613496925316"><ele>129.33333333333334</ele><time>2026-04-26T08:58:05.002Z</time></trkpt><trkpt lat="43.93104369589814" lon="10.85740223307217"><ele>129.0</ele><time>2026-04-26T08:58:06.002Z</time></trkpt><trkpt lat="43.931198889369384" lon="10.857181689965396"><ele>130.66666666666666</ele><time>2026-04-26T08:58:07.002Z</time></trkpt><trkpt lat="43.93134866843623" lon="10.856956714638923"><ele>132.33333333333331</ele><time>2026-04-26T08:58:08.002Z</time></trkpt><trkpt lat="43.93150220189869" lon="10.856737126914922"><ele>134.0</ele><time>2026-04-26T08:58:09.002Z</time></trkpt><trkpt lat="43.93165355276438" lon="10.856516166094023"><ele>138.0</ele><time>2026-04-26T08:58:10.002Z</time></trkpt><trkpt lat="43.93181039580426" lon="10.856294054314866"><ele>142.0</ele><time>2026-04-26T08:58:11.002Z</time></trkpt><trkpt lat="43.93196778002191" lon="10.856064392532003"><ele>141.66666666666669</ele><time>2026-04-26T08:58:12.002Z</time></trkpt><trkpt lat="43.9321199837428" lon="10.855838394284795"><ele>141.33333333333334</ele><time>2026-04-26T08:58:13.002Z</time></trkpt><trkpt lat="43.93226638591566" lon="10.855653633541488"><ele>141.0</ele><time>2026-04-26T08:58:14.002Z</time></trkpt><trkpt lat="43.932403187278965" lon="10.85548237351805"><ele>141.0</ele><time>2026-04-26T08:58:15.002Z</time></trkpt><trkpt lat="43.93253388068878" lon="10.855308740194852"><ele>141.0</ele><time>2026-04-26T08:58:16.002Z</time></trkpt><trkpt lat="43.93266675414914" lon="10.855125906810777"><ele>141.0</ele><time>2026-04-26T08:58:17.002Z</time></trkpt><trkpt lat="43.93278996718939" lon="10.854945955983785"><ele>143.33333333333334</ele><time>2026-04-26T08:58:18.002Z</time></trkpt><trkpt lat="43.93289799893881" lon="10.854753428104992"><ele>145.66666666666669</ele><time>2026-04-26T08:58:19.002Z</time></trkpt><trkpt lat="43.932988075402776" lon="10.854562545220993"><ele>148.0</ele><time>2026-04-26T08:58:20.002Z</time></trkpt><trkpt lat="43.93308321218446" lon="10.854375582903684"><ele>147.0</ele><time>2026-04-26T08:58:21.002Z</time></trkpt><trkpt lat="43.933184261873244" lon="10.854183420002654"><ele>146.0</ele><time>2026-04-26T08:58:22.002Z</time></trkpt><trkpt lat="43.933296963147235" lon="10.853998142584928"><ele>145.0</ele><time>2026-04-26T08:58:23.002Z</time></trkpt><trkpt lat="43.93342426728803" lon="10.853815839658983"><ele>148.66666666666669</ele><time>2026-04-26T08:58:24.002Z</time></trkpt><trkpt lat="43.93356924592496" lon="10.853627087146975"><ele>152.33333333333334</ele><time>2026-04-26T08:58:25.002Z</time></trkpt><trkpt lat="43.933705055738145" lon="10.853423600279132"><ele>156.0</ele><time>2026-04-26T08:58:26.002Z</time></trkpt><trkpt lat="43.933831202097046" lon="10.853225059351988"><ele>156.0</ele><time>2026-04-26T08:58:27.002Z</time></trkpt><trkpt lat="43.93395624645364" lon="10.853027184769719"><ele>156.0</ele><time>2026-04-26T08:58:28.002Z</time></trkpt><trkpt lat="43.934053411236114" lon="10.85279167030389"><ele>156.0</ele><time>2026-04-26T08:58:29.002Z</time></trkpt><trkpt lat="43.93413600472602" lon="10.852538459673292"><ele>156.0</ele><time>2026-04-26T08:58:30.002Z</time></trkpt><trkpt lat="43.934268954339714" lon="10.852296518067638"><ele>156.0</ele><time>2026-04-26T08:58:31.002Z</time></trkpt><trkpt lat="43.93434620792848" lon="10.852007170783214"><ele>156.0</ele><time>2026-04-26T08:58:32.002Z</time></trkpt><trkpt lat="43.93447796058942" lon="10.851782815091873"><ele>156.0</ele><time>2026-04-26T08:58:33.002Z</time></trkpt><trkpt lat="43.93462288591067" lon="10.851571442081989"><ele>156.0</ele><time>2026-04-26T08:58:34.002Z</time></trkpt><trkpt lat="43.93476943472246" lon="10.85137631126322"><ele>156.0</ele><time>2026-04-26T08:58:35.002Z</time></trkpt><trkpt lat="43.93492531369104" lon="10.851176419707311"><ele>158.33333333333334</ele><time>2026-04-26T08:58:36.002Z</time></trkpt><trkpt lat="43.9350941891006" lon="10.850977600235488"><ele>160.66666666666669</ele><time>2026-04-26T08:58:37.002Z</time></trkpt><trkpt lat="43.935263399040274" lon="10.850788419654993"><ele>163.0</ele><time>2026-04-26T08:58:38.002Z</time></trkpt><trkpt lat="43.93542485009188" lon="10.850587303584689"><ele>163.0</ele><time>2026-04-26T08:58:39.002Z</time></trkpt><trkpt lat="43.93556260869721" lon="10.850389774656497"><ele>163.0</ele><time>2026-04-26T08:58:40.002Z</time></trkpt><trkpt lat="43.93568979333835" lon="10.850187101274763"><ele>163.0</ele><time>2026-04-26T08:58:41.002Z</time></trkpt><trkpt lat="43.93579305265874" lon="10.849958029632598"><ele>163.33333333333334</ele><time>2026-04-26T08:58:42.002Z</time></trkpt><trkpt lat="43.93587772467435" lon="10.849704432670295"><ele>163.66666666666666</ele><time>2026-04-26T08:58:43.001Z</time></trkpt><trkpt lat="43.935975586690354" lon="10.84945947784045"><ele>164.0</ele><time>2026-04-26T08:58:44.001Z</time></trkpt><trkpt lat="43.93607942420579" lon="10.849204478659283"><ele>161.66666666666666</ele><time>2026-04-26T08:58:45.001Z</time></trkpt><trkpt lat="43.93621782132966" lon="10.849005938880918"><ele>159.33333333333334</ele><time>2026-04-26T08:58:46.001Z</time></trkpt><trkpt lat="43.93636405864812" lon="10.848781961917746"><ele>157.0</ele><time>2026-04-26T08:58:47.001Z</time></trkpt><trkpt lat="43.936527630363045" lon="10.848574938389524"><ele>157.5</ele><time>2026-04-26T08:58:48.001Z</time></trkpt><trkpt lat="43.93668801742018" lon="10.848359606364966"><ele>158.0</ele><time>2026-04-26T08:58:49.001Z</time></trkpt><trkpt lat="43.93685534883963" lon="10.848143856883475"><ele>159.0</ele><time>2026-04-26T08:58:50.001Z</time></trkpt><trkpt lat="43.93701932503895" lon="10.847925079918962"><ele>160.0</ele><time>2026-04-26T08:58:51.001Z</time></trkpt><trkpt lat="43.93717912899962" lon="10.847712053085488"><ele>161.0</ele><time>2026-04-26T08:58:52.001Z</time></trkpt><trkpt lat="43.937340340720205" lon="10.847492231549026"><ele>161.0</ele><time>2026-04-26T08:58:53.001Z</time></trkpt><trkpt lat="43.93749921031955" lon="10.84727901097464"><ele>161.0</ele><time>2026-04-26T08:58:54.001Z</time></trkpt><trkpt lat="43.9376452901198" lon="10.847075495768154"><ele>161.0</ele><time>2026-04-26T08:58:55.001Z</time></trkpt><trkpt lat="43.937794476660855" lon="10.84690696896425"><ele>165.0</ele><time>2026-04-26T08:58:56.001Z</time></trkpt><trkpt lat="43.937936519183246" lon="10.846734646971353"><ele>169.0</ele><time>2026-04-26T08:58:57.001Z</time></trkpt><trkpt lat="43.93808322403444" lon="10.846565380631946"><ele>173.0</ele><time>2026-04-26T08:58:58.001Z</time></trkpt><trkpt lat="43.93824188706548" lon="10.846401562399906"><ele>179.66666666666666</ele><time>2026-04-26T08:58:59.001Z</time></trkpt><trkpt lat="43.938406718079484" lon="10.846246167513705"><ele>186.33333333333331</ele><time>2026-04-26T08:59:00.001Z</time></trkpt><trkpt lat="43.93856745414391" lon="10.846108173350519"><ele>193.0</ele><time>2026-04-26T08:59:01.001Z</time></trkpt><trkpt lat="43.93872709229292" lon="10.845977812719322"><ele>191.0</ele><time>2026-04-26T08:59:02.001Z</time></trkpt><trkpt lat="43.938881415652205" lon="10.845844761938672"><ele>189.0</ele><time>2026-04-26T08:59:03.001Z</time></trkpt><trkpt lat="43.93901327570691" lon="10.84570701198996"><ele>187.0</ele><time>2026-04-26T08:59:04.001Z</time></trkpt><trkpt lat="43.93911712914458" lon="10.845523308418295"><ele>187.33333333333334</ele><time>2026-04-26T08:59:05.001Z</time></trkpt><trkpt lat="43.939224057937324" lon="10.845337210034357"><ele>187.66666666666666</ele><time>2026-04-26T08:59:06.001Z</time></trkpt><trkpt lat="43.93933100443114" lon="10.845142642360688"><ele>188.0</ele><time>2026-04-26T08:59:07.001Z</time></trkpt><trkpt lat="43.93945947024756" lon="10.844952988696743"><ele>188.0</ele><time>2026-04-26T08:59:08.001Z</time></trkpt><trkpt lat="43.939573820933454" lon="10.844755111565549"><ele>188.0</ele><time>2026-04-26T08:59:09.001Z</time></trkpt><trkpt lat="43.93969403439245" lon="10.844548462936665"><ele>188.0</ele><time>2026-04-26T08:59:10.001Z</time></trkpt><trkpt lat="43.93982061159916" lon="10.844330875494537"><ele>185.33333333333331</ele><time>2026-04-26T08:59:11.001Z</time></trkpt><trkpt lat="43.939945615586474" lon="10.84411535409671"><ele>182.66666666666666</ele><time>2026-04-26T08:59:12.001Z</time></trkpt><trkpt lat="43.94006388703751" lon="10.843911585769204"><ele>180.0</ele><time>2026-04-26T08:59:13.001Z</time></trkpt><trkpt lat="43.940182501155896" lon="10.843707227030551"><ele>181.66666666666666</ele><time>2026-04-26T08:59:14.001Z</time></trkpt><trkpt lat="43.94029506209058" lon="10.843513211847148"><ele>183.33333333333331</ele><time>2026-04-26T08:59:15.001Z</time></trkpt><trkpt lat="43.94039985992942" lon="10.843330446434702"><ele>185.0</ele><time>2026-04-26T08:59:16.001Z</time></trkpt><trkpt lat="43.94049861342605" lon="10.843158222267931"><ele>185.0</ele><time>2026-04-26T08:59:17.001Z</time></trkpt><trkpt lat="43.940590742312054" lon="10.842997957868757"><ele>185.0</ele><time>2026-04-26T08:59:18.001Z</time></trkpt><trkpt lat="43.940677233324784" lon="10.842847815586431"><ele>185.0</ele><time>2026-04-26T08:59:19.001Z</time></trkpt><trkpt lat="43.940762630410056" lon="10.842699572229014"><ele>185.0</ele><time>2026-04-26T08:59:20.001Z</time></trkpt><trkpt lat="43.94083779845077" lon="10.842536335683477"><ele>188.75</ele><time>2026-04-26T08:59:21.001Z</time></trkpt><trkpt lat="43.94092695053225" lon="10.842382791350209"><ele>192.5</ele><time>2026-04-26T08:59:22.001Z</time></trkpt><trkpt lat="43.94103031570936" lon="10.842235674667233"><ele>196.25</ele><time>2026-04-26T08:59:23.001Z</time></trkpt><trkpt lat="43.94111071157784" lon="10.842060988554124"><ele>200.0</ele><time>2026-04-26T08:59:24.001Z</time></trkpt><trkpt lat="43.94120404857052" lon="10.841906103997413"><ele>197.75</ele><time>2026-04-26T08:59:25.001Z</time></trkpt><trkpt lat="43.94129315383778" lon="10.841761917270333"><ele>195.5</ele><time>2026-04-26T08:59:26.001Z</time></trkpt><trkpt lat="43.94138405964848" lon="10.841653281873361"><ele>193.25</ele><time>2026-04-26T08:59:27.001Z</time></trkpt><trkpt lat="43.9414556290731" lon="10.841525085474746"><ele>191.0</ele><time>2026-04-26T08:59:28.001Z</time></trkpt><trkpt lat="43.94151128930001" lon="10.841396270461074"><ele>191.0</ele><time>2026-04-26T08:59:29.001Z</time></trkpt><trkpt lat="43.94155858644169" lon="10.841276392985616"><ele>191.0</ele><time>2026-04-26T08:59:30.001Z</time></trkpt><trkpt lat="43.941588196645824" lon="10.841140630685807"><ele>191.0</ele><time>2026-04-26T08:59:31.002Z</time></trkpt><trkpt lat="43.94159819023243" lon="10.840992656829595"><ele>191.0</ele><time>2026-04-26T08:59:32.002Z</time></trkpt><trkpt lat="43.9415928527058" lon="10.840841089109484"><ele>191.0</ele><time>2026-04-26T08:59:33.002Z</time></trkpt><trkpt lat="43.941579701346015" lon="10.840686958104751"><ele>191.0</ele><time>2026-04-26T08:59:34.001Z</time></trkpt><trkpt lat="43.941565495258736" lon="10.84052632864704"><ele>191.0</ele><time>2026-04-26T08:59:35.001Z</time></trkpt><trkpt lat="43.94155184721747" lon="10.84035947893453"><ele>191.0</ele><time>2026-04-26T08:59:36.001Z</time></trkpt><trkpt lat="43.941536550011946" lon="10.840201401277097"><ele>191.0</ele><time>2026-04-26T08:59:37.001Z</time></trkpt><trkpt lat="43.94152431355268" lon="10.840052488369977"><ele>191.0</ele><time>2026-04-26T08:59:38.001Z</time></trkpt><trkpt lat="43.941522853343756" lon="10.83989591756307"><ele>191.0</ele><time>2026-04-26T08:59:39.001Z</time></trkpt><trkpt lat="43.941523977276894" lon="10.839733160719183"><ele>191.0</ele><time>2026-04-26T08:59:40.001Z</time></trkpt><trkpt lat="43.94153076048162" lon="10.839557256974146"><ele>191.0</ele><time>2026-04-26T08:59:41.001Z</time></trkpt><trkpt lat="43.94155208630714" lon="10.839383749559811"><ele>191.8</ele><time>2026-04-26T08:59:42.002Z</time></trkpt><trkpt lat="43.9415881574119" lon="10.839229695283374"><ele>192.60000000000002</ele><time>2026-04-26T08:59:43.001Z</time></trkpt><trkpt lat="43.941632473405534" lon="10.839090959592415"><ele>193.4</ele><time>2026-04-26T08:59:44.001Z</time></trkpt><trkpt lat="43.94168193051092" lon="10.838958901775063"><ele>194.2</ele><time>2026-04-26T08:59:45.001Z</time></trkpt><trkpt lat="43.941746270678244" lon="10.838824589527455"><ele>195.0</ele><time>2026-04-26T08:59:46.001Z</time></trkpt><trkpt lat="43.94182684192379" lon="10.838690091276622"><ele>195.0</ele><time>2026-04-26T08:59:47.001Z</time></trkpt><trkpt lat="43.94191464800648" lon="10.838548252806383"><ele>195.0</ele><time>2026-04-26T08:59:48.001Z</time></trkpt><trkpt lat="43.94202804441208" lon="10.838423579191936"><ele>195.0</ele><time>2026-04-26T08:59:49.001Z</time></trkpt><trkpt lat="43.942142308597646" lon="10.838265631827626"><ele>195.0</ele><time>2026-04-26T08:59:50.001Z</time></trkpt><trkpt lat="43.94226104146203" lon="10.83809744262056"><ele>197.66666666666669</ele><time>2026-04-26T08:59:51.001Z</time></trkpt><trkpt lat="43.94237998945629" lon="10.837923654384106"><ele>200.33333333333334</ele><time>2026-04-26T08:59:52.001Z</time></trkpt><trkpt lat="43.94248788430863" lon="10.837763376863736"><ele>203.0</ele><time>2026-04-26T08:59:53.001Z</time></trkpt><trkpt lat="43.942587140577196" lon="10.837621107447676"><ele>203.60000000000002</ele><time>2026-04-26T08:59:54.001Z</time></trkpt><trkpt lat="43.94266583553515" lon="10.837499927397879"><ele>204.20000000000002</ele><time>2026-04-26T08:59:55.001Z</time></trkpt><trkpt lat="43.94273392683358" lon="10.837399398410659"><ele>204.8</ele><time>2026-04-26T08:59:56.001Z</time></trkpt><trkpt lat="43.9428132620512" lon="10.837327755248385"><ele>205.4</ele><time>2026-04-26T08:59:57.001Z</time></trkpt><trkpt lat="43.942873806109006" lon="10.837243409246467"><ele>206.0</ele><time>2026-04-26T08:59:58.001Z</time></trkpt><trkpt lat="43.94293558770113" lon="10.837158280799759"><ele>206.0</ele><time>2026-04-26T08:59:59.001Z</time></trkpt><trkpt lat="43.94300352917974" lon="10.837067338212693"><ele>206.0</ele><time>2026-04-26T09:00:00.001Z</time></trkpt><trkpt lat="43.943071464589195" lon="10.836978848947215"><ele>206.0</ele><time>2026-04-26T09:00:01.001Z</time></trkpt><trkpt lat="43.94314097704479" lon="10.836891970182402"><ele>206.0</ele><time>2026-04-26T09:00:02.001Z</time></trkpt><trkpt lat="43.94321518187369" lon="10.836804434034308"><ele>206.0</ele><time>2026-04-26T09:00:03.001Z</time></trkpt><trkpt lat="43.943277003485136" lon="10.8367182219347"><ele>206.16666666666669</ele><time>2026-04-26T09:00:04.001Z</time></trkpt><trkpt lat="43.943334998852926" lon="10.836634653874947"><ele>206.33333333333334</ele><time>2026-04-26T09:00:05.001Z</time></trkpt><trkpt lat="43.943389670236236" lon="10.836552600770407"><ele>206.5</ele><time>2026-04-26T09:00:06.001Z</time></trkpt><trkpt lat="43.94345063128894" lon="10.836473738967808"><ele>206.66666666666669</ele><time>2026-04-26T09:00:07.001Z</time></trkpt><trkpt lat="43.94352885967048" lon="10.83643301671259"><ele>206.83333333333334</ele><time>2026-04-26T09:00:08.001Z</time></trkpt><trkpt lat="43.943604722301465" lon="10.836430710664628"><ele>207.0</ele><time>2026-04-26T09:00:09.001Z</time></trkpt><trkpt lat="43.94367414508165" lon="10.836421786579693"><ele>207.0</ele><time>2026-04-26T09:00:10.001Z</time></trkpt><trkpt lat="43.94374975318076" lon="10.836405419855089"><ele>207.0</ele><time>2026-04-26T09:00:11.001Z</time></trkpt><trkpt lat="43.943818644341995" lon="10.836359490480971"><ele>207.0</ele><time>2026-04-26T09:00:12.001Z</time></trkpt><trkpt lat="43.94388813736809" lon="10.836313822414036"><ele>207.0</ele><time>2026-04-26T09:00:13.001Z</time></trkpt><trkpt lat="43.94397237976957" lon="10.83624567900196"><ele>207.0</ele><time>2026-04-26T09:00:14.001Z</time></trkpt><trkpt lat="43.94405957456285" lon="10.836144020324609"><ele>207.0</ele><time>2026-04-26T09:00:15.001Z</time></trkpt><trkpt lat="43.94416134502084" lon="10.836065458708827"><ele>207.5</ele><time>2026-04-26T09:00:16.001Z</time></trkpt><trkpt lat="43.94425951302244" lon="10.835984847243882"><ele>208.0</ele><time>2026-04-26T09:00:17.001Z</time></trkpt><trkpt lat="43.94436125618747" lon="10.835910139226556"><ele>208.5</ele><time>2026-04-26T09:00:18.001Z</time></trkpt><trkpt lat="43.94447318361544" lon="10.835842601122335"><ele>209.0</ele><time>2026-04-26T09:00:19.001Z</time></trkpt><trkpt lat="43.94458872622861" lon="10.835778663595743"><ele>212.0</ele><time>2026-04-26T09:00:20.001Z</time></trkpt><trkpt lat="43.944698720412156" lon="10.835694192722192"><ele>215.0</ele><time>2026-04-26T09:00:21.001Z</time></trkpt><trkpt lat="43.94481182525617" lon="10.835640624052433"><ele>218.0</ele><time>2026-04-26T09:00:22.001Z</time></trkpt><trkpt lat="43.944905306007996" lon="10.835563651869759"><ele>221.0</ele><time>2026-04-26T09:00:23.001Z</time></trkpt><trkpt lat="43.94498699380969" lon="10.835480345363482"><ele>221.0</ele><time>2026-04-26T09:00:24.001Z</time></trkpt><trkpt lat="43.9450553376042" lon="10.835388121522321"><ele>221.00000000000003</ele><time>2026-04-26T09:00:25.001Z</time></trkpt><trkpt lat="43.945130295664114" lon="10.835293719380333"><ele>221.00000000000003</ele><time>2026-04-26T09:00:26.001Z</time></trkpt><trkpt lat="43.94522033847297" lon="10.835216520569675"><ele>221.0</ele><time>2026-04-26T09:00:27.001Z</time></trkpt><trkpt lat="43.94531468856022" lon="10.835147640278732"><ele>221.0</ele><time>2026-04-26T09:00:28.001Z</time></trkpt><trkpt lat="43.94541609687083" lon="10.83509979119101"><ele>223.4</ele><time>2026-04-26T09:00:29.001Z</time></trkpt><trkpt lat="43.94552058495814" lon="10.83503278018614"><ele>225.8</ele><time>2026-04-26T09:00:30.001Z</time></trkpt><trkpt lat="43.94560465223187" lon="10.834954305227775"><ele>228.20000000000002</ele><time>2026-04-26T09:00:31.001Z</time></trkpt><trkpt lat="43.94568410164926" lon="10.834858442532688"><ele>230.60000000000002</ele><time>2026-04-26T09:00:32.001Z</time></trkpt><trkpt lat="43.945758686558676" lon="10.834750748702334"><ele>233.0</ele><time>2026-04-26T09:00:33.001Z</time></trkpt><trkpt lat="43.9458519101148" lon="10.834649644736897"><ele>232.4</ele><time>2026-04-26T09:00:34.001Z</time></trkpt><trkpt lat="43.94593458677346" lon="10.834578613484776"><ele>231.8</ele><time>2026-04-26T09:00:35.001Z</time></trkpt><trkpt lat="43.94603066327108" lon="10.834513446505532"><ele>231.2</ele><time>2026-04-26T09:00:36.001Z</time></trkpt><trkpt lat="43.946119406744536" lon="10.834466685804406"><ele>230.6</ele><time>2026-04-26T09:00:37.001Z</time></trkpt><trkpt lat="43.94622368682369" lon="10.834462386470138"><ele>230.0</ele><time>2026-04-26T09:00:38.001Z</time></trkpt><trkpt lat="43.94632012896633" lon="10.834417893674107"><ele>230.0</ele><time>2026-04-26T09:00:39.001Z</time></trkpt><trkpt lat="43.946421483585866" lon="10.834381524373887"><ele>230.0</ele><time>2026-04-26T09:00:40.001Z</time></trkpt><trkpt lat="43.94652525047145" lon="10.834343003068623"><ele>230.0</ele><time>2026-04-26T09:00:41.001Z</time></trkpt><trkpt lat="43.946626980688876" lon="10.834298245803602"><ele>230.0</ele><time>2026-04-26T09:00:42.001Z</time></trkpt><trkpt lat="43.94672460959184" lon="10.83424616785092"><ele>230.0</ele><time>2026-04-26T09:00:43.001Z</time></trkpt><trkpt lat="43.94681613458511" lon="10.83418370999871"><ele>231.33333333333334</ele><time>2026-04-26T09:00:44.001Z</time></trkpt><trkpt lat="43.946898918811314" lon="10.834117767193554"><ele>232.66666666666669</ele><time>2026-04-26T09:00:45.001Z</time></trkpt><trkpt lat="43.94696886554721" lon="10.834067685068625"><ele>234.0</ele><time>2026-04-26T09:00:46.001Z</time></trkpt><trkpt lat="43.94705465295838" lon="10.83402817000752"><ele>235.33333333333331</ele><time>2026-04-26T09:00:47.001Z</time></trkpt><trkpt lat="43.94714488288566" lon="10.834002769441799"><ele>236.66666666666666</ele><time>2026-04-26T09:00:48.001Z</time></trkpt><trkpt lat="43.94723422783493" lon="10.833995577451924"><ele>238.0</ele><time>2026-04-26T09:00:49.001Z</time></trkpt><trkpt lat="43.947304252403654" lon="10.8339708709762"><ele>237.99999999999997</ele><time>2026-04-26T09:00:50.001Z</time></trkpt><trkpt lat="43.94737183947521" lon="10.833907141038132"><ele>238.0</ele><time>2026-04-26T09:00:51.001Z</time></trkpt><trkpt lat="43.94743120520937" lon="10.83382309960412"><ele>238.0</ele><time>2026-04-26T09:00:52.001Z</time></trkpt><trkpt lat="43.9474910789885" lon="10.833712395261967"><ele>238.0</ele><time>2026-04-26T09:00:53.001Z</time></trkpt><trkpt lat="43.94754436525305" lon="10.833597551604893"><ele>237.99999999999997</ele><time>2026-04-26T09:00:54.001Z</time></trkpt><trkpt lat="43.94759123101457" lon="10.833500812090877"><ele>238.0</ele><time>2026-04-26T09:00:55.001Z</time></trkpt><trkpt lat="43.94763881523032" lon="10.833392409705322"><ele>238.4</ele><time>2026-04-26T09:00:56.001Z</time></trkpt><trkpt lat="43.947698316592614" lon="10.833285822526582"><ele>238.8</ele><time>2026-04-26T09:00:57.001Z</time></trkpt><trkpt lat="43.94776257585688" lon="10.833187098762583"><ele>239.2</ele><time>2026-04-26T09:00:58.001Z</time></trkpt><trkpt lat="43.94783217716046" lon="10.833102918354799"><ele>239.6</ele><time>2026-04-26T09:00:59.001Z</time></trkpt><trkpt lat="43.94793804677745" lon="10.833072447204287"><ele>240.0</ele><time>2026-04-26T09:01:00.001Z</time></trkpt><trkpt lat="43.948030765164305" lon="10.833033887518363"><ele>240.0</ele><time>2026-04-26T09:01:01.001Z</time></trkpt><trkpt lat="43.94812552674278" lon="10.832993063446283"><ele>240.0</ele><time>2026-04-26T09:01:02.001Z</time></trkpt><trkpt lat="43.94820958196333" lon="10.83297427721452"><ele>240.0</ele><time>2026-04-26T09:01:03.001Z</time></trkpt><trkpt lat="43.94829037280204" lon="10.83291992952762"><ele>240.0</ele><time>2026-04-26T09:01:04.001Z</time></trkpt><trkpt lat="43.94835561568415" lon="10.832840003524145"><ele>240.0</ele><time>2026-04-26T09:01:05.001Z</time></trkpt><trkpt lat="43.948436364531474" lon="10.832792776706516"><ele>240.0</ele><time>2026-04-26T09:01:06.001Z</time></trkpt><trkpt lat="43.948498895486054" lon="10.832735408276704"><ele>240.6</ele><time>2026-04-26T09:01:07.001Z</time></trkpt><trkpt lat="43.94856655774545" lon="10.832674289883203"><ele>241.2</ele><time>2026-04-26T09:01:08.001Z</time></trkpt><trkpt lat="43.94863493956245" lon="10.832615704981064"><ele>241.8</ele><time>2026-04-26T09:01:09.001Z</time></trkpt><trkpt lat="43.948712275044045" lon="10.832545118174025"><ele>242.4</ele><time>2026-04-26T09:01:10.001Z</time></trkpt><trkpt lat="43.948806125429776" lon="10.832474066976157"><ele>243.0</ele><time>2026-04-26T09:01:11.001Z</time></trkpt><trkpt lat="43.948907016594404" lon="10.832394071374136"><ele>243.75</ele><time>2026-04-26T09:01:12.001Z</time></trkpt><trkpt lat="43.949008230303775" lon="10.8323120985578"><ele>244.5</ele><time>2026-04-26T09:01:13.001Z</time></trkpt><trkpt lat="43.949109252616516" lon="10.832228383372433"><ele>245.25</ele><time>2026-04-26T09:01:14.001Z</time></trkpt><trkpt lat="43.94921109451558" lon="10.832149625821069"><ele>246.0</ele><time>2026-04-26T09:01:15.001Z</time></trkpt><trkpt lat="43.949301848155756" lon="10.832072733525198"><ele>246.0</ele><time>2026-04-26T09:01:16.002Z</time></trkpt><trkpt lat="43.94938922740497" lon="10.831994851404504"><ele>246.0</ele><time>2026-04-26T09:01:17.002Z</time></trkpt><trkpt lat="43.949472782637564" lon="10.83189554348724"><ele>246.0</ele><time>2026-04-26T09:01:18.002Z</time></trkpt><trkpt lat="43.94955339917075" lon="10.83176803326244"><ele>246.0</ele><time>2026-04-26T09:01:19.002Z</time></trkpt><trkpt lat="43.94962099878846" lon="10.831634807562889"><ele>247.0</ele><time>2026-04-26T09:01:20.002Z</time></trkpt><trkpt lat="43.94969619211043" lon="10.831501152540246"><ele>248.0</ele><time>2026-04-26T09:01:21.002Z</time></trkpt><trkpt lat="43.94977826867316" lon="10.83136315847292"><ele>249.0</ele><time>2026-04-26T09:01:22.002Z</time></trkpt><trkpt lat="43.9498543020873" lon="10.831206785742772"><ele>250.0</ele><time>2026-04-26T09:01:23.002Z</time></trkpt><trkpt lat="43.94995850244233" lon="10.83106200392275"><ele>251.66666666666666</ele><time>2026-04-26T09:01:24.002Z</time></trkpt><trkpt lat="43.95005258558966" lon="10.8308774319873"><ele>253.33333333333331</ele><time>2026-04-26T09:01:25.002Z</time></trkpt><trkpt lat="43.95015105515879" lon="10.83067663536105"><ele>255.0</ele><time>2026-04-26T09:01:26.002Z</time></trkpt><trkpt lat="43.9502740573584" lon="10.830487404199125"><ele>255.0</ele><time>2026-04-26T09:01:27.002Z</time></trkpt><trkpt lat="43.9503845051177" lon="10.830297476132092"><ele>255.0</ele><time>2026-04-26T09:01:28.002Z</time></trkpt><trkpt lat="43.95050826796048" lon="10.830103788236702"><ele>255.0</ele><time>2026-04-26T09:01:29.002Z</time></trkpt><trkpt lat="43.95063687656545" lon="10.829927004763116"><ele>257.0</ele><time>2026-04-26T09:01:30.002Z</time></trkpt><trkpt lat="43.95076371178828" lon="10.829743771282637"><ele>259.0</ele><time>2026-04-26T09:01:31.002Z</time></trkpt><trkpt lat="43.950889126434866" lon="10.829557231881248"><ele>261.0</ele><time>2026-04-26T09:01:32.002Z</time></trkpt><trkpt lat="43.95099372638675" lon="10.829379514152583"><ele>262.3333333333333</ele><time>2026-04-26T09:01:33.002Z</time></trkpt><trkpt lat="43.95110162129483" lon="10.82922171436351"><ele>263.66666666666663</ele><time>2026-04-26T09:01:34.002Z</time></trkpt><trkpt lat="43.951199752945264" lon="10.82905968503347"><ele>265.0</ele><time>2026-04-26T09:01:35.002Z</time></trkpt><trkpt lat="43.9512969029198" lon="10.828899369308152"><ele>265.0</ele><time>2026-04-26T09:01:36.002Z</time></trkpt><trkpt lat="43.951402070457334" lon="10.8287331902028"><ele>265.0</ele><time>2026-04-26T09:01:37.001Z</time></trkpt><trkpt lat="43.951503810274005" lon="10.828572520947812"><ele>265.0</ele><time>2026-04-26T09:01:38.001Z</time></trkpt><trkpt lat="43.95159190503644" lon="10.828429923305773"><ele>265.0</ele><time>2026-04-26T09:01:39.002Z</time></trkpt><trkpt lat="43.95167757006308" lon="10.828306217233886"><ele>267.0</ele><time>2026-04-26T09:01:40.001Z</time></trkpt><trkpt lat="43.95176377657958" lon="10.82818847934103"><ele>269.0</ele><time>2026-04-26T09:01:41.001Z</time></trkpt><trkpt lat="43.95185022745699" lon="10.82806950928448"><ele>271.0</ele><time>2026-04-26T09:01:42.001Z</time></trkpt><trkpt lat="43.951951068205815" lon="10.827990487865833"><ele>273.0</ele><time>2026-04-26T09:01:43.001Z</time></trkpt><trkpt lat="43.9520695573824" lon="10.827947794730722"><ele>273.0</ele><time>2026-04-26T09:01:44.001Z</time></trkpt><trkpt lat="43.952183821146356" lon="10.827929106691775"><ele>273.0</ele><time>2026-04-26T09:01:45.001Z</time></trkpt><trkpt lat="43.952284109149986" lon="10.82795004622826"><ele>273.0</ele><time>2026-04-26T09:01:46.001Z</time></trkpt><trkpt lat="43.952384720533736" lon="10.827976822204803"><ele>273.0</ele><time>2026-04-26T09:01:47.001Z</time></trkpt><trkpt lat="43.952494738826026" lon="10.827988396209268"><ele>273.0</ele><time>2026-04-26T09:01:48.001Z</time></trkpt><trkpt lat="43.95259698355365" lon="10.827953770553911"><ele>273.5</ele><time>2026-04-26T09:01:49.001Z</time></trkpt><trkpt lat="43.95269856085237" lon="10.827883534743494"><ele>274.0</ele><time>2026-04-26T09:01:50.001Z</time></trkpt><trkpt lat="43.95280366102957" lon="10.827813772264404"><ele>274.5</ele><time>2026-04-26T09:01:51.001Z</time></trkpt><trkpt lat="43.952911067438144" lon="10.827734001878692"><ele>275.0</ele><time>2026-04-26T09:01:52.001Z</time></trkpt><trkpt lat="43.95302915247179" lon="10.82767914328749"><ele>275.0</ele><time>2026-04-26T09:01:53.001Z</time></trkpt><trkpt lat="43.953145759579456" lon="10.827661971974305"><ele>275.0</ele><time>2026-04-26T09:01:54.001Z</time></trkpt><trkpt lat="43.95327155047187" lon="10.827661141236442"><ele>275.0</ele><time>2026-04-26T09:01:55.001Z</time></trkpt><trkpt lat="43.95339874505308" lon="10.827684546081901"><ele>275.0</ele><time>2026-04-26T09:01:56.001Z</time></trkpt><trkpt lat="43.953524816568404" lon="10.827701693518256"><ele>276.0</ele><time>2026-04-26T09:01:57.001Z</time></trkpt><trkpt lat="43.95364928780282" lon="10.827700243526499"><ele>277.0</ele><time>2026-04-26T09:01:58.001Z</time></trkpt><trkpt lat="43.95376984053786" lon="10.82768583457715"><ele>278.0</ele><time>2026-04-26T09:01:59.001Z</time></trkpt><trkpt lat="43.9538842949682" lon="10.827693211397719"><ele>279.0</ele><time>2026-04-26T09:02:00.001Z</time></trkpt><trkpt lat="43.953987067661124" lon="10.827685864214308"><ele>279.0</ele><time>2026-04-26T09:02:01.001Z</time></trkpt><trkpt lat="43.95408307965806" lon="10.82769110710947"><ele>279.0</ele><time>2026-04-26T09:02:02.001Z</time></trkpt><trkpt lat="43.95416534591965" lon="10.82766164344387"><ele>279.0</ele><time>2026-04-26T09:02:03.001Z</time></trkpt><trkpt lat="43.9542322450063" lon="10.827621618612287"><ele>279.0</ele><time>2026-04-26T09:02:04.001Z</time></trkpt><trkpt lat="43.954298765986465" lon="10.827567357644345"><ele>279.0</ele><time>2026-04-26T09:02:05.001Z</time></trkpt><trkpt lat="43.95432532248699" lon="10.82743856753636"><ele>279.0</ele><time>2026-04-26T09:02:06.001Z</time></trkpt><trkpt lat="43.95430785826634" lon="10.827315370997697"><ele>281.59999999999997</ele><time>2026-04-26T09:02:07.001Z</time></trkpt><trkpt lat="43.954239066139756" lon="10.82724013120565"><ele>284.2</ele><time>2026-04-26T09:02:08.001Z</time></trkpt><trkpt lat="43.954156237199534" lon="10.827192915728427"><ele>286.79999999999995</ele><time>2026-04-26T09:02:09.001Z</time></trkpt><trkpt lat="43.954046190034504" lon="10.827179531890685"><ele>289.4</ele><time>2026-04-26T09:02:10.001Z</time></trkpt><trkpt lat="43.953919755986895" lon="10.827188780102917"><ele>292.0</ele><time>2026-04-26T09:02:11.001Z</time></trkpt><trkpt lat="43.953766566988534" lon="10.827179116835111"><ele>292.0</ele><time>2026-04-26T09:02:12.001Z</time></trkpt><trkpt lat="43.95360067191727" lon="10.827190346618819"><ele>292.0</ele><time>2026-04-26T09:02:13.001Z</time></trkpt><trkpt lat="43.95343409369671" lon="10.827202386262215"><ele>292.0</ele><time>2026-04-26T09:02:14.001Z</time></trkpt><trkpt lat="43.95326913934678" lon="10.827204864820477"><ele>292.5</ele><time>2026-04-26T09:02:15.001Z</time></trkpt><trkpt lat="43.95312927267622" lon="10.82721947269901"><ele>293.0</ele><time>2026-04-26T09:02:16.001Z</time></trkpt><trkpt lat="43.95302366642833" lon="10.827169928856208"><ele>293.5</ele><time>2026-04-26T09:02:17.001Z</time></trkpt><trkpt lat="43.95292830492467" lon="10.827124499889312"><ele>294.0</ele><time>2026-04-26T09:02:18.001Z</time></trkpt><trkpt lat="43.95288965574523" lon="10.826994194025676"><ele>294.0</ele><time>2026-04-26T09:02:19.001Z</time></trkpt><trkpt lat="43.95287937224626" lon="10.826871395956077"><ele>294.0</ele><time>2026-04-26T09:02:20.001Z</time></trkpt><trkpt lat="43.95289568028456" lon="10.826733788794227"><ele>294.0</ele><time>2026-04-26T09:02:21.001Z</time></trkpt><trkpt lat="43.952960121715925" lon="10.826621897370789"><ele>294.0</ele><time>2026-04-26T09:02:22.001Z</time></trkpt><trkpt lat="43.95305378787275" lon="10.82656780799952"><ele>294.0</ele><time>2026-04-26T09:02:23.001Z</time></trkpt><trkpt lat="43.95316009722644" lon="10.826542062121684"><ele>297.25</ele><time>2026-04-26T09:02:24.001Z</time></trkpt><trkpt lat="43.95327901171207" lon="10.826491538626984"><ele>300.5</ele><time>2026-04-26T09:02:25.001Z</time></trkpt><trkpt lat="43.95341458401051" lon="10.826499658751802"><ele>303.75</ele><time>2026-04-26T09:02:26.001Z</time></trkpt><trkpt lat="43.95356669972216" lon="10.826509126848892"><ele>307.0</ele><time>2026-04-26T09:02:27.001Z</time></trkpt><trkpt lat="43.95371090389728" lon="10.826507003596678"><ele>307.2</ele><time>2026-04-26T09:02:28.001Z</time></trkpt><trkpt lat="43.95383482906516" lon="10.826495059931904"><ele>307.4</ele><time>2026-04-26T09:02:29.001Z</time></trkpt><trkpt lat="43.953926386533965" lon="10.826467050385169"><ele>307.6</ele><time>2026-04-26T09:02:30.001Z</time></trkpt><trkpt lat="43.95398723156891" lon="10.826394232778002"><ele>307.8</ele><time>2026-04-26T09:02:31.001Z</time></trkpt><trkpt lat="43.954003534297414" lon="10.826273745426798"><ele>308.0</ele><time>2026-04-26T09:02:32.001Z</time></trkpt><trkpt lat="43.95397907934538" lon="10.826132440272936"><ele>308.0</ele><time>2026-04-26T09:02:33.001Z</time></trkpt><trkpt lat="43.95390486476971" lon="10.826018900501907"><ele>308.0</ele><time>2026-04-26T09:02:34.001Z</time></trkpt><trkpt lat="43.95379516983014" lon="10.825964873139801"><ele>308.0</ele><time>2026-04-26T09:02:35.001Z</time></trkpt><trkpt lat="43.95367409970642" lon="10.825966273782452"><ele>308.0</ele><time>2026-04-26T09:02:36.001Z</time></trkpt><trkpt lat="43.95355092366064" lon="10.825972845421216"><ele>310.5</ele><time>2026-04-26T09:02:37.001Z</time></trkpt><trkpt lat="43.95343172936221" lon="10.825925303317405"><ele>313.0</ele><time>2026-04-26T09:02:38.001Z</time></trkpt><trkpt lat="43.953332316477116" lon="10.825794872956276"><ele>315.5</ele><time>2026-04-26T09:02:39.001Z</time></trkpt><trkpt lat="43.953262260429916" lon="10.825615307298273"><ele>318.0</ele><time>2026-04-26T09:02:40.001Z</time></trkpt><trkpt lat="43.953206665459916" lon="10.825432340711643"><ele>318.0</ele><time>2026-04-26T09:02:41.001Z</time></trkpt><trkpt lat="43.953156092099626" lon="10.825309585921461"><ele>318.0</ele><time>2026-04-26T09:02:42.001Z</time></trkpt><trkpt lat="43.95305256203011" lon="10.825237943514056"><ele>318.0</ele><time>2026-04-26T09:02:43.001Z</time></trkpt><trkpt lat="43.95292751741333" lon="10.825201034931165"><ele>318.0</ele><time>2026-04-26T09:02:44.001Z</time></trkpt><trkpt lat="43.95280159467288" lon="10.825237307653639"><ele>318.0</ele><time>2026-04-26T09:02:45.001Z</time></trkpt><trkpt lat="43.95268691164359" lon="10.825243014973966"><ele>318.0</ele><time>2026-04-26T09:02:46.001Z</time></trkpt><trkpt lat="43.952588350033764" lon="10.825199507642024"><ele>318.0</ele><time>2026-04-26T09:02:47.001Z</time></trkpt><trkpt lat="43.95249808250152" lon="10.825097736084285"><ele>318.0</ele><time>2026-04-26T09:02:48.001Z</time></trkpt><trkpt lat="43.95241846914759" lon="10.824957395268626"><ele>321.5</ele><time>2026-04-26T09:02:49.001Z</time></trkpt><trkpt lat="43.952330614730066" lon="10.824795136635839"><ele>325.0</ele><time>2026-04-26T09:02:50.001Z</time></trkpt><trkpt lat="43.95225662955618" lon="10.824651392973136"><ele>328.5</ele><time>2026-04-26T09:02:51.001Z</time></trkpt><trkpt lat="43.95222058567828" lon="10.824488456111773"><ele>332.0</ele><time>2026-04-26T09:02:52.001Z</time></trkpt><trkpt lat="43.95220769822202" lon="10.824310065591904"><ele>335.75</ele><time>2026-04-26T09:02:53.001Z</time></trkpt><trkpt lat="43.95220784503739" lon="10.82411404592998"><ele>339.5</ele><time>2026-04-26T09:02:54.001Z</time></trkpt><trkpt lat="43.95218550622321" lon="10.8239454607481"><ele>343.25</ele><time>2026-04-26T09:02:55.001Z</time></trkpt><trkpt lat="43.95212435055352" lon="10.823791762066712"><ele>347.0</ele><time>2026-04-26T09:02:56.001Z</time></trkpt><trkpt lat="43.9520314801682" lon="10.8236531121297"><ele>347.0</ele><time>2026-04-26T09:02:57.001Z</time></trkpt><trkpt lat="43.951957993050385" lon="10.823529969142038"><ele>347.0</ele><time>2026-04-26T09:02:58.001Z</time></trkpt><trkpt lat="43.951927126703985" lon="10.823447353063031"><ele>347.0</ele><time>2026-04-26T09:02:59.001Z</time></trkpt><trkpt lat="43.951990825431224" lon="10.82340623577925"><ele>347.0</ele><time>2026-04-26T09:03:01.001Z</time></trkpt><trkpt lat="43.95210455350683" lon="10.823538870589335"><ele>347.0</ele><time>2026-04-26T09:03:03.001Z</time></trkpt><trkpt lat="43.952191474565865" lon="10.823616859919845"><ele>347.0</ele><time>2026-04-26T09:03:04.001Z</time></trkpt><trkpt lat="43.95228170069141" lon="10.82370712093059"><ele>347.0</ele><time>2026-04-26T09:03:05.001Z</time></trkpt><trkpt lat="43.952377017692996" lon="10.823784793269587"><ele>347.0</ele><time>2026-04-26T09:03:06.001Z</time></trkpt><trkpt lat="43.95243439005718" lon="10.823931082593063"><ele>347.0</ele><time>2026-04-26T09:03:07.001Z</time></trkpt><trkpt lat="43.952453523613265" lon="10.824116939038877"><ele>346.75</ele><time>2026-04-26T09:03:08.001Z</time></trkpt><trkpt lat="43.95245543578722" lon="10.824320718874544"><ele>346.5</ele><time>2026-04-26T09:03:09.001Z</time></trkpt><trkpt lat="43.95248087546741" lon="10.82451878414253"><ele>346.25</ele><time>2026-04-26T09:03:10.001Z</time></trkpt><trkpt lat="43.952510762970135" lon="10.824673159329386"><ele>346.0</ele><time>2026-04-26T09:03:11.001Z</time></trkpt><trkpt lat="43.95257209282042" lon="10.824780420230907"><ele>346.0</ele><time>2026-04-26T09:03:12.001Z</time></trkpt><trkpt lat="43.95265021922265" lon="10.8248339218305"><ele>346.0</ele><time>2026-04-26T09:03:13.001Z</time></trkpt><trkpt lat="43.95275047101853" lon="10.824839272453879"><ele>346.0</ele><time>2026-04-26T09:03:14.001Z</time></trkpt><trkpt lat="43.95287686774745" lon="10.824815267988722"><ele>346.0</ele><time>2026-04-26T09:03:15.001Z</time></trkpt><trkpt lat="43.953029160949015" lon="10.824729997391366"><ele>346.0</ele><time>2026-04-26T09:03:16.001Z</time></trkpt><trkpt lat="43.953178526829305" lon="10.82467779163701"><ele>346.0</ele><time>2026-04-26T09:03:17.001Z</time></trkpt><trkpt lat="43.95332863546996" lon="10.824710675172128"><ele>346.0</ele><time>2026-04-26T09:03:18.001Z</time></trkpt><trkpt lat="43.95349840388767" lon="10.82476241985299"><ele>347.66666666666663</ele><time>2026-04-26T09:03:19.001Z</time></trkpt><trkpt lat="43.953657430813124" lon="10.824815671431166"><ele>349.3333333333333</ele><time>2026-04-26T09:03:20.001Z</time></trkpt><trkpt lat="43.9538263085536" lon="10.82484056959309"><ele>351.0</ele><time>2026-04-26T09:03:21.001Z</time></trkpt><trkpt lat="43.953988692469785" lon="10.824848867625496"><ele>351.0</ele><time>2026-04-26T09:03:22.001Z</time></trkpt><trkpt lat="43.95412648170131" lon="10.824836258362394"><ele>351.0</ele><time>2026-04-26T09:03:23.001Z</time></trkpt><trkpt lat="43.9542454075193" lon="10.824789027272752"><ele>351.0</ele><time>2026-04-26T09:03:24.001Z</time></trkpt><trkpt lat="43.95432558808627" lon="10.824710156577286"><ele>351.0</ele><time>2026-04-26T09:03:25.001Z</time></trkpt><trkpt lat="43.95439356364938" lon="10.82459596938692"><ele>350.0</ele><time>2026-04-26T09:03:26.001Z</time></trkpt><trkpt lat="43.95445912683735" lon="10.824479548055342"><ele>349.0</ele><time>2026-04-26T09:03:27.001Z</time></trkpt><trkpt lat="43.95452934416977" lon="10.824349318990855"><ele>348.0</ele><time>2026-04-26T09:03:28.001Z</time></trkpt><trkpt lat="43.9545729101002" lon="10.824211451186107"><ele>347.0</ele><time>2026-04-26T09:03:29.001Z</time></trkpt><trkpt lat="43.95465639239031" lon="10.824170011633539"><ele>346.0</ele><time>2026-04-26T09:03:30.001Z</time></trkpt><trkpt lat="43.95474770973714" lon="10.824187412086431"><ele>344.25</ele><time>2026-04-26T09:03:31.001Z</time></trkpt><trkpt lat="43.95483516604556" lon="10.824252451419838"><ele>342.5</ele><time>2026-04-26T09:03:32.001Z</time></trkpt><trkpt lat="43.95491697029255" lon="10.824248014890667"><ele>340.75</ele><time>2026-04-26T09:03:33.001Z</time></trkpt><trkpt lat="43.955052595133154" lon="10.82417440908487"><ele>339.0</ele><time>2026-04-26T09:03:35.001Z</time></trkpt><trkpt lat="43.9552025003106" lon="10.824100706566332"><ele>339.0</ele><time>2026-04-26T09:03:36.001Z</time></trkpt><trkpt lat="43.95533106674347" lon="10.823972363781937"><ele>339.0</ele><time>2026-04-26T09:03:37.001Z</time></trkpt><trkpt lat="43.95542783184416" lon="10.823794419763002"><ele>339.0</ele><time>2026-04-26T09:03:38.001Z</time></trkpt><trkpt lat="43.95551273093007" lon="10.823669299608047"><ele>339.0</ele><time>2026-04-26T09:03:39.001Z</time></trkpt><trkpt lat="43.95555994044099" lon="10.82355244377452"><ele>342.2</ele><time>2026-04-26T09:03:40.001Z</time></trkpt><trkpt lat="43.95556480372336" lon="10.823435675474366"><ele>345.4</ele><time>2026-04-26T09:03:41.001Z</time></trkpt><trkpt lat="43.9555308115497" lon="10.823303169618766"><ele>348.6</ele><time>2026-04-26T09:03:42.001Z</time></trkpt><trkpt lat="43.95550012343232" lon="10.823140774113627"><ele>351.8</ele><time>2026-04-26T09:03:43.002Z</time></trkpt><trkpt lat="43.95546862621327" lon="10.822952081394813"><ele>355.0</ele><time>2026-04-26T09:03:44.002Z</time></trkpt><trkpt lat="43.95546039804282" lon="10.822797871474563"><ele>356.6</ele><time>2026-04-26T09:03:45.002Z</time></trkpt><trkpt lat="43.95548105193186" lon="10.822634489972474"><ele>358.2</ele><time>2026-04-26T09:03:46.001Z</time></trkpt><trkpt lat="43.9555457974071" lon="10.822519828086676"><ele>359.79999999999995</ele><time>2026-04-26T09:03:47.001Z</time></trkpt><trkpt lat="43.95565536094107" lon="10.822508481930042"><ele>361.4</ele><time>2026-04-26T09:03:48.001Z</time></trkpt><trkpt lat="43.95575242737094" lon="10.82256000337041"><ele>363.0</ele><time>2026-04-26T09:03:49.002Z</time></trkpt><trkpt lat="43.955820728352215" lon="10.822645552322493"><ele>361.0</ele><time>2026-04-26T09:03:50.002Z</time></trkpt><trkpt lat="43.95585505015207" lon="10.822776053592126"><ele>359.0</ele><time>2026-04-26T09:03:51.002Z</time></trkpt><trkpt lat="43.95591915012201" lon="10.82292442151519"><ele>357.0</ele><time>2026-04-26T09:03:52.001Z</time></trkpt><trkpt lat="43.956024287976604" lon="10.823040974101195"><ele>355.0</ele><time>2026-04-26T09:03:53.001Z</time></trkpt><trkpt lat="43.956128397335284" lon="10.823121398733322"><ele>355.0</ele><time>2026-04-26T09:03:54.002Z</time></trkpt><trkpt lat="43.956249556931134" lon="10.823194767351206"><ele>355.0</ele><time>2026-04-26T09:03:55.001Z</time></trkpt><trkpt lat="43.95637999388364" lon="10.823248985419953"><ele>355.0</ele><time>2026-04-26T09:03:56.001Z</time></trkpt><trkpt lat="43.95651818570643" lon="10.823250284924137"><ele>355.0</ele><time>2026-04-26T09:03:57.001Z</time></trkpt><trkpt lat="43.956661567987865" lon="10.823212394421493"><ele>358.3333333333333</ele><time>2026-04-26T09:03:58.001Z</time></trkpt><trkpt lat="43.95681340895249" lon="10.823135746738817"><ele>361.6666666666667</ele><time>2026-04-26T09:03:59.001Z</time></trkpt><trkpt lat="43.95697100303173" lon="10.823035355292369"><ele>365.0</ele><time>2026-04-26T09:04:00.001Z</time></trkpt><trkpt lat="43.95714442480999" lon="10.822950182243558"><ele>365.0</ele><time>2026-04-26T09:04:01.001Z</time></trkpt><trkpt lat="43.95728315590193" lon="10.822865936509503"><ele>365.0</ele><time>2026-04-26T09:04:02.001Z</time></trkpt><trkpt lat="43.957413901106115" lon="10.822788777307204"><ele>365.0</ele><time>2026-04-26T09:04:03.001Z</time></trkpt><trkpt lat="43.95751297589904" lon="10.822733357649575"><ele>365.0</ele><time>2026-04-26T09:04:04.001Z</time></trkpt><trkpt lat="43.957597067434115" lon="10.822709864933174"><ele>373.2</ele><time>2026-04-26T09:04:05.001Z</time></trkpt><trkpt lat="43.95767408035527" lon="10.822751862516446"><ele>381.4</ele><time>2026-04-26T09:04:06.001Z</time></trkpt><trkpt lat="43.95773387756449" lon="10.82281615254028"><ele>389.6</ele><time>2026-04-26T09:04:07.001Z</time></trkpt><trkpt lat="43.95777926680625" lon="10.822910232934815"><ele>397.8</ele><time>2026-04-26T09:04:08.001Z</time></trkpt><trkpt lat="43.957794150651466" lon="10.82304432478003"><ele>406.0</ele><time>2026-04-26T09:04:09.001Z</time></trkpt><trkpt lat="43.957759682394375" lon="10.823198602400263"><ele>406.0</ele><time>2026-04-26T09:04:10.001Z</time></trkpt><trkpt lat="43.95771114676782" lon="10.823372129856695"><ele>406.0</ele><time>2026-04-26T09:04:11.001Z</time></trkpt><trkpt lat="43.957640473221986" lon="10.823541612554825"><ele>406.0</ele><time>2026-04-26T09:04:12.001Z</time></trkpt><trkpt lat="43.957557340209284" lon="10.823729333554477"><ele>406.0</ele><time>2026-04-26T09:04:13.001Z</time></trkpt><trkpt lat="43.95743033937929" lon="10.823880652465409"><ele>400.0</ele><time>2026-04-26T09:04:14.001Z</time></trkpt><trkpt lat="43.95731071019576" lon="10.824026918113345"><ele>394.0</ele><time>2026-04-26T09:04:15.001Z</time></trkpt><trkpt lat="43.95722025173345" lon="10.824172200762789"><ele>388.0</ele><time>2026-04-26T09:04:16.001Z</time></trkpt><trkpt lat="43.957149213040246" lon="10.82430674941731"><ele>382.0</ele><time>2026-04-26T09:04:17.001Z</time></trkpt><trkpt lat="43.95712155487518" lon="10.82445624726112"><ele>382.0</ele><time>2026-04-26T09:04:18.001Z</time></trkpt><trkpt lat="43.957129625813856" lon="10.8246361706015"><ele>382.0</ele><time>2026-04-26T09:04:19.001Z</time></trkpt><trkpt lat="43.95716602878308" lon="10.82482031075063"><ele>382.0</ele><time>2026-04-26T09:04:20.001Z</time></trkpt><trkpt lat="43.957226673885934" lon="10.825028907476492"><ele>382.0</ele><time>2026-04-26T09:04:21.001Z</time></trkpt><trkpt lat="43.95728546794988" lon="10.825217488201158"><ele>380.5</ele><time>2026-04-26T09:04:22.001Z</time></trkpt><trkpt lat="43.9573544672402" lon="10.825374501075798"><ele>379.0</ele><time>2026-04-26T09:04:23.001Z</time></trkpt><trkpt lat="43.957434359931106" lon="10.825495008031277"><ele>377.5</ele><time>2026-04-26T09:04:24.001Z</time></trkpt><trkpt lat="43.95754122862545" lon="10.825568463588827"><ele>376.0</ele><time>2026-04-26T09:04:25.001Z</time></trkpt><trkpt lat="43.957657521346555" lon="10.825606019875304"><ele>376.0</ele><time>2026-04-26T09:04:26.001Z</time></trkpt><trkpt lat="43.957791546966554" lon="10.825609516290061"><ele>376.0</ele><time>2026-04-26T09:04:27.001Z</time></trkpt><trkpt lat="43.957940372478426" lon="10.825594944759539"><ele>376.0</ele><time>2026-04-26T09:04:28.001Z</time></trkpt><trkpt lat="43.95809143846234" lon="10.825578352076162"><ele>376.0</ele><time>2026-04-26T09:04:29.001Z</time></trkpt><trkpt lat="43.958226099494986" lon="10.825565344197113"><ele>376.0</ele><time>2026-04-26T09:04:30.001Z</time></trkpt><trkpt lat="43.958343165243775" lon="10.825548432785302"><ele>376.0</ele><time>2026-04-26T09:04:31.001Z</time></trkpt><trkpt lat="43.958465027283715" lon="10.825540937819147"><ele>376.0</ele><time>2026-04-26T09:04:32.001Z</time></trkpt><trkpt lat="43.95855435536531" lon="10.825520919904513"><ele>376.0</ele><time>2026-04-26T09:04:33.001Z</time></trkpt><trkpt lat="43.95864229743938" lon="10.8254992907593"><ele>376.0</ele><time>2026-04-26T09:04:34.001Z</time></trkpt><trkpt lat="43.95873685628209" lon="10.825461976846423"><ele>374.20000000000005</ele><time>2026-04-26T09:04:35.001Z</time></trkpt><trkpt lat="43.958822961577376" lon="10.825377498973538"><ele>372.40000000000003</ele><time>2026-04-26T09:04:36.001Z</time></trkpt><trkpt lat="43.95889735549478" lon="10.825271683998048"><ele>370.6</ele><time>2026-04-26T09:04:37.001Z</time></trkpt><trkpt lat="43.958972271448914" lon="10.825168912261743"><ele>368.8</ele><time>2026-04-26T09:04:38.001Z</time></trkpt><trkpt lat="43.95903615745404" lon="10.825045568158007"><ele>367.0</ele><time>2026-04-26T09:04:39.001Z</time></trkpt><trkpt lat="43.95912046941918" lon="10.824961131181597"><ele>374.0</ele><time>2026-04-26T09:04:40.001Z</time></trkpt><trkpt lat="43.959215981223295" lon="10.824895458356702"><ele>381.0</ele><time>2026-04-26T09:04:41.001Z</time></trkpt><trkpt lat="43.95932748811194" lon="10.824834221454616"><ele>388.0</ele><time>2026-04-26T09:04:42.001Z</time></trkpt><trkpt lat="43.95945000005599" lon="10.82480552854701"><ele>395.0</ele><time>2026-04-26T09:04:43.001Z</time></trkpt><trkpt lat="43.95956362534501" lon="10.824737321713911"><ele>395.0</ele><time>2026-04-26T09:04:44.001Z</time></trkpt><trkpt lat="43.959695142688176" lon="10.824732234414018"><ele>395.0</ele><time>2026-04-26T09:04:45.001Z</time></trkpt><trkpt lat="43.959822570675456" lon="10.824712776846262"><ele>395.0</ele><time>2026-04-26T09:04:46.001Z</time></trkpt><trkpt lat="43.959955557868696" lon="10.824697073066975"><ele>395.0</ele><time>2026-04-26T09:04:47.001Z</time></trkpt><trkpt lat="43.960074534688424" lon="10.824676869919244"><ele>394.0</ele><time>2026-04-26T09:04:48.001Z</time></trkpt><trkpt lat="43.960195866543756" lon="10.824682292121384"><ele>393.0</ele><time>2026-04-26T09:04:49.001Z</time></trkpt><trkpt lat="43.96031256915941" lon="10.824695199141862"><ele>392.0</ele><time>2026-04-26T09:04:50.001Z</time></trkpt><trkpt lat="43.96042976303327" lon="10.824701831805056"><ele>391.0</ele><time>2026-04-26T09:04:51.001Z</time></trkpt><trkpt lat="43.96055541067519" lon="10.824692590920792"><ele>391.0</ele><time>2026-04-26T09:04:52.001Z</time></trkpt><trkpt lat="43.960699226387405" lon="10.824638428214778"><ele>391.0</ele><time>2026-04-26T09:04:53.001Z</time></trkpt><trkpt lat="43.96085545438084" lon="10.824582093661748"><ele>391.0</ele><time>2026-04-26T09:04:54.001Z</time></trkpt><trkpt lat="43.96102282082002" lon="10.824518965729883"><ele>389.25</ele><time>2026-04-26T09:04:55.001Z</time></trkpt><trkpt lat="43.961180765816565" lon="10.824446218444436"><ele>387.5</ele><time>2026-04-26T09:04:56.001Z</time></trkpt><trkpt lat="43.96131992351986" lon="10.824368032738656"><ele>385.75</ele><time>2026-04-26T09:04:57.001Z</time></trkpt><trkpt lat="43.961422049870194" lon="10.82428456895713"><ele>384.0</ele><time>2026-04-26T09:04:58.001Z</time></trkpt><trkpt lat="43.96150584399259" lon="10.824178641150382"><ele>389.75</ele><time>2026-04-26T09:04:59.001Z</time></trkpt><trkpt lat="43.96155916546347" lon="10.823992229010061"><ele>395.5</ele><time>2026-04-26T09:05:00.001Z</time></trkpt><trkpt lat="43.961639644228" lon="10.823844316713108"><ele>401.25</ele><time>2026-04-26T09:05:01.001Z</time></trkpt><trkpt lat="43.961738734357034" lon="10.823743296528107"><ele>407.0</ele><time>2026-04-26T09:05:02.001Z</time></trkpt><trkpt lat="43.96186352020687" lon="10.823665518680022"><ele>407.0</ele><time>2026-04-26T09:05:03.001Z</time></trkpt><trkpt lat="43.96200553446177" lon="10.82362629080612"><ele>407.0</ele><time>2026-04-26T09:05:04.001Z</time></trkpt><trkpt lat="43.96214808902243" lon="10.823585997537895"><ele>407.0</ele><time>2026-04-26T09:05:05.001Z</time></trkpt><trkpt lat="43.962296662932474" lon="10.82357184923248"><ele>407.0</ele><time>2026-04-26T09:05:06.001Z</time></trkpt><trkpt lat="43.96245083423448" lon="10.823578698179016"><ele>403.66666666666663</ele><time>2026-04-26T09:05:07.001Z</time></trkpt><trkpt lat="43.962602044816606" lon="10.823571756088187"><ele>400.33333333333337</ele><time>2026-04-26T09:05:08.001Z</time></trkpt><trkpt lat="43.96274715506394" lon="10.823497042238875"><ele>397.0</ele><time>2026-04-26T09:05:09.001Z</time></trkpt><trkpt lat="43.96289534495397" lon="10.823418459787469"><ele>407.6666666666667</ele><time>2026-04-26T09:05:10.001Z</time></trkpt><trkpt lat="43.96305667477534" lon="10.82333923272842"><ele>418.33333333333337</ele><time>2026-04-26T09:05:11.001Z</time></trkpt><trkpt lat="43.963221575073284" lon="10.823227586757211"><ele>429.0</ele><time>2026-04-26T09:05:12.001Z</time></trkpt><trkpt lat="43.96339118587034" lon="10.82314817984489"><ele>429.0</ele><time>2026-04-26T09:05:13.001Z</time></trkpt><trkpt lat="43.963557832849766" lon="10.823058840152038"><ele>429.0</ele><time>2026-04-26T09:05:14.001Z</time></trkpt><trkpt lat="43.96373153578559" lon="10.82296702594757"><ele>429.0</ele><time>2026-04-26T09:05:15.001Z</time></trkpt><trkpt lat="43.96391021087028" lon="10.822875461436354"><ele>429.0</ele><time>2026-04-26T09:05:16.001Z</time></trkpt><trkpt lat="43.96407651725197" lon="10.822793068916665"><ele>429.0</ele><time>2026-04-26T09:05:17.001Z</time></trkpt><trkpt lat="43.96423710082723" lon="10.822713881187484"><ele>429.0</ele><time>2026-04-26T09:05:18.001Z</time></trkpt><trkpt lat="43.96437404635792" lon="10.822645041761396"><ele>429.75</ele><time>2026-04-26T09:05:19.001Z</time></trkpt><trkpt lat="43.96448681504018" lon="10.822565338438347"><ele>430.5</ele><time>2026-04-26T09:05:20.001Z</time></trkpt><trkpt lat="43.9645521206554" lon="10.82245173271312"><ele>431.25</ele><time>2026-04-26T09:05:21.001Z</time></trkpt><trkpt lat="43.96460110959449" lon="10.82230190517978"><ele>432.0</ele><time>2026-04-26T09:05:22.001Z</time></trkpt><trkpt lat="43.96463157925374" lon="10.822121665068169"><ele>432.0</ele><time>2026-04-26T09:05:23.001Z</time></trkpt><trkpt lat="43.964673896031265" lon="10.821922555260862"><ele>432.0</ele><time>2026-04-26T09:05:24.001Z</time></trkpt><trkpt lat="43.96471607539564" lon="10.821707248539406"><ele>432.0</ele><time>2026-04-26T09:05:25.001Z</time></trkpt><trkpt lat="43.96477227298641" lon="10.821507506751075"><ele>432.5</ele><time>2026-04-26T09:05:26.001Z</time></trkpt><trkpt lat="43.96483820849105" lon="10.821352987850215"><ele>433.0</ele><time>2026-04-26T09:05:27.001Z</time></trkpt><trkpt lat="43.96491689277915" lon="10.821220810388056"><ele>433.5</ele><time>2026-04-26T09:05:28.001Z</time></trkpt><trkpt lat="43.965003983652046" lon="10.821109397069879"><ele>434.0</ele><time>2026-04-26T09:05:29.001Z</time></trkpt><trkpt lat="43.965097110698935" lon="10.821021572875903"><ele>436.5</ele><time>2026-04-26T09:05:30.001Z</time></trkpt><trkpt lat="43.96517046874227" lon="10.820924188816669"><ele>439.0</ele><time>2026-04-26T09:05:31.001Z</time></trkpt><trkpt lat="43.96522485340957" lon="10.820814212334541"><ele>441.5</ele><time>2026-04-26T09:05:32.001Z</time></trkpt><trkpt lat="43.965232220765465" lon="10.820648696370254"><ele>444.0</ele><time>2026-04-26T09:05:33.001Z</time></trkpt><trkpt lat="43.96525519398185" lon="10.820459830839651"><ele>444.0</ele><time>2026-04-26T09:05:34.001Z</time></trkpt><trkpt lat="43.96525108751907" lon="10.820263129603902"><ele>444.0</ele><time>2026-04-26T09:05:35.001Z</time></trkpt><trkpt lat="43.965290251098125" lon="10.82007292066398"><ele>444.0</ele><time>2026-04-26T09:05:36.001Z</time></trkpt><trkpt lat="43.965383433061184" lon="10.819881993087083"><ele>447.66666666666663</ele><time>2026-04-26T09:05:37.001Z</time></trkpt><trkpt lat="43.96547667412199" lon="10.819701429193438"><ele>451.3333333333333</ele><time>2026-04-26T09:05:38.001Z</time></trkpt><trkpt lat="43.965584395278725" lon="10.819519522970985"><ele>455.0</ele><time>2026-04-26T09:05:39.001Z</time></trkpt><trkpt lat="43.965685768667754" lon="10.819334316703673"><ele>459.5</ele><time>2026-04-26T09:05:40.001Z</time></trkpt><trkpt lat="43.96578353204218" lon="10.819153395719376"><ele>464.0</ele><time>2026-04-26T09:05:41.001Z</time></trkpt><trkpt lat="43.96586225331642" lon="10.819012136914832"><ele>468.5</ele><time>2026-04-26T09:05:42.001Z</time></trkpt><trkpt lat="43.96593988157403" lon="10.818892998629133"><ele>473.0</ele><time>2026-04-26T09:05:43.001Z</time></trkpt><trkpt lat="43.9660169316995" lon="10.818812607489745"><ele>475.4</ele><time>2026-04-26T09:05:44.001Z</time></trkpt><trkpt lat="43.96610105299426" lon="10.818773721185693"><ele>477.79999999999995</ele><time>2026-04-26T09:05:45.001Z</time></trkpt><trkpt lat="43.96617662410266" lon="10.818767303239248"><ele>480.2</ele><time>2026-04-26T09:05:46.001Z</time></trkpt><trkpt lat="43.966266634040544" lon="10.81876853046607"><ele>482.6</ele><time>2026-04-26T09:05:47.001Z</time></trkpt><trkpt lat="43.966369100217854" lon="10.81888193344761"><ele>485.0</ele><time>2026-04-26T09:05:48.002Z</time></trkpt><trkpt lat="43.9664492023264" lon="10.819009512479639"><ele>485.0</ele><time>2026-04-26T09:05:49.001Z</time></trkpt><trkpt lat="43.96651025921799" lon="10.819183384235426"><ele>485.0</ele><time>2026-04-26T09:05:50.001Z</time></trkpt><trkpt lat="43.966560924639985" lon="10.819364120401342"><ele>485.0</ele><time>2026-04-26T09:05:51.001Z</time></trkpt><trkpt lat="43.96659990551922" lon="10.819556445699948"><ele>485.0</ele><time>2026-04-26T09:05:52.002Z</time></trkpt><trkpt lat="43.96663386748476" lon="10.819768450543991"><ele>482.75</ele><time>2026-04-26T09:05:53.002Z</time></trkpt><trkpt lat="43.966660845367166" lon="10.819989810789473"><ele>480.5</ele><time>2026-04-26T09:05:54.002Z</time></trkpt><trkpt lat="43.96668393723596" lon="10.820196023482486"><ele>478.25</ele><time>2026-04-26T09:05:55.001Z</time></trkpt><trkpt lat="43.96668778463939" lon="10.820375438075931"><ele>476.0</ele><time>2026-04-26T09:05:56.001Z</time></trkpt><trkpt lat="43.966686770059454" lon="10.82053678420462"><ele>478.8</ele><time>2026-04-26T09:05:57.002Z</time></trkpt><trkpt lat="43.96671515984324" lon="10.820690628229839"><ele>481.6</ele><time>2026-04-26T09:05:58.001Z</time></trkpt><trkpt lat="43.96678061542392" lon="10.82084968538848"><ele>484.4</ele><time>2026-04-26T09:05:59.001Z</time></trkpt><trkpt lat="43.966847182955185" lon="10.820966734090309"><ele>487.2</ele><time>2026-04-26T09:06:00.001Z</time></trkpt><trkpt lat="43.96690888990486" lon="10.821055061918623"><ele>490.0</ele><time>2026-04-26T09:06:01.002Z</time></trkpt><trkpt lat="43.96697483733179" lon="10.821107871760274"><ele>490.0</ele><time>2026-04-26T09:06:02.002Z</time></trkpt><trkpt lat="43.9670513008253" lon="10.821139620144749"><ele>490.0</ele><time>2026-04-26T09:06:03.002Z</time></trkpt><trkpt lat="43.96713717229775" lon="10.821128201556254"><ele>490.0</ele><time>2026-04-26T09:06:04.002Z</time></trkpt><trkpt lat="43.96721962541971" lon="10.821066118818775"><ele>490.0</ele><time>2026-04-26T09:06:05.002Z</time></trkpt><trkpt lat="43.967288755866576" lon="10.820935134639619"><ele>490.0</ele><time>2026-04-26T09:06:06.002Z</time></trkpt><trkpt lat="43.96730136369072" lon="10.82078889712772"><ele>490.0</ele><time>2026-04-26T09:06:07.002Z</time></trkpt><trkpt lat="43.96727367139628" lon="10.820646225078404"><ele>490.0</ele><time>2026-04-26T09:06:08.002Z</time></trkpt><trkpt lat="43.96719588917038" lon="10.82053277979708"><ele>490.0</ele><time>2026-04-26T09:06:09.002Z</time></trkpt><trkpt lat="43.96709404059491" lon="10.820432597986452"><ele>490.0</ele><time>2026-04-26T09:06:10.002Z</time></trkpt><trkpt lat="43.96703742471528" lon="10.82035215819804"><ele>490.0</ele><time>2026-04-26T09:06:11.002Z</time></trkpt><trkpt lat="43.96701841414881" lon="10.820252462644262"><ele>490.0</ele><time>2026-04-26T09:06:12.002Z</time></trkpt><trkpt lat="43.9670319709313" lon="10.82014754969686"><ele>490.0</ele><time>2026-04-26T09:06:13.002Z</time></trkpt><trkpt lat="43.96710903180477" lon="10.820072397098842"><ele>490.0</ele><time>2026-04-26T09:06:14.002Z</time></trkpt><trkpt lat="43.96720952462872" lon="10.820078328164584"><ele>490.0</ele><time>2026-04-26T09:06:15.002Z</time></trkpt><trkpt lat="43.96730423886906" lon="10.82011084621605"><ele>490.0</ele><time>2026-04-26T09:06:16.002Z</time></trkpt><trkpt lat="43.96743552304555" lon="10.820226041669418"><ele>493.4</ele><time>2026-04-26T09:06:17.002Z</time></trkpt><trkpt lat="43.967551837254305" lon="10.820341217007961"><ele>496.8</ele><time>2026-04-26T09:06:18.002Z</time></trkpt><trkpt lat="43.96765493847028" lon="10.820416659507744"><ele>500.20000000000005</ele><time>2026-04-26T09:06:19.002Z</time></trkpt><trkpt lat="43.9677535249334" lon="10.820425096173599"><ele>503.6</ele><time>2026-04-26T09:06:20.002Z</time></trkpt><trkpt lat="43.96783712870197" lon="10.820399374087094"><ele>507.0</ele><time>2026-04-26T09:06:21.002Z</time></trkpt><trkpt lat="43.96791254586925" lon="10.820335053068545"><ele>507.0</ele><time>2026-04-26T09:06:22.002Z</time></trkpt><trkpt lat="43.96796054534369" lon="10.820230133561552"><ele>507.0</ele><time>2026-04-26T09:06:23.002Z</time></trkpt><trkpt lat="43.967975930217506" lon="10.820087484221343"><ele>507.0</ele><time>2026-04-26T09:06:24.002Z</time></trkpt><trkpt lat="43.96794389359912" lon="10.819940294305695"><ele>507.0</ele><time>2026-04-26T09:06:25.002Z</time></trkpt><trkpt lat="43.967887714379394" lon="10.819742283742869"><ele>512.5</ele><time>2026-04-26T09:06:26.002Z</time></trkpt><trkpt lat="43.967839416876885" lon="10.819554604440418"><ele>518.0</ele><time>2026-04-26T09:06:27.002Z</time></trkpt><trkpt lat="43.967808315281026" lon="10.819337402903283"><ele>523.5</ele><time>2026-04-26T09:06:28.002Z</time></trkpt><trkpt lat="43.967815481839594" lon="10.819143165747976"><ele>529.0</ele><time>2026-04-26T09:06:29.002Z</time></trkpt><trkpt lat="43.967862458697525" lon="10.819001207670263"><ele>529.4</ele><time>2026-04-26T09:06:30.002Z</time></trkpt><trkpt lat="43.96791485317785" lon="10.818882505061008"><ele>529.8</ele><time>2026-04-26T09:06:31.002Z</time></trkpt><trkpt lat="43.968010114848965" lon="10.818838186787012"><ele>530.2</ele><time>2026-04-26T09:06:32.002Z</time></trkpt><trkpt lat="43.96811943728598" lon="10.81884637749502"><ele>530.6</ele><time>2026-04-26T09:06:33.002Z</time></trkpt><trkpt lat="43.968240534933784" lon="10.818888156341112"><ele>531.0</ele><time>2026-04-26T09:06:34.002Z</time></trkpt><trkpt lat="43.96835634479606" lon="10.818980468616603"><ele>532.5</ele><time>2026-04-26T09:06:35.002Z</time></trkpt><trkpt lat="43.968431852883995" lon="10.819082717363635"><ele>534.0</ele><time>2026-04-26T09:06:36.002Z</time></trkpt><trkpt lat="43.96849005228481" lon="10.819220043503954"><ele>535.5</ele><time>2026-04-26T09:06:37.002Z</time></trkpt><trkpt lat="43.96847248700826" lon="10.819439698270717"><ele>537.0</ele><time>2026-04-26T09:06:38.002Z</time></trkpt><trkpt lat="43.96842786842038" lon="10.81966262987187"><ele>537.0</ele><time>2026-04-26T09:06:39.002Z</time></trkpt><trkpt lat="43.96841123338767" lon="10.81983339150355"><ele>537.0</ele><time>2026-04-26T09:06:40.002Z</time></trkpt><trkpt lat="43.96842098985955" lon="10.819979661496221"><ele>537.0</ele><time>2026-04-26T09:06:41.002Z</time></trkpt><trkpt lat="43.968468967976854" lon="10.820077309119457"><ele>537.0</ele><time>2026-04-26T09:06:42.002Z</time></trkpt><trkpt lat="43.968528955402185" lon="10.820166899717247"><ele>537.0</ele><time>2026-04-26T09:06:43.002Z</time></trkpt><trkpt lat="43.968610624003794" lon="10.82018706960855"><ele>537.0</ele><time>2026-04-26T09:06:44.002Z</time></trkpt><trkpt lat="43.968738526029476" lon="10.820128625363449"><ele>537.0</ele><time>2026-04-26T09:06:45.002Z</time></trkpt><trkpt lat="43.96887945455321" lon="10.82006689406268"><ele>537.0</ele><time>2026-04-26T09:06:46.002Z</time></trkpt><trkpt lat="43.96901324588116" lon="10.820015376056277"><ele>537.0</ele><time>2026-04-26T09:06:47.002Z</time></trkpt><trkpt lat="43.9691761904295" lon="10.81991010773474"><ele>536.0</ele><time>2026-04-26T09:06:48.002Z</time></trkpt><trkpt lat="43.96934074396066" lon="10.819827814095717"><ele>535.0</ele><time>2026-04-26T09:06:49.002Z</time></trkpt><trkpt lat="43.9694967548508" lon="10.819761207296882"><ele>534.0</ele><time>2026-04-26T09:06:50.002Z</time></trkpt><trkpt lat="43.969584198364835" lon="10.819728837597324"><ele>533.0</ele><time>2026-04-26T09:06:51.002Z</time></trkpt><trkpt lat="43.969649047771426" lon="10.81964033533469"><ele>533.0</ele><time>2026-04-26T09:06:52.002Z</time></trkpt><trkpt lat="43.969667936257295" lon="10.819547114021978"><ele>533.0</ele><time>2026-04-26T09:06:53.002Z</time></trkpt><trkpt lat="43.96964913376064" lon="10.819430482156815"><ele>533.0</ele><time>2026-04-26T09:06:54.002Z</time></trkpt><trkpt lat="43.969577652525516" lon="10.819309722828862"><ele>533.0</ele><time>2026-04-26T09:06:55.002Z</time></trkpt><trkpt lat="43.96946902629818" lon="10.81923217933307"><ele>533.0</ele><time>2026-04-26T09:06:56.002Z</time></trkpt><trkpt lat="43.96936815910664" lon="10.819222267394826"><ele>534.0</ele><time>2026-04-26T09:06:57.002Z</time></trkpt><trkpt lat="43.96922383933303" lon="10.819289214124506"><ele>535.0</ele><time>2026-04-26T09:06:58.002Z</time></trkpt><trkpt lat="43.969103060080435" lon="10.819350610203998"><ele>536.0</ele><time>2026-04-26T09:06:59.002Z</time></trkpt><trkpt lat="43.96898843918626" lon="10.819400046844455"><ele>537.0</ele><time>2026-04-26T09:07:00.002Z</time></trkpt><trkpt lat="43.968888626675785" lon="10.819353742206937"><ele>540.5</ele><time>2026-04-26T09:07:01.002Z</time></trkpt><trkpt lat="43.968840669131765" lon="10.819200563093403"><ele>544.0</ele><time>2026-04-26T09:07:02.002Z</time></trkpt><trkpt lat="43.96881563349257" lon="10.819031325724703"><ele>547.5</ele><time>2026-04-26T09:07:03.002Z</time></trkpt><trkpt lat="43.96883549791851" lon="10.818841944567355"><ele>551.0</ele><time>2026-04-26T09:07:04.002Z</time></trkpt><trkpt lat="43.96886218622538" lon="10.818628709559412"><ele>551.75</ele><time>2026-04-26T09:07:05.002Z</time></trkpt><trkpt lat="43.9689007981851" lon="10.818434944747985"><ele>552.5</ele><time>2026-04-26T09:07:06.002Z</time></trkpt><trkpt lat="43.96896889581014" lon="10.818247058097443"><ele>553.25</ele><time>2026-04-26T09:07:07.002Z</time></trkpt><trkpt lat="43.96906243414117" lon="10.818095516939012"><ele>554.0</ele><time>2026-04-26T09:07:08.002Z</time></trkpt><trkpt lat="43.96919845194323" lon="10.81796230008853"><ele>557.0</ele><time>2026-04-26T09:07:09.002Z</time></trkpt><trkpt lat="43.969326519434645" lon="10.817828025936931"><ele>560.0</ele><time>2026-04-26T09:07:10.002Z</time></trkpt><trkpt lat="43.96947409735935" lon="10.81769517277528"><ele>563.0</ele><time>2026-04-26T09:07:11.002Z</time></trkpt><trkpt lat="43.96964296733479" lon="10.817586394411158"><ele>564.0</ele><time>2026-04-26T09:07:12.002Z</time></trkpt><trkpt lat="43.96979808232332" lon="10.817471463773712"><ele>565.0</ele><time>2026-04-26T09:07:13.002Z</time></trkpt><trkpt lat="43.969952464776036" lon="10.81734725281745"><ele>566.0</ele><time>2026-04-26T09:07:14.002Z</time></trkpt><trkpt lat="43.97008352348549" lon="10.81723602696128"><ele>567.0</ele><time>2026-04-26T09:07:15.002Z</time></trkpt><trkpt lat="43.97019754431067" lon="10.817159890601141"><ele>568.0</ele><time>2026-04-26T09:07:16.002Z</time></trkpt><trkpt lat="43.97029504288246" lon="10.81706771496942"><ele>569.0</ele><time>2026-04-26T09:07:17.002Z</time></trkpt><trkpt lat="43.97037147204062" lon="10.81698872242735"><ele>570.0</ele><time>2026-04-26T09:07:18.002Z</time></trkpt><trkpt lat="43.970389050683806" lon="10.816879408481185"><ele>571.0</ele><time>2026-04-26T09:07:19.002Z</time></trkpt><trkpt lat="43.970372533963065" lon="10.816771018898143"><ele>571.5</ele><time>2026-04-26T09:07:20.002Z</time></trkpt><trkpt lat="43.97032131132389" lon="10.816673853835"><ele>572.0</ele><time>2026-04-26T09:07:21.002Z</time></trkpt><trkpt lat="43.97021896940199" lon="10.816608986379988"><ele>572.5</ele><time>2026-04-26T09:07:22.002Z</time></trkpt><trkpt lat="43.97010599306211" lon="10.816578451426116"><ele>573.0</ele><time>2026-04-26T09:07:23.002Z</time></trkpt><trkpt lat="43.969970452451804" lon="10.81658253513434"><ele>573.3333333333334</ele><time>2026-04-26T09:07:24.002Z</time></trkpt><trkpt lat="43.96982428008334" lon="10.81659513281266"><ele>573.6666666666667</ele><time>2026-04-26T09:07:25.002Z</time></trkpt><trkpt lat="43.96966876052754" lon="10.816602353060983"><ele>574.0</ele><time>2026-04-26T09:07:26.002Z</time></trkpt><trkpt lat="43.96950673403284" lon="10.816628048162233"><ele>574.0</ele><time>2026-04-26T09:07:27.002Z</time></trkpt><trkpt lat="43.96933346376131" lon="10.816634357775575"><ele>574.0</ele><time>2026-04-26T09:07:28.002Z</time></trkpt><trkpt lat="43.96916773371922" lon="10.816628511976122"><ele>574.0</ele><time>2026-04-26T09:07:29.002Z</time></trkpt><trkpt lat="43.96902752866846" lon="10.816638777925963"><ele>574.4</ele><time>2026-04-26T09:07:30.002Z</time></trkpt><trkpt lat="43.96890325928301" lon="10.816648127227372"><ele>574.8</ele><time>2026-04-26T09:07:31.002Z</time></trkpt><trkpt lat="43.96880089844037" lon="10.816650785529086"><ele>575.2</ele><time>2026-04-26T09:07:32.002Z</time></trkpt><trkpt lat="43.96872009644624" lon="10.816593939399516"><ele>575.6</ele><time>2026-04-26T09:07:33.002Z</time></trkpt><trkpt lat="43.96867443137313" lon="10.816487552521124"><ele>576.0</ele><time>2026-04-26T09:07:34.002Z</time></trkpt><trkpt lat="43.96868471648318" lon="10.816360963895262"><ele>576.0</ele><time>2026-04-26T09:07:35.002Z</time></trkpt><trkpt lat="43.96873847724558" lon="10.816244209145003"><ele>576.0</ele><time>2026-04-26T09:07:36.002Z</time></trkpt><trkpt lat="43.96882865711905" lon="10.816160716116014"><ele>576.0</ele><time>2026-04-26T09:07:37.002Z</time></trkpt><trkpt lat="43.968953030398616" lon="10.816136815136291"><ele>576.0</ele><time>2026-04-26T09:07:38.002Z</time></trkpt><trkpt lat="43.969095994948944" lon="10.816148623571094"><ele>575.5</ele><time>2026-04-26T09:07:39.002Z</time></trkpt><trkpt lat="43.96924132864359" lon="10.816178373602925"><ele>575.0</ele><time>2026-04-26T09:07:40.002Z</time></trkpt><trkpt lat="43.96938555004958" lon="10.81619001119395"><ele>574.5</ele><time>2026-04-26T09:07:41.002Z</time></trkpt><trkpt lat="43.96949057561807" lon="10.816166704256181"><ele>574.0</ele><time>2026-04-26T09:07:42.002Z</time></trkpt><trkpt lat="43.96956662730156" lon="10.81609263608829"><ele>576.5</ele><time>2026-04-26T09:07:43.002Z</time></trkpt><trkpt lat="43.96967228158517" lon="10.815946980990182"><ele>579.0</ele><time>2026-04-26T09:07:44.002Z</time></trkpt><trkpt lat="43.96976977711252" lon="10.815796756519532"><ele>581.5</ele><time>2026-04-26T09:07:45.002Z</time></trkpt><trkpt lat="43.969866580114875" lon="10.815629264843063"><ele>584.0</ele><time>2026-04-26T09:07:46.002Z</time></trkpt><trkpt lat="43.96997778034767" lon="10.81546123037555"><ele>583.6666666666666</ele><time>2026-04-26T09:07:47.002Z</time></trkpt><trkpt lat="43.970098148334834" lon="10.815295184367494"><ele>583.3333333333334</ele><time>2026-04-26T09:07:48.002Z</time></trkpt><trkpt lat="43.97021821855821" lon="10.815110015642022"><ele>583.0</ele><time>2026-04-26T09:07:49.002Z</time></trkpt><trkpt lat="43.970346108320406" lon="10.814931352999935"><ele>586.0</ele><time>2026-04-26T09:07:50.002Z</time></trkpt><trkpt lat="43.97047156706107" lon="10.814745984735044"><ele>589.0</ele><time>2026-04-26T09:07:51.002Z</time></trkpt><trkpt lat="43.97059156496834" lon="10.814566484425331"><ele>592.0</ele><time>2026-04-26T09:07:52.002Z</time></trkpt><trkpt lat="43.97070477984682" lon="10.814402929696096"><ele>592.75</ele><time>2026-04-26T09:07:53.002Z</time></trkpt><trkpt lat="43.970800429409174" lon="10.81426208737981"><ele>593.5</ele><time>2026-04-26T09:07:54.001Z</time></trkpt><trkpt lat="43.97087709960222" lon="10.814125590389802"><ele>594.25</ele><time>2026-04-26T09:07:55.002Z</time></trkpt><trkpt lat="43.97093814044243" lon="10.813971950335675"><ele>595.0</ele><time>2026-04-26T09:07:56.002Z</time></trkpt><trkpt lat="43.97094966893928" lon="10.813807938093364"><ele>594.5</ele><time>2026-04-26T09:07:57.002Z</time></trkpt><trkpt lat="43.97093061859466" lon="10.813614097556032"><ele>594.0</ele><time>2026-04-26T09:07:58.001Z</time></trkpt><trkpt lat="43.97087355796946" lon="10.813427714454743"><ele>593.5</ele><time>2026-04-26T09:07:59.001Z</time></trkpt><trkpt lat="43.9707797533704" lon="10.813262009564571"><ele>593.0</ele><time>2026-04-26T09:08:00.002Z</time></trkpt><trkpt lat="43.970654834343186" lon="10.813108798900316"><ele>593.0</ele><time>2026-04-26T09:08:01.001Z</time></trkpt><trkpt lat="43.970510254248445" lon="10.812961592106204"><ele>593.0</ele><time>2026-04-26T09:08:02.001Z</time></trkpt><trkpt lat="43.97039531847721" lon="10.812808972829103"><ele>593.0</ele><time>2026-04-26T09:08:03.002Z</time></trkpt><trkpt lat="43.970293842627385" lon="10.812657182147312"><ele>595.6</ele><time>2026-04-26T09:08:04.002Z</time></trkpt><trkpt lat="43.970212266094805" lon="10.812538734007095"><ele>598.1999999999999</ele><time>2026-04-26T09:08:05.002Z</time></trkpt><trkpt lat="43.97014836433674" lon="10.812443851247323"><ele>600.8</ele><time>2026-04-26T09:08:06.002Z</time></trkpt><trkpt lat="43.970122062179534" lon="10.8123277500181"><ele>603.4</ele><time>2026-04-26T09:08:07.002Z</time></trkpt><trkpt lat="43.97014233584142" lon="10.81221714092323"><ele>606.0</ele><time>2026-04-26T09:08:08.002Z</time></trkpt><trkpt lat="43.97021558193101" lon="10.812154294739225"><ele>606.0</ele><time>2026-04-26T09:08:09.002Z</time></trkpt><trkpt lat="43.97029183757391" lon="10.812160544659564"><ele>606.0</ele><time>2026-04-26T09:08:10.002Z</time></trkpt><trkpt lat="43.97037760404566" lon="10.812215833574736"><ele>606.0</ele><time>2026-04-26T09:08:11.002Z</time></trkpt><trkpt lat="43.97046874286448" lon="10.812291698844284"><ele>606.0</ele><time>2026-04-26T09:08:12.002Z</time></trkpt><trkpt lat="43.9705665449495" lon="10.812375754317738"><ele>606.0</ele><time>2026-04-26T09:08:13.002Z</time></trkpt><trkpt lat="43.97067641628925" lon="10.81246661033114"><ele>606.0</ele><time>2026-04-26T09:08:14.002Z</time></trkpt><trkpt lat="43.97083077715949" lon="10.812546789668064"><ele>606.0</ele><time>2026-04-26T09:08:15.002Z</time></trkpt><trkpt lat="43.97097144335196" lon="10.812617501993284"><ele>606.0</ele><time>2026-04-26T09:08:16.002Z</time></trkpt><trkpt lat="43.97112211600854" lon="10.812680415611675"><ele>608.75</ele><time>2026-04-26T09:08:17.002Z</time></trkpt><trkpt lat="43.971258094836536" lon="10.812748815632572"><ele>611.5</ele><time>2026-04-26T09:08:18.002Z</time></trkpt><trkpt lat="43.97134242522025" lon="10.81286589284621"><ele>614.25</ele><time>2026-04-26T09:08:19.002Z</time></trkpt><trkpt lat="43.97139367325222" lon="10.813026852733088"><ele>617.0</ele><time>2026-04-26T09:08:20.002Z</time></trkpt><trkpt lat="43.971411550619685" lon="10.813211336735389"><ele>617.0</ele><time>2026-04-26T09:08:21.002Z</time></trkpt><trkpt lat="43.971386549898405" lon="10.813409407459371"><ele>617.0</ele><time>2026-04-26T09:08:22.002Z</time></trkpt><trkpt lat="43.97135541765864" lon="10.813619130353697"><ele>617.0</ele><time>2026-04-26T09:08:23.002Z</time></trkpt><trkpt lat="43.971308941005184" lon="10.81381333910983"><ele>617.0</ele><time>2026-04-26T09:08:24.002Z</time></trkpt><trkpt lat="43.97127622188732" lon="10.813970379143713"><ele>617.0</ele><time>2026-04-26T09:08:25.002Z</time></trkpt><trkpt lat="43.971246496000596" lon="10.814112844264049"><ele>617.0</ele><time>2026-04-26T09:08:26.002Z</time></trkpt><trkpt lat="43.97121795693641" lon="10.814256719309748"><ele>617.0</ele><time>2026-04-26T09:08:27.002Z</time></trkpt><trkpt lat="43.971201339481475" lon="10.814399492853896"><ele>617.0</ele><time>2026-04-26T09:08:28.002Z</time></trkpt><trkpt lat="43.97121463328878" lon="10.814533831249726"><ele>617.0</ele><time>2026-04-26T09:08:29.002Z</time></trkpt><trkpt lat="43.971281941299836" lon="10.814656746289696"><ele>617.0</ele><time>2026-04-26T09:08:30.002Z</time></trkpt><trkpt lat="43.971400629281995" lon="10.814740823792615"><ele>617.0</ele><time>2026-04-26T09:08:31.002Z</time></trkpt><trkpt lat="43.97152659934499" lon="10.814826215299775"><ele>617.0</ele><time>2026-04-26T09:08:32.002Z</time></trkpt><trkpt lat="43.97164320643293" lon="10.814903277034366"><ele>617.0</ele><time>2026-04-26T09:08:33.002Z</time></trkpt><trkpt lat="43.97174651728214" lon="10.814969817216365"><ele>620.4</ele><time>2026-04-26T09:08:34.002Z</time></trkpt><trkpt lat="43.97182019765467" lon="10.815077715482603"><ele>623.8000000000001</ele><time>2026-04-26T09:08:35.002Z</time></trkpt><trkpt lat="43.9718480617097" lon="10.815228781712882"><ele>627.2</ele><time>2026-04-26T09:08:36.002Z</time></trkpt><trkpt lat="43.97185697011572" lon="10.81539272753997"><ele>630.6</ele><time>2026-04-26T09:08:37.002Z</time></trkpt><trkpt lat="43.97185521353597" lon="10.815540015486338"><ele>634.0</ele><time>2026-04-26T09:08:38.002Z</time></trkpt><trkpt lat="43.97186845301676" lon="10.815651434145392"><ele>634.0</ele><time>2026-04-26T09:08:39.002Z</time></trkpt><trkpt lat="43.97188975789242" lon="10.815764146972011"><ele>634.0</ele><time>2026-04-26T09:08:40.002Z</time></trkpt><trkpt lat="43.97192416820162" lon="10.815873681325348"><ele>634.0</ele><time>2026-04-26T09:08:41.002Z</time></trkpt><trkpt lat="43.97199214468382" lon="10.815966664616441"><ele>634.0</ele><time>2026-04-26T09:08:42.002Z</time></trkpt><trkpt lat="43.97209494456425" lon="10.81605204704608"><ele>634.0</ele><time>2026-04-26T09:08:43.002Z</time></trkpt><trkpt lat="43.97220929169471" lon="10.816113727557298"><ele>630.8333333333334</ele><time>2026-04-26T09:08:44.002Z</time></trkpt><trkpt lat="43.9723040094121" lon="10.816156601370736"><ele>627.6666666666667</ele><time>2026-04-26T09:08:45.002Z</time></trkpt><trkpt lat="43.97238334107627" lon="10.81618906139949"><ele>624.5</ele><time>2026-04-26T09:08:46.002Z</time></trkpt><trkpt lat="43.97245568783583" lon="10.81624090874447"><ele>621.3333333333334</ele><time>2026-04-26T09:08:47.002Z</time></trkpt><trkpt lat="43.972531294120344" lon="10.816302670995142"><ele>618.1666666666666</ele><time>2026-04-26T09:08:48.002Z</time></trkpt><trkpt lat="43.97261052751868" lon="10.816355855097791"><ele>615.0</ele><time>2026-04-26T09:08:49.002Z</time></trkpt><trkpt lat="43.97270074057822" lon="10.816387970356685"><ele>615.0</ele><time>2026-04-26T09:08:50.002Z</time></trkpt><trkpt lat="43.972784780452045" lon="10.81641913672433"><ele>615.0</ele><time>2026-04-26T09:08:51.002Z</time></trkpt><trkpt lat="43.97284964742489" lon="10.816437565975926"><ele>615.0</ele><time>2026-04-26T09:08:52.002Z</time></trkpt><trkpt lat="43.97291933407321" lon="10.816424670395415"><ele>615.0</ele><time>2026-04-26T09:08:54.002Z</time></trkpt><trkpt lat="43.97292647203159" lon="10.816293172335726"><ele>615.0</ele><time>2026-04-26T09:08:56.002Z</time></trkpt><trkpt lat="43.972822985412385" lon="10.816183630132384"><ele>615.0</ele><time>2026-04-26T09:08:58.002Z</time></trkpt><trkpt lat="43.97273986269647" lon="10.816147045946854"><ele>615.0</ele><time>2026-04-26T09:09:00.002Z</time></trkpt><trkpt lat="43.972650911695574" lon="10.816113183117698"><ele>615.0</ele><time>2026-04-26T09:09:03.002Z</time></trkpt><trkpt lat="43.97256709803528" lon="10.81606674048215"><ele>615.0</ele><time>2026-04-26T09:09:05.002Z</time></trkpt><trkpt lat="43.97250098112623" lon="10.816022695471991"><ele>615.0</ele><time>2026-04-26T09:09:07.002Z</time></trkpt><trkpt lat="43.97244666767392" lon="10.815973614891215"><ele>615.0</ele><time>2026-04-26T09:09:09.002Z</time></trkpt><trkpt lat="43.97237975264968" lon="10.815862501302032"><ele>615.0</ele><time>2026-04-26T09:09:11.002Z</time></trkpt><trkpt lat="43.972337602690814" lon="10.815784958296662"><ele>618.1666666666666</ele><time>2026-04-26T09:09:12.002Z</time></trkpt><trkpt lat="43.97231823632101" lon="10.815694555731252"><ele>621.3333333333334</ele><time>2026-04-26T09:09:13.002Z</time></trkpt><trkpt lat="43.97230721208649" lon="10.815601185943608"><ele>624.5</ele><time>2026-04-26T09:09:14.002Z</time></trkpt><trkpt lat="43.97232030461014" lon="10.815507591500701"><ele>627.6666666666667</ele><time>2026-04-26T09:09:15.002Z</time></trkpt><trkpt lat="43.972342957604944" lon="10.815375197695873"><ele>630.8333333333334</ele><time>2026-04-26T09:09:16.002Z</time></trkpt><trkpt lat="43.97236110669138" lon="10.815237924714395"><ele>634.0</ele><time>2026-04-26T09:09:17.002Z</time></trkpt><trkpt lat="43.97239838112626" lon="10.815065566791661"><ele>636.25</ele><time>2026-04-26T09:09:18.002Z</time></trkpt><trkpt lat="43.97244233159554" lon="10.814896044372656"><ele>638.5</ele><time>2026-04-26T09:09:19.002Z</time></trkpt><trkpt lat="43.972498515983695" lon="10.814737091115301"><ele>640.75</ele><time>2026-04-26T09:09:20.002Z</time></trkpt><trkpt lat="43.97257118165603" lon="10.814583098912207"><ele>643.0</ele><time>2026-04-26T09:09:21.002Z</time></trkpt><trkpt lat="43.97263811061164" lon="10.814433197498383"><ele>646.25</ele><time>2026-04-26T09:09:22.002Z</time></trkpt><trkpt lat="43.972679532112174" lon="10.814269447317388"><ele>649.5</ele><time>2026-04-26T09:09:23.002Z</time></trkpt><trkpt lat="43.97271961001115" lon="10.814087362264202"><ele>652.75</ele><time>2026-04-26T09:09:24.002Z</time></trkpt><trkpt lat="43.972765628844776" lon="10.81390818898977"><ele>656.0</ele><time>2026-04-26T09:09:25.002Z</time></trkpt><trkpt lat="43.972777032543526" lon="10.813727624136797"><ele>656.0</ele><time>2026-04-26T09:09:26.002Z</time></trkpt><trkpt lat="43.97275141164791" lon="10.813541416068334"><ele>656.0</ele><time>2026-04-26T09:09:27.002Z</time></trkpt><trkpt lat="43.972712706130984" lon="10.813361960714268"><ele>656.0</ele><time>2026-04-26T09:09:28.002Z</time></trkpt><trkpt lat="43.9726669132293" lon="10.813178079653996"><ele>656.0</ele><time>2026-04-26T09:09:29.002Z</time></trkpt><trkpt lat="43.972612730568436" lon="10.812972169639371"><ele>658.5</ele><time>2026-04-26T09:09:30.002Z</time></trkpt><trkpt lat="43.972560812017996" lon="10.812808195597901"><ele>661.0</ele><time>2026-04-26T09:09:31.002Z</time></trkpt><trkpt lat="43.97249589558457" lon="10.812672803860782"><ele>663.5</ele><time>2026-04-26T09:09:32.002Z</time></trkpt><trkpt lat="43.972413916232014" lon="10.812537116014715"><ele>666.0</ele><time>2026-04-26T09:09:33.002Z</time></trkpt><trkpt lat="43.972316362600246" lon="10.81242051845956"><ele>666.0</ele><time>2026-04-26T09:09:34.002Z</time></trkpt><trkpt lat="43.97222546177143" lon="10.812287612945834"><ele>666.0</ele><time>2026-04-26T09:09:35.002Z</time></trkpt><trkpt lat="43.97214048452797" lon="10.812179742687258"><ele>666.0</ele><time>2026-04-26T09:09:36.002Z</time></trkpt><trkpt lat="43.97205685231376" lon="10.812083298384378"><ele>666.0</ele><time>2026-04-26T09:09:37.002Z</time></trkpt><trkpt lat="43.97199256261854" lon="10.812011466301554"><ele>666.0</ele><time>2026-04-26T09:09:38.002Z</time></trkpt><trkpt lat="43.971921078938685" lon="10.811926551376832"><ele>666.0</ele><time>2026-04-26T09:09:39.002Z</time></trkpt><trkpt lat="43.971841821009754" lon="10.811827420952081"><ele>666.0</ele><time>2026-04-26T09:09:40.002Z</time></trkpt><trkpt lat="43.97175543556757" lon="10.81172188993377"><ele>666.0</ele><time>2026-04-26T09:09:41.002Z</time></trkpt><trkpt lat="43.97167301724924" lon="10.811606697409323"><ele>666.0</ele><time>2026-04-26T09:09:42.002Z</time></trkpt><trkpt lat="43.97159726079981" lon="10.811480854763314"><ele>666.75</ele><time>2026-04-26T09:09:43.002Z</time></trkpt><trkpt lat="43.97153202003781" lon="10.811348674911326"><ele>667.5</ele><time>2026-04-26T09:09:44.002Z</time></trkpt><trkpt lat="43.97145329656272" lon="10.811219338506003"><ele>668.25</ele><time>2026-04-26T09:09:45.002Z</time></trkpt><trkpt lat="43.971374203185135" lon="10.81108474417727"><ele>669.0</ele><time>2026-04-26T09:09:46.002Z</time></trkpt><trkpt lat="43.97128605855349" lon="10.81096464798153"><ele>675.0</ele><time>2026-04-26T09:09:47.002Z</time></trkpt><trkpt lat="43.971200677501116" lon="10.81084690169384"><ele>681.0</ele><time>2026-04-26T09:09:48.002Z</time></trkpt><trkpt lat="43.97112088026203" lon="10.810728445217348"><ele>687.0</ele><time>2026-04-26T09:09:49.002Z</time></trkpt><trkpt lat="43.97103759747845" lon="10.810607533243465"><ele>693.0</ele><time>2026-04-26T09:09:50.002Z</time></trkpt><trkpt lat="43.97095106828877" lon="10.810500448459052"><ele>693.0</ele><time>2026-04-26T09:09:51.002Z</time></trkpt><trkpt lat="43.97086893413488" lon="10.810396242563455"><ele>693.0</ele><time>2026-04-26T09:09:52.002Z</time></trkpt><trkpt lat="43.97078340315472" lon="10.810308904648135"><ele>693.0</ele><time>2026-04-26T09:09:53.002Z</time></trkpt><trkpt lat="43.970702660850414" lon="10.81022613222848"><ele>693.0</ele><time>2026-04-26T09:09:54.002Z</time></trkpt><trkpt lat="43.97063572492241" lon="10.810157370839663"><ele>693.0</ele><time>2026-04-26T09:09:55.002Z</time></trkpt><trkpt lat="43.97056897280441" lon="10.810094910224434"><ele>692.3333333333334</ele><time>2026-04-26T09:09:56.002Z</time></trkpt><trkpt lat="43.97052124358047" lon="10.810018308726667"><ele>691.6666666666666</ele><time>2026-04-26T09:09:57.002Z</time></trkpt><trkpt lat="43.97048848946531" lon="10.80993011676089"><ele>691.0</ele><time>2026-04-26T09:09:58.002Z</time></trkpt><trkpt lat="43.970496031951406" lon="10.809836039033954"><ele>690.3333333333333</ele><time>2026-04-26T09:09:59.002Z</time></trkpt><trkpt lat="43.970543203506736" lon="10.809750589515806"><ele>689.6666666666666</ele><time>2026-04-26T09:10:00.002Z</time></trkpt><trkpt lat="43.97061928055075" lon="10.809710168562756"><ele>689.0</ele><time>2026-04-26T09:10:01.002Z</time></trkpt><trkpt lat="43.970702950860954" lon="10.809726183468658"><ele>689.0</ele><time>2026-04-26T09:10:02.002Z</time></trkpt><trkpt lat="43.97073037072859" lon="10.809843296082347"><ele>689.0</ele><time>2026-04-26T09:10:03.002Z</time></trkpt><trkpt lat="43.97077784945399" lon="10.809966327872809"><ele>689.0</ele><time>2026-04-26T09:10:04.002Z</time></trkpt><trkpt lat="43.970844500620096" lon="10.810097017180949"><ele>689.0</ele><time>2026-04-26T09:10:05.002Z</time></trkpt><trkpt lat="43.970941725276965" lon="10.810215731662446"><ele>689.0</ele><time>2026-04-26T09:10:06.001Z</time></trkpt><trkpt lat="43.9710525531216" lon="10.810285814769426"><ele>690.0</ele><time>2026-04-26T09:10:07.002Z</time></trkpt><trkpt lat="43.97115351479358" lon="10.810360125079084"><ele>691.0</ele><time>2026-04-26T09:10:08.002Z</time></trkpt><trkpt lat="43.97126713249209" lon="10.81045501730466"><ele>692.0</ele><time>2026-04-26T09:10:09.002Z</time></trkpt><trkpt lat="43.971370158288536" lon="10.810547476655993"><ele>693.0</ele><time>2026-04-26T09:10:10.002Z</time></trkpt><trkpt lat="43.97145450519681" lon="10.810635354466926"><ele>693.0</ele><time>2026-04-26T09:10:11.002Z</time></trkpt><trkpt lat="43.97153836852591" lon="10.810726316063736"><ele>693.0</ele><time>2026-04-26T09:10:12.002Z</time></trkpt><trkpt lat="43.971629909623246" lon="10.810827481108593"><ele>693.0</ele><time>2026-04-26T09:10:13.002Z</time></trkpt><trkpt lat="43.97172265702139" lon="10.81093442596292"><ele>693.0</ele><time>2026-04-26T09:10:14.002Z</time></trkpt><trkpt lat="43.971819971434996" lon="10.811041079617054"><ele>693.25</ele><time>2026-04-26T09:10:15.002Z</time></trkpt><trkpt lat="43.971926823895586" lon="10.811122079607328"><ele>693.5</ele><time>2026-04-26T09:10:16.002Z</time></trkpt><trkpt lat="43.97203247437034" lon="10.811209953872757"><ele>693.75</ele><time>2026-04-26T09:10:17.002Z</time></trkpt><trkpt lat="43.97214455644363" lon="10.81127651896047"><ele>694.0</ele><time>2026-04-26T09:10:18.002Z</time></trkpt><trkpt lat="43.9722617982995" lon="10.811328162188412"><ele>694.0</ele><time>2026-04-26T09:10:19.002Z</time></trkpt><trkpt lat="43.97238722390967" lon="10.811376007373594"><ele>694.0</ele><time>2026-04-26T09:10:20.002Z</time></trkpt><trkpt lat="43.97251797709872" lon="10.811433500048249"><ele>694.0</ele><time>2026-04-26T09:10:21.002Z</time></trkpt><trkpt lat="43.97264267582824" lon="10.811481220107625"><ele>694.0</ele><time>2026-04-26T09:10:22.002Z</time></trkpt><trkpt lat="43.97277373185437" lon="10.811526908131162"><ele>696.6</ele><time>2026-04-26T09:10:23.002Z</time></trkpt><trkpt lat="43.9728901627929" lon="10.811568017333931"><ele>699.2</ele><time>2026-04-26T09:10:24.002Z</time></trkpt><trkpt lat="43.97298203779132" lon="10.811605068749879"><ele>701.8000000000001</ele><time>2026-04-26T09:10:25.002Z</time></trkpt><trkpt lat="43.973057618731964" lon="10.81163284275516"><ele>704.4000000000001</ele><time>2026-04-26T09:10:26.002Z</time></trkpt><trkpt lat="43.97317400668481" lon="10.811628031866125"><ele>707.0</ele><time>2026-04-26T09:10:28.002Z</time></trkpt><trkpt lat="43.97327242983354" lon="10.8114823014109"><ele>707.0</ele><time>2026-04-26T09:10:30.002Z</time></trkpt><trkpt lat="43.973288541836666" lon="10.811370445497067"><ele>707.0</ele><time>2026-04-26T09:10:31.002Z</time></trkpt><trkpt lat="43.973264882803626" lon="10.811243609437383"><ele>707.0</ele><time>2026-04-26T09:10:32.002Z</time></trkpt><trkpt lat="43.97322547918891" lon="10.811094876281334"><ele>707.0</ele><time>2026-04-26T09:10:33.002Z</time></trkpt><trkpt lat="43.97319794554745" lon="10.810918825770415"><ele>707.0</ele><time>2026-04-26T09:10:34.002Z</time></trkpt><trkpt lat="43.973153303665775" lon="10.810729785159358"><ele>709.75</ele><time>2026-04-26T09:10:35.002Z</time></trkpt><trkpt lat="43.9731080186936" lon="10.810538032279544"><ele>712.5</ele><time>2026-04-26T09:10:36.002Z</time></trkpt><trkpt lat="43.97306219109579" lon="10.810347448171218"><ele>715.25</ele><time>2026-04-26T09:10:37.002Z</time></trkpt><trkpt lat="43.973014990890064" lon="10.810160091851422"><ele>718.0</ele><time>2026-04-26T09:10:38.002Z</time></trkpt><trkpt lat="43.97298253036924" lon="10.810004378812136"><ele>720.0</ele><time>2026-04-26T09:10:39.002Z</time></trkpt><trkpt lat="43.972945832030256" lon="10.809857834983852"><ele>722.0</ele><time>2026-04-26T09:10:40.002Z</time></trkpt><trkpt lat="43.97291372690925" lon="10.809722630112704"><ele>724.0</ele><time>2026-04-26T09:10:41.002Z</time></trkpt><trkpt lat="43.972884282869835" lon="10.809585869168433"><ele>726.0</ele><time>2026-04-26T09:10:42.002Z</time></trkpt><trkpt lat="43.97287526887011" lon="10.809467227016217"><ele>728.0</ele><time>2026-04-26T09:10:43.002Z</time></trkpt><trkpt lat="43.97288286486619" lon="10.809366178304561"><ele>728.0</ele><time>2026-04-26T09:10:44.002Z</time></trkpt><trkpt lat="43.97299153090407" lon="10.809291858130157"><ele>728.0</ele><time>2026-04-26T09:10:46.002Z</time></trkpt><trkpt lat="43.97306170240282" lon="10.809328829807828"><ele>728.0</ele><time>2026-04-26T09:10:47.002Z</time></trkpt><trkpt lat="43.97311303977653" lon="10.80942649903181"><ele>728.0</ele><time>2026-04-26T09:10:48.002Z</time></trkpt><trkpt lat="43.973170149326094" lon="10.809537594758098"><ele>728.0</ele><time>2026-04-26T09:10:49.002Z</time></trkpt><trkpt lat="43.97322291265002" lon="10.809662572629804"><ele>728.0</ele><time>2026-04-26T09:10:50.002Z</time></trkpt><trkpt lat="43.973277192290844" lon="10.809765200329512"><ele>728.0</ele><time>2026-04-26T09:10:51.002Z</time></trkpt><trkpt lat="43.973332717629276" lon="10.809835986394809"><ele>728.0</ele><time>2026-04-26T09:10:52.002Z</time></trkpt><trkpt lat="43.97339876296683" lon="10.809882085344807"><ele>728.0</ele><time>2026-04-26T09:10:53.002Z</time></trkpt><trkpt lat="43.97347332263882" lon="10.809839742826714"><ele>728.0</ele><time>2026-04-26T09:10:54.002Z</time></trkpt><trkpt lat="43.973532709492595" lon="10.809800355348386"><ele>728.0</ele><time>2026-04-26T09:10:55.002Z</time></trkpt><trkpt lat="43.9735557189091" lon="10.809665872335101"><ele>732.75</ele><time>2026-04-26T09:10:56.002Z</time></trkpt><trkpt lat="43.97356063529171" lon="10.809532201035454"><ele>737.5</ele><time>2026-04-26T09:10:57.002Z</time></trkpt><trkpt lat="43.97354749756903" lon="10.809381434744322"><ele>742.25</ele><time>2026-04-26T09:10:58.002Z</time></trkpt><trkpt lat="43.97355600647699" lon="10.809214779562536"><ele>747.0</ele><time>2026-04-26T09:10:59.002Z</time></trkpt><trkpt lat="43.973549194169294" lon="10.809016433397188"><ele>749.6666666666666</ele><time>2026-04-26T09:11:00.002Z</time></trkpt><trkpt lat="43.97353142588115" lon="10.808804242152434"><ele>752.3333333333333</ele><time>2026-04-26T09:11:01.002Z</time></trkpt><trkpt lat="43.973531767001575" lon="10.808588946689406"><ele>755.0</ele><time>2026-04-26T09:11:02.002Z</time></trkpt><trkpt lat="43.973529080803985" lon="10.808365835001881"><ele>756.0</ele><time>2026-04-26T09:11:03.002Z</time></trkpt><trkpt lat="43.973524721931696" lon="10.808135523378073"><ele>757.0</ele><time>2026-04-26T09:11:04.002Z</time></trkpt><trkpt lat="43.97352440802374" lon="10.807899080477501"><ele>758.0</ele><time>2026-04-26T09:11:05.002Z</time></trkpt><trkpt lat="43.97352438661892" lon="10.807666153043618"><ele>761.3333333333333</ele><time>2026-04-26T09:11:06.002Z</time></trkpt><trkpt lat="43.973510469375526" lon="10.80744407480527"><ele>764.6666666666666</ele><time>2026-04-26T09:11:07.002Z</time></trkpt><trkpt lat="43.973475264080655" lon="10.80725114209557"><ele>768.0</ele><time>2026-04-26T09:11:08.002Z</time></trkpt><trkpt lat="43.97342024528207" lon="10.807057251596484"><ele>766.6666666666666</ele><time>2026-04-26T09:11:09.002Z</time></trkpt><trkpt lat="43.97334334632532" lon="10.806885385500781"><ele>765.3333333333333</ele><time>2026-04-26T09:11:10.002Z</time></trkpt><trkpt lat="43.973262386832324" lon="10.806702864299842"><ele>764.0</ele><time>2026-04-26T09:11:11.002Z</time></trkpt><trkpt lat="43.973165051235455" lon="10.806529224676606"><ele>764.0</ele><time>2026-04-26T09:11:12.002Z</time></trkpt><trkpt lat="43.97305012650757" lon="10.806339039651235"><ele>764.0</ele><time>2026-04-26T09:11:13.002Z</time></trkpt><trkpt lat="43.97294819997287" lon="10.80613648719517"><ele>764.0</ele><time>2026-04-26T09:11:14.002Z</time></trkpt><trkpt lat="43.972842897577834" lon="10.805941427899112"><ele>762.0</ele><time>2026-04-26T09:11:15.002Z</time></trkpt><trkpt lat="43.97271698668167" lon="10.805744557442917"><ele>760.0</ele><time>2026-04-26T09:11:16.002Z</time></trkpt><trkpt lat="43.972603479342325" lon="10.805541697218969"><ele>758.0</ele><time>2026-04-26T09:11:17.002Z</time></trkpt><trkpt lat="43.97249213072568" lon="10.805363880645661"><ele>758.0</ele><time>2026-04-26T09:11:18.002Z</time></trkpt><trkpt lat="43.972383735789" lon="10.805176650064677"><ele>758.0</ele><time>2026-04-26T09:11:19.002Z</time></trkpt><trkpt lat="43.97227524916281" lon="10.804977533357595"><ele>758.0</ele><time>2026-04-26T09:11:20.002Z</time></trkpt><trkpt lat="43.97217571939969" lon="10.804794031423803"><ele>761.5</ele><time>2026-04-26T09:11:21.002Z</time></trkpt><trkpt lat="43.97208646432598" lon="10.804629378602556"><ele>765.0</ele><time>2026-04-26T09:11:22.002Z</time></trkpt><trkpt lat="43.97200761167849" lon="10.804510408009095"><ele>768.5</ele><time>2026-04-26T09:11:23.002Z</time></trkpt><trkpt lat="43.97190496194853" lon="10.804430992608497"><ele>772.0</ele><time>2026-04-26T09:11:24.002Z</time></trkpt><trkpt lat="43.971763022222675" lon="10.804396880476158"><ele>765.6666666666666</ele><time>2026-04-26T09:11:25.002Z</time></trkpt><trkpt lat="43.97160793888372" lon="10.804427483810152"><ele>759.3333333333333</ele><time>2026-04-26T09:11:26.002Z</time></trkpt><trkpt lat="43.97144898238876" lon="10.804453325282347"><ele>753.0</ele><time>2026-04-26T09:11:27.002Z</time></trkpt><trkpt lat="43.97127553972528" lon="10.804482382188597"><ele>753.0</ele><time>2026-04-26T09:11:28.002Z</time></trkpt><trkpt lat="43.97109414206106" lon="10.804487727956307"><ele>753.0</ele><time>2026-04-26T09:11:29.002Z</time></trkpt><trkpt lat="43.97093649829589" lon="10.804508236654817"><ele>753.0</ele><time>2026-04-26T09:11:30.002Z</time></trkpt><trkpt lat="43.97079884388531" lon="10.804537223084766"><ele>751.75</ele><time>2026-04-26T09:11:31.002Z</time></trkpt><trkpt lat="43.97067508150287" lon="10.80447932340546"><ele>750.5</ele><time>2026-04-26T09:11:32.002Z</time></trkpt><trkpt lat="43.97056809490612" lon="10.80440151586263"><ele>749.25</ele><time>2026-04-26T09:11:33.002Z</time></trkpt><trkpt lat="43.97047510421594" lon="10.804257606039748"><ele>748.0</ele><time>2026-04-26T09:11:34.002Z</time></trkpt><trkpt lat="43.97038239978211" lon="10.804089056217682"><ele>752.75</ele><time>2026-04-26T09:11:35.002Z</time></trkpt><trkpt lat="43.97028211194768" lon="10.803958540682643"><ele>757.5</ele><time>2026-04-26T09:11:36.002Z</time></trkpt><trkpt lat="43.97017198665796" lon="10.80386773627765"><ele>762.25</ele><time>2026-04-26T09:11:37.002Z</time></trkpt><trkpt lat="43.97005591304723" lon="10.803851864315227"><ele>767.0</ele><time>2026-04-26T09:11:38.002Z</time></trkpt><trkpt lat="43.96992737525293" lon="10.803873560465455"><ele>767.0</ele><time>2026-04-26T09:11:39.002Z</time></trkpt><trkpt lat="43.969784076172715" lon="10.80393919083307"><ele>767.0</ele><time>2026-04-26T09:11:40.002Z</time></trkpt><trkpt lat="43.96962828487129" lon="10.804033831645242"><ele>767.0</ele><time>2026-04-26T09:11:41.002Z</time></trkpt><trkpt lat="43.969477952689424" lon="10.80411530950011"><ele>767.0</ele><time>2026-04-26T09:11:42.002Z</time></trkpt><trkpt lat="43.96932114006537" lon="10.804189881419875"><ele>767.0</ele><time>2026-04-26T09:11:43.002Z</time></trkpt><trkpt lat="43.96919560833257" lon="10.804210629557897"><ele>767.0</ele><time>2026-04-26T09:11:44.002Z</time></trkpt><trkpt lat="43.96907734269424" lon="10.80420726663736"><ele>767.0</ele><time>2026-04-26T09:11:45.002Z</time></trkpt><trkpt lat="43.96897910847537" lon="10.80414511117227"><ele>767.25</ele><time>2026-04-26T09:11:46.002Z</time></trkpt><trkpt lat="43.9688983940856" lon="10.804016916577108"><ele>767.5</ele><time>2026-04-26T09:11:47.002Z</time></trkpt><trkpt lat="43.96882760784788" lon="10.803874586616718"><ele>767.75</ele><time>2026-04-26T09:11:48.002Z</time></trkpt><trkpt lat="43.968731293481795" lon="10.803802777135617"><ele>768.0</ele><time>2026-04-26T09:11:49.002Z</time></trkpt><trkpt lat="43.9686294623526" lon="10.803784438286026"><ele>768.0</ele><time>2026-04-26T09:11:50.002Z</time></trkpt><trkpt lat="43.96852647471882" lon="10.803830213546407"><ele>768.0</ele><time>2026-04-26T09:11:51.002Z</time></trkpt><trkpt lat="43.968435501172955" lon="10.803918332748468"><ele>768.0</ele><time>2026-04-26T09:11:52.002Z</time></trkpt><trkpt lat="43.96833053532126" lon="10.804045474471053"><ele>768.0</ele><time>2026-04-26T09:11:53.002Z</time></trkpt><trkpt lat="43.9682131202001" lon="10.804145345663311"><ele>769.5</ele><time>2026-04-26T09:11:54.002Z</time></trkpt><trkpt lat="43.96811140232353" lon="10.804207152634643"><ele>771.0</ele><time>2026-04-26T09:11:55.002Z</time></trkpt><trkpt lat="43.96800578826857" lon="10.804212694667864"><ele>772.5</ele><time>2026-04-26T09:11:56.002Z</time></trkpt><trkpt lat="43.96789091237603" lon="10.804138871835795"><ele>774.0</ele><time>2026-04-26T09:11:57.002Z</time></trkpt><trkpt lat="43.96776590048249" lon="10.804058771576736"><ele>774.0</ele><time>2026-04-26T09:11:58.002Z</time></trkpt><trkpt lat="43.9676279805995" lon="10.803977383012343"><ele>774.0</ele><time>2026-04-26T09:11:59.002Z</time></trkpt><trkpt lat="43.96748819214653" lon="10.803890979712763"><ele>774.0</ele><time>2026-04-26T09:12:00.002Z</time></trkpt><trkpt lat="43.967343540329516" lon="10.803793372125742"><ele>775.0</ele><time>2026-04-26T09:12:01.002Z</time></trkpt><trkpt lat="43.9672229379412" lon="10.80366426341147"><ele>776.0</ele><time>2026-04-26T09:12:02.002Z</time></trkpt><trkpt lat="43.96712798510683" lon="10.803499403925672"><ele>777.0</ele><time>2026-04-26T09:12:03.002Z</time></trkpt><trkpt lat="43.96704105743524" lon="10.803313038896647"><ele>784.6666666666667</ele><time>2026-04-26T09:12:04.002Z</time></trkpt><trkpt lat="43.96694313216878" lon="10.8031355630661"><ele>792.3333333333334</ele><time>2026-04-26T09:12:05.002Z</time></trkpt><trkpt lat="43.9668620293237" lon="10.802929311317287"><ele>800.0</ele><time>2026-04-26T09:12:06.002Z</time></trkpt><trkpt lat="43.96676027336393" lon="10.802728446344396"><ele>802.3333333333334</ele><time>2026-04-26T09:12:07.002Z</time></trkpt><trkpt lat="43.96662927397551" lon="10.802541016519836"><ele>804.6666666666667</ele><time>2026-04-26T09:12:08.002Z</time></trkpt><trkpt lat="43.96649717304833" lon="10.802376769012223"><ele>807.0</ele><time>2026-04-26T09:12:09.002Z</time></trkpt><trkpt lat="43.9663649396886" lon="10.802224951028592"><ele>807.0</ele><time>2026-04-26T09:12:10.002Z</time></trkpt><trkpt lat="43.96622689480278" lon="10.80210172870244"><ele>807.0</ele><time>2026-04-26T09:12:11.002Z</time></trkpt><trkpt lat="43.966074651956426" lon="10.802018210173863"><ele>807.0</ele><time>2026-04-26T09:12:12.002Z</time></trkpt><trkpt lat="43.96590944057236" lon="10.801952433469204"><ele>809.6666666666667</ele><time>2026-04-26T09:12:13.002Z</time></trkpt><trkpt lat="43.96573793210333" lon="10.801898490245156"><ele>812.3333333333334</ele><time>2026-04-26T09:12:14.002Z</time></trkpt><trkpt lat="43.965556904001225" lon="10.801843640693614"><ele>815.0</ele><time>2026-04-26T09:12:15.002Z</time></trkpt><trkpt lat="43.965374383220336" lon="10.80177440949502"><ele>815.0</ele><time>2026-04-26T09:12:16.002Z</time></trkpt><trkpt lat="43.96518506973547" lon="10.801707456107724"><ele>815.0</ele><time>2026-04-26T09:12:17.002Z</time></trkpt><trkpt lat="43.96499185593374" lon="10.801644613047142"><ele>815.0</ele><time>2026-04-26T09:12:18.002Z</time></trkpt><trkpt lat="43.96480270372489" lon="10.801576798837221"><ele>814.0</ele><time>2026-04-26T09:12:19.002Z</time></trkpt><trkpt lat="43.964628206005834" lon="10.801542367291445"><ele>813.0</ele><time>2026-04-26T09:12:20.002Z</time></trkpt><trkpt lat="43.96444563563447" lon="10.801547082355476"><ele>812.0</ele><time>2026-04-26T09:12:21.002Z</time></trkpt><trkpt lat="43.96425483873857" lon="10.801575652127962"><ele>811.6666666666667</ele><time>2026-04-26T09:12:22.002Z</time></trkpt><trkpt lat="43.96406300009384" lon="10.801620633263873"><ele>811.3333333333333</ele><time>2026-04-26T09:12:23.002Z</time></trkpt><trkpt lat="43.963870074683236" lon="10.801661125041992"><ele>811.0</ele><time>2026-04-26T09:12:24.002Z</time></trkpt><trkpt lat="43.9636779510132" lon="10.801690476184984"><ele>811.0</ele><time>2026-04-26T09:12:25.002Z</time></trkpt><trkpt lat="43.96348950518131" lon="10.801716158799266"><ele>811.0</ele><time>2026-04-26T09:12:26.002Z</time></trkpt><trkpt lat="43.963318980738144" lon="10.801709783427684"><ele>811.0</ele><time>2026-04-26T09:12:27.002Z</time></trkpt><trkpt lat="43.96315502574233" lon="10.801676802857736"><ele>813.0</ele><time>2026-04-26T09:12:28.002Z</time></trkpt><trkpt lat="43.96299926614174" lon="10.80163134716598"><ele>815.0</ele><time>2026-04-26T09:12:29.002Z</time></trkpt><trkpt lat="43.96285739182572" lon="10.80159154380367"><ele>817.0</ele><time>2026-04-26T09:12:30.002Z</time></trkpt><trkpt lat="43.96274188557801" lon="10.801552375732188"><ele>819.0</ele><time>2026-04-26T09:12:31.002Z</time></trkpt><trkpt lat="43.96265296300876" lon="10.801486836404807"><ele>819.0</ele><time>2026-04-26T09:12:32.002Z</time></trkpt><trkpt lat="43.96259009753407" lon="10.801382264171458"><ele>819.0</ele><time>2026-04-26T09:12:33.002Z</time></trkpt><trkpt lat="43.96255197234199" lon="10.801242478052894"><ele>819.0</ele><time>2026-04-26T09:12:34.002Z</time></trkpt><trkpt lat="43.962545114063225" lon="10.80106936371805"><ele>819.0</ele><time>2026-04-26T09:12:35.002Z</time></trkpt><trkpt lat="43.962562477129644" lon="10.800878642537473"><ele>824.0</ele><time>2026-04-26T09:12:36.002Z</time></trkpt><trkpt lat="43.96258233471732" lon="10.800675617430139"><ele>829.0</ele><time>2026-04-26T09:12:37.002Z</time></trkpt><trkpt lat="43.962578775913975" lon="10.8004590380905"><ele>834.0</ele><time>2026-04-26T09:12:38.002Z</time></trkpt><trkpt lat="43.96254638154477" lon="10.800223990375123"><ele>832.6666666666667</ele><time>2026-04-26T09:12:39.002Z</time></trkpt><trkpt lat="43.962494679382516" lon="10.799992217903023"><ele>831.3333333333334</ele><time>2026-04-26T09:12:40.002Z</time></trkpt><trkpt lat="43.96242282943946" lon="10.799759094909467"><ele>830.0</ele><time>2026-04-26T09:12:41.002Z</time></trkpt><trkpt lat="43.96236363269566" lon="10.799519144889283"><ele>834.6666666666667</ele><time>2026-04-26T09:12:42.002Z</time></trkpt><trkpt lat="43.962323337344735" lon="10.7992932055113"><ele>839.3333333333333</ele><time>2026-04-26T09:12:43.002Z</time></trkpt><trkpt lat="43.96230616660149" lon="10.799055108042685"><ele>844.0</ele><time>2026-04-26T09:12:44.002Z</time></trkpt><trkpt lat="43.96230629792975" lon="10.798806310699003"><ele>844.0</ele><time>2026-04-26T09:12:45.002Z</time></trkpt><trkpt lat="43.96230875361875" lon="10.798544999692734"><ele>844.0</ele><time>2026-04-26T09:12:46.002Z</time></trkpt><trkpt lat="43.962307036815226" lon="10.798284997214303"><ele>844.0</ele><time>2026-04-26T09:12:47.002Z</time></trkpt><trkpt lat="43.96229383796539" lon="10.798058618753"><ele>842.75</ele><time>2026-04-26T09:12:48.002Z</time></trkpt><trkpt lat="43.96229759167123" lon="10.797865764310002"><ele>841.5</ele><time>2026-04-26T09:12:49.002Z</time></trkpt><trkpt lat="43.962320171576" lon="10.797679232782002"><ele>840.25</ele><time>2026-04-26T09:12:50.002Z</time></trkpt><trkpt lat="43.962378561730496" lon="10.797511566134412"><ele>839.0</ele><time>2026-04-26T09:12:51.002Z</time></trkpt><trkpt lat="43.962456524987275" lon="10.797350951831168"><ele>838.75</ele><time>2026-04-26T09:12:52.002Z</time></trkpt><trkpt lat="43.962565930615696" lon="10.797218837290421"><ele>838.5</ele><time>2026-04-26T09:12:53.002Z</time></trkpt><trkpt lat="43.96269662529348" lon="10.797122343030427"><ele>838.25</ele><time>2026-04-26T09:12:54.002Z</time></trkpt><trkpt lat="43.96284129292246" lon="10.79707539763679"><ele>838.0</ele><time>2026-04-26T09:12:55.002Z</time></trkpt><trkpt lat="43.96299822596403" lon="10.797074692877592"><ele>838.0</ele><time>2026-04-26T09:12:56.002Z</time></trkpt><trkpt lat="43.96313992168454" lon="10.797125156678172"><ele>838.0</ele><time>2026-04-26T09:12:57.002Z</time></trkpt><trkpt lat="43.963281214926766" lon="10.79721923996531"><ele>838.0</ele><time>2026-04-26T09:12:58.002Z</time></trkpt><trkpt lat="43.963425591881446" lon="10.79734751912509"><ele>839.5</ele><time>2026-04-26T09:12:59.002Z</time></trkpt><trkpt lat="43.96354990695513" lon="10.797429278271077"><ele>841.0</ele><time>2026-04-26T09:13:00.002Z</time></trkpt><trkpt lat="43.96367409786166" lon="10.797449023635417"><ele>842.5</ele><time>2026-04-26T09:13:01.002Z</time></trkpt><trkpt lat="43.963808080477094" lon="10.797394539128081"><ele>844.0</ele><time>2026-04-26T09:13:02.002Z</time></trkpt><trkpt lat="43.96394847732961" lon="10.797317450419886"><ele>844.0</ele><time>2026-04-26T09:13:03.002Z</time></trkpt><trkpt lat="43.96408282411533" lon="10.79723557876519"><ele>844.0</ele><time>2026-04-26T09:13:04.002Z</time></trkpt><trkpt lat="43.96419188797152" lon="10.797141681142843"><ele>844.0</ele><time>2026-04-26T09:13:05.002Z</time></trkpt><trkpt lat="43.964288263820364" lon="10.797009441591054"><ele>844.0</ele><time>2026-04-26T09:13:06.002Z</time></trkpt><trkpt lat="43.964346242734734" lon="10.796841190946735"><ele>842.6</ele><time>2026-04-26T09:13:07.002Z</time></trkpt><trkpt lat="43.96440021767268" lon="10.796687200259456"><ele>841.2</ele><time>2026-04-26T09:13:08.002Z</time></trkpt><trkpt lat="43.96448759055905" lon="10.796589891556893"><ele>839.8000000000001</ele><time>2026-04-26T09:13:09.002Z</time></trkpt><trkpt lat="43.96458257845485" lon="10.796573618950546"><ele>838.4000000000001</ele><time>2026-04-26T09:13:10.002Z</time></trkpt><trkpt lat="43.96469242570247" lon="10.79659527692606"><ele>837.0</ele><time>2026-04-26T09:13:11.002Z</time></trkpt><trkpt lat="43.96481428387455" lon="10.796663873857485"><ele>837.0</ele><time>2026-04-26T09:13:12.002Z</time></trkpt><trkpt lat="43.96493417683355" lon="10.796750700619638"><ele>837.0</ele><time>2026-04-26T09:13:13.002Z</time></trkpt><trkpt lat="43.965060539882096" lon="10.796843326861827"><ele>837.0</ele><time>2026-04-26T09:13:14.002Z</time></trkpt><trkpt lat="43.96518510665021" lon="10.796961167154835"><ele>837.0</ele><time>2026-04-26T09:13:15.002Z</time></trkpt><trkpt lat="43.96529333402081" lon="10.797086791425107"><ele>843.25</ele><time>2026-04-26T09:13:16.002Z</time></trkpt><trkpt lat="43.965393256114915" lon="10.797183099849894"><ele>849.5</ele><time>2026-04-26T09:13:17.002Z</time></trkpt><trkpt lat="43.965494972548704" lon="10.797232099419114"><ele>855.75</ele><time>2026-04-26T09:13:18.002Z</time></trkpt><trkpt lat="43.96559655985068" lon="10.797200542845083"><ele>862.0</ele><time>2026-04-26T09:13:19.002Z</time></trkpt><trkpt lat="43.96570444463511" lon="10.79709254274182"><ele>862.0</ele><time>2026-04-26T09:13:20.002Z</time></trkpt><trkpt lat="43.96579781490372" lon="10.796963417057665"><ele>862.0</ele><time>2026-04-26T09:13:21.002Z</time></trkpt><trkpt lat="43.96590952590596" lon="10.796840746737331"><ele>862.0</ele><time>2026-04-26T09:13:22.002Z</time></trkpt><trkpt lat="43.9660293025214" lon="10.796755341404836"><ele>862.0</ele><time>2026-04-26T09:13:23.002Z</time></trkpt><trkpt lat="43.96616617276972" lon="10.796701810029555"><ele>861.0</ele><time>2026-04-26T09:13:24.002Z</time></trkpt><trkpt lat="43.96631376915941" lon="10.796722840313103"><ele>860.0</ele><time>2026-04-26T09:13:25.002Z</time></trkpt><trkpt lat="43.966456243381074" lon="10.79677254096314"><ele>859.0</ele><time>2026-04-26T09:13:26.002Z</time></trkpt><trkpt lat="43.966616670779665" lon="10.796795486671389"><ele>861.25</ele><time>2026-04-26T09:13:27.002Z</time></trkpt><trkpt lat="43.966777966526315" lon="10.796818180033009"><ele>863.5</ele><time>2026-04-26T09:13:28.002Z</time></trkpt><trkpt lat="43.9669214982326" lon="10.796826772253924"><ele>865.75</ele><time>2026-04-26T09:13:29.002Z</time></trkpt><trkpt lat="43.9670353259514" lon="10.796795006588246"><ele>868.0</ele><time>2026-04-26T09:13:30.002Z</time></trkpt><trkpt lat="43.967133183862344" lon="10.796717992283158"><ele>868.0</ele><time>2026-04-26T09:13:31.002Z</time></trkpt><trkpt lat="43.967203645459" lon="10.796592151269346"><ele>868.0</ele><time>2026-04-26T09:13:32.002Z</time></trkpt><trkpt lat="43.967253517475534" lon="10.796405690973906"><ele>868.0</ele><time>2026-04-26T09:13:33.002Z</time></trkpt><trkpt lat="43.96728175669867" lon="10.796243002656613"><ele>868.0</ele><time>2026-04-26T09:13:34.002Z</time></trkpt><trkpt lat="43.9673032274212" lon="10.796082708904377"><ele>867.6666666666666</ele><time>2026-04-26T09:13:35.002Z</time></trkpt><trkpt lat="43.96734952038006" lon="10.795966756517132"><ele>867.3333333333333</ele><time>2026-04-26T09:13:36.002Z</time></trkpt><trkpt lat="43.96743588743005" lon="10.795899035712615"><ele>867.0</ele><time>2026-04-26T09:13:37.002Z</time></trkpt><trkpt lat="43.96749040114922" lon="10.795841009957503"><ele>866.6666666666667</ele><time>2026-04-26T09:13:38.002Z</time></trkpt><trkpt lat="43.96755113999707" lon="10.79581686908866"><ele>866.3333333333334</ele><time>2026-04-26T09:13:39.002Z</time></trkpt><trkpt lat="43.96763850802719" lon="10.795766408803768"><ele>866.0</ele><time>2026-04-26T09:13:41.002Z</time></trkpt><trkpt lat="43.967740314114316" lon="10.795935351368248"><ele>865.0</ele><time>2026-04-26T09:13:42.002Z</time></trkpt><trkpt lat="43.9678151598952" lon="10.796000003777449"><ele>864.0</ele><time>2026-04-26T09:13:43.002Z</time></trkpt><trkpt lat="43.967909174676926" lon="10.796070485415207"><ele>863.0</ele><time>2026-04-26T09:13:44.002Z</time></trkpt><trkpt lat="43.968017815318866" lon="10.796160892814836"><ele>862.0</ele><time>2026-04-26T09:13:45.002Z</time></trkpt><trkpt lat="43.96813949671956" lon="10.796222621383095"><ele>865.0</ele><time>2026-04-26T09:13:46.002Z</time></trkpt><trkpt lat="43.9682631956198" lon="10.796267773624955"><ele>868.0</ele><time>2026-04-26T09:13:47.002Z</time></trkpt><trkpt lat="43.968413719236715" lon="10.796339515311095"><ele>871.0</ele><time>2026-04-26T09:13:48.002Z</time></trkpt><trkpt lat="43.96854580522793" lon="10.796438614016958"><ele>874.0</ele><time>2026-04-26T09:13:49.002Z</time></trkpt><trkpt lat="43.96865943106045" lon="10.796545683898339"><ele>874.6666666666666</ele><time>2026-04-26T09:13:50.002Z</time></trkpt><trkpt lat="43.96879400278127" lon="10.796665054794733"><ele>875.3333333333333</ele><time>2026-04-26T09:13:51.002Z</time></trkpt><trkpt lat="43.96892571139599" lon="10.796800412028684"><ele>876.0</ele><time>2026-04-26T09:13:52.002Z</time></trkpt><trkpt lat="43.96905685196024" lon="10.79693372096341"><ele>876.6666666666667</ele><time>2026-04-26T09:13:53.002Z</time></trkpt><trkpt lat="43.96919447462939" lon="10.797071113675015"><ele>877.3333333333334</ele><time>2026-04-26T09:13:54.002Z</time></trkpt><trkpt lat="43.9693288372693" lon="10.797211596950017"><ele>878.0</ele><time>2026-04-26T09:13:55.002Z</time></trkpt><trkpt lat="43.9694693568791" lon="10.797358124655402"><ele>878.0</ele><time>2026-04-26T09:13:56.002Z</time></trkpt><trkpt lat="43.96960647999621" lon="10.79749908734241"><ele>878.0</ele><time>2026-04-26T09:13:57.002Z</time></trkpt><trkpt lat="43.96975568886087" lon="10.79762640292112"><ele>878.0</ele><time>2026-04-26T09:13:58.002Z</time></trkpt><trkpt lat="43.96990051270476" lon="10.797757064193371"><ele>878.3333333333334</ele><time>2026-04-26T09:13:59.002Z</time></trkpt><trkpt lat="43.970052160361845" lon="10.797892583732033"><ele>878.6666666666667</ele><time>2026-04-26T09:14:00.002Z</time></trkpt><trkpt lat="43.97021181913587" lon="10.79803386079533"><ele>879.0</ele><time>2026-04-26T09:14:01.002Z</time></trkpt><trkpt lat="43.97036669667149" lon="10.798171619202762"><ele>879.0</ele><time>2026-04-26T09:14:02.002Z</time></trkpt><trkpt lat="43.97050027207244" lon="10.79832729145766"><ele>879.0</ele><time>2026-04-26T09:14:03.002Z</time></trkpt><trkpt lat="43.97065743391573" lon="10.798467666142372"><ele>879.0</ele><time>2026-04-26T09:14:04.002Z</time></trkpt><trkpt lat="43.97081550000483" lon="10.798622919118532"><ele>881.6666666666667</ele><time>2026-04-26T09:14:05.002Z</time></trkpt><trkpt lat="43.9709706853221" lon="10.798771372142207"><ele>884.3333333333334</ele><time>2026-04-26T09:14:06.002Z</time></trkpt><trkpt lat="43.971125021919455" lon="10.798926175455552"><ele>887.0</ele><time>2026-04-26T09:14:07.002Z</time></trkpt><trkpt lat="43.9712766553917" lon="10.799072867507435"><ele>887.0</ele><time>2026-04-26T09:14:08.002Z</time></trkpt><trkpt lat="43.97143242991332" lon="10.799203351784744"><ele>887.0</ele><time>2026-04-26T09:14:09.002Z</time></trkpt><trkpt lat="43.97158978285724" lon="10.799329902316307"><ele>887.0</ele><time>2026-04-26T09:14:10.002Z</time></trkpt><trkpt lat="43.971743444275724" lon="10.79943660971977"><ele>885.5</ele><time>2026-04-26T09:14:11.002Z</time></trkpt><trkpt lat="43.97188311611603" lon="10.79954410634193"><ele>884.0</ele><time>2026-04-26T09:14:12.002Z</time></trkpt><trkpt lat="43.97201638662097" lon="10.79961656762403"><ele>882.5</ele><time>2026-04-26T09:14:13.002Z</time></trkpt><trkpt lat="43.972141100678165" lon="10.79966276988542"><ele>881.0</ele><time>2026-04-26T09:14:14.002Z</time></trkpt><trkpt lat="43.97226798427985" lon="10.799689709411036"><ele>881.0</ele><time>2026-04-26T09:14:15.003Z</time></trkpt><trkpt lat="43.972420198437895" lon="10.799668162377069"><ele>881.0</ele><time>2026-04-26T09:14:16.002Z</time></trkpt><trkpt lat="43.97256102038693" lon="10.799679493979164"><ele>881.0</ele><time>2026-04-26T09:14:17.002Z</time></trkpt><trkpt lat="43.97270638646162" lon="10.799655697109225"><ele>881.0</ele><time>2026-04-26T09:14:18.002Z</time></trkpt><trkpt lat="43.9728465914309" lon="10.79958438097181"><ele>882.6666666666667</ele><time>2026-04-26T09:14:19.002Z</time></trkpt><trkpt lat="43.97299923985647" lon="10.79953100323954"><ele>884.3333333333333</ele><time>2026-04-26T09:14:20.002Z</time></trkpt><trkpt lat="43.97315860576036" lon="10.799494601147954"><ele>886.0</ele><time>2026-04-26T09:14:21.003Z</time></trkpt><trkpt lat="43.97331361429025" lon="10.799493726026801"><ele>886.3333333333333</ele><time>2026-04-26T09:14:22.001Z</time></trkpt><trkpt lat="43.97346926539101" lon="10.799525381773384"><ele>886.6666666666667</ele><time>2026-04-26T09:14:23.001Z</time></trkpt><trkpt lat="43.973621150666396" lon="10.799602425895676"><ele>887.0</ele><time>2026-04-26T09:14:24.002Z</time></trkpt><trkpt lat="43.97375260390476" lon="10.79965881803038"><ele>887.0</ele><time>2026-04-26T09:14:25.002Z</time></trkpt><trkpt lat="43.97387455835112" lon="10.79968377161949"><ele>887.0</ele><time>2026-04-26T09:14:26.002Z</time></trkpt><trkpt lat="43.97398558143451" lon="10.799661798494117"><ele>887.0</ele><time>2026-04-26T09:14:27.002Z</time></trkpt><trkpt lat="43.97406896605002" lon="10.799557075374324"><ele>887.0</ele><time>2026-04-26T09:14:28.002Z</time></trkpt><trkpt lat="43.9741633107772" lon="10.799430913783922"><ele>889.75</ele><time>2026-04-26T09:14:29.002Z</time></trkpt><trkpt lat="43.9742626772791" lon="10.799300108283331"><ele>892.5</ele><time>2026-04-26T09:14:30.002Z</time></trkpt><trkpt lat="43.974383041662215" lon="10.799187270183632"><ele>895.25</ele><time>2026-04-26T09:14:31.002Z</time></trkpt><trkpt lat="43.97452592458165" lon="10.799142537010551"><ele>898.0</ele><time>2026-04-26T09:14:32.002Z</time></trkpt><trkpt lat="43.97468207495369" lon="10.799121551013387"><ele>898.0</ele><time>2026-04-26T09:14:33.002Z</time></trkpt><trkpt lat="43.97483194185004" lon="10.7990798805769"><ele>898.0</ele><time>2026-04-26T09:14:34.002Z</time></trkpt><trkpt lat="43.97497076884813" lon="10.799067363481246"><ele>898.0</ele><time>2026-04-26T09:14:35.002Z</time></trkpt><trkpt lat="43.9751085108209" lon="10.799027651762698"><ele>898.0</ele><time>2026-04-26T09:14:36.002Z</time></trkpt><trkpt lat="43.97524385764655" lon="10.798944147767656"><ele>898.3333333333333</ele><time>2026-04-26T09:14:37.002Z</time></trkpt><trkpt lat="43.97537424715377" lon="10.798840289166412"><ele>898.6666666666667</ele><time>2026-04-26T09:14:38.002Z</time></trkpt><trkpt lat="43.97552316340244" lon="10.798724165661268"><ele>899.0</ele><time>2026-04-26T09:14:39.002Z</time></trkpt><trkpt lat="43.975677818581104" lon="10.798641685205858"><ele>899.0</ele><time>2026-04-26T09:14:40.002Z</time></trkpt><trkpt lat="43.9758366056311" lon="10.79854802463839"><ele>899.0</ele><time>2026-04-26T09:14:41.002Z</time></trkpt><trkpt lat="43.975997729497756" lon="10.798462179599893"><ele>899.0</ele><time>2026-04-26T09:14:42.002Z</time></trkpt><trkpt lat="43.976170277960755" lon="10.798371837070054"><ele>903.3333333333334</ele><time>2026-04-26T09:14:43.002Z</time></trkpt><trkpt lat="43.976335825997396" lon="10.798281414751024"><ele>907.6666666666667</ele><time>2026-04-26T09:14:44.002Z</time></trkpt><trkpt lat="43.97649944367045" lon="10.798178647788758"><ele>912.0</ele><time>2026-04-26T09:14:45.002Z</time></trkpt><trkpt lat="43.976665713123694" lon="10.798103375769653"><ele>912.3333333333333</ele><time>2026-04-26T09:14:46.002Z</time></trkpt><trkpt lat="43.97682653671797" lon="10.798048647131678"><ele>912.6666666666666</ele><time>2026-04-26T09:14:47.002Z</time></trkpt><trkpt lat="43.976987573054394" lon="10.79799885827324"><ele>913.0</ele><time>2026-04-26T09:14:48.002Z</time></trkpt><trkpt lat="43.977138724689524" lon="10.797991837116255"><ele>913.0</ele><time>2026-04-26T09:14:49.002Z</time></trkpt><trkpt lat="43.97728243382361" lon="10.798057945282443"><ele>913.0</ele><time>2026-04-26T09:14:50.002Z</time></trkpt><trkpt lat="43.97742012761295" lon="10.798125983505491"><ele>913.0</ele><time>2026-04-26T09:14:51.002Z</time></trkpt><trkpt lat="43.977576998175024" lon="10.798139914338577"><ele>917.25</ele><time>2026-04-26T09:14:52.002Z</time></trkpt><trkpt lat="43.97773072551369" lon="10.798206551009708"><ele>921.5</ele><time>2026-04-26T09:14:53.002Z</time></trkpt><trkpt lat="43.97785883430933" lon="10.798286402929987"><ele>925.75</ele><time>2026-04-26T09:14:54.002Z</time></trkpt><trkpt lat="43.97798757867151" lon="10.798383627839053"><ele>930.0</ele><time>2026-04-26T09:14:55.002Z</time></trkpt><trkpt lat="43.97813426802897" lon="10.798500113158283"><ele>927.6666666666667</ele><time>2026-04-26T09:14:56.002Z</time></trkpt><trkpt lat="43.978284482177315" lon="10.79862189395118"><ele>925.3333333333334</ele><time>2026-04-26T09:14:57.002Z</time></trkpt><trkpt lat="43.978437050554724" lon="10.798730274540212"><ele>923.0</ele><time>2026-04-26T09:14:58.002Z</time></trkpt><trkpt lat="43.97858283343684" lon="10.79884438920698"><ele>923.0</ele><time>2026-04-26T09:14:59.002Z</time></trkpt><trkpt lat="43.97872446332046" lon="10.798937471968939"><ele>923.0</ele><time>2026-04-26T09:15:00.002Z</time></trkpt><trkpt lat="43.97883504881776" lon="10.799019384100957"><ele>923.0</ele><time>2026-04-26T09:15:01.002Z</time></trkpt><trkpt lat="43.97893881042832" lon="10.79907346445967"><ele>923.0</ele><time>2026-04-26T09:15:02.002Z</time></trkpt><trkpt lat="43.97905746438285" lon="10.799086119724135"><ele>928.75</ele><time>2026-04-26T09:15:03.002Z</time></trkpt><trkpt lat="43.97918640092291" lon="10.799085049044427"><ele>934.5</ele><time>2026-04-26T09:15:04.002Z</time></trkpt><trkpt lat="43.979309931958014" lon="10.799099825568076"><ele>940.25</ele><time>2026-04-26T09:15:05.002Z</time></trkpt><trkpt lat="43.979421846419385" lon="10.799180448830018"><ele>946.0</ele><time>2026-04-26T09:15:06.002Z</time></trkpt><trkpt lat="43.97951579235202" lon="10.79932868854614"><ele>941.75</ele><time>2026-04-26T09:15:07.002Z</time></trkpt><trkpt lat="43.979584458499964" lon="10.79950018902898"><ele>937.5</ele><time>2026-04-26T09:15:08.002Z</time></trkpt><trkpt lat="43.97965245801747" lon="10.799672065482643"><ele>933.25</ele><time>2026-04-26T09:15:09.002Z</time></trkpt><trkpt lat="43.97971682186157" lon="10.799859566643335"><ele>929.0</ele><time>2026-04-26T09:15:10.002Z</time></trkpt><trkpt lat="43.979744541554886" lon="10.800020687205915"><ele>929.0</ele><time>2026-04-26T09:15:11.002Z</time></trkpt><trkpt lat="43.979811710467295" lon="10.800146338105677"><ele>929.0</ele><time>2026-04-26T09:15:12.002Z</time></trkpt><trkpt lat="43.97990194828496" lon="10.800221048756617"><ele>929.0</ele><time>2026-04-26T09:15:13.002Z</time></trkpt><trkpt lat="43.98004125771318" lon="10.800255529438846"><ele>929.0</ele><time>2026-04-26T09:15:14.002Z</time></trkpt><trkpt lat="43.98016813881691" lon="10.800275453289206"><ele>929.0</ele><time>2026-04-26T09:15:15.002Z</time></trkpt><trkpt lat="43.98028416042978" lon="10.800295356518674"><ele>929.0</ele><time>2026-04-26T09:15:16.002Z</time></trkpt><trkpt lat="43.98043247686076" lon="10.800291139641235"><ele>929.0</ele><time>2026-04-26T09:15:17.002Z</time></trkpt><trkpt lat="43.980583322099534" lon="10.800260021466707"><ele>929.0</ele><time>2026-04-26T09:15:18.002Z</time></trkpt><trkpt lat="43.98068882709701" lon="10.800259301472067"><ele>929.0</ele><time>2026-04-26T09:15:19.002Z</time></trkpt><trkpt lat="43.98076761832463" lon="10.80030846829199"><ele>929.0000000000001</ele><time>2026-04-26T09:15:20.002Z</time></trkpt><trkpt lat="43.98081384387321" lon="10.800426182937002"><ele>929.0000000000001</ele><time>2026-04-26T09:15:21.002Z</time></trkpt><trkpt lat="43.98081562508846" lon="10.800578888795705"><ele>929.0</ele><time>2026-04-26T09:15:22.002Z</time></trkpt><trkpt lat="43.98083490077453" lon="10.800724628989967"><ele>929.0</ele><time>2026-04-26T09:15:23.002Z</time></trkpt><trkpt lat="43.980880346723815" lon="10.800816985009426"><ele>930.6</ele><time>2026-04-26T09:15:24.002Z</time></trkpt><trkpt lat="43.98096914296153" lon="10.800860646082796"><ele>932.2</ele><time>2026-04-26T09:15:25.002Z</time></trkpt><trkpt lat="43.981067447631304" lon="10.800841257781851"><ele>933.8000000000001</ele><time>2026-04-26T09:15:26.002Z</time></trkpt><trkpt lat="43.98117774926768" lon="10.80080898902878"><ele>935.4000000000001</ele><time>2026-04-26T09:15:27.002Z</time></trkpt><trkpt lat="43.98129464830519" lon="10.80074459047852"><ele>937.0</ele><time>2026-04-26T09:15:28.002Z</time></trkpt><trkpt lat="43.98142701358203" lon="10.800694565801228"><ele>937.0</ele><time>2026-04-26T09:15:29.002Z</time></trkpt><trkpt lat="43.98158412938616" lon="10.80068909506653"><ele>937.0</ele><time>2026-04-26T09:15:30.002Z</time></trkpt><trkpt lat="43.98175826439724" lon="10.800705802502726"><ele>937.0</ele><time>2026-04-26T09:15:31.002Z</time></trkpt><trkpt lat="43.98191246863589" lon="10.800703067553766"><ele>937.5</ele><time>2026-04-26T09:15:32.002Z</time></trkpt><trkpt lat="43.98206740042944" lon="10.8007320842867"><ele>938.0</ele><time>2026-04-26T09:15:33.002Z</time></trkpt><trkpt lat="43.98220023940109" lon="10.80080060355663"><ele>938.5</ele><time>2026-04-26T09:15:34.002Z</time></trkpt><trkpt lat="43.982309645652485" lon="10.800923294429847"><ele>939.0</ele><time>2026-04-26T09:15:35.002Z</time></trkpt><trkpt lat="43.98242358265778" lon="10.801087524042567"><ele>942.6666666666667</ele><time>2026-04-26T09:15:36.002Z</time></trkpt><trkpt lat="43.982531551360964" lon="10.801252765055526"><ele>946.3333333333334</ele><time>2026-04-26T09:15:37.002Z</time></trkpt><trkpt lat="43.9826310085306" lon="10.801437114781706"><ele>950.0</ele><time>2026-04-26T09:15:38.002Z</time></trkpt><trkpt lat="43.98270345137448" lon="10.801608449694449"><ele>950.0</ele><time>2026-04-26T09:15:39.002Z</time></trkpt><trkpt lat="43.98275653237198" lon="10.801746171587192"><ele>950.0</ele><time>2026-04-26T09:15:40.002Z</time></trkpt><trkpt lat="43.982816963363604" lon="10.801847343654575"><ele>950.0</ele><time>2026-04-26T09:15:41.002Z</time></trkpt><trkpt lat="43.98290020945149" lon="10.801900480477373"><ele>950.0</ele><time>2026-04-26T09:15:42.002Z</time></trkpt><trkpt lat="43.98300024309114" lon="10.801904058060462"><ele>950.0</ele><time>2026-04-26T09:15:43.002Z</time></trkpt><trkpt lat="43.98310535441433" lon="10.801854996048286"><ele>950.0</ele><time>2026-04-26T09:15:44.002Z</time></trkpt><trkpt lat="43.98321584376959" lon="10.801777935269005"><ele>950.0</ele><time>2026-04-26T09:15:45.002Z</time></trkpt><trkpt lat="43.98333720661634" lon="10.801694635408888"><ele>950.0</ele><time>2026-04-26T09:15:46.002Z</time></trkpt><trkpt lat="43.98348054607466" lon="10.801607582528993"><ele>950.0</ele><time>2026-04-26T09:15:47.002Z</time></trkpt><trkpt lat="43.983625628841125" lon="10.801507137993573"><ele>947.3333333333334</ele><time>2026-04-26T09:15:48.002Z</time></trkpt><trkpt lat="43.98376122770135" lon="10.801410894169488"><ele>944.6666666666667</ele><time>2026-04-26T09:15:49.002Z</time></trkpt><trkpt lat="43.98389147639978" lon="10.801302102820836"><ele>942.0</ele><time>2026-04-26T09:15:50.002Z</time></trkpt><trkpt lat="43.98402469096479" lon="10.801165279511126"><ele>942.0</ele><time>2026-04-26T09:15:51.002Z</time></trkpt><trkpt lat="43.984135442415635" lon="10.801041364422513"><ele>942.0</ele><time>2026-04-26T09:15:52.002Z</time></trkpt><trkpt lat="43.98424433287322" lon="10.800923432040252"><ele>942.0</ele><time>2026-04-26T09:15:53.002Z</time></trkpt><trkpt lat="43.98434733348675" lon="10.800794345040769"><ele>942.0</ele><time>2026-04-26T09:15:54.002Z</time></trkpt><trkpt lat="43.98441900280239" lon="10.800710509700865"><ele>943.2</ele><time>2026-04-26T09:15:55.002Z</time></trkpt><trkpt lat="43.984486150452334" lon="10.800635185999345"><ele>944.4000000000001</ele><time>2026-04-26T09:15:56.002Z</time></trkpt><trkpt lat="43.98445464657768" lon="10.800399178752922"><ele>945.5999999999999</ele><time>2026-04-26T09:15:57.002Z</time></trkpt><trkpt lat="43.984452600525685" lon="10.800275554663207"><ele>946.8</ele><time>2026-04-26T09:15:58.002Z</time></trkpt><trkpt lat="43.98450176169507" lon="10.80019408426279"><ele>948.0</ele><time>2026-04-26T09:15:59.002Z</time></trkpt><trkpt lat="43.98457829653547" lon="10.800168698014726"><ele>948.0</ele><time>2026-04-26T09:16:00.002Z</time></trkpt><trkpt lat="43.984663032936595" lon="10.800161970218321"><ele>948.0</ele><time>2026-04-26T09:16:01.002Z</time></trkpt><trkpt lat="43.98475373072944" lon="10.800193040999295"><ele>948.0</ele><time>2026-04-26T09:16:02.002Z</time></trkpt><trkpt lat="43.98484436256373" lon="10.800259168671817"><ele>948.0</ele><time>2026-04-26T09:16:03.002Z</time></trkpt><trkpt lat="43.98492602801205" lon="10.800361312568203"><ele>948.0</ele><time>2026-04-26T09:16:04.002Z</time></trkpt><trkpt lat="43.98498507520283" lon="10.800484465520428"><ele>950.0</ele><time>2026-04-26T09:16:05.002Z</time></trkpt><trkpt lat="43.98502332856771" lon="10.800590188859962"><ele>952.0</ele><time>2026-04-26T09:16:06.002Z</time></trkpt><trkpt lat="43.985073188971455" lon="10.800662526582576"><ele>954.0</ele><time>2026-04-26T09:16:07.002Z</time></trkpt><trkpt lat="43.985215176972936" lon="10.800713276835943"><ele>956.0</ele><time>2026-04-26T09:16:09.002Z</time></trkpt><trkpt lat="43.98533635376406" lon="10.800696061638838"><ele>958.0</ele><time>2026-04-26T09:16:10.002Z</time></trkpt><trkpt lat="43.98545772070496" lon="10.800657469306019"><ele>958.0</ele><time>2026-04-26T09:16:11.002Z</time></trkpt><trkpt lat="43.985581362649775" lon="10.800593832182004"><ele>958.0</ele><time>2026-04-26T09:16:12.002Z</time></trkpt><trkpt lat="43.985705670924226" lon="10.800514416236508"><ele>958.0</ele><time>2026-04-26T09:16:13.002Z</time></trkpt><trkpt lat="43.985828212023854" lon="10.800413251832342"><ele>958.0</ele><time>2026-04-26T09:16:14.002Z</time></trkpt><trkpt lat="43.98594118706648" lon="10.80031121689677"><ele>959.25</ele><time>2026-04-26T09:16:15.002Z</time></trkpt><trkpt lat="43.986071026935235" lon="10.800200543060997"><ele>960.5</ele><time>2026-04-26T09:16:16.002Z</time></trkpt><trkpt lat="43.986183858399954" lon="10.800105658987707"><ele>961.75</ele><time>2026-04-26T09:16:17.002Z</time></trkpt><trkpt lat="43.98628418666651" lon="10.800027314561401"><ele>963.0</ele><time>2026-04-26T09:16:18.002Z</time></trkpt><trkpt lat="43.98638673867153" lon="10.799983357043606"><ele>963.0</ele><time>2026-04-26T09:16:19.002Z</time></trkpt><trkpt lat="43.986502950188815" lon="10.800004009818897"><ele>963.0</ele><time>2026-04-26T09:16:20.002Z</time></trkpt><trkpt lat="43.986608835263105" lon="10.800052518473358"><ele>963.0</ele><time>2026-04-26T09:16:21.002Z</time></trkpt><trkpt lat="43.986719829688916" lon="10.800122513388736"><ele>963.0</ele><time>2026-04-26T09:16:22.002Z</time></trkpt><trkpt lat="43.98684500977081" lon="10.800212729372882"><ele>964.75</ele><time>2026-04-26T09:16:23.002Z</time></trkpt><trkpt lat="43.98697136498662" lon="10.80031662051247"><ele>966.5</ele><time>2026-04-26T09:16:24.002Z</time></trkpt><trkpt lat="43.987094246688336" lon="10.800395787590361"><ele>968.25</ele><time>2026-04-26T09:16:25.002Z</time></trkpt><trkpt lat="43.98719295837267" lon="10.800440378221893"><ele>970.0</ele><time>2026-04-26T09:16:26.002Z</time></trkpt><trkpt lat="43.98728717998089" lon="10.800451295212145"><ele>970.0</ele><time>2026-04-26T09:16:27.002Z</time></trkpt><trkpt lat="43.987362846479684" lon="10.800414829830009"><ele>970.0</ele><time>2026-04-26T09:16:28.002Z</time></trkpt><trkpt lat="43.987415496011316" lon="10.80034190672109"><ele>970.0</ele><time>2026-04-26T09:16:29.002Z</time></trkpt><trkpt lat="43.987445912873596" lon="10.800258291999729"><ele>970.0</ele><time>2026-04-26T09:16:30.003Z</time></trkpt><trkpt lat="43.987450657641716" lon="10.800060488979065"><ele>970.0</ele><time>2026-04-26T09:16:32.002Z</time></trkpt><trkpt lat="43.98740157628603" lon="10.799958097002383"><ele>969.1666666666666</ele><time>2026-04-26T09:16:33.002Z</time></trkpt><trkpt lat="43.98733088829076" lon="10.799857233034057"><ele>968.3333333333333</ele><time>2026-04-26T09:16:34.002Z</time></trkpt><trkpt lat="43.98726168395399" lon="10.799759524960377"><ele>967.5</ele><time>2026-04-26T09:16:35.002Z</time></trkpt><trkpt lat="43.987248544498705" lon="10.799633774165565"><ele>966.6666666666667</ele><time>2026-04-26T09:16:36.002Z</time></trkpt><trkpt lat="43.98725813567443" lon="10.799546084278292"><ele>965.8333333333334</ele><time>2026-04-26T09:16:37.002Z</time></trkpt><trkpt lat="43.987316486374944" lon="10.799451435996152"><ele>965.0</ele><time>2026-04-26T09:16:38.002Z</time></trkpt><trkpt lat="43.987395564871214" lon="10.79932861842735"><ele>964.25</ele><time>2026-04-26T09:16:39.002Z</time></trkpt><trkpt lat="43.98747570716975" lon="10.799185064906272"><ele>963.5</ele><time>2026-04-26T09:16:40.002Z</time></trkpt><trkpt lat="43.987542224870985" lon="10.799021249529613"><ele>962.75</ele><time>2026-04-26T09:16:41.002Z</time></trkpt><trkpt lat="43.98758239801752" lon="10.79889061750944"><ele>962.0</ele><time>2026-04-26T09:16:42.002Z</time></trkpt><trkpt lat="43.98762936326912" lon="10.79876032845313"><ele>964.8</ele><time>2026-04-26T09:16:43.002Z</time></trkpt><trkpt lat="43.98768007659731" lon="10.798652299783484"><ele>967.6</ele><time>2026-04-26T09:16:44.002Z</time></trkpt><trkpt lat="43.98777464927096" lon="10.79858981852114"><ele>970.3999999999999</ele><time>2026-04-26T09:16:45.002Z</time></trkpt><trkpt lat="43.98788920814785" lon="10.798579919790908"><ele>973.1999999999999</ele><time>2026-04-26T09:16:46.002Z</time></trkpt><trkpt lat="43.988018984904706" lon="10.7986101966104"><ele>976.0</ele><time>2026-04-26T09:16:47.002Z</time></trkpt><trkpt lat="43.988152996411046" lon="10.798678644391947"><ele>976.0</ele><time>2026-04-26T09:16:48.002Z</time></trkpt><trkpt lat="43.98826042053907" lon="10.798719703227858"><ele>975.9999999999999</ele><time>2026-04-26T09:16:49.002Z</time></trkpt><trkpt lat="43.988352731313185" lon="10.798722649246276"><ele>975.9999999999999</ele><time>2026-04-26T09:16:50.002Z</time></trkpt><trkpt lat="43.98842483446334" lon="10.798696644258051"><ele>976.0</ele><time>2026-04-26T09:16:51.002Z</time></trkpt><trkpt lat="43.98847676432116" lon="10.79860644451891"><ele>976.0</ele><time>2026-04-26T09:16:52.002Z</time></trkpt><trkpt lat="43.988491725543575" lon="10.798485435946239"><ele>976.8</ele><time>2026-04-26T09:16:53.002Z</time></trkpt><trkpt lat="43.98846970570805" lon="10.79834832392856"><ele>977.5999999999999</ele><time>2026-04-26T09:16:54.002Z</time></trkpt><trkpt lat="43.98844824410386" lon="10.798200181784528"><ele>978.4</ele><time>2026-04-26T09:16:55.002Z</time></trkpt><trkpt lat="43.98843271737432" lon="10.798055248882623"><ele>979.2</ele><time>2026-04-26T09:16:56.002Z</time></trkpt><trkpt lat="43.98845353826732" lon="10.797904152345668"><ele>980.0</ele><time>2026-04-26T09:16:57.002Z</time></trkpt><trkpt lat="43.98849316035703" lon="10.797766409151691"><ele>976.4</ele><time>2026-04-26T09:16:58.002Z</time></trkpt><trkpt lat="43.988552432362084" lon="10.797663908385282"><ele>972.8</ele><time>2026-04-26T09:16:59.002Z</time></trkpt><trkpt lat="43.98863514442677" lon="10.797597807116036"><ele>969.2</ele><time>2026-04-26T09:17:00.002Z</time></trkpt><trkpt lat="43.98874182535155" lon="10.797571541578773"><ele>965.6</ele><time>2026-04-26T09:17:01.002Z</time></trkpt><trkpt lat="43.988864917423896" lon="10.79759588058961"><ele>962.0</ele><time>2026-04-26T09:17:02.002Z</time></trkpt><trkpt lat="43.98899292945074" lon="10.797649922204712"><ele>964.6666666666667</ele><time>2026-04-26T09:17:03.002Z</time></trkpt><trkpt lat="43.98911189110817" lon="10.797702355553303"><ele>967.3333333333334</ele><time>2026-04-26T09:17:04.002Z</time></trkpt><trkpt lat="43.98920656640324" lon="10.797734759820544"><ele>970.0</ele><time>2026-04-26T09:17:05.002Z</time></trkpt><trkpt lat="43.98927675337353" lon="10.797700591175696"><ele>972.6666666666667</ele><time>2026-04-26T09:17:06.002Z</time></trkpt><trkpt lat="43.989315113382695" lon="10.797614112637316"><ele>975.3333333333334</ele><time>2026-04-26T09:17:07.002Z</time></trkpt><trkpt lat="43.98932966423504" lon="10.797506127286697"><ele>978.0</ele><time>2026-04-26T09:17:08.002Z</time></trkpt><trkpt lat="43.98929839085232" lon="10.797389676802426"><ele>978.0</ele><time>2026-04-26T09:17:09.002Z</time></trkpt><trkpt lat="43.98926192542501" lon="10.797254552951689"><ele>978.0</ele><time>2026-04-26T09:17:10.002Z</time></trkpt><trkpt lat="43.989258645730274" lon="10.797124228924416"><ele>978.0</ele><time>2026-04-26T09:17:11.002Z</time></trkpt><trkpt lat="43.98931454172456" lon="10.797019897441135"><ele>978.0</ele><time>2026-04-26T09:17:12.002Z</time></trkpt><trkpt lat="43.98939464204776" lon="10.796968099727993"><ele>978.0</ele><time>2026-04-26T09:17:13.002Z</time></trkpt><trkpt lat="43.98950382933995" lon="10.79693906900669"><ele>978.0</ele><time>2026-04-26T09:17:14.002Z</time></trkpt><trkpt lat="43.98963012774579" lon="10.796925017420593"><ele>978.0</ele><time>2026-04-26T09:17:15.002Z</time></trkpt><trkpt lat="43.989766889333" lon="10.79690876192968"><ele>978.0</ele><time>2026-04-26T09:17:16.002Z</time></trkpt><trkpt lat="43.98989446815113" lon="10.796936025126646"><ele>978.0</ele><time>2026-04-26T09:17:17.002Z</time></trkpt><trkpt lat="43.99001004951083" lon="10.796974062983697"><ele>977.4</ele><time>2026-04-26T09:17:18.002Z</time></trkpt><trkpt lat="43.99009911914257" lon="10.797000998177193"><ele>976.8</ele><time>2026-04-26T09:17:19.002Z</time></trkpt><trkpt lat="43.99017956661983" lon="10.796981490807077"><ele>976.2</ele><time>2026-04-26T09:17:20.002Z</time></trkpt><trkpt lat="43.990246271204256" lon="10.796920835512116"><ele>975.6</ele><time>2026-04-26T09:17:21.002Z</time></trkpt><trkpt lat="43.990287369084406" lon="10.796803784146933"><ele>975.0</ele><time>2026-04-26T09:17:22.002Z</time></trkpt><trkpt lat="43.99031980994893" lon="10.796653286301268"><ele>975.0</ele><time>2026-04-26T09:17:23.002Z</time></trkpt><trkpt lat="43.99037009115389" lon="10.796491984350446"><ele>975.0</ele><time>2026-04-26T09:17:24.002Z</time></trkpt><trkpt lat="43.99043132860019" lon="10.796345025250762"><ele>975.0</ele><time>2026-04-26T09:17:25.002Z</time></trkpt><trkpt lat="43.99052358221107" lon="10.796203832364665"><ele>975.0</ele><time>2026-04-26T09:17:26.002Z</time></trkpt><trkpt lat="43.99061289074723" lon="10.796058365730724"><ele>974.5</ele><time>2026-04-26T09:17:27.002Z</time></trkpt><trkpt lat="43.9906933747046" lon="10.795918524538545"><ele>974.0</ele><time>2026-04-26T09:17:28.002Z</time></trkpt><trkpt lat="43.990778822875505" lon="10.795817753878607"><ele>973.5</ele><time>2026-04-26T09:17:29.002Z</time></trkpt><trkpt lat="43.990880034208736" lon="10.795735097942392"><ele>973.0</ele><time>2026-04-26T09:17:30.002Z</time></trkpt><trkpt lat="43.99099445290531" lon="10.795676806418772"><ele>973.0</ele><time>2026-04-26T09:17:31.002Z</time></trkpt><trkpt lat="43.99112311597274" lon="10.795625334514218"><ele>973.0</ele><time>2026-04-26T09:17:32.002Z</time></trkpt><trkpt lat="43.99126068011068" lon="10.795563560805762"><ele>973.0</ele><time>2026-04-26T09:17:33.002Z</time></trkpt><trkpt lat="43.99139297740229" lon="10.79548863499051"><ele>973.0</ele><time>2026-04-26T09:17:34.002Z</time></trkpt><trkpt lat="43.99151453465804" lon="10.79538979964025"><ele>973.0</ele><time>2026-04-26T09:17:35.002Z</time></trkpt><trkpt lat="43.99163343365891" lon="10.795299323221107"><ele>973.0</ele><time>2026-04-26T09:17:36.002Z</time></trkpt><trkpt lat="43.99176183399896" lon="10.795244895105283"><ele>973.0</ele><time>2026-04-26T09:17:37.002Z</time></trkpt><trkpt lat="43.991890130824274" lon="10.79519053573014"><ele>973.0</ele><time>2026-04-26T09:17:38.002Z</time></trkpt><trkpt lat="43.992007874796386" lon="10.795144148286829"><ele>973.0</ele><time>2026-04-26T09:17:39.002Z</time></trkpt><trkpt lat="43.99210374911991" lon="10.795048024146613"><ele>973.0</ele><time>2026-04-26T09:17:40.002Z</time></trkpt><trkpt lat="43.992198306536665" lon="10.794898440102292"><ele>973.0</ele><time>2026-04-26T09:17:41.002Z</time></trkpt><trkpt lat="43.99228699929886" lon="10.794730375720597"><ele>973.0</ele><time>2026-04-26T09:17:42.002Z</time></trkpt><trkpt lat="43.99237668066231" lon="10.794582572912862"><ele>973.0</ele><time>2026-04-26T09:17:43.002Z</time></trkpt><trkpt lat="43.99246919292624" lon="10.794476264402423"><ele>973.0</ele><time>2026-04-26T09:17:44.002Z</time></trkpt><trkpt lat="43.992573613748405" lon="10.794399138405975"><ele>973.0</ele><time>2026-04-26T09:17:45.002Z</time></trkpt><trkpt lat="43.99269552931721" lon="10.794350483825001"><ele>973.0</ele><time>2026-04-26T09:17:46.002Z</time></trkpt><trkpt lat="43.99282736469954" lon="10.794299875123748"><ele>968.25</ele><time>2026-04-26T09:17:47.002Z</time></trkpt><trkpt lat="43.992953874418916" lon="10.794257927931927"><ele>963.5</ele><time>2026-04-26T09:17:48.002Z</time></trkpt><trkpt lat="43.99307066137747" lon="10.794224706660973"><ele>958.75</ele><time>2026-04-26T09:17:49.002Z</time></trkpt><trkpt lat="43.993185785815314" lon="10.794195019018412"><ele>954.0</ele><time>2026-04-26T09:17:50.002Z</time></trkpt><trkpt lat="43.993284979723995" lon="10.794212350378602"><ele>958.0</ele><time>2026-04-26T09:17:51.002Z</time></trkpt><trkpt lat="43.99337379646214" lon="10.794268148555073"><ele>962.0</ele><time>2026-04-26T09:17:52.002Z</time></trkpt><trkpt lat="43.99346467533655" lon="10.794350372546118"><ele>966.0</ele><time>2026-04-26T09:17:53.002Z</time></trkpt><trkpt lat="43.99355226618077" lon="10.794460187741356"><ele>970.0</ele><time>2026-04-26T09:17:54.002Z</time></trkpt><trkpt lat="43.99365810083395" lon="10.794599747341586"><ele>970.0</ele><time>2026-04-26T09:17:55.002Z</time></trkpt><trkpt lat="43.993778176900484" lon="10.794729677741303"><ele>970.0</ele><time>2026-04-26T09:17:56.002Z</time></trkpt><trkpt lat="43.993888820181354" lon="10.79482961217262"><ele>970.0</ele><time>2026-04-26T09:17:57.002Z</time></trkpt><trkpt lat="43.9940071882409" lon="10.79488441099264"><ele>970.0</ele><time>2026-04-26T09:17:58.002Z</time></trkpt><trkpt lat="43.994140434240826" lon="10.794900659137873"><ele>967.75</ele><time>2026-04-26T09:17:59.002Z</time></trkpt><trkpt lat="43.99429359291068" lon="10.794907838562345"><ele>965.5</ele><time>2026-04-26T09:18:00.002Z</time></trkpt><trkpt lat="43.99442798634242" lon="10.794904383325157"><ele>963.25</ele><time>2026-04-26T09:18:01.002Z</time></trkpt><trkpt lat="43.99454787336981" lon="10.794928764703378"><ele>961.0</ele><time>2026-04-26T09:18:02.002Z</time></trkpt><trkpt lat="43.99465198459792" lon="10.794981575390231"><ele>960.9999999999999</ele><time>2026-04-26T09:18:03.002Z</time></trkpt><trkpt lat="43.994746999851955" lon="10.79501456977318"><ele>961.0</ele><time>2026-04-26T09:18:04.002Z</time></trkpt><trkpt lat="43.99484051797221" lon="10.79503557867367"><ele>961.0</ele><time>2026-04-26T09:18:05.002Z</time></trkpt><trkpt lat="43.994918432159466" lon="10.795026940459543"><ele>961.0</ele><time>2026-04-26T09:18:06.002Z</time></trkpt><trkpt lat="43.994989338389516" lon="10.795012982054386"><ele>960.9999999999999</ele><time>2026-04-26T09:18:07.002Z</time></trkpt><trkpt lat="43.995075883503674" lon="10.795037226141941"><ele>961.0</ele><time>2026-04-26T09:18:08.002Z</time></trkpt><trkpt lat="43.99516104127536" lon="10.795086976048395"><ele>958.5</ele><time>2026-04-26T09:18:09.002Z</time></trkpt><trkpt lat="43.99523563866323" lon="10.795192832341039"><ele>956.0</ele><time>2026-04-26T09:18:10.002Z</time></trkpt><trkpt lat="43.99531935480848" lon="10.795319840688014"><ele>953.5</ele><time>2026-04-26T09:18:11.002Z</time></trkpt><trkpt lat="43.99542122175306" lon="10.79542607097582"><ele>951.0</ele><time>2026-04-26T09:18:12.002Z</time></trkpt><trkpt lat="43.99549685273288" lon="10.7955200278978"><ele>951.0</ele><time>2026-04-26T09:18:13.002Z</time></trkpt><trkpt lat="43.995540498962825" lon="10.795619434640109"><ele>950.9999999999999</ele><time>2026-04-26T09:18:14.002Z</time></trkpt><trkpt lat="43.99555193677746" lon="10.795739603334168"><ele>950.9999999999999</ele><time>2026-04-26T09:18:15.002Z</time></trkpt><trkpt lat="43.99554160417466" lon="10.795891762557828"><ele>951.0</ele><time>2026-04-26T09:18:16.002Z</time></trkpt><trkpt lat="43.99553156396081" lon="10.796055551936776"><ele>951.0</ele><time>2026-04-26T09:18:17.002Z</time></trkpt><trkpt lat="43.99551466038014" lon="10.796206187835121"><ele>950.4</ele><time>2026-04-26T09:18:18.002Z</time></trkpt><trkpt lat="43.99547538865411" lon="10.796312768095586"><ele>949.8</ele><time>2026-04-26T09:18:19.002Z</time></trkpt><trkpt lat="43.995411967508176" lon="10.796372501360572"><ele>949.1999999999999</ele><time>2026-04-26T09:18:20.002Z</time></trkpt><trkpt lat="43.995330195851686" lon="10.796402286805078"><ele>948.5999999999999</ele><time>2026-04-26T09:18:21.002Z</time></trkpt><trkpt lat="43.99522383469514" lon="10.796422641516987"><ele>948.0</ele><time>2026-04-26T09:18:22.002Z</time></trkpt><trkpt lat="43.995120516133724" lon="10.796462620717316"><ele>948.0</ele><time>2026-04-26T09:18:23.002Z</time></trkpt><trkpt lat="43.9950148240246" lon="10.796527463127559"><ele>948.0</ele><time>2026-04-26T09:18:24.002Z</time></trkpt><trkpt lat="43.99493179458313" lon="10.796592121651313"><ele>948.0</ele><time>2026-04-26T09:18:25.002Z</time></trkpt><trkpt lat="43.99488282673979" lon="10.796670188230832"><ele>948.0</ele><time>2026-04-26T09:18:26.002Z</time></trkpt><trkpt lat="43.99487288507517" lon="10.796768188715303"><ele>948.0</ele><time>2026-04-26T09:18:27.003Z</time></trkpt><trkpt lat="43.99489154625601" lon="10.796864202835431"><ele>948.0</ele><time>2026-04-26T09:18:28.002Z</time></trkpt><trkpt lat="43.99494615525468" lon="10.79694686293706"><ele>951.25</ele><time>2026-04-26T09:18:29.002Z</time></trkpt><trkpt lat="43.995036320357514" lon="10.796991815708658"><ele>954.5</ele><time>2026-04-26T09:18:30.002Z</time></trkpt><trkpt lat="43.99512412869003" lon="10.797013252629924"><ele>957.75</ele><time>2026-04-26T09:18:31.003Z</time></trkpt><trkpt lat="43.99524869132318" lon="10.79704575668092"><ele>961.0</ele><time>2026-04-26T09:18:32.003Z</time></trkpt><trkpt lat="43.995383361420856" lon="10.797091616402206"><ele>961.0</ele><time>2026-04-26T09:18:33.002Z</time></trkpt><trkpt lat="43.99551923813241" lon="10.797156930678746"><ele>961.0</ele><time>2026-04-26T09:18:34.002Z</time></trkpt><trkpt lat="43.99563902334957" lon="10.797227417349061"><ele>961.0</ele><time>2026-04-26T09:18:35.002Z</time></trkpt><trkpt lat="43.99575265412335" lon="10.797275630275392"><ele>961.0</ele><time>2026-04-26T09:18:36.002Z</time></trkpt><trkpt lat="43.99585890478285" lon="10.79732347591148"><ele>957.5999999999999</ele><time>2026-04-26T09:18:37.002Z</time></trkpt><trkpt lat="43.99592728576371" lon="10.797394841686911"><ele>954.1999999999999</ele><time>2026-04-26T09:18:38.002Z</time></trkpt><trkpt lat="43.995984474698865" lon="10.797508230567717"><ele>950.8000000000001</ele><time>2026-04-26T09:18:39.002Z</time></trkpt><trkpt lat="43.99600279351335" lon="10.797640184630243"><ele>947.4000000000001</ele><time>2026-04-26T09:18:40.002Z</time></trkpt><trkpt lat="43.99602909990339" lon="10.797777441085035"><ele>944.0</ele><time>2026-04-26T09:18:41.002Z</time></trkpt><trkpt lat="43.99604875294988" lon="10.797937867157644"><ele>944.0</ele><time>2026-04-26T09:18:42.002Z</time></trkpt><trkpt lat="43.99604747144707" lon="10.798112455271342"><ele>944.0</ele><time>2026-04-26T09:18:43.002Z</time></trkpt><trkpt lat="43.9960636957" lon="10.798285513385284"><ele>944.0</ele><time>2026-04-26T09:18:44.002Z</time></trkpt><trkpt lat="43.99609521990462" lon="10.798473970403194"><ele>944.0</ele><time>2026-04-26T09:18:45.002Z</time></trkpt><trkpt lat="43.99612158303287" lon="10.79866788169617"><ele>947.0</ele><time>2026-04-26T09:18:46.002Z</time></trkpt><trkpt lat="43.99614070783602" lon="10.79885519670481"><ele>950.0</ele><time>2026-04-26T09:18:47.002Z</time></trkpt><trkpt lat="43.9961746901584" lon="10.799035855508839"><ele>953.0</ele><time>2026-04-26T09:18:48.002Z</time></trkpt><trkpt lat="43.99620434905111" lon="10.799209364789354"><ele>956.0</ele><time>2026-04-26T09:18:49.002Z</time></trkpt><trkpt lat="43.99622976665548" lon="10.799365753988218"><ele>958.0</ele><time>2026-04-26T09:18:50.002Z</time></trkpt><trkpt lat="43.99625649505591" lon="10.79950916967232"><ele>960.0</ele><time>2026-04-26T09:18:51.002Z</time></trkpt><trkpt lat="43.99631058896541" lon="10.799646722931385"><ele>962.0</ele><time>2026-04-26T09:18:52.002Z</time></trkpt><trkpt lat="43.99638348610898" lon="10.799763916420128"><ele>964.0</ele><time>2026-04-26T09:18:53.002Z</time></trkpt><trkpt lat="43.996490606244336" lon="10.799850137129683"><ele>964.0</ele><time>2026-04-26T09:18:54.002Z</time></trkpt><trkpt lat="43.99663558160885" lon="10.799914102510265"><ele>964.0</ele><time>2026-04-26T09:18:55.002Z</time></trkpt><trkpt lat="43.99676868480976" lon="10.79993743756165"><ele>964.0</ele><time>2026-04-26T09:18:56.002Z</time></trkpt><trkpt lat="43.996908221820206" lon="10.799914181469381"><ele>964.0</ele><time>2026-04-26T09:18:57.002Z</time></trkpt><trkpt lat="43.997024244041725" lon="10.799843903769078"><ele>963.25</ele><time>2026-04-26T09:18:58.002Z</time></trkpt><trkpt lat="43.997128928016764" lon="10.799757567498878"><ele>962.5</ele><time>2026-04-26T09:18:59.002Z</time></trkpt><trkpt lat="43.99721123516405" lon="10.799671775353692"><ele>961.75</ele><time>2026-04-26T09:19:00.002Z</time></trkpt><trkpt lat="43.997297829494876" lon="10.799582835253835"><ele>961.0</ele><time>2026-04-26T09:19:01.002Z</time></trkpt><trkpt lat="43.997414311496705" lon="10.799459393326101"><ele>960.0</ele><time>2026-04-26T09:19:02.002Z</time></trkpt><trkpt lat="43.9975123352259" lon="10.799339562912559"><ele>959.0</ele><time>2026-04-26T09:19:03.002Z</time></trkpt><trkpt lat="43.9975972373529" lon="10.799235773171688"><ele>958.0</ele><time>2026-04-26T09:19:04.002Z</time></trkpt><trkpt lat="43.99768720823469" lon="10.799145327282512"><ele>957.0</ele><time>2026-04-26T09:19:05.002Z</time></trkpt><trkpt lat="43.997787483093596" lon="10.79909000916458"><ele>957.0</ele><time>2026-04-26T09:19:06.002Z</time></trkpt><trkpt lat="43.99788714918584" lon="10.799117657551331"><ele>957.0</ele><time>2026-04-26T09:19:07.002Z</time></trkpt><trkpt lat="43.997976643781065" lon="10.799211439875128"><ele>957.0</ele><time>2026-04-26T09:19:08.002Z</time></trkpt><trkpt lat="43.998083652757664" lon="10.799312257449426"><ele>957.0</ele><time>2026-04-26T09:19:09.002Z</time></trkpt><trkpt lat="43.99818871464397" lon="10.799446969865294"><ele>957.0</ele><time>2026-04-26T09:19:10.002Z</time></trkpt><trkpt lat="43.998284290133164" lon="10.799584696740942"><ele>957.0</ele><time>2026-04-26T09:19:11.002Z</time></trkpt><trkpt lat="43.99836827190397" lon="10.79972636820655"><ele>957.0</ele><time>2026-04-26T09:19:12.002Z</time></trkpt><trkpt lat="43.99845471064174" lon="10.799882061845592"><ele>957.0</ele><time>2026-04-26T09:19:13.002Z</time></trkpt><trkpt lat="43.99855278779309" lon="10.800040281860934"><ele>954.75</ele><time>2026-04-26T09:19:14.002Z</time></trkpt><trkpt lat="43.998632693494685" lon="10.80019252924999"><ele>952.5</ele><time>2026-04-26T09:19:15.002Z</time></trkpt><trkpt lat="43.99868425960215" lon="10.800351123484159"><ele>950.25</ele><time>2026-04-26T09:19:16.002Z</time></trkpt><trkpt lat="43.99872574460185" lon="10.800527816689753"><ele>948.0</ele><time>2026-04-26T09:19:17.002Z</time></trkpt><trkpt lat="43.998758527848466" lon="10.800717424747326"><ele>948.0</ele><time>2026-04-26T09:19:18.002Z</time></trkpt><trkpt lat="43.99876338277506" lon="10.800905790470948"><ele>948.0</ele><time>2026-04-26T09:19:19.002Z</time></trkpt><trkpt lat="43.99876723319628" lon="10.801080408890073"><ele>948.0</ele><time>2026-04-26T09:19:20.002Z</time></trkpt><trkpt lat="43.99879610066334" lon="10.801195974186877"><ele>948.0</ele><time>2026-04-26T09:19:21.002Z</time></trkpt><trkpt lat="43.99882109350704" lon="10.801306001941946"><ele>948.0</ele><time>2026-04-26T09:19:22.002Z</time></trkpt><trkpt lat="43.998884264575274" lon="10.801351180176212"><ele>949.25</ele><time>2026-04-26T09:19:23.002Z</time></trkpt><trkpt lat="43.99895206955478" lon="10.8013962293162"><ele>950.5</ele><time>2026-04-26T09:19:24.002Z</time></trkpt><trkpt lat="43.999034759257384" lon="10.801413576099527"><ele>951.75</ele><time>2026-04-26T09:19:25.002Z</time></trkpt><trkpt lat="43.999172043586874" lon="10.801357623778616"><ele>953.0</ele><time>2026-04-26T09:19:26.002Z</time></trkpt><trkpt lat="43.999234681849956" lon="10.801156063839963"><ele>951.75</ele><time>2026-04-26T09:19:27.002Z</time></trkpt><trkpt lat="43.99926111609047" lon="10.800982390545936"><ele>950.5</ele><time>2026-04-26T09:19:28.002Z</time></trkpt><trkpt lat="43.999294949277065" lon="10.800806962076205"><ele>949.25</ele><time>2026-04-26T09:19:29.003Z</time></trkpt><trkpt lat="43.99933479646795" lon="10.800664696201345"><ele>948.0</ele><time>2026-04-26T09:19:30.003Z</time></trkpt><trkpt lat="43.99939665691111" lon="10.800518504664382"><ele>948.0</ele><time>2026-04-26T09:19:31.003Z</time></trkpt><trkpt lat="43.999468978112716" lon="10.800378078790073"><ele>948.0</ele><time>2026-04-26T09:19:32.003Z</time></trkpt><trkpt lat="43.999541141393976" lon="10.800257223233361"><ele>948.0</ele><time>2026-04-26T09:19:33.003Z</time></trkpt><trkpt lat="43.99961468893599" lon="10.800155821587182"><ele>948.0</ele><time>2026-04-26T09:19:34.003Z</time></trkpt><trkpt lat="43.99967006849628" lon="10.800080592241628"><ele>948.0</ele><time>2026-04-26T09:19:35.003Z</time></trkpt><trkpt lat="43.9997550184059" lon="10.800098290711478"><ele>948.0</ele><time>2026-04-26T09:19:36.003Z</time></trkpt><trkpt lat="43.99982236528854" lon="10.80017563790493"><ele>948.0</ele><time>2026-04-26T09:19:37.003Z</time></trkpt><trkpt lat="43.99987199352529" lon="10.800306369601305"><ele>948.0</ele><time>2026-04-26T09:19:38.003Z</time></trkpt><trkpt lat="43.99991472687416" lon="10.800461125531577"><ele>948.0</ele><time>2026-04-26T09:19:39.003Z</time></trkpt><trkpt lat="43.999959398333466" lon="10.800625282501036"><ele>948.0</ele><time>2026-04-26T09:19:40.003Z</time></trkpt><trkpt lat="44.00000136604225" lon="10.800781747170348"><ele>948.0</ele><time>2026-04-26T09:19:41.003Z</time></trkpt><trkpt lat="44.00004838593462" lon="10.800923533385422"><ele>948.0</ele><time>2026-04-26T09:19:42.003Z</time></trkpt><trkpt lat="44.0000908346298" lon="10.801074049864777"><ele>948.0</ele><time>2026-04-26T09:19:43.003Z</time></trkpt><trkpt lat="44.000138003665306" lon="10.8012315691518"><ele>948.0</ele><time>2026-04-26T09:19:44.003Z</time></trkpt><trkpt lat="44.000191721249585" lon="10.801403650894454"><ele>949.5999999999999</ele><time>2026-04-26T09:19:45.003Z</time></trkpt><trkpt lat="44.000232718862776" lon="10.801569042435062"><ele>951.1999999999999</ele><time>2026-04-26T09:19:46.003Z</time></trkpt><trkpt lat="44.00027389757171" lon="10.80171661665008"><ele>952.8</ele><time>2026-04-26T09:19:47.003Z</time></trkpt><trkpt lat="44.00027576558037" lon="10.801856791543038"><ele>954.4</ele><time>2026-04-26T09:19:48.003Z</time></trkpt><trkpt lat="44.00030679852127" lon="10.801986415931752"><ele>956.0</ele><time>2026-04-26T09:19:49.003Z</time></trkpt><trkpt lat="44.000329328049" lon="10.802129042911849"><ele>956.5999999999999</ele><time>2026-04-26T09:19:50.003Z</time></trkpt><trkpt lat="44.00033715704284" lon="10.802271904282447"><ele>957.1999999999999</ele><time>2026-04-26T09:19:51.003Z</time></trkpt><trkpt lat="44.00034517427112" lon="10.802426826179621"><ele>957.8000000000001</ele><time>2026-04-26T09:19:52.003Z</time></trkpt><trkpt lat="44.00034124634903" lon="10.80258361949394"><ele>958.4000000000001</ele><time>2026-04-26T09:19:53.003Z</time></trkpt><trkpt lat="44.00033462682519" lon="10.802723537218974"><ele>959.0</ele><time>2026-04-26T09:19:54.003Z</time></trkpt><trkpt lat="44.000345814400504" lon="10.802892861499576"><ele>959.0</ele><time>2026-04-26T09:19:55.003Z</time></trkpt><trkpt lat="44.00034682237331" lon="10.803066702022532"><ele>959.0</ele><time>2026-04-26T09:19:56.003Z</time></trkpt><trkpt lat="44.00034542276601" lon="10.803227081070494"><ele>959.0</ele><time>2026-04-26T09:19:57.003Z</time></trkpt><trkpt lat="44.00037651569699" lon="10.803376987073172"><ele>959.0</ele><time>2026-04-26T09:19:58.003Z</time></trkpt><trkpt lat="44.00036120686525" lon="10.803521230142367"><ele>959.0</ele><time>2026-04-26T09:19:59.003Z</time></trkpt><trkpt lat="44.000330631584035" lon="10.80362910228198"><ele>959.0000000000001</ele><time>2026-04-26T09:20:00.003Z</time></trkpt><trkpt lat="44.00027160721434" lon="10.803780748682488"><ele>959.0000000000001</ele><time>2026-04-26T09:20:02.003Z</time></trkpt><trkpt lat="44.00027470927914" lon="10.803941492941709"><ele>959.0</ele><time>2026-04-26T09:20:04.003Z</time></trkpt><trkpt lat="44.00027901204961" lon="10.804045377410437"><ele>959.0</ele><time>2026-04-26T09:20:05.003Z</time></trkpt><trkpt lat="44.000287498539834" lon="10.804160117825553"><ele>959.0</ele><time>2026-04-26T09:20:06.003Z</time></trkpt><trkpt lat="44.000290393431854" lon="10.804285540334849"><ele>959.0000000000001</ele><time>2026-04-26T09:20:07.003Z</time></trkpt><trkpt lat="44.00029555562031" lon="10.80442498893185"><ele>959.0000000000001</ele><time>2026-04-26T09:20:08.003Z</time></trkpt><trkpt lat="44.00030216324094" lon="10.804588475010554"><ele>959.0</ele><time>2026-04-26T09:20:09.003Z</time></trkpt><trkpt lat="44.00026614691848" lon="10.804770646851043"><ele>959.0</ele><time>2026-04-26T09:20:10.003Z</time></trkpt><trkpt lat="44.00024653603546" lon="10.804948525937009"><ele>958.2</ele><time>2026-04-26T09:20:11.003Z</time></trkpt><trkpt lat="44.00022840969086" lon="10.805110854558178"><ele>957.4000000000001</ele><time>2026-04-26T09:20:12.003Z</time></trkpt><trkpt lat="44.00021402678771" lon="10.805248645496805"><ele>956.6</ele><time>2026-04-26T09:20:13.003Z</time></trkpt><trkpt lat="44.00020032859977" lon="10.805403451991689"><ele>955.8</ele><time>2026-04-26T09:20:14.003Z</time></trkpt><trkpt lat="44.000186187474746" lon="10.805547227955214"><ele>955.0</ele><time>2026-04-26T09:20:15.003Z</time></trkpt><trkpt lat="44.00017855602482" lon="10.805646063499692"><ele>952.5</ele><time>2026-04-26T09:20:16.003Z</time></trkpt><trkpt lat="44.00013984667813" lon="10.805930370091037"><ele>950.0</ele><time>2026-04-26T09:20:18.003Z</time></trkpt><trkpt lat="44.000242228206396" lon="10.806022719656447"><ele>947.5</ele><time>2026-04-26T09:20:19.003Z</time></trkpt><trkpt lat="44.00033599854005" lon="10.806035354171929"><ele>945.0</ele><time>2026-04-26T09:20:20.003Z</time></trkpt><trkpt lat="44.000420976920346" lon="10.806032971282448"><ele>945.0</ele><time>2026-04-26T09:20:21.003Z</time></trkpt><trkpt lat="44.00052795624939" lon="10.805935710821558"><ele>945.0</ele><time>2026-04-26T09:20:22.003Z</time></trkpt><trkpt lat="44.00057978435942" lon="10.805877862556278"><ele>945.0</ele><time>2026-04-26T09:20:23.003Z</time></trkpt><trkpt lat="44.00065413167799" lon="10.805794879362834"><ele>945.0</ele><time>2026-04-26T09:20:24.003Z</time></trkpt><trkpt lat="44.00073078336551" lon="10.805709393144435"><ele>945.0</ele><time>2026-04-26T09:20:25.003Z</time></trkpt><trkpt lat="44.00080610649177" lon="10.805629395720677"><ele>945.0</ele><time>2026-04-26T09:20:26.003Z</time></trkpt><trkpt lat="44.000876428267375" lon="10.805566788902883"><ele>945.0</ele><time>2026-04-26T09:20:27.003Z</time></trkpt><trkpt lat="44.00097513469918" lon="10.805451075513611"><ele>945.0</ele><time>2026-04-26T09:20:29.003Z</time></trkpt><trkpt lat="44.001042154610644" lon="10.805353444078637"><ele>945.0</ele><time>2026-04-26T09:20:31.002Z</time></trkpt><trkpt lat="44.00109464562141" lon="10.805300478668364"><ele>945.0</ele><time>2026-04-26T09:20:34.002Z</time></trkpt><trkpt lat="44.00115912045367" lon="10.80524682578037"><ele>945.0</ele><time>2026-04-26T09:20:44.002Z</time></trkpt><trkpt lat="44.00121412759136" lon="10.80516894898882"><ele>945.0</ele><time>2026-04-26T09:20:59.002Z</time></trkpt><trkpt lat="44.00106725265788" lon="10.804992610695892"><ele>945.0</ele><time>2026-04-26T09:21:52.001Z</time></trkpt><trkpt lat="44.00110033571572" lon="10.805132861329149"><ele>945.0</ele><time>2026-04-26T09:22:18.001Z</time></trkpt><trkpt lat="44.00114220858516" lon="10.805218160490275"><ele>945.0</ele><time>2026-04-26T09:22:26.001Z</time></trkpt><trkpt lat="44.001095663574965" lon="10.805149890039676"><ele>945.0</ele><time>2026-04-26T09:23:20Z</time></trkpt><trkpt lat="44.001160837737395" lon="10.80519337642622"><ele>945.0</ele><time>2026-04-26T09:24:33.001Z</time></trkpt><trkpt lat="44.00110418784227" lon="10.805112815617445"><ele>945.0</ele><time>2026-04-26T09:30:58.001Z</time></trkpt><trkpt lat="44.00116947286524" lon="10.805116876049894"><ele>945.0</ele><time>2026-04-26T09:32:17.001Z</time></trkpt><trkpt lat="44.0012604391016" lon="10.805105855944012"><ele>945.0</ele><time>2026-04-26T09:32:24.001Z</time></trkpt><trkpt lat="44.00133869960965" lon="10.805059547246913"><ele>944.4</ele><time>2026-04-26T09:32:26.001Z</time></trkpt><trkpt lat="44.001438845579464" lon="10.804977250114176"><ele>943.8</ele><time>2026-04-26T09:32:28.001Z</time></trkpt><trkpt lat="44.001526354571595" lon="10.80492872222839"><ele>943.2</ele><time>2026-04-26T09:32:29.001Z</time></trkpt><trkpt lat="44.00163424562614" lon="10.804927734550963"><ele>942.6</ele><time>2026-04-26T09:32:30.001Z</time></trkpt><trkpt lat="44.0017325376782" lon="10.804931103632278"><ele>942.0</ele><time>2026-04-26T09:32:31.001Z</time></trkpt><trkpt lat="44.00182044723558" lon="10.804972844493175"><ele>942.0</ele><time>2026-04-26T09:32:32.001Z</time></trkpt><trkpt lat="44.00188256431304" lon="10.805034023606161"><ele>942.0</ele><time>2026-04-26T09:32:33.001Z</time></trkpt><trkpt lat="44.00198222383821" lon="10.805095037872599"><ele>942.0</ele><time>2026-04-26T09:32:34.001Z</time></trkpt><trkpt lat="44.002052472966426" lon="10.805186142186"><ele>942.0</ele><time>2026-04-26T09:32:35.001Z</time></trkpt><trkpt lat="44.0021481002409" lon="10.80526210654479"><ele>942.0</ele><time>2026-04-26T09:32:36.001Z</time></trkpt><trkpt lat="44.002213823332816" lon="10.80537247304937"><ele>945.2</ele><time>2026-04-26T09:32:37.001Z</time></trkpt><trkpt lat="44.00227596927496" lon="10.805472808458864"><ele>948.4000000000001</ele><time>2026-04-26T09:32:38.001Z</time></trkpt><trkpt lat="44.00231011671128" lon="10.805576369021063"><ele>951.5999999999999</ele><time>2026-04-26T09:32:39.001Z</time></trkpt><trkpt lat="44.002345931865925" lon="10.805712064385668"><ele>954.8</ele><time>2026-04-26T09:32:41.001Z</time></trkpt><trkpt lat="44.00242775751994" lon="10.80581053224826"><ele>958.0</ele><time>2026-04-26T09:32:43.001Z</time></trkpt><trkpt lat="44.00250672068821" lon="10.805749499902058"><ele>958.0</ele><time>2026-04-26T09:32:44.001Z</time></trkpt><trkpt lat="44.002582336244906" lon="10.805706034186056"><ele>958.0</ele><time>2026-04-26T09:32:45.001Z</time></trkpt><trkpt lat="44.00265808551126" lon="10.805604976305085"><ele>958.0</ele><time>2026-04-26T09:32:46.001Z</time></trkpt><trkpt lat="44.0027451680182" lon="10.805469368828463"><ele>958.0</ele><time>2026-04-26T09:32:47.001Z</time></trkpt><trkpt lat="44.00280906835182" lon="10.80529846957458"><ele>955.25</ele><time>2026-04-26T09:32:48.001Z</time></trkpt><trkpt lat="44.00287545182194" lon="10.805108737610274"><ele>952.5</ele><time>2026-04-26T09:32:49.001Z</time></trkpt><trkpt lat="44.00295068169808" lon="10.804946300030585"><ele>949.75</ele><time>2026-04-26T09:32:50.001Z</time></trkpt><trkpt lat="44.003041595274574" lon="10.80477055839471"><ele>947.0</ele><time>2026-04-26T09:32:51.001Z</time></trkpt><trkpt lat="44.003143723870956" lon="10.804577936609805"><ele>947.0</ele><time>2026-04-26T09:32:52.001Z</time></trkpt><trkpt lat="44.003239256391986" lon="10.804409413057142"><ele>947.0</ele><time>2026-04-26T09:32:53.001Z</time></trkpt><trkpt lat="44.00333024459569" lon="10.804260304987215"><ele>947.0</ele><time>2026-04-26T09:32:54.001Z</time></trkpt><trkpt lat="44.00341729385353" lon="10.804127475185181"><ele>947.0</ele><time>2026-04-26T09:32:55.001Z</time></trkpt><trkpt lat="44.00351454849257" lon="10.804046296687703"><ele>948.4000000000001</ele><time>2026-04-26T09:32:56.001Z</time></trkpt><trkpt lat="44.00361905938618" lon="10.804005279282563"><ele>949.8000000000001</ele><time>2026-04-26T09:32:57.001Z</time></trkpt><trkpt lat="44.00371260551408" lon="10.804007273635307"><ele>951.2</ele><time>2026-04-26T09:32:58.001Z</time></trkpt><trkpt lat="44.00378188247468" lon="10.804049235340749"><ele>952.6</ele><time>2026-04-26T09:32:59.001Z</time></trkpt><trkpt lat="44.00381444308206" lon="10.804167612390957"><ele>954.0</ele><time>2026-04-26T09:33:00.001Z</time></trkpt><trkpt lat="44.003846247669685" lon="10.804281270139677"><ele>955.5</ele><time>2026-04-26T09:33:01.001Z</time></trkpt><trkpt lat="44.003851260058276" lon="10.80441901700184"><ele>957.0</ele><time>2026-04-26T09:33:02.001Z</time></trkpt><trkpt lat="44.00382199088431" lon="10.804586094438962"><ele>958.5</ele><time>2026-04-26T09:33:03.001Z</time></trkpt><trkpt lat="44.0038026335969" lon="10.80474868152148"><ele>960.0</ele><time>2026-04-26T09:33:04.001Z</time></trkpt><trkpt lat="44.00380929545798" lon="10.804916275155687"><ele>960.0</ele><time>2026-04-26T09:33:05.001Z</time></trkpt><trkpt lat="44.00383903370232" lon="10.805052548440695"><ele>960.0</ele><time>2026-04-26T09:33:06.001Z</time></trkpt><trkpt lat="44.003903019151295" lon="10.805171902586524"><ele>960.0</ele><time>2026-04-26T09:33:07.001Z</time></trkpt><trkpt lat="44.00400711891048" lon="10.805272145118339"><ele>960.0</ele><time>2026-04-26T09:33:08.001Z</time></trkpt><trkpt lat="44.0040862383172" lon="10.805369015123945"><ele>960.0</ele><time>2026-04-26T09:33:09.001Z</time></trkpt><trkpt lat="44.004139314057376" lon="10.805442428666726"><ele>959.8</ele><time>2026-04-26T09:33:10.001Z</time></trkpt><trkpt lat="44.00420762827979" lon="10.805569909284836"><ele>959.6</ele><time>2026-04-26T09:33:12.001Z</time></trkpt><trkpt lat="44.00434306025513" lon="10.805565612999265"><ele>959.4000000000001</ele><time>2026-04-26T09:33:13.001Z</time></trkpt><trkpt lat="44.004430627969754" lon="10.805567549577582"><ele>959.2</ele><time>2026-04-26T09:33:14.001Z</time></trkpt><trkpt lat="44.004528345901676" lon="10.805553279046382"><ele>959.0</ele><time>2026-04-26T09:33:15.001Z</time></trkpt><trkpt lat="44.00464805858476" lon="10.805548794159778"><ele>959.0</ele><time>2026-04-26T09:33:16.001Z</time></trkpt><trkpt lat="44.00476003548882" lon="10.805463825358482"><ele>959.0</ele><time>2026-04-26T09:33:17.001Z</time></trkpt><trkpt lat="44.00486833578981" lon="10.805342929846313"><ele>959.0</ele><time>2026-04-26T09:33:18.001Z</time></trkpt><trkpt lat="44.004994883204674" lon="10.805273911305564"><ele>959.0</ele><time>2026-04-26T09:33:19.001Z</time></trkpt><trkpt lat="44.00509842497249" lon="10.805188930812456"><ele>957.5</ele><time>2026-04-26T09:33:20.001Z</time></trkpt><trkpt lat="44.00519933569788" lon="10.805082286996136"><ele>956.0</ele><time>2026-04-26T09:33:21.001Z</time></trkpt><trkpt lat="44.00529281379926" lon="10.804958308145286"><ele>954.5</ele><time>2026-04-26T09:33:22.001Z</time></trkpt><trkpt lat="44.005366656496804" lon="10.804839031640814"><ele>953.0</ele><time>2026-04-26T09:33:23.001Z</time></trkpt><trkpt lat="44.00542979252141" lon="10.804706324735992"><ele>953.0</ele><time>2026-04-26T09:33:24.001Z</time></trkpt><trkpt lat="44.00549493589504" lon="10.804599950764159"><ele>953.0</ele><time>2026-04-26T09:33:25.001Z</time></trkpt><trkpt lat="44.005571211431395" lon="10.804521187599939"><ele>953.0</ele><time>2026-04-26T09:33:26.001Z</time></trkpt><trkpt lat="44.00565774017198" lon="10.804452352832492"><ele>953.0</ele><time>2026-04-26T09:33:27.001Z</time></trkpt><trkpt lat="44.00576034211421" lon="10.804398998274829"><ele>953.0</ele><time>2026-04-26T09:33:28.001Z</time></trkpt><trkpt lat="44.005865806099806" lon="10.804330726093784"><ele>952.25</ele><time>2026-04-26T09:33:29.001Z</time></trkpt><trkpt lat="44.00597907396303" lon="10.804294672949082"><ele>951.5</ele><time>2026-04-26T09:33:30.001Z</time></trkpt><trkpt lat="44.00611002500586" lon="10.804248301490107"><ele>950.75</ele><time>2026-04-26T09:33:31.001Z</time></trkpt><trkpt lat="44.006240210715774" lon="10.804222505393989"><ele>950.0</ele><time>2026-04-26T09:33:32.001Z</time></trkpt><trkpt lat="44.00635936659174" lon="10.804190127438947"><ele>950.0</ele><time>2026-04-26T09:33:33.001Z</time></trkpt><trkpt lat="44.00646530220251" lon="10.804171723061657"><ele>950.0</ele><time>2026-04-26T09:33:34.001Z</time></trkpt><trkpt lat="44.006566726177546" lon="10.80415789851551"><ele>950.0</ele><time>2026-04-26T09:33:35.001Z</time></trkpt><trkpt lat="44.00666967862208" lon="10.804153634898178"><ele>950.0</ele><time>2026-04-26T09:33:36.001Z</time></trkpt><trkpt lat="44.00676430865923" lon="10.804148957805802"><ele>950.0</ele><time>2026-04-26T09:33:37.001Z</time></trkpt><trkpt lat="44.006851638277325" lon="10.804153119323523"><ele>951.0000000000001</ele><time>2026-04-26T09:33:38.001Z</time></trkpt><trkpt lat="44.00693049677782" lon="10.804160695825622"><ele>952.0</ele><time>2026-04-26T09:33:39.001Z</time></trkpt><trkpt lat="44.00702939190821" lon="10.804182204130177"><ele>953.0</ele><time>2026-04-26T09:33:41.001Z</time></trkpt><trkpt lat="44.00706135169591" lon="10.804259067207528"><ele>954.0</ele><time>2026-04-26T09:33:44.001Z</time></trkpt><trkpt lat="44.00701199624435" lon="10.804375851708981"><ele>955.0000000000001</ele><time>2026-04-26T09:33:45.001Z</time></trkpt><trkpt lat="44.00696770255049" lon="10.804480758698599"><ele>956.0</ele><time>2026-04-26T09:33:46.001Z</time></trkpt><trkpt lat="44.00690811169067" lon="10.804619274719542"><ele>956.25</ele><time>2026-04-26T09:33:47.001Z</time></trkpt><trkpt lat="44.00682436593544" lon="10.804731478446879"><ele>956.5</ele><time>2026-04-26T09:33:48.001Z</time></trkpt><trkpt lat="44.0067380486453" lon="10.804871224800769"><ele>956.75</ele><time>2026-04-26T09:33:49.001Z</time></trkpt><trkpt lat="44.006668160327514" lon="10.805007319369658"><ele>957.0</ele><time>2026-04-26T09:33:50.001Z</time></trkpt><trkpt lat="44.006621349926114" lon="10.805164458357027"><ele>961.75</ele><time>2026-04-26T09:33:51.001Z</time></trkpt><trkpt lat="44.00659478583277" lon="10.80532850426235"><ele>966.5</ele><time>2026-04-26T09:33:52.001Z</time></trkpt><trkpt lat="44.00659271465801" lon="10.80551900004561"><ele>971.25</ele><time>2026-04-26T09:33:53.001Z</time></trkpt><trkpt lat="44.00661583849972" lon="10.805724621373582"><ele>976.0</ele><time>2026-04-26T09:33:54.001Z</time></trkpt><trkpt lat="44.00663924772897" lon="10.805921472711473"><ele>976.75</ele><time>2026-04-26T09:33:55.001Z</time></trkpt><trkpt lat="44.00665378816022" lon="10.806092074762699"><ele>977.5</ele><time>2026-04-26T09:33:56.001Z</time></trkpt><trkpt lat="44.006672396773205" lon="10.806254609437785"><ele>978.25</ele><time>2026-04-26T09:33:57.001Z</time></trkpt><trkpt lat="44.006653884085964" lon="10.806408952364713"><ele>979.0</ele><time>2026-04-26T09:33:58.001Z</time></trkpt><trkpt lat="44.006618925350864" lon="10.806532114579094"><ele>978.9999999999999</ele><time>2026-04-26T09:33:59.001Z</time></trkpt><trkpt lat="44.00660667449508" lon="10.806639711757189"><ele>979.0</ele><time>2026-04-26T09:34:00.001Z</time></trkpt><trkpt lat="44.00665785754624" lon="10.80677252116448"><ele>979.0</ele><time>2026-04-26T09:34:02.001Z</time></trkpt><trkpt lat="44.00672255297829" lon="10.80678056585275"><ele>979.0</ele><time>2026-04-26T09:34:03.001Z</time></trkpt><trkpt lat="44.006789100492064" lon="10.806782159009606"><ele>978.9999999999999</ele><time>2026-04-26T09:34:04.001Z</time></trkpt><trkpt lat="44.00686624989055" lon="10.806715798368229"><ele>979.0</ele><time>2026-04-26T09:34:05.001Z</time></trkpt><trkpt lat="44.00691386714375" lon="10.806589877851911"><ele>973.8000000000001</ele><time>2026-04-26T09:34:06.001Z</time></trkpt><trkpt lat="44.00690924359285" lon="10.806451521828183"><ele>968.6000000000001</ele><time>2026-04-26T09:34:07.001Z</time></trkpt><trkpt lat="44.006886861835994" lon="10.806334552424692"><ele>963.4</ele><time>2026-04-26T09:34:08.001Z</time></trkpt><trkpt lat="44.00685989376099" lon="10.806199405253782"><ele>958.2</ele><time>2026-04-26T09:34:09.001Z</time></trkpt><trkpt lat="44.00684127056847" lon="10.806074965733666"><ele>953.0</ele><time>2026-04-26T09:34:10.001Z</time></trkpt><trkpt lat="44.006842784072944" lon="10.805966561748072"><ele>953.0</ele><time>2026-04-26T09:34:11.001Z</time></trkpt><trkpt lat="44.00685998363337" lon="10.805866020978783"><ele>953.0</ele><time>2026-04-26T09:34:12.001Z</time></trkpt><trkpt lat="44.006937168892605" lon="10.805783952387007"><ele>953.0</ele><time>2026-04-26T09:34:13.001Z</time></trkpt><trkpt lat="44.007040245520855" lon="10.805730786950726"><ele>953.0</ele><time>2026-04-26T09:34:14.001Z</time></trkpt><trkpt lat="44.00714262156115" lon="10.80568317404035"><ele>953.0</ele><time>2026-04-26T09:34:15.001Z</time></trkpt><trkpt lat="44.0072544504338" lon="10.805622156229859"><ele>953.0</ele><time>2026-04-26T09:34:16.001Z</time></trkpt><trkpt lat="44.00738408399572" lon="10.805637122537044"><ele>953.0</ele><time>2026-04-26T09:34:17.001Z</time></trkpt><trkpt lat="44.00750173272877" lon="10.805639521427327"><ele>953.0</ele><time>2026-04-26T09:34:18.001Z</time></trkpt><trkpt lat="44.00762396497335" lon="10.805626498933623"><ele>953.0</ele><time>2026-04-26T09:34:19.001Z</time></trkpt><trkpt lat="44.00776915012617" lon="10.805572877793846"><ele>949.2</ele><time>2026-04-26T09:34:20.001Z</time></trkpt><trkpt lat="44.007886840649284" lon="10.805509187064004"><ele>945.4</ele><time>2026-04-26T09:34:21.001Z</time></trkpt><trkpt lat="44.00799419421473" lon="10.805449158479092"><ele>941.6000000000001</ele><time>2026-04-26T09:34:22.001Z</time></trkpt><trkpt lat="44.008090273938635" lon="10.805397308539035"><ele>937.8000000000001</ele><time>2026-04-26T09:34:23.001Z</time></trkpt><trkpt lat="44.00817667848607" lon="10.805341529135902"><ele>934.0</ele><time>2026-04-26T09:34:24.001Z</time></trkpt><trkpt lat="44.008265462886854" lon="10.805342058002596"><ele>933.8000000000001</ele><time>2026-04-26T09:34:25.001Z</time></trkpt><trkpt lat="44.00832911856657" lon="10.805398172066065"><ele>933.6000000000001</ele><time>2026-04-26T09:34:26.001Z</time></trkpt><trkpt lat="44.00837609511117" lon="10.805515910077062"><ele>933.4</ele><time>2026-04-26T09:34:27Z</time></trkpt><trkpt lat="44.00839506970771" lon="10.80567975084449"><ele>933.2</ele><time>2026-04-26T09:34:28Z</time></trkpt><trkpt lat="44.00840628018499" lon="10.80585799984445"><ele>933.0</ele><time>2026-04-26T09:34:29Z</time></trkpt><trkpt lat="44.00841989430078" lon="10.806043628518202"><ele>930.8</ele><time>2026-04-26T09:34:30Z</time></trkpt><trkpt lat="44.008430318227056" lon="10.806203941705116"><ele>928.5999999999999</ele><time>2026-04-26T09:34:31Z</time></trkpt><trkpt lat="44.00846461694753" lon="10.806343384762137"><ele>926.4000000000001</ele><time>2026-04-26T09:34:32Z</time></trkpt><trkpt lat="44.008513783832754" lon="10.80646965174372"><ele>924.2</ele><time>2026-04-26T09:34:33Z</time></trkpt><trkpt lat="44.008586879910666" lon="10.806576727891379"><ele>922.0</ele><time>2026-04-26T09:34:34Z</time></trkpt><trkpt lat="44.008682957638555" lon="10.806692393254897"><ele>922.0</ele><time>2026-04-26T09:34:35Z</time></trkpt><trkpt lat="44.00878809742839" lon="10.806810735686515"><ele>922.0</ele><time>2026-04-26T09:34:36Z</time></trkpt><trkpt lat="44.00888867202517" lon="10.806915968843967"><ele>922.0</ele><time>2026-04-26T09:34:37Z</time></trkpt><trkpt lat="44.008985453917795" lon="10.807022802935858"><ele>922.0</ele><time>2026-04-26T09:34:38Z</time></trkpt><trkpt lat="44.00908084789593" lon="10.807130451711114"><ele>921.0</ele><time>2026-04-26T09:34:39Z</time></trkpt><trkpt lat="44.009176994651995" lon="10.807252085141341"><ele>920.0</ele><time>2026-04-26T09:34:40Z</time></trkpt><trkpt lat="44.00925427460394" lon="10.807390725001197"><ele>919.0</ele><time>2026-04-26T09:34:41Z</time></trkpt><trkpt lat="44.00930006516339" lon="10.807523923936973"><ele>918.0</ele><time>2026-04-26T09:34:42Z</time></trkpt><trkpt lat="44.009334761007516" lon="10.807647017917715"><ele>915.2</ele><time>2026-04-26T09:34:43Z</time></trkpt><trkpt lat="44.00938188979958" lon="10.807754616686001"><ele>912.4</ele><time>2026-04-26T09:34:44Z</time></trkpt><trkpt lat="44.009445642324145" lon="10.807875095176382"><ele>909.6000000000001</ele><time>2026-04-26T09:34:45Z</time></trkpt><trkpt lat="44.009524891739424" lon="10.80797309210402"><ele>906.8000000000001</ele><time>2026-04-26T09:34:46Z</time></trkpt><trkpt lat="44.00963434884343" lon="10.808040199756668"><ele>904.0</ele><time>2026-04-26T09:34:47Z</time></trkpt><trkpt lat="44.009758486047595" lon="10.80808517033756"><ele>904.0</ele><time>2026-04-26T09:34:48Z</time></trkpt><trkpt lat="44.00989211974517" lon="10.808109654460285"><ele>904.0</ele><time>2026-04-26T09:34:49Z</time></trkpt><trkpt lat="44.010024691351056" lon="10.808108686780052"><ele>904.0</ele><time>2026-04-26T09:34:50Z</time></trkpt><trkpt lat="44.01016644238378" lon="10.808112487963022"><ele>904.0</ele><time>2026-04-26T09:34:51Z</time></trkpt><trkpt lat="44.010306855975415" lon="10.80811919904865"><ele>906.0</ele><time>2026-04-26T09:34:52Z</time></trkpt><trkpt lat="44.01043227038881" lon="10.808131547395034"><ele>908.0000000000001</ele><time>2026-04-26T09:34:53Z</time></trkpt><trkpt lat="44.010537590192776" lon="10.808136869153696"><ele>910.0000000000001</ele><time>2026-04-26T09:34:54Z</time></trkpt><trkpt lat="44.010638401609825" lon="10.808142941045176"><ele>912.0</ele><time>2026-04-26T09:34:55Z</time></trkpt><trkpt lat="44.01072523012881" lon="10.808158446992778"><ele>914.0</ele><time>2026-04-26T09:34:56Z</time></trkpt><trkpt lat="44.01080113874878" lon="10.808197522711968"><ele>915.1666666666667</ele><time>2026-04-26T09:34:57Z</time></trkpt><trkpt lat="44.01086079274254" lon="10.80826309245859"><ele>916.3333333333334</ele><time>2026-04-26T09:34:58Z</time></trkpt><trkpt lat="44.01087489465173" lon="10.808352062388268"><ele>917.5</ele><time>2026-04-26T09:34:59Z</time></trkpt><trkpt lat="44.01084025580847" lon="10.808470083669782"><ele>918.6666666666667</ele><time>2026-04-26T09:35:00Z</time></trkpt><trkpt lat="44.01078168274612" lon="10.80858585400102"><ele>919.8333333333334</ele><time>2026-04-26T09:35:01Z</time></trkpt><trkpt lat="44.01071330402431" lon="10.808695060047455"><ele>921.0</ele><time>2026-04-26T09:35:02Z</time></trkpt><trkpt lat="44.01064732046833" lon="10.808813994214107"><ele>916.5999999999999</ele><time>2026-04-26T09:35:03Z</time></trkpt><trkpt lat="44.010607875427525" lon="10.8089419891301"><ele>912.1999999999999</ele><time>2026-04-26T09:35:04Z</time></trkpt><trkpt lat="44.01060631976682" lon="10.80908142771063"><ele>907.8000000000001</ele><time>2026-04-26T09:35:05Z</time></trkpt><trkpt lat="44.01063040288783" lon="10.809221443488514"><ele>903.4000000000001</ele><time>2026-04-26T09:35:06Z</time></trkpt><trkpt lat="44.01067441635733" lon="10.809348526253004"><ele>899.0</ele><time>2026-04-26T09:35:07Z</time></trkpt><trkpt lat="44.01073722920873" lon="10.809487210825017"><ele>899.75</ele><time>2026-04-26T09:35:08Z</time></trkpt><trkpt lat="44.010819834438685" lon="10.809624789293508"><ele>900.5</ele><time>2026-04-26T09:35:09Z</time></trkpt><trkpt lat="44.01091463525196" lon="10.809754131746068"><ele>901.25</ele><time>2026-04-26T09:35:10Z</time></trkpt><trkpt lat="44.01101427619053" lon="10.809848095203282"><ele>902.0</ele><time>2026-04-26T09:35:11Z</time></trkpt><trkpt lat="44.011106354053034" lon="10.809937496757524"><ele>902.0</ele><time>2026-04-26T09:35:12Z</time></trkpt><trkpt lat="44.011187686385" lon="10.810019720484185"><ele>902.0</ele><time>2026-04-26T09:35:13Z</time></trkpt><trkpt lat="44.01127072343015" lon="10.810083049063541"><ele>902.0</ele><time>2026-04-26T09:35:14Z</time></trkpt><trkpt lat="44.011331910264204" lon="10.810160194143158"><ele>902.0</ele><time>2026-04-26T09:35:15Z</time></trkpt><trkpt lat="44.01137710837087" lon="10.810243621064094"><ele>902.0</ele><time>2026-04-26T09:35:16.001Z</time></trkpt><trkpt lat="44.011329638890935" lon="10.81040521667652"><ele>901.4000000000001</ele><time>2026-04-26T09:35:18Z</time></trkpt><trkpt lat="44.011235941797025" lon="10.810471643863124"><ele>900.8000000000001</ele><time>2026-04-26T09:35:19Z</time></trkpt><trkpt lat="44.011119555446115" lon="10.810525100563014"><ele>900.2</ele><time>2026-04-26T09:35:20Z</time></trkpt><trkpt lat="44.01101979476331" lon="10.810572775663656"><ele>899.6</ele><time>2026-04-26T09:35:21Z</time></trkpt><trkpt lat="44.01092995374481" lon="10.810635049644265"><ele>899.0</ele><time>2026-04-26T09:35:22Z</time></trkpt><trkpt lat="44.010854937892354" lon="10.810697970760305"><ele>898.6</ele><time>2026-04-26T09:35:23Z</time></trkpt><trkpt lat="44.01081082917328" lon="10.810791976682918"><ele>898.2</ele><time>2026-04-26T09:35:24Z</time></trkpt><trkpt lat="44.01079548132692" lon="10.810909487208544"><ele>897.8000000000001</ele><time>2026-04-26T09:35:25Z</time></trkpt><trkpt lat="44.01080734791934" lon="10.811045238591909"><ele>897.4000000000001</ele><time>2026-04-26T09:35:26Z</time></trkpt><trkpt lat="44.01083695168424" lon="10.811192387336469"><ele>897.0</ele><time>2026-04-26T09:35:27Z</time></trkpt><trkpt lat="44.010880363336334" lon="10.811392771517438"><ele>897.0</ele><time>2026-04-26T09:35:28Z</time></trkpt><trkpt lat="44.010932149962755" lon="10.811589114515373"><ele>897.0</ele><time>2026-04-26T09:35:29Z</time></trkpt><trkpt lat="44.01097724598567" lon="10.811794459328436"><ele>897.0</ele><time>2026-04-26T09:35:30Z</time></trkpt><trkpt lat="44.01101986732838" lon="10.811969170989903"><ele>897.0</ele><time>2026-04-26T09:35:31Z</time></trkpt><trkpt lat="44.01105447296142" lon="10.812114380173528"><ele>895.3333333333334</ele><time>2026-04-26T09:35:32Z</time></trkpt><trkpt lat="44.01108182529882" lon="10.812242431536756"><ele>893.6666666666667</ele><time>2026-04-26T09:35:33Z</time></trkpt><trkpt lat="44.01111058934754" lon="10.812361166772694"><ele>892.0</ele><time>2026-04-26T09:35:34Z</time></trkpt><trkpt lat="44.01114271425687" lon="10.812490726100886"><ele>890.3333333333334</ele><time>2026-04-26T09:35:35Z</time></trkpt><trkpt lat="44.01113545994255" lon="10.812606332234743"><ele>888.6666666666667</ele><time>2026-04-26T09:35:36Z</time></trkpt><trkpt lat="44.01109638459101" lon="10.812705466422864"><ele>887.0</ele><time>2026-04-26T09:35:37Z</time></trkpt><trkpt lat="44.01103976360035" lon="10.812786989709808"><ele>886.6</ele><time>2026-04-26T09:35:38Z</time></trkpt><trkpt lat="44.010976603640636" lon="10.81283924905217"><ele>886.2</ele><time>2026-04-26T09:35:39Z</time></trkpt><trkpt lat="44.01088476428658" lon="10.812822767439263"><ele>885.8</ele><time>2026-04-26T09:35:40Z</time></trkpt><trkpt lat="44.01080508801181" lon="10.812779814303797"><ele>885.4</ele><time>2026-04-26T09:35:41Z</time></trkpt><trkpt lat="44.0107322942309" lon="10.812685958009506"><ele>885.0</ele><time>2026-04-26T09:35:42Z</time></trkpt><trkpt lat="44.01066887499211" lon="10.812571826216004"><ele>882.5</ele><time>2026-04-26T09:35:43Z</time></trkpt><trkpt lat="44.010611486001125" lon="10.812408102026785"><ele>880.0</ele><time>2026-04-26T09:35:44Z</time></trkpt><trkpt lat="44.010538062298686" lon="10.812231713036603"><ele>877.5</ele><time>2026-04-26T09:35:45Z</time></trkpt><trkpt lat="44.010470351405104" lon="10.812051639790285"><ele>875.0</ele><time>2026-04-26T09:35:46Z</time></trkpt><trkpt lat="44.010407387404086" lon="10.8118960285744"><ele>875.0000000000001</ele><time>2026-04-26T09:35:47Z</time></trkpt><trkpt lat="44.01037303391163" lon="10.811791715783356"><ele>875.0</ele><time>2026-04-26T09:35:48Z</time></trkpt><trkpt lat="44.01032721633642" lon="10.811719523522767"><ele>875.0</ele><time>2026-04-26T09:35:49Z</time></trkpt><trkpt lat="44.010199637844714" lon="10.811703049170617"><ele>875.0</ele><time>2026-04-26T09:35:51Z</time></trkpt><trkpt lat="44.01014464639349" lon="10.811752646072872"><ele>875.0000000000001</ele><time>2026-04-26T09:35:52Z</time></trkpt><trkpt lat="44.010100739612945" lon="10.811851412940412"><ele>875.0</ele><time>2026-04-26T09:35:53Z</time></trkpt><trkpt lat="44.0100707541938" lon="10.811981597342337"><ele>875.0</ele><time>2026-04-26T09:35:54Z</time></trkpt><trkpt lat="44.01008438530186" lon="10.812169406294192"><ele>875.0</ele><time>2026-04-26T09:35:55Z</time></trkpt><trkpt lat="44.01010096617544" lon="10.812360689525176"><ele>875.0</ele><time>2026-04-26T09:35:56Z</time></trkpt><trkpt lat="44.01010938956727" lon="10.81254649460272"><ele>875.0</ele><time>2026-04-26T09:35:57Z</time></trkpt><trkpt lat="44.01008260274424" lon="10.812713345868564"><ele>874.0</ele><time>2026-04-26T09:35:58Z</time></trkpt><trkpt lat="44.01000402760061" lon="10.812846831329233"><ele>873.0</ele><time>2026-04-26T09:35:59Z</time></trkpt><trkpt lat="44.009918007732985" lon="10.812961285063462"><ele>872.0</ele><time>2026-04-26T09:36:00Z</time></trkpt><trkpt lat="44.009854811028745" lon="10.813065849762308"><ele>871.0</ele><time>2026-04-26T09:36:01Z</time></trkpt><trkpt lat="44.009840775608026" lon="10.81322670277822"><ele>868.75</ele><time>2026-04-26T09:36:02Z</time></trkpt><trkpt lat="44.00986460338969" lon="10.8133974007453"><ele>866.5</ele><time>2026-04-26T09:36:03Z</time></trkpt><trkpt lat="44.00990583256761" lon="10.813570714457859"><ele>864.25</ele><time>2026-04-26T09:36:04Z</time></trkpt><trkpt lat="44.00997631568962" lon="10.813715561954323"><ele>862.0</ele><time>2026-04-26T09:36:05Z</time></trkpt><trkpt lat="44.010076381762154" lon="10.813852731534414"><ele>862.0</ele><time>2026-04-26T09:36:06Z</time></trkpt><trkpt lat="44.010185700380575" lon="10.81399936379701"><ele>862.0</ele><time>2026-04-26T09:36:07Z</time></trkpt><trkpt lat="44.01030611841037" lon="10.814150128350573"><ele>862.0</ele><time>2026-04-26T09:36:08Z</time></trkpt><trkpt lat="44.01042187207266" lon="10.814307946715735"><ele>859.25</ele><time>2026-04-26T09:36:09Z</time></trkpt><trkpt lat="44.01052478801037" lon="10.814452769990844"><ele>856.5</ele><time>2026-04-26T09:36:10Z</time></trkpt><trkpt lat="44.01061730071835" lon="10.814572950022443"><ele>853.75</ele><time>2026-04-26T09:36:11Z</time></trkpt><trkpt lat="44.01069618521867" lon="10.814691224638587"><ele>851.0</ele><time>2026-04-26T09:36:12Z</time></trkpt><trkpt lat="44.01075567903553" lon="10.814832907971907"><ele>851.0</ele><time>2026-04-26T09:36:13Z</time></trkpt><trkpt lat="44.010779647763385" lon="10.814998415413386"><ele>851.0</ele><time>2026-04-26T09:36:14Z</time></trkpt><trkpt lat="44.010758638913046" lon="10.815165197059216"><ele>851.0</ele><time>2026-04-26T09:36:15Z</time></trkpt><trkpt lat="44.010672892673256" lon="10.815290911315515"><ele>851.0</ele><time>2026-04-26T09:36:16Z</time></trkpt><trkpt lat="44.010571477645506" lon="10.81542120338224"><ele>850.1999999999999</ele><time>2026-04-26T09:36:17Z</time></trkpt><trkpt lat="44.01047459556367" lon="10.815557153903107"><ele>849.4</ele><time>2026-04-26T09:36:18Z</time></trkpt><trkpt lat="44.01040352153818" lon="10.81567509526913"><ele>848.6</ele><time>2026-04-26T09:36:19Z</time></trkpt><trkpt lat="44.010352050551866" lon="10.815757431645324"><ele>847.8</ele><time>2026-04-26T09:36:20Z</time></trkpt><trkpt lat="44.0103270800513" lon="10.815872959753"><ele>847.0</ele><time>2026-04-26T09:36:21Z</time></trkpt><trkpt lat="44.010342638923674" lon="10.816005410662122"><ele>843.5</ele><time>2026-04-26T09:36:22Z</time></trkpt><trkpt lat="44.010422423279955" lon="10.816115029101562"><ele>840.0</ele><time>2026-04-26T09:36:23Z</time></trkpt><trkpt lat="44.01052476518814" lon="10.816195209171013"><ele>836.5</ele><time>2026-04-26T09:36:24Z</time></trkpt><trkpt lat="44.01062554041035" lon="10.816293201510069"><ele>833.0</ele><time>2026-04-26T09:36:25Z</time></trkpt><trkpt lat="44.01068038314733" lon="10.816413455868155"><ele>833.0</ele><time>2026-04-26T09:36:26Z</time></trkpt><trkpt lat="44.010687248154085" lon="10.816558933474836"><ele>833.0</ele><time>2026-04-26T09:36:27Z</time></trkpt><trkpt lat="44.01064252279788" lon="10.816723023540211"><ele>833.0</ele><time>2026-04-26T09:36:28Z</time></trkpt><trkpt lat="44.01059513915662" lon="10.816912296288626"><ele>833.0</ele><time>2026-04-26T09:36:29Z</time></trkpt><trkpt lat="44.010575367760204" lon="10.8171025749443"><ele>831.0</ele><time>2026-04-26T09:36:30Z</time></trkpt><trkpt lat="44.01056890402955" lon="10.817324230247316"><ele>829.0</ele><time>2026-04-26T09:36:31Z</time></trkpt><trkpt lat="44.01056164703135" lon="10.817536744316184"><ele>827.0</ele><time>2026-04-26T09:36:32Z</time></trkpt><trkpt lat="44.01055522700993" lon="10.8177109646775"><ele>825.0</ele><time>2026-04-26T09:36:33Z</time></trkpt><trkpt lat="44.01055982366829" lon="10.81785841622118"><ele>824.0</ele><time>2026-04-26T09:36:34Z</time></trkpt><trkpt lat="44.01060087685134" lon="10.81800305505392"><ele>823.0</ele><time>2026-04-26T09:36:35Z</time></trkpt><trkpt lat="44.01066668754156" lon="10.81813412846886"><ele>822.0</ele><time>2026-04-26T09:36:36Z</time></trkpt><trkpt lat="44.01076924603668" lon="10.818254120190792"><ele>821.0</ele><time>2026-04-26T09:36:37Z</time></trkpt><trkpt lat="44.010872014308326" lon="10.818375330900944"><ele>821.3333333333334</ele><time>2026-04-26T09:36:38Z</time></trkpt><trkpt lat="44.01098442772382" lon="10.818499040559312"><ele>821.6666666666667</ele><time>2026-04-26T09:36:39Z</time></trkpt><trkpt lat="44.01110730888582" lon="10.818652483766579"><ele>822.0</ele><time>2026-04-26T09:36:40Z</time></trkpt><trkpt lat="44.01121080182528" lon="10.818817752532993"><ele>822.0</ele><time>2026-04-26T09:36:41Z</time></trkpt><trkpt lat="44.011310515173165" lon="10.818957983243264"><ele>822.0</ele><time>2026-04-26T09:36:42Z</time></trkpt><trkpt lat="44.01141419014664" lon="10.819076734607247"><ele>822.0</ele><time>2026-04-26T09:36:43Z</time></trkpt><trkpt lat="44.01149039169318" lon="10.819187936556878"><ele>822.0</ele><time>2026-04-26T09:36:44Z</time></trkpt><trkpt lat="44.01156275355926" lon="10.819302785925416"><ele>820.8333333333334</ele><time>2026-04-26T09:36:45Z</time></trkpt><trkpt lat="44.011584175083655" lon="10.819418405968797"><ele>819.6666666666667</ele><time>2026-04-26T09:36:46Z</time></trkpt><trkpt lat="44.011549887357695" lon="10.819537735247605"><ele>818.5</ele><time>2026-04-26T09:36:47Z</time></trkpt><trkpt lat="44.01148781916354" lon="10.819596566363783"><ele>817.3333333333334</ele><time>2026-04-26T09:36:48Z</time></trkpt><trkpt lat="44.011424012890245" lon="10.819683101697642"><ele>816.1666666666667</ele><time>2026-04-26T09:36:49Z</time></trkpt><trkpt lat="44.011358354315796" lon="10.819790402817825"><ele>815.0</ele><time>2026-04-26T09:36:50Z</time></trkpt><trkpt lat="44.01132239542158" lon="10.819925213404163"><ele>815.0</ele><time>2026-04-26T09:36:51Z</time></trkpt><trkpt lat="44.01129754676727" lon="10.820044525099142"><ele>815.0</ele><time>2026-04-26T09:36:52Z</time></trkpt><trkpt lat="44.01132197725617" lon="10.820174643447848"><ele>815.0</ele><time>2026-04-26T09:36:53Z</time></trkpt><trkpt lat="44.011373024091355" lon="10.820320030423128"><ele>815.0</ele><time>2026-04-26T09:36:54Z</time></trkpt><trkpt lat="44.011422164326106" lon="10.820462147095709"><ele>815.0</ele><time>2026-04-26T09:36:55Z</time></trkpt><trkpt lat="44.01146940291719" lon="10.820591896500355"><ele>814.5000000000001</ele><time>2026-04-26T09:36:56Z</time></trkpt><trkpt lat="44.01149279076127" lon="10.82071686570758"><ele>814.0</ele><time>2026-04-26T09:36:57Z</time></trkpt><trkpt lat="44.01152759930394" lon="10.82080698782433"><ele>813.5</ele><time>2026-04-26T09:36:58Z</time></trkpt><trkpt lat="44.01149681916803" lon="10.820885980317396"><ele>813.0</ele><time>2026-04-26T09:36:59Z</time></trkpt><trkpt lat="44.011434735623816" lon="10.820949850674415"><ele>812.5000000000001</ele><time>2026-04-26T09:37:00Z</time></trkpt><trkpt lat="44.01133778719857" lon="10.82099139651815"><ele>812.0</ele><time>2026-04-26T09:37:01Z</time></trkpt><trkpt lat="44.01122112889839" lon="10.821016328917276"><ele>811.2</ele><time>2026-04-26T09:37:02Z</time></trkpt><trkpt lat="44.01112545625054" lon="10.821046007485272"><ele>810.4000000000001</ele><time>2026-04-26T09:37:03Z</time></trkpt><trkpt lat="44.01104653111781" lon="10.821113887266051"><ele>809.5999999999999</ele><time>2026-04-26T09:37:04Z</time></trkpt><trkpt lat="44.01099560432936" lon="10.821229772021551"><ele>808.8</ele><time>2026-04-26T09:37:05Z</time></trkpt><trkpt lat="44.0109911539553" lon="10.821357798006423"><ele>808.0</ele><time>2026-04-26T09:37:06Z</time></trkpt><trkpt lat="44.011025053230696" lon="10.821491230277424"><ele>808.0</ele><time>2026-04-26T09:37:07Z</time></trkpt><trkpt lat="44.0110666107969" lon="10.821642998258607"><ele>808.0</ele><time>2026-04-26T09:37:08Z</time></trkpt><trkpt lat="44.011087194992996" lon="10.821780543803678"><ele>808.0</ele><time>2026-04-26T09:37:09Z</time></trkpt><trkpt lat="44.01107134347679" lon="10.821906619451466"><ele>808.0</ele><time>2026-04-26T09:37:10Z</time></trkpt><trkpt lat="44.011006843478974" lon="10.821998347119933"><ele>808.0</ele><time>2026-04-26T09:37:11Z</time></trkpt><trkpt lat="44.01091528290298" lon="10.822027539749415"><ele>806.8</ele><time>2026-04-26T09:37:12Z</time></trkpt><trkpt lat="44.01082917932015" lon="10.822001527569928"><ele>805.5999999999999</ele><time>2026-04-26T09:37:13Z</time></trkpt><trkpt lat="44.010765716706445" lon="10.821909109873905"><ele>804.4000000000001</ele><time>2026-04-26T09:37:14Z</time></trkpt><trkpt lat="44.010739316703415" lon="10.821782223923675"><ele>803.2</ele><time>2026-04-26T09:37:15Z</time></trkpt><trkpt lat="44.01073495782062" lon="10.821630876074442"><ele>802.0</ele><time>2026-04-26T09:37:16Z</time></trkpt><trkpt lat="44.01071658006284" lon="10.821463290192856"><ele>800.5</ele><time>2026-04-26T09:37:17Z</time></trkpt><trkpt lat="44.01070440128793" lon="10.821290679844873"><ele>799.0</ele><time>2026-04-26T09:37:18Z</time></trkpt><trkpt lat="44.01067805239687" lon="10.821122391873544"><ele>797.5</ele><time>2026-04-26T09:37:19Z</time></trkpt><trkpt lat="44.010646128655026" lon="10.820973136993999"><ele>796.0</ele><time>2026-04-26T09:37:20Z</time></trkpt><trkpt lat="44.01059406502885" lon="10.820836235790901"><ele>796.0</ele><time>2026-04-26T09:37:21Z</time></trkpt><trkpt lat="44.01051038780885" lon="10.820712634121199"><ele>796.0</ele><time>2026-04-26T09:37:22Z</time></trkpt><trkpt lat="44.01043056451166" lon="10.820598509246112"><ele>796.0</ele><time>2026-04-26T09:37:23Z</time></trkpt><trkpt lat="44.010380946666636" lon="10.82048753724389"><ele>796.0</ele><time>2026-04-26T09:37:24Z</time></trkpt><trkpt lat="44.01033779008107" lon="10.820399747538685"><ele>796.0</ele><time>2026-04-26T09:37:25Z</time></trkpt><trkpt lat="44.010278134154895" lon="10.820350673767743"><ele>796.0</ele><time>2026-04-26T09:37:26Z</time></trkpt><trkpt lat="44.0102080074304" lon="10.82034745545466"><ele>796.0</ele><time>2026-04-26T09:37:27Z</time></trkpt><trkpt lat="44.01013057763996" lon="10.820366806075862"><ele>796.0</ele><time>2026-04-26T09:37:28Z</time></trkpt><trkpt lat="44.010072777969015" lon="10.820474934522956"><ele>796.0</ele><time>2026-04-26T09:37:29Z</time></trkpt><trkpt lat="44.010066852274285" lon="10.820609939866369"><ele>796.0</ele><time>2026-04-26T09:37:30Z</time></trkpt><trkpt lat="44.01012024228645" lon="10.820750149137957"><ele>796.0</ele><time>2026-04-26T09:37:31Z</time></trkpt><trkpt lat="44.010169582720394" lon="10.820906885709855"><ele>796.0</ele><time>2026-04-26T09:37:32Z</time></trkpt><trkpt lat="44.01020559496487" lon="10.821076443676303"><ele>796.0</ele><time>2026-04-26T09:37:33Z</time></trkpt><trkpt lat="44.01017182901467" lon="10.82126762942826"><ele>796.0</ele><time>2026-04-26T09:37:34Z</time></trkpt><trkpt lat="44.01016331219997" lon="10.821465926494898"><ele>794.75</ele><time>2026-04-26T09:37:35Z</time></trkpt><trkpt lat="44.01015484780788" lon="10.821674620047611"><ele>793.5</ele><time>2026-04-26T09:37:36Z</time></trkpt><trkpt lat="44.01015736675696" lon="10.82187775311623"><ele>792.25</ele><time>2026-04-26T09:37:37Z</time></trkpt><trkpt lat="44.01010901090498" lon="10.82205250098649"><ele>791.0</ele><time>2026-04-26T09:37:38Z</time></trkpt><trkpt lat="44.0100581564363" lon="10.822224154106985"><ele>791.0</ele><time>2026-04-26T09:37:39Z</time></trkpt><trkpt lat="44.01002902965763" lon="10.822405042031816"><ele>791.0</ele><time>2026-04-26T09:37:40Z</time></trkpt><trkpt lat="44.01000657263289" lon="10.822574408212963"><ele>791.0</ele><time>2026-04-26T09:37:41Z</time></trkpt><trkpt lat="44.010012501677366" lon="10.82276326264233"><ele>791.0</ele><time>2026-04-26T09:37:42Z</time></trkpt><trkpt lat="44.01003146647859" lon="10.822965109790104"><ele>790.0</ele><time>2026-04-26T09:37:43Z</time></trkpt><trkpt lat="44.010047859060435" lon="10.823163269821602"><ele>789.0</ele><time>2026-04-26T09:37:44Z</time></trkpt><trkpt lat="44.010054666260366" lon="10.823360867739698"><ele>788.0</ele><time>2026-04-26T09:37:45Z</time></trkpt><trkpt lat="44.01001410789332" lon="10.823547236927222"><ele>787.0</ele><time>2026-04-26T09:37:46Z</time></trkpt><trkpt lat="44.00999788182461" lon="10.823729105433806"><ele>785.9999999999999</ele><time>2026-04-26T09:37:47Z</time></trkpt><trkpt lat="44.009969283952465" lon="10.823887626553672"><ele>785.0</ele><time>2026-04-26T09:37:48Z</time></trkpt><trkpt lat="44.00994561652014" lon="10.824009080969342"><ele>784.0</ele><time>2026-04-26T09:37:49Z</time></trkpt><trkpt lat="44.00994373156013" lon="10.824117800640012"><ele>783.0</ele><time>2026-04-26T09:37:50Z</time></trkpt><trkpt lat="44.00996555618972" lon="10.824209999862306"><ele>781.9999999999999</ele><time>2026-04-26T09:37:51Z</time></trkpt><trkpt lat="44.0100123451432" lon="10.82427381525464"><ele>781.0</ele><time>2026-04-26T09:37:52Z</time></trkpt><trkpt lat="44.010085136156846" lon="10.824303246446147"><ele>781.0</ele><time>2026-04-26T09:37:53Z</time></trkpt><trkpt lat="44.010177024387865" lon="10.82431893438773"><ele>781.0</ele><time>2026-04-26T09:37:54Z</time></trkpt><trkpt lat="44.010292706357866" lon="10.824270635431354"><ele>781.0</ele><time>2026-04-26T09:37:55Z</time></trkpt><trkpt lat="44.01041102552838" lon="10.824194109746005"><ele>781.0</ele><time>2026-04-26T09:37:56Z</time></trkpt><trkpt lat="44.010496801315576" lon="10.824133062047098"><ele>781.0</ele><time>2026-04-26T09:37:57Z</time></trkpt><trkpt lat="44.010577847497736" lon="10.824157756430578"><ele>781.0</ele><time>2026-04-26T09:37:58Z</time></trkpt><trkpt lat="44.010643682111706" lon="10.824256101996598"><ele>781.0</ele><time>2026-04-26T09:37:59Z</time></trkpt><trkpt lat="44.01069813312595" lon="10.824395323299663"><ele>781.0</ele><time>2026-04-26T09:38:00Z</time></trkpt><trkpt lat="44.01072028996367" lon="10.824579383632388"><ele>781.0</ele><time>2026-04-26T09:38:01Z</time></trkpt><trkpt lat="44.01074714134981" lon="10.824779296674036"><ele>779.25</ele><time>2026-04-26T09:38:02Z</time></trkpt><trkpt lat="44.010785268648014" lon="10.824986116854951"><ele>777.5</ele><time>2026-04-26T09:38:03Z</time></trkpt><trkpt lat="44.01082405118225" lon="10.82517476590839"><ele>775.75</ele><time>2026-04-26T09:38:04Z</time></trkpt><trkpt lat="44.010845732476945" lon="10.825329283443141"><ele>774.0</ele><time>2026-04-26T09:38:05Z</time></trkpt><trkpt lat="44.01086177382031" lon="10.825466103240682"><ele>773.4000000000001</ele><time>2026-04-26T09:38:06Z</time></trkpt><trkpt lat="44.010870697281426" lon="10.82559146725836"><ele>772.8</ele><time>2026-04-26T09:38:07Z</time></trkpt><trkpt lat="44.01083994169123" lon="10.825713594197854"><ele>772.2</ele><time>2026-04-26T09:38:08Z</time></trkpt><trkpt lat="44.010782043425884" lon="10.825837157837844"><ele>771.5999999999999</ele><time>2026-04-26T09:38:09Z</time></trkpt><trkpt lat="44.01068965142567" lon="10.825970149539884"><ele>771.0</ele><time>2026-04-26T09:38:10Z</time></trkpt><trkpt lat="44.010590743357646" lon="10.826102703527313"><ele>770.25</ele><time>2026-04-26T09:38:11Z</time></trkpt><trkpt lat="44.01048159924078" lon="10.826229735526171"><ele>769.5</ele><time>2026-04-26T09:38:12Z</time></trkpt><trkpt lat="44.010357009593854" lon="10.826339800817696"><ele>768.75</ele><time>2026-04-26T09:38:13Z</time></trkpt><trkpt lat="44.010229868787526" lon="10.826414473959767"><ele>768.0</ele><time>2026-04-26T09:38:14Z</time></trkpt><trkpt lat="44.0101119178484" lon="10.826488955573527"><ele>768.0</ele><time>2026-04-26T09:38:15Z</time></trkpt><trkpt lat="44.0100143836612" lon="10.826584954622867"><ele>768.0</ele><time>2026-04-26T09:38:16Z</time></trkpt><trkpt lat="44.009927755979" lon="10.826706464525977"><ele>768.0</ele><time>2026-04-26T09:38:17Z</time></trkpt><trkpt lat="44.009861540411286" lon="10.82683877204831"><ele>768.0</ele><time>2026-04-26T09:38:18Z</time></trkpt><trkpt lat="44.00981565812267" lon="10.826986224300747"><ele>766.0</ele><time>2026-04-26T09:38:19Z</time></trkpt><trkpt lat="44.00978817686489" lon="10.827131849039514"><ele>764.0</ele><time>2026-04-26T09:38:20Z</time></trkpt><trkpt lat="44.00978159143084" lon="10.827288840810422"><ele>762.0</ele><time>2026-04-26T09:38:21Z</time></trkpt><trkpt lat="44.009799638774126" lon="10.827465035981016"><ele>760.0</ele><time>2026-04-26T09:38:22Z</time></trkpt><trkpt lat="44.009844003793404" lon="10.827662755288397"><ele>758.6666666666667</ele><time>2026-04-26T09:38:23Z</time></trkpt><trkpt lat="44.00988926014701" lon="10.827861956039767"><ele>757.3333333333334</ele><time>2026-04-26T09:38:24Z</time></trkpt><trkpt lat="44.009938287510124" lon="10.828075484083302"><ele>756.0</ele><time>2026-04-26T09:38:25Z</time></trkpt><trkpt lat="44.009970185346255" lon="10.828282047828784"><ele>758.0</ele><time>2026-04-26T09:38:26Z</time></trkpt><trkpt lat="44.010002179803614" lon="10.82848958701074"><ele>760.0</ele><time>2026-04-26T09:38:27Z</time></trkpt><trkpt lat="44.01001067796316" lon="10.828709611234213"><ele>762.0</ele><time>2026-04-26T09:38:28Z</time></trkpt><trkpt lat="44.00999364224255" lon="10.82894250815708"><ele>761.0</ele><time>2026-04-26T09:38:29Z</time></trkpt><trkpt lat="44.00996761487412" lon="10.82916538428566"><ele>760.0</ele><time>2026-04-26T09:38:30Z</time></trkpt><trkpt lat="44.00994493697749" lon="10.829378087336273"><ele>759.0</ele><time>2026-04-26T09:38:31Z</time></trkpt><trkpt lat="44.00991647266476" lon="10.82959023368787"><ele>759.0</ele><time>2026-04-26T09:38:32Z</time></trkpt><trkpt lat="44.00988502024426" lon="10.829778660036807"><ele>759.0</ele><time>2026-04-26T09:38:33Z</time></trkpt><trkpt lat="44.00986513095227" lon="10.829963470448593"><ele>759.0</ele><time>2026-04-26T09:38:34Z</time></trkpt><trkpt lat="44.00985675210248" lon="10.83014843122992"><ele>759.0</ele><time>2026-04-26T09:38:35Z</time></trkpt><trkpt lat="44.00984950027736" lon="10.830342739750316"><ele>759.0</ele><time>2026-04-26T09:38:36Z</time></trkpt><trkpt lat="44.009825209256704" lon="10.830533311350626"><ele>759.0</ele><time>2026-04-26T09:38:37Z</time></trkpt><trkpt lat="44.009791711944935" lon="10.83070899965421"><ele>759.0</ele><time>2026-04-26T09:38:38Z</time></trkpt><trkpt lat="44.00974919465665" lon="10.830864738197008"><ele>759.0</ele><time>2026-04-26T09:38:39Z</time></trkpt><trkpt lat="44.00970004834377" lon="10.831016541116801"><ele>757.75</ele><time>2026-04-26T09:38:40Z</time></trkpt><trkpt lat="44.009635308531216" lon="10.83118125155904"><ele>756.5</ele><time>2026-04-26T09:38:41Z</time></trkpt><trkpt lat="44.009557594924" lon="10.831342666304023"><ele>755.25</ele><time>2026-04-26T09:38:42Z</time></trkpt><trkpt lat="44.009470611446964" lon="10.831507175620802"><ele>754.0</ele><time>2026-04-26T09:38:43Z</time></trkpt><trkpt lat="44.00936655008388" lon="10.83165536178312"><ele>754.0</ele><time>2026-04-26T09:38:44Z</time></trkpt><trkpt lat="44.009239547910376" lon="10.831764946449882"><ele>754.0</ele><time>2026-04-26T09:38:45Z</time></trkpt><trkpt lat="44.00913332264626" lon="10.831888309632028"><ele>754.0</ele><time>2026-04-26T09:38:46Z</time></trkpt><trkpt lat="44.009023157254006" lon="10.831989252692988"><ele>754.0</ele><time>2026-04-26T09:38:47Z</time></trkpt><trkpt lat="44.00892571200894" lon="10.83212369173415"><ele>752.0</ele><time>2026-04-26T09:38:48Z</time></trkpt><trkpt lat="44.00884429848739" lon="10.83230552392223"><ele>750.0</ele><time>2026-04-26T09:38:49Z</time></trkpt><trkpt lat="44.00877810877741" lon="10.832513182879767"><ele>748.0</ele><time>2026-04-26T09:38:50Z</time></trkpt><trkpt lat="44.00872332524912" lon="10.832727319636525"><ele>748.0</ele><time>2026-04-26T09:38:51Z</time></trkpt><trkpt lat="44.00867707528445" lon="10.832921658163167"><ele>748.0</ele><time>2026-04-26T09:38:52Z</time></trkpt><trkpt lat="44.00862235539186" lon="10.833097995573747"><ele>748.0</ele><time>2026-04-26T09:38:53Z</time></trkpt><trkpt lat="44.008550815259596" lon="10.83325875458879"><ele>748.0</ele><time>2026-04-26T09:38:54Z</time></trkpt><trkpt lat="44.008449343017794" lon="10.833410063604642"><ele>748.0</ele><time>2026-04-26T09:38:55Z</time></trkpt><trkpt lat="44.00833779448767" lon="10.833550486091054"><ele>748.0</ele><time>2026-04-26T09:38:56Z</time></trkpt><trkpt lat="44.008215258322934" lon="10.83367830103525"><ele>748.0</ele><time>2026-04-26T09:38:57Z</time></trkpt><trkpt lat="44.00809871002102" lon="10.83378873895226"><ele>748.0</ele><time>2026-04-26T09:38:58Z</time></trkpt><trkpt lat="44.00797475043548" lon="10.833890329539699"><ele>748.0</ele><time>2026-04-26T09:38:59Z</time></trkpt><trkpt lat="44.007837692316684" lon="10.8339776955755"><ele>748.0</ele><time>2026-04-26T09:39:00Z</time></trkpt><trkpt lat="44.00769953923667" lon="10.834054044695847"><ele>748.0</ele><time>2026-04-26T09:39:01Z</time></trkpt><trkpt lat="44.00758077798294" lon="10.83412514102391"><ele>748.0</ele><time>2026-04-26T09:39:02Z</time></trkpt><trkpt lat="44.00745903785067" lon="10.83420041640303"><ele>747.0</ele><time>2026-04-26T09:39:03Z</time></trkpt><trkpt lat="44.007337259957616" lon="10.834308360477758"><ele>746.0</ele><time>2026-04-26T09:39:04Z</time></trkpt><trkpt lat="44.00720277253151" lon="10.834426198517768"><ele>745.0</ele><time>2026-04-26T09:39:05Z</time></trkpt><trkpt lat="44.00707490032396" lon="10.834541836176708"><ele>745.0</ele><time>2026-04-26T09:39:06Z</time></trkpt><trkpt lat="44.00693994489708" lon="10.834653931999704"><ele>745.0</ele><time>2026-04-26T09:39:07Z</time></trkpt><trkpt lat="44.006806208441056" lon="10.834743662857221"><ele>745.0</ele><time>2026-04-26T09:39:08Z</time></trkpt><trkpt lat="44.00665786987622" lon="10.83483562140039"><ele>744.3333333333334</ele><time>2026-04-26T09:39:09Z</time></trkpt><trkpt lat="44.00650722844913" lon="10.834927955666934"><ele>743.6666666666666</ele><time>2026-04-26T09:39:10Z</time></trkpt><trkpt lat="44.006359531009394" lon="10.835010663765603"><ele>743.0</ele><time>2026-04-26T09:39:11Z</time></trkpt><trkpt lat="44.00622737508774" lon="10.835078851452412"><ele>743.0</ele><time>2026-04-26T09:39:12Z</time></trkpt><trkpt lat="44.00611818735091" lon="10.835132878465716"><ele>743.0</ele><time>2026-04-26T09:39:13Z</time></trkpt><trkpt lat="44.00602631296041" lon="10.835201279144453"><ele>743.0</ele><time>2026-04-26T09:39:14Z</time></trkpt><trkpt lat="44.00594381788976" lon="10.835302306730533"><ele>743.0</ele><time>2026-04-26T09:39:15Z</time></trkpt><trkpt lat="44.005873594081045" lon="10.835433529844424"><ele>743.0</ele><time>2026-04-26T09:39:16Z</time></trkpt><trkpt lat="44.00581341072697" lon="10.835588709351732"><ele>743.5999999999999</ele><time>2026-04-26T09:39:17Z</time></trkpt><trkpt lat="44.00574760604577" lon="10.835724455311167"><ele>744.1999999999999</ele><time>2026-04-26T09:39:18Z</time></trkpt><trkpt lat="44.00569844690756" lon="10.835845620050984"><ele>744.8</ele><time>2026-04-26T09:39:19Z</time></trkpt><trkpt lat="44.005679114913704" lon="10.835938341803327"><ele>745.4</ele><time>2026-04-26T09:39:20Z</time></trkpt><trkpt lat="44.005676928769454" lon="10.836067992042505"><ele>746.0</ele><time>2026-04-26T09:39:22Z</time></trkpt><trkpt lat="44.005707199859565" lon="10.836178997169577"><ele>748.5999999999999</ele><time>2026-04-26T09:39:29Z</time></trkpt><trkpt lat="44.00569035721536" lon="10.836282728235142"><ele>751.2</ele><time>2026-04-26T09:39:31Z</time></trkpt><trkpt lat="44.00575825366739" lon="10.83642940785775"><ele>753.8</ele><time>2026-04-26T09:39:32Z</time></trkpt><trkpt lat="44.005759360661735" lon="10.836570054257855"><ele>756.4000000000001</ele><time>2026-04-26T09:39:33Z</time></trkpt><trkpt lat="44.005764666671155" lon="10.836734599110994"><ele>759.0</ele><time>2026-04-26T09:39:34Z</time></trkpt><trkpt lat="44.00576150484586" lon="10.836908725671117"><ele>762.75</ele><time>2026-04-26T09:39:35Z</time></trkpt><trkpt lat="44.00576567487385" lon="10.837088860711045"><ele>766.5</ele><time>2026-04-26T09:39:36Z</time></trkpt><trkpt lat="44.0057655003686" lon="10.83726705665482"><ele>770.25</ele><time>2026-04-26T09:39:37Z</time></trkpt><trkpt lat="44.00577968003136" lon="10.837440816598573"><ele>774.0</ele><time>2026-04-26T09:39:38Z</time></trkpt><trkpt lat="44.0058243341672" lon="10.837603289951115"><ele>767.25</ele><time>2026-04-26T09:39:39Z</time></trkpt><trkpt lat="44.00590659521031" lon="10.837752334847583"><ele>760.5</ele><time>2026-04-26T09:39:40Z</time></trkpt><trkpt lat="44.00598952650309" lon="10.837879530491774"><ele>753.75</ele><time>2026-04-26T09:39:41Z</time></trkpt><trkpt lat="44.00604900667996" lon="10.838003011599351"><ele>747.0</ele><time>2026-04-26T09:39:42Z</time></trkpt><trkpt lat="44.00605921580698" lon="10.838159610111079"><ele>747.0</ele><time>2026-04-26T09:39:43Z</time></trkpt><trkpt lat="44.00602371014325" lon="10.838330359341514"><ele>747.0</ele><time>2026-04-26T09:39:44Z</time></trkpt><trkpt lat="44.00595488239393" lon="10.838509326814542"><ele>747.0</ele><time>2026-04-26T09:39:45Z</time></trkpt><trkpt lat="44.005874596382036" lon="10.83869470122603"><ele>747.0</ele><time>2026-04-26T09:39:46Z</time></trkpt><trkpt lat="44.0057774223818" lon="10.838902104345712"><ele>755.75</ele><time>2026-04-26T09:39:47Z</time></trkpt><trkpt lat="44.00568753471883" lon="10.839081187031315"><ele>764.5</ele><time>2026-04-26T09:39:48Z</time></trkpt><trkpt lat="44.00562970218232" lon="10.839251082510774"><ele>773.25</ele><time>2026-04-26T09:39:49Z</time></trkpt><trkpt lat="44.00560005355617" lon="10.839420772976833"><ele>782.0</ele><time>2026-04-26T09:39:50Z</time></trkpt><trkpt lat="44.00560740679899" lon="10.83960259950743"><ele>784.5</ele><time>2026-04-26T09:39:51Z</time></trkpt><trkpt lat="44.00566087035475" lon="10.839781428556313"><ele>787.0</ele><time>2026-04-26T09:39:52Z</time></trkpt><trkpt lat="44.00573094402282" lon="10.839919256513262"><ele>789.5</ele><time>2026-04-26T09:39:53Z</time></trkpt><trkpt lat="44.005833063605024" lon="10.840036181679094"><ele>792.0</ele><time>2026-04-26T09:39:54Z</time></trkpt><trkpt lat="44.005967998068506" lon="10.840126533783836"><ele>784.5</ele><time>2026-04-26T09:39:55Z</time></trkpt><trkpt lat="44.00611423358098" lon="10.840213548622794"><ele>777.0</ele><time>2026-04-26T09:39:56Z</time></trkpt><trkpt lat="44.006249830506846" lon="10.840293744045367"><ele>769.5</ele><time>2026-04-26T09:39:57Z</time></trkpt><trkpt lat="44.006377436116736" lon="10.840372992854237"><ele>762.0</ele><time>2026-04-26T09:39:58Z</time></trkpt><trkpt lat="44.0064815662133" lon="10.840485708206124"><ele>762.0</ele><time>2026-04-26T09:39:59Z</time></trkpt><trkpt lat="44.00651098286746" lon="10.840624801883045"><ele>762.0</ele><time>2026-04-26T09:40:00Z</time></trkpt><trkpt lat="44.006531061445386" lon="10.840805604787747"><ele>762.0</ele><time>2026-04-26T09:40:01Z</time></trkpt><trkpt lat="44.00652044986869" lon="10.84098761034489"><ele>762.0</ele><time>2026-04-26T09:40:02Z</time></trkpt><trkpt lat="44.00647977759072" lon="10.84117598755078"><ele>761.6666666666666</ele><time>2026-04-26T09:40:03Z</time></trkpt><trkpt lat="44.006416757238796" lon="10.841379710823146"><ele>761.3333333333333</ele><time>2026-04-26T09:40:04Z</time></trkpt><trkpt lat="44.006337963609795" lon="10.841586075824498"><ele>761.0</ele><time>2026-04-26T09:40:05Z</time></trkpt><trkpt lat="44.00627666707977" lon="10.841815289265265"><ele>756.3333333333333</ele><time>2026-04-26T09:40:06Z</time></trkpt><trkpt lat="44.00623528980079" lon="10.842058418045804"><ele>751.6666666666666</ele><time>2026-04-26T09:40:07Z</time></trkpt><trkpt lat="44.006209499843344" lon="10.842315836680745"><ele>747.0</ele><time>2026-04-26T09:40:08Z</time></trkpt><trkpt lat="44.006123581875855" lon="10.842551806787021"><ele>744.0</ele><time>2026-04-26T09:40:09Z</time></trkpt><trkpt lat="44.00603583210361" lon="10.842794961038148"><ele>741.0</ele><time>2026-04-26T09:40:10Z</time></trkpt><trkpt lat="44.00594497139453" lon="10.843037068555704"><ele>738.0</ele><time>2026-04-26T09:40:11Z</time></trkpt><trkpt lat="44.00585323593653" lon="10.8432907904099"><ele>747.6666666666666</ele><time>2026-04-26T09:40:12Z</time></trkpt><trkpt lat="44.00580107699563" lon="10.843567912326215"><ele>757.3333333333333</ele><time>2026-04-26T09:40:13Z</time></trkpt><trkpt lat="44.0057580853593" lon="10.843840282339103"><ele>767.0</ele><time>2026-04-26T09:40:14Z</time></trkpt><trkpt lat="44.00573784576841" lon="10.844114313644804"><ele>762.0</ele><time>2026-04-26T09:40:15Z</time></trkpt><trkpt lat="44.00573145680881" lon="10.84440046147393"><ele>757.0</ele><time>2026-04-26T09:40:16Z</time></trkpt><trkpt lat="44.00573467810141" lon="10.844688976697052"><ele>752.0</ele><time>2026-04-26T09:40:17Z</time></trkpt><trkpt lat="44.00573408297526" lon="10.844981683088042"><ele>751.3333333333333</ele><time>2026-04-26T09:40:18Z</time></trkpt><trkpt lat="44.00571995209229" lon="10.845242125817865"><ele>750.6666666666666</ele><time>2026-04-26T09:40:19Z</time></trkpt><trkpt lat="44.00574647308084" lon="10.84550526201398"><ele>750.0</ele><time>2026-04-26T09:40:20Z</time></trkpt><trkpt lat="44.005812497758086" lon="10.845750456923119"><ele>744.0</ele><time>2026-04-26T09:40:21Z</time></trkpt><trkpt lat="44.00587531903737" lon="10.846004568320446"><ele>738.0</ele><time>2026-04-26T09:40:22Z</time></trkpt><trkpt lat="44.00593488851487" lon="10.846245386444524"><ele>732.0</ele><time>2026-04-26T09:40:23Z</time></trkpt><trkpt lat="44.00599004994293" lon="10.84648688341776"><ele>732.0</ele><time>2026-04-26T09:40:24Z</time></trkpt><trkpt lat="44.00610742025983" lon="10.846672872236864"><ele>732.0</ele><time>2026-04-26T09:40:25Z</time></trkpt><trkpt lat="44.00623958518765" lon="10.846876427803704"><ele>732.0</ele><time>2026-04-26T09:40:26Z</time></trkpt><trkpt lat="44.006372159525554" lon="10.847083760498561"><ele>731.0</ele><time>2026-04-26T09:40:27Z</time></trkpt><trkpt lat="44.00650114659361" lon="10.84730883938874"><ele>730.0</ele><time>2026-04-26T09:40:28Z</time></trkpt><trkpt lat="44.00660602561602" lon="10.8475447071802"><ele>729.0</ele><time>2026-04-26T09:40:29Z</time></trkpt><trkpt lat="44.00667488779978" lon="10.847806302611199"><ele>729.0</ele><time>2026-04-26T09:40:30Z</time></trkpt><trkpt lat="44.006721357903416" lon="10.8480680551538"><ele>729.0</ele><time>2026-04-26T09:40:31Z</time></trkpt><trkpt lat="44.00676738213738" lon="10.848302619479515"><ele>729.0</ele><time>2026-04-26T09:40:32Z</time></trkpt><trkpt lat="44.00681428549119" lon="10.848503734132978"><ele>727.0</ele><time>2026-04-26T09:40:33Z</time></trkpt><trkpt lat="44.006894642258366" lon="10.84867076699299"><ele>725.0</ele><time>2026-04-26T09:40:34Z</time></trkpt><trkpt lat="44.00701521828167" lon="10.848812916590324"><ele>723.0</ele><time>2026-04-26T09:40:35Z</time></trkpt><trkpt lat="44.007153809141684" lon="10.84894567112232"><ele>723.0</ele><time>2026-04-26T09:40:36Z</time></trkpt><trkpt lat="44.007309273054574" lon="10.849089352504679"><ele>723.0</ele><time>2026-04-26T09:40:37Z</time></trkpt><trkpt lat="44.007476734766556" lon="10.849240505216658"><ele>723.0</ele><time>2026-04-26T09:40:38Z</time></trkpt><trkpt lat="44.00765960592287" lon="10.849390099051295"><ele>723.6666666666666</ele><time>2026-04-26T09:40:39Z</time></trkpt><trkpt lat="44.00784966614084" lon="10.84955717817413"><ele>724.3333333333333</ele><time>2026-04-26T09:40:40Z</time></trkpt><trkpt lat="44.008036659276534" lon="10.849725147420108"><ele>725.0</ele><time>2026-04-26T09:40:41Z</time></trkpt><trkpt lat="44.00822490472719" lon="10.849907136415743"><ele>725.5</ele><time>2026-04-26T09:40:42Z</time></trkpt><trkpt lat="44.00843210528662" lon="10.85005482381795"><ele>726.0</ele><time>2026-04-26T09:40:43Z</time></trkpt><trkpt lat="44.008626933122976" lon="10.85021065205292"><ele>726.6666666666666</ele><time>2026-04-26T09:40:44Z</time></trkpt><trkpt lat="44.00880776353333" lon="10.85039635057942"><ele>727.3333333333333</ele><time>2026-04-26T09:40:45Z</time></trkpt><trkpt lat="44.00896576846041" lon="10.850618289981341"><ele>728.0</ele><time>2026-04-26T09:40:46Z</time></trkpt><trkpt lat="44.009143137217166" lon="10.850812359437183"><ele>723.0</ele><time>2026-04-26T09:40:47Z</time></trkpt><trkpt lat="44.00930635796835" lon="10.851048336914374"><ele>718.0</ele><time>2026-04-26T09:40:48Z</time></trkpt><trkpt lat="44.009476966226416" lon="10.85126385541491"><ele>718.0</ele><time>2026-04-26T09:40:49Z</time></trkpt><trkpt lat="44.009635705784504" lon="10.851488417280521"><ele>718.0</ele><time>2026-04-26T09:40:50Z</time></trkpt><trkpt lat="44.00976926281195" lon="10.851729775374181"><ele>718.0</ele><time>2026-04-26T09:40:51Z</time></trkpt><trkpt lat="44.00989639326935" lon="10.851966912864299"><ele>717.6666666666667</ele><time>2026-04-26T09:40:52Z</time></trkpt><trkpt lat="44.01001277116718" lon="10.852189165630401"><ele>717.3333333333334</ele><time>2026-04-26T09:40:53Z</time></trkpt><trkpt lat="44.01012402033125" lon="10.852388885748704"><ele>717.0</ele><time>2026-04-26T09:40:54Z</time></trkpt><trkpt lat="44.01019671987702" lon="10.852605467285919"><ele>715.3333333333334</ele><time>2026-04-26T09:40:55Z</time></trkpt><trkpt lat="44.01027075312839" lon="10.852815740500684"><ele>713.6666666666667</ele><time>2026-04-26T09:40:56Z</time></trkpt><trkpt lat="44.010334499362386" lon="10.853039173299202"><ele>712.0</ele><time>2026-04-26T09:40:57Z</time></trkpt><trkpt lat="44.010439210511386" lon="10.853248788755685"><ele>712.3333333333334</ele><time>2026-04-26T09:40:58Z</time></trkpt><trkpt lat="44.01055751379833" lon="10.853455717420271"><ele>712.6666666666666</ele><time>2026-04-26T09:40:59Z</time></trkpt><trkpt lat="44.010686414656746" lon="10.853660047014674"><ele>713.0</ele><time>2026-04-26T09:41:00Z</time></trkpt><trkpt lat="44.01081541722091" lon="10.853867327693031"><ele>712.0</ele><time>2026-04-26T09:41:01Z</time></trkpt><trkpt lat="44.01093968056002" lon="10.854088279194903"><ele>711.0</ele><time>2026-04-26T09:41:02Z</time></trkpt><trkpt lat="44.01105878726693" lon="10.854314275261363"><ele>710.0</ele><time>2026-04-26T09:41:03Z</time></trkpt><trkpt lat="44.0111762068076" lon="10.854552086281933"><ele>708.6666666666666</ele><time>2026-04-26T09:41:04Z</time></trkpt><trkpt lat="44.011290916503896" lon="10.854791849433719"><ele>707.3333333333334</ele><time>2026-04-26T09:41:05Z</time></trkpt><trkpt lat="44.01141038034439" lon="10.85504535572796"><ele>706.0</ele><time>2026-04-26T09:41:06Z</time></trkpt><trkpt lat="44.01152513190639" lon="10.855290069449156"><ele>704.6666666666667</ele><time>2026-04-26T09:41:07Z</time></trkpt><trkpt lat="44.01160221920601" lon="10.855528938905243"><ele>703.3333333333334</ele><time>2026-04-26T09:41:08Z</time></trkpt><trkpt lat="44.011700862414884" lon="10.855746674247664"><ele>702.0</ele><time>2026-04-26T09:41:09Z</time></trkpt><trkpt lat="44.0117944688904" lon="10.855961174800346"><ele>701.3333333333334</ele><time>2026-04-26T09:41:10Z</time></trkpt><trkpt lat="44.01187540350623" lon="10.856176980154968"><ele>700.6666666666667</ele><time>2026-04-26T09:41:11Z</time></trkpt><trkpt lat="44.011944397959375" lon="10.856386626405024"><ele>700.0</ele><time>2026-04-26T09:41:12Z</time></trkpt><trkpt lat="44.012020515665746" lon="10.856587182476812"><ele>700.0</ele><time>2026-04-26T09:41:13Z</time></trkpt><trkpt lat="44.01211762529214" lon="10.856769926223944"><ele>700.0</ele><time>2026-04-26T09:41:14Z</time></trkpt><trkpt lat="44.01223855504505" lon="10.85692886527419"><ele>700.0</ele><time>2026-04-26T09:41:15Z</time></trkpt><trkpt lat="44.01238402407633" lon="10.857058516479889"><ele>699.6666666666667</ele><time>2026-04-26T09:41:16Z</time></trkpt><trkpt lat="44.01254984201318" lon="10.85717123079667"><ele>699.3333333333334</ele><time>2026-04-26T09:41:17Z</time></trkpt><trkpt lat="44.012715301545484" lon="10.857284187379316"><ele>699.0</ele><time>2026-04-26T09:41:18Z</time></trkpt><trkpt lat="44.012884058728865" lon="10.857406790689728"><ele>699.0</ele><time>2026-04-26T09:41:19Z</time></trkpt><trkpt lat="44.01305999967961" lon="10.857546727001129"><ele>699.0</ele><time>2026-04-26T09:41:20Z</time></trkpt><trkpt lat="44.01322485389238" lon="10.857695547508026"><ele>699.0</ele><time>2026-04-26T09:41:21Z</time></trkpt><trkpt lat="44.013366944734855" lon="10.857859150524519"><ele>699.3333333333334</ele><time>2026-04-26T09:41:22Z</time></trkpt><trkpt lat="44.013497734628565" lon="10.858041122562147"><ele>699.6666666666667</ele><time>2026-04-26T09:41:23Z</time></trkpt><trkpt lat="44.01361579420742" lon="10.858210853375825"><ele>700.0</ele><time>2026-04-26T09:41:24Z</time></trkpt><trkpt lat="44.013723721844116" lon="10.858384943184616"><ele>700.3333333333334</ele><time>2026-04-26T09:41:25Z</time></trkpt><trkpt lat="44.013860007002165" lon="10.858531266244858"><ele>700.6666666666666</ele><time>2026-04-26T09:41:26Z</time></trkpt><trkpt lat="44.013993947536626" lon="10.858669530554373"><ele>701.0</ele><time>2026-04-26T09:41:27Z</time></trkpt><trkpt lat="44.014143445824395" lon="10.858802857910531"><ele>699.6666666666666</ele><time>2026-04-26T09:41:28Z</time></trkpt><trkpt lat="44.0142923963257" lon="10.85892263518"><ele>698.3333333333334</ele><time>2026-04-26T09:41:29Z</time></trkpt><trkpt lat="44.01442922209444" lon="10.859043279771813"><ele>697.0</ele><time>2026-04-26T09:41:30Z</time></trkpt><trkpt lat="44.014569842882494" lon="10.859172319449513"><ele>698.0</ele><time>2026-04-26T09:41:31Z</time></trkpt><trkpt lat="44.01470382360985" lon="10.859309592942736"><ele>699.0</ele><time>2026-04-26T09:41:32Z</time></trkpt><trkpt lat="44.01481288729859" lon="10.859456449256296"><ele>700.0</ele><time>2026-04-26T09:41:33.001Z</time></trkpt><trkpt lat="44.01491537870797" lon="10.85961357957397"><ele>699.3333333333334</ele><time>2026-04-26T09:41:34.001Z</time></trkpt><trkpt lat="44.01502594037715" lon="10.859772833148536"><ele>698.6666666666666</ele><time>2026-04-26T09:41:35.001Z</time></trkpt><trkpt lat="44.01511134531537" lon="10.85995320628537"><ele>698.0</ele><time>2026-04-26T09:41:36.001Z</time></trkpt><trkpt lat="44.01519414735218" lon="10.860131059827609"><ele>696.75</ele><time>2026-04-26T09:41:37.001Z</time></trkpt><trkpt lat="44.01527347149225" lon="10.860305554886699"><ele>695.5</ele><time>2026-04-26T09:41:38.001Z</time></trkpt><trkpt lat="44.015341335538494" lon="10.860477301985087"><ele>694.25</ele><time>2026-04-26T09:41:39Z</time></trkpt><trkpt lat="44.015420836205536" lon="10.860644153862884"><ele>693.0</ele><time>2026-04-26T09:41:40Z</time></trkpt><trkpt lat="44.01550400161677" lon="10.860819807127324"><ele>693.0</ele><time>2026-04-26T09:41:41Z</time></trkpt><trkpt lat="44.015610127304555" lon="10.860993801093185"><ele>693.0</ele><time>2026-04-26T09:41:42.001Z</time></trkpt><trkpt lat="44.01573292749939" lon="10.861183258538363"><ele>693.0</ele><time>2026-04-26T09:41:43Z</time></trkpt><trkpt lat="44.01587257842169" lon="10.861391701375988"><ele>693.0</ele><time>2026-04-26T09:41:44Z</time></trkpt><trkpt lat="44.01602225862668" lon="10.86159922120931"><ele>693.0</ele><time>2026-04-26T09:41:45Z</time></trkpt><trkpt lat="44.01618148092655" lon="10.86180844224715"><ele>693.0</ele><time>2026-04-26T09:41:46Z</time></trkpt><trkpt lat="44.016318231834006" lon="10.862016171357883"><ele>694.6666666666666</ele><time>2026-04-26T09:41:47Z</time></trkpt><trkpt lat="44.016449929223434" lon="10.862213174107103"><ele>696.3333333333333</ele><time>2026-04-26T09:41:48Z</time></trkpt><trkpt lat="44.016580983705744" lon="10.862391885351983"><ele>698.0</ele><time>2026-04-26T09:41:49Z</time></trkpt><trkpt lat="44.01669487984622" lon="10.862562619323306"><ele>697.6666666666666</ele><time>2026-04-26T09:41:50Z</time></trkpt><trkpt lat="44.016799746956494" lon="10.862728491071273"><ele>697.3333333333334</ele><time>2026-04-26T09:41:51Z</time></trkpt><trkpt lat="44.016899895013985" lon="10.862890582163487"><ele>697.0</ele><time>2026-04-26T09:41:52Z</time></trkpt><trkpt lat="44.017017632514616" lon="10.86303539570086"><ele>697.0</ele><time>2026-04-26T09:41:53Z</time></trkpt><trkpt lat="44.017135658814226" lon="10.863170704868695"><ele>697.0</ele><time>2026-04-26T09:41:54Z</time></trkpt><trkpt lat="44.017257717539145" lon="10.863275397099803"><ele>697.0</ele><time>2026-04-26T09:41:55Z</time></trkpt><trkpt lat="44.01739415317553" lon="10.863366278749806"><ele>697.0</ele><time>2026-04-26T09:41:56Z</time></trkpt><trkpt lat="44.01755839407009" lon="10.86343853486247"><ele>695.0</ele><time>2026-04-26T09:41:57Z</time></trkpt><trkpt lat="44.01772603698486" lon="10.863498709737103"><ele>693.0</ele><time>2026-04-26T09:41:58Z</time></trkpt><trkpt lat="44.01791054940718" lon="10.863578135259484"><ele>691.0</ele><time>2026-04-26T09:41:59Z</time></trkpt><trkpt lat="44.01810615765289" lon="10.863660281969263"><ele>691.0</ele><time>2026-04-26T09:42:00Z</time></trkpt><trkpt lat="44.01826235196064" lon="10.863774004768734"><ele>691.0</ele><time>2026-04-26T09:42:01Z</time></trkpt><trkpt lat="44.018415676205784" lon="10.863866175063423"><ele>691.0</ele><time>2026-04-26T09:42:02Z</time></trkpt><trkpt lat="44.01858290231583" lon="10.864011249111106"><ele>691.0</ele><time>2026-04-26T09:42:03Z</time></trkpt><trkpt lat="44.01871962787283" lon="10.86418012791629"><ele>691.0</ele><time>2026-04-26T09:42:04Z</time></trkpt><trkpt lat="44.01885390599673" lon="10.864380008540445"><ele>691.0</ele><time>2026-04-26T09:42:05Z</time></trkpt><trkpt lat="44.01899295955965" lon="10.8645864857871"><ele>691.0</ele><time>2026-04-26T09:42:06Z</time></trkpt><trkpt lat="44.01914701555591" lon="10.864793132282372"><ele>691.0</ele><time>2026-04-26T09:42:07Z</time></trkpt><trkpt lat="44.01929527606604" lon="10.864992818923191"><ele>691.0</ele><time>2026-04-26T09:42:08Z</time></trkpt><trkpt lat="44.019442948026416" lon="10.865189446921086"><ele>692.6666666666667</ele><time>2026-04-26T09:42:09Z</time></trkpt><trkpt lat="44.019593033676124" lon="10.865374768831662"><ele>694.3333333333334</ele><time>2026-04-26T09:42:10Z</time></trkpt><trkpt lat="44.019726580525194" lon="10.86555298667909"><ele>696.0</ele><time>2026-04-26T09:42:11Z</time></trkpt><trkpt lat="44.01983233656678" lon="10.865714708712671"><ele>696.0</ele><time>2026-04-26T09:42:12Z</time></trkpt><trkpt lat="44.01995555900176" lon="10.865854730126431"><ele>696.0</ele><time>2026-04-26T09:42:13Z</time></trkpt><trkpt lat="44.02008689150977" lon="10.8659743045941"><ele>696.0</ele><time>2026-04-26T09:42:14Z</time></trkpt><trkpt lat="44.02023320659275" lon="10.866068278230067"><ele>697.6666666666666</ele><time>2026-04-26T09:42:15Z</time></trkpt><trkpt lat="44.020391347281446" lon="10.866126384376445"><ele>699.3333333333333</ele><time>2026-04-26T09:42:16Z</time></trkpt><trkpt lat="44.02056788388753" lon="10.866163330020465"><ele>701.0</ele><time>2026-04-26T09:42:17Z</time></trkpt><trkpt lat="44.02072474504423" lon="10.866225875574765"><ele>697.6666666666666</ele><time>2026-04-26T09:42:18Z</time></trkpt><trkpt lat="44.02089174169198" lon="10.866277710414156"><ele>694.3333333333334</ele><time>2026-04-26T09:42:19Z</time></trkpt><trkpt lat="44.02102206893164" lon="10.866290937105177"><ele>691.0</ele><time>2026-04-26T09:42:20Z</time></trkpt><trkpt lat="44.02119240844111" lon="10.866259021287243"><ele>691.0</ele><time>2026-04-26T09:42:21Z</time></trkpt><trkpt lat="44.021362762411876" lon="10.866231532970696"><ele>691.0</ele><time>2026-04-26T09:42:22Z</time></trkpt><trkpt lat="44.0215198737044" lon="10.866212716163838"><ele>691.0</ele><time>2026-04-26T09:42:23Z</time></trkpt><trkpt lat="44.02166782461408" lon="10.866184511469383"><ele>690.3333333333334</ele><time>2026-04-26T09:42:24Z</time></trkpt><trkpt lat="44.0218082845034" lon="10.866185123044344"><ele>689.6666666666666</ele><time>2026-04-26T09:42:25Z</time></trkpt><trkpt lat="44.021960906379846" lon="10.866204031673218"><ele>689.0</ele><time>2026-04-26T09:42:26Z</time></trkpt><trkpt lat="44.02213203887797" lon="10.866255289339941"><ele>689.0</ele><time>2026-04-26T09:42:27Z</time></trkpt><trkpt lat="44.02227406842179" lon="10.86634871315822"><ele>689.0</ele><time>2026-04-26T09:42:28Z</time></trkpt><trkpt lat="44.02242962049789" lon="10.866432784879988"><ele>689.0</ele><time>2026-04-26T09:42:29Z</time></trkpt><trkpt lat="44.022581734767" lon="10.866519006439022"><ele>688.0</ele><time>2026-04-26T09:42:30Z</time></trkpt><trkpt lat="44.0227392067015" lon="10.86659738883128"><ele>687.0</ele><time>2026-04-26T09:42:31Z</time></trkpt><trkpt lat="44.022912769270086" lon="10.866682979562773"><ele>686.0</ele><time>2026-04-26T09:42:32Z</time></trkpt><trkpt lat="44.02310022843547" lon="10.86677835124258"><ele>685.3333333333333</ele><time>2026-04-26T09:42:33Z</time></trkpt><trkpt lat="44.023297285829045" lon="10.86687570094394"><ele>684.6666666666666</ele><time>2026-04-26T09:42:34Z</time></trkpt><trkpt lat="44.023493628891906" lon="10.867003772425573"><ele>684.0</ele><time>2026-04-26T09:42:35Z</time></trkpt><trkpt lat="44.02370128998212" lon="10.867120878638682"><ele>684.0</ele><time>2026-04-26T09:42:36Z</time></trkpt><trkpt lat="44.023903870753074" lon="10.867239642434118"><ele>684.0</ele><time>2026-04-26T09:42:37Z</time></trkpt><trkpt lat="44.02410494111139" lon="10.867346718206122"><ele>684.0</ele><time>2026-04-26T09:42:38Z</time></trkpt><trkpt lat="44.02430942816127" lon="10.86745250758446"><ele>684.6666666666666</ele><time>2026-04-26T09:42:39Z</time></trkpt><trkpt lat="44.024513805613545" lon="10.867566023375385"><ele>685.3333333333333</ele><time>2026-04-26T09:42:40Z</time></trkpt><trkpt lat="44.024716027749015" lon="10.867663331521412"><ele>686.0</ele><time>2026-04-26T09:42:41Z</time></trkpt><trkpt lat="44.02489767744862" lon="10.867747750755468"><ele>683.0</ele><time>2026-04-26T09:42:42Z</time></trkpt><trkpt lat="44.0250411958758" lon="10.867827369560649"><ele>680.0</ele><time>2026-04-26T09:42:43Z</time></trkpt><trkpt lat="44.02517466050949" lon="10.867912176742202"><ele>677.0</ele><time>2026-04-26T09:42:44Z</time></trkpt><trkpt lat="44.025307289338436" lon="10.868035154347881"><ele>677.0</ele><time>2026-04-26T09:42:45Z</time></trkpt><trkpt lat="44.025418899208134" lon="10.86821314571667"><ele>677.0</ele><time>2026-04-26T09:42:46Z</time></trkpt><trkpt lat="44.02551733696841" lon="10.868397751741556"><ele>677.0</ele><time>2026-04-26T09:42:47Z</time></trkpt><trkpt lat="44.025634309171" lon="10.868563936761225"><ele>677.3333333333333</ele><time>2026-04-26T09:42:48Z</time></trkpt><trkpt lat="44.02575056680684" lon="10.86872868939054"><ele>677.6666666666666</ele><time>2026-04-26T09:42:49Z</time></trkpt><trkpt lat="44.025882881469144" lon="10.868888278839417"><ele>678.0</ele><time>2026-04-26T09:42:50Z</time></trkpt><trkpt lat="44.026014575410336" lon="10.869063716265138"><ele>678.3333333333334</ele><time>2026-04-26T09:42:51Z</time></trkpt><trkpt lat="44.02614296351185" lon="10.869244863871256"><ele>678.6666666666667</ele><time>2026-04-26T09:42:52Z</time></trkpt><trkpt lat="44.02628728950145" lon="10.869422115753467"><ele>679.0</ele><time>2026-04-26T09:42:53Z</time></trkpt><trkpt lat="44.02642591029149" lon="10.869604594810252"><ele>677.6666666666667</ele><time>2026-04-26T09:42:54Z</time></trkpt><trkpt lat="44.02657262641926" lon="10.869811731022912"><ele>676.3333333333334</ele><time>2026-04-26T09:42:55Z</time></trkpt><trkpt lat="44.02672839666033" lon="10.870033008318053"><ele>675.0</ele><time>2026-04-26T09:42:56Z</time></trkpt><trkpt lat="44.026894529122416" lon="10.870254101237013"><ele>674.5</ele><time>2026-04-26T09:42:57Z</time></trkpt><trkpt lat="44.02706354031413" lon="10.870485093806018"><ele>674.0</ele><time>2026-04-26T09:42:58Z</time></trkpt><trkpt lat="44.02721233951325" lon="10.870763532456504"><ele>674.0</ele><time>2026-04-26T09:42:59Z</time></trkpt><trkpt lat="44.02735985288564" lon="10.870979903039009"><ele>674.0</ele><time>2026-04-26T09:43:00Z</time></trkpt><trkpt lat="44.02749409151569" lon="10.871203196563124"><ele>674.0</ele><time>2026-04-26T09:43:01Z</time></trkpt><trkpt lat="44.02764570505375" lon="10.871395909684587"><ele>674.0</ele><time>2026-04-26T09:43:02Z</time></trkpt><trkpt lat="44.02779368549178" lon="10.871584690233496"><ele>674.0</ele><time>2026-04-26T09:43:03Z</time></trkpt><trkpt lat="44.027950711250725" lon="10.871718242702029"><ele>674.0</ele><time>2026-04-26T09:43:04Z</time></trkpt><trkpt lat="44.028098524461875" lon="10.871869836843295"><ele>673.3333333333333</ele><time>2026-04-26T09:43:05Z</time></trkpt><trkpt lat="44.028265628354184" lon="10.872012517256454"><ele>672.6666666666666</ele><time>2026-04-26T09:43:06Z</time></trkpt><trkpt lat="44.02845792145786" lon="10.872105790439283"><ele>672.0</ele><time>2026-04-26T09:43:07Z</time></trkpt><trkpt lat="44.02866002542692" lon="10.87215735127963"><ele>672.0</ele><time>2026-04-26T09:43:08Z</time></trkpt><trkpt lat="44.02888129489511" lon="10.872217317773776"><ele>672.0</ele><time>2026-04-26T09:43:09Z</time></trkpt><trkpt lat="44.02910562937302" lon="10.872285131323085"><ele>672.5</ele><time>2026-04-26T09:43:10Z</time></trkpt><trkpt lat="44.0293348696796" lon="10.87236907865065"><ele>673.0</ele><time>2026-04-26T09:43:11Z</time></trkpt><trkpt lat="44.029567805116656" lon="10.872444589198839"><ele>673.0</ele><time>2026-04-26T09:43:12Z</time></trkpt><trkpt lat="44.029816905015494" lon="10.872514229436694"><ele>673.0</ele><time>2026-04-26T09:43:13Z</time></trkpt><trkpt lat="44.030059636226994" lon="10.872593646914792"><ele>672.0</ele><time>2026-04-26T09:43:14Z</time></trkpt><trkpt lat="44.03028886289252" lon="10.872668129745994"><ele>671.0</ele><time>2026-04-26T09:43:15Z</time></trkpt><trkpt lat="44.030504202932356" lon="10.872738182938802"><ele>671.0</ele><time>2026-04-26T09:43:16Z</time></trkpt><trkpt lat="44.03071287399879" lon="10.872807589896974"><ele>671.0</ele><time>2026-04-26T09:43:17Z</time></trkpt><trkpt lat="44.030915063486475" lon="10.872876802915064"><ele>671.0</ele><time>2026-04-26T09:43:18Z</time></trkpt><trkpt lat="44.0311055982148" lon="10.872976173885297"><ele>671.0</ele><time>2026-04-26T09:43:19Z</time></trkpt><trkpt lat="44.031274814782115" lon="10.873132719182783"><ele>671.0</ele><time>2026-04-26T09:43:20Z</time></trkpt><trkpt lat="44.031432816253464" lon="10.873331801482326"><ele>671.0</ele><time>2026-04-26T09:43:21Z</time></trkpt><trkpt lat="44.03158044404315" lon="10.873569313593922"><ele>670.5</ele><time>2026-04-26T09:43:22Z</time></trkpt><trkpt lat="44.03173930471482" lon="10.873812440871362"><ele>670.0</ele><time>2026-04-26T09:43:23Z</time></trkpt><trkpt lat="44.031908580210626" lon="10.874049451912237"><ele>670.0</ele><time>2026-04-26T09:43:24Z</time></trkpt><trkpt lat="44.032087175215295" lon="10.874290287398338"><ele>670.0</ele><time>2026-04-26T09:43:25Z</time></trkpt><trkpt lat="44.03226754440761" lon="10.874537950945086"><ele>670.0</ele><time>2026-04-26T09:43:26Z</time></trkpt><trkpt lat="44.03245210196377" lon="10.874783468458071"><ele>670.0</ele><time>2026-04-26T09:43:27Z</time></trkpt><trkpt lat="44.032628669354224" lon="10.875028262162989"><ele>669.5</ele><time>2026-04-26T09:43:28Z</time></trkpt><trkpt lat="44.032809492083494" lon="10.87527664529648"><ele>669.0</ele><time>2026-04-26T09:43:29Z</time></trkpt><trkpt lat="44.033013547032105" lon="10.875521509931382"><ele>669.0</ele><time>2026-04-26T09:43:30Z</time></trkpt><trkpt lat="44.03318456028081" lon="10.875765126414795"><ele>669.0</ele><time>2026-04-26T09:43:31Z</time></trkpt><trkpt lat="44.03334798960464" lon="10.87598430329939"><ele>670.3333333333334</ele><time>2026-04-26T09:43:32Z</time></trkpt><trkpt lat="44.03350613595705" lon="10.876197465899304"><ele>671.6666666666667</ele><time>2026-04-26T09:43:33Z</time></trkpt><trkpt lat="44.03366429429931" lon="10.876408278204925"><ele>673.0</ele><time>2026-04-26T09:43:34Z</time></trkpt><trkpt lat="44.03380547784459" lon="10.876635060034495"><ele>671.6666666666667</ele><time>2026-04-26T09:43:35Z</time></trkpt><trkpt lat="44.03394051637262" lon="10.876872472898294"><ele>670.3333333333334</ele><time>2026-04-26T09:43:36Z</time></trkpt><trkpt lat="44.03407973270678" lon="10.877091845983783"><ele>669.0</ele><time>2026-04-26T09:43:37.001Z</time></trkpt><trkpt lat="44.03424415927855" lon="10.877278556648758"><ele>669.0</ele><time>2026-04-26T09:43:38.001Z</time></trkpt><trkpt lat="44.034426897557786" lon="10.877441557804193"><ele>669.0</ele><time>2026-04-26T09:43:39Z</time></trkpt><trkpt lat="44.03462212731764" lon="10.877597291293322"><ele>669.0</ele><time>2026-04-26T09:43:40Z</time></trkpt><trkpt lat="44.03482523699873" lon="10.877759238771938"><ele>668.5</ele><time>2026-04-26T09:43:41Z</time></trkpt><trkpt lat="44.03502329946403" lon="10.87792133740038"><ele>668.0</ele><time>2026-04-26T09:43:42.001Z</time></trkpt><trkpt lat="44.035235403499975" lon="10.878096785035591"><ele>668.0</ele><time>2026-04-26T09:43:43Z</time></trkpt><trkpt lat="44.03544766440459" lon="10.87826893785505"><ele>668.0</ele><time>2026-04-26T09:43:44Z</time></trkpt><trkpt lat="44.03563876893557" lon="10.878432660894989"><ele>669.0</ele><time>2026-04-26T09:43:45Z</time></trkpt><trkpt lat="44.03580988413689" lon="10.878641775495964"><ele>670.0</ele><time>2026-04-26T09:43:46Z</time></trkpt><trkpt lat="44.03597168231566" lon="10.878873952961248"><ele>670.0</ele><time>2026-04-26T09:43:47Z</time></trkpt><trkpt lat="44.036136992533116" lon="10.87911762908691"><ele>670.0</ele><time>2026-04-26T09:43:48Z</time></trkpt><trkpt lat="44.03628551904997" lon="10.879350584797109"><ele>670.3333333333334</ele><time>2026-04-26T09:43:49Z</time></trkpt><trkpt lat="44.03642054143425" lon="10.879565624011843"><ele>670.6666666666666</ele><time>2026-04-26T09:43:50Z</time></trkpt><trkpt lat="44.03653134665197" lon="10.879752268994693"><ele>671.0</ele><time>2026-04-26T09:43:51Z</time></trkpt><trkpt lat="44.03662554858922" lon="10.879931444373305"><ele>670.6666666666666</ele><time>2026-04-26T09:43:52Z</time></trkpt><trkpt lat="44.03668239326072" lon="10.880111674627315"><ele>670.3333333333334</ele><time>2026-04-26T09:43:53Z</time></trkpt><trkpt lat="44.036699915244476" lon="10.880326549043453"><ele>670.0</ele><time>2026-04-26T09:43:54Z</time></trkpt><trkpt lat="44.03670643066434" lon="10.880564012863193"><ele>670.0</ele><time>2026-04-26T09:43:55Z</time></trkpt><trkpt lat="44.036737598195124" lon="10.880806034835983"><ele>670.0</ele><time>2026-04-26T09:43:56Z</time></trkpt><trkpt lat="44.036788969575824" lon="10.881023986890115"><ele>670.0</ele><time>2026-04-26T09:43:57Z</time></trkpt><trkpt lat="44.03685278923287" lon="10.881220217558734"><ele>669.6666666666667</ele><time>2026-04-26T09:43:58Z</time></trkpt><trkpt lat="44.03692357971591" lon="10.881416551457633"><ele>669.3333333333334</ele><time>2026-04-26T09:43:59Z</time></trkpt><trkpt lat="44.037007275219274" lon="10.881627818485606"><ele>669.0</ele><time>2026-04-26T09:44:00Z</time></trkpt><trkpt lat="44.03710569608828" lon="10.88184058568489"><ele>669.0</ele><time>2026-04-26T09:44:01Z</time></trkpt><trkpt lat="44.03723289606991" lon="10.882038449947968"><ele>669.0</ele><time>2026-04-26T09:44:02Z</time></trkpt><trkpt lat="44.03736052650917" lon="10.882213684125578"><ele>669.0</ele><time>2026-04-26T09:44:03Z</time></trkpt><trkpt lat="44.037475228345365" lon="10.882379843868009"><ele>668.25</ele><time>2026-04-26T09:44:04Z</time></trkpt><trkpt lat="44.037602952673964" lon="10.88250489398798"><ele>667.5</ele><time>2026-04-26T09:44:05Z</time></trkpt><trkpt lat="44.03771489623086" lon="10.882618655645922"><ele>666.75</ele><time>2026-04-26T09:44:06Z</time></trkpt><trkpt lat="44.0378189906586" lon="10.882705409418"><ele>666.0</ele><time>2026-04-26T09:44:07Z</time></trkpt><trkpt lat="44.03791026821377" lon="10.882744240485394"><ele>666.0</ele><time>2026-04-26T09:44:08Z</time></trkpt><trkpt lat="44.03799428256316" lon="10.882736927230601"><ele>666.0</ele><time>2026-04-26T09:44:09Z</time></trkpt><trkpt lat="44.03806035510035" lon="10.88269880926004"><ele>666.0</ele><time>2026-04-26T09:44:10Z</time></trkpt><trkpt lat="44.038099871835854" lon="10.882581326594778"><ele>666.0</ele><time>2026-04-26T09:44:12Z</time></trkpt><trkpt lat="44.038100575675905" lon="10.882463615941536"><ele>666.0</ele><time>2026-04-26T09:44:13Z</time></trkpt><trkpt lat="44.038074790921534" lon="10.882341471929035"><ele>666.0</ele><time>2026-04-26T09:44:14Z</time></trkpt><trkpt lat="44.03805227072938" lon="10.882185253590292"><ele>666.0</ele><time>2026-04-26T09:44:15Z</time></trkpt><trkpt lat="44.038035720447716" lon="10.881992002198109"><ele>666.0</ele><time>2026-04-26T09:44:16Z</time></trkpt><trkpt lat="44.03801207343882" lon="10.881797134340905"><ele>666.0</ele><time>2026-04-26T09:44:17Z</time></trkpt><trkpt lat="44.03801683402526" lon="10.88159281456587"><ele>666.0</ele><time>2026-04-26T09:44:18Z</time></trkpt><trkpt lat="44.03799506202868" lon="10.881376139452085"><ele>669.6666666666666</ele><time>2026-04-26T09:44:19Z</time></trkpt><trkpt lat="44.037969803639534" lon="10.881147125930806"><ele>673.3333333333333</ele><time>2026-04-26T09:44:20Z</time></trkpt><trkpt lat="44.037946112815796" lon="10.880906838899712"><ele>677.0</ele><time>2026-04-26T09:44:21Z</time></trkpt><trkpt lat="44.037924993664014" lon="10.880666430844578"><ele>677.6666666666666</ele><time>2026-04-26T09:44:22Z</time></trkpt><trkpt lat="44.037897105768195" lon="10.880422313200128"><ele>678.3333333333334</ele><time>2026-04-26T09:44:23Z</time></trkpt><trkpt lat="44.03787267190136" lon="10.880172669711072"><ele>679.0</ele><time>2026-04-26T09:44:24Z</time></trkpt><trkpt lat="44.03785029461243" lon="10.879923233707379"><ele>679.3333333333334</ele><time>2026-04-26T09:44:25Z</time></trkpt><trkpt lat="44.03782905965235" lon="10.879670027064819"><ele>679.6666666666666</ele><time>2026-04-26T09:44:26Z</time></trkpt><trkpt lat="44.037812311290224" lon="10.87941778902359"><ele>680.0</ele><time>2026-04-26T09:44:27Z</time></trkpt><trkpt lat="44.0378084814714" lon="10.879160006265217"><ele>684.3333333333333</ele><time>2026-04-26T09:44:28Z</time></trkpt><trkpt lat="44.03780723636419" lon="10.878898086532182"><ele>688.6666666666666</ele><time>2026-04-26T09:44:29Z</time></trkpt><trkpt lat="44.037817946527284" lon="10.87862226914012"><ele>693.0</ele><time>2026-04-26T09:44:30Z</time></trkpt><trkpt lat="44.03785334402642" lon="10.878347153953902"><ele>694.0</ele><time>2026-04-26T09:44:31Z</time></trkpt><trkpt lat="44.0378740191493" lon="10.878055245086543"><ele>695.0</ele><time>2026-04-26T09:44:32Z</time></trkpt><trkpt lat="44.03788705599991" lon="10.87775977112221"><ele>696.0</ele><time>2026-04-26T09:44:33Z</time></trkpt><trkpt lat="44.03791903675201" lon="10.877485791309613"><ele>696.3333333333334</ele><time>2026-04-26T09:44:34Z</time></trkpt><trkpt lat="44.037944800643345" lon="10.87722490420749"><ele>696.6666666666667</ele><time>2026-04-26T09:44:35Z</time></trkpt><trkpt lat="44.03796156642313" lon="10.876988568775305"><ele>697.0</ele><time>2026-04-26T09:44:36Z</time></trkpt><trkpt lat="44.03797739595928" lon="10.876775416690812"><ele>697.25</ele><time>2026-04-26T09:44:37Z</time></trkpt><trkpt lat="44.037994635896396" lon="10.876588196579506"><ele>697.5</ele><time>2026-04-26T09:44:38Z</time></trkpt><trkpt lat="44.0380318773897" lon="10.876414604920743"><ele>697.75</ele><time>2026-04-26T09:44:39Z</time></trkpt><trkpt lat="44.03809569795127" lon="10.876268585148999"><ele>698.0</ele><time>2026-04-26T09:44:40Z</time></trkpt><trkpt lat="44.03819170429352" lon="10.876148191268673"><ele>691.25</ele><time>2026-04-26T09:44:41Z</time></trkpt><trkpt lat="44.03831084384886" lon="10.876036561850448"><ele>684.5</ele><time>2026-04-26T09:44:42Z</time></trkpt><trkpt lat="44.03843923298194" lon="10.875920942939203"><ele>677.75</ele><time>2026-04-26T09:44:43Z</time></trkpt><trkpt lat="44.03853645413284" lon="10.875774182808016"><ele>671.0</ele><time>2026-04-26T09:44:44Z</time></trkpt><trkpt lat="44.03859786230333" lon="10.875609770991819"><ele>671.0</ele><time>2026-04-26T09:44:45Z</time></trkpt><trkpt lat="44.038614825909434" lon="10.875429599684471"><ele>671.0</ele><time>2026-04-26T09:44:46Z</time></trkpt><trkpt lat="44.03858724478272" lon="10.875241062096286"><ele>671.0</ele><time>2026-04-26T09:44:47Z</time></trkpt><trkpt lat="44.038528879555486" lon="10.875067341779085"><ele>671.0</ele><time>2026-04-26T09:44:48Z</time></trkpt><trkpt lat="44.03843843183912" lon="10.874904663462127"><ele>672.0</ele><time>2026-04-26T09:44:49Z</time></trkpt><trkpt lat="44.03832016269865" lon="10.874779744495205"><ele>673.0</ele><time>2026-04-26T09:44:50Z</time></trkpt><trkpt lat="44.038171126337666" lon="10.874681505005475"><ele>674.0</ele><time>2026-04-26T09:44:51Z</time></trkpt><trkpt lat="44.03805227718066" lon="10.874562069090489"><ele>674.25</ele><time>2026-04-26T09:44:52Z</time></trkpt><trkpt lat="44.03797939963819" lon="10.874417144398016"><ele>674.5</ele><time>2026-04-26T09:44:53Z</time></trkpt><trkpt lat="44.03794204569071" lon="10.874234921578097"><ele>674.75</ele><time>2026-04-26T09:44:54Z</time></trkpt><trkpt lat="44.03793365240784" lon="10.874018006810171"><ele>675.0</ele><time>2026-04-26T09:44:55Z</time></trkpt><trkpt lat="44.03793070616663" lon="10.873779748263747"><ele>675.0</ele><time>2026-04-26T09:44:56Z</time></trkpt><trkpt lat="44.03792311656548" lon="10.873530787113449"><ele>675.0</ele><time>2026-04-26T09:44:57Z</time></trkpt><trkpt lat="44.03791952398252" lon="10.87326251557753"><ele>675.0</ele><time>2026-04-26T09:44:58Z</time></trkpt><trkpt lat="44.03791330047169" lon="10.872997449465602"><ele>675.3333333333334</ele><time>2026-04-26T09:44:59Z</time></trkpt><trkpt lat="44.037920314268646" lon="10.872721479305888"><ele>675.6666666666667</ele><time>2026-04-26T09:45:00Z</time></trkpt><trkpt lat="44.037927845608564" lon="10.872451080956372"><ele>676.0</ele><time>2026-04-26T09:45:01Z</time></trkpt><trkpt lat="44.03794696252659" lon="10.872179168843646"><ele>676.6666666666667</ele><time>2026-04-26T09:45:02Z</time></trkpt><trkpt lat="44.03798920943402" lon="10.871920041408742"><ele>677.3333333333334</ele><time>2026-04-26T09:45:03Z</time></trkpt><trkpt lat="44.03801178314329" lon="10.871652857332876"><ele>678.0</ele><time>2026-04-26T09:45:04Z</time></trkpt><trkpt lat="44.038030527023864" lon="10.871388223063992"><ele>678.0</ele><time>2026-04-26T09:45:05Z</time></trkpt><trkpt lat="44.03806090467081" lon="10.871124476533039"><ele>678.0</ele><time>2026-04-26T09:45:06Z</time></trkpt><trkpt lat="44.038088388172625" lon="10.870856662203254"><ele>678.0</ele><time>2026-04-26T09:45:07Z</time></trkpt><trkpt lat="44.03810949242207" lon="10.870581912052215"><ele>678.3333333333334</ele><time>2026-04-26T09:45:08Z</time></trkpt><trkpt lat="44.03813699515958" lon="10.870305222342902"><ele>678.6666666666667</ele><time>2026-04-26T09:45:09Z</time></trkpt><trkpt lat="44.03815237532255" lon="10.870025519497261"><ele>679.0</ele><time>2026-04-26T09:45:10Z</time></trkpt><trkpt lat="44.03815216505041" lon="10.869769781354528"><ele>680.3333333333334</ele><time>2026-04-26T09:45:11Z</time></trkpt><trkpt lat="44.0381267865775" lon="10.869514900453114"><ele>681.6666666666666</ele><time>2026-04-26T09:45:12Z</time></trkpt><trkpt lat="44.03810291957296" lon="10.86924001216677"><ele>683.0</ele><time>2026-04-26T09:45:13Z</time></trkpt><trkpt lat="44.03809915210584" lon="10.868963841135251"><ele>684.0</ele><time>2026-04-26T09:45:14Z</time></trkpt><trkpt lat="44.03811843994533" lon="10.868691186655814"><ele>685.0</ele><time>2026-04-26T09:45:15Z</time></trkpt><trkpt lat="44.038155374147905" lon="10.868431845400268"><ele>686.0</ele><time>2026-04-26T09:45:16Z</time></trkpt><trkpt lat="44.03819136454098" lon="10.868167529484078"><ele>687.3333333333333</ele><time>2026-04-26T09:45:17Z</time></trkpt><trkpt lat="44.03823063097943" lon="10.867906459657727"><ele>688.6666666666666</ele><time>2026-04-26T09:45:18Z</time></trkpt><trkpt lat="44.038260182832694" lon="10.867638726436262"><ele>690.0</ele><time>2026-04-26T09:45:19Z</time></trkpt><trkpt lat="44.03828899149804" lon="10.867363381597043"><ele>691.3333333333334</ele><time>2026-04-26T09:45:20Z</time></trkpt><trkpt lat="44.038319295929114" lon="10.867083727005586"><ele>692.6666666666667</ele><time>2026-04-26T09:45:21Z</time></trkpt><trkpt lat="44.03834997303413" lon="10.866799864523728"><ele>694.0</ele><time>2026-04-26T09:45:22Z</time></trkpt><trkpt lat="44.03837968285435" lon="10.866512917714106"><ele>695.3333333333334</ele><time>2026-04-26T09:45:23Z</time></trkpt><trkpt lat="44.038424120371026" lon="10.866234198786197"><ele>696.6666666666666</ele><time>2026-04-26T09:45:24Z</time></trkpt><trkpt lat="44.03845814811672" lon="10.865947196513805"><ele>698.0</ele><time>2026-04-26T09:45:25Z</time></trkpt><trkpt lat="44.03847638602088" lon="10.86565584654684"><ele>698.0</ele><time>2026-04-26T09:45:26Z</time></trkpt><trkpt lat="44.038529222761554" lon="10.86539355642052"><ele>698.0</ele><time>2026-04-26T09:45:27Z</time></trkpt><trkpt lat="44.038553746606645" lon="10.865126244579631"><ele>698.0</ele><time>2026-04-26T09:45:28Z</time></trkpt><trkpt lat="44.03858222051606" lon="10.864856502710856"><ele>698.0</ele><time>2026-04-26T09:45:29Z</time></trkpt><trkpt lat="44.038611638306804" lon="10.86459552692687"><ele>698.0</ele><time>2026-04-26T09:45:30Z</time></trkpt><trkpt lat="44.03863869832714" lon="10.864355945040327"><ele>698.0</ele><time>2026-04-26T09:45:31Z</time></trkpt><trkpt lat="44.03866504969051" lon="10.864123846243421"><ele>698.0</ele><time>2026-04-26T09:45:32Z</time></trkpt><trkpt lat="44.03870698638728" lon="10.86392817205181"><ele>698.0</ele><time>2026-04-26T09:45:33Z</time></trkpt><trkpt lat="44.038719381369184" lon="10.86375479104121"><ele>698.0</ele><time>2026-04-26T09:45:34Z</time></trkpt><trkpt lat="44.038734079297434" lon="10.863574588743692"><ele>698.0</ele><time>2026-04-26T09:45:35Z</time></trkpt><trkpt lat="44.038758629346034" lon="10.86338980983592"><ele>697.5</ele><time>2026-04-26T09:45:36Z</time></trkpt><trkpt lat="44.03877493047722" lon="10.863209234053947"><ele>697.0</ele><time>2026-04-26T09:45:37Z</time></trkpt><trkpt lat="44.03877488623858" lon="10.863033967271114"><ele>696.5</ele><time>2026-04-26T09:45:38Z</time></trkpt><trkpt lat="44.03876919506787" lon="10.862864243688588"><ele>696.0</ele><time>2026-04-26T09:45:39Z</time></trkpt><trkpt lat="44.03875619563063" lon="10.862684379094448"><ele>695.5</ele><time>2026-04-26T09:45:40Z</time></trkpt><trkpt lat="44.038727830221646" lon="10.86248537413079"><ele>695.0</ele><time>2026-04-26T09:45:41Z</time></trkpt><trkpt lat="44.038707454679816" lon="10.862284312474953"><ele>694.5</ele><time>2026-04-26T09:45:42Z</time></trkpt><trkpt lat="44.03869184887164" lon="10.862086646167677"><ele>694.0</ele><time>2026-04-26T09:45:43Z</time></trkpt><trkpt lat="44.03868820453636" lon="10.861897073590754"><ele>693.75</ele><time>2026-04-26T09:45:44Z</time></trkpt><trkpt lat="44.03870921864607" lon="10.861712896389578"><ele>693.5</ele><time>2026-04-26T09:45:45Z</time></trkpt><trkpt lat="44.03876172051283" lon="10.861535082582282"><ele>693.25</ele><time>2026-04-26T09:45:46Z</time></trkpt><trkpt lat="44.03881089487244" lon="10.861372185228005"><ele>693.0</ele><time>2026-04-26T09:45:47Z</time></trkpt><trkpt lat="44.03886168235498" lon="10.861212373708067"><ele>693.0</ele><time>2026-04-26T09:45:48Z</time></trkpt><trkpt lat="44.03891903498093" lon="10.86107975598546"><ele>693.0</ele><time>2026-04-26T09:45:49Z</time></trkpt><trkpt lat="44.03895424115521" lon="10.860952338094215"><ele>693.0</ele><time>2026-04-26T09:45:50Z</time></trkpt><trkpt lat="44.03895510323822" lon="10.86080600866055"><ele>693.0</ele><time>2026-04-26T09:45:51Z</time></trkpt><trkpt lat="44.03892208804941" lon="10.860655523384516"><ele>693.0</ele><time>2026-04-26T09:45:52Z</time></trkpt><trkpt lat="44.03887480780628" lon="10.860489982396288"><ele>693.0</ele><time>2026-04-26T09:45:53Z</time></trkpt><trkpt lat="44.03883184650057" lon="10.860332087620685"><ele>693.0</ele><time>2026-04-26T09:45:54Z</time></trkpt><trkpt lat="44.0388191820205" lon="10.860176646139013"><ele>693.0</ele><time>2026-04-26T09:45:55.001Z</time></trkpt><trkpt lat="44.0388047686416" lon="10.860009334652183"><ele>693.0</ele><time>2026-04-26T09:45:56.001Z</time></trkpt><trkpt lat="44.03880862832892" lon="10.859822903105334"><ele>694.75</ele><time>2026-04-26T09:45:57.001Z</time></trkpt><trkpt lat="44.03881194240513" lon="10.85963297102694"><ele>696.5</ele><time>2026-04-26T09:45:58.001Z</time></trkpt><trkpt lat="44.03880460179859" lon="10.859453922785294"><ele>698.25</ele><time>2026-04-26T09:45:59.001Z</time></trkpt><trkpt lat="44.03877593602293" lon="10.859253208782532"><ele>700.0</ele><time>2026-04-26T09:46:00.001Z</time></trkpt><trkpt lat="44.03874044606055" lon="10.859045522614766"><ele>702.6666666666667</ele><time>2026-04-26T09:46:01.001Z</time></trkpt><trkpt lat="44.038700522837246" lon="10.858826458398577"><ele>705.3333333333334</ele><time>2026-04-26T09:46:02.001Z</time></trkpt><trkpt lat="44.038643015056714" lon="10.858584325109314"><ele>708.0</ele><time>2026-04-26T09:46:03.001Z</time></trkpt><trkpt lat="44.038591783051686" lon="10.85833456575208"><ele>708.0</ele><time>2026-04-26T09:46:04.001Z</time></trkpt><trkpt lat="44.03853822642813" lon="10.858067353231997"><ele>708.0</ele><time>2026-04-26T09:46:05.001Z</time></trkpt><trkpt lat="44.03849080399364" lon="10.857799025566266"><ele>708.0</ele><time>2026-04-26T09:46:06.001Z</time></trkpt><trkpt lat="44.03844670932419" lon="10.857573271950466"><ele>706.75</ele><time>2026-04-26T09:46:07.001Z</time></trkpt><trkpt lat="44.03837801400485" lon="10.857378123802688"><ele>705.5</ele><time>2026-04-26T09:46:08.001Z</time></trkpt><trkpt lat="44.0382871495442" lon="10.857239641932628"><ele>704.25</ele><time>2026-04-26T09:46:09.001Z</time></trkpt><trkpt lat="44.0381514448517" lon="10.857140165728193"><ele>703.0</ele><time>2026-04-26T09:46:10.001Z</time></trkpt><trkpt lat="44.03801827765657" lon="10.857040643163991"><ele>706.0</ele><time>2026-04-26T09:46:11.001Z</time></trkpt><trkpt lat="44.0379366176146" lon="10.856925431526108"><ele>709.0</ele><time>2026-04-26T09:46:12.001Z</time></trkpt><trkpt lat="44.0378693460427" lon="10.856766990273668"><ele>712.0</ele><time>2026-04-26T09:46:13.001Z</time></trkpt><trkpt lat="44.03784208899683" lon="10.856559480754008"><ele>715.0</ele><time>2026-04-26T09:46:14.001Z</time></trkpt><trkpt lat="44.03783604225524" lon="10.856326523576486"><ele>715.0</ele><time>2026-04-26T09:46:15.001Z</time></trkpt><trkpt lat="44.03782671137299" lon="10.856076117376357"><ele>715.0</ele><time>2026-04-26T09:46:16.001Z</time></trkpt><trkpt lat="44.037812579313105" lon="10.855813768127632"><ele>715.0</ele><time>2026-04-26T09:46:17.001Z</time></trkpt><trkpt lat="44.03779625053094" lon="10.855552035072565"><ele>715.0</ele><time>2026-04-26T09:46:18.001Z</time></trkpt><trkpt lat="44.03776910810576" lon="10.855287287399165"><ele>715.0</ele><time>2026-04-26T09:46:19.001Z</time></trkpt><trkpt lat="44.037754356266234" lon="10.855037134603103"><ele>715.0</ele><time>2026-04-26T09:46:20.001Z</time></trkpt><trkpt lat="44.03772637744945" lon="10.854823420364752"><ele>714.3333333333334</ele><time>2026-04-26T09:46:21.001Z</time></trkpt><trkpt lat="44.0376547670674" lon="10.854626002589814"><ele>713.6666666666666</ele><time>2026-04-26T09:46:22.001Z</time></trkpt><trkpt lat="44.03755136266993" lon="10.854431768040333"><ele>713.0</ele><time>2026-04-26T09:46:23.001Z</time></trkpt><trkpt lat="44.037450582691775" lon="10.854250955851898"><ele>714.25</ele><time>2026-04-26T09:46:24.001Z</time></trkpt><trkpt lat="44.03736746264558" lon="10.854073619725511"><ele>715.5</ele><time>2026-04-26T09:46:25.001Z</time></trkpt><trkpt lat="44.03733269125667" lon="10.853879589224244"><ele>716.75</ele><time>2026-04-26T09:46:26.001Z</time></trkpt><trkpt lat="44.037345709813444" lon="10.853676233318925"><ele>718.0</ele><time>2026-04-26T09:46:27.001Z</time></trkpt><trkpt lat="44.037397385258274" lon="10.853513512891587"><ele>715.5</ele><time>2026-04-26T09:46:28.001Z</time></trkpt><trkpt lat="44.03748258023843" lon="10.853388053479652"><ele>713.0</ele><time>2026-04-26T09:46:29.001Z</time></trkpt><trkpt lat="44.037605831072376" lon="10.853302525236854"><ele>710.5</ele><time>2026-04-26T09:46:30.001Z</time></trkpt><trkpt lat="44.037725148254495" lon="10.853201688032122"><ele>708.0</ele><time>2026-04-26T09:46:31.001Z</time></trkpt><trkpt lat="44.03779831813943" lon="10.853062703343998"><ele>708.0</ele><time>2026-04-26T09:46:32.001Z</time></trkpt><trkpt lat="44.03784078217614" lon="10.852885585628135"><ele>708.0</ele><time>2026-04-26T09:46:33.001Z</time></trkpt><trkpt lat="44.037824478394604" lon="10.852680473664813"><ele>708.0</ele><time>2026-04-26T09:46:34.001Z</time></trkpt><trkpt lat="44.037784718530354" lon="10.852451077853113"><ele>709.3333333333334</ele><time>2026-04-26T09:46:35.001Z</time></trkpt><trkpt lat="44.037727956117706" lon="10.85221931860771"><ele>710.6666666666667</ele><time>2026-04-26T09:46:36.001Z</time></trkpt><trkpt lat="44.037683766944035" lon="10.851981281279912"><ele>712.0</ele><time>2026-04-26T09:46:37.001Z</time></trkpt><trkpt lat="44.03763783397466" lon="10.851777379645036"><ele>712.0</ele><time>2026-04-26T09:46:38.001Z</time></trkpt><trkpt lat="44.03760364858945" lon="10.851577938541526"><ele>712.0</ele><time>2026-04-26T09:46:39.001Z</time></trkpt><trkpt lat="44.0375772866334" lon="10.851389111730935"><ele>712.0</ele><time>2026-04-26T09:46:40.001Z</time></trkpt><trkpt lat="44.037593600198804" lon="10.85120922161101"><ele>712.0</ele><time>2026-04-26T09:46:41.001Z</time></trkpt><trkpt lat="44.037644314452166" lon="10.851009467720385"><ele>712.3333333333334</ele><time>2026-04-26T09:46:42.001Z</time></trkpt><trkpt lat="44.037699540769246" lon="10.85078710141547"><ele>712.6666666666666</ele><time>2026-04-26T09:46:43.001Z</time></trkpt><trkpt lat="44.03777049405645" lon="10.850557641417716"><ele>713.0</ele><time>2026-04-26T09:46:44.001Z</time></trkpt><trkpt lat="44.03783280103633" lon="10.850321922140845"><ele>713.0</ele><time>2026-04-26T09:46:45.001Z</time></trkpt><trkpt lat="44.037902106783314" lon="10.850077163278321"><ele>713.0</ele><time>2026-04-26T09:46:46.001Z</time></trkpt><trkpt lat="44.03798101443979" lon="10.849840672252329"><ele>713.0</ele><time>2026-04-26T09:46:47.001Z</time></trkpt><trkpt lat="44.03808529260128" lon="10.849614895301674"><ele>713.0</ele><time>2026-04-26T09:46:48.001Z</time></trkpt><trkpt lat="44.03819526059431" lon="10.849388360285067"><ele>713.0</ele><time>2026-04-26T09:46:49.001Z</time></trkpt><trkpt lat="44.03831431248511" lon="10.849154861008175"><ele>713.0</ele><time>2026-04-26T09:46:50.001Z</time></trkpt><trkpt lat="44.03842948360914" lon="10.84893488942899"><ele>715.0</ele><time>2026-04-26T09:46:51.001Z</time></trkpt><trkpt lat="44.03855133981118" lon="10.848727977058463"><ele>717.0</ele><time>2026-04-26T09:46:52.001Z</time></trkpt><trkpt lat="44.03864622120838" lon="10.848502419298214"><ele>719.0</ele><time>2026-04-26T09:46:53.001Z</time></trkpt><trkpt lat="44.03875610295642" lon="10.848318766237302"><ele>719.0</ele><time>2026-04-26T09:46:54.001Z</time></trkpt><trkpt lat="44.03883836046806" lon="10.848153783421116"><ele>719.0</ele><time>2026-04-26T09:46:55.001Z</time></trkpt><trkpt lat="44.03890931756378" lon="10.848006997134078"><ele>719.0</ele><time>2026-04-26T09:46:56.001Z</time></trkpt><trkpt lat="44.03898044930237" lon="10.847879529520572"><ele>719.0</ele><time>2026-04-26T09:46:57.001Z</time></trkpt><trkpt lat="44.03904817474288" lon="10.847778141537148"><ele>719.0</ele><time>2026-04-26T09:46:58.001Z</time></trkpt><trkpt lat="44.03910728690336" lon="10.847677096301302"><ele>719.0</ele><time>2026-04-26T09:46:59.001Z</time></trkpt><trkpt lat="44.039141195296835" lon="10.847547275226871"><ele>719.0</ele><time>2026-04-26T09:47:00.001Z</time></trkpt><trkpt lat="44.03915984120744" lon="10.847406932438806"><ele>719.0</ele><time>2026-04-26T09:47:01.001Z</time></trkpt><trkpt lat="44.03919623104955" lon="10.847259579235397"><ele>719.0</ele><time>2026-04-26T09:47:02.001Z</time></trkpt><trkpt lat="44.03926195060768" lon="10.84712231604523"><ele>720.5</ele><time>2026-04-26T09:47:03.001Z</time></trkpt><trkpt lat="44.039354544610184" lon="10.847007309367019"><ele>722.0</ele><time>2026-04-26T09:47:04.001Z</time></trkpt><trkpt lat="44.03944886030083" lon="10.84687192371744"><ele>723.5</ele><time>2026-04-26T09:47:05.001Z</time></trkpt><trkpt lat="44.03954959560496" lon="10.846713570470268"><ele>725.0</ele><time>2026-04-26T09:47:06.001Z</time></trkpt><trkpt lat="44.03964570944832" lon="10.84656657481992"><ele>725.0</ele><time>2026-04-26T09:47:07.001Z</time></trkpt><trkpt lat="44.03972907542964" lon="10.84641497232118"><ele>725.0</ele><time>2026-04-26T09:47:08.001Z</time></trkpt><trkpt lat="44.039811023990666" lon="10.846227201465936"><ele>725.0</ele><time>2026-04-26T09:47:09.001Z</time></trkpt><trkpt lat="44.039891327000426" lon="10.846018306481435"><ele>727.0</ele><time>2026-04-26T09:47:10.001Z</time></trkpt><trkpt lat="44.03997922453285" lon="10.845815471758062"><ele>729.0</ele><time>2026-04-26T09:47:11.001Z</time></trkpt><trkpt lat="44.040075711010836" lon="10.845619235924323"><ele>731.0</ele><time>2026-04-26T09:47:12.001Z</time></trkpt><trkpt lat="44.040181114833665" lon="10.845443807633787"><ele>731.0</ele><time>2026-04-26T09:47:13.001Z</time></trkpt><trkpt lat="44.04027955084103" lon="10.845281696085037"><ele>731.0</ele><time>2026-04-26T09:47:14.001Z</time></trkpt><trkpt lat="44.040356654566125" lon="10.845120792837582"><ele>731.0</ele><time>2026-04-26T09:47:15.001Z</time></trkpt><trkpt lat="44.04040866874579" lon="10.844952418367178"><ele>731.0</ele><time>2026-04-26T09:47:16.001Z</time></trkpt><trkpt lat="44.040443009875204" lon="10.844775705833264"><ele>731.0</ele><time>2026-04-26T09:47:17.001Z</time></trkpt><trkpt lat="44.040475522182355" lon="10.844591968921046"><ele>731.0</ele><time>2026-04-26T09:47:18.001Z</time></trkpt><trkpt lat="44.04048483702992" lon="10.844392238377695"><ele>731.0</ele><time>2026-04-26T09:47:19.001Z</time></trkpt><trkpt lat="44.04044788461695" lon="10.844210619329568"><ele>731.0</ele><time>2026-04-26T09:47:20.001Z</time></trkpt><trkpt lat="44.040384989714106" lon="10.844029572659569"><ele>732.0</ele><time>2026-04-26T09:47:21.001Z</time></trkpt><trkpt lat="44.040321463546995" lon="10.843836783823255"><ele>733.0</ele><time>2026-04-26T09:47:22.001Z</time></trkpt><trkpt lat="44.040280564890836" lon="10.843661722168935"><ele>734.0</ele><time>2026-04-26T09:47:23.001Z</time></trkpt><trkpt lat="44.040265145698704" lon="10.843504510354828"><ele>735.0</ele><time>2026-04-26T09:47:24.001Z</time></trkpt><trkpt lat="44.040260139581726" lon="10.843385262317463"><ele>735.3333333333334</ele><time>2026-04-26T09:47:25.001Z</time></trkpt><trkpt lat="44.04023044779072" lon="10.843293710598385"><ele>735.6666666666666</ele><time>2026-04-26T09:47:26.001Z</time></trkpt><trkpt lat="44.040164662486035" lon="10.84320960440483"><ele>736.0</ele><time>2026-04-26T09:47:27.001Z</time></trkpt><trkpt lat="44.04008931249152" lon="10.843144989886389"><ele>736.3333333333333</ele><time>2026-04-26T09:47:28.001Z</time></trkpt><trkpt lat="44.040021544365096" lon="10.84306374114337"><ele>736.6666666666666</ele><time>2026-04-26T09:47:29.001Z</time></trkpt><trkpt lat="44.03996593270447" lon="10.842971042597656"><ele>737.0</ele><time>2026-04-26T09:47:30.001Z</time></trkpt><trkpt lat="44.03993266368363" lon="10.842885283397681"><ele>738.0</ele><time>2026-04-26T09:47:31.001Z</time></trkpt><trkpt lat="44.03994724346833" lon="10.842755419877278"><ele>739.0</ele><time>2026-04-26T09:47:32.001Z</time></trkpt><trkpt lat="44.03997889524723" lon="10.842604268116377"><ele>740.0</ele><time>2026-04-26T09:47:33.001Z</time></trkpt><trkpt lat="44.04000720312352" lon="10.842478508672988"><ele>741.0</ele><time>2026-04-26T09:47:34.001Z</time></trkpt><trkpt lat="44.04000185291755" lon="10.842369435680702"><ele>742.0</ele><time>2026-04-26T09:47:35.001Z</time></trkpt><trkpt lat="44.039958787832184" lon="10.842292012477383"><ele>744.8</ele><time>2026-04-26T09:47:36.001Z</time></trkpt><trkpt lat="44.03984787333323" lon="10.842214321352278"><ele>747.6</ele><time>2026-04-26T09:47:37.001Z</time></trkpt><trkpt lat="44.03974854548085" lon="10.842139620912834"><ele>750.4</ele><time>2026-04-26T09:47:38.001Z</time></trkpt><trkpt lat="44.03965790965667" lon="10.842077895693201"><ele>753.1999999999999</ele><time>2026-04-26T09:47:39.001Z</time></trkpt><trkpt lat="44.03961090854919" lon="10.841954149910697"><ele>756.0</ele><time>2026-04-26T09:47:40.001Z</time></trkpt><trkpt lat="44.039587648215274" lon="10.841801774511415"><ele>757.0</ele><time>2026-04-26T09:47:41.001Z</time></trkpt><trkpt lat="44.03957903275335" lon="10.841667779323517"><ele>758.0</ele><time>2026-04-26T09:47:42.001Z</time></trkpt><trkpt lat="44.03955675112456" lon="10.841512098948822"><ele>759.0</ele><time>2026-04-26T09:47:43.001Z</time></trkpt><trkpt lat="44.03953274593235" lon="10.841335663185498"><ele>760.0</ele><time>2026-04-26T09:47:44.001Z</time></trkpt><trkpt lat="44.03946879791047" lon="10.841140541094212"><ele>761.0</ele><time>2026-04-26T09:47:45.001Z</time></trkpt><trkpt lat="44.039426231139956" lon="10.84094198122887"><ele>762.0</ele><time>2026-04-26T09:47:46.001Z</time></trkpt><trkpt lat="44.03939486922782" lon="10.840756450639365"><ele>763.0</ele><time>2026-04-26T09:47:47.001Z</time></trkpt><trkpt lat="44.03936728207228" lon="10.840544519020831"><ele>764.0</ele><time>2026-04-26T09:47:48Z</time></trkpt><trkpt lat="44.03933877315447" lon="10.840328441628818"><ele>764.75</ele><time>2026-04-26T09:47:48.999Z</time></trkpt><trkpt lat="44.03930133768129" lon="10.84011742557201"><ele>765.5</ele><time>2026-04-26T09:47:49.999Z</time></trkpt><trkpt lat="44.03926433228318" lon="10.839937957815799"><ele>766.25</ele><time>2026-04-26T09:47:51.001Z</time></trkpt><trkpt lat="44.03922189634578" lon="10.839801189083108"><ele>767.0</ele><time>2026-04-26T09:47:52.001Z</time></trkpt><trkpt lat="44.03919751774045" lon="10.839695769188063"><ele>767.0</ele><time>2026-04-26T09:47:53.001Z</time></trkpt><trkpt lat="44.03915720281042" lon="10.839625546046955"><ele>767.0</ele><time>2026-04-26T09:47:54Z</time></trkpt><trkpt lat="44.03904167622268" lon="10.839651021989564"><ele>767.0</ele><time>2026-04-26T09:47:56Z</time></trkpt><trkpt lat="44.03900986865512" lon="10.83973168607069"><ele>767.0</ele><time>2026-04-26T09:47:57Z</time></trkpt><trkpt lat="44.03899854368764" lon="10.839824304863907"><ele>767.0</ele><time>2026-04-26T09:47:58Z</time></trkpt><trkpt lat="44.03901591825788" lon="10.839951780520321"><ele>767.0</ele><time>2026-04-26T09:47:59Z</time></trkpt><trkpt lat="44.039058492047936" lon="10.840108656891136"><ele>772.25</ele><time>2026-04-26T09:48:00Z</time></trkpt><trkpt lat="44.03910354097852" lon="10.840263949386786"><ele>777.5</ele><time>2026-04-26T09:48:01Z</time></trkpt><trkpt lat="44.039095753870924" lon="10.840455086859249"><ele>782.75</ele><time>2026-04-26T09:48:02Z</time></trkpt><trkpt lat="44.039074737010715" lon="10.84061247817215"><ele>788.0</ele><time>2026-04-26T09:48:03Z</time></trkpt><trkpt lat="44.03902616973617" lon="10.840758596843637"><ele>788.0</ele><time>2026-04-26T09:48:04Z</time></trkpt><trkpt lat="44.038958045869045" lon="10.840895776056927"><ele>788.0</ele><time>2026-04-26T09:48:05Z</time></trkpt><trkpt lat="44.0388764780189" lon="10.841019172554521"><ele>788.0</ele><time>2026-04-26T09:48:06Z</time></trkpt><trkpt lat="44.03876370265881" lon="10.841137219394167"><ele>788.0</ele><time>2026-04-26T09:48:07Z</time></trkpt><trkpt lat="44.038660848306826" lon="10.841256222736048"><ele>788.0</ele><time>2026-04-26T09:48:08Z</time></trkpt><trkpt lat="44.03854251538089" lon="10.841376999866572"><ele>788.0</ele><time>2026-04-26T09:48:09Z</time></trkpt><trkpt lat="44.038418941820254" lon="10.841492994749865"><ele>788.0</ele><time>2026-04-26T09:48:10Z</time></trkpt><trkpt lat="44.03828226193043" lon="10.841593489504668"><ele>788.0</ele><time>2026-04-26T09:48:11Z</time></trkpt><trkpt lat="44.03814214134568" lon="10.841692730074435"><ele>788.0</ele><time>2026-04-26T09:48:12Z</time></trkpt><trkpt lat="44.03802150052667" lon="10.841771522188969"><ele>788.0</ele><time>2026-04-26T09:48:13Z</time></trkpt><trkpt lat="44.03793206708922" lon="10.84184501801889"><ele>788.0</ele><time>2026-04-26T09:48:14Z</time></trkpt><trkpt lat="44.037853960700176" lon="10.841910182231079"><ele>787.8333333333334</ele><time>2026-04-26T09:48:15Z</time></trkpt><trkpt lat="44.0377933894661" lon="10.841974521249714"><ele>787.6666666666667</ele><time>2026-04-26T09:48:16Z</time></trkpt><trkpt lat="44.037756425774525" lon="10.842077559540527"><ele>787.5</ele><time>2026-04-26T09:48:17Z</time></trkpt><trkpt lat="44.03773412463636" lon="10.842188541995995"><ele>787.3333333333333</ele><time>2026-04-26T09:48:18Z</time></trkpt><trkpt lat="44.037687086688294" lon="10.842276215243167"><ele>787.1666666666666</ele><time>2026-04-26T09:48:19Z</time></trkpt><trkpt lat="44.03762293338526" lon="10.842304901111811"><ele>787.0</ele><time>2026-04-26T09:48:20Z</time></trkpt><trkpt lat="44.03754384600624" lon="10.842313147139913"><ele>787.0</ele><time>2026-04-26T09:48:22Z</time></trkpt><trkpt lat="44.037486203425594" lon="10.842407773516042"><ele>787.0</ele><time>2026-04-26T09:48:25Z</time></trkpt><trkpt lat="44.037489089141054" lon="10.842525281651913"><ele>787.0</ele><time>2026-04-26T09:48:27Z</time></trkpt><trkpt lat="44.037455267803516" lon="10.84261595042084"><ele>802.0</ele><time>2026-04-26T09:48:31Z</time></trkpt></trkseg></trk></gpx>